
Distance (Route):
Temperature : 11.9°C
Humidity : 77.9%
Pressure : 975.4hPa| Receiver | Frames | First received | Last received |
|---|---|---|---|
| DL1XH-west | 744 | 2026-09-05 22:48:40 | 2026-09-06 01:06:01 |
| DF8AY | 669 | 2026-09-05 22:50:43 | 2026-09-06 01:15:07 |
| AA1-15 | 629 | 2026-09-05 22:52:03 | 2026-09-06 01:06:29 |
| DM0DOS-11 | 538 | 2026-09-05 22:47:33 | 2026-09-06 01:11:57 |
| HSKMA3-T | 491 | 2026-09-05 23:18:44 | 2026-09-06 01:09:08 |
| DO2SHX-10 | 469 | 2026-09-05 22:58:27 | 2026-09-06 01:04:56 |
| BIOWL1-15 | 456 | 2026-09-05 22:48:32 | 2026-09-06 01:12:02 |
| DL1XH1-15 | 453 | 2026-09-05 22:49:27 | 2026-09-06 01:05:29 |
| DB0DAN | 367 | 2026-09-05 22:45:55 | 2026-09-06 01:07:10 |
| DL1XH-15 | 281 | 2026-09-05 22:50:03 | 2026-09-06 01:02:04 |
| DO2JMG | 195 | 2026-09-05 23:16:50 | 2026-09-06 00:40:04 |
| GOEST3-10 | 117 | 2026-09-05 23:00:34 | 2026-09-06 00:49:06 |
| DD8BA-10 | 107 | 2026-09-05 22:51:45 | 2026-09-06 00:43:07 |
| AM1SDL-15 | 74 | 2026-09-05 22:50:16 | 2026-09-06 01:17:43 |
| DL1NUX | 73 | 2026-09-05 23:44:16 | 2026-09-06 00:27:23 |
| DF8AY-15 | 65 | 2026-09-05 22:55:59 | 2026-09-06 01:10:41 |
| DO3MHA-11 | 63 | 2026-09-05 23:37:50 | 2026-09-06 00:48:31 |
| DF7ER-10 | 58 | 2026-09-05 23:03:25 | 2026-09-06 01:00:34 |
| EDDB2-12 | 45 | 2026-09-05 23:06:14 | 2026-09-06 01:17:09 |
| EDDB2-11 | 45 | 2026-09-05 23:23:57 | 2026-09-06 01:16:46 |
| DL4XJ-10 | 43 | 2026-09-05 22:47:52 | 2026-09-06 01:04:07 |
| DC4HF-4 | 43 | 2026-09-05 22:48:17 | 2026-09-06 01:13:45 |
| DL4BBY-15 | 41 | 2026-09-05 22:52:10 | 2026-09-06 00:53:43 |
| SMARD9-15 | 41 | 2026-09-05 22:55:56 | 2026-09-06 00:31:40 |
| DB0NH | 40 | 2026-09-05 23:10:08 | 2026-09-06 01:08:52 |
| SONCRA | 37 | 2026-09-05 22:56:22 | 2026-09-06 01:16:43 |
| TFSTFS | 37 | 2026-09-05 23:12:27 | 2026-09-06 01:09:12 |
| DB0UT-7 | 33 | 2026-09-05 23:05:05 | 2026-09-06 01:02:32 |
| SONDE2-11 | 33 | 2026-09-05 23:11:36 | 2026-09-06 01:16:51 |
| S3001 | 31 | 2026-09-05 22:55:14 | 2026-09-06 01:08:45 |
| DL1ZP-14 | 29 | 2026-09-05 23:05:21 | 2026-09-06 01:00:55 |
| HARRO8 | 27 | 2026-09-05 23:22:46 | 2026-09-06 00:54:32 |
| DJ2DS-15 | 25 | 2026-09-05 22:51:43 | 2026-09-06 01:03:58 |
| BUE01 | 24 | 2026-09-05 23:11:46 | 2026-09-06 00:50:38 |
| HTAHTA | 21 | 2026-09-05 23:31:15 | 2026-09-06 00:44:15 |
| DB0ND-19 | 19 | 2026-09-05 23:15:57 | 2026-09-06 01:01:01 |
| SMARD9-10 | 18 | 2026-09-05 22:50:22 | 2026-09-06 00:52:47 |
| BIOWL9-15 | 18 | 2026-09-05 22:52:09 | 2026-09-06 01:09:50 |
| DL3AQ-11 | 18 | 2026-09-05 22:55:32 | 2026-09-06 00:01:03 |
| DO9LL-15 | 16 | 2026-09-05 23:23:35 | 2026-09-06 00:40:10 |
| DJ8HS-15 | 14 | 2026-09-05 23:47:32 | 2026-09-06 00:42:15 |
| 13BRC | 14 | 2026-09-06 00:23:11 | 2026-09-06 00:56:44 |
| DL1LOL-11 | 12 | 2026-09-05 23:03:24 | 2026-09-06 00:55:26 |
| NBG1-10 | 12 | 2026-09-05 23:16:18 | 2026-09-06 01:06:17 |
| DL2RXE-15 | 11 | 2026-09-05 23:21:29 | 2026-09-06 01:16:35 |
| SP3BTT-10 | 10 | 2026-09-05 23:32:55 | 2026-09-06 00:50:39 |
| DL8OAI-8 | 8 | 2026-09-05 22:54:58 | 2026-09-05 23:12:26 |
| SO1NDE-10 | 7 | 2026-09-05 23:44:44 | 2026-09-06 00:13:45 |
| AU51GT2 | 4 | 2026-09-06 00:10:08 | 2026-09-06 00:33:56 |
| OE5DRO-10 | 4 | 2026-09-06 00:11:10 | 2026-09-06 00:31:00 |
| SP3WXH-11 | 4 | 2026-09-06 00:40:43 | 2026-09-06 00:44:20 |
| DL1CLM-18 | 3 | 2026-09-05 23:17:06 | 2026-09-06 00:06:12 |
| DF7PN | 3 | 2026-09-05 23:44:59 | 2026-09-06 00:47:07 |
| DJTTGO | 3 | 2026-09-06 00:12:11 | 2026-09-06 00:40:18 |
| BIOWL7-15 | 1 | 2026-09-05 22:52:57 | 2026-09-05 22:52:57 |
| 7ER-10 | 1 | 2026-09-05 23:39:23 | 2026-09-05 23:39:23 |
| DH0BRO-15 | 1 | 2026-09-05 23:55:06 | 2026-09-05 23:55:06 |
| Receiver | Date | Latitude | Longitude | Direction | Speed | Altitude | Climb | Temperature | Humidity | Pressure | Voltage | Killtimer | Uptime | BKT | XDATA |
|---|---|---|---|---|---|---|---|---|---|---|---|---|---|---|---|
| AM1SDL-15 | 2026-09-06 01:17:43 | 51.75934 | 12.15351 | 122° | 47km/h | 451m | -9.1m/s | 11.9°C | 77.9% | 975.4hPa | 2.7V | 00:00:00 | 02:54:53 | 00:00:00 | |
| AM1SDL-15 | 2026-09-06 01:17:41 | 51.75946 | 12.15319 | 123° | 46km/h | 468m | -8.6m/s | 11.8°C | 78.7% | 973.5hPa | 2.7V | 00:00:00 | 02:54:51 | 00:00:00 | |
| AM1SDL-15 | 2026-09-06 01:17:39 | 51.75958 | 12.15288 | 125° | 46km/h | 486m | -8.4m/s | 11.6°C | 79.1% | 971.6hPa | 2.7V | 02:29:00 | 02:54:49 | 00:00:00 | |
| AM1SDL-15 | 2026-09-06 01:17:37 | 51.75973 | 12.15257 | 130° | 49km/h | 503m | -9.0m/s | 11.5°C | 79.4% | 969.5hPa | 2.7V | 00:00:00 | 02:54:47 | 00:00:00 | |
| AM1SDL-15 | 2026-09-06 01:17:33 | 51.76004 | 12.15195 | 127° | 47km/h | 538m | -9.1m/s | 11.3°C | 80.5% | 965.3hPa | 2.7V | 00:00:00 | 02:54:43 | 00:00:00 | |
| AM1SDL-15 | 2026-09-06 01:17:31 | 51.76019 | 12.15164 | 131° | 49km/h | 555m | -9.7m/s | 11.2°C | 81.2% | 963.2hPa | 2.7V | 02:29:00 | 02:54:41 | 00:00:00 | |
| AM1SDL-15 | 2026-09-06 01:17:29 | 51.76035 | 12.15134 | 134° | 49km/h | 574m | -9.8m/s | 11.1°C | 81.6% | 961.1hPa | 2.7V | 00:00:00 | 02:54:39 | 00:00:00 | |
| AM1SDL-15 | 2026-09-06 01:17:27 | 51.76051 | 12.15104 | 134° | 49km/h | 593m | -9.2m/s | 11.0°C | 82.0% | 958.9hPa | 2.7V | 00:00:00 | 02:54:37 | 00:00:00 | |
| AM1SDL-15 | 2026-09-06 01:17:25 | 51.76068 | 12.15076 | 137° | 49km/h | 610m | -9.9m/s | 10.9°C | 82.4% | 957.0hPa | 2.7V | 02:30:00 | 02:54:35 | 00:00:00 | |
| AM1SDL-15 | 2026-09-06 01:17:23 | 51.76086 | 12.15048 | 137° | 49km/h | 629m | -9.4m/s | 10.9°C | 82.5% | 954.9hPa | 2.7V | 00:00:00 | 02:54:33 | 00:00:00 | |
| AM1SDL-15 | 2026-09-06 01:17:21 | 51.76104 | 12.15021 | 139° | 49km/h | 647m | -10.0m/s | 10.8°C | 82.4% | 952.7hPa | 2.7V | 00:00:00 | 02:54:31 | 00:00:00 | |
| AM1SDL-15 | 2026-09-06 01:17:19 | 51.76122 | 12.14993 | 137° | 49km/h | 665m | -9.2m/s | 10.7°C | 82.9% | 950.9hPa | 2.7V | 02:30:00 | 02:54:29 | 00:00:00 | |
| AM1SDL-15 | 2026-09-06 01:17:17 | 51.76140 | 12.14967 | 140° | 49km/h | 684m | -9.2m/s | 10.5°C | 83.4% | 948.6hPa | 2.7V | 00:00:00 | 02:54:27 | 00:00:00 | |
| AM1SDL-15 | 2026-09-06 01:17:11 | 51.76195 | 12.14888 | 137° | 47km/h | 736m | -8.8m/s | 10.0°C | 85.1% | 942.7hPa | 2.7V | 00:00:00 | 02:54:21 | 00:00:00 | |
| EDDB2-12 | 2026-09-06 01:17:09 | 51.76276 | 12.14770 | 135° | 46km/h | 814m | -8.5m/s | 9.4°C | 85.2% | 933.9hPa | 2.7V | 00:00:00 | 00:00:00 | 00:00:00 | |
| SONDE2-11 | 2026-09-06 01:16:51 | 51.76380 | 12.14613 | 135° | 46km/h | 914m | -9.0m/s | 8.9°C | 79.6% | 922.5hPa | 2.7V | 00:00:00 | 00:00:00 | 00:00:00 | |
| EDDB2-11 | 2026-09-06 01:16:46 | 51.76423 | 12.14544 | 134° | 47km/h | 957m | -9.0m/s | 8.6°C | 78.7% | 917.9hPa | 2.7V | 00:00:00 | 00:00:00 | 00:00:00 | |
| AM1SDL-15 | 2026-09-06 01:16:44 | 51.76431 | 12.14530 | 135° | 47km/h | 966m | -8.3m/s | 8.5°C | 79.9% | 917.0hPa | 2.7V | 00:00:00 | 02:53:54 | 00:00:00 | |
| SONCRA | 2026-09-06 01:16:43 | 51.76448 | 12.14500 | 131° | 49km/h | 981m | -8.7m/s | 8.4°C | 79.7% | 915.2hPa | 2.7V | 00:00:00 | 00:00:00 | 00:00:00 | |
| DL2RXE-15 | 2026-09-06 01:16:35 | 51.76496 | 12.14414 | 134° | 46km/h | 1031m | -8.5m/s | 7.9°C | 80.8% | 909.4hPa | 2.7V | 00:00:00 | 00:00:00 | 00:00:00 | |
| AM1SDL-15 | 2026-09-06 01:16:32 | 51.76530 | 12.14358 | 136° | 49km/h | 1063m | -8.3m/s | 7.6°C | 82.8% | 906.0hPa | 2.7V | 00:00:00 | 02:53:42 | 00:00:00 | |
| AM1SDL-15 | 2026-09-06 01:16:20 | 51.76630 | 12.14180 | 133° | 49km/h | 1161m | -8.2m/s | 6.6°C | 87.4% | 895.3hPa | 2.7V | 02:31:00 | 02:53:30 | 00:00:00 | |
| SONDE2-11 | 2026-09-06 01:16:19 | 51.76638 | 12.14165 | 130° | 47km/h | 1169m | -8.5m/s | 6.6°C | 86.9% | 894.7hPa | 2.7V | 00:00:00 | 00:00:00 | 00:00:00 | |
| EDDB2-11 | 2026-09-06 01:16:15 | 51.76677 | 12.14086 | 125° | 47km/h | 1210m | -7.8m/s | 6.2°C | 91.6% | 890.1hPa | 2.7V | 00:00:00 | 00:00:00 | 00:00:00 | |
| AM1SDL-15 | 2026-09-06 01:16:08 | 51.76720 | 12.13988 | 125° | 49km/h | 1256m | -8.2m/s | 6.0°C | 92.9% | 884.9hPa | 2.7V | 00:00:00 | 02:53:18 | 00:00:00 | |
| SONDE2-11 | 2026-09-06 01:15:49 | 51.76846 | 12.13635 | 116° | 49km/h | 1412m | -8.0m/s | 5.3°C | 82.1% | 868.4hPa | 2.7V | 00:00:00 | 00:00:00 | 00:00:00 | |
| EDDB2-11 | 2026-09-06 01:15:44 | 51.76875 | 12.13547 | 116° | 47km/h | 1450m | -7.4m/s | 5.0°C | 78.9% | 864.3hPa | 2.7V | 00:00:00 | 00:00:00 | 00:00:00 | |
| AM1SDL-15 | 2026-09-06 01:15:42 | 51.76880 | 12.13529 | 116° | 47km/h | 1458m | -7.5m/s | 4.9°C | 80.3% | 863.2hPa | 2.7V | 02:31:00 | 02:52:52 | 00:00:00 | |
| SONCRA | 2026-09-06 01:15:41 | 51.76891 | 12.13493 | 115° | 47km/h | 1472m | -7.8m/s | 4.9°C | 78.6% | 861.8hPa | 2.7V | 00:00:00 | 00:00:00 | 00:00:00 | |
| EDDB2-12 | 2026-09-06 01:15:36 | 51.76913 | 12.13425 | 118° | 47km/h | 1503m | -7.8m/s | 4.6°C | 79.3% | 858.9hPa | 2.7V | 00:00:00 | 00:00:00 | 00:00:00 | |
| AM1SDL-15 | 2026-09-06 01:15:30 | 51.76947 | 12.13320 | 118° | 46km/h | 1550m | -7.8m/s | 4.4°C | 81.2% | 853.9hPa | 2.7V | 00:00:00 | 02:52:40 | 00:00:00 | |
| DF8AY | 2026-09-06 01:15:07 | 51.77063 | 12.12930 | 117° | 47km/h | 1723m | -8.2m/s | 3.1°C | 87.1% | 835.6hPa | 2.7V | 02:32:58 | 02:52:17 | 00:00:00 | |
| DF8AY | 2026-09-06 01:15:02 | 51.77090 | 12.12840 | 113° | 47km/h | 1762m | -7.5m/s | 2.8°C | 87.8% | 831.8hPa | 2.6V | 02:32:58 | 02:52:12 | 00:00:00 | |
| DF8AY | 2026-09-06 01:15:01 | 51.77094 | 12.12822 | 114° | 47km/h | 1769m | -7.5m/s | 2.7°C | 87.9% | 831hPa | 2.6V | 02:32:58 | 02:52:11 | 00:00:00 | |
| DF8AY | 2026-09-06 01:15:00 | 51.77099 | 12.12804 | 115° | 47km/h | 1777m | -7.7m/s | 2.6°C | 87.7% | 830.2hPa | 2.7V | 02:32:58 | 02:52:10 | 00:00:00 | |
| DF8AY | 2026-09-06 01:14:58 | 51.77110 | 12.12769 | 115° | 51km/h | 1792m | -7.4m/s | 2.5°C | 87.7% | 828.7hPa | 2.7V | 02:32:58 | 02:52:08 | 00:00:00 | |
| DF8AY | 2026-09-06 01:14:56 | 51.77149 | 12.12636 | 113° | 49km/h | 1844m | -7.4m/s | 2°C | 86.2% | 823.4hPa | 2.7V | 02:32:58 | 02:52:01 | 00:00:00 | |
| DF8AY | 2026-09-06 01:14:50 | 51.77154 | 12.12618 | 117° | 49km/h | 1852m | -7.7m/s | 2°C | 86% | 822.5hPa | 2.6V | 02:32:58 | 02:52:00 | 00:00:00 | |
| DF8AY | 2026-09-06 01:14:48 | 51.77165 | 12.12582 | 119° | 51km/h | 1867m | -7.7m/s | 1.9°C | 85.7% | 821.1hPa | 2.7V | 02:32:58 | 02:51:58 | 00:00:00 | |
| SONDE2-11 | 2026-09-06 01:14:46 | 51.77178 | 12.12545 | 118° | 53km/h | 1882m | -7.6m/s | 1.8°C | 85.6% | 819.5hPa | 2.7V | 00:00:00 | 00:00:00 | 00:00:00 | |
| DF8AY | 2026-09-06 01:14:46 | 51.77208 | 12.12449 | 116° | 51km/h | 1919m | -7m/s | 1.5°C | 86.5% | 815.8hPa | 2.7V | 02:32:58 | 02:51:51 | 00:00:00 | |
| DF8AY | 2026-09-06 01:14:39 | 51.77220 | 12.12412 | 121° | 51km/h | 1932m | -7.5m/s | 1.5°C | 84.6% | 814.4hPa | 2.7V | 02:32:58 | 02:51:49 | 00:00:00 | |
| DF8AY | 2026-09-06 01:14:37 | 51.77234 | 12.12377 | 124° | 51km/h | 1947m | -7.6m/s | 1.7°C | 81.7% | 812.9hPa | 2.7V | 02:32:58 | 02:51:47 | 00:00:00 | |
| DF8AY | 2026-09-06 01:14:35 | 51.77249 | 12.12342 | 124° | 53km/h | 1962m | -7.5m/s | 2°C | 74.8% | 811.3hPa | 2.6V | 02:32:58 | 02:51:45 | 00:00:00 | |
| DF8AY | 2026-09-06 01:14:33 | 51.77263 | 12.12305 | 123° | 55km/h | 1977m | -7m/s | 2.5°C | 64.3% | 810hPa | 2.7V | 02:32:58 | 02:51:43 | 00:00:00 | |
| DF8AY | 2026-09-06 01:14:32 | 51.77271 | 12.12286 | 121° | 55km/h | 1983m | -7.5m/s | 3.1°C | 51.1% | 809.1hPa | 2.7V | 02:32:58 | 02:51:42 | 00:00:00 | |
| DF8AY | 2026-09-06 01:14:30 | 51.77285 | 12.12249 | 120° | 53km/h | 1998m | -7.3m/s | 3.7°C | 42.7% | 807.5hPa | 2.7V | 02:33:49 | 02:51:40 | 00:00:00 | |
| DF8AY | 2026-09-06 01:14:24 | 51.77327 | 12.12147 | 128° | 51km/h | 2041m | -7.2m/s | 3.8°C | 35.6% | 803.2hPa | 2.7V | 02:33:49 | 02:51:34 | 00:00:00 | |
| DF8AY | 2026-09-06 01:14:14 | 51.77408 | 12.11974 | 126° | 55km/h | 2115m | -8m/s | 3.1°C | 35.8% | 796.2hPa | 2.7V | 02:33:49 | 02:51:24 | 00:00:00 | |
| DF8AY | 2026-09-06 01:14:04 | 51.77489 | 12.11800 | 127° | 51km/h | 2190m | -7.7m/s | 2.8°C | 33.1% | 788.9hPa | 2.7V | 02:33:49 | 02:51:14 | 00:00:00 | |
| DF8AY | 2026-09-06 01:13:53 | 51.77570 | 12.11614 | 124° | 51km/h | 2275m | -8m/s | 2.9°C | 30.5% | 780.6hPa | 2.7V | 02:33:49 | 02:51:03 | 00:00:00 | |
| DC4HF-4 | 2026-09-06 01:13:45 | 51.77629 | 12.11476 | 122° | 49km/h | 2337m | -8.1m/s | 2.7°C | 23.9% | 774.5hPa | 2.7V | 00:00:00 | 00:00:00 | 00:00:00 | |
| SONDE2-11 | 2026-09-06 01:13:44 | 51.77636 | 12.11459 | 122° | 51km/h | 2345m | -8.2m/s | 2.7°C | 23.3% | 774.0hPa | 2.7V | 00:00:00 | 00:00:00 | 00:00:00 | |
| DF8AY | 2026-09-06 01:13:42 | 51.77649 | 12.11424 | 122° | 51km/h | 2360m | -8.1m/s | 2.7°C | 25.1% | 772.5hPa | 2.7V | 02:33:49 | 02:50:52 | 00:00:00 | |
| DF8AY | 2026-09-06 01:13:32 | 51.77720 | 12.11239 | 123° | 55km/h | 2439m | -7.9m/s | 2.9°C | 23.7% | 765hPa | 2.7V | 02:34:40 | 02:50:42 | 00:00:00 | |
| DF8AY | 2026-09-06 01:13:21 | 51.77810 | 12.11018 | 122° | 60km/h | 2527m | -8.3m/s | 3.1°C | 16.8% | 756.8hPa | 2.6V | 02:34:40 | 02:50:31 | 00:00:00 | |
| DF8AY | 2026-09-06 01:13:11 | 51.77892 | 12.10807 | 120° | 60km/h | 2606m | -9.1m/s | 2.6°C | 18.5% | 749.5hPa | 2.7V | 02:34:40 | 02:50:21 | 00:00:00 | |
| DF8AY | 2026-09-06 01:13:00 | 51.77981 | 12.10580 | 123° | 58km/h | 2700m | -8.9m/s | 2°C | 21.3% | 740.6hPa | 2.7V | 02:34:40 | 02:50:10 | 00:00:00 | |
| DF8AY | 2026-09-06 01:12:49 | 51.78072 | 12.10350 | 122° | 60km/h | 2793m | -8.4m/s | 1.4°C | 20.5% | 732.2hPa | 2.6V | 02:35:31 | 02:49:59 | 00:00:00 | |
| DF8AY | 2026-09-06 01:12:39 | 51.78154 | 12.10135 | 120° | 62km/h | 2880m | -8.4m/s | 1°C | 14.3% | 724.5hPa | 2.7V | 02:35:31 | 02:49:49 | 00:00:00 | |
| DF8AY | 2026-09-06 01:12:28 | 51.78250 | 12.09893 | 125° | 64km/h | 2968m | -8.7m/s | 0.8°C | 11.6% | 716.2hPa | 2.7V | 02:35:31 | 02:49:38 | 00:00:00 | |
| DF8AY | 2026-09-06 01:12:17 | 51.78354 | 12.09654 | 126° | 66km/h | 3060m | -8.8m/s | 0.4°C | 11.7% | 708.1hPa | 2.6V | 02:35:31 | 02:49:27 | 00:00:00 | |
| DF8AY | 2026-09-06 01:12:06 | 51.78463 | 12.09408 | 127° | 69km/h | 3154m | -9.1m/s | -0.4°C | 11.6% | 699.9hPa | 2.7V | 02:35:31 | 02:49:16 | 00:00:00 | |
| BIOWL1-15 | 2026-09-06 01:12:02 | 51.78515 | 12.09291 | 123° | 71km/h | 3196m | -8.4m/s | -0.5°C | 10.4% | 696.2hPa | 2.6V | 02:35:31 | 02:49:11 | 00:00:00 | |
| EDDB2-12 | 2026-09-06 01:11:59 | 51.78543 | 12.09215 | 120° | 73km/h | 3221m | -8.9m/s | -0.4°C | 7.1% | 694.1hPa | 2.7V | 00:00:00 | 00:00:00 | 00:00:00 | |
| DM0DOS-11 | 2026-09-06 01:11:57 | 51.78594 | 12.09086 | 123° | 77km/h | 3264m | -8.6m/s | -0.3°C | 5.5% | 690.2hPa | 2.7V | 02:35:37 | 02:49:03 | 00:00:00 | |
| DF8AY | 2026-09-06 01:11:55 | 51.78573 | 12.09138 | 123° | 77km/h | 3247m | -8.4m/s | -0.3°C | 4.2% | 691.7hPa | 2.6V | 02:36:22 | 02:49:05 | 00:00:00 | |
| BIOWL1-15 | 2026-09-06 01:11:51 | 51.78616 | 12.09036 | 125° | 75km/h | 3281m | -8.7m/s | -0.4°C | 3.4% | 688.9hPa | 2.7V | 02:36:22 | 02:49:01 | 00:00:00 | |
| DF8AY | 2026-09-06 01:11:44 | 51.78685 | 12.08860 | 122° | 73km/h | 3338m | -8.7m/s | -0.4°C | 3.1% | 683.9hPa | 2.7V | 02:36:22 | 02:48:54 | 00:00:00 | |
| BIOWL1-15 | 2026-09-06 01:11:40 | 51.78763 | 12.08647 | 119° | 77km/h | 3402m | -8.7m/s | -0.6°C | 3.5% | 678.5hPa | 2.7V | 02:36:22 | 02:48:46 | 00:00:00 | |
| DF8AY | 2026-09-06 01:11:33 | 51.78835 | 12.08422 | 117° | 78km/h | 3468m | -8.4m/s | -0.7°C | 0.9% | 672.7hPa | 2.7V | 02:36:22 | 02:48:38 | 00:00:00 | |
| BIOWL1-15 | 2026-09-06 01:11:26 | 51.78853 | 12.08364 | 119° | 80km/h | 3484m | -8.6m/s | -0.8°C | 2.1% | 671.4hPa | 2.6V | 02:36:22 | 02:48:36 | 00:00:00 | |
| DF8AY | 2026-09-06 01:11:23 | 51.78883 | 12.08276 | 120° | 82km/h | 3509m | -9.4m/s | -0.9°C | 3.2% | 669.2hPa | 2.7V | 02:36:22 | 02:48:33 | 00:00:00 | |
| BIOWL1-15 | 2026-09-06 01:11:16 | 51.78960 | 12.08072 | 122° | 84km/h | 3569m | -8.4m/s | -1°C | 1.2% | 664.4hPa | 2.7V | 02:36:22 | 02:48:26 | 00:00:00 | |
| DF8AY | 2026-09-06 01:11:12 | 51.79006 | 12.07958 | 124° | 82km/h | 3602m | -8.4m/s | -1.1°C | 0.7% | 661.6hPa | 2.6V | 02:36:22 | 02:48:22 | 00:00:00 | |
| BIOWL1-15 | 2026-09-06 01:11:06 | 51.79075 | 12.07784 | 122° | 88km/h | 3651m | -8.4m/s | -1.3°C | 0.1% | 657.6hPa | 2.6V | 02:37:13 | 02:48:16 | 00:00:00 | |
| DF8AY | 2026-09-06 01:11:02 | 51.79124 | 12.07666 | 124° | 86km/h | 3684m | -8.1m/s | -1.4°C | 0% | 654.7hPa | 2.7V | 02:37:13 | 02:48:12 | 00:00:00 | |
| BIOWL1-15 | 2026-09-06 01:10:55 | 51.79214 | 12.07460 | 124° | 91km/h | 3741m | -7.6m/s | -1.6°C | 1.3% | 650.1hPa | 2.7V | 02:37:13 | 02:48:05 | 00:00:00 | |
| DF8AY | 2026-09-06 01:10:51 | 51.79266 | 12.07342 | 127° | 88km/h | 3772m | -7.9m/s | -1.8°C | 1.4% | 647.6hPa | 2.6V | 02:37:13 | 02:48:01 | 00:00:00 | |
| BIOWL1-15 | 2026-09-06 01:10:47 | 51.79348 | 12.07171 | 129° | 89km/h | 3816m | -9.1m/s | -2.1°C | 2.9% | 644hPa | 2.6V | 02:37:13 | 02:47:55 | 00:00:00 | |
| DM0DOS-11 | 2026-09-06 01:10:47 | 51.79377 | 12.07114 | 128° | 89km/h | 3833m | -8.2m/s | -2.2°C | 5% | 642.7hPa | 2.7V | 02:36:47 | 02:47:53 | 00:00:00 | |
| DC4HF-4 | 2026-09-06 01:10:45 | 51.79362 | 12.07143 | 129° | 88km/h | 3825m | -8.7m/s | -2.2°C | 4.8% | 643.3hPa | 2.7V | 00:00:00 | 00:00:00 | 00:00:00 | |
| DF8AY | 2026-09-06 01:10:41 | 51.79405 | 12.07057 | 129° | 91km/h | 3848m | -7.1m/s | -2.4°C | 3.7% | 641.3hPa | 2.7V | 02:37:13 | 02:47:51 | 00:00:00 | |
| DF8AY-15 | 2026-09-06 01:10:41 | 51.79405 | 12.07057 | 130° | 88km/h | 3848m | -7.0m/s | -2.3°C | 5.2% | 641.2hPa | 2.7V | 00:00:00 | 02:47:51 | 00:00:00 | |
| DM0DOS-11 | 2026-09-06 01:10:40 | 51.79492 | 12.06885 | 128° | 89km/h | 3893m | -8.1m/s | -2.7°C | 5.4% | 637.8hPa | 2.7V | 02:36:55 | 02:47:45 | 00:00:00 | |
| SONDE2-11 | 2026-09-06 01:10:38 | 51.79449 | 12.06971 | 129° | 91km/h | 3870m | -7.1m/s | -2.5°C | 5.4% | 639.6hPa | 2.6V | 00:00:00 | 00:00:00 | 00:00:00 | |
| DM0DOS-11 | 2026-09-06 01:10:35 | 51.79559 | 12.06744 | 126° | 86km/h | 3931m | -8m/s | -2.9°C | 7.7% | 634.8hPa | 2.6V | 02:37:00 | 02:47:40 | 00:00:00 | |
| BIOWL1-15 | 2026-09-06 01:10:34 | 51.79506 | 12.06857 | 128° | 88km/h | 3901m | -8m/s | -2.7°C | 3.8% | 637.1hPa | 2.6V | 02:37:13 | 02:47:44 | 00:00:00 | |
| DF8AY | 2026-09-06 01:10:31 | 51.79546 | 12.06772 | 127° | 86km/h | 3923m | -7.3m/s | -2.9°C | 8.3% | 635.4hPa | 2.6V | 02:37:13 | 02:47:41 | 00:00:00 | |
| SONCRA | 2026-09-06 01:10:31 | 51.79559 | 12.06744 | 126° | 86km/h | 3930m | -8.0m/s | -2.9°C | 7.5% | 634.8hPa | 2.7V | 00:00:00 | 00:00:00 | 00:00:00 | |
| AM1SDL-15 | 2026-09-06 01:10:30 | 51.79558 | 12.06743 | 127° | 88km/h | 3931m | -8.0m/s | -2.8°C | 7.7% | 634.8hPa | 2.7V | 00:00:00 | 02:47:40 | 00:00:00 | |
| DM0DOS-11 | 2026-09-06 01:10:28 | 51.79655 | 12.06550 | 130° | 88km/h | 3986m | -7.9m/s | -3.4°C | 6.7% | 630.4hPa | 2.7V | 02:37:07 | 02:47:33 | 00:00:00 | |
| BIOWL1-15 | 2026-09-06 01:10:24 | 51.79641 | 12.06577 | 131° | 88km/h | 3978m | -8.1m/s | -3.3°C | 6.4% | 631.1hPa | 2.6V | 02:37:13 | 02:47:34 | 00:00:00 | |
| DM0DOS-11 | 2026-09-06 01:10:23 | 51.79729 | 12.06413 | 130° | 89km/h | 4022m | -7.2m/s | -3.6°C | 5.8% | 627.4hPa | 2.6V | 02:37:12 | 02:47:28 | 00:00:00 | |
| DF8AY | 2026-09-06 01:10:20 | 51.79699 | 12.06468 | 131° | 89km/h | 4009m | -6.7m/s | -3.6°C | 5.8% | 628.4hPa | 2.6V | 02:37:13 | 02:47:30 | 00:00:00 | |
| DM0DOS-11 | 2026-09-06 01:10:18 | 51.79802 | 12.06272 | 130° | 91km/h | 4057m | -7.2m/s | -3.9°C | 4.6% | 624.7hPa | 2.6V | 02:37:17 | 02:47:23 | 00:00:00 | |
| BIOWL1-15 | 2026-09-06 01:10:13 | 51.79833 | 12.06215 | 132° | 93km/h | 4071m | -6.8m/s | -4°C | 3.1% | 623.6hPa | 2.6V | 02:38:04 | 02:47:21 | 00:00:00 | |
| DF8AY | 2026-09-06 01:10:09 | 51.79864 | 12.06159 | 132° | 93km/h | 4086m | -7.9m/s | -4.1°C | 2.8% | 622.4hPa | 2.6V | 02:38:04 | 02:47:19 | 00:00:00 | |
| BIOWL1-15 | 2026-09-06 01:10:02 | 51.80009 | 12.05896 | 131° | 97km/h | 4150m | -6.6m/s | -4.5°C | 6.4% | 617.4hPa | 2.6V | 02:38:04 | 02:47:10 | 00:00:00 | |
| DF8AY | 2026-09-06 01:09:58 | 51.80115 | 12.05684 | 127° | 93km/h | 4198m | -7.4m/s | -4.6°C | 6.1% | 613.5hPa | 2.6V | 02:38:04 | 02:47:03 | 00:00:00 | |
| DM0DOS-11 | 2026-09-06 01:09:57 | 51.80129 | 12.05654 | 126° | 93km/h | 4206m | -7.8m/s | -4.7°C | 6.7% | 612.9hPa | 2.6V | 02:37:38 | 02:47:02 | 00:00:00 | |
| EDDB2-12 | 2026-09-06 01:09:54 | 51.80100 | 12.05715 | 127° | 93km/h | 4191m | -6.7m/s | -4.6°C | 6.6% | 614.2hPa | 2.6V | 00:00:00 | 00:00:00 | 00:00:00 | |
| AM1SDL-15 | 2026-09-06 01:09:53 | 51.80115 | 12.05684 | 127° | 93km/h | 4199m | -7.4m/s | -4.6°C | 6.7% | 613.4hPa | 2.6V | 00:00:00 | 02:47:03 | 00:00:00 | |
| DM0DOS-11 | 2026-09-06 01:09:52 | 51.80200 | 12.05503 | 128° | 93km/h | 4241m | -6.9m/s | -4.9°C | 8.2% | 610.2hPa | 2.6V | 02:37:43 | 02:46:57 | 00:00:00 | |
| BIOWL1-15 | 2026-09-06 01:09:52 | 51.80129 | 12.05654 | 127° | 93km/h | 4206m | -7.8m/s | -4.7°C | 6.1% | 612.9hPa | 2.6V | 02:38:04 | 02:47:02 | 00:00:00 | |
| BIOWL9-15 | 2026-09-06 01:09:50 | 51.80171 | 12.05563 | 127° | 91km/h | 4227m | -7.1m/s | -4.8°C | 6.6% | 611.4hPa | 2.6V | 00:00:00 | 00:00:00 | 00:00:00 | |
| DM0DOS-11 | 2026-09-06 01:09:47 | 51.80275 | 12.05353 | 129° | 97km/h | 4276m | -6.8m/s | -5.1°C | 8.1% | 607.4hPa | 2.6V | 02:37:48 | 02:46:52 | 00:00:00 | |
| DF8AY | 2026-09-06 01:09:46 | 51.80215 | 12.05474 | 129° | 93km/h | 4248m | -7.3m/s | -4.9°C | 8.2% | 609.7hPa | 2.6V | 02:38:04 | 02:46:56 | 00:00:00 | |
| BIOWL1-15 | 2026-09-06 01:09:45 | 51.80291 | 12.05322 | 129° | 97km/h | 4283m | -6.6m/s | -5.1°C | 8.1% | 606.9hPa | 2.6V | 02:38:04 | 02:46:51 | 00:00:00 | |
| DM0DOS-11 | 2026-09-06 01:09:42 | 51.80354 | 12.05195 | 127° | 102km/h | 4309m | -7.2m/s | -5.2°C | 7.6% | 604.8hPa | 2.6V | 02:37:53 | 02:46:47 | 00:00:00 | |
| DF8AY-15 | 2026-09-06 01:09:41 | 51.80291 | 12.05322 | 130° | 102km/h | 4283m | -6.6m/s | -5.1°C | 8.2% | 606.9hPa | 2.6V | 00:00:00 | 02:46:51 | 00:00:00 | |
| DM0DOS-11 | 2026-09-06 01:09:37 | 51.80448 | 12.04996 | 125° | 102km/h | 4351m | -6.8m/s | -5.4°C | 6.7% | 601.7hPa | 2.6V | 02:37:59 | 02:46:41 | 00:00:00 | |
| DF8AY | 2026-09-06 01:09:35 | 51.80386 | 12.05129 | 128° | 102km/h | 4324m | -7.1m/s | -5.3°C | 6.7% | 603.9hPa | 2.6V | 02:38:04 | 02:46:45 | 00:00:00 | |
| DC4HF-4 | 2026-09-06 01:09:33 | 51.80433 | 12.05030 | 125° | 102km/h | 4345m | -6.5m/s | -5.3°C | 6.3% | 602.2hPa | 2.6V | 00:00:00 | 00:00:00 | 00:00:00 | |
| EDDB2-11 | 2026-09-06 01:09:32 | 51.80448 | 12.04996 | 125° | 100km/h | 4351m | -6.9m/s | -5.4°C | 6.4% | 601.8hPa | 2.6V | 00:00:00 | 00:00:00 | 00:00:00 | |
| DM0DOS-11 | 2026-09-06 01:09:31 | 51.80522 | 12.04827 | 125° | 102km/h | 4386m | -7.5m/s | -5.4°C | 4.9% | 599hPa | 2.6V | 02:38:04 | 02:46:36 | 00:00:00 | |
| DF8AY | 2026-09-06 01:09:31 | 51.80537 | 12.04793 | 126° | 102km/h | 4393m | -7.5m/s | -5.5°C | 2.7% | 598.4hPa | 2.6V | 02:38:55 | 02:46:35 | 00:00:00 | |
| BIOWL1-15 | 2026-09-06 01:09:30 | 51.80463 | 12.04962 | 125° | 100km/h | 4358m | -6.5m/s | -5.4°C | 5.8% | 601.1hPa | 2.6V | 02:38:04 | 02:46:40 | 00:00:00 | |
| SONCRA | 2026-09-06 01:09:29 | 51.80492 | 12.04895 | 124° | 99km/h | 4372m | -7.1m/s | -5.4°C | 5.4% | 600.1hPa | 2.6V | 00:00:00 | 00:00:00 | 00:00:00 | |
| AM1SDL-15 | 2026-09-06 01:09:28 | 51.80492 | 12.04895 | 125° | 104km/h | 4372m | -7.0m/s | -5.3°C | 5.6% | 600.1hPa | 2.6V | 00:00:00 | 02:46:38 | 00:00:00 | |
| DM0DOS-11 | 2026-09-06 01:09:26 | 51.80600 | 12.04656 | 126° | 104km/h | 4421m | -6.5m/s | -5.5°C | 4.1% | 596.3hPa | 2.6V | 02:38:09 | 02:46:31 | 00:00:00 | |
| BIOWL1-15 | 2026-09-06 01:09:22 | 51.80615 | 12.04622 | 127° | 104km/h | 4427m | -6.1m/s | -5.6°C | 2.1% | 595.8hPa | 2.6V | 02:38:55 | 02:46:30 | 00:00:00 | |
| DM0DOS-11 | 2026-09-06 01:09:21 | 51.80679 | 12.04485 | 127° | 106km/h | 4453m | -7.1m/s | -5.7°C | 5.1% | 594hPa | 2.6V | 02:38:14 | 02:46:26 | 00:00:00 | |
| DF8AY-15 | 2026-09-06 01:09:21 | 51.80599 | 12.04656 | 127° | 106km/h | 4421m | -6.4m/s | -5.5°C | 4.1% | 596.3hPa | 2.6V | 02:38:00 | 02:46:31 | 00:00:00 | |
| BIOWL9-15 | 2026-09-06 01:09:18 | 51.80647 | 12.04553 | 127° | 104km/h | 4439m | -6.2m/s | -5.6°C | 4.2% | 594.8hPa | 2.6V | 00:00:00 | 00:00:00 | 00:00:00 | |
| DM0DOS-11 | 2026-09-06 01:09:16 | 51.80761 | 12.04310 | 126° | 106km/h | 4487m | -7m/s | -5.9°C | 7.3% | 591.4hPa | 2.6V | 02:38:19 | 02:46:21 | 00:00:00 | |
| DF8AY | 2026-09-06 01:09:15 | 51.80696 | 12.04450 | 127° | 106km/h | 4459m | -6.9m/s | -5.7°C | 4.2% | 593.4hPa | 2.6V | 02:38:55 | 02:46:25 | 00:00:00 | |
| DL2RXE-15 | 2026-09-06 01:09:14 | 51.80712 | 12.04415 | 128° | 108km/h | 4466m | -7.3m/s | -5.7°C | 5.7% | 593.0hPa | 2.6V | 02:38:00 | 00:00:00 | 00:00:00 | |
| TFSTFS | 2026-09-06 01:09:12 | 51.80729 | 12.04380 | 128° | 108km/h | 4473m | -7.0m/s | -5.8°C | 6.1% | 592.4hPa | 2.6V | 02:38:00 | 00:00:00 | 00:00:00 | |
| DM0DOS-11 | 2026-09-06 01:09:10 | 51.80854 | 12.04103 | 126° | 102km/h | 4530m | -7.4m/s | -6.1°C | 5.9% | 588.1hPa | 2.6V | 02:38:25 | 02:46:15 | 00:00:00 | |
| BIOWL1-15 | 2026-09-06 01:09:09 | 51.80823 | 12.04171 | 125° | 104km/h | 4516m | -7.2m/s | -6°C | 5% | 589.3hPa | 2.6V | 02:38:55 | 02:46:17 | 00:00:00 | |
| HSKMA3-T | 2026-09-06 01:09:08 | 51.80808 | 12.04206 | 126° | 104km/h | 4509m | -7.5m/s | -6°C | 5.5% | 589.7hPa | 2.6V | 02:40:37 | 02:46:18 | 00:00:00 | |
| DM0DOS-11 | 2026-09-06 01:09:05 | 51.80935 | 12.03935 | 128° | 106km/h | 4566m | -7.1m/s | -6.3°C | 4.9% | 585.3hPa | 2.6V | 02:38:30 | 02:46:10 | 00:00:00 | |
| DF8AY | 2026-09-06 01:09:04 | 51.80870 | 12.04070 | 127° | 104km/h | 4538m | -7.7m/s | -6.1°C | 5% | 587.4hPa | 2.6V | 02:38:55 | 02:46:14 | 00:00:00 | |
| DF8AY-15 | 2026-09-06 01:09:01 | 51.80919 | 12.03969 | 129° | 108km/h | 4560m | -7.2m/s | -6.2°C | 5.3% | 585.9hPa | 2.6V | 00:00:00 | 02:46:11 | 00:00:00 | |
| DM0DOS-11 | 2026-09-06 01:09:00 | 51.81019 | 12.03762 | 127° | 110km/h | 4602m | -6.8m/s | -6.5°C | 4.6% | 582.7hPa | 2.6V | 02:38:35 | 02:46:05 | 00:00:00 | |
| BIOWL1-15 | 2026-09-06 01:08:56 | 51.81002 | 12.03798 | 128° | 108km/h | 4595m | -7m/s | -6.4°C | 3.2% | 583.2hPa | 2.6V | 02:38:55 | 02:46:06 | 00:00:00 | |
| DF8AY | 2026-09-06 01:08:54 | 51.81052 | 12.03691 | 126° | 110km/h | 4616m | -7.4m/s | -6.5°C | 2.7% | 581.6hPa | 2.6V | 02:38:55 | 02:46:03 | 00:00:00 | |
| DB0NH | 2026-09-06 01:08:52 | 51.81069 | 12.03655 | 127° | 110km/h | 4623m | -7.4m/s | -6.5°C | 4.4% | 581.2hPa | 2.6V | 00:00:00 | 02:46:02 | 00:00:00 | |
| DM0DOS-11 | 2026-09-06 01:08:50 | 51.81188 | 12.03405 | 128° | 108km/h | 4670m | -6.5m/s | -6.9°C | 4.7% | 577.6hPa | 2.6V | 02:38:45 | 02:45:55 | 00:00:00 | |
| BIOWL1-15 | 2026-09-06 01:08:45 | 51.81188 | 12.03405 | 128° | 108km/h | 4670m | -6.5m/s | -6.9°C | 3.2% | 577.7hPa | 2.6V | 02:38:55 | 02:45:55 | 00:00:00 | |
| S3001 | 2026-09-06 01:08:45 | 51.81205 | 12.03371 | 128° | 106km/h | 4676m | -6.3m/s | -6.9°C | 4.7% | 577.2hPa | 2.6V | 00:00:00 | 00:00:00 | 00:00:00 | |
| DF8AY | 2026-09-06 01:08:42 | 51.81238 | 12.03304 | 129° | 106km/h | 4689m | -6.6m/s | -7°C | 4.5% | 576.1hPa | 2.6V | 02:38:55 | 02:45:52 | 00:00:00 | |
| DF8AY-15 | 2026-09-06 01:08:41 | 51.81255 | 12.03270 | 129° | 111km/h | 4696m | -6.6m/s | -7.0°C | 5.6% | 575.6hPa | 2.6V | 00:00:00 | 02:45:51 | 00:00:00 | |
| DM0DOS-11 | 2026-09-06 01:08:40 | 51.81353 | 12.03062 | 127° | 110km/h | 4738m | -6.3m/s | -7.3°C | 7.3% | 572.6hPa | 2.6V | 02:38:55 | 02:45:45 | 00:00:00 | |
| DM0DOS-11 | 2026-09-06 01:08:35 | 51.81437 | 12.02883 | 127° | 111km/h | 4771m | -7.1m/s | -7.5°C | 7.4% | 570.2hPa | 2.6V | 02:39:00 | 02:45:40 | 00:00:00 | |
| BIOWL1-15 | 2026-09-06 01:08:34 | 51.81370 | 12.03026 | 127° | 110km/h | 4745m | -6.9m/s | -7.4°C | 7.4% | 572.2hPa | 2.6V | 02:39:46 | 02:45:44 | 00:00:00 | |
| DF8AY | 2026-09-06 01:08:32 | 51.81403 | 12.02955 | 127° | 110km/h | 4758m | -6.7m/s | -7.5°C | 8.3% | 571.2hPa | 2.6V | 02:39:46 | 02:45:42 | 00:00:00 | |
| TFSTFS | 2026-09-06 01:08:31 | 51.81403 | 12.02955 | 128° | 110km/h | 4758m | -6.7m/s | -7.5°C | 7.8% | 571.2hPa | 2.6V | 02:39:00 | 00:00:00 | 00:00:00 | |
| DM0DOS-11 | 2026-09-06 01:08:30 | 51.81522 | 12.02701 | 126° | 113km/h | 4803m | -5.8m/s | -7.5°C | 4.7% | 567.9hPa | 2.6V | 02:39:05 | 02:45:35 | 00:00:00 | |
| EDDB2-11 | 2026-09-06 01:08:29 | 51.81454 | 12.02847 | 126° | 110km/h | 4778m | -6.7m/s | -7.5°C | 6.2% | 569.7hPa | 2.6V | 00:00:00 | 00:00:00 | 00:00:00 | |
| AM1SDL-15 | 2026-09-06 01:08:28 | 51.81471 | 12.02810 | 128° | 113km/h | 4784m | -6.2m/s | -7.3°C | 5.0% | 569.1hPa | 2.6V | 02:39:00 | 02:45:38 | 00:00:00 | |
| SONCRA | 2026-09-06 01:08:26 | 51.81522 | 12.02701 | 126° | 111km/h | 4803m | -5.8m/s | -7.5°C | 4.5% | 567.9hPa | 2.6V | 00:00:00 | 00:00:00 | 00:00:00 | |
| DM0DOS-11 | 2026-09-06 01:08:25 | 51.81608 | 12.02517 | 127° | 113km/h | 4833m | -6m/s | -7.7°C | 4.6% | 565.7hPa | 2.6V | 02:39:10 | 02:45:30 | 00:00:00 | |
| BIOWL1-15 | 2026-09-06 01:08:24 | 51.81539 | 12.02664 | 127° | 113km/h | 4809m | -6.1m/s | -7.5°C | 3.1% | 567.2hPa | 2.6V | 02:39:46 | 02:45:34 | 00:00:00 | |
| DF8AY | 2026-09-06 01:08:21 | 51.81591 | 12.02554 | 127° | 113km/h | 4827m | -6m/s | -7.6°C | 2.9% | 566hPa | 2.6V | 02:39:46 | 02:45:31 | 00:00:00 | |
| DC4HF-4 | 2026-09-06 01:08:20 | 51.81608 | 12.02517 | 127° | 111km/h | 4833m | -6.0m/s | -7.7°C | 4.3% | 565.7hPa | 2.6V | 00:00:00 | 00:00:00 | 00:00:00 | |
| AM1SDL-15 | 2026-09-06 01:08:16 | 51.81677 | 12.02373 | 128° | 111km/h | 4857m | -5.6m/s | -7.8°C | 4.5% | 563.9hPa | 2.6V | 00:00:00 | 02:45:26 | 00:00:00 | |
| DM0DOS-11 | 2026-09-06 01:08:15 | 51.81746 | 12.02229 | 126° | 111km/h | 4881m | -6.5m/s | -8°C | 4.3% | 562.1hPa | 2.6V | 02:39:18 | 02:45:22 | 00:00:00 | |
| BIOWL1-15 | 2026-09-06 01:08:15 | 51.81729 | 12.02265 | 127° | 111km/h | 4875m | -6.4m/s | -7.9°C | 2.8% | 562.6hPa | 2.6V | 02:39:46 | 02:45:23 | 00:00:00 | |
| HSKMA3-T | 2026-09-06 01:08:12 | 51.81746 | 12.02229 | 127° | 111km/h | 4881m | -6.5m/s | -8°C | 2.6% | 562.1hPa | 2.6V | 02:40:37 | 02:45:22 | 00:00:00 | |
| DF8AY | 2026-09-06 01:08:10 | 51.81780 | 12.02155 | 126° | 113km/h | 4894m | -7.6m/s | -7.9°C | 2.4% | 561.2hPa | 2.6V | 02:39:46 | 02:45:20 | 00:00:00 | |
| TFSTFS | 2026-09-06 01:08:08 | 51.81797 | 12.02118 | 127° | 113km/h | 4901m | -6.0m/s | -8.0°C | 4.0% | 560.8hPa | 2.6V | 02:39:00 | 00:00:00 | 00:00:00 | |
| DM0DOS-11 | 2026-09-06 01:08:06 | 51.81932 | 12.01822 | 126° | 113km/h | 4954m | -6.7m/s | -8.3°C | 4.3% | 556.8hPa | 2.6V | 02:39:29 | 02:45:11 | 00:00:00 | |
| BIOWL1-15 | 2026-09-06 01:08:02 | 51.81915 | 12.01858 | 127° | 113km/h | 4947m | -7.8m/s | -8.3°C | 2.5% | 557.4hPa | 2.6V | 02:39:46 | 02:45:12 | 00:00:00 | |
| DM0DOS-11 | 2026-09-06 01:08:01 | 51.82018 | 12.01636 | 126° | 115km/h | 4997m | -8.8m/s | -8.6°C | 4.7% | 554hPa | 2.6V | 02:39:34 | 02:45:06 | 00:00:00 | |
| DF8AY | 2026-09-06 01:07:59 | 51.81966 | 12.01747 | 127° | 113km/h | 4970m | -9.8m/s | -8.4°C | 2.7% | 555.7hPa | 2.5V | 02:39:46 | 02:45:09 | 00:00:00 | |
| EDDB2-11 | 2026-09-06 01:07:58 | 51.82000 | 12.01673 | 126° | 113km/h | 4988m | -8.6m/s | -8.5°C | 4.2% | 554.5hPa | 2.6V | 00:00:00 | 00:00:00 | 00:00:00 | |
| DM0DOS-11 | 2026-09-06 01:07:55 | 51.82124 | 12.01411 | 127° | 115km/h | 5053m | -8.5m/s | -8.9°C | 6.8% | 550hPa | 2.6V | 02:39:40 | 02:45:00 | 00:00:00 | |
| BIOWL1-15 | 2026-09-06 01:07:51 | 51.82106 | 12.01448 | 128° | 115km/h | 5045m | -8.6m/s | -8.8°C | 6.6% | 550.5hPa | 2.6V | 02:39:46 | 02:45:01 | 00:00:00 | |
| DF8AY | 2026-09-06 01:07:48 | 51.82159 | 12.01337 | 128° | 113km/h | 5070m | -8.1m/s | -9°C | 5.6% | 548.7hPa | 2.5V | 02:39:46 | 02:44:58 | 00:00:00 | |
| BIOWL9-15 | 2026-09-06 01:07:45 | 51.82213 | 12.01228 | 127° | 113km/h | 5093m | -7.9m/s | -9.1°C | 5.2% | 547.1hPa | 2.5V | 00:00:00 | 00:00:00 | 00:00:00 | |
| DC4HF-4 | 2026-09-06 01:07:44 | 51.82230 | 12.01191 | 127° | 111km/h | 5101m | -7.6m/s | -9.2°C | 5.3% | 546.6hPa | 2.5V | 00:00:00 | 00:00:00 | 00:00:00 | |
| DF8AY | 2026-09-06 01:07:42 | 51.82351 | 12.00939 | 128° | 113km/h | 5153m | -7.3m/s | -9.3°C | 13.1% | 542.9hPa | 2.5V | 02:40:37 | 02:44:47 | 00:00:00 | |
| BIOWL1-15 | 2026-09-06 01:07:40 | 51.82368 | 12.00903 | 128° | 113km/h | 5160m | -7.2m/s | -9.4°C | 14.1% | 542.5hPa | 2.5V | 02:40:37 | 02:44:46 | 00:00:00 | |
| DF8AY | 2026-09-06 01:07:26 | 51.82544 | 12.00538 | 128° | 111km/h | 5238m | -7.8m/s | -10°C | 14.6% | 537hPa | 2.5V | 02:40:37 | 02:44:36 | 00:00:00 | |
| BIOWL1-15 | 2026-09-06 01:07:25 | 51.82561 | 12.00503 | 128° | 111km/h | 5246m | -8m/s | -10°C | 14.1% | 536.3hPa | 2.6V | 02:40:37 | 02:44:35 | 00:00:00 | |
| HSKMA3-T | 2026-09-06 01:07:24 | 51.82578 | 12.00467 | 129° | 111km/h | 5254m | -8.1m/s | -10.1°C | 13.8% | 535.9hPa | 2.6V | 02:40:37 | 02:44:34 | 00:00:00 | |
| DF8AY | 2026-09-06 01:07:16 | 51.82745 | 12.00146 | 130° | 117km/h | 5322m | -7.9m/s | -10.3°C | 12.3% | 531.1hPa | 2.5V | 02:40:37 | 02:44:25 | 00:00:00 | |
| DM0DOS-11 | 2026-09-06 01:07:15 | 51.82783 | 12.00073 | 129° | 117km/h | 5337m | -7.4m/s | -10.4°C | 10.7% | 530hPa | 2.6V | 02:40:17 | 02:44:23 | 00:00:00 | |
| BIOWL1-15 | 2026-09-06 01:07:14 | 51.82764 | 12.00110 | 130° | 117km/h | 5329m | -7.6m/s | -10.3°C | 12% | 530.6hPa | 2.6V | 02:40:37 | 02:44:24 | 00:00:00 | |
| DB0DAN | 2026-09-06 01:07:10 | 51.82839 | 11.99963 | 129° | 110km/h | 5359m | -8m/s | -10.4°C | 10% | 528.43hPa | 2.5V | 00:00:00 | 00:00:00 | 00:00:00 | |
| DF8AY | 2026-09-06 01:07:05 | 51.82928 | 11.99780 | 128° | 113km/h | 5397m | -7.5m/s | -10.7°C | 12.4% | 526hPa | 2.5V | 02:40:37 | 02:44:15 | 00:00:00 | |
| DM0DOS-11 | 2026-09-06 01:07:04 | 51.82982 | 11.99671 | 128° | 115km/h | 5419m | -7.7m/s | -10.8°C | 12.2% | 524.5hPa | 2.6V | 02:40:28 | 02:44:12 | 00:00:00 | |
| BIOWL1-15 | 2026-09-06 01:07:04 | 51.82946 | 11.99744 | 129° | 113km/h | 5404m | -7.3m/s | -10.7°C | 13.2% | 525.5hPa | 2.5V | 02:40:37 | 02:44:14 | 00:00:00 | |
| SONDE2-11 | 2026-09-06 01:07:00 | 51.83019 | 11.99597 | 128° | 115km/h | 5434m | -7.9m/s | -10.9°C | 12.3% | 523.5hPa | 2.6V | 00:00:00 | 00:00:00 | 00:00:00 | |
| EDDB2-11 | 2026-09-06 01:06:56 | 51.83111 | 11.99410 | 127° | 115km/h | 5472m | -7.4m/s | -11.1°C | 15.0% | 520.8hPa | 2.6V | 00:00:00 | 00:00:00 | 00:00:00 | |
| DM0DOS-11 | 2026-09-06 01:06:54 | 51.83165 | 11.99297 | 128° | 117km/h | 5494m | -7.7m/s | -11.2°C | 17.6% | 519.2hPa | 2.6V | 02:40:38 | 02:44:02 | 00:00:00 | |
| BIOWL1-15 | 2026-09-06 01:06:54 | 51.83129 | 11.99373 | 128° | 117km/h | 5480m | -7.3m/s | -11.1°C | 18.8% | 520.2hPa | 2.5V | 02:40:37 | 02:44:04 | 00:00:00 | |
| HSKMA3-T | 2026-09-06 01:06:49 | 51.83221 | 11.99186 | 129° | 115km/h | 5517m | -7.7m/s | -11.4°C | 21.3% | 517.6hPa | 2.5V | 02:43:10 | 02:43:59 | 00:00:00 | |
| DF8AY | 2026-09-06 01:06:44 | 51.83312 | 11.99002 | 128° | 115km/h | 5555m | -7.2m/s | -11.6°C | 16.8% | 515.3hPa | 2.6V | 02:41:28 | 02:43:54 | 00:00:00 | |
| BIOWL1-15 | 2026-09-06 01:06:43 | 51.83404 | 11.98814 | 128° | 119km/h | 5594m | -7m/s | -11.7°C | 1.2% | 512.6hPa | 2.6V | 02:41:28 | 02:43:49 | 00:00:00 | |
| DM0DOS-11 | 2026-09-06 01:06:43 | 51.83348 | 11.98927 | 127° | 117km/h | 5570m | -7.8m/s | -11.6°C | 10% | 514.2hPa | 2.5V | 02:40:48 | 02:43:52 | 00:00:00 | |
| DF8AY-15 | 2026-09-06 01:06:40 | 51.83385 | 11.98852 | 129° | 119km/h | 5586m | -7.8m/s | -11.6°C | 4.7% | 513.2hPa | 2.6V | 02:40:00 | 02:43:50 | 00:00:00 | |
| DM0DOS-11 | 2026-09-06 01:06:35 | 51.83539 | 11.98551 | 130° | 120km/h | 5646m | -7.7m/s | -12°C | 3.7% | 508.9hPa | 2.6V | 02:40:58 | 02:43:42 | 00:00:00 | |
| DF8AY | 2026-09-06 01:06:34 | 51.83500 | 11.98626 | 130° | 120km/h | 5631m | -7.4m/s | -11.9°C | 1.6% | 510.1hPa | 2.6V | 02:41:28 | 02:43:44 | 00:00:00 | |
| BIOWL1-15 | 2026-09-06 01:06:33 | 51.83519 | 11.98588 | 130° | 120km/h | 5638m | -7.9m/s | -11.9°C | 1.8% | 509.5hPa | 2.6V | 02:41:28 | 02:43:43 | 00:00:00 | |
| HSKMA3-T | 2026-09-06 01:06:30 | 51.83578 | 11.98477 | 131° | 119km/h | 5662m | -7.8m/s | -12.1°C | 1.7% | 507.9hPa | 2.5V | 02:43:10 | 02:43:40 | 00:00:00 | |
| AA1-15 | 2026-09-06 01:06:29 | 51.83598 | 11.98441 | 130° | 117km/h | 5669m | -7.3m/s | -12.2°C | 1.8% | 507.5hPa | 2.6V | 02:43:10 | 02:43:39 | 00:00:00 | |
| AM1SDL-15 | 2026-09-06 01:06:28 | 51.83617 | 11.98404 | 131° | 117km/h | 5677m | -7.5m/s | -12.2°C | 3.7% | 507.0hPa | 2.6V | 00:00:00 | 02:43:38 | 00:00:00 | |
| TFSTFS | 2026-09-06 01:06:26 | 51.83636 | 11.98368 | 131° | 117km/h | 5684m | -7.0m/s | -12.3°C | 3.5% | 506.5hPa | 2.6V | 02:41:00 | 00:00:00 | 00:00:00 | |
| DM0DOS-11 | 2026-09-06 01:06:25 | 51.83731 | 11.98185 | 130° | 117km/h | 5720m | -7.9m/s | -12.6°C | 5.1% | 504.3hPa | 2.6V | 02:41:08 | 02:43:32 | 00:00:00 | |
| DF8AY | 2026-09-06 01:06:24 | 51.83693 | 11.98258 | 131° | 117km/h | 5706m | -7.2m/s | -12.5°C | 3.3% | 505.2hPa | 2.6V | 02:41:28 | 02:43:34 | 00:00:00 | |
| BIOWL1-15 | 2026-09-06 01:06:22 | 51.83770 | 11.98112 | 131° | 117km/h | 5736m | -7.4m/s | -12.6°C | 4.6% | 503.2hPa | 2.5V | 02:41:28 | 02:43:30 | 00:00:00 | |
| DB0NH | 2026-09-06 01:06:21 | 51.83751 | 11.98149 | 130° | 120km/h | 5728m | -7.8m/s | -12.6°C | 5.2% | 503.7hPa | 2.6V | 00:00:00 | 02:43:31 | 00:00:00 | |
| DF8AY-15 | 2026-09-06 01:06:20 | 51.83770 | 11.98112 | 131° | 120km/h | 5736m | -7.4m/s | -12.6°C | 5.4% | 503.2hPa | 2.6V | 00:00:00 | 02:43:30 | 00:00:00 | |
| NBG1-10 | 2026-09-06 01:06:17 | 51.83828 | 11.98000 | 129° | 128km/h | 5758m | -7.3m/s | -12.7°C | 9.4% | 501.6hPa | 2.6V | 02:41:00 | 02:43:27 | 00:00:00 | |
| AM1SDL-15 | 2026-09-06 01:06:16 | 51.83847 | 11.97962 | 130° | 120km/h | 5766m | -8.1m/s | -12.8°C | 10.8% | 501.0hPa | 2.6V | 00:00:00 | 02:43:26 | 00:00:00 | |
| DM0DOS-11 | 2026-09-06 01:06:15 | 51.83924 | 11.97808 | 128° | 120km/h | 5797m | -8m/s | -13°C | 9.5% | 499.2hPa | 2.6V | 02:41:18 | 02:43:22 | 00:00:00 | |
| DF8AY | 2026-09-06 01:06:13 | 51.83905 | 11.97847 | 129° | 122km/h | 5789m | -8.2m/s | -13°C | 10.6% | 499.7hPa | 2.6V | 02:41:28 | 02:43:23 | 00:00:00 | |
| BIOWL1-15 | 2026-09-06 01:06:13 | 51.83943 | 11.97770 | 129° | 120km/h | 5805m | -7.3m/s | -13.1°C | 10.2% | 498.6hPa | 2.5V | 02:41:28 | 02:43:21 | 00:00:00 | |
| BIOWL9-15 | 2026-09-06 01:06:12 | 51.83924 | 11.97808 | 128° | 120km/h | 5797m | -8.0m/s | -13.1°C | 9.0% | 499.2hPa | 2.6V | 00:00:00 | 00:00:00 | 00:00:00 | |
| DM0DOS-11 | 2026-09-06 01:06:07 | 51.84111 | 11.97420 | 127° | 122km/h | 5872m | -7.7m/s | -13.7°C | 9.3% | 494.1hPa | 2.6V | 02:41:28 | 02:43:12 | 00:00:00 | |
| DF8AY | 2026-09-06 01:06:03 | 51.84092 | 11.97459 | 128° | 120km/h | 5865m | -7.9m/s | -13.6°C | 10.1% | 494.8hPa | 2.6V | 02:41:28 | 02:43:13 | 00:00:00 | |
| DL1XH-west | 2026-09-06 01:06:01 | 51.84129 | 11.97381 | 127° | 120km/h | 5880m | -7.1m/s | -13.8°C | 10% | 493.8hPa | 2.5V | 02:42:19 | 02:43:11 | 00:00:00 | |
| SONDE2-11 | 2026-09-06 01:05:58 | 51.84186 | 11.97263 | 127° | 122km/h | 5902m | -7.3m/s | -14.0°C | 8.4% | 492.2hPa | 2.6V | 00:00:00 | 00:00:00 | 00:00:00 | |
| DC4HF-4 | 2026-09-06 01:05:56 | 51.84224 | 11.97183 | 127° | 122km/h | 5918m | -8.8m/s | -14.1°C | 8.4% | 491.2hPa | 2.6V | 00:00:00 | 00:00:00 | 00:00:00 | |
| DM0DOS-11 | 2026-09-06 01:05:55 | 51.84299 | 11.97023 | 127° | 124km/h | 5952m | -8.1m/s | -14.3°C | 10.1% | 489.1hPa | 2.6V | 02:41:38 | 02:43:02 | 00:00:00 | |
| DF8AY | 2026-09-06 01:05:52 | 51.84299 | 11.97023 | 127° | 124km/h | 5952m | -8.1m/s | -14.3°C | 11.1% | 489.1hPa | 2.6V | 02:42:19 | 02:43:02 | 00:00:00 | |
| BIOWL1-15 | 2026-09-06 01:05:51 | 51.84318 | 11.96984 | 127° | 124km/h | 5959m | -8.1m/s | -14.4°C | 13.1% | 488.6hPa | 2.5V | 02:42:19 | 02:43:01 | 00:00:00 | |
| AA1-15 | 2026-09-06 01:05:50 | 51.84337 | 11.96943 | 128° | 126km/h | 5968m | -9.7m/s | -14.3°C | 22% | 488.1hPa | 2.5V | 02:43:10 | 02:43:00 | 00:00:00 | |
| EDDB2-12 | 2026-09-06 01:05:46 | 51.84414 | 11.96780 | 126° | 126km/h | 6004m | -9.3m/s | -14.6°C | 33.2% | 485.8hPa | 2.6V | 00:00:00 | 00:00:00 | 00:00:00 | |
| DF8AY | 2026-09-06 01:05:42 | 51.84492 | 11.96613 | 126° | 128km/h | 6039m | -8.5m/s | -14.9°C | 42.8% | 483.6hPa | 2.6V | 02:42:19 | 02:42:52 | 00:00:00 | |
| DL1XH-west | 2026-09-06 01:05:40 | 51.84530 | 11.96528 | 126° | 130km/h | 6056m | -9.1m/s | -15°C | 46.6% | 482.3hPa | 2.5V | 02:42:19 | 02:42:50 | 00:00:00 | |
| AA1-15 | 2026-09-06 01:05:32 | 51.84684 | 11.96185 | 126° | 130km/h | 6128m | -8.4m/s | -15.5°C | 42.6% | 477.9hPa | 2.6V | 02:43:10 | 02:42:42 | 00:00:00 | |
| DF8AY | 2026-09-06 01:05:31 | 51.84807 | 11.95931 | 127° | 131km/h | 6178m | -7.6m/s | -15.8°C | 56.1% | 474.7hPa | 2.6V | 02:42:19 | 02:42:36 | 00:00:00 | |
| DL1XH1-15 | 2026-09-06 01:05:29 | 51.84848 | 11.95846 | 127° | 131km/h | 6193m | -7.8m/s | -15.9°C | 57.9% | 473.7hPa | 2.6V | 02:42:06 | 02:42:34 | 00:00:00 | |
| BIOWL1-15 | 2026-09-06 01:05:29 | 51.84745 | 11.96057 | 128° | 131km/h | 6153m | -8.2m/s | -15.6°C | 46.9% | 476.1hPa | 2.5V | 02:42:19 | 02:42:39 | 00:00:00 | |
| AM1SDL-15 | 2026-09-06 01:05:28 | 51.84766 | 11.96015 | 129° | 131km/h | 6162m | -8.0m/s | -15.7°C | 48.0% | 475.6hPa | 2.5V | 02:42:00 | 02:42:38 | 00:00:00 | |
| SONDE2-11 | 2026-09-06 01:05:27 | 51.84786 | 11.95973 | 128° | 131km/h | 6169m | -8.4m/s | -15.8°C | 50.6% | 475.3hPa | 2.5V | 00:00:00 | 00:00:00 | 00:00:00 | |
| DM0DOS-11 | 2026-09-06 01:05:25 | 51.84888 | 11.95762 | 127° | 130km/h | 6209m | -8.8m/s | -15.9°C | 63% | 472.7hPa | 2.5V | 02:42:08 | 02:42:32 | 00:00:00 | |
| AA1-15 | 2026-09-06 01:05:21 | 51.84909 | 11.95720 | 128° | 130km/h | 6218m | -9.2m/s | -16°C | 66.9% | 472.2hPa | 2.5V | 02:43:10 | 02:42:31 | 00:00:00 | |
| BIOWL1-15 | 2026-09-06 01:05:18 | 51.85012 | 11.95512 | 129° | 130km/h | 6262m | -8.6m/s | -15.9°C | 77.8% | 469.4hPa | 2.5V | 02:42:19 | 02:42:26 | 00:00:00 | |
| DL1XH-west | 2026-09-06 01:05:18 | 51.84970 | 11.95595 | 129° | 131km/h | 6245m | -9m/s | -16.1°C | 74.9% | 470.5hPa | 2.6V | 02:42:19 | 02:42:28 | 00:00:00 | |
| BIOWL1-15 | 2026-09-06 01:05:09 | 51.85233 | 11.95065 | 131° | 131km/h | 6350m | -7m/s | -16.3°C | 71.3% | 464hPa | 2.6V | 02:43:10 | 02:42:15 | 00:00:00 | |
| DL1XH1-15 | 2026-09-06 01:05:09 | 51.85255 | 11.95024 | 130° | 131km/h | 6356m | -6.5m/s | -16.3°C | 71.7% | 463.5hPa | 2.6V | 02:42:26 | 02:42:14 | 00:00:00 | |
| DL1XH-west | 2026-09-06 01:05:07 | 51.85191 | 11.95145 | 130° | 128km/h | 6336m | -7.3m/s | -16.1°C | 71.7% | 464.8hPa | 2.5V | 02:43:10 | 02:42:17 | 00:00:00 | |
| AA1-15 | 2026-09-06 01:05:03 | 51.85277 | 11.94983 | 131° | 131km/h | 6364m | -7.9m/s | -16.3°C | 70.7% | 463.1hPa | 2.6V | 02:43:10 | 02:42:13 | 00:00:00 | |
| DF8AY-15 | 2026-09-06 01:05:00 | 51.85343 | 11.94862 | 132° | 135km/h | 6387m | -8.0m/s | -16.5°C | 72.2% | 461.5hPa | 2.5V | 00:00:00 | 02:42:10 | 00:00:00 | |
| DL1XH1-15 | 2026-09-06 01:04:59 | 51.85479 | 11.94625 | 133° | 135km/h | 6437m | -8.5m/s | -16.9°C | 73.4% | 458.6hPa | 2.5V | 02:42:36 | 02:42:04 | 00:00:00 | |
| HSKMA3-T | 2026-09-06 01:04:58 | 51.85388 | 11.94783 | 132° | 131km/h | 6404m | -8.4m/s | -16.6°C | 71% | 460.6hPa | 2.6V | 02:43:10 | 02:42:08 | 00:00:00 | |
| DF8AY | 2026-09-06 01:04:57 | 51.85411 | 11.94743 | 133° | 131km/h | 6412m | -8.3m/s | -16.7°C | 70.9% | 460.1hPa | 2.6V | 02:43:10 | 02:42:07 | 00:00:00 | |
| BIOWL1-15 | 2026-09-06 01:04:57 | 51.85456 | 11.94665 | 133° | 131km/h | 6429m | -8.8m/s | -16.8°C | 70.9% | 459.1hPa | 2.5V | 02:43:10 | 02:42:05 | 00:00:00 | |
| DL1XH-west | 2026-09-06 01:04:56 | 51.85433 | 11.94704 | 133° | 131km/h | 6420m | -8.8m/s | -16.7°C | 70.9% | 459.7hPa | 2.6V | 02:43:10 | 02:42:06 | 00:00:00 | |
| DO2SHX-10 | 2026-09-06 01:04:56 | 51.85433 | 11.94704 | 133° | 131km/h | 6420m | -8.8m/s | -16.7°C | 72.4% | 459.7hPa | 2.6V | 00:00:00 | 02:42:06 | 00:00:00 | |
| DM0DOS-11 | 2026-09-06 01:04:55 | 51.85526 | 11.94544 | 133° | 135km/h | 6454m | -8.7m/s | -16.9°C | 74.7% | 457.4hPa | 2.6V | 02:42:38 | 02:42:02 | 00:00:00 | |
| AA1-15 | 2026-09-06 01:04:53 | 51.85503 | 11.94584 | 134° | 135km/h | 6446m | -8.7m/s | -17°C | 71% | 458hPa | 2.5V | 02:43:10 | 02:42:03 | 00:00:00 | |
| EDDB2-11 | 2026-09-06 01:04:52 | 51.85550 | 11.94504 | 133° | 137km/h | 6462m | -7.8m/s | -16.8°C | 73.1% | 457.0hPa | 2.6V | 00:00:00 | 00:00:00 | 00:00:00 | |
| DB0NH | 2026-09-06 01:04:51 | 51.85550 | 11.94503 | 134° | 139km/h | 6462m | -7.7m/s | -16.8°C | 75.7% | 456.9hPa | 2.6V | 00:00:00 | 02:42:01 | 00:00:00 | |
| DO2SHX-10 | 2026-09-06 01:04:50 | 51.85574 | 11.94463 | 134° | 139km/h | 6470m | -7.6m/s | -16.8°C | 75.3% | 456.4hPa | 2.6V | 00:00:00 | 02:42:00 | 00:00:00 | |
| DL1XH1-15 | 2026-09-06 01:04:49 | 51.85718 | 11.94217 | 134° | 137km/h | 6519m | -7.6m/s | -16.4°C | 70.5% | 453.4hPa | 2.6V | 02:42:46 | 02:41:54 | 00:00:00 | |
| BIOWL1-15 | 2026-09-06 01:04:46 | 51.85718 | 11.94217 | 135° | 137km/h | 6519m | -7.6m/s | -16.4°C | 69.7% | 453.4hPa | 2.6V | 02:43:10 | 02:41:54 | 00:00:00 | |
| DF8AY | 2026-09-06 01:04:46 | 51.85670 | 11.94298 | 133° | 139km/h | 6504m | -9.1m/s | -16.8°C | 71.6% | 454.5hPa | 2.5V | 02:43:10 | 02:41:56 | 00:00:00 | |
| DL1XH-west | 2026-09-06 01:04:45 | 51.85694 | 11.94257 | 134° | 139km/h | 6512m | -7.2m/s | -16.6°C | 70.5% | 454hPa | 2.6V | 02:43:10 | 02:41:55 | 00:00:00 | |
| EDDB2-12 | 2026-09-06 01:04:44 | 51.85718 | 11.94217 | 134° | 137km/h | 6519m | -7.6m/s | -16.4°C | 68.1% | 453.4hPa | 2.6V | 00:00:00 | 00:00:00 | 00:00:00 | |
| HSKMA3-T | 2026-09-06 01:04:43 | 51.85743 | 11.94177 | 135° | 139km/h | 6527m | -8.7m/s | -16.2°C | 67.5% | 453hPa | 2.6V | 02:43:10 | 02:41:53 | 00:00:00 | |
| AA1-15 | 2026-09-06 01:04:42 | 51.85767 | 11.94137 | 135° | 139km/h | 6536m | -8.7m/s | -16°C | 63.8% | 452.5hPa | 2.6V | 02:43:10 | 02:41:52 | 00:00:00 | |
| DF8AY-15 | 2026-09-06 01:04:40 | 51.85818 | 11.94058 | 137° | 137km/h | 6553m | -9.0m/s | -15.8°C | 53.9% | 451.5hPa | 2.5V | 02:42:00 | 02:41:50 | 00:00:00 | |
| DL1XH1-15 | 2026-09-06 01:04:39 | 51.85970 | 11.93819 | 134° | 141km/h | 6605m | -8.7m/s | -16.1°C | 54.3% | 448.4hPa | 2.5V | 02:42:56 | 02:41:44 | 00:00:00 | |
| DF8AY | 2026-09-06 01:04:35 | 51.85945 | 11.93859 | 135° | 141km/h | 6596m | -8.6m/s | -16°C | 57.5% | 449.1hPa | 2.6V | 02:43:10 | 02:41:45 | 00:00:00 | |
| DM0DOS-11 | 2026-09-06 01:04:35 | 51.86020 | 11.93736 | 133° | 139km/h | 6622m | -8.2m/s | -16.2°C | 55.2% | 447.4hPa | 2.5V | 02:42:58 | 02:41:42 | 00:00:00 | |
| DL1XH-west | 2026-09-06 01:04:34 | 51.85970 | 11.93819 | 135° | 141km/h | 6605m | -8.7m/s | -16.1°C | 57.8% | 448.4hPa | 2.5V | 02:43:10 | 02:41:44 | 00:00:00 | |
| HSKMA3-T | 2026-09-06 01:04:32 | 51.86020 | 11.93736 | 134° | 139km/h | 6622m | -8.2m/s | -16.2°C | 58.5% | 447.4hPa | 2.5V | 02:43:10 | 02:41:42 | 00:00:00 | |
| AA1-15 | 2026-09-06 01:04:31 | 51.86044 | 11.93695 | 133° | 139km/h | 6631m | -8.5m/s | -16.3°C | 58.4% | 446.9hPa | 2.6V | 02:43:10 | 02:41:41 | 00:00:00 | |
| DL1XH1-15 | 2026-09-06 01:04:29 | 51.86214 | 11.93421 | 136° | 135km/h | 6688m | -8.3m/s | -16.6°C | 54.4% | 443.5hPa | 2.6V | 02:43:06 | 02:41:34 | 00:00:00 | |
| BIOWL1-15 | 2026-09-06 01:04:28 | 51.86164 | 11.93497 | 136° | 135km/h | 6672m | -8.2m/s | -16.5°C | 56.8% | 444.5hPa | 2.6V | 02:43:10 | 02:41:36 | 00:00:00 | |
| DL1XH-west | 2026-09-06 01:04:23 | 51.86238 | 11.93383 | 137° | 135km/h | 6696m | -7.6m/s | -16.7°C | 56.9% | 443.1hPa | 2.5V | 02:43:10 | 02:41:33 | 00:00:00 | |
| DM0DOS-11 | 2026-09-06 01:04:23 | 51.86263 | 11.93345 | 136° | 133km/h | 6704m | -8.6m/s | -16.7°C | 54.3% | 442.5hPa | 2.5V | 02:43:08 | 02:41:32 | 00:00:00 | |
| HSKMA3-T | 2026-09-06 01:04:22 | 51.86263 | 11.93345 | 136° | 133km/h | 6704m | -8.6m/s | -16.7°C | 56.6% | 442.5hPa | 2.5V | 02:43:10 | 02:41:32 | 00:00:00 | |
| AA1-15 | 2026-09-06 01:04:20 | 51.86312 | 11.93269 | 135° | 133km/h | 6720m | -7.9m/s | -16.8°C | 55.4% | 441.6hPa | 2.6V | 02:43:10 | 02:41:30 | 00:00:00 | |
| DF8AY-15 | 2026-09-06 01:04:20 | 51.86312 | 11.93269 | 136° | 137km/h | 6721m | -7.9m/s | -16.7°C | 53.5% | 441.5hPa | 2.5V | 00:00:00 | 02:41:30 | 00:00:00 | |
| DL1XH1-15 | 2026-09-06 01:04:19 | 51.86460 | 11.93034 | 135° | 137km/h | 6765m | -9m/s | -17.1°C | 54.3% | 439hPa | 2.5V | 02:43:16 | 02:41:24 | 00:00:00 | |
| SONCRA | 2026-09-06 01:04:18 | 51.86361 | 11.93192 | 135° | 135km/h | 6735m | -7.1m/s | -16.9°C | 51.7% | 440.6hPa | 2.6V | 00:00:00 | 00:00:00 | 00:00:00 | |
| DM0DOS-11 | 2026-09-06 01:04:15 | 51.86510 | 11.92957 | 136° | 135km/h | 6782m | -8.2m/s | -17.2°C | 54.7% | 438.1hPa | 2.6V | 02:43:18 | 02:41:22 | 00:00:00 | |
| DL1XH-west | 2026-09-06 01:04:13 | 51.86485 | 11.92995 | 136° | 137km/h | 6774m | -8.2m/s | -17.2°C | 56.2% | 438.6hPa | 2.6V | 02:44:01 | 02:41:23 | 00:00:00 | |
| DF8AY | 2026-09-06 01:04:12 | 51.86510 | 11.92957 | 136° | 135km/h | 6782m | -8.2m/s | -17.2°C | 56.2% | 438.1hPa | 2.6V | 02:44:01 | 02:41:22 | 00:00:00 | |
| HSKMA3-T | 2026-09-06 01:04:11 | 51.86535 | 11.92919 | 137° | 137km/h | 6790m | -8.2m/s | -17.3°C | 56.4% | 437.6hPa | 2.6V | 02:44:01 | 02:41:21 | 00:00:00 | |
| DB0DAN | 2026-09-06 01:04:10 | 51.86560 | 11.92881 | 137° | 131km/h | 6798m | -8.3m/s | -17.3°C | 52.7% | 437.08hPa | 2.5V | 00:00:00 | 00:00:00 | 00:00:00 | |
| AA1-15 | 2026-09-06 01:04:09 | 51.86586 | 11.92843 | 137° | 139km/h | 6806m | -8.6m/s | -17.4°C | 55.3% | 436.5hPa | 2.5V | 02:44:52 | 02:41:19 | 00:00:00 | |
| DL1XH1-15 | 2026-09-06 01:04:09 | 51.86715 | 11.92652 | 137° | 139km/h | 6847m | -8.4m/s | -17.5°C | 52.8% | 434.2hPa | 2.5V | 02:43:26 | 02:41:14 | 00:00:00 | |
| DO2SHX-10 | 2026-09-06 01:04:09 | 51.86586 | 11.92842 | 138° | 137km/h | 6806m | -8.5m/s | -17.3°C | 54.0% | 436.5hPa | 2.6V | 00:00:00 | 02:41:19 | 00:00:00 | |
| BIOWL9-15 | 2026-09-06 01:04:08 | 51.86611 | 11.92804 | 136° | 137km/h | 6814m | -8.3m/s | -17.4°C | 51.1% | 436.0hPa | 2.6V | 00:00:00 | 00:00:00 | 00:00:00 | |
| DL4XJ-10 | 2026-09-06 01:04:07 | 51.86637 | 11.92766 | 138° | 139km/h | 6823m | -8.3m/s | -17.8°C | 0% | 0hPa | 2.6V | 00:00:00 | 00:00:00 | 00:00:00 | |
| S3001 | 2026-09-06 01:04:06 | 51.86689 | 11.92690 | 137° | 137km/h | 6839m | -8.2m/s | -17.5°C | 50.4% | 434.7hPa | 2.6V | 00:00:00 | 00:00:00 | 00:00:00 | |
| DM0DOS-11 | 2026-09-06 01:04:05 | 51.86766 | 11.92575 | 137° | 139km/h | 6864m | -8.9m/s | -17.6°C | 52.7% | 433.2hPa | 2.6V | 02:43:28 | 02:41:12 | 00:00:00 | |
| BIOWL1-15 | 2026-09-06 01:04:02 | 51.86767 | 11.92575 | 138° | 139km/h | 6864m | -8.9m/s | -17.6°C | 54.3% | 433.2hPa | 2.6V | 02:44:01 | 02:41:12 | 00:00:00 | |
| HSKMA3-T | 2026-09-06 01:04:01 | 51.86793 | 11.92537 | 137° | 139km/h | 6872m | -9m/s | -17.5°C | 53% | 432.8hPa | 2.6V | 02:44:01 | 02:41:11 | 00:00:00 | |
| DF8AY-15 | 2026-09-06 01:04:00 | 51.86819 | 11.92498 | 138° | 139km/h | 6882m | -8.8m/s | -17.4°C | 48.8% | 432.1hPa | 2.5V | 00:00:00 | 02:41:10 | 00:00:00 | |
| DL1XH1-15 | 2026-09-06 01:03:59 | 51.86972 | 11.92267 | 137° | 137km/h | 6935m | -9.1m/s | -17.6°C | 44.8% | 429.2hPa | 2.5V | 02:43:36 | 02:41:04 | 00:00:00 | |
| AA1-15 | 2026-09-06 01:03:59 | 51.86844 | 11.92460 | 137° | 139km/h | 6890m | -9.5m/s | -17.4°C | 51.1% | 431.8hPa | 2.5V | 02:44:52 | 02:41:09 | 00:00:00 | |
| DJ2DS-15 | 2026-09-06 01:03:58 | 51.87230 | 11.91877 | 135° | 141km/h | 7017m | -6.9m/s | -17.8°C | 38.3% | 424.5hPa | 2.5V | 00:00:00 | 00:00:00 | 00:00:00 | |
| DM0DOS-11 | 2026-09-06 01:03:55 | 51.87023 | 11.92191 | 137° | 137km/h | 6952m | -8.2m/s | -17.6°C | 44.3% | 428.2hPa | 2.5V | 02:43:38 | 02:41:02 | 00:00:00 | |
| DL1XH-west | 2026-09-06 01:03:52 | 51.87023 | 11.92191 | 137° | 137km/h | 6952m | -8.2m/s | -17.6°C | 47.1% | 428.2hPa | 2.5V | 02:44:01 | 02:41:02 | 00:00:00 | |
| BIOWL1-15 | 2026-09-06 01:03:51 | 51.87049 | 11.92153 | 138° | 139km/h | 6961m | -8.4m/s | -17.6°C | 46.5% | 427.8hPa | 2.6V | 02:44:01 | 02:41:01 | 00:00:00 | |
| HSKMA3-T | 2026-09-06 01:03:50 | 51.87075 | 11.92115 | 137° | 139km/h | 6970m | -9.7m/s | -17.6°C | 45.8% | 427.2hPa | 2.6V | 02:44:01 | 02:41:00 | 00:00:00 | |
| AA1-15 | 2026-09-06 01:03:49 | 51.87101 | 11.92076 | 137° | 141km/h | 6979m | -8.6m/s | -17.7°C | 45% | 426.7hPa | 2.6V | 02:44:52 | 02:40:59 | 00:00:00 | |
| DL4XJ-10 | 2026-09-06 01:03:47 | 51.87153 | 11.91997 | 137° | 141km/h | 6995m | -7.3m/s | -18.1°C | 0% | 0hPa | 2.6V | 00:00:00 | 00:00:00 | 00:00:00 | |
| DM0DOS-11 | 2026-09-06 01:03:45 | 51.87280 | 11.91796 | 134° | 139km/h | 7032m | -8m/s | -17.9°C | 39.8% | 423.6hPa | 2.6V | 02:43:48 | 02:40:52 | 00:00:00 | |
| DF8AY | 2026-09-06 01:03:41 | 51.87305 | 11.91757 | 135° | 139km/h | 7039m | -7.1m/s | -18°C | 43.2% | 423.1hPa | 2.6V | 02:44:01 | 02:40:51 | 00:00:00 | |
| BIOWL1-15 | 2026-09-06 01:03:40 | 51.87483 | 11.91484 | 138° | 139km/h | 7092m | -8.1m/s | -18.1°C | 41.1% | 420.3hPa | 2.6V | 02:44:01 | 02:40:44 | 00:00:00 | |
| HSKMA3-T | 2026-09-06 01:03:39 | 51.87355 | 11.91677 | 136° | 139km/h | 7055m | -7.4m/s | -18°C | 42.5% | 422.3hPa | 2.5V | 02:44:01 | 02:40:49 | 00:00:00 | |
| BIOWL9-15 | 2026-09-06 01:03:37 | 51.87405 | 11.91599 | 136° | 137km/h | 7069m | -7.5m/s | -18.1°C | 37.3% | 421.5hPa | 2.5V | 00:00:00 | 00:00:00 | 00:00:00 | |
| DM0DOS-11 | 2026-09-06 01:03:35 | 51.87535 | 11.91408 | 138° | 141km/h | 7107m | -7.8m/s | -18.2°C | 36.9% | 419.5hPa | 2.5V | 02:43:58 | 02:40:42 | 00:00:00 | |
| DL1XH-west | 2026-09-06 01:03:31 | 51.87562 | 11.91369 | 138° | 141km/h | 7114m | -7.3m/s | -18.2°C | 39.8% | 419hPa | 2.6V | 02:44:01 | 02:40:41 | 00:00:00 | |
| DF8AY | 2026-09-06 01:03:30 | 51.87589 | 11.91331 | 138° | 142km/h | 7122m | -7.8m/s | -18.3°C | 40.1% | 418.6hPa | 2.6V | 02:44:01 | 02:40:40 | 00:00:00 | |
| HSKMA3-T | 2026-09-06 01:03:28 | 51.87644 | 11.91253 | 139° | 146km/h | 7136m | -7.4m/s | -18.3°C | 39.6% | 417.8hPa | 2.5V | 02:44:52 | 02:40:38 | 00:00:00 | |
| BIOWL1-15 | 2026-09-06 01:03:27 | 51.87672 | 11.91214 | 139° | 146km/h | 7144m | -7.4m/s | -18.4°C | 39.5% | 417.3hPa | 2.5V | 02:44:52 | 02:40:37 | 00:00:00 | |
| DL1XH-west | 2026-09-06 01:03:20 | 51.87868 | 11.90933 | 137° | 148km/h | 7195m | -7.3m/s | -18.7°C | 39.6% | 414.5hPa | 2.5V | 02:44:52 | 02:40:30 | 00:00:00 | |
| DF8AY | 2026-09-06 01:03:19 | 51.87896 | 11.90893 | 138° | 146km/h | 7203m | -7.2m/s | -18.7°C | 39.3% | 414.1hPa | 2.6V | 02:44:52 | 02:40:29 | 00:00:00 | |
| DL1XH1-15 | 2026-09-06 01:03:19 | 51.88029 | 11.90700 | 138° | 141km/h | 7240m | -7.8m/s | -18.9°C | 36.1% | 412hPa | 2.6V | 02:44:16 | 02:40:24 | 00:00:00 | |
| HSKMA3-T | 2026-09-06 01:03:18 | 51.87923 | 11.90853 | 138° | 144km/h | 7210m | -7.5m/s | -18.7°C | 38.9% | 413.7hPa | 2.6V | 02:44:52 | 02:40:28 | 00:00:00 | |
| BIOWL1-15 | 2026-09-06 01:03:17 | 51.87950 | 11.90814 | 138° | 142km/h | 7217m | -7.9m/s | -18.7°C | 39.1% | 413.2hPa | 2.6V | 02:44:52 | 02:40:27 | 00:00:00 | |
| AA1-15 | 2026-09-06 01:03:15 | 51.88003 | 11.90738 | 138° | 139km/h | 7233m | -7.8m/s | -18.8°C | 39.3% | 412.4hPa | 2.5V | 02:44:52 | 02:40:25 | 00:00:00 | |
| DL1XH-west | 2026-09-06 01:03:10 | 51.88136 | 11.90542 | 138° | 146km/h | 7270m | -6.7m/s | -19.1°C | 39.5% | 410.3hPa | 2.6V | 02:44:52 | 02:40:20 | 00:00:00 | |
| DF8AY | 2026-09-06 01:03:08 | 51.88192 | 11.90463 | 140° | 146km/h | 7284m | -7.5m/s | -19.3°C | 39.4% | 409.5hPa | 2.6V | 02:44:52 | 02:40:18 | 00:00:00 | |
| HSKMA3-T | 2026-09-06 01:03:07 | 51.88220 | 11.90425 | 140° | 146km/h | 7292m | -7.4m/s | -19.3°C | 39.5% | 409.2hPa | 2.5V | 02:44:52 | 02:40:17 | 00:00:00 | |
| BIOWL1-15 | 2026-09-06 01:03:06 | 51.88249 | 11.90386 | 140° | 146km/h | 7299m | -7.9m/s | -19.4°C | 39.6% | 408.7hPa | 2.5V | 02:44:52 | 02:40:16 | 00:00:00 | |
| DM0DOS-11 | 2026-09-06 01:03:05 | 51.88361 | 11.90232 | 138° | 144km/h | 7331m | -7.6m/s | -19.7°C | 37.3% | 407hPa | 2.6V | 02:44:28 | 02:40:12 | 00:00:00 | |
| AA1-15 | 2026-09-06 01:03:05 | 51.88277 | 11.90348 | 140° | 146km/h | 7307m | -7.8m/s | -19.5°C | 39.6% | 408.4hPa | 2.5V | 02:44:52 | 02:40:15 | 00:00:00 | |
| DL1XH-west | 2026-09-06 01:02:59 | 51.88443 | 11.90113 | 138° | 146km/h | 7355m | -7.5m/s | -19.9°C | 39.5% | 405.8hPa | 2.5V | 02:44:52 | 02:40:09 | 00:00:00 | |
| BIOWL1-15 | 2026-09-06 01:02:58 | 51.88525 | 11.89992 | 139° | 148km/h | 7378m | -8.2m/s | -20°C | 39.3% | 404.4hPa | 2.6V | 02:44:52 | 02:40:06 | 00:00:00 | |
| HSKMA3-T | 2026-09-06 01:02:57 | 51.88498 | 11.90032 | 138° | 148km/h | 7370m | -7.9m/s | -20°C | 39.4% | 404.8hPa | 2.6V | 02:44:52 | 02:40:07 | 00:00:00 | |
| AA1-15 | 2026-09-06 01:02:54 | 51.88582 | 11.89914 | 140° | 146km/h | 7394m | -8m/s | -20.1°C | 39.3% | 403.5hPa | 2.5V | 02:44:52 | 02:40:04 | 00:00:00 | |
| DL1XH-west | 2026-09-06 01:02:48 | 51.88756 | 11.89681 | 140° | 153km/h | 7444m | -7.6m/s | -20.3°C | 34.2% | 400.8hPa | 2.6V | 02:44:52 | 02:39:58 | 00:00:00 | |
| DF8AY | 2026-09-06 01:02:47 | 51.88786 | 11.89641 | 139° | 153km/h | 7451m | -8.1m/s | -20.3°C | 32.7% | 400.4hPa | 2.5V | 02:44:52 | 02:39:57 | 00:00:00 | |
| BIOWL1-15 | 2026-09-06 01:02:45 | 51.88845 | 11.89559 | 139° | 153km/h | 7468m | -7.8m/s | -20.3°C | 31.9% | 399.6hPa | 2.6V | 02:44:52 | 02:39:55 | 00:00:00 | |
| AA1-15 | 2026-09-06 01:02:43 | 51.88902 | 11.89475 | 138° | 151km/h | 7483m | -7.4m/s | -20.4°C | 31.8% | 398.7hPa | 2.6V | 02:44:52 | 02:39:53 | 00:00:00 | |
| EDDB2-12 | 2026-09-06 01:02:40 | 51.89016 | 11.89307 | 138° | 151km/h | 7515m | -8.4m/s | -20.6°C | 26.5% | 397.1hPa | 2.5V | 00:00:00 | 00:00:00 | 00:00:00 | |
| DL1XH1-15 | 2026-09-06 01:02:39 | 51.89156 | 11.89101 | 136° | 148km/h | 7555m | -7.5m/s | -20.9°C | 26.6% | 394.8hPa | 2.5V | 02:44:56 | 02:39:44 | 00:00:00 | |
| DL1XH-west | 2026-09-06 01:02:38 | 51.89044 | 11.89266 | 138° | 151km/h | 7523m | -9m/s | -20.7°C | 31.3% | 396.6hPa | 2.6V | 02:44:52 | 02:39:48 | 00:00:00 | |
| DF8AY | 2026-09-06 01:02:36 | 51.89101 | 11.89183 | 138° | 150km/h | 7540m | -8.7m/s | -20.8°C | 30.5% | 395.6hPa | 2.5V | 02:45:43 | 02:39:46 | 00:00:00 | |
| HSKMA3-T | 2026-09-06 01:02:35 | 51.89129 | 11.89142 | 137° | 148km/h | 7548m | -7.6m/s | -20.8°C | 30% | 395.2hPa | 2.5V | 02:45:43 | 02:39:45 | 00:00:00 | |
| BIOWL1-15 | 2026-09-06 01:02:34 | 51.89211 | 11.89017 | 136° | 151km/h | 7572m | -9.5m/s | -21°C | 28.5% | 394hPa | 2.6V | 02:45:43 | 02:39:42 | 00:00:00 | |
| DM0DOS-11 | 2026-09-06 01:02:34 | 51.89293 | 11.88886 | 135° | 151km/h | 7597m | -8.6m/s | -21.1°C | 24.8% | 392.7hPa | 2.5V | 02:45:01 | 02:39:39 | 00:00:00 | |
| AA1-15 | 2026-09-06 01:02:33 | 51.89183 | 11.89059 | 136° | 148km/h | 7563m | -8.9m/s | -20.9°C | 29.2% | 394.5hPa | 2.6V | 02:45:43 | 02:39:43 | 00:00:00 | |
| DB0UT-7 | 2026-09-06 01:02:32 | 51.89210 | 11.89017 | 136° | 151km/h | 7572m | -9.5m/s | -20.9°C | 25.5% | 393.9hPa | 2.6V | 02:44:00 | 02:39:42 | 00:00:00 | |
| TFSTFS | 2026-09-06 01:02:31 | 51.89238 | 11.88973 | 136° | 151km/h | 7581m | -7.6m/s | -21.0°C | 23.7% | 393.6hPa | 2.5V | 02:45:00 | 00:00:00 | 00:00:00 | |
| DL1XH1-15 | 2026-09-06 01:02:29 | 51.89431 | 11.88668 | 135° | 150km/h | 7635m | -8m/s | -21.4°C | 25.4% | 390.6hPa | 2.5V | 02:45:06 | 02:39:34 | 00:00:00 | |
| DL1XH-west | 2026-09-06 01:02:28 | 51.89320 | 11.88843 | 136° | 153km/h | 7605m | -8m/s | -21.2°C | 28% | 392.2hPa | 2.5V | 02:45:43 | 02:39:38 | 00:00:00 | |
| DF8AY | 2026-09-06 01:02:26 | 51.89376 | 11.88755 | 136° | 153km/h | 7620m | -7.4m/s | -21.3°C | 28.4% | 391.4hPa | 2.6V | 02:45:43 | 02:39:36 | 00:00:00 | |
| DB0DAN | 2026-09-06 01:02:25 | 51.89404 | 11.88712 | 135° | 144km/h | 7627m | -7.4m/s | -21.3°C | 23.8% | 390.97hPa | 2.6V | 00:00:00 | 00:00:00 | 00:00:00 | |
| DM0DOS-11 | 2026-09-06 01:02:24 | 51.89564 | 11.88453 | 134° | 150km/h | 7675m | -7.7m/s | -21.7°C | 23.6% | 388.5hPa | 2.6V | 02:45:11 | 02:39:29 | 00:00:00 | |
| BIOWL1-15 | 2026-09-06 01:02:23 | 51.89458 | 11.88625 | 135° | 150km/h | 7643m | -8.5m/s | -21.5°C | 28.5% | 390.2hPa | 2.5V | 02:45:43 | 02:39:33 | 00:00:00 | |
| AA1-15 | 2026-09-06 01:02:22 | 51.89484 | 11.88581 | 135° | 148km/h | 7650m | -7.5m/s | -21.6°C | 28.6% | 389.9hPa | 2.5V | 02:45:43 | 02:39:32 | 00:00:00 | |
| HSKMA3-T | 2026-09-06 01:02:21 | 51.89511 | 11.88538 | 135° | 148km/h | 7658m | -8m/s | -21.6°C | 28.1% | 389.4hPa | 2.6V | 02:45:43 | 02:39:31 | 00:00:00 | |
| DB0NH | 2026-09-06 01:02:21 | 51.89511 | 11.88538 | 136° | 151km/h | 7658m | -8.0m/s | -21.6°C | 25.1% | 389.3hPa | 2.6V | 02:45:00 | 02:39:31 | 00:00:00 | |
| DF8AY-15 | 2026-09-06 01:02:20 | 51.89538 | 11.88496 | 135° | 151km/h | 7667m | -9.2m/s | -21.6°C | 24.1% | 389.0hPa | 2.6V | 00:00:00 | 02:39:30 | 00:00:00 | |
| DL1XH1-15 | 2026-09-06 01:02:19 | 51.89699 | 11.88233 | 134° | 153km/h | 7714m | -9.7m/s | -22°C | 23.1% | 386.5hPa | 2.6V | 02:45:16 | 02:39:24 | 00:00:00 | |
| DL1XH-west | 2026-09-06 01:02:17 | 51.89618 | 11.88366 | 135° | 150km/h | 7690m | -7.9m/s | -21.8°C | 26.2% | 387.8hPa | 2.5V | 02:45:43 | 02:39:27 | 00:00:00 | |
| DF8AY | 2026-09-06 01:02:17 | 51.89645 | 11.88322 | 134° | 151km/h | 7698m | -7.8m/s | -21.8°C | 26.3% | 387.3hPa | 2.5V | 02:45:43 | 02:39:26 | 00:00:00 | |
| NBG1-10 | 2026-09-06 01:02:17 | 51.89618 | 11.88366 | 135° | 151km/h | 7690m | -7.8m/s | -21.7°C | 23.1% | 387.7hPa | 2.5V | 02:45:00 | 02:39:27 | 00:00:00 | |
| EDDB2-11 | 2026-09-06 01:02:16 | 51.89645 | 11.88322 | 134° | 150km/h | 7698m | -7.8m/s | -21.8°C | 21.6% | 387.3hPa | 2.6V | 00:00:00 | 00:00:00 | 00:00:00 | |
| AM1SDL-15 | 2026-09-06 01:02:15 | 51.89671 | 11.88278 | 135° | 153km/h | 7706m | -8.9m/s | -21.8°C | 23.0% | 386.9hPa | 2.6V | 00:00:00 | 02:39:25 | 00:00:00 | |
| DM0DOS-11 | 2026-09-06 01:02:14 | 51.89833 | 11.88007 | 132° | 153km/h | 7758m | -10.8m/s | -22.4°C | 23.4% | 384.3hPa | 2.6V | 02:45:21 | 02:39:19 | 00:00:00 | |
| BIOWL1-15 | 2026-09-06 01:02:14 | 51.89753 | 11.88144 | 134° | 153km/h | 7731m | -8m/s | -22.1°C | 26.9% | 385.5hPa | 2.5V | 02:45:43 | 02:39:22 | 00:00:00 | |
| HSKMA3-T | 2026-09-06 01:02:10 | 51.89807 | 11.88053 | 133° | 153km/h | 7748m | -9.7m/s | -22.3°C | 27.2% | 384.7hPa | 2.5V | 02:45:43 | 02:39:20 | 00:00:00 | |
| AA1-15 | 2026-09-06 01:02:09 | 51.89833 | 11.88007 | 133° | 153km/h | 7758m | -10.8m/s | -22.4°C | 27.2% | 384.3hPa | 2.6V | 02:45:43 | 02:39:19 | 00:00:00 | |
| DL1XH-west | 2026-09-06 01:02:06 | 51.89912 | 11.87869 | 132° | 151km/h | 7787m | -8.4m/s | -22.6°C | 26.1% | 382.7hPa | 2.5V | 02:45:43 | 02:39:16 | 00:00:00 | |
| DF8AY | 2026-09-06 01:02:05 | 51.89938 | 11.87823 | 133° | 151km/h | 7795m | -8m/s | -22.7°C | 25.4% | 382.2hPa | 2.5V | 02:45:43 | 02:39:15 | 00:00:00 | |
| DL1XH-15 | 2026-09-06 01:02:04 | 51.90098 | 11.87556 | 134° | 151km/h | 7841m | -8.1m/s | -23.1°C | 22.7% | 379.8hPa | 2.6V | 02:45:31 | 02:39:09 | 00:00:00 | |
| HSKMA3-T | 2026-09-06 01:02:00 | 51.90071 | 11.87600 | 135° | 151km/h | 7833m | -8.3m/s | -23°C | 25.9% | 380.2hPa | 2.5V | 02:45:43 | 02:39:10 | 00:00:00 | |
| AA1-15 | 2026-09-06 01:01:59 | 51.90098 | 11.87556 | 135° | 151km/h | 7841m | -8.1m/s | -23.1°C | 26.1% | 379.8hPa | 2.6V | 02:45:43 | 02:39:09 | 00:00:00 | |
| DL1XH-west | 2026-09-06 01:01:56 | 51.90179 | 11.87423 | 134° | 150km/h | 7866m | -8m/s | -23.3°C | 26.7% | 378.5hPa | 2.5V | 02:45:43 | 02:39:06 | 00:00:00 | |
| DF8AY | 2026-09-06 01:01:55 | 51.90205 | 11.87378 | 133° | 151km/h | 7874m | -8m/s | -23.4°C | 27% | 378.1hPa | 2.6V | 02:45:43 | 02:39:05 | 00:00:00 | |
| DB0NH | 2026-09-06 01:01:51 | 51.90309 | 11.87198 | 134° | 151km/h | 7907m | -8.2m/s | -23.7°C | 24.3% | 376.4hPa | 2.5V | 00:00:00 | 02:39:01 | 00:00:00 | |
| DL1XH-15 | 2026-09-06 01:01:50 | 51.90362 | 11.87108 | 133° | 151km/h | 7923m | -8.6m/s | -23.9°C | 24.7% | 375.6hPa | 2.5V | 02:45:41 | 02:38:59 | 00:00:00 | |
| BIOWL1-15 | 2026-09-06 01:01:50 | 51.90335 | 11.87153 | 133° | 151km/h | 7915m | -8.6m/s | -23.8°C | 28.1% | 376hPa | 2.6V | 02:45:43 | 02:39:00 | 00:00:00 | |
| DL1XH1-15 | 2026-09-06 01:01:49 | 51.90495 | 11.86884 | 134° | 151km/h | 7965m | -9m/s | -24.2°C | 25.6% | 373.4hPa | 2.5V | 02:45:46 | 02:38:54 | 00:00:00 | |
| HSKMA3-T | 2026-09-06 01:01:49 | 51.90362 | 11.87108 | 134° | 151km/h | 7923m | -8.6m/s | -23.9°C | 28.3% | 375.6hPa | 2.5V | 02:45:43 | 02:38:59 | 00:00:00 | |
| AA1-15 | 2026-09-06 01:01:48 | 51.90388 | 11.87063 | 134° | 151km/h | 7932m | -8.8m/s | -23.9°C | 28.7% | 375.2hPa | 2.5V | 02:45:43 | 02:38:58 | 00:00:00 | |
| DL1XH-west | 2026-09-06 01:01:46 | 51.90441 | 11.86973 | 134° | 151km/h | 7948m | -8.5m/s | -24.1°C | 29.3% | 374.3hPa | 2.6V | 02:46:34 | 02:38:56 | 00:00:00 | |
| DF8AY | 2026-09-06 01:01:44 | 51.90495 | 11.86884 | 134° | 151km/h | 7965m | -9m/s | -24.2°C | 29.4% | 373.4hPa | 2.5V | 02:46:34 | 02:38:54 | 00:00:00 | |
| HSKMA3-T | 2026-09-06 01:01:39 | 51.90629 | 11.86661 | 134° | 153km/h | 8006m | -8.6m/s | -24.6°C | 29% | 371.3hPa | 2.5V | 02:47:25 | 02:38:49 | 00:00:00 | |
| AA1-15 | 2026-09-06 01:01:38 | 51.90655 | 11.86616 | 134° | 153km/h | 8014m | -9.4m/s | -24.7°C | 29.4% | 370.9hPa | 2.5V | 02:48:16 | 02:38:48 | 00:00:00 | |
| DL1XH-west | 2026-09-06 01:01:36 | 51.90708 | 11.86525 | 133° | 151km/h | 8031m | -8.6m/s | -24.8°C | 29.4% | 370.1hPa | 2.6V | 02:46:34 | 02:38:46 | 00:00:00 | |
| DF8AY | 2026-09-06 01:01:34 | 51.90761 | 11.86434 | 133° | 153km/h | 8049m | -9.4m/s | -25°C | 29.2% | 369.2hPa | 2.6V | 02:46:34 | 02:38:44 | 00:00:00 | |
| BIOWL9-15 | 2026-09-06 01:01:33 | 51.90814 | 11.86343 | 133° | 151km/h | 8067m | -8.6m/s | -25.2°C | 23.7% | 368.2hPa | 2.6V | 00:00:00 | 00:00:00 | 00:00:00 | |
| DB0UT-7 | 2026-09-06 01:01:32 | 51.90814 | 11.86343 | 134° | 153km/h | 8067m | -8.5m/s | -25.1°C | 25.5% | 368.2hPa | 2.6V | 00:00:00 | 02:38:42 | 00:00:00 | |
| DL1XH-15 | 2026-09-06 01:01:30 | 51.90892 | 11.86206 | 132° | 151km/h | 8089m | -8.5m/s | -25.4°C | 25.7% | 367hPa | 2.6V | 02:46:01 | 02:38:39 | 00:00:00 | |
| HSKMA3-T | 2026-09-06 01:01:29 | 51.90892 | 11.86206 | 133° | 151km/h | 8089m | -8.5m/s | -25.4°C | 29.4% | 367hPa | 2.6V | 02:47:25 | 02:38:39 | 00:00:00 | |
| BIOWL1-15 | 2026-09-06 01:01:29 | 51.90971 | 11.86070 | 134° | 153km/h | 8114m | -8.9m/s | -25.6°C | 29.9% | 365.7hPa | 2.5V | 02:46:34 | 02:38:36 | 00:00:00 | |
| AA1-15 | 2026-09-06 01:01:27 | 51.90945 | 11.86115 | 133° | 153km/h | 8106m | -8.2m/s | -25.5°C | 29.8% | 366.1hPa | 2.5V | 02:48:16 | 02:38:37 | 00:00:00 | |
| DL1XH-west | 2026-09-06 01:01:25 | 51.90998 | 11.86024 | 134° | 153km/h | 8122m | -8.5m/s | -25.7°C | 30.3% | 365.4hPa | 2.5V | 02:46:34 | 02:38:35 | 00:00:00 | |
| DF8AY | 2026-09-06 01:01:23 | 51.91052 | 11.85933 | 134° | 153km/h | 8142m | -11.8m/s | -25.8°C | 30.1% | 364.4hPa | 2.6V | 02:46:34 | 02:38:33 | 00:00:00 | |
| HSKMA3-T | 2026-09-06 01:01:18 | 51.91184 | 11.85708 | 133° | 150km/h | 8188m | -8.7m/s | -26.3°C | 30% | 362hPa | 2.5V | 02:47:25 | 02:38:28 | 00:00:00 | |
| AA1-15 | 2026-09-06 01:01:17 | 51.91210 | 11.85663 | 134° | 150km/h | 8196m | -8.6m/s | -26.3°C | 29.9% | 361.6hPa | 2.5V | 02:48:16 | 02:38:27 | 00:00:00 | |
| BIOWL1-15 | 2026-09-06 01:01:16 | 51.91398 | 11.85349 | 135° | 153km/h | 8266m | -10.8m/s | -26.9°C | 27.1% | 358.3hPa | 2.5V | 02:46:34 | 02:38:20 | 00:00:00 | |
| DL1XH-west | 2026-09-06 01:01:15 | 51.91263 | 11.85574 | 134° | 151km/h | 8214m | -9.5m/s | -26.5°C | 29.4% | 360.9hPa | 2.6V | 02:46:34 | 02:38:25 | 00:00:00 | |
| DM0DOS-11 | 2026-09-06 01:01:14 | 51.91426 | 11.85304 | 134° | 155km/h | 8275m | -10m/s | -27°C | 23.5% | 357.9hPa | 2.6V | 02:46:21 | 02:38:19 | 00:00:00 | |
| DF8AY | 2026-09-06 01:01:12 | 51.91344 | 11.85439 | 134° | 153km/h | 8245m | -10.9m/s | -26.7°C | 28.1% | 359.4hPa | 2.5V | 02:46:34 | 02:38:22 | 00:00:00 | |
| NBG1-10 | 2026-09-06 01:01:11 | 51.91371 | 11.85394 | 135° | 155km/h | 8255m | -10.9m/s | -26.8°C | 23.9% | 358.8hPa | 2.5V | 00:00:00 | 02:38:21 | 00:00:00 | |
| DL1XH1-15 | 2026-09-06 01:01:09 | 51.91565 | 11.85079 | 134° | 155km/h | 8320m | -8.3m/s | -27.3°C | 23% | 355.6hPa | 2.5V | 02:46:26 | 02:38:14 | 00:00:00 | |
| HSKMA3-T | 2026-09-06 01:01:08 | 51.91453 | 11.85259 | 135° | 155km/h | 8285m | -9.4m/s | -27°C | 27.5% | 357.4hPa | 2.6V | 02:47:25 | 02:38:18 | 00:00:00 | |
| AA1-15 | 2026-09-06 01:01:04 | 51.91564 | 11.85079 | 135° | 155km/h | 8320m | -8.3m/s | -27.3°C | 26.4% | 355.6hPa | 2.5V | 02:48:16 | 02:38:14 | 00:00:00 | |
| BIOWL1-15 | 2026-09-06 01:01:03 | 51.91592 | 11.85033 | 135° | 155km/h | 8328m | -8m/s | -27.4°C | 25.2% | 355.2hPa | 2.6V | 02:46:34 | 02:38:13 | 00:00:00 | |
| DF8AY | 2026-09-06 01:01:03 | 51.91620 | 11.84988 | 135° | 155km/h | 8336m | -8.7m/s | -27.4°C | 24.5% | 354.8hPa | 2.6V | 02:46:34 | 02:38:12 | 00:00:00 | |
| BIOWL9-15 | 2026-09-06 01:01:02 | 51.91648 | 11.84943 | 135° | 157km/h | 8345m | -8.6m/s | -27.4°C | 19.3% | 354.4hPa | 2.6V | 00:00:00 | 00:00:00 | 00:00:00 | |
| DB0ND-19 | 2026-09-06 01:01:01 | 51.91705 | 11.84852 | 135° | 157km/h | 8362m | -9.5m/s | -27.5°C | 18.8% | 353.5hPa | 2.6V | 00:00:00 | 00:00:00 | 00:00:00 | |
| DO2SHX-10 | 2026-09-06 01:01:00 | 51.91677 | 11.84898 | 136° | 159km/h | 8353m | -9.0m/s | -27.4°C | 20.8% | 353.9hPa | 2.6V | 00:00:00 | 02:38:10 | 00:00:00 | |
| DL1XH1-15 | 2026-09-06 01:00:59 | 51.91848 | 11.84623 | 135° | 161km/h | 8405m | -8.7m/s | -27.9°C | 20.6% | 351.4hPa | 2.6V | 02:46:36 | 02:38:04 | 00:00:00 | |
| HSKMA3-T | 2026-09-06 01:00:58 | 51.91733 | 11.84806 | 135° | 159km/h | 8371m | -9.3m/s | -27.6°C | 24% | 353hPa | 2.6V | 02:47:25 | 02:38:08 | 00:00:00 | |
| DJ2DS-15 | 2026-09-06 01:00:57 | 51.91762 | 11.84761 | 135° | 159km/h | 8380m | -8.9m/s | -27.7°C | 18.9% | 352.7hPa | 2.5V | 00:00:00 | 00:00:00 | 00:00:00 | |
| DL1ZP-14 | 2026-09-06 01:00:55 | 51.91819 | 11.84669 | 135° | 159km/h | 8397m | -8.4m/s | -27.8°C | 18.9% | 351.9hPa | 2.5V | 00:00:00 | 00:00:00 | 00:00:00 | |
| DM0DOS-11 | 2026-09-06 01:00:54 | 51.92016 | 11.84344 | 133° | 157km/h | 8457m | -9.1m/s | -28.3°C | 21.5% | 348.9hPa | 2.6V | 02:46:42 | 02:37:58 | 00:00:00 | |
| DL1XH-west | 2026-09-06 01:00:54 | 51.91848 | 11.84623 | 135° | 161km/h | 8405m | -8.7m/s | -27.9°C | 24.1% | 351.4hPa | 2.6V | 02:47:25 | 02:38:04 | 00:00:00 | |
| BIOWL1-15 | 2026-09-06 01:00:52 | 51.91961 | 11.84437 | 134° | 159km/h | 8440m | -8.9m/s | -28.2°C | 24.7% | 349.7hPa | 2.5V | 02:47:25 | 02:38:00 | 00:00:00 | |
| DF8AY | 2026-09-06 01:00:51 | 51.91933 | 11.84483 | 134° | 159km/h | 8431m | -9.2m/s | -28.1°C | 24.6% | 350.2hPa | 2.5V | 02:47:25 | 02:38:01 | 00:00:00 | |
| DL1XH1-15 | 2026-09-06 01:00:49 | 51.92126 | 11.84159 | 134° | 157km/h | 8491m | -8.6m/s | -28.6°C | 22.1% | 347.2hPa | 2.6V | 02:46:46 | 02:37:54 | 00:00:00 | |
| SONDE2-11 | 2026-09-06 01:00:49 | 51.92016 | 11.84344 | 133° | 155km/h | 8457m | -9.1m/s | -28.3°C | 19.7% | 348.9hPa | 2.6V | 00:00:00 | 00:00:00 | 00:00:00 | |
| DL1XH-west | 2026-09-06 01:00:43 | 51.92154 | 11.84113 | 134° | 157km/h | 8499m | -8.6m/s | -28.7°C | 25.9% | 346.8hPa | 2.6V | 02:47:25 | 02:37:53 | 00:00:00 | |
| DL1XH-15 | 2026-09-06 01:00:42 | 51.92313 | 11.83842 | 133° | 150km/h | 8551m | -8.9m/s | -29.2°C | 22.2% | 344.3hPa | 2.6V | 02:46:53 | 02:37:47 | 00:00:00 | |
| DF8AY | 2026-09-06 01:00:41 | 51.92208 | 11.84021 | 133° | 153km/h | 8516m | -9.2m/s | -28.9°C | 26% | 346hPa | 2.5V | 02:47:25 | 02:37:51 | 00:00:00 | |
| BIOWL1-15 | 2026-09-06 01:00:40 | 51.92235 | 11.83976 | 134° | 151km/h | 8525m | -9.6m/s | -29°C | 25.9% | 345.6hPa | 2.5V | 02:47:25 | 02:37:50 | 00:00:00 | |
| DF8AY-15 | 2026-09-06 01:00:40 | 51.92234 | 11.83976 | 134° | 155km/h | 8525m | -9.6m/s | -28.9°C | 22.2% | 345.5hPa | 2.5V | 02:46:00 | 02:37:50 | 00:00:00 | |
| DL1XH1-15 | 2026-09-06 01:00:39 | 51.92393 | 11.83708 | 134° | 153km/h | 8577m | -8.8m/s | -29.4°C | 22.1% | 343.1hPa | 2.5V | 02:46:56 | 02:37:44 | 00:00:00 | |
| HSKMA3-T | 2026-09-06 01:00:37 | 51.92313 | 11.83842 | 134° | 150km/h | 8551m | -8.9m/s | -29.2°C | 25.9% | 344.3hPa | 2.6V | 02:47:25 | 02:37:47 | 00:00:00 | |
| DO2SHX-10 | 2026-09-06 01:00:36 | 51.92339 | 11.83797 | 134° | 151km/h | 8560m | -8.4m/s | -29.2°C | 22.2% | 343.7hPa | 2.5V | 02:46:00 | 02:37:46 | 00:00:00 | |
| AM1SDL-15 | 2026-09-06 01:00:35 | 51.92366 | 11.83753 | 134° | 157km/h | 8569m | -9.3m/s | -29.3°C | 22.0% | 343.5hPa | 2.5V | 02:46:00 | 02:37:45 | 00:00:00 | |
| DF7ER-10 | 2026-09-06 01:00:34 | 51.92366 | 11.83753 | 135° | 151km/h | 8569m | -9.4m/s | -29.3°C | 20.2% | 343.5hPa | 2.6V | 02:47:00 | 00:00:00 | 00:00:00 | |
| DM0DOS-11 | 2026-09-06 01:00:33 | 51.92556 | 11.83426 | 132° | 159km/h | 8627m | -9.1m/s | -29.8°C | 23.2% | 340.7hPa | 2.6V | 02:47:02 | 02:37:38 | 00:00:00 | |
| DL1XH-west | 2026-09-06 01:00:32 | 51.92447 | 11.83617 | 134° | 157km/h | 8594m | -8.4m/s | -29.5°C | 25.6% | 342.4hPa | 2.6V | 02:47:25 | 02:37:42 | 00:00:00 | |
| DF8AY | 2026-09-06 01:00:32 | 51.92474 | 11.83570 | 133° | 157km/h | 8602m | -8.6m/s | -29.6°C | 25.8% | 341.9hPa | 2.5V | 02:47:25 | 02:37:41 | 00:00:00 | |
| BIOWL1-15 | 2026-09-06 01:00:29 | 51.92529 | 11.83474 | 132° | 159km/h | 8619m | -8.5m/s | -29.7°C | 26.3% | 341.1hPa | 2.5V | 02:47:25 | 02:37:39 | 00:00:00 | |
| DL1XH1-15 | 2026-09-06 01:00:29 | 51.92665 | 11.83238 | 133° | 157km/h | 8662m | -8.6m/s | -30.1°C | 23.8% | 339hPa | 2.5V | 02:47:06 | 02:37:34 | 00:00:00 | |
| HSKMA3-T | 2026-09-06 01:00:26 | 51.92611 | 11.83331 | 133° | 159km/h | 8645m | -8.9m/s | -30°C | 27.1% | 339.9hPa | 2.6V | 02:47:25 | 02:37:36 | 00:00:00 | |
| DB0DAN | 2026-09-06 01:00:25 | 51.92638 | 11.83284 | 133° | 150km/h | 8654m | -9m/s | -30°C | 21.7% | 339.42hPa | 2.5V | 00:00:00 | 00:00:00 | 00:00:00 | |
| DL1XH-15 | 2026-09-06 01:00:24 | 51.92693 | 11.83191 | 133° | 157km/h | 8671m | -9m/s | -30.2°C | 23.7% | 338.6hPa | 2.5V | 02:47:07 | 02:37:33 | 00:00:00 | |
| DM0DOS-11 | 2026-09-06 01:00:23 | 51.92853 | 11.82915 | 133° | 153km/h | 8729m | -8.6m/s | -30.6°C | 23.7% | 335.9hPa | 2.6V | 02:47:13 | 02:37:27 | 00:00:00 | |
| DL1XH-west | 2026-09-06 01:00:22 | 51.92720 | 11.83144 | 133° | 153km/h | 8680m | -10.3m/s | -30.3°C | 27.7% | 338.2hPa | 2.6V | 02:47:25 | 02:37:32 | 00:00:00 | |
| DF8AY | 2026-09-06 01:00:20 | 51.92773 | 11.83052 | 133° | 153km/h | 8701m | -10.4m/s | -30.4°C | 27.6% | 337.3hPa | 2.5V | 02:47:25 | 02:37:30 | 00:00:00 | |
| BIOWL1-15 | 2026-09-06 01:00:19 | 51.92962 | 11.82731 | 134° | 159km/h | 8763m | -9.2m/s | -31°C | 28.1% | 334.3hPa | 2.5V | 02:47:25 | 02:37:23 | 00:00:00 | |
| DL1XH1-15 | 2026-09-06 01:00:19 | 51.92934 | 11.82778 | 133° | 155km/h | 8754m | -8.4m/s | -30.9°C | 24.2% | 334.6hPa | 2.5V | 02:47:16 | 02:37:24 | 00:00:00 | |
| HSKMA3-T | 2026-09-06 01:00:15 | 51.92907 | 11.82824 | 134° | 155km/h | 8746m | -8.1m/s | -30.8°C | 27.8% | 335.1hPa | 2.6V | 02:47:25 | 02:37:25 | 00:00:00 | |
| DL1XH-west | 2026-09-06 01:00:11 | 51.93017 | 11.82637 | 133° | 161km/h | 8779m | -7.9m/s | -31.1°C | 28.4% | 333.5hPa | 2.6V | 02:47:25 | 02:37:21 | 00:00:00 | |
| BIOWL1-15 | 2026-09-06 01:00:09 | 51.93073 | 11.82540 | 133° | 161km/h | 8796m | -9.6m/s | -31.3°C | 28.4% | 332.7hPa | 2.5V | 02:47:25 | 02:37:19 | 00:00:00 | |
| DL1XH-15 | 2026-09-06 01:00:06 | 51.93235 | 11.82246 | 131° | 157km/h | 8848m | -9m/s | -31.7°C | 23.2% | 330.4hPa | 2.5V | 02:47:27 | 02:37:13 | 00:00:00 | |
| HSKMA3-T | 2026-09-06 01:00:04 | 51.93208 | 11.82295 | 131° | 159km/h | 8839m | -9m/s | -31.6°C | 27.2% | 330.7hPa | 2.6V | 02:49:07 | 02:37:14 | 00:00:00 | |
| DM0DOS-11 | 2026-09-06 01:00:03 | 51.93365 | 11.82011 | 133° | 155km/h | 8889m | -8.4m/s | -32.1°C | 24% | 328.4hPa | 2.6V | 02:47:32 | 02:37:08 | 00:00:00 | |
| DL1XH-west | 2026-09-06 01:00:00 | 51.93313 | 11.82104 | 132° | 153km/h | 8873m | -8.4m/s | -31.9°C | 27.3% | 329.1hPa | 2.5V | 02:48:16 | 02:37:10 | 00:00:00 | |
| DF8AY | 2026-09-06 00:59:59 | 51.93339 | 11.82057 | 133° | 153km/h | 8881m | -8.1m/s | -32°C | 27.4% | 328.8hPa | 2.6V | 02:48:16 | 02:37:09 | 00:00:00 | |
| DL1XH1-15 | 2026-09-06 00:59:59 | 51.93477 | 11.81820 | 132° | 162km/h | 8922m | -8m/s | -32.4°C | 24.9% | 326.8hPa | 2.5V | 02:47:36 | 02:37:04 | 00:00:00 | |
| BIOWL1-15 | 2026-09-06 00:59:58 | 51.93393 | 11.81964 | 134° | 159km/h | 8897m | -8.5m/s | -32.1°C | 27.7% | 328hPa | 2.6V | 02:48:16 | 02:37:07 | 00:00:00 | |
| HSKMA3-T | 2026-09-06 00:59:52 | 51.93533 | 11.81722 | 133° | 162km/h | 8939m | -8m/s | -32.5°C | 29.1% | 326hPa | 2.6V | 02:49:07 | 02:37:02 | 00:00:00 | |
| AA1-15 | 2026-09-06 00:59:51 | 51.93560 | 11.81672 | 132° | 162km/h | 8947m | -9.5m/s | -32.6°C | 29.4% | 325.6hPa | 2.5V | 02:48:16 | 02:37:01 | 00:00:00 | |
| DL1XH-west | 2026-09-06 00:59:49 | 51.93615 | 11.81574 | 132° | 161km/h | 8965m | -9.5m/s | -32.8°C | 30% | 324.9hPa | 2.5V | 02:48:16 | 02:36:59 | 00:00:00 | |
| DM0DOS-11 | 2026-09-06 00:59:49 | 51.93641 | 11.81525 | 131° | 161km/h | 8974m | -8.8m/s | -32.9°C | 26.5% | 324.4hPa | 2.6V | 02:47:42 | 02:36:58 | 00:00:00 | |
| BIOWL1-15 | 2026-09-06 00:59:48 | 51.93695 | 11.81427 | 132° | 159km/h | 8991m | -10m/s | -33°C | 30.6% | 323.6hPa | 2.6V | 02:48:16 | 02:36:56 | 00:00:00 | |
| DF8AY | 2026-09-06 00:59:48 | 51.93641 | 11.81525 | 132° | 161km/h | 8974m | -8.8m/s | -32.9°C | 30.4% | 324.4hPa | 2.6V | 02:48:16 | 02:36:58 | 00:00:00 | |
| SONDE2-11 | 2026-09-06 00:59:46 | 51.93722 | 11.81379 | 132° | 157km/h | 9001m | -11.3m/s | -33.1°C | 23.7% | 323.2hPa | 2.5V | 00:00:00 | 00:00:00 | 00:00:00 | |
| DJ2DS-15 | 2026-09-06 00:59:45 | 51.93722 | 11.81379 | 132° | 157km/h | 9001m | -11.3m/s | -33.1°C | 23.7% | 323.2hPa | 2.5V | 00:00:00 | 00:00:00 | 00:00:00 | |
| DL1XH-15 | 2026-09-06 00:59:44 | 51.93776 | 11.81284 | 132° | 159km/h | 9023m | -11.6m/s | -33.3°C | 25.9% | 322.2hPa | 2.5V | 02:47:47 | 02:36:53 | 00:00:00 | |
| DM0DOS-11 | 2026-09-06 00:59:43 | 51.93914 | 11.81044 | 132° | 161km/h | 9069m | -8.3m/s | -33.7°C | 26.7% | 320hPa | 2.5V | 02:47:52 | 02:36:48 | 00:00:00 | |
| HSKMA3-T | 2026-09-06 00:59:41 | 51.93831 | 11.81189 | 133° | 161km/h | 9044m | -9.2m/s | -33.5°C | 30.1% | 321.2hPa | 2.6V | 02:49:07 | 02:36:51 | 00:00:00 | |
| AA1-15 | 2026-09-06 00:59:40 | 51.93859 | 11.81140 | 133° | 161km/h | 9053m | -8.7m/s | -33.6°C | 30.2% | 320.8hPa | 2.5V | 02:48:16 | 02:36:50 | 00:00:00 | |
| DL1XH-west | 2026-09-06 00:59:39 | 51.93886 | 11.81092 | 133° | 161km/h | 9061m | -8.5m/s | -33.7°C | 30.4% | 320.4hPa | 2.5V | 02:48:16 | 02:36:49 | 00:00:00 | |
| DL1XH1-15 | 2026-09-06 00:59:39 | 51.94023 | 11.80850 | 132° | 159km/h | 9102m | -8.7m/s | -34°C | 27.7% | 318.6hPa | 2.5V | 02:47:56 | 02:36:44 | 00:00:00 | |
| DF8AY | 2026-09-06 00:59:37 | 51.93941 | 11.80995 | 132° | 161km/h | 9077m | -8.3m/s | -33.8°C | 30.8% | 319.6hPa | 2.6V | 02:48:16 | 02:36:47 | 00:00:00 | |
| BIOWL1-15 | 2026-09-06 00:59:36 | 51.93969 | 11.80946 | 133° | 161km/h | 9085m | -8.7m/s | -33.9°C | 31.1% | 319.2hPa | 2.6V | 02:48:16 | 02:36:46 | 00:00:00 | |
| HSKMA3-T | 2026-09-06 00:59:30 | 51.94132 | 11.80655 | 132° | 161km/h | 9136m | -8.8m/s | -34.4°C | 32.6% | 317hPa | 2.5V | 02:49:07 | 02:36:40 | 00:00:00 | |
| AA1-15 | 2026-09-06 00:59:29 | 51.94159 | 11.80605 | 132° | 162km/h | 9145m | -8.8m/s | -34.5°C | 32.9% | 316.6hPa | 2.5V | 02:48:16 | 02:36:39 | 00:00:00 | |
| DL1XH-west | 2026-09-06 00:59:28 | 51.94187 | 11.80556 | 132° | 162km/h | 9153m | -9.3m/s | -34.5°C | 33.3% | 316.1hPa | 2.6V | 02:48:16 | 02:36:38 | 00:00:00 | |
| DF8AY | 2026-09-06 00:59:26 | 51.94242 | 11.80458 | 132° | 161km/h | 9172m | -9.9m/s | -34.7°C | 33.5% | 315.4hPa | 2.5V | 02:48:16 | 02:36:36 | 00:00:00 | |
| DB0DAN | 2026-09-06 00:59:25 | 51.94269 | 11.80408 | 131° | 153km/h | 9181m | -9.7m/s | -34.8°C | 27.1% | 314.83hPa | 2.5V | 00:00:00 | 00:00:00 | 00:00:00 | |
| BIOWL1-15 | 2026-09-06 00:59:25 | 51.94322 | 11.80309 | 131° | 161km/h | 9200m | -9.9m/s | -35°C | 34.1% | 314hPa | 2.6V | 02:48:16 | 02:36:33 | 00:00:00 | |
| DM0DOS-11 | 2026-09-06 00:59:23 | 51.94483 | 11.80013 | 131° | 161km/h | 9254m | -9.2m/s | -35.5°C | 30.7% | 311.7hPa | 2.5V | 02:48:13 | 02:36:27 | 00:00:00 | |
| HSKMA3-T | 2026-09-06 00:59:20 | 51.94402 | 11.80161 | 131° | 161km/h | 9227m | -8.9m/s | -35.2°C | 34.4% | 312.9hPa | 2.5V | 02:49:07 | 02:36:30 | 00:00:00 | |
| AA1-15 | 2026-09-06 00:59:19 | 51.94429 | 11.80112 | 131° | 161km/h | 9235m | -9.1m/s | -35.3°C | 34.5% | 312.5hPa | 2.5V | 02:48:16 | 02:36:29 | 00:00:00 | |
| DL1XH1-15 | 2026-09-06 00:59:19 | 51.94564 | 11.79866 | 131° | 161km/h | 9281m | -10.2m/s | -35.7°C | 30.5% | 310.5hPa | 2.6V | 02:48:16 | 02:36:24 | 00:00:00 | |
| DL1XH-west | 2026-09-06 00:59:18 | 51.94483 | 11.80013 | 132° | 161km/h | 9254m | -9.2m/s | -35.5°C | 34.7% | 311.7hPa | 2.5V | 02:48:16 | 02:36:27 | 00:00:00 | |
| DF8AY | 2026-09-06 00:59:16 | 51.94510 | 11.79964 | 132° | 161km/h | 9263m | -9.2m/s | -35.5°C | 34.7% | 311.3hPa | 2.6V | 02:48:16 | 02:36:26 | 00:00:00 | |
| BIOWL1-15 | 2026-09-06 00:59:12 | 51.94618 | 11.79767 | 131° | 159km/h | 9299m | -9m/s | -35.9°C | 35% | 309.6hPa | 2.5V | 02:49:07 | 02:36:22 | 00:00:00 | |
| DM0DOS-11 | 2026-09-06 00:59:12 | 51.94750 | 11.79517 | 130° | 162km/h | 9349m | -9.3m/s | -36.3°C | 31.1% | 307.5hPa | 2.6V | 02:48:23 | 02:36:17 | 00:00:00 | |
| AM1SDL-15 | 2026-09-06 00:59:11 | 51.94644 | 11.79718 | 131° | 162km/h | 9308m | -9.7m/s | -35.9°C | 30.8% | 309.3hPa | 2.5V | 00:00:00 | 02:36:21 | 00:00:00 | |
| DO2SHX-10 | 2026-09-06 00:59:10 | 51.94671 | 11.79668 | 131° | 161km/h | 9318m | -9.8m/s | -36.0°C | 30.7% | 308.8hPa | 2.5V | 02:48:00 | 02:36:20 | 00:00:00 | |
| DL1XH1-15 | 2026-09-06 00:59:09 | 51.94830 | 11.79366 | 130° | 162km/h | 9376m | -9.6m/s | -36.6°C | 31.2% | 306.3hPa | 2.5V | 02:48:26 | 02:36:14 | 00:00:00 | |
| AA1-15 | 2026-09-06 00:59:09 | 51.94724 | 11.79567 | 130° | 161km/h | 9339m | -10.9m/s | -36.2°C | 35% | 308hPa | 2.6V | 02:49:07 | 02:36:18 | 00:00:00 | |
| HSKMA3-T | 2026-09-06 00:59:07 | 51.94750 | 11.79517 | 130° | 162km/h | 9349m | -9.3m/s | -36.3°C | 35.1% | 307.5hPa | 2.6V | 02:49:07 | 02:36:17 | 00:00:00 | |
| DL1XH-west | 2026-09-06 00:59:06 | 51.94777 | 11.79467 | 130° | 161km/h | 9358m | -10.2m/s | -36.4°C | 35.1% | 307hPa | 2.5V | 02:49:07 | 02:36:16 | 00:00:00 | |
| DF8AY | 2026-09-06 00:59:05 | 51.94803 | 11.79416 | 131° | 162km/h | 9367m | -9.2m/s | -36.5°C | 35.4% | 306.6hPa | 2.5V | 02:49:07 | 02:36:15 | 00:00:00 | |
| DO2SHX-10 | 2026-09-06 00:59:04 | 51.94830 | 11.79366 | 131° | 162km/h | 9376m | -9.5m/s | -36.5°C | 31.2% | 306.2hPa | 2.5V | 00:00:00 | 02:36:14 | 00:00:00 | |
| DM0DOS-11 | 2026-09-06 00:59:02 | 51.95016 | 11.79012 | 131° | 162km/h | 9441m | -10m/s | -37.2°C | 32.7% | 303.4hPa | 2.5V | 02:48:33 | 02:36:07 | 00:00:00 | |
| BIOWL1-15 | 2026-09-06 00:59:01 | 51.94910 | 11.79214 | 130° | 162km/h | 9404m | -10m/s | -36.8°C | 35.6% | 305hPa | 2.6V | 02:49:07 | 02:36:11 | 00:00:00 | |
| DO2SHX-10 | 2026-09-06 00:59:01 | 51.94910 | 11.79214 | 131° | 162km/h | 9404m | -9.9m/s | -36.8°C | 31.6% | 305.0hPa | 2.6V | 02:48:00 | 02:36:11 | 00:00:00 | |
| DF8AY-15 | 2026-09-06 00:59:00 | 51.94936 | 11.79163 | 130° | 159km/h | 9413m | -9.2m/s | -36.9°C | 32.0% | 304.6hPa | 2.6V | 00:00:00 | 02:36:10 | 00:00:00 | |
| DL1XH1-15 | 2026-09-06 00:58:59 | 51.95097 | 11.78863 | 131° | 159km/h | 9468m | -8.8m/s | -37.4°C | 33.2% | 302.2hPa | 2.6V | 02:48:36 | 02:36:04 | 00:00:00 | |
| AA1-15 | 2026-09-06 00:58:58 | 51.95016 | 11.79012 | 131° | 162km/h | 9441m | -10m/s | -37.2°C | 36.6% | 303.4hPa | 2.5V | 02:49:07 | 02:36:07 | 00:00:00 | |
| HSKMA3-T | 2026-09-06 00:58:56 | 51.95043 | 11.78962 | 131° | 161km/h | 9450m | -9.8m/s | -37.3°C | 36.7% | 303hPa | 2.5V | 02:49:07 | 02:36:06 | 00:00:00 | |
| DF8AY | 2026-09-06 00:58:54 | 51.95097 | 11.78863 | 131° | 159km/h | 9468m | -8.8m/s | -37.4°C | 37.1% | 302.3hPa | 2.6V | 02:49:07 | 02:36:04 | 00:00:00 | |
| DM0DOS-11 | 2026-09-06 00:58:52 | 51.95277 | 11.78514 | 129° | 159km/h | 9534m | -8.9m/s | -38°C | 35.1% | 299.4hPa | 2.5V | 02:48:43 | 02:35:57 | 00:00:00 | |
| BIOWL1-15 | 2026-09-06 00:58:50 | 51.95200 | 11.78665 | 130° | 159km/h | 9505m | -9.4m/s | -37.8°C | 38.2% | 300.6hPa | 2.5V | 02:49:07 | 02:36:00 | 00:00:00 | |
| DO2SHX-10 | 2026-09-06 00:58:50 | 51.95200 | 11.78665 | 130° | 159km/h | 9505m | -9.3m/s | -37.7°C | 34.4% | 300.6hPa | 2.5V | 02:48:00 | 02:36:00 | 00:00:00 | |
| DL1XH1-15 | 2026-09-06 00:58:49 | 51.95355 | 11.78364 | 130° | 159km/h | 9561m | -9.4m/s | -38.3°C | 36% | 298.3hPa | 2.6V | 02:48:46 | 02:35:54 | 00:00:00 | |
| AA1-15 | 2026-09-06 00:58:47 | 51.95277 | 11.78514 | 130° | 159km/h | 9534m | -8.9m/s | -38°C | 38.9% | 299.4hPa | 2.5V | 02:49:07 | 02:35:57 | 00:00:00 | |
| DO2SHX-10 | 2026-09-06 00:58:47 | 51.95277 | 11.78514 | 130° | 159km/h | 9534m | -8.8m/s | -38.0°C | 35.1% | 299.4hPa | 2.6V | 00:00:00 | 02:35:57 | 00:00:00 | |
| DL1XH-15 | 2026-09-06 00:58:46 | 51.95382 | 11.78315 | 131° | 159km/h | 9570m | -9.5m/s | -38.4°C | 36.4% | 297.9hPa | 2.6V | 02:48:47 | 02:35:53 | 00:00:00 | |
| HSKMA3-T | 2026-09-06 00:58:46 | 51.95303 | 11.78464 | 130° | 161km/h | 9543m | -9.8m/s | -38.1°C | 39.3% | 299.1hPa | 2.5V | 02:49:07 | 02:35:56 | 00:00:00 | |
| DL1XH-west | 2026-09-06 00:58:45 | 51.95329 | 11.78414 | 130° | 159km/h | 9552m | -8.8m/s | -38.2°C | 39.6% | 298.6hPa | 2.5V | 02:49:07 | 02:35:55 | 00:00:00 | |
| DF8AY | 2026-09-06 00:58:43 | 51.95382 | 11.78315 | 131° | 159km/h | 9570m | -9.5m/s | -38.4°C | 40.2% | 297.9hPa | 2.6V | 02:49:07 | 02:35:53 | 00:00:00 | |
| DM0DOS-11 | 2026-09-06 00:58:42 | 51.95538 | 11.78022 | 129° | 157km/h | 9626m | -9.4m/s | -38.9°C | 39% | 295.4hPa | 2.5V | 02:48:53 | 02:35:47 | 00:00:00 | |
| BIOWL1-15 | 2026-09-06 00:58:40 | 51.95461 | 11.78170 | 131° | 157km/h | 9598m | -9.6m/s | -38.7°C | 41.3% | 296.7hPa | 2.5V | 02:49:07 | 02:35:50 | 00:00:00 | |
| DF8AY-15 | 2026-09-06 00:58:40 | 51.95460 | 11.78170 | 131° | 159km/h | 9598m | -9.6m/s | -38.6°C | 37.5% | 296.6hPa | 2.5V | 02:48:00 | 02:35:50 | 00:00:00 | |
| EDDB2-11 | 2026-09-06 00:58:39 | 51.95486 | 11.78121 | 130° | 157km/h | 9608m | -10.0m/s | -38.8°C | 34.7% | 296.1hPa | 2.5V | 00:00:00 | 00:00:00 | 00:00:00 | |
| DL1XH-15 | 2026-09-06 00:58:38 | 51.95639 | 11.77822 | 129° | 159km/h | 9663m | -9.5m/s | -39.3°C | 40.6% | 293.8hPa | 2.5V | 02:48:57 | 02:35:43 | 00:00:00 | |
| AA1-15 | 2026-09-06 00:58:37 | 51.95538 | 11.78022 | 130° | 157km/h | 9626m | -9.4m/s | -38.9°C | 42.5% | 295.4hPa | 2.5V | 02:49:07 | 02:35:47 | 00:00:00 | |
| HSKMA3-T | 2026-09-06 00:58:35 | 51.95588 | 11.77923 | 130° | 157km/h | 9644m | -10.1m/s | -39.1°C | 43.3% | 294.6hPa | 2.6V | 02:49:07 | 02:35:45 | 00:00:00 | |
| DF8AY | 2026-09-06 00:58:34 | 51.95639 | 11.77823 | 130° | 159km/h | 9663m | -9.5m/s | -39.3°C | 44.2% | 293.8hPa | 2.5V | 02:49:07 | 02:35:43 | 00:00:00 | |
| DL1XH-west | 2026-09-06 00:58:34 | 51.95614 | 11.77873 | 129° | 159km/h | 9654m | -8.8m/s | -39.2°C | 43.6% | 294.2hPa | 2.6V | 02:49:07 | 02:35:44 | 00:00:00 | |
| DJ2DS-15 | 2026-09-06 00:58:33 | 51.95639 | 11.77823 | 129° | 159km/h | 9663m | -9.5m/s | -39.3°C | 37.0% | 293.8hPa | 2.6V | 00:00:00 | 00:00:00 | 00:00:00 | |
| DM0DOS-11 | 2026-09-06 00:58:32 | 51.95792 | 11.77516 | 128° | 161km/h | 9719m | -10.3m/s | -39.8°C | 43% | 291.4hPa | 2.6V | 02:49:03 | 02:35:37 | 00:00:00 | |
| BIOWL1-15 | 2026-09-06 00:58:29 | 51.95742 | 11.77618 | 129° | 161km/h | 9699m | -9.8m/s | -39.7°C | 45.9% | 292.2hPa | 2.6V | 02:49:07 | 02:35:39 | 00:00:00 | |
| DO2SHX-10 | 2026-09-06 00:58:29 | 51.95742 | 11.77618 | 129° | 161km/h | 9699m | -9.8m/s | -39.6°C | 42.4% | 292.2hPa | 2.5V | 00:00:00 | 02:35:39 | 00:00:00 | |
| DF7ER-10 | 2026-09-06 00:58:28 | 51.95742 | 11.77619 | 130° | 161km/h | 9699m | -9.8m/s | -39.7°C | 38.6% | 292.2hPa | 2.5V | 02:49:00 | 00:00:00 | 00:00:00 | |
| DL1XH-15 | 2026-09-06 00:58:27 | 51.95893 | 11.77311 | 129° | 159km/h | 9758m | -10.1m/s | -40.2°C | 44.6% | 289.7hPa | 2.5V | 02:49:07 | 02:35:33 | 00:00:00 | |
| AA1-15 | 2026-09-06 00:58:26 | 51.95818 | 11.77464 | 129° | 159km/h | 9729m | -9.7m/s | -39.9°C | 46.8% | 291hPa | 2.5V | 02:49:07 | 02:35:36 | 00:00:00 | |
| DL4XJ-10 | 2026-09-06 00:58:26 | 51.95818 | 11.77464 | 129° | 162km/h | 9729m | -9.7m/s | -40.2°C | 0% | 0hPa | 2.5V | 00:00:00 | 00:00:00 | 00:00:00 | |
| DL1XH1-15 | 2026-09-06 00:58:25 | 51.95868 | 11.77362 | 129° | 159km/h | 9748m | -10.9m/s | -40.1°C | 43.9% | 290.2hPa | 2.5V | 02:49:06 | 02:35:34 | 00:00:00 | |
| HSKMA3-T | 2026-09-06 00:58:25 | 51.95843 | 11.77413 | 128° | 161km/h | 9738m | -9.4m/s | -40°C | 47.1% | 290.6hPa | 2.5V | 02:49:07 | 02:35:35 | 00:00:00 | |
| DL1XH-west | 2026-09-06 00:58:23 | 51.95893 | 11.77311 | 129° | 159km/h | 9758m | -10.1m/s | -40.2°C | 47.8% | 289.7hPa | 2.5V | 02:49:07 | 02:35:33 | 00:00:00 | |
| DF8AY | 2026-09-06 00:58:22 | 51.95919 | 11.77261 | 130° | 159km/h | 9767m | -9.2m/s | -40.3°C | 48.4% | 289.3hPa | 2.6V | 02:49:58 | 02:35:32 | 00:00:00 | |
| DB0NH | 2026-09-06 00:58:21 | 51.95945 | 11.77210 | 130° | 162km/h | 9776m | -9.5m/s | -40.3°C | 45.5% | 288.9hPa | 2.5V | 00:00:00 | 02:35:31 | 00:00:00 | |
| DO2SHX-10 | 2026-09-06 00:58:20 | 51.95971 | 11.77160 | 130° | 162km/h | 9785m | -9.0m/s | -40.4°C | 45.9% | 288.5hPa | 2.5V | 00:00:00 | 02:35:30 | 00:00:00 | |
| DL1XH1-15 | 2026-09-06 00:58:19 | 51.96125 | 11.76850 | 129° | 162km/h | 9841m | -9.6m/s | -41°C | 47.6% | 286.3hPa | 2.5V | 02:49:16 | 02:35:24 | 00:00:00 | |
| BIOWL1-15 | 2026-09-06 00:58:18 | 51.96022 | 11.77057 | 129° | 162km/h | 9804m | -9.1m/s | -40.6°C | 50.1% | 287.8hPa | 2.5V | 02:49:58 | 02:35:28 | 00:00:00 | |
| TFSTFS | 2026-09-06 00:58:18 | 51.96022 | 11.77056 | 130° | 162km/h | 9804m | -9.1m/s | -40.6°C | 42.8% | 287.7hPa | 2.5V | 02:49:00 | 00:00:00 | 00:00:00 | |
| DF7ER-10 | 2026-09-06 00:58:17 | 51.96022 | 11.77056 | 130° | 162km/h | 9804m | -9.1m/s | -40.6°C | 42.8% | 287.7hPa | 2.5V | 02:49:00 | 00:00:00 | 00:00:00 | |
| DL1XH-15 | 2026-09-06 00:58:16 | 51.96151 | 11.76799 | 129° | 161km/h | 9851m | -10.2m/s | -41.1°C | 47.6% | 285.9hPa | 2.5V | 02:49:17 | 02:35:23 | 00:00:00 | |
| AA1-15 | 2026-09-06 00:58:16 | 51.96074 | 11.76953 | 129° | 162km/h | 9822m | -9.4m/s | -40.8°C | 50.5% | 287hPa | 2.6V | 02:49:58 | 02:35:26 | 00:00:00 | |
| HSKMA3-T | 2026-09-06 00:58:14 | 51.96125 | 11.76850 | 129° | 162km/h | 9841m | -9.6m/s | -41°C | 50.9% | 286.3hPa | 2.5V | 02:50:49 | 02:35:24 | 00:00:00 | |
| DF8AY | 2026-09-06 00:58:12 | 51.96177 | 11.76748 | 130° | 162km/h | 9861m | -9.6m/s | -41.2°C | 51% | 285.5hPa | 2.5V | 02:49:58 | 02:35:22 | 00:00:00 | |
| DM0DOS-11 | 2026-09-06 00:58:12 | 51.96309 | 11.76491 | 129° | 162km/h | 9908m | -9.5m/s | -41.6°C | 48.4% | 283.4hPa | 2.5V | 02:49:23 | 02:35:17 | 00:00:00 | |
| BIOWL1-15 | 2026-09-06 00:58:07 | 51.96362 | 11.76388 | 129° | 164km/h | 9927m | -9.5m/s | -41.8°C | 51.5% | 282.7hPa | 2.5V | 02:49:58 | 02:35:15 | 00:00:00 | |
| DL1XH-15 | 2026-09-06 00:58:07 | 51.96414 | 11.76284 | 129° | 164km/h | 9945m | -8.8m/s | -41.9°C | 48.3% | 281.9hPa | 2.6V | 02:49:27 | 02:35:13 | 00:00:00 | |
| DL1XH1-15 | 2026-09-06 00:58:07 | 51.96388 | 11.76336 | 129° | 164km/h | 9936m | -9.4m/s | -41.9°C | 48.7% | 282.3hPa | 2.6V | 02:49:26 | 02:35:14 | 00:00:00 | |
| AA1-15 | 2026-09-06 00:58:06 | 51.96335 | 11.76440 | 129° | 162km/h | 9917m | -9.6m/s | -41.7°C | 51.5% | 283.1hPa | 2.5V | 02:49:58 | 02:35:16 | 00:00:00 | |
| HSKMA3-T | 2026-09-06 00:58:04 | 51.96388 | 11.76336 | 129° | 164km/h | 9936m | -9.4m/s | -41.9°C | 51.3% | 282.3hPa | 2.6V | 02:50:49 | 02:35:14 | 00:00:00 | |
| DL1XH-west | 2026-09-06 00:58:01 | 51.96466 | 11.76180 | 129° | 164km/h | 9964m | -10.4m/s | -42.1°C | 50.4% | 281.2hPa | 2.5V | 02:49:58 | 02:35:11 | 00:00:00 | |
| DM0DOS-11 | 2026-09-06 00:58:01 | 51.96571 | 11.75972 | 129° | 164km/h | 10000m | -10.1m/s | -42.4°C | 47.9% | 279.6hPa | 2.6V | 02:49:33 | 02:35:07 | 00:00:00 | |
| DF8AY | 2026-09-06 00:58:00 | 51.96492 | 11.76128 | 129° | 162km/h | 9973m | -9.4m/s | -42.2°C | 50.4% | 280.8hPa | 2.5V | 02:49:58 | 02:35:10 | 00:00:00 | |
| DF8AY-15 | 2026-09-06 00:58:00 | 51.96492 | 11.76128 | 129° | 164km/h | 9973m | -9.3m/s | -42.1°C | 47.7% | 280.7hPa | 2.5V | 00:00:00 | 02:35:10 | 00:00:00 | |
| DO2SHX-10 | 2026-09-06 00:57:59 | 51.96518 | 11.76076 | 130° | 164km/h | 9983m | -9.4m/s | -42.2°C | 47.7% | 280.3hPa | 2.5V | 00:00:00 | 02:35:09 | 00:00:00 | |
| DL1XH-15 | 2026-09-06 00:57:57 | 51.96675 | 11.75762 | 128° | 166km/h | 10040m | -10.1m/s | -42.7°C | 50% | 278hPa | 2.5V | 02:49:37 | 02:35:03 | 00:00:00 | |
| AA1-15 | 2026-09-06 00:57:55 | 51.96623 | 11.75868 | 129° | 164km/h | 10020m | -10.2m/s | -42.6°C | 51.7% | 278.9hPa | 2.5V | 02:49:58 | 02:35:05 | 00:00:00 | |
| DL1XH1-15 | 2026-09-06 00:57:55 | 51.96649 | 11.75815 | 128° | 166km/h | 10030m | -9.7m/s | -42.6°C | 49.4% | 278.4hPa | 2.5V | 02:49:36 | 02:35:04 | 00:00:00 | |
| HSKMA3-T | 2026-09-06 00:57:54 | 51.96649 | 11.75815 | 129° | 166km/h | 10030m | -9.7m/s | -42.6°C | 52.3% | 278.4hPa | 2.5V | 02:50:49 | 02:35:04 | 00:00:00 | |
| DF8AY | 2026-09-06 00:57:50 | 51.96754 | 11.75604 | 128° | 164km/h | 10068m | -9.8m/s | -43°C | 54.1% | 276.8hPa | 2.5V | 02:49:58 | 02:35:00 | 00:00:00 | |
| DL1ZP-14 | 2026-09-06 00:57:49 | 51.96780 | 11.75552 | 128° | 162km/h | 10078m | -9.3m/s | -43.1°C | 46.8% | 276.5hPa | 2.5V | 00:00:00 | 00:00:00 | 00:00:00 | |
| BIOWL1-15 | 2026-09-06 00:57:45 | 51.96930 | 11.75227 | 127° | 166km/h | 10132m | -9.3m/s | -43.4°C | 50.9% | 274.2hPa | 2.5V | 02:49:58 | 02:34:53 | 00:00:00 | |
| AA1-15 | 2026-09-06 00:57:40 | 51.97005 | 11.75063 | 126° | 166km/h | 10159m | -9m/s | -43.6°C | 48.5% | 273hPa | 2.6V | 02:49:58 | 02:34:50 | 00:00:00 | |
| DF8AY | 2026-09-06 00:57:40 | 51.97030 | 11.75008 | 126° | 166km/h | 10168m | -9.9m/s | -43.6°C | 47.3% | 272.7hPa | 2.6V | 02:49:58 | 02:34:49 | 00:00:00 | |
| HSKMA3-T | 2026-09-06 00:57:33 | 51.97179 | 11.74674 | 126° | 170km/h | 10226m | -10.1m/s | -43.6°C | 45% | 270.4hPa | 2.5V | 02:50:49 | 02:34:43 | 00:00:00 | |
| BIOWL1-15 | 2026-09-06 00:57:33 | 51.97229 | 11.74561 | 126° | 170km/h | 10245m | -10.1m/s | -43.7°C | 45.9% | 269.6hPa | 2.5V | 02:50:49 | 02:34:41 | 00:00:00 | |
| DM0DOS-11 | 2026-09-06 00:57:32 | 51.97331 | 11.74335 | 126° | 170km/h | 10284m | -9.9m/s | -44°C | 43% | 268.1hPa | 2.5V | 02:50:03 | 02:34:37 | 00:00:00 | |
| DL1XH-west | 2026-09-06 00:57:29 | 51.97280 | 11.74448 | 126° | 172km/h | 10265m | -9.1m/s | -43.9°C | 46% | 268.8hPa | 2.6V | 02:50:49 | 02:34:39 | 00:00:00 | |
| DF8AY | 2026-09-06 00:57:28 | 51.97305 | 11.74391 | 126° | 172km/h | 10274m | -10.4m/s | -43.9°C | 45.7% | 268.5hPa | 2.5V | 02:50:49 | 02:34:38 | 00:00:00 | |
| AA1-15 | 2026-09-06 00:57:27 | 51.97331 | 11.74335 | 127° | 170km/h | 10284m | -9.9m/s | -44°C | 46.1% | 268.2hPa | 2.5V | 02:50:49 | 02:34:37 | 00:00:00 | |
| DO2SHX-10 | 2026-09-06 00:57:26 | 51.97356 | 11.74279 | 127° | 170km/h | 10294m | -10.1m/s | -44.1°C | 43.1% | 267.7hPa | 2.6V | 00:00:00 | 02:34:36 | 00:00:00 | |
| DL1XH1-15 | 2026-09-06 00:57:25 | 51.97408 | 11.74168 | 126° | 170km/h | 10313m | -9.4m/s | -44.3°C | 43.7% | 267hPa | 2.6V | 02:50:06 | 02:34:34 | 00:00:00 | |
| HSKMA3-T | 2026-09-06 00:57:21 | 51.97485 | 11.74002 | 128° | 170km/h | 10339m | -10m/s | -44.5°C | 46.4% | 265.9hPa | 2.5V | 02:50:49 | 02:34:31 | 00:00:00 | |
| DM0DOS-11 | 2026-09-06 00:57:21 | 51.97591 | 11.73783 | 128° | 170km/h | 10378m | -10.7m/s | -44.8°C | 41.3% | 264.4hPa | 2.5V | 02:50:13 | 02:34:27 | 00:00:00 | |
| DB0NH | 2026-09-06 00:57:21 | 51.97485 | 11.74002 | 128° | 170km/h | 10339m | -9.9m/s | -44.5°C | 43.4% | 265.9hPa | 2.6V | 00:00:00 | 02:34:31 | 00:00:00 | |
| DO2SHX-10 | 2026-09-06 00:57:20 | 51.97512 | 11.73947 | 128° | 170km/h | 10349m | -9.8m/s | -44.5°C | 43.2% | 265.5hPa | 2.6V | 02:50:00 | 02:34:30 | 00:00:00 | |
| DL1XH1-15 | 2026-09-06 00:57:19 | 51.97674 | 11.73621 | 130° | 172km/h | 10408m | -10.2m/s | -45.1°C | 39.3% | 263.2hPa | 2.6V | 02:50:16 | 02:34:24 | 00:00:00 | |
| DF8AY | 2026-09-06 00:57:18 | 51.97565 | 11.73837 | 128° | 170km/h | 10368m | -10.1m/s | -44.8°C | 45.3% | 264.8hPa | 2.5V | 02:50:49 | 02:34:28 | 00:00:00 | |
| AA1-15 | 2026-09-06 00:57:17 | 51.97592 | 11.73783 | 129° | 170km/h | 10378m | -10.7m/s | -44.8°C | 44.6% | 264.4hPa | 2.5V | 02:50:49 | 02:34:27 | 00:00:00 | |
| DO2SHX-10 | 2026-09-06 00:57:17 | 51.97592 | 11.73783 | 129° | 172km/h | 10378m | -10.7m/s | -44.8°C | 41.3% | 264.3hPa | 2.5V | 00:00:00 | 02:34:27 | 00:00:00 | |
| DF7ER-10 | 2026-09-06 00:57:15 | 51.97618 | 11.73728 | 130° | 172km/h | 10388m | -10.4m/s | -44.9°C | 36.6% | 263.9hPa | 2.5V | 02:50:00 | 00:00:00 | 00:00:00 | |
| DO2SHX-10 | 2026-09-06 00:57:14 | 51.97674 | 11.73621 | 131° | 170km/h | 10408m | -10.1m/s | -45.0°C | 39.3% | 263.1hPa | 2.5V | 00:00:00 | 02:34:24 | 00:00:00 | |
| DM0DOS-11 | 2026-09-06 00:57:11 | 51.97868 | 11.73249 | 130° | 168km/h | 10475m | -10.3m/s | -45.2°C | 29.7% | 260.6hPa | 2.5V | 02:50:23 | 02:34:17 | 00:00:00 | |
| HSKMA3-T | 2026-09-06 00:57:10 | 51.97785 | 11.73407 | 130° | 170km/h | 10446m | -9.5m/s | -45.4°C | 38.2% | 261.7hPa | 2.6V | 02:50:49 | 02:34:20 | 00:00:00 | |
| BIOWL1-15 | 2026-09-06 00:57:09 | 51.97812 | 11.73354 | 130° | 168km/h | 10456m | -9.5m/s | -45.3°C | 36.3% | 261.3hPa | 2.6V | 02:50:49 | 02:34:19 | 00:00:00 | |
| DF8AY | 2026-09-06 00:57:07 | 51.97868 | 11.73249 | 131° | 168km/h | 10475m | -10.3m/s | -45.2°C | 33.5% | 260.6hPa | 2.5V | 02:50:49 | 02:34:17 | 00:00:00 | |
| DL1XH1-15 | 2026-09-06 00:57:07 | 51.97952 | 11.73092 | 130° | 170km/h | 10505m | -10m/s | -45.4°C | 29% | 259.3hPa | 2.6V | 02:50:26 | 02:34:14 | 00:00:00 | |
| AA1-15 | 2026-09-06 00:57:06 | 51.97896 | 11.73197 | 131° | 170km/h | 10485m | -10.9m/s | -45.3°C | 33% | 260.2hPa | 2.5V | 02:50:49 | 02:34:16 | 00:00:00 | |
| EDDB2-11 | 2026-09-06 00:57:06 | 51.97924 | 11.73144 | 130° | 170km/h | 10495m | -10.2m/s | -45.3°C | 25.2% | 259.9hPa | 2.5V | 00:00:00 | 00:00:00 | 00:00:00 | |
| DF7ER-10 | 2026-09-06 00:57:05 | 51.97923 | 11.73144 | 132° | 170km/h | 10495m | -10.2m/s | -45.3°C | 25.2% | 259.9hPa | 2.5V | 02:50:00 | 00:00:00 | 00:00:00 | |
| DO2SHX-10 | 2026-09-06 00:57:02 | 51.98008 | 11.72987 | 132° | 168km/h | 10524m | -10.5m/s | -45.5°C | 29.3% | 258.7hPa | 2.5V | 02:50:00 | 02:34:12 | 00:00:00 | |
| DM0DOS-11 | 2026-09-06 00:57:01 | 51.98150 | 11.72730 | 132° | 166km/h | 10573m | -10.4m/s | -45.9°C | 28.8% | 256.8hPa | 2.5V | 02:50:33 | 02:34:07 | 00:00:00 | |
| HSKMA3-T | 2026-09-06 00:57:00 | 51.98065 | 11.72883 | 131° | 168km/h | 10543m | -9.4m/s | -45.7°C | 32.8% | 257.9hPa | 2.6V | 02:50:49 | 02:34:10 | 00:00:00 | |
| BIOWL1-15 | 2026-09-06 00:56:59 | 51.98093 | 11.72832 | 132° | 168km/h | 10553m | -9.8m/s | -45.8°C | 32.8% | 257.5hPa | 2.6V | 02:50:49 | 02:34:09 | 00:00:00 | |
| DF8AY | 2026-09-06 00:56:57 | 51.98150 | 11.72730 | 133° | 166km/h | 10573m | -10.4m/s | -45.9°C | 32.6% | 256.8hPa | 2.5V | 02:50:49 | 02:34:07 | 00:00:00 | |
| AA1-15 | 2026-09-06 00:56:56 | 51.98179 | 11.72680 | 133° | 166km/h | 10583m | -10.3m/s | -46°C | 32.5% | 256.4hPa | 2.5V | 02:50:49 | 02:34:06 | 00:00:00 | |
| DO2SHX-10 | 2026-09-06 00:56:56 | 51.98179 | 11.72680 | 133° | 166km/h | 10583m | -10.3m/s | -46.0°C | 28.6% | 256.3hPa | 2.6V | 00:00:00 | 02:34:06 | 00:00:00 | |
| DL1XH1-15 | 2026-09-06 00:56:55 | 51.98236 | 11.72580 | 133° | 166km/h | 10605m | -11.7m/s | -46.2°C | 28.3% | 255.7hPa | 2.6V | 02:50:36 | 02:34:04 | 00:00:00 | |
| DF7ER-10 | 2026-09-06 00:56:54 | 51.98207 | 11.72630 | 134° | 166km/h | 10594m | -11.7m/s | -46.1°C | 24.6% | 256.0hPa | 2.5V | 02:50:00 | 00:00:00 | 00:00:00 | |
| DO2SHX-10 | 2026-09-06 00:56:53 | 51.98265 | 11.72531 | 134° | 166km/h | 10617m | -11.6m/s | -46.3°C | 28.2% | 255.1hPa | 2.5V | 02:50:00 | 02:34:03 | 00:00:00 | |
| DB0NH | 2026-09-06 00:56:51 | 51.98323 | 11.72433 | 134° | 162km/h | 10640m | -11.8m/s | -46.5°C | 27.9% | 254.1hPa | 2.5V | 00:00:00 | 02:34:01 | 00:00:00 | |
| DM0DOS-11 | 2026-09-06 00:56:50 | 51.98438 | 11.72239 | 134° | 162km/h | 10688m | -12.5m/s | -46.8°C | 27% | 252.4hPa | 2.5V | 02:50:43 | 02:33:57 | 00:00:00 | |
| DO2SHX-10 | 2026-09-06 00:56:50 | 51.98351 | 11.72384 | 135° | 164km/h | 10652m | -12.1m/s | -46.5°C | 27.5% | 253.8hPa | 2.6V | 00:00:00 | 02:34:00 | 00:00:00 | |
| HSKMA3-T | 2026-09-06 00:56:50 | 51.98351 | 11.72384 | 134° | 164km/h | 10652m | -12.1m/s | -46.6°C | 31.9% | 253.9hPa | 2.6V | 02:50:49 | 02:34:00 | 00:00:00 | |
| DL1XH1-15 | 2026-09-06 00:56:49 | 51.98524 | 11.72097 | 134° | 162km/h | 10723m | -11.7m/s | -47.2°C | 27.6% | 251hPa | 2.6V | 02:50:46 | 02:33:54 | 00:00:00 | |
| DF8AY | 2026-09-06 00:56:47 | 51.98438 | 11.72240 | 134° | 162km/h | 10688m | -12.5m/s | -46.9°C | 31.5% | 252.4hPa | 2.5V | 02:50:49 | 02:33:57 | 00:00:00 | |
| DL1XH-15 | 2026-09-06 00:56:47 | 51.98553 | 11.72050 | 135° | 162km/h | 10734m | -11.3m/s | -47.3°C | 27.8% | 250.6hPa | 2.5V | 02:50:47 | 02:33:53 | 00:00:00 | |
| AA1-15 | 2026-09-06 00:56:46 | 51.98466 | 11.72192 | 134° | 162km/h | 10699m | -12.4m/s | -47°C | 31.6% | 252hPa | 2.5V | 02:50:49 | 02:33:56 | 00:00:00 | |
| DL1XH-west | 2026-09-06 00:56:45 | 51.98495 | 11.72144 | 135° | 162km/h | 10712m | -12.1m/s | -47.1°C | 31.7% | 251.5hPa | 2.6V | 02:50:49 | 02:33:55 | 00:00:00 | |
| DJ2DS-15 | 2026-09-06 00:56:45 | 51.98524 | 11.72097 | 134° | 161km/h | 10723m | -11.7m/s | -47.2°C | 23.7% | 251.0hPa | 2.5V | 00:00:00 | 00:00:00 | 00:00:00 | |
| 13BRC | 2026-09-06 00:56:44 | 51.98524 | 11.72097 | 136° | 162km/h | 10723m | -11.7m/s | -47.2°C | 23.7% | 251.0hPa | 2.5V | 02:50:00 | 00:00:00 | 00:00:00 | |
| DF7ER-10 | 2026-09-06 00:56:43 | 51.98524 | 11.72097 | 136° | 162km/h | 10723m | -11.7m/s | -47.2°C | 23.7% | 251.0hPa | 2.5V | 02:50:00 | 00:00:00 | 00:00:00 | |
| DO2SHX-10 | 2026-09-06 00:56:41 | 51.98611 | 11.71956 | 136° | 164km/h | 10757m | -11.5m/s | -47.5°C | 28.4% | 249.7hPa | 2.5V | 00:00:00 | 02:33:51 | 00:00:00 | |
| DM0DOS-11 | 2026-09-06 00:56:40 | 51.98729 | 11.71766 | 135° | 164km/h | 10796m | -9.8m/s | -47.9°C | 29.4% | 248.3hPa | 2.5V | 02:50:53 | 02:33:47 | 00:00:00 | |
| HSKMA3-T | 2026-09-06 00:56:40 | 51.98641 | 11.71909 | 135° | 164km/h | 10767m | -9.6m/s | -47.6°C | 32.7% | 249.3hPa | 2.6V | 02:51:40 | 02:33:50 | 00:00:00 | |
| DF8AY | 2026-09-06 00:56:37 | 51.98729 | 11.71766 | 135° | 164km/h | 10796m | -9.8m/s | -47.9°C | 33.3% | 248.3hPa | 2.5V | 02:51:40 | 02:33:47 | 00:00:00 | |
| DL1XH-15 | 2026-09-06 00:56:37 | 51.98846 | 11.71576 | 134° | 162km/h | 10834m | -9.2m/s | -48.3°C | 30.1% | 246.8hPa | 2.5V | 02:50:57 | 02:33:43 | 00:00:00 | |
| AA1-15 | 2026-09-06 00:56:35 | 51.98788 | 11.71671 | 135° | 164km/h | 10815m | -10.4m/s | -48.1°C | 33.7% | 247.5hPa | 2.6V | 02:51:40 | 02:33:45 | 00:00:00 | |
| DL1XH-west | 2026-09-06 00:56:34 | 51.98817 | 11.71623 | 135° | 164km/h | 10825m | -9.6m/s | -48.2°C | 33.8% | 247.1hPa | 2.6V | 02:51:40 | 02:33:44 | 00:00:00 | |
| DF7ER-10 | 2026-09-06 00:56:33 | 51.98817 | 11.71623 | 136° | 164km/h | 10825m | -9.6m/s | -48.2°C | 25.9% | 247.1hPa | 2.5V | 02:51:00 | 00:00:00 | 00:00:00 | |
| DO2SHX-10 | 2026-09-06 00:56:32 | 51.98875 | 11.71529 | 136° | 162km/h | 10844m | -9.3m/s | -48.3°C | 29.9% | 246.4hPa | 2.5V | 00:00:00 | 02:33:42 | 00:00:00 | |
| DM0DOS-11 | 2026-09-06 00:56:30 | 51.99022 | 11.71296 | 135° | 162km/h | 10893m | -11.2m/s | -48.8°C | 30.5% | 244.7hPa | 2.5V | 02:51:03 | 02:33:37 | 00:00:00 | |
| HSKMA3-T | 2026-09-06 00:56:29 | 51.98963 | 11.71389 | 135° | 162km/h | 10872m | -10.6m/s | -48.6°C | 34.4% | 245.4hPa | 2.6V | 02:51:40 | 02:33:39 | 00:00:00 | |
| DO2SHX-10 | 2026-09-06 00:56:29 | 51.98963 | 11.71389 | 136° | 162km/h | 10872m | -10.6m/s | -48.6°C | 30.2% | 245.3hPa | 2.5V | 00:00:00 | 02:33:39 | 00:00:00 | |
| TFSTFS | 2026-09-06 00:56:27 | 51.99022 | 11.71296 | 137° | 162km/h | 10893m | -11.2m/s | -48.8°C | 26.2% | 244.7hPa | 2.5V | 02:51:00 | 00:00:00 | 00:00:00 | |
| DL1XH-15 | 2026-09-06 00:56:26 | 51.99137 | 11.71111 | 135° | 159km/h | 10934m | -9.6m/s | -49.2°C | 31.1% | 243.1hPa | 2.5V | 02:51:07 | 02:33:33 | 00:00:00 | |
| DF8AY | 2026-09-06 00:56:26 | 51.99051 | 11.71249 | 135° | 161km/h | 10904m | -11.4m/s | -48.9°C | 34.7% | 244.2hPa | 2.5V | 02:51:40 | 02:33:36 | 00:00:00 | |
| AA1-15 | 2026-09-06 00:56:25 | 51.99080 | 11.71203 | 136° | 161km/h | 10915m | -10.5m/s | -49°C | 34.8% | 243.9hPa | 2.6V | 02:51:40 | 02:33:35 | 00:00:00 | |
| BIOWL1-15 | 2026-09-06 00:56:25 | 51.99166 | 11.71065 | 136° | 159km/h | 10944m | -10.1m/s | -49.3°C | 35.2% | 242.7hPa | 2.5V | 02:51:40 | 02:33:32 | 00:00:00 | |
| DL1XH-west | 2026-09-06 00:56:23 | 51.99137 | 11.71111 | 135° | 159km/h | 10934m | -9.6m/s | -49.2°C | 35% | 243.1hPa | 2.5V | 02:51:40 | 02:33:33 | 00:00:00 | |
| 13BRC | 2026-09-06 00:56:23 | 51.99137 | 11.71111 | 136° | 159km/h | 10934m | -9.6m/s | -49.2°C | 26.7% | 243.1hPa | 2.5V | 02:51:00 | 00:00:00 | 00:00:00 | |
| DB0ND-19 | 2026-09-06 00:56:22 | 51.99195 | 11.71020 | 135° | 157km/h | 10954m | -9.7m/s | -49.4°C | 27.0% | 242.4hPa | 2.5V | 00:00:00 | 00:00:00 | 00:00:00 | |
| DB0UT-7 | 2026-09-06 00:56:21 | 51.99195 | 11.71020 | 136° | 157km/h | 10954m | -9.7m/s | -49.3°C | 31.5% | 242.3hPa | 2.5V | 00:00:00 | 00:00:00 | 00:00:00 | |
| DM0DOS-11 | 2026-09-06 00:56:20 | 51.99311 | 11.70839 | 135° | 159km/h | 10991m | -10.2m/s | -49.8°C | 31.9% | 240.9hPa | 2.5V | 02:51:13 | 02:33:27 | 00:00:00 | |
| HSKMA3-T | 2026-09-06 00:56:18 | 51.99282 | 11.70884 | 136° | 159km/h | 10982m | -10.1m/s | -49.7°C | 36.1% | 241.3hPa | 2.5V | 02:51:40 | 02:33:28 | 00:00:00 | |
| DF8AY | 2026-09-06 00:56:16 | 51.99340 | 11.70793 | 136° | 159km/h | 11001m | -11.2m/s | -49.9°C | 36.2% | 240.6hPa | 2.5V | 02:51:40 | 02:33:26 | 00:00:00 | |
| AA1-15 | 2026-09-06 00:56:15 | 51.99369 | 11.70748 | 136° | 159km/h | 11013m | -11.5m/s | -49.9°C | 36.2% | 240.3hPa | 2.6V | 02:51:40 | 02:33:25 | 00:00:00 | |
| BIOWL1-15 | 2026-09-06 00:56:14 | 51.99398 | 11.70703 | 136° | 159km/h | 11024m | -11.1m/s | -50.1°C | 36.4% | 239.8hPa | 2.6V | 02:51:40 | 02:33:24 | 00:00:00 | |
| DL1XH-west | 2026-09-06 00:56:12 | 51.99455 | 11.70612 | 136° | 159km/h | 11046m | -11m/s | -50.3°C | 36.8% | 239.1hPa | 2.5V | 02:51:40 | 02:33:22 | 00:00:00 | |
| DO2SHX-10 | 2026-09-06 00:56:11 | 51.99484 | 11.70567 | 136° | 159km/h | 11057m | -11.8m/s | -50.3°C | 32.7% | 238.6hPa | 2.6V | 00:00:00 | 02:33:21 | 00:00:00 | |
| DL1XH1-15 | 2026-09-06 00:56:09 | 51.99687 | 11.70255 | 136° | 157km/h | 11134m | -10.9m/s | -51.1°C | 34.7% | 235.8hPa | 2.6V | 02:51:26 | 02:33:14 | 00:00:00 | |
| HSKMA3-T | 2026-09-06 00:56:08 | 51.99571 | 11.70433 | 137° | 159km/h | 11090m | -10.8m/s | -50.7°C | 37.8% | 237.4hPa | 2.5V | 02:51:40 | 02:33:18 | 00:00:00 | |
| DF8AY | 2026-09-06 00:56:05 | 51.99658 | 11.70299 | 137° | 159km/h | 11123m | -10.4m/s | -51°C | 38.6% | 236.3hPa | 2.6V | 02:51:40 | 02:33:15 | 00:00:00 | |
| DO2SHX-10 | 2026-09-06 00:56:05 | 51.99658 | 11.70299 | 137° | 157km/h | 11123m | -10.4m/s | -51.0°C | 34.7% | 236.2hPa | 2.5V | 00:00:00 | 02:33:15 | 00:00:00 | |
| EDDB2-11 | 2026-09-06 00:56:04 | 51.99716 | 11.70210 | 135° | 157km/h | 11145m | -11.2m/s | -51.2°C | 30.0% | 235.5hPa | 2.5V | 00:00:00 | 00:00:00 | 00:00:00 | |
| DM0DOS-11 | 2026-09-06 00:56:02 | 51.99887 | 11.69944 | 136° | 155km/h | 11213m | -12.5m/s | -51.9°C | 36.3% | 233hPa | 2.5V | 02:51:33 | 02:33:07 | 00:00:00 | |
| DL1XH-west | 2026-09-06 00:56:02 | 51.99745 | 11.70165 | 136° | 157km/h | 11156m | -11.2m/s | -51.3°C | 39.3% | 235.1hPa | 2.5V | 02:51:40 | 02:33:12 | 00:00:00 | |
| DO2SHX-10 | 2026-09-06 00:56:02 | 51.99745 | 11.70165 | 137° | 157km/h | 11156m | -11.2m/s | -51.3°C | 35.2% | 235.0hPa | 2.6V | 00:00:00 | 02:33:12 | 00:00:00 | |
| 13BRC | 2026-09-06 00:56:01 | 51.99744 | 11.70165 | 137° | 157km/h | 11156m | -11.2m/s | -51.3°C | 30.3% | 235.0hPa | 2.6V | 02:51:00 | 00:00:00 | 00:00:00 | |
| DF8AY-15 | 2026-09-06 00:56:00 | 51.99802 | 11.70076 | 137° | 151km/h | 11178m | -11.1m/s | -51.5°C | 35.6% | 234.1hPa | 2.6V | 00:00:00 | 02:33:10 | 00:00:00 | |
| DL1XH1-15 | 2026-09-06 00:55:59 | 51.99972 | 11.69812 | 136° | 153km/h | 11249m | -12.2m/s | -52.2°C | 37.1% | 231.7hPa | 2.6V | 02:51:36 | 02:33:04 | 00:00:00 | |
| AA1-15 | 2026-09-06 00:55:58 | 51.99859 | 11.69988 | 136° | 155km/h | 11201m | -11.8m/s | -51.8°C | 40.1% | 233.4hPa | 2.5V | 02:51:40 | 02:33:08 | 00:00:00 | |
| HSKMA3-T | 2026-09-06 00:55:57 | 51.99887 | 11.69944 | 136° | 155km/h | 11213m | -12.5m/s | -51.9°C | 40.3% | 233hPa | 2.5V | 02:51:40 | 02:33:07 | 00:00:00 | |
| DF8AY | 2026-09-06 00:55:55 | 51.99944 | 11.69855 | 136° | 155km/h | 11237m | -11.7m/s | -52.1°C | 40.7% | 232.1hPa | 2.6V | 02:51:40 | 02:33:05 | 00:00:00 | |
| DL1XH-west | 2026-09-06 00:55:51 | 52.00056 | 11.69682 | 136° | 153km/h | 11283m | -11.8m/s | -52.5°C | 41.7% | 230.5hPa | 2.5V | 02:51:40 | 02:33:01 | 00:00:00 | |
| DB0UT-7 | 2026-09-06 00:55:51 | 52.00056 | 11.69682 | 137° | 146km/h | 11283m | -11.7m/s | -52.4°C | 37.7% | 230.5hPa | 2.5V | 02:51:00 | 02:33:01 | 00:00:00 | |
| DO2SHX-10 | 2026-09-06 00:55:50 | 52.00084 | 11.69638 | 136° | 150km/h | 11295m | -12.6m/s | -52.5°C | 37.6% | 230.1hPa | 2.6V | 02:51:00 | 02:33:00 | 00:00:00 | |
| DL1XH1-15 | 2026-09-06 00:55:49 | 52.00246 | 11.69382 | 135° | 148km/h | 11368m | -12m/s | -53.2°C | 39.4% | 227.5hPa | 2.6V | 02:51:46 | 02:32:54 | 00:00:00 | |
| DM0DOS-11 | 2026-09-06 00:55:49 | 52.00165 | 11.69510 | 136° | 150km/h | 11331m | -12.2m/s | -52.9°C | 38.4% | 228.8hPa | 2.5V | 02:51:43 | 02:32:57 | 00:00:00 | |
| AA1-15 | 2026-09-06 00:55:47 | 52.00165 | 11.69510 | 136° | 150km/h | 11331m | -12.3m/s | -52.9°C | 42.4% | 228.8hPa | 2.5V | 02:52:31 | 02:32:57 | 00:00:00 | |
| BIOWL1-15 | 2026-09-06 00:55:47 | 52.00219 | 11.69425 | 135° | 148km/h | 11356m | -12.5m/s | -53.1°C | 42.9% | 228hPa | 2.6V | 02:52:31 | 02:32:55 | 00:00:00 | |
| HSKMA3-T | 2026-09-06 00:55:46 | 52.00192 | 11.69467 | 136° | 148km/h | 11344m | -12.8m/s | -53°C | 42.7% | 228.4hPa | 2.5V | 02:52:31 | 02:32:56 | 00:00:00 | |
| DF8AY | 2026-09-06 00:55:44 | 52.00246 | 11.69382 | 135° | 148km/h | 11368m | -12m/s | -53.2°C | 43.2% | 227.5hPa | 2.6V | 02:52:31 | 02:32:54 | 00:00:00 | |
| DL1XH-west | 2026-09-06 00:55:40 | 52.00350 | 11.69211 | 134° | 146km/h | 11415m | -10.7m/s | -53.5°C | 44.3% | 225.9hPa | 2.6V | 02:52:31 | 02:32:50 | 00:00:00 | |
| DF8AY-15 | 2026-09-06 00:55:40 | 52.00350 | 11.69210 | 134° | 146km/h | 11415m | -10.7m/s | -53.5°C | 40.6% | 225.8hPa | 2.6V | 02:51:00 | 02:32:50 | 00:00:00 | |
| DL1XH1-15 | 2026-09-06 00:55:39 | 52.00502 | 11.68951 | 132° | 144km/h | 11483m | -11.8m/s | -53.8°C | 42% | 223.5hPa | 2.6V | 02:51:56 | 02:32:44 | 00:00:00 | |
| DM0DOS-11 | 2026-09-06 00:55:39 | 52.00426 | 11.69081 | 133° | 144km/h | 11448m | -11.5m/s | -53.7°C | 41.4% | 224.6hPa | 2.5V | 02:51:53 | 02:32:47 | 00:00:00 | |
| DF7ER-10 | 2026-09-06 00:55:39 | 52.00376 | 11.69167 | 135° | 146km/h | 11426m | -11.0m/s | -53.6°C | 35.2% | 225.4hPa | 2.5V | 02:52:00 | 00:00:00 | 00:00:00 | |
| DL1XH-15 | 2026-09-06 00:55:38 | 52.00551 | 11.68864 | 133° | 144km/h | 11505m | -11m/s | -54°C | 43% | 222.6hPa | 2.5V | 02:51:58 | 02:32:42 | 00:00:00 | |
| AA1-15 | 2026-09-06 00:55:37 | 52.00427 | 11.69081 | 133° | 144km/h | 11448m | -11.5m/s | -53.7°C | 45.3% | 224.6hPa | 2.5V | 02:52:31 | 02:32:47 | 00:00:00 | |
| HSKMA3-T | 2026-09-06 00:55:35 | 52.00477 | 11.68994 | 133° | 146km/h | 11471m | -11.3m/s | -53.7°C | 46% | 223.8hPa | 2.6V | 02:52:31 | 02:32:45 | 00:00:00 | |
| DF8AY | 2026-09-06 00:55:34 | 52.00502 | 11.68951 | 133° | 144km/h | 11483m | -11.8m/s | -53.8°C | 46.4% | 223.5hPa | 2.6V | 02:52:31 | 02:32:44 | 00:00:00 | |
| DL1XH-west | 2026-09-06 00:55:29 | 52.00626 | 11.68734 | 133° | 144km/h | 11537m | -10.8m/s | -54.3°C | 48.4% | 221.6hPa | 2.6V | 02:52:31 | 02:32:39 | 00:00:00 | |
| DM0DOS-11 | 2026-09-06 00:55:29 | 52.00675 | 11.68646 | 131° | 144km/h | 11560m | -10.8m/s | -54.5°C | 44.9% | 220.7hPa | 2.5V | 02:52:03 | 02:32:37 | 00:00:00 | |
| AA1-15 | 2026-09-06 00:55:27 | 52.00675 | 11.68646 | 132° | 144km/h | 11560m | -10.8m/s | -54.5°C | 49.1% | 220.7hPa | 2.5V | 02:52:31 | 02:32:37 | 00:00:00 | |
| DL1LOL-11 | 2026-09-06 00:55:26 | 52.00675 | 11.68646 | 133° | 144km/h | 11560m | -10.8m/s | -54.5°C | 38.7% | 220.7hPa | 2.6V | 00:00:00 | 00:00:00 | 00:00:00 | |
| DB0DAN | 2026-09-06 00:55:25 | 52.00724 | 11.68556 | 131° | 139km/h | 11582m | -11.5m/s | -54.7°C | 39.3% | 220.04hPa | 2.6V | 00:00:00 | 00:00:00 | 00:00:00 | |
| HSKMA3-T | 2026-09-06 00:55:24 | 52.00748 | 11.68511 | 130° | 146km/h | 11593m | -11.5m/s | -54.8°C | 50.1% | 219.7hPa | 2.6V | 02:52:31 | 02:32:34 | 00:00:00 | |
| DF8AY | 2026-09-06 00:55:23 | 52.00772 | 11.68465 | 130° | 148km/h | 11605m | -11.4m/s | -54.9°C | 50.5% | 219.2hPa | 2.5V | 02:52:31 | 02:32:33 | 00:00:00 | |
| DL1XH-west | 2026-09-06 00:55:19 | 52.00867 | 11.68278 | 129° | 148km/h | 11648m | -10.4m/s | -55.3°C | 51.8% | 217.7hPa | 2.6V | 02:52:31 | 02:32:29 | 00:00:00 | |
| DL1XH1-15 | 2026-09-06 00:55:18 | 52.00986 | 11.68046 | 129° | 148km/h | 11699m | -11.8m/s | -55.7°C | 49.5% | 216hPa | 2.6V | 02:52:16 | 02:32:24 | 00:00:00 | |
| DM0DOS-11 | 2026-09-06 00:55:18 | 52.00914 | 11.68185 | 129° | 148km/h | 11668m | -10m/s | -55.5°C | 49.4% | 217hPa | 2.5V | 02:52:13 | 02:32:27 | 00:00:00 | |
| S3001 | 2026-09-06 00:55:18 | 52.00914 | 11.68185 | 129° | 146km/h | 11668m | -10.0m/s | -55.5°C | 42.6% | 217.0hPa | 2.5V | 00:00:00 | 00:00:00 | 00:00:00 | |
| DL1XH-15 | 2026-09-06 00:55:17 | 52.01033 | 11.67952 | 129° | 150km/h | 11722m | -11.1m/s | -55.8°C | 50.1% | 215.3hPa | 2.5V | 02:52:18 | 02:32:22 | 00:00:00 | |
| AA1-15 | 2026-09-06 00:55:16 | 52.00938 | 11.68138 | 130° | 148km/h | 11678m | -10.2m/s | -55.6°C | 52.7% | 216.6hPa | 2.5V | 02:52:31 | 02:32:26 | 00:00:00 | |
| HSKMA3-T | 2026-09-06 00:55:14 | 52.00986 | 11.68046 | 130° | 148km/h | 11699m | -11.8m/s | -55.7°C | 53.1% | 216hPa | 2.6V | 02:52:31 | 02:32:24 | 00:00:00 | |
| DF8AY | 2026-09-06 00:55:13 | 52.01010 | 11.67999 | 130° | 148km/h | 11711m | -11.5m/s | -55.7°C | 53.4% | 215.7hPa | 2.5V | 02:52:31 | 02:32:23 | 00:00:00 | |
| DM0DOS-11 | 2026-09-06 00:55:12 | 52.01154 | 11.67710 | 128° | 153km/h | 11777m | -10.7m/s | -56.3°C | 51.7% | 213.4hPa | 2.5V | 02:52:23 | 02:32:17 | 00:00:00 | |
| BIOWL1-15 | 2026-09-06 00:55:11 | 52.01105 | 11.67809 | 129° | 151km/h | 11755m | -10.8m/s | -56.1°C | 54.5% | 214.2hPa | 2.6V | 02:52:31 | 02:32:19 | 00:00:00 | |
| DO2SHX-10 | 2026-09-06 00:55:11 | 52.01058 | 11.67905 | 130° | 151km/h | 11733m | -10.1m/s | -55.8°C | 50.4% | 214.8hPa | 2.6V | 00:00:00 | 02:32:21 | 00:00:00 | |
| DL1XH1-15 | 2026-09-06 00:55:09 | 52.01226 | 11.67564 | 129° | 153km/h | 11810m | -11m/s | -56.6°C | 53% | 212.3hPa | 2.6V | 02:52:26 | 02:32:14 | 00:00:00 | |
| DL1XH-west | 2026-09-06 00:55:08 | 52.01129 | 11.67760 | 128° | 153km/h | 11766m | -10.6m/s | -56.2°C | 55.1% | 213.8hPa | 2.5V | 02:52:31 | 02:32:18 | 00:00:00 | |
| DO2SHX-10 | 2026-09-06 00:55:08 | 52.01129 | 11.67760 | 129° | 153km/h | 11766m | -10.5m/s | -56.1°C | 51.6% | 213.7hPa | 2.5V | 00:00:00 | 02:32:18 | 00:00:00 | |
| DL1XH-15 | 2026-09-06 00:55:07 | 52.01276 | 11.67467 | 129° | 155km/h | 11832m | -11.1m/s | -56.7°C | 53.5% | 211.6hPa | 2.5V | 02:52:28 | 02:32:12 | 00:00:00 | |
| AA1-15 | 2026-09-06 00:55:06 | 52.01178 | 11.67661 | 129° | 153km/h | 11787m | -10.8m/s | -56.4°C | 55.4% | 213.1hPa | 2.5V | 02:52:31 | 02:32:16 | 00:00:00 | |
| HSKMA3-T | 2026-09-06 00:55:04 | 52.01226 | 11.67564 | 129° | 153km/h | 11810m | -11m/s | -56.6°C | 56% | 212.3hPa | 2.6V | 02:52:31 | 02:32:14 | 00:00:00 | |
| DF8AY | 2026-09-06 00:55:02 | 52.01276 | 11.67467 | 130° | 155km/h | 11832m | -11.1m/s | -56.7°C | 56.5% | 211.6hPa | 2.5V | 02:52:31 | 02:32:12 | 00:00:00 | |
| BIOWL1-15 | 2026-09-06 00:55:01 | 52.01352 | 11.67319 | 130° | 159km/h | 11866m | -10.7m/s | -56.9°C | 57.4% | 210.4hPa | 2.6V | 02:52:31 | 02:32:09 | 00:00:00 | |
| DF8AY-15 | 2026-09-06 00:55:00 | 52.01326 | 11.67369 | 130° | 162km/h | 11855m | -10.0m/s | -56.8°C | 54.1% | 210.7hPa | 2.6V | 00:00:00 | 02:32:10 | 00:00:00 | |
| DL1XH1-15 | 2026-09-06 00:54:59 | 52.01483 | 11.67068 | 130° | 162km/h | 11919m | -9.6m/s | -57.3°C | 56.6% | 208.7hPa | 2.6V | 02:52:36 | 02:32:04 | 00:00:00 | |
| DL1XH-west | 2026-09-06 00:54:57 | 52.01404 | 11.67219 | 130° | 161km/h | 11887m | -10.8m/s | -57.1°C | 58.2% | 209.8hPa | 2.5V | 02:53:22 | 02:32:07 | 00:00:00 | |
| AA1-15 | 2026-09-06 00:54:55 | 52.01456 | 11.67118 | 131° | 161km/h | 11908m | -10.8m/s | -57.2°C | 58.7% | 209hPa | 2.6V | 02:53:22 | 02:32:05 | 00:00:00 | |
| HSKMA3-T | 2026-09-06 00:54:53 | 52.01509 | 11.67017 | 130° | 162km/h | 11929m | -10.1m/s | -57.4°C | 59.5% | 208.4hPa | 2.5V | 02:53:22 | 02:32:03 | 00:00:00 | |
| DF8AY | 2026-09-06 00:54:52 | 52.01536 | 11.66966 | 130° | 164km/h | 11939m | -10.4m/s | -57.5°C | 60.2% | 208.1hPa | 2.5V | 02:53:22 | 02:32:02 | 00:00:00 | |
| DM0DOS-11 | 2026-09-06 00:54:52 | 52.01672 | 11.66710 | 131° | 164km/h | 11992m | -10.3m/s | -57.9°C | 58.7% | 206.3hPa | 2.5V | 02:52:43 | 02:31:57 | 00:00:00 | |
| DB0NH | 2026-09-06 00:54:51 | 52.01563 | 11.66914 | 130° | 170km/h | 11950m | -10.5m/s | -57.5°C | 57.3% | 207.7hPa | 2.5V | 02:52:00 | 02:32:01 | 00:00:00 | |
| DO2SHX-10 | 2026-09-06 00:54:50 | 52.01590 | 11.66862 | 131° | 164km/h | 11961m | -10.3m/s | -57.6°C | 57.8% | 207.3hPa | 2.6V | 00:00:00 | 02:32:00 | 00:00:00 | |
| DL1XH1-15 | 2026-09-06 00:54:49 | 52.01755 | 11.66560 | 132° | 164km/h | 12025m | -11m/s | -58.2°C | 60% | 205.2hPa | 2.6V | 02:52:46 | 02:31:54 | 00:00:00 | |
| DB0ND-19 | 2026-09-06 00:54:49 | 52.01644 | 11.66760 | 131° | 162km/h | 11982m | -10.2m/s | -57.8°C | 50.5% | 206.6hPa | 2.5V | 00:00:00 | 00:00:00 | 00:00:00 | |
| BIOWL1-15 | 2026-09-06 00:54:48 | 52.01897 | 11.66309 | 133° | 168km/h | 12079m | -10.4m/s | -58.6°C | 63.6% | 203.5hPa | 2.5V | 02:53:22 | 02:31:49 | 00:00:00 | |
| DL1XH-west | 2026-09-06 00:54:47 | 52.01672 | 11.66710 | 131° | 164km/h | 11992m | -10.3m/s | -57.9°C | 61.4% | 206.3hPa | 2.5V | 02:53:22 | 02:31:57 | 00:00:00 | |
| AA1-15 | 2026-09-06 00:54:44 | 52.01755 | 11.66560 | 132° | 164km/h | 12025m | -11m/s | -58.2°C | 62.7% | 205.2hPa | 2.6V | 02:53:22 | 02:31:54 | 00:00:00 | |
| HSKMA3-T | 2026-09-06 00:54:43 | 52.01783 | 11.66510 | 133° | 164km/h | 12036m | -10.5m/s | -58.3°C | 63% | 204.9hPa | 2.6V | 02:53:22 | 02:31:53 | 00:00:00 | |
| DF8AY | 2026-09-06 00:54:41 | 52.01839 | 11.66410 | 133° | 166km/h | 12058m | -11.5m/s | -58.5°C | 63.3% | 204.2hPa | 2.5V | 02:53:22 | 02:31:51 | 00:00:00 | |
| DF8AY-15 | 2026-09-06 00:54:40 | 52.01868 | 11.66359 | 133° | 173km/h | 12069m | -10.4m/s | -58.5°C | 60.8% | 203.7hPa | 2.5V | 02:52:00 | 02:31:50 | 00:00:00 | |
| DL1XH1-15 | 2026-09-06 00:54:39 | 52.02042 | 11.66051 | 132° | 172km/h | 12133m | -10.8m/s | -58.9°C | 61.2% | 201.7hPa | 2.5V | 02:52:56 | 02:31:44 | 00:00:00 | |
| DL1XH-west | 2026-09-06 00:54:36 | 52.01983 | 11.66155 | 132° | 172km/h | 12112m | -10.5m/s | -58.8°C | 63.4% | 202.4hPa | 2.5V | 02:53:22 | 02:31:46 | 00:00:00 | |
| AA1-15 | 2026-09-06 00:54:34 | 52.02042 | 11.66051 | 133° | 172km/h | 12133m | -10.8m/s | -58.9°C | 63.7% | 201.7hPa | 2.5V | 02:53:22 | 02:31:44 | 00:00:00 | |
| HSKMA3-T | 2026-09-06 00:54:32 | 52.02101 | 11.65947 | 133° | 173km/h | 12154m | -10.3m/s | -59°C | 64% | 201hPa | 2.6V | 02:53:22 | 02:31:42 | 00:00:00 | |
| HARRO8 | 2026-09-06 00:54:32 | 52.02131 | 11.65896 | 133° | 172km/h | 12165m | -10.7m/s | -59.0°C | 52.3% | 200.7hPa | 2.5V | 00:00:00 | 00:00:00 | 00:00:00 | |
| EDDB2-11 | 2026-09-06 00:54:31 | 52.02161 | 11.65844 | 133° | 173km/h | 12176m | -10.7m/s | -59.1°C | 52.2% | 200.4hPa | 2.5V | 00:00:00 | 00:00:00 | 00:00:00 | |
| DF8AY | 2026-09-06 00:54:31 | 52.02192 | 11.65792 | 134° | 175km/h | 12186m | -10.5m/s | -59.2°C | 63.4% | 200hPa | 2.5V | 02:53:22 | 02:31:39 | 00:00:00 | |
| DL1XH1-15 | 2026-09-06 00:54:30 | 52.02345 | 11.65528 | 132° | 177km/h | 12240m | -10.4m/s | -59.6°C | 60.2% | 198.3hPa | 2.5V | 02:53:06 | 02:31:34 | 00:00:00 | |
| DM0DOS-11 | 2026-09-06 00:54:30 | 52.02254 | 11.65687 | 133° | 177km/h | 12208m | -10m/s | -59.3°C | 60.8% | 199.3hPa | 2.6V | 02:53:03 | 02:31:37 | 00:00:00 | |
| DL1XH-west | 2026-09-06 00:54:26 | 52.02284 | 11.65634 | 133° | 177km/h | 12219m | -10.8m/s | -59.4°C | 62.7% | 199hPa | 2.5V | 02:53:22 | 02:31:36 | 00:00:00 | |
| DL1XH-15 | 2026-09-06 00:54:26 | 52.02405 | 11.65423 | 132° | 173km/h | 12261m | -10.5m/s | -59.8°C | 60% | 197.7hPa | 2.6V | 02:53:08 | 02:31:32 | 00:00:00 | |
| BIOWL1-15 | 2026-09-06 00:54:24 | 52.02345 | 11.65528 | 133° | 177km/h | 12240m | -10.4m/s | -59.6°C | 62.7% | 198.3hPa | 2.5V | 02:53:22 | 02:31:34 | 00:00:00 | |
| AA1-15 | 2026-09-06 00:54:23 | 52.02375 | 11.65475 | 133° | 175km/h | 12251m | -10.1m/s | -59.7°C | 62.5% | 198hPa | 2.6V | 02:53:22 | 02:31:33 | 00:00:00 | |
| HSKMA3-T | 2026-09-06 00:54:21 | 52.02435 | 11.65370 | 133° | 173km/h | 12271m | -10.3m/s | -59.9°C | 62.3% | 197.3hPa | 2.5V | 02:53:22 | 02:31:31 | 00:00:00 | |
| DO2SHX-10 | 2026-09-06 00:54:20 | 52.02465 | 11.65318 | 133° | 173km/h | 12282m | -10.8m/s | -59.9°C | 59.3% | 196.9hPa | 2.5V | 02:53:00 | 02:31:30 | 00:00:00 | |
| DM0DOS-11 | 2026-09-06 00:54:19 | 52.02555 | 11.65160 | 132° | 173km/h | 12316m | -10.8m/s | -60.2°C | 58.8% | 195.9hPa | 2.6V | 02:53:13 | 02:31:27 | 00:00:00 | |
| DL1XH1-15 | 2026-09-06 00:54:19 | 52.02643 | 11.65001 | 131° | 175km/h | 12350m | -11.8m/s | -60.5°C | 58.1% | 194.9hPa | 2.5V | 02:53:16 | 02:31:24 | 00:00:00 | |
| DF8AY | 2026-09-06 00:54:18 | 52.02702 | 11.64893 | 132° | 177km/h | 12373m | -11.2m/s | -60.8°C | 60.4% | 194.2hPa | 2.5V | 02:53:22 | 02:31:22 | 00:00:00 | |
| DL1XH-west | 2026-09-06 00:54:16 | 52.02584 | 11.65108 | 132° | 173km/h | 12327m | -10.8m/s | -60.3°C | 61.3% | 195.6hPa | 2.6V | 02:53:22 | 02:31:26 | 00:00:00 | |
| BIOWL1-15 | 2026-09-06 00:54:13 | 52.02673 | 11.64947 | 132° | 177km/h | 12361m | -11.7m/s | -60.7°C | 60.6% | 194.5hPa | 2.5V | 02:53:22 | 02:31:23 | 00:00:00 | |
| HSKMA3-T | 2026-09-06 00:54:10 | 52.02763 | 11.64784 | 132° | 179km/h | 12394m | -10.4m/s | -61°C | 59.7% | 193.5hPa | 2.6V | 02:53:22 | 02:31:20 | 00:00:00 | |
| DM0DOS-11 | 2026-09-06 00:54:09 | 52.02854 | 11.64622 | 132° | 179km/h | 12426m | -10.8m/s | -61.2°C | 57.1% | 192.5hPa | 2.5V | 02:53:23 | 02:31:17 | 00:00:00 | |
| DL1XH1-15 | 2026-09-06 00:54:09 | 52.02946 | 11.64459 | 132° | 181km/h | 12460m | -11m/s | -61.5°C | 55.9% | 191.5hPa | 2.6V | 02:53:26 | 02:31:14 | 00:00:00 | |
| DF8AY | 2026-09-06 00:54:08 | 52.02854 | 11.64622 | 132° | 179km/h | 12426m | -10.8m/s | -61.2°C | 59% | 192.5hPa | 2.5V | 02:54:13 | 02:31:17 | 00:00:00 | |
| DL1XH-west | 2026-09-06 00:54:05 | 52.02915 | 11.64514 | 132° | 181km/h | 12448m | -11.7m/s | -61.4°C | 58.3% | 191.9hPa | 2.6V | 02:54:13 | 02:31:15 | 00:00:00 | |
| BIOWL1-15 | 2026-09-06 00:54:04 | 52.03189 | 11.64020 | 131° | 179km/h | 12548m | -10.5m/s | -62.2°C | 54.9% | 188.7hPa | 2.5V | 02:54:13 | 02:31:06 | 00:00:00 | |
| AA1-15 | 2026-09-06 00:54:03 | 52.02977 | 11.64405 | 132° | 179km/h | 12471m | -10.9m/s | -61.6°C | 57.5% | 191.1hPa | 2.6V | 02:54:13 | 02:31:13 | 00:00:00 | |
| HSKMA3-T | 2026-09-06 00:53:59 | 52.03099 | 11.64186 | 132° | 179km/h | 12515m | -10.5m/s | -62°C | 56% | 189.8hPa | 2.6V | 02:54:13 | 02:31:09 | 00:00:00 | |
| DF8AY | 2026-09-06 00:53:58 | 52.03159 | 11.64076 | 131° | 179km/h | 12537m | -10.5m/s | -62.1°C | 55.3% | 189.1hPa | 2.5V | 02:54:13 | 02:31:07 | 00:00:00 | |
| DL1XH-15 | 2026-09-06 00:53:57 | 52.03308 | 11.63800 | 130° | 179km/h | 12591m | -11.4m/s | -62.5°C | 52.4% | 187.4hPa | 2.6V | 02:53:38 | 02:31:02 | 00:00:00 | |
| DL1XH-west | 2026-09-06 00:53:54 | 52.03248 | 11.63910 | 131° | 179km/h | 12569m | -10.7m/s | -62.4°C | 54.2% | 188.1hPa | 2.5V | 02:54:13 | 02:31:04 | 00:00:00 | |
| AA1-15 | 2026-09-06 00:53:53 | 52.03278 | 11.63855 | 131° | 179km/h | 12580m | -10.7m/s | -62.5°C | 53.8% | 187.8hPa | 2.6V | 02:54:13 | 02:31:03 | 00:00:00 | |
| DO2SHX-10 | 2026-09-06 00:53:53 | 52.03278 | 11.63855 | 131° | 179km/h | 12580m | -10.6m/s | -62.4°C | 52.6% | 187.8hPa | 2.6V | 02:53:00 | 02:31:03 | 00:00:00 | |
| DM0DOS-11 | 2026-09-06 00:53:52 | 52.03456 | 11.63519 | 129° | 181km/h | 12648m | -11.1m/s | -62.8°C | 50.6% | 185.7hPa | 2.6V | 02:53:43 | 02:30:57 | 00:00:00 | |
| SONCRA | 2026-09-06 00:53:52 | 52.03338 | 11.63744 | 130° | 179km/h | 12602m | -10.9m/s | -62.6°C | 43.3% | 187.1hPa | 2.5V | 00:00:00 | 00:00:00 | 00:00:00 | |
| DL2RXE-15 | 2026-09-06 00:53:51 | 52.03337 | 11.63744 | 132° | 179km/h | 12603m | -10.9m/s | -62.6°C | 43.3% | 187.1hPa | 2.5V | 00:00:00 | 00:00:00 | 00:00:00 | |
| DO2SHX-10 | 2026-09-06 00:53:50 | 52.03367 | 11.63688 | 131° | 181km/h | 12614m | -12.1m/s | -62.6°C | 51.7% | 186.7hPa | 2.5V | 00:00:00 | 02:31:00 | 00:00:00 | |
| DL1XH1-15 | 2026-09-06 00:53:49 | 52.03541 | 11.63348 | 127° | 179km/h | 12684m | -11.5m/s | -63°C | 49.7% | 184.7hPa | 2.5V | 02:53:46 | 02:30:54 | 00:00:00 | |
| HSKMA3-T | 2026-09-06 00:53:49 | 52.03397 | 11.63633 | 131° | 181km/h | 12625m | -11m/s | -62.6°C | 52.4% | 186.4hPa | 2.5V | 02:54:13 | 02:30:59 | 00:00:00 | |
| DL1XH-15 | 2026-09-06 00:53:47 | 52.03596 | 11.63232 | 127° | 177km/h | 12706m | -10.4m/s | -63.1°C | 49.3% | 184hPa | 2.5V | 02:53:48 | 02:30:52 | 00:00:00 | |
| BIOWL1-15 | 2026-09-06 00:53:46 | 52.03485 | 11.63463 | 129° | 179km/h | 12660m | -12.3m/s | -62.9°C | 51.4% | 185.4hPa | 2.6V | 02:54:13 | 02:30:56 | 00:00:00 | |
| S3001 | 2026-09-06 00:53:45 | 52.03541 | 11.63348 | 127° | 177km/h | 12684m | -11.5m/s | -63.0°C | 41.1% | 184.7hPa | 2.5V | 00:00:00 | 00:00:00 | 00:00:00 | |
| DJ2DS-15 | 2026-09-06 00:53:44 | 52.03541 | 11.63348 | 127° | 177km/h | 12684m | -11.5m/s | -63.0°C | 41.1% | 184.7hPa | 2.5V | 00:00:00 | 00:00:00 | 00:00:00 | |
| DL1XH-west | 2026-09-06 00:53:43 | 52.03569 | 11.63290 | 127° | 177km/h | 12695m | -10.6m/s | -63°C | 50.3% | 184.3hPa | 2.5V | 02:54:13 | 02:30:53 | 00:00:00 | |
| DL4BBY-15 | 2026-09-06 00:53:43 | 52.03569 | 11.63290 | 128° | 144km/h | 12696m | -10.5m/s | -63.4°C | 0% | 0hPa | 2.5V | 00:00:00 | 00:00:00 | 00:00:00 | |
| DM0DOS-11 | 2026-09-06 00:53:42 | 52.03732 | 11.62941 | 126° | 179km/h | 12763m | -12m/s | -63.6°C | 47.4% | 182.3hPa | 2.5V | 02:53:53 | 02:30:47 | 00:00:00 | |
| DO2SHX-10 | 2026-09-06 00:53:41 | 52.03623 | 11.63175 | 128° | 177km/h | 12717m | -10.6m/s | -63.2°C | 48.8% | 183.7hPa | 2.6V | 00:00:00 | 02:30:51 | 00:00:00 | |
| AA1-15 | 2026-09-06 00:53:41 | 52.03623 | 11.63175 | 128° | 177km/h | 12717m | -10.7m/s | -63.2°C | 49.4% | 183.7hPa | 2.6V | 02:54:13 | 02:30:51 | 00:00:00 | |
| DF8AY-15 | 2026-09-06 00:53:40 | 52.03651 | 11.63117 | 128° | 184km/h | 12728m | -11.2m/s | -63.3°C | 48.4% | 183.4hPa | 2.6V | 02:53:00 | 02:30:50 | 00:00:00 | |
| DL1XH1-15 | 2026-09-06 00:53:39 | 52.03812 | 11.62761 | 125° | 183km/h | 12797m | -11.8m/s | -63.8°C | 45.9% | 181.3hPa | 2.6V | 02:53:56 | 02:30:44 | 00:00:00 | |
| HSKMA3-T | 2026-09-06 00:53:38 | 52.03705 | 11.63000 | 127° | 179km/h | 12751m | -12.3m/s | -63.5°C | 48.1% | 182.7hPa | 2.5V | 02:54:13 | 02:30:48 | 00:00:00 | |
| DL1XH-15 | 2026-09-06 00:53:37 | 52.03866 | 11.62639 | 125° | 184km/h | 12820m | -11.7m/s | -64°C | 45% | 180.6hPa | 2.5V | 02:53:58 | 02:30:42 | 00:00:00 | |
| DF8AY | 2026-09-06 00:53:35 | 52.03785 | 11.62821 | 126° | 183km/h | 12786m | -10.8m/s | -63.7°C | 46.6% | 181.6hPa | 2.6V | 02:54:13 | 02:30:45 | 00:00:00 | |
| DL1XH-west | 2026-09-06 00:53:32 | 52.03866 | 11.62639 | 125° | 184km/h | 12820m | -11.7m/s | -64°C | 44.8% | 180.6hPa | 2.5V | 02:54:13 | 02:30:42 | 00:00:00 | |
| DM0DOS-11 | 2026-09-06 00:53:32 | 52.04029 | 11.62262 | 125° | 188km/h | 12892m | -11.8m/s | -64.3°C | 41.6% | 178.5hPa | 2.5V | 02:54:04 | 02:30:36 | 00:00:00 | |
| AA1-15 | 2026-09-06 00:53:30 | 52.03920 | 11.62514 | 125° | 186km/h | 12844m | -11.4m/s | -64.1°C | 43.5% | 179.9hPa | 2.5V | 02:54:13 | 02:30:40 | 00:00:00 | |
| HSKMA3-T | 2026-09-06 00:53:27 | 52.04002 | 11.62325 | 125° | 188km/h | 12880m | -11.7m/s | -64.3°C | 41.5% | 178.8hPa | 2.6V | 02:54:13 | 02:30:37 | 00:00:00 | |
| DF8AY | 2026-09-06 00:53:25 | 52.04056 | 11.62199 | 125° | 188km/h | 12904m | -11.8m/s | -64.4°C | 40.3% | 178.2hPa | 2.5V | 02:54:13 | 02:30:35 | 00:00:00 | |
| BIOWL1-15 | 2026-09-06 00:53:24 | 52.04084 | 11.62136 | 125° | 188km/h | 12915m | -11.9m/s | -64.5°C | 39.7% | 177.8hPa | 2.5V | 02:54:13 | 02:30:34 | 00:00:00 | |
| DL1XH-west | 2026-09-06 00:53:22 | 52.04139 | 11.62010 | 125° | 188km/h | 12940m | -12.6m/s | -64.7°C | 38.5% | 177.2hPa | 2.6V | 02:54:13 | 02:30:32 | 00:00:00 | |
| AA1-15 | 2026-09-06 00:53:19 | 52.04221 | 11.61820 | 125° | 188km/h | 12977m | -12m/s | -64.9°C | 36.8% | 176.1hPa | 2.5V | 02:54:13 | 02:30:29 | 00:00:00 | |
| HSKMA3-T | 2026-09-06 00:53:17 | 52.04274 | 11.61694 | 125° | 184km/h | 13001m | -12.8m/s | -65°C | 35.8% | 175.3hPa | 2.5V | 02:54:13 | 02:30:27 | 00:00:00 | |
| BIOWL1-15 | 2026-09-06 00:53:14 | 52.04353 | 11.61506 | 123° | 183km/h | 13038m | -12.3m/s | -65.3°C | 34.6% | 174.3hPa | 2.6V | 02:55:04 | 02:30:24 | 00:00:00 | |
| DL1XH-west | 2026-09-06 00:53:12 | 52.04402 | 11.61379 | 122° | 183km/h | 13063m | -12.5m/s | -65.5°C | 33.6% | 173.7hPa | 2.5V | 02:55:04 | 02:30:22 | 00:00:00 | |
| DM0DOS-11 | 2026-09-06 00:53:11 | 52.04520 | 11.61059 | 119° | 183km/h | 13122m | -10.7m/s | -65.9°C | 39.3% | 171.9hPa | 2.6V | 02:54:23 | 02:30:17 | 00:00:00 | |
| DL1XH1-15 | 2026-09-06 00:53:09 | 52.04589 | 11.60867 | 120° | 179km/h | 13157m | -12.3m/s | -65.5°C | 38.5% | 170.9hPa | 2.5V | 02:54:26 | 02:30:14 | 00:00:00 | |
| AA1-15 | 2026-09-06 00:53:09 | 52.04497 | 11.61124 | 120° | 183km/h | 13111m | -11.8m/s | -65.8°C | 31.8% | 172.2hPa | 2.6V | 02:55:04 | 02:30:18 | 00:00:00 | |
| DO2SHX-10 | 2026-09-06 00:53:08 | 52.04497 | 11.61124 | 121° | 183km/h | 13111m | -11.7m/s | -65.8°C | 39.0% | 172.2hPa | 2.6V | 02:54:00 | 02:30:18 | 00:00:00 | |
| DL1XH-15 | 2026-09-06 00:53:07 | 52.04635 | 11.60741 | 121° | 179km/h | 13182m | -12.2m/s | -64.8°C | 34.6% | 170.3hPa | 2.5V | 02:54:28 | 02:30:12 | 00:00:00 | |
| HSKMA3-T | 2026-09-06 00:53:06 | 52.04543 | 11.60995 | 120° | 181km/h | 13133m | -11.3m/s | -65.9°C | 31.1% | 171.6hPa | 2.6V | 02:55:04 | 02:30:16 | 00:00:00 | |
| BIOWL1-15 | 2026-09-06 00:53:04 | 52.04589 | 11.60867 | 120° | 179km/h | 13157m | -12.3m/s | -65.5°C | 30.4% | 170.9hPa | 2.5V | 02:55:04 | 02:30:14 | 00:00:00 | |
| DL1XH-west | 2026-09-06 00:53:01 | 52.04659 | 11.60678 | 122° | 179km/h | 13194m | -11.9m/s | -64.8°C | 28.1% | 169.9hPa | 2.6V | 02:55:04 | 02:30:11 | 00:00:00 | |
| DF8AY-15 | 2026-09-06 00:53:00 | 52.04683 | 11.60616 | 123° | 166km/h | 13205m | -11.9m/s | -64.6°C | 32.3% | 169.5hPa | 2.6V | 00:00:00 | 02:30:10 | 00:00:00 | |
| DL1XH1-15 | 2026-09-06 00:52:59 | 52.04831 | 11.60259 | 125° | 170km/h | 13278m | -12.8m/s | -63.5°C | 25.7% | 167.6hPa | 2.6V | 02:54:36 | 02:30:04 | 00:00:00 | |
| AA1-15 | 2026-09-06 00:52:58 | 52.04731 | 11.60494 | 123° | 177km/h | 13230m | -12.1m/s | -64.6°C | 25.7% | 168.9hPa | 2.5V | 02:55:04 | 02:30:08 | 00:00:00 | |
| HSKMA3-T | 2026-09-06 00:52:56 | 52.04780 | 11.60374 | 124° | 173km/h | 13254m | -12.3m/s | -64.3°C | 24.4% | 168.2hPa | 2.5V | 02:55:04 | 02:30:06 | 00:00:00 | |
| BIOWL1-15 | 2026-09-06 00:52:54 | 52.04831 | 11.60259 | 126° | 170km/h | 13278m | -12.8m/s | -63.5°C | 23% | 167.6hPa | 2.6V | 02:55:04 | 02:30:04 | 00:00:00 | |
| DL1XH-west | 2026-09-06 00:52:50 | 52.04932 | 11.60038 | 128° | 164km/h | 13328m | -12.1m/s | -62.8°C | 21.2% | 166.2hPa | 2.5V | 02:55:04 | 02:30:00 | 00:00:00 | |
| EDDB2-12 | 2026-09-06 00:52:50 | 52.04958 | 11.59985 | 128° | 162km/h | 13340m | -13.3m/s | -62.4°C | 16.2% | 165.9hPa | 2.6V | 00:00:00 | 00:00:00 | 00:00:00 | |
| DM0DOS-11 | 2026-09-06 00:52:49 | 52.05010 | 11.59881 | 129° | 162km/h | 13366m | -12.7m/s | -61.9°C | 20.6% | 165.3hPa | 2.6V | 02:54:43 | 02:29:57 | 00:00:00 | |
| AA1-15 | 2026-09-06 00:52:47 | 52.05010 | 11.59881 | 129° | 162km/h | 13366m | -12.7m/s | -61.9°C | 20% | 165.3hPa | 2.6V | 02:55:04 | 02:29:57 | 00:00:00 | |
| SMARD9-10 | 2026-09-06 00:52:47 | 52.05010 | 11.59880 | 130° | 162km/h | 13366m | -12.7m/s | -61.9°C | 14.9% | 165.3hPa | 2.5V | 00:00:00 | 00:00:00 | 00:00:00 | |
| DL1XH-15 | 2026-09-06 00:52:46 | 52.05139 | 11.59627 | 129° | 159km/h | 13427m | -12.4m/s | -62°C | 20% | 163.7hPa | 2.5V | 02:54:48 | 02:29:52 | 00:00:00 | |
| HSKMA3-T | 2026-09-06 00:52:45 | 52.05061 | 11.59778 | 129° | 161km/h | 13390m | -11.4m/s | -61.8°C | 19.6% | 164.5hPa | 2.6V | 02:55:04 | 02:29:55 | 00:00:00 | |
| DB0ND-19 | 2026-09-06 00:52:45 | 52.05087 | 11.59728 | 129° | 159km/h | 13402m | -12.4m/s | -61.9°C | 14.6% | 164.2hPa | 2.5V | 00:00:00 | 00:00:00 | 00:00:00 | |
| BIOWL1-15 | 2026-09-06 00:52:43 | 52.05164 | 11.59577 | 129° | 159km/h | 13440m | -12.8m/s | -62.1°C | 18.6% | 163.2hPa | 2.5V | 02:55:04 | 02:29:51 | 00:00:00 | |
| DC4HF-4 | 2026-09-06 00:52:43 | 52.05139 | 11.59627 | 129° | 157km/h | 13427m | -12.4m/s | -62.0°C | 14.3% | 163.7hPa | 2.5V | 00:00:00 | 00:00:00 | 00:00:00 | |
| DM0DOS-11 | 2026-09-06 00:52:42 | 52.05264 | 11.59376 | 128° | 155km/h | 13491m | -12.6m/s | -62.3°C | 19.4% | 161.9hPa | 2.5V | 02:54:53 | 02:29:47 | 00:00:00 | |
| DL1XH-west | 2026-09-06 00:52:39 | 52.05215 | 11.59476 | 129° | 157km/h | 13465m | -13m/s | -62.2°C | 18.1% | 162.6hPa | 2.6V | 02:55:04 | 02:29:49 | 00:00:00 | |
| DL1LOL-11 | 2026-09-06 00:52:39 | 52.05215 | 11.59476 | 130° | 157km/h | 13465m | -13.0m/s | -62.2°C | 14.0% | 162.6hPa | 2.6V | 00:00:00 | 00:00:00 | 00:00:00 | |
| DF7ER-10 | 2026-09-06 00:52:38 | 52.05239 | 11.59426 | 130° | 157km/h | 13478m | -12.7m/s | -62.3°C | 13.9% | 162.3hPa | 2.6V | 02:55:00 | 00:00:00 | 00:00:00 | |
| DL1XH-15 | 2026-09-06 00:52:37 | 52.05385 | 11.59138 | 130° | 146km/h | 13554m | -12.5m/s | -62.7°C | 17.8% | 160.2hPa | 2.6V | 02:54:58 | 02:29:42 | 00:00:00 | |
| AA1-15 | 2026-09-06 00:52:36 | 52.05289 | 11.59327 | 129° | 153km/h | 13504m | -12.7m/s | -62.4°C | 17.2% | 161.6hPa | 2.5V | 02:55:04 | 02:29:46 | 00:00:00 | |
| HSKMA3-T | 2026-09-06 00:52:34 | 52.05337 | 11.59231 | 130° | 150km/h | 13529m | -12.8m/s | -62.6°C | 16.5% | 160.9hPa | 2.5V | 02:55:04 | 02:29:44 | 00:00:00 | |
| BIOWL1-15 | 2026-09-06 00:52:30 | 52.05432 | 11.59049 | 131° | 141km/h | 13579m | -11.8m/s | -62.8°C | 14.4% | 159.6hPa | 2.5V | 02:55:04 | 02:29:40 | 00:00:00 | |
| DM0DOS-11 | 2026-09-06 00:52:29 | 52.05503 | 11.58921 | 132° | 137km/h | 13617m | -11.3m/s | -62.3°C | 15% | 158.5hPa | 2.5V | 02:55:03 | 02:29:37 | 00:00:00 | |
| DL1XH1-15 | 2026-09-06 00:52:29 | 52.05573 | 11.58798 | 132° | 137km/h | 13651m | -11.4m/s | -62°C | 13.5% | 157.7hPa | 2.6V | 02:55:06 | 02:29:34 | 00:00:00 | |
| DL1XH-west | 2026-09-06 00:52:28 | 52.05479 | 11.58963 | 132° | 139km/h | 13605m | -12.7m/s | -62.5°C | 13.4% | 158.9hPa | 2.5V | 02:55:04 | 02:29:38 | 00:00:00 | |
| DF7ER-10 | 2026-09-06 00:52:27 | 52.05479 | 11.58963 | 133° | 139km/h | 13605m | -12.7m/s | -62.5°C | 10.4% | 158.9hPa | 2.5V | 02:55:00 | 00:00:00 | 00:00:00 | |
| DL1XH-15 | 2026-09-06 00:52:26 | 52.05619 | 11.58715 | 132° | 135km/h | 13674m | -12.4m/s | -61.8°C | 12.6% | 157.1hPa | 2.5V | 02:55:08 | 02:29:32 | 00:00:00 | |
| AA1-15 | 2026-09-06 00:52:26 | 52.05549 | 11.58839 | 133° | 137km/h | 13640m | -11.1m/s | -62.1°C | 11.7% | 158hPa | 2.6V | 02:55:55 | 02:29:35 | 00:00:00 | |
| HSKMA3-T | 2026-09-06 00:52:24 | 52.05573 | 11.58798 | 133° | 137km/h | 13651m | -11.4m/s | -62°C | 11.3% | 157.7hPa | 2.6V | 02:55:55 | 02:29:34 | 00:00:00 | |
| BIOWL1-15 | 2026-09-06 00:52:19 | 52.05687 | 11.58591 | 132° | 135km/h | 13709m | -11.1m/s | -61.5°C | 9.2% | 156.2hPa | 2.6V | 02:55:55 | 02:29:29 | 00:00:00 | |
| DL1XH-west | 2026-09-06 00:52:18 | 52.05710 | 11.58550 | 132° | 135km/h | 13721m | -12.3m/s | -61.4°C | 8.9% | 155.9hPa | 2.5V | 02:55:55 | 02:29:28 | 00:00:00 | |
| DM0DOS-11 | 2026-09-06 00:52:18 | 52.05733 | 11.58509 | 131° | 133km/h | 13733m | -12.5m/s | -61.4°C | 10.8% | 155.7hPa | 2.5V | 02:55:13 | 02:29:27 | 00:00:00 | |
| AA1-15 | 2026-09-06 00:52:14 | 52.05799 | 11.58383 | 130° | 135km/h | 13768m | -12.2m/s | -61.3°C | 7.5% | 154.7hPa | 2.6V | 02:55:55 | 02:29:24 | 00:00:00 | |
| HSKMA3-T | 2026-09-06 00:52:13 | 52.05821 | 11.58341 | 131° | 135km/h | 13782m | -13.3m/s | -61.3°C | 7.2% | 154.5hPa | 2.5V | 02:55:55 | 02:29:23 | 00:00:00 | |
| BIOWL1-15 | 2026-09-06 00:52:09 | 52.05911 | 11.58173 | 131° | 135km/h | 13835m | -13.8m/s | -61.7°C | 6.4% | 153.2hPa | 2.6V | 02:55:55 | 02:29:19 | 00:00:00 | |
| DL1XH-west | 2026-09-06 00:52:07 | 52.05956 | 11.58089 | 132° | 137km/h | 13861m | -12.2m/s | -61.9°C | 6.1% | 152.5hPa | 2.5V | 02:55:55 | 02:29:17 | 00:00:00 | |
| DC4HF-4 | 2026-09-06 00:52:07 | 52.05980 | 11.58048 | 131° | 137km/h | 13873m | -12.8m/s | -62.0°C | 4.9% | 152.2hPa | 2.6V | 00:00:00 | 00:00:00 | 00:00:00 | |
| DL1XH-15 | 2026-09-06 00:52:06 | 52.06073 | 11.57881 | 132° | 137km/h | 13921m | -12.1m/s | -62.3°C | 8.9% | 151hPa | 2.6V | 02:55:28 | 02:29:12 | 00:00:00 | |
| DF8AY | 2026-09-06 00:52:04 | 52.06026 | 11.57964 | 132° | 137km/h | 13898m | -12.5m/s | -62.1°C | 5.5% | 151.6hPa | 2.5V | 02:55:55 | 02:29:14 | 00:00:00 | |
| AA1-15 | 2026-09-06 00:52:04 | 52.06050 | 11.57922 | 133° | 139km/h | 13910m | -11.8m/s | -62.2°C | 5.3% | 151.3hPa | 2.6V | 02:55:55 | 02:29:13 | 00:00:00 | |
| HSKMA3-T | 2026-09-06 00:52:02 | 52.06073 | 11.57881 | 133° | 137km/h | 13921m | -12.1m/s | -62.3°C | 5.1% | 151hPa | 2.6V | 02:55:55 | 02:29:12 | 00:00:00 | |
| BIOWL1-15 | 2026-09-06 00:52:00 | 52.06169 | 11.57718 | 134° | 137km/h | 13971m | -11.9m/s | -62.6°C | 4.3% | 149.8hPa | 2.5V | 02:55:55 | 02:29:08 | 00:00:00 | |
| DL1XH-west | 2026-09-06 00:51:56 | 52.06216 | 11.57637 | 133° | 135km/h | 13996m | -13.5m/s | -62.6°C | 3.9% | 149.2hPa | 2.6V | 02:55:55 | 02:29:06 | 00:00:00 | |
| DL4XJ-10 | 2026-09-06 00:51:56 | 52.06216 | 11.57637 | 134° | 124km/h | 13996m | -13.4m/s | -63.0°C | 0% | 0hPa | 2.5V | 00:00:00 | 00:00:00 | 00:00:00 | |
| DL1XH-15 | 2026-09-06 00:51:55 | 52.06309 | 11.57476 | 132° | 131km/h | 14047m | -13.1m/s | -62.3°C | 7.7% | 148.1hPa | 2.5V | 02:55:38 | 02:29:02 | 00:00:00 | |
| DF8AY | 2026-09-06 00:51:53 | 52.06286 | 11.57516 | 132° | 133km/h | 14034m | -13m/s | -62.4°C | 3.4% | 148.3hPa | 2.5V | 02:55:55 | 02:29:03 | 00:00:00 | |
| HSKMA3-T | 2026-09-06 00:51:51 | 52.06331 | 11.57436 | 132° | 131km/h | 14060m | -12.2m/s | -62.3°C | 3.1% | 147.7hPa | 2.5V | 02:55:55 | 02:29:01 | 00:00:00 | |
| BIOWL1-15 | 2026-09-06 00:51:48 | 52.06395 | 11.57317 | 131° | 126km/h | 14096m | -12m/s | -61.4°C | 2.6% | 146.8hPa | 2.6V | 02:55:55 | 02:28:58 | 00:00:00 | |
| EDDB2-12 | 2026-09-06 00:51:48 | 52.06415 | 11.57278 | 130° | 122km/h | 14109m | -13.9m/s | -61.2°C | 2.8% | 146.5hPa | 2.6V | 00:00:00 | 00:00:00 | 00:00:00 | |
| DO2SHX-10 | 2026-09-06 00:51:47 | 52.06415 | 11.57278 | 131° | 122km/h | 14109m | -13.8m/s | -61.2°C | 6.7% | 146.5hPa | 2.6V | 02:55:00 | 02:28:57 | 00:00:00 | |
| DL1XH-15 | 2026-09-06 00:51:46 | 52.06512 | 11.57087 | 128° | 119km/h | 14175m | -14m/s | -60.9°C | 6.3% | 144.9hPa | 2.6V | 02:55:48 | 02:28:52 | 00:00:00 | |
| DL1XH1-15 | 2026-09-06 00:51:46 | 52.06475 | 11.57163 | 129° | 120km/h | 14149m | -12.2m/s | -61.1°C | 6.4% | 145.6hPa | 2.5V | 02:55:46 | 02:28:54 | 00:00:00 | |
| DL1XH-west | 2026-09-06 00:51:46 | 52.06455 | 11.57201 | 130° | 120km/h | 14136m | -13.8m/s | -61.1°C | 2.3% | 145.9hPa | 2.5V | 02:55:55 | 02:28:55 | 00:00:00 | |
| AA1-15 | 2026-09-06 00:51:43 | 52.06494 | 11.57125 | 129° | 119km/h | 14162m | -13.1m/s | -61°C | 2.2% | 145.2hPa | 2.6V | 02:55:55 | 02:28:53 | 00:00:00 | |
| DF8AY | 2026-09-06 00:51:41 | 52.06531 | 11.57049 | 129° | 117km/h | 14188m | -12.6m/s | -60.5°C | 1.9% | 144.6hPa | 2.5V | 02:55:55 | 02:28:51 | 00:00:00 | |
| HSKMA3-T | 2026-09-06 00:51:40 | 52.06549 | 11.57012 | 129° | 117km/h | 14201m | -13.5m/s | -60.1°C | 1.8% | 144.4hPa | 2.5V | 02:55:55 | 02:28:50 | 00:00:00 | |
| BIOWL1-15 | 2026-09-06 00:51:38 | 52.06585 | 11.56937 | 128° | 115km/h | 14229m | -15m/s | -59.5°C | 1.7% | 143.7hPa | 2.6V | 02:55:55 | 02:28:48 | 00:00:00 | |
| TFSTFS | 2026-09-06 00:51:37 | 52.06585 | 11.56937 | 129° | 115km/h | 14229m | -15.0m/s | -59.5°C | 2.2% | 143.7hPa | 2.5V | 02:55:00 | 00:00:00 | 00:00:00 | |
| DL1XH-15 | 2026-09-06 00:51:36 | 52.06691 | 11.56704 | 125° | 120km/h | 14308m | -12.8m/s | -59.4°C | 5.5% | 141.9hPa | 2.5V | 02:55:58 | 02:28:42 | 00:00:00 | |
| DL1XH-west | 2026-09-06 00:51:35 | 52.06638 | 11.56823 | 126° | 117km/h | 14269m | -13.6m/s | -59.4°C | 1.5% | 142.8hPa | 2.5V | 02:55:55 | 02:28:45 | 00:00:00 | |
| AA1-15 | 2026-09-06 00:51:33 | 52.06674 | 11.56744 | 126° | 120km/h | 14295m | -13m/s | -59.3°C | 1.5% | 142.2hPa | 2.6V | 02:56:46 | 02:28:43 | 00:00:00 | |
| DF8AY | 2026-09-06 00:51:30 | 52.06727 | 11.56624 | 126° | 120km/h | 14336m | -13.9m/s | -59.5°C | 1.5% | 141.3hPa | 2.5V | 02:56:46 | 02:28:40 | 00:00:00 | |
| HSKMA3-T | 2026-09-06 00:51:29 | 52.06745 | 11.56584 | 126° | 120km/h | 14350m | -13.8m/s | -59.5°C | 1.5% | 141hPa | 2.6V | 02:56:46 | 02:28:39 | 00:00:00 | |
| BIOWL1-15 | 2026-09-06 00:51:26 | 52.06873 | 11.56308 | 126° | 120km/h | 14441m | -13.5m/s | -59.8°C | 1.7% | 138.9hPa | 2.6V | 02:56:46 | 02:28:32 | 00:00:00 | |
| DL1XH1-15 | 2026-09-06 00:51:26 | 52.06837 | 11.56387 | 127° | 120km/h | 14415m | -12.6m/s | -59.8°C | 5.8% | 139.5hPa | 2.6V | 02:56:06 | 02:28:34 | 00:00:00 | |
| DB0DAN | 2026-09-06 00:51:25 | 52.06818 | 11.56426 | 127° | 115km/h | 14402m | -13.1m/s | -59.8°C | 2.1% | 139.77hPa | 2.5V | 00:00:00 | 00:00:00 | 00:00:00 | |
| DL1XH-west | 2026-09-06 00:51:24 | 52.06837 | 11.56387 | 127° | 120km/h | 14415m | -12.6m/s | -59.8°C | 1.6% | 139.5hPa | 2.6V | 02:56:46 | 02:28:34 | 00:00:00 | |
| AA1-15 | 2026-09-06 00:51:23 | 52.06855 | 11.56347 | 127° | 120km/h | 14428m | -13m/s | -59.8°C | 1.5% | 139.2hPa | 2.6V | 02:56:46 | 02:28:33 | 00:00:00 | |
| DL1XH-15 | 2026-09-06 00:51:23 | 52.06873 | 11.56308 | 126° | 120km/h | 14441m | -13.5m/s | -59.8°C | 5.9% | 138.9hPa | 2.6V | 02:56:08 | 02:28:32 | 00:00:00 | |
| DF8AY | 2026-09-06 00:51:20 | 52.06961 | 11.56108 | 125° | 119km/h | 14506m | -13m/s | -59.3°C | 1.5% | 137.5hPa | 2.6V | 02:56:46 | 02:28:27 | 00:00:00 | |
| DO2SHX-10 | 2026-09-06 00:51:20 | 52.06908 | 11.56228 | 126° | 119km/h | 14468m | -13.2m/s | -59.6°C | 5.9% | 138.3hPa | 2.5V | 02:56:00 | 02:28:30 | 00:00:00 | |
| DL1XH1-15 | 2026-09-06 00:51:19 | 52.07014 | 11.55988 | 126° | 120km/h | 14544m | -13.3m/s | -59°C | 5.6% | 136.7hPa | 2.5V | 02:56:16 | 02:28:24 | 00:00:00 | |
| HSKMA3-T | 2026-09-06 00:51:18 | 52.06943 | 11.56148 | 125° | 120km/h | 14494m | -12.6m/s | -59.4°C | 1.5% | 137.8hPa | 2.5V | 02:56:46 | 02:28:28 | 00:00:00 | |
| DL4BBY-15 | 2026-09-06 00:51:18 | 52.06943 | 11.56148 | 126° | 110km/h | 14494m | -12.5m/s | -59.7°C | 0% | 0hPa | 2.5V | 00:00:00 | 00:00:00 | 00:00:00 | |
| DO2SHX-10 | 2026-09-06 00:51:17 | 52.06960 | 11.56108 | 126° | 120km/h | 14506m | -12.9m/s | -59.2°C | 5.7% | 137.5hPa | 2.5V | 00:00:00 | 02:28:27 | 00:00:00 | |
| DL1XH-15 | 2026-09-06 00:51:16 | 52.07050 | 11.55907 | 125° | 122km/h | 14571m | -14.1m/s | -58.5°C | 5.3% | 136.1hPa | 2.5V | 02:56:18 | 02:28:22 | 00:00:00 | |
| BIOWL1-15 | 2026-09-06 00:51:14 | 52.07050 | 11.55907 | 125° | 122km/h | 14571m | -14.1m/s | -58.5°C | 1.3% | 136.1hPa | 2.5V | 02:56:46 | 02:28:22 | 00:00:00 | |
| DL1XH-west | 2026-09-06 00:51:13 | 52.07032 | 11.55947 | 126° | 122km/h | 14557m | -13m/s | -58.8°C | 1.3% | 136.3hPa | 2.5V | 02:56:46 | 02:28:23 | 00:00:00 | |
| AA1-15 | 2026-09-06 00:51:12 | 52.07068 | 11.55866 | 125° | 122km/h | 14585m | -14.3m/s | -58.4°C | 1.3% | 135.8hPa | 2.6V | 02:56:46 | 02:28:21 | 00:00:00 | |
| DB0DAN | 2026-09-06 00:51:10 | 52.07086 | 11.55825 | 125° | 117km/h | 14599m | -12.9m/s | -58.2°C | 1.8% | 135.46hPa | 2.6V | 00:00:00 | 00:00:00 | 00:00:00 | |
| DF8AY | 2026-09-06 00:51:10 | 52.07086 | 11.55825 | 125° | 122km/h | 14599m | -12.9m/s | -58.2°C | 1.2% | 135.5hPa | 2.6V | 02:56:46 | 02:28:20 | 00:00:00 | |
| HSKMA3-T | 2026-09-06 00:51:07 | 52.07139 | 11.55702 | 125° | 122km/h | 14639m | -14.3m/s | -57.5°C | 1% | 134.7hPa | 2.5V | 02:56:46 | 02:28:17 | 00:00:00 | |
| DL1XH1-15 | 2026-09-06 00:51:06 | 52.07193 | 11.55581 | 127° | 120km/h | 14679m | -13.7m/s | -57.5°C | 4.8% | 133.8hPa | 2.5V | 02:56:26 | 02:28:14 | 00:00:00 | |
| BIOWL1-15 | 2026-09-06 00:51:03 | 52.07212 | 11.55542 | 129° | 120km/h | 14692m | -14m/s | -57.4°C | 1.1% | 133.5hPa | 2.5V | 02:56:46 | 02:28:13 | 00:00:00 | |
| AA1-15 | 2026-09-06 00:51:01 | 52.07269 | 11.55430 | 130° | 117km/h | 14731m | -13.6m/s | -57.3°C | 1% | 132.7hPa | 2.5V | 02:56:46 | 02:28:10 | 00:00:00 | |
| DF8AY-15 | 2026-09-06 00:51:00 | 52.07269 | 11.55430 | 130° | 108km/h | 14731m | -13.5m/s | -57.2°C | 4.8% | 132.6hPa | 2.5V | 00:00:00 | 02:28:10 | 00:00:00 | |
| DL1XH1-15 | 2026-09-06 00:50:59 | 52.07377 | 11.55212 | 128° | 111km/h | 14812m | -13.7m/s | -57°C | 4.6% | 131hPa | 2.5V | 02:56:36 | 02:28:04 | 00:00:00 | |
| HSKMA3-T | 2026-09-06 00:50:57 | 52.07324 | 11.55320 | 129° | 113km/h | 14770m | -13.2m/s | -57.1°C | 1% | 131.9hPa | 2.6V | 02:56:46 | 02:28:07 | 00:00:00 | |
| DM0DOS-11 | 2026-09-06 00:50:56 | 52.07412 | 11.55140 | 127° | 111km/h | 14839m | -13.1m/s | -56.9°C | 4.6% | 130.4hPa | 2.6V | 02:56:38 | 02:28:02 | 00:00:00 | |
| BIOWL1-15 | 2026-09-06 00:50:53 | 52.07395 | 11.55176 | 129° | 113km/h | 14826m | -14.3m/s | -57°C | 0.8% | 130.7hPa | 2.5V | 02:56:46 | 02:28:03 | 00:00:00 | |
| DL1XH-west | 2026-09-06 00:50:52 | 52.07412 | 11.55140 | 128° | 111km/h | 14839m | -13.1m/s | -56.9°C | 0.8% | 130.4hPa | 2.6V | 02:56:46 | 02:28:02 | 00:00:00 | |
| AA1-15 | 2026-09-06 00:50:50 | 52.07463 | 11.55036 | 128° | 104km/h | 14879m | -12.6m/s | -56.8°C | 0.8% | 129.6hPa | 2.5V | 02:56:46 | 02:27:59 | 00:00:00 | |
| DO2SHX-10 | 2026-09-06 00:50:50 | 52.07446 | 11.55069 | 129° | 104km/h | 14865m | -12.9m/s | -56.8°C | 4.5% | 129.8hPa | 2.6V | 00:00:00 | 02:28:00 | 00:00:00 | |
| DL1XH1-15 | 2026-09-06 00:50:49 | 52.07540 | 11.54869 | 126° | 100km/h | 14950m | -15m/s | -56.8°C | 4.4% | 128.2hPa | 2.6V | 02:56:46 | 02:27:54 | 00:00:00 | |
| 13BRC | 2026-09-06 00:50:48 | 52.07479 | 11.55002 | 129° | 102km/h | 14892m | -13.7m/s | -56.8°C | 1.5% | 129.4hPa | 2.5V | 02:56:00 | 00:00:00 | 00:00:00 | |
| DO2SHX-10 | 2026-09-06 00:50:47 | 52.07494 | 11.54969 | 127° | 100km/h | 14905m | -13.9m/s | -56.7°C | 4.4% | 129.0hPa | 2.5V | 00:00:00 | 02:27:57 | 00:00:00 | |
| DM0DOS-11 | 2026-09-06 00:50:46 | 52.07570 | 11.54802 | 126° | 102km/h | 14978m | -13.6m/s | -56.8°C | 4.4% | 127.7hPa | 2.5V | 02:56:48 | 02:27:52 | 00:00:00 | |
| HSKMA3-T | 2026-09-06 00:50:46 | 52.07510 | 11.54935 | 127° | 100km/h | 14920m | -15.2m/s | -56.8°C | 0.7% | 128.8hPa | 2.5V | 02:56:46 | 02:27:56 | 00:00:00 | |
| EDDB2-12 | 2026-09-06 00:50:46 | 52.07525 | 11.54902 | 126° | 100km/h | 14935m | -15.1m/s | -56.8°C | 1.5% | 128.6hPa | 2.5V | 00:00:00 | 00:00:00 | 00:00:00 | |
| SONCRA | 2026-09-06 00:50:45 | 52.07525 | 11.54902 | 126° | 100km/h | 14935m | -15.1m/s | -56.8°C | 1.5% | 128.6hPa | 2.5V | 00:00:00 | 00:00:00 | 00:00:00 | |
| DL1XH-west | 2026-09-06 00:50:42 | 52.07570 | 11.54802 | 126° | 102km/h | 14978m | -13.6m/s | -56.8°C | 0.6% | 127.7hPa | 2.5V | 02:57:37 | 02:27:52 | 00:00:00 | |
| BIOWL1-15 | 2026-09-06 00:50:42 | 52.07585 | 11.54768 | 126° | 102km/h | 14991m | -14.2m/s | -56.8°C | 0.6% | 127.4hPa | 2.5V | 02:57:37 | 02:27:51 | 00:00:00 | |
| DF7ER-10 | 2026-09-06 00:50:41 | 52.07570 | 11.54802 | 127° | 102km/h | 14978m | -13.6m/s | -56.8°C | 1.5% | 127.7hPa | 2.5V | 02:57:00 | 00:00:00 | 00:00:00 | |
| DB0DAN | 2026-09-06 00:50:40 | 52.07601 | 11.54734 | 127° | 99km/h | 15005m | -14.5m/s | -56.7°C | 1.5% | 127.11hPa | 2.5V | 00:00:00 | 00:00:00 | 00:00:00 | |
| AA1-15 | 2026-09-06 00:50:40 | 52.07617 | 11.54699 | 127° | 106km/h | 15020m | -14.9m/s | -56.8°C | 0.5% | 126.8hPa | 2.6V | 02:57:37 | 02:27:49 | 00:00:00 | |
| DF8AY-15 | 2026-09-06 00:50:40 | 52.07601 | 11.54734 | 127° | 111km/h | 15005m | -14.5m/s | -56.7°C | 4.4% | 127.1hPa | 2.5V | 02:56:00 | 02:27:50 | 00:00:00 | |
| DL1XH1-15 | 2026-09-06 00:50:39 | 52.07697 | 11.54516 | 125° | 115km/h | 15090m | -12.9m/s | -56.5°C | 4.3% | 125.4hPa | 2.6V | 02:56:56 | 02:27:44 | 00:00:00 | |
| SP3BTT-10 | 2026-09-06 00:50:39 | 52.07617 | 11.54699 | 127° | 80km/h | 15020m | -14.9m/s | -56.7°C | 4.3% | 126.8hPa | 2.6V | 02:56:00 | 00:00:00 | 00:00:00 | |
| BUE01 | 2026-09-06 00:50:38 | 52.07664 | 11.54592 | 125° | 110km/h | 15064m | -14.1m/s | -56.6°C | 1.4% | 125.9hPa | 2.6V | 00:00:00 | 00:00:00 | 00:00:00 | |
| DM0DOS-11 | 2026-09-06 00:50:36 | 52.07731 | 11.54439 | 126° | 117km/h | 15116m | -12.5m/s | -56.5°C | 4.3% | 124.9hPa | 2.6V | 02:56:58 | 02:27:42 | 00:00:00 | |
| DF8AY | 2026-09-06 00:50:35 | 52.07681 | 11.54554 | 125° | 113km/h | 15078m | -12.3m/s | -56.6°C | 0.5% | 125.6hPa | 2.5V | 02:58:28 | 02:27:45 | 00:00:00 | |
| DL1XH-west | 2026-09-06 00:50:31 | 52.07749 | 11.54400 | 127° | 117km/h | 15128m | -12.6m/s | -56.5°C | 0.5% | 124.6hPa | 2.5V | 02:57:37 | 02:27:41 | 00:00:00 | |
| AA1-15 | 2026-09-06 00:50:29 | 52.07784 | 11.54325 | 128° | 115km/h | 15154m | -13.1m/s | -56.6°C | 0.5% | 124.1hPa | 2.5V | 02:57:37 | 02:27:39 | 00:00:00 | |
| DL1XH1-15 | 2026-09-06 00:50:29 | 52.07876 | 11.54145 | 131° | 110km/h | 15225m | -14.7m/s | -56.6°C | 4.4% | 122.8hPa | 2.5V | 02:57:06 | 02:27:34 | 00:00:00 | |
| HSKMA3-T | 2026-09-06 00:50:24 | 52.07876 | 11.54145 | 131° | 111km/h | 15225m | -14.7m/s | -56.6°C | 0.5% | 122.8hPa | 2.5V | 02:57:37 | 02:27:34 | 00:00:00 | |
| DF8AY | 2026-09-06 00:50:23 | 52.07894 | 11.54111 | 132° | 108km/h | 15240m | -13.8m/s | -56.5°C | 0.5% | 122.5hPa | 2.5V | 02:58:28 | 02:27:33 | 00:00:00 | |
| DL1XH-west | 2026-09-06 00:50:20 | 52.07948 | 11.54016 | 134° | 102km/h | 15282m | -14.9m/s | -56.6°C | 0.5% | 121.7hPa | 2.6V | 02:57:37 | 02:27:30 | 00:00:00 | |
| DB0UT-7 | 2026-09-06 00:50:20 | 52.07948 | 11.54016 | 134° | 89km/h | 15282m | -14.8m/s | -56.6°C | 4.4% | 121.7hPa | 2.6V | 00:00:00 | 00:00:00 | 00:00:00 | |
| DL1XH1-15 | 2026-09-06 00:50:19 | 52.08047 | 11.53836 | 128° | 95km/h | 15372m | -13.8m/s | -56.9°C | 4.6% | 120hPa | 2.6V | 02:57:16 | 02:27:24 | 00:00:00 | |
| AA1-15 | 2026-09-06 00:50:19 | 52.08000 | 11.53926 | 132° | 97km/h | 15327m | -15.8m/s | -56.8°C | 0.5% | 120.9hPa | 2.5V | 02:57:37 | 02:27:27 | 00:00:00 | |
| HSKMA3-T | 2026-09-06 00:50:13 | 52.08062 | 11.53806 | 128° | 95km/h | 15386m | -14.8m/s | -56.9°C | 0.6% | 119.7hPa | 2.5V | 02:57:37 | 02:27:23 | 00:00:00 | |
| DF8AY | 2026-09-06 00:50:11 | 52.08090 | 11.53743 | 126° | 95km/h | 15417m | -14.8m/s | -56.8°C | 0.6% | 119.1hPa | 2.5V | 02:58:28 | 02:27:21 | 00:00:00 | |
| DB0DAN | 2026-09-06 00:50:10 | 52.08105 | 11.53712 | 126° | 91km/h | 15432m | -14.9m/s | -56.7°C | 1.3% | 118.91hPa | 2.5V | 00:00:00 | 00:00:00 | 00:00:00 | |
| DL1XH-west | 2026-09-06 00:50:10 | 52.08105 | 11.53712 | 126° | 97km/h | 15432m | -14.9m/s | -56.7°C | 0.5% | 118.9hPa | 2.5V | 02:57:37 | 02:27:20 | 00:00:00 | |
| DL1XH1-15 | 2026-09-06 00:50:09 | 52.08192 | 11.53527 | 130° | 93km/h | 15526m | -16.4m/s | -56°C | 4.2% | 117.2hPa | 2.5V | 02:57:26 | 02:27:14 | 00:00:00 | |
| AA1-15 | 2026-09-06 00:50:07 | 52.08162 | 11.53587 | 128° | 95km/h | 15493m | -16.1m/s | -56.3°C | 0.4% | 117.8hPa | 2.5V | 02:57:37 | 02:27:16 | 00:00:00 | |
| BUE01 | 2026-09-06 00:50:07 | 52.08162 | 11.53587 | 128° | 93km/h | 15493m | -16.1m/s | -56.3°C | 1.3% | 117.8hPa | 2.6V | 00:00:00 | 00:00:00 | 00:00:00 | |
| DM0DOS-11 | 2026-09-06 00:50:06 | 52.08223 | 11.53471 | 132° | 91km/h | 15557m | -16.1m/s | -55.6°C | 4.2% | 116.6hPa | 2.6V | 02:57:28 | 02:27:12 | 00:00:00 | |
| HSKMA3-T | 2026-09-06 00:50:02 | 52.08222 | 11.53471 | 133° | 91km/h | 15558m | -16.1m/s | -55.6°C | 0.4% | 116.6hPa | 2.6V | 02:57:37 | 02:27:12 | 00:00:00 | |
| DL1XH-west | 2026-09-06 00:50:00 | 52.08254 | 11.53419 | 135° | 86km/h | 15591m | -17.1m/s | -54.8°C | 0.1% | 116hPa | 2.5V | 02:57:37 | 02:27:10 | 00:00:00 | |
| BIOWL1-15 | 2026-09-06 00:49:58 | 52.08359 | 11.53265 | 137° | 75km/h | 15704m | -15.9m/s | -54.5°C | 0.2% | 113.9hPa | 2.5V | 02:57:37 | 02:27:03 | 00:00:00 | |
| AA1-15 | 2026-09-06 00:49:56 | 52.08316 | 11.53327 | 140° | 78km/h | 15657m | -15.6m/s | -54.7°C | 0.1% | 114.8hPa | 2.6V | 02:57:37 | 02:27:06 | 00:00:00 | |
| HSKMA3-T | 2026-09-06 00:49:51 | 52.08385 | 11.53223 | 135° | 71km/h | 15737m | -17.2m/s | -54.7°C | 0.2% | 113.3hPa | 2.6V | 02:58:28 | 02:27:01 | 00:00:00 | |
| DF8AY | 2026-09-06 00:49:49 | 52.08410 | 11.53182 | 133° | 69km/h | 15769m | -15m/s | -54.8°C | 0.2% | 112.8hPa | 2.6V | 02:58:28 | 02:26:59 | 00:00:00 | |
| AA1-15 | 2026-09-06 00:49:46 | 52.08454 | 11.53094 | 125° | 69km/h | 15833m | -15.4m/s | -54.9°C | 0.2% | 111.6hPa | 2.6V | 02:58:28 | 02:26:55 | 00:00:00 | |
| BIOWL1-15 | 2026-09-06 00:49:42 | 52.08536 | 11.52874 | 118° | 69km/h | 15980m | -16.5m/s | -54.3°C | 0.1% | 109.1hPa | 2.5V | 02:59:19 | 02:26:46 | 00:00:00 | |
| HSKMA3-T | 2026-09-06 00:49:41 | 52.08493 | 11.52999 | 122° | 69km/h | 15898m | -17m/s | -55°C | 0.2% | 110.5hPa | 2.5V | 02:58:28 | 02:26:51 | 00:00:00 | |
| DB0DAN | 2026-09-06 00:49:40 | 52.08502 | 11.52975 | 121° | 66km/h | 15914m | -16.7m/s | -54.9°C | 1.1% | 110.2hPa | 2.6V | 00:00:00 | 00:00:00 | 00:00:00 | |
| DF8AY-15 | 2026-09-06 00:49:40 | 52.08502 | 11.52975 | 121° | 68km/h | 15915m | -16.7m/s | -54.9°C | 3.9% | 110.2hPa | 2.6V | 02:57:00 | 02:26:50 | 00:00:00 | |
| DL1XH1-15 | 2026-09-06 00:49:39 | 52.08553 | 11.52822 | 118° | 69km/h | 16013m | -16.1m/s | -54.2°C | 3.7% | 108.5hPa | 2.5V | 02:57:56 | 02:26:44 | 00:00:00 | |
| DF8AY | 2026-09-06 00:49:38 | 52.08519 | 11.52925 | 117° | 71km/h | 15948m | -16.2m/s | -54.6°C | 0.2% | 109.7hPa | 2.6V | 02:58:28 | 02:26:48 | 00:00:00 | |
| DO2SHX-10 | 2026-09-06 00:49:38 | 52.08519 | 11.52925 | 118° | 69km/h | 15948m | -16.2m/s | -54.6°C | 3.9% | 109.6hPa | 2.6V | 00:00:00 | 02:26:48 | 00:00:00 | |
| DF7ER-10 | 2026-09-06 00:49:37 | 52.08519 | 11.52925 | 118° | 71km/h | 15948m | -16.2m/s | -54.6°C | 1.1% | 109.7hPa | 2.6V | 02:58:00 | 00:00:00 | 00:00:00 | |
| DM0DOS-11 | 2026-09-06 00:49:36 | 52.08569 | 11.52771 | 117° | 71km/h | 16044m | -15.7m/s | -54.1°C | 3.7% | 107.9hPa | 2.6V | 02:57:58 | 02:26:42 | 00:00:00 | |
| AA1-15 | 2026-09-06 00:49:35 | 52.08553 | 11.52822 | 118° | 69km/h | 16013m | -16.2m/s | -54.2°C | 0% | 108.5hPa | 2.5V | 02:58:28 | 02:26:44 | 00:00:00 | |
| HSKMA3-T | 2026-09-06 00:49:31 | 52.08578 | 11.52745 | 118° | 71km/h | 16060m | -16.5m/s | -54.2°C | 0% | 107.8hPa | 2.6V | 02:58:28 | 02:26:41 | 00:00:00 | |
| DL1XH-west | 2026-09-06 00:49:28 | 52.08602 | 11.52671 | 118° | 66km/h | 16109m | -16.2m/s | -54.3°C | 0.1% | 107hPa | 2.5V | 02:58:28 | 02:26:38 | 00:00:00 | |
| DL1XH1-15 | 2026-09-06 00:49:27 | 52.08631 | 11.52575 | 114° | 64km/h | 16171m | -16.1m/s | -54.1°C | 3.6% | 105.8hPa | 2.5V | 02:58:06 | 02:26:34 | 00:00:00 | |
| DM0DOS-11 | 2026-09-06 00:49:26 | 52.08644 | 11.52527 | 112° | 64km/h | 16202m | -14.5m/s | -54°C | 3.6% | 105.4hPa | 2.6V | 02:58:08 | 02:26:32 | 00:00:00 | |
| DF8AY | 2026-09-06 00:49:26 | 52.08617 | 11.52623 | 116° | 64km/h | 16140m | -16.4m/s | -54.3°C | 0% | 106.4hPa | 2.6V | 02:58:28 | 02:26:36 | 00:00:00 | |
| AA1-15 | 2026-09-06 00:49:24 | 52.08637 | 11.52551 | 114° | 64km/h | 16187m | -15.7m/s | -54.1°C | 0% | 105.6hPa | 2.5V | 02:58:28 | 02:26:33 | 00:00:00 | |
| BIOWL1-15 | 2026-09-06 00:49:20 | 52.08656 | 11.52477 | 111° | 66km/h | 16230m | -13.5m/s | -53.8°C | 0% | 104.9hPa | 2.6V | 02:59:19 | 02:26:30 | 00:00:00 | |
| TFSTFS | 2026-09-06 00:49:20 | 52.08656 | 11.52477 | 112° | 66km/h | 16230m | -13.5m/s | -53.8°C | 0.9% | 104.9hPa | 2.5V | 02:58:00 | 00:00:00 | 00:00:00 | |
| DL1XH1-15 | 2026-09-06 00:49:19 | 52.08688 | 11.52316 | 109° | 69km/h | 16313m | -14.8m/s | -53.8°C | 3.6% | 103.5hPa | 2.5V | 02:58:16 | 02:26:24 | 00:00:00 | |
| DL1XH-west | 2026-09-06 00:49:18 | 52.08672 | 11.52398 | 108° | 68km/h | 16271m | -13.5m/s | -53.8°C | 0% | 104.2hPa | 2.5V | 02:58:28 | 02:26:27 | 00:00:00 | |
| DF8AY | 2026-09-06 00:49:15 | 52.08688 | 11.52316 | 110° | 69km/h | 16313m | -14.8m/s | -53.8°C | 0% | 103.5hPa | 2.5V | 02:58:28 | 02:26:24 | 00:00:00 | |
| AA1-15 | 2026-09-06 00:49:13 | 52.08701 | 11.52263 | 113° | 71km/h | 16342m | -13.7m/s | -53.7°C | 0% | 103.1hPa | 2.5V | 02:58:28 | 02:26:22 | 00:00:00 | |
| HSKMA3-T | 2026-09-06 00:49:09 | 52.08724 | 11.52184 | 116° | 69km/h | 16384m | -14.1m/s | -53.9°C | 0% | 102.3hPa | 2.6V | 02:58:28 | 02:26:19 | 00:00:00 | |
| DL1XH-west | 2026-09-06 00:49:07 | 52.08739 | 11.52133 | 117° | 68km/h | 16412m | -14.2m/s | -54.1°C | 0% | 101.9hPa | 2.5V | 02:58:28 | 02:26:17 | 00:00:00 | |
| GOEST3-10 | 2026-09-06 00:49:06 | 52.08747 | 11.52108 | 116° | 66km/h | 16427m | -15.5m/s | -54.1°C | 3.7% | 101.7hPa | 2.6V | 00:00:00 | 00:00:00 | 00:00:00 | |
| BUE01 | 2026-09-06 00:49:05 | 52.08761 | 11.52058 | 113° | 64km/h | 16457m | -13.8m/s | -54.2°C | 1.0% | 101.3hPa | 2.6V | 00:00:00 | 00:00:00 | 00:00:00 | |
| DL1XH-15 | 2026-09-06 00:49:04 | 52.08774 | 11.52009 | 111° | 66km/h | 16487m | -15.4m/s | -54.3°C | 3.7% | 100.8hPa | 2.6V | 02:58:28 | 02:26:12 | 00:00:00 | |
| BIOWL1-15 | 2026-09-06 00:49:04 | 52.08803 | 11.51883 | 111° | 68km/h | 16561m | -14.9m/s | -54.4°C | 0% | 99.6hPa | 2.6V | 02:59:19 | 02:26:07 | 00:00:00 | |
| AA1-15 | 2026-09-06 00:49:03 | 52.08768 | 11.52034 | 112° | 66km/h | 16472m | -15.2m/s | -54.2°C | 0% | 101.1hPa | 2.6V | 02:58:28 | 02:26:13 | 00:00:00 | |
| DO2SHX-10 | 2026-09-06 00:49:02 | 52.08774 | 11.52009 | 112° | 64km/h | 16487m | -15.3m/s | -54.2°C | 3.7% | 100.8hPa | 2.5V | 00:00:00 | 02:26:12 | 00:00:00 | |
| DL1ZP-14 | 2026-09-06 00:49:01 | 52.08785 | 11.51959 | 109° | 64km/h | 16516m | -14.0m/s | -54.4°C | 1.0% | 100.3hPa | 2.5V | 00:00:00 | 00:00:00 | 00:00:00 | |
| DF8AY-15 | 2026-09-06 00:49:00 | 52.08785 | 11.51959 | 110° | 68km/h | 16516m | -14.0m/s | -54.3°C | 3.7% | 100.3hPa | 2.5V | 00:00:00 | 02:26:10 | 00:00:00 | |
| DL1XH1-15 | 2026-09-06 00:48:59 | 52.08823 | 11.51804 | 114° | 71km/h | 16606m | -14.2m/s | -54.5°C | 3.7% | 98.9hPa | 2.5V | 02:58:36 | 02:26:04 | 00:00:00 | |
| HSKMA3-T | 2026-09-06 00:48:59 | 52.08791 | 11.51934 | 110° | 66km/h | 16531m | -15m/s | -54.3°C | 0% | 100.1hPa | 2.5V | 02:59:19 | 02:26:09 | 00:00:00 | |
| DL1XH-west | 2026-09-06 00:48:56 | 52.08809 | 11.51857 | 113° | 69km/h | 16576m | -14.6m/s | -54.5°C | 0% | 99.4hPa | 2.5V | 02:59:19 | 02:26:06 | 00:00:00 | |
| DB0DAN | 2026-09-06 00:48:55 | 52.08816 | 11.51831 | 114° | 66km/h | 16591m | -15.4m/s | -54.5°C | 1% | 99.18hPa | 2.5V | 00:00:00 | 00:00:00 | 00:00:00 | |
| DF8AY | 2026-09-06 00:48:53 | 52.08839 | 11.51752 | 116° | 71km/h | 16635m | -15.4m/s | -54.3°C | 0% | 98.5hPa | 2.6V | 03:00:10 | 02:26:02 | 00:00:00 | |
| HSKMA3-T | 2026-09-06 00:48:48 | 52.08869 | 11.51647 | 114° | 69km/h | 16693m | -14.7m/s | -54.4°C | 0.1% | 97.6hPa | 2.5V | 02:59:19 | 02:25:58 | 00:00:00 | |
| DL1XH-west | 2026-09-06 00:48:45 | 52.08889 | 11.51571 | 113° | 64km/h | 16737m | -15.2m/s | -53.9°C | 0% | 96.9hPa | 2.5V | 02:59:19 | 02:25:55 | 00:00:00 | |
| DL1XH1-15 | 2026-09-06 00:48:45 | 52.08895 | 11.51547 | 112° | 64km/h | 16752m | -14.8m/s | -53.9°C | 3.6% | 96.7hPa | 2.5V | 02:58:46 | 02:25:54 | 00:00:00 | |
| AA1-15 | 2026-09-06 00:48:42 | 52.08908 | 11.51499 | 114° | 62km/h | 16782m | -16.5m/s | -54.1°C | 0% | 96.3hPa | 2.6V | 02:59:19 | 02:25:52 | 00:00:00 | |
| DO2SHX-10 | 2026-09-06 00:48:41 | 52.08915 | 11.51475 | 114° | 66km/h | 16798m | -14.7m/s | -54.1°C | 3.8% | 96.0hPa | 2.6V | 00:00:00 | 02:25:51 | 00:00:00 | |
| DF8AY-15 | 2026-09-06 00:48:40 | 52.08921 | 11.51451 | 115° | 68km/h | 16813m | -15.0m/s | -54.2°C | 3.9% | 95.7hPa | 2.6V | 02:58:00 | 02:25:50 | 00:00:00 | |
| DL1XH1-15 | 2026-09-06 00:48:39 | 52.08974 | 11.51302 | 124° | 73km/h | 16898m | -14.7m/s | -53.8°C | 3.6% | 94.5hPa | 2.6V | 02:58:56 | 02:25:44 | 00:00:00 | |
| BIOWL1-15 | 2026-09-06 00:48:38 | 52.08954 | 11.51352 | 121° | 73km/h | 16870m | -14.1m/s | -53.8°C | 0% | 94.9hPa | 2.5V | 02:59:19 | 02:25:46 | 00:00:00 | |
| HSKMA3-T | 2026-09-06 00:48:37 | 52.08945 | 11.51378 | 120° | 71km/h | 16856m | -14.5m/s | -54°C | 0.1% | 95.1hPa | 2.5V | 02:59:19 | 02:25:47 | 00:00:00 | |
| DL1XH-west | 2026-09-06 00:48:35 | 52.08964 | 11.51327 | 123° | 75km/h | 16884m | -14.8m/s | -53.8°C | 0% | 94.7hPa | 2.6V | 02:59:19 | 02:25:45 | 00:00:00 | |
| DF8AY | 2026-09-06 00:48:31 | 52.09008 | 11.51230 | 131° | 73km/h | 16946m | -15.8m/s | -53.9°C | 0.1% | 93.8hPa | 2.5V | 03:00:10 | 02:25:41 | 00:00:00 | |
| DO3MHA-11 | 2026-09-06 00:48:31 | 52.09008 | 11.51230 | 132° | 64km/h | 16946m | -15.8m/s | -53.9°C | 3.7% | 93.7hPa | 2.6V | 00:00:00 | 02:25:41 | 00:00:00 | |
| DL1ZP-14 | 2026-09-06 00:48:30 | 52.09032 | 11.51186 | 132° | 69km/h | 16976m | -14.5m/s | -53.7°C | 0.9% | 93.4hPa | 2.6V | 00:00:00 | 00:00:00 | 00:00:00 | |
| DL1XH1-15 | 2026-09-06 00:48:29 | 52.09089 | 11.51092 | 137° | 60km/h | 17050m | -15.3m/s | -53.1°C | 3.4% | 92.3hPa | 2.6V | 02:59:06 | 02:25:34 | 00:00:00 | |
| HSKMA3-T | 2026-09-06 00:48:26 | 52.09067 | 11.51127 | 136° | 64km/h | 17020m | -15m/s | -53.6°C | 0% | 92.7hPa | 2.5V | 02:59:19 | 02:25:36 | 00:00:00 | |
| DL1XH-15 | 2026-09-06 00:48:26 | 52.09110 | 11.51060 | 137° | 55km/h | 17080m | -15.3m/s | -52.9°C | 3.3% | 91.9hPa | 2.6V | 02:59:08 | 02:25:32 | 00:00:00 | |
| BIOWL1-15 | 2026-09-06 00:48:24 | 52.09110 | 11.51060 | 138° | 55km/h | 17080m | -15.3m/s | -52.9°C | 0% | 91.9hPa | 2.6V | 02:59:19 | 02:25:32 | 00:00:00 | |
| DL1XH-west | 2026-09-06 00:48:24 | 52.09089 | 11.51092 | 137° | 60km/h | 17051m | -15.3m/s | -53.1°C | 0% | 92.3hPa | 2.6V | 02:59:19 | 02:25:34 | 00:00:00 | |
| DF8AY | 2026-09-06 00:48:21 | 52.09130 | 11.51030 | 137° | 51km/h | 17111m | -15.3m/s | -52.7°C | 0% | 91.4hPa | 2.5V | 03:00:10 | 02:25:30 | 00:00:00 | |
| DO2SHX-10 | 2026-09-06 00:48:20 | 52.09130 | 11.51030 | 137° | 49km/h | 17111m | -15.3m/s | -52.7°C | 3.3% | 91.3hPa | 2.5V | 02:59:00 | 02:25:30 | 00:00:00 | |
| DL1XH1-15 | 2026-09-06 00:48:19 | 52.09183 | 11.50951 | 138° | 44km/h | 17204m | -16m/s | -52.8°C | 3.2% | 90.2hPa | 2.5V | 02:59:16 | 02:25:24 | 00:00:00 | |
| HSKMA3-T | 2026-09-06 00:48:16 | 52.09166 | 11.50975 | 137° | 47km/h | 17173m | -15.6m/s | -52.7°C | 0% | 90.6hPa | 2.5V | 02:59:19 | 02:25:26 | 00:00:00 | |
| DM0DOS-11 | 2026-09-06 00:48:16 | 52.09199 | 11.50927 | 136° | 42km/h | 17234m | -15.3m/s | -53°C | 3.3% | 89.7hPa | 2.6V | 02:59:18 | 02:25:22 | 00:00:00 | |
| DL1XH-west | 2026-09-06 00:48:13 | 52.09191 | 11.50939 | 137° | 42km/h | 17219m | -15.5m/s | -52.9°C | 0% | 89.9hPa | 2.6V | 02:59:19 | 02:25:23 | 00:00:00 | |
| BIOWL1-15 | 2026-09-06 00:48:12 | 52.09206 | 11.50915 | 138° | 40km/h | 17249m | -14.7m/s | -53.1°C | 0% | 89.5hPa | 2.6V | 02:59:19 | 02:25:21 | 00:00:00 | |
| DB0DAN | 2026-09-06 00:48:10 | 52.09214 | 11.50904 | 133° | 37km/h | 17264m | -15.9m/s | -53.2°C | 0.8% | 89.28hPa | 2.5V | 00:00:00 | 00:00:00 | 00:00:00 | |
| AA1-15 | 2026-09-06 00:48:10 | 52.09220 | 11.50891 | 129° | 38km/h | 17280m | -15.4m/s | -53.3°C | 0% | 89.1hPa | 2.5V | 03:00:10 | 02:25:19 | 00:00:00 | |
| DF8AY | 2026-09-06 00:48:07 | 52.09232 | 11.50867 | 126° | 38km/h | 17311m | -15.5m/s | -53.4°C | 0% | 88.7hPa | 2.6V | 03:00:10 | 02:25:17 | 00:00:00 | |
| HSKMA3-T | 2026-09-06 00:48:05 | 52.09242 | 11.50841 | 123° | 37km/h | 17343m | -15.5m/s | -53.6°C | 0% | 88.2hPa | 2.5V | 03:00:10 | 02:25:15 | 00:00:00 | |
| DL1XH-west | 2026-09-06 00:48:03 | 52.09252 | 11.50815 | 121° | 38km/h | 17374m | -15.3m/s | -53.8°C | 0% | 87.8hPa | 2.5V | 03:00:10 | 02:25:13 | 00:00:00 | |
| AA1-15 | 2026-09-06 00:47:59 | 52.09275 | 11.50759 | 126° | 42km/h | 17433m | -14.8m/s | -54.2°C | 0% | 87hPa | 2.5V | 03:00:10 | 02:25:09 | 00:00:00 | |
| DL1ZP-14 | 2026-09-06 00:47:58 | 52.09282 | 11.50744 | 126° | 44km/h | 17448m | -15.5m/s | -54.3°C | 1.0% | 86.8hPa | 2.5V | 00:00:00 | 00:00:00 | 00:00:00 | |
| DL1XH1-15 | 2026-09-06 00:47:57 | 52.09309 | 11.50688 | 127° | 44km/h | 17510m | -16m/s | -54.4°C | 3.7% | 86hPa | 2.6V | 02:59:36 | 02:25:04 | 00:00:00 | |
| DF8AY | 2026-09-06 00:47:57 | 52.09328 | 11.50647 | 126° | 40km/h | 17560m | -16.5m/s | -54.5°C | 0% | 85.3hPa | 2.5V | 03:00:10 | 02:25:01 | 00:00:00 | |
| HSKMA3-T | 2026-09-06 00:47:54 | 52.09309 | 11.50688 | 128° | 44km/h | 17510m | -16m/s | -54.4°C | 0% | 86hPa | 2.6V | 03:00:10 | 02:25:04 | 00:00:00 | |
| DL1XH-west | 2026-09-06 00:47:53 | 52.09316 | 11.50673 | 127° | 42km/h | 17527m | -16.3m/s | -54.4°C | 0% | 85.8hPa | 2.6V | 03:00:10 | 02:25:03 | 00:00:00 | |
| DL1XH-15 | 2026-09-06 00:47:53 | 52.09322 | 11.50660 | 128° | 38km/h | 17543m | -17.2m/s | -54.4°C | 3.7% | 85.6hPa | 2.5V | 02:59:38 | 02:25:02 | 00:00:00 | |
| DL4XJ-10 | 2026-09-06 00:47:53 | 52.09316 | 11.50673 | 128° | 40km/h | 17527m | -16.3m/s | -54.8°C | 0% | 0hPa | 2.5V | 00:00:00 | 00:00:00 | 00:00:00 | |
| DF7ER-10 | 2026-09-06 00:47:52 | 52.09322 | 11.50660 | 129° | 38km/h | 17543m | -17.3m/s | -54.4°C | 1.0% | 85.6hPa | 2.5V | 03:00:00 | 00:00:00 | 00:00:00 | |
| DO3MHA-11 | 2026-09-06 00:47:51 | 52.09328 | 11.50647 | 127° | 37km/h | 17560m | -16.5m/s | -54.5°C | 3.7% | 85.3hPa | 2.5V | 02:59:00 | 02:25:01 | 00:00:00 | |
| DO2SHX-10 | 2026-09-06 00:47:50 | 52.09334 | 11.50634 | 128° | 37km/h | 17577m | -16.4m/s | -54.6°C | 3.8% | 85.1hPa | 2.6V | 00:00:00 | 02:25:00 | 00:00:00 | |
| DL1XH1-15 | 2026-09-06 00:47:49 | 52.09364 | 11.50560 | 126° | 35km/h | 17675m | -15.8m/s | -54.7°C | 3.8% | 83.8hPa | 2.6V | 02:59:46 | 02:24:54 | 00:00:00 | |
| AA1-15 | 2026-09-06 00:47:48 | 52.09345 | 11.50610 | 122° | 35km/h | 17610m | -16.5m/s | -54.6°C | 0% | 84.7hPa | 2.6V | 03:00:10 | 02:24:58 | 00:00:00 | |
| DF8AY | 2026-09-06 00:47:46 | 52.09354 | 11.50585 | 121° | 35km/h | 17643m | -15.9m/s | -54.7°C | 0.1% | 84.2hPa | 2.5V | 03:00:10 | 02:24:56 | 00:00:00 | |
| HSKMA3-T | 2026-09-06 00:47:44 | 52.09364 | 11.50560 | 127° | 35km/h | 17675m | -15.8m/s | -54.7°C | 0.1% | 83.8hPa | 2.6V | 03:00:10 | 02:24:54 | 00:00:00 | |
| DM0DOS-11 | 2026-09-06 00:47:43 | 52.09374 | 11.50536 | 123° | 37km/h | 17706m | -16.5m/s | -54.7°C | 3.9% | 83.4hPa | 2.5V | 02:59:48 | 02:24:52 | 00:00:00 | |
| DL1XH-west | 2026-09-06 00:47:42 | 52.09379 | 11.50523 | 127° | 38km/h | 17722m | -16.4m/s | -54.5°C | 0% | 83.2hPa | 2.5V | 03:00:10 | 02:24:51 | 00:00:00 | |
| DF7ER-10 | 2026-09-06 00:47:42 | 52.09374 | 11.50536 | 125° | 37km/h | 17706m | -16.5m/s | -54.7°C | 1.0% | 83.4hPa | 2.6V | 03:00:00 | 00:00:00 | 00:00:00 | |
| 13BRC | 2026-09-06 00:47:41 | 52.09380 | 11.50523 | 128° | 38km/h | 17722m | -16.4m/s | -54.5°C | 0.9% | 83.2hPa | 2.6V | 03:00:00 | 00:00:00 | 00:00:00 | |
| DF8AY-15 | 2026-09-06 00:47:40 | 52.09385 | 11.50510 | 128° | 42km/h | 17739m | -17.2m/s | -54.5°C | 3.8% | 82.9hPa | 2.6V | 02:59:00 | 02:24:50 | 00:00:00 | |
| GOEST3-10 | 2026-09-06 00:47:39 | 52.09392 | 11.50497 | 129° | 47km/h | 17755m | -16.2m/s | -54.5°C | 3.8% | 82.7hPa | 2.6V | 02:59:00 | 02:24:49 | 00:00:00 | |
| DO2SHX-10 | 2026-09-06 00:47:38 | 52.09399 | 11.50482 | 129° | 47km/h | 17771m | -16.0m/s | -54.5°C | 3.8% | 82.5hPa | 2.5V | 00:00:00 | 02:24:48 | 00:00:00 | |
| AA1-15 | 2026-09-06 00:47:37 | 52.09406 | 11.50467 | 125° | 49km/h | 17788m | -17.6m/s | -54.5°C | 0% | 82.3hPa | 2.5V | 03:00:10 | 02:24:47 | 00:00:00 | |
| DL1XH1-15 | 2026-09-06 00:47:36 | 52.09427 | 11.50416 | 124° | 47km/h | 17839m | -18.8m/s | -54.3°C | 3.8% | 81.7hPa | 2.5V | 02:59:56 | 02:24:44 | 00:00:00 | |
| DF8AY | 2026-09-06 00:47:35 | 52.09420 | 11.50433 | 124° | 51km/h | 17821m | -17.7m/s | -54.4°C | 0.1% | 81.9hPa | 2.5V | 03:00:10 | 02:24:45 | 00:00:00 | |
| HSKMA3-T | 2026-09-06 00:47:33 | 52.09434 | 11.50400 | 127° | 49km/h | 17858m | -20m/s | -54.2°C | 0% | 81.4hPa | 2.6V | 03:00:10 | 02:24:43 | 00:00:00 | |
| DL1XH-west | 2026-09-06 00:47:32 | 52.09441 | 11.50384 | 126° | 47km/h | 17877m | -18.5m/s | -54.2°C | 0% | 81.2hPa | 2.6V | 03:00:10 | 02:24:42 | 00:00:00 | |
| DO2SHX-10 | 2026-09-06 00:47:32 | 52.09441 | 11.50384 | 127° | 46km/h | 17877m | -18.5m/s | -54.1°C | 3.7% | 81.1hPa | 2.5V | 00:00:00 | 02:24:42 | 00:00:00 | |
| DO3MHA-11 | 2026-09-06 00:47:31 | 52.09449 | 11.50369 | 130° | 38km/h | 17895m | -17.7m/s | -54.2°C | 3.8% | 80.9hPa | 2.5V | 00:00:00 | 02:24:41 | 00:00:00 | |
| DB0ND-19 | 2026-09-06 00:47:30 | 52.09475 | 11.50317 | 129° | 37km/h | 17966m | -17.5m/s | -53.9°C | 0.9% | 80.0hPa | 2.5V | 00:00:00 | 00:00:00 | 00:00:00 | |
| DL1XH1-15 | 2026-09-06 00:47:29 | 52.09492 | 11.50281 | 129° | 37km/h | 18019m | -18.4m/s | -53.8°C | 3.7% | 79.4hPa | 2.5V | 03:00:06 | 02:24:34 | 00:00:00 | |
| AA1-15 | 2026-09-06 00:47:27 | 52.09475 | 11.50317 | 130° | 38km/h | 17966m | -17.5m/s | -53.9°C | 0% | 80hPa | 2.6V | 03:00:10 | 02:24:37 | 00:00:00 | |
| DF8AY | 2026-09-06 00:47:24 | 52.09492 | 11.50281 | 129° | 37km/h | 18019m | -18.4m/s | -53.8°C | 0% | 79.4hPa | 2.5V | 03:00:10 | 02:24:34 | 00:00:00 | |
| BIOWL1-15 | 2026-09-06 00:47:23 | 52.09498 | 11.50269 | 126° | 38km/h | 18037m | -17.6m/s | -53.9°C | 0% | 79.2hPa | 2.6V | 03:01:01 | 02:24:33 | 00:00:00 | |
| HSKMA3-T | 2026-09-06 00:47:22 | 52.09503 | 11.50255 | 124° | 40km/h | 18055m | -18.7m/s | -53.9°C | 0% | 79hPa | 2.6V | 03:00:10 | 02:24:32 | 00:00:00 | |
| DL1XH-west | 2026-09-06 00:47:21 | 52.09509 | 11.50242 | 121° | 37km/h | 18073m | -18.9m/s | -53.9°C | 0% | 78.8hPa | 2.5V | 03:00:10 | 02:24:31 | 00:00:00 | |
| DF7ER-10 | 2026-09-06 00:47:21 | 52.09508 | 11.50242 | 122° | 37km/h | 18073m | -18.9m/s | -53.9°C | 0.9% | 78.8hPa | 2.5V | 03:00:00 | 00:00:00 | 00:00:00 | |
| DO2SHX-10 | 2026-09-06 00:47:20 | 52.09513 | 11.50228 | 120° | 40km/h | 18092m | -19.0m/s | -53.6°C | 3.6% | 78.5hPa | 2.5V | 00:00:00 | 02:24:30 | 00:00:00 | |
| DL1XH1-15 | 2026-09-06 00:47:19 | 52.09533 | 11.50133 | 102° | 42km/h | 18198m | -18.1m/s | -53.3°C | 3.6% | 77.2hPa | 2.5V | 03:00:16 | 02:24:24 | 00:00:00 | |
| AA1-15 | 2026-09-06 00:47:17 | 52.09528 | 11.50167 | 107° | 40km/h | 18162m | -18.3m/s | -53.6°C | 0% | 77.7hPa | 2.6V | 03:01:01 | 02:24:26 | 00:00:00 | |
| DM0DOS-11 | 2026-09-06 00:47:16 | 52.09537 | 11.50098 | 99° | 44km/h | 18235m | -19.4m/s | -52.6°C | 3.2% | 76.8hPa | 2.5V | 03:00:18 | 02:24:22 | 00:00:00 | |
| DF8AY | 2026-09-06 00:47:13 | 52.09535 | 11.50116 | 101° | 42km/h | 18216m | -19.1m/s | -52.8°C | 0% | 77hPa | 2.5V | 03:01:52 | 02:24:23 | 00:00:00 | |
| BIOWL1-15 | 2026-09-06 00:47:12 | 52.09543 | 11.49998 | 87° | 37km/h | 18344m | -17.3m/s | -53.3°C | 0% | 75.5hPa | 2.5V | 03:01:01 | 02:24:16 | 00:00:00 | |
| HSKMA3-T | 2026-09-06 00:47:11 | 52.09539 | 11.50080 | 100° | 42km/h | 18254m | -18.5m/s | -52.6°C | 0% | 76.6hPa | 2.6V | 03:01:01 | 02:24:21 | 00:00:00 | |
| DB0DAN | 2026-09-06 00:47:10 | 52.09540 | 11.50064 | 96° | 38km/h | 18272m | -18.8m/s | -52.7°C | 0.8% | 76.4hPa | 2.6V | 00:00:00 | 00:00:00 | 00:00:00 | |
| EDDB2-12 | 2026-09-06 00:47:09 | 52.09542 | 11.50030 | 93° | 40km/h | 18309m | -17.6m/s | -53.0°C | 0.8% | 76.0hPa | 2.5V | 00:00:00 | 00:00:00 | 00:00:00 | |
| DO2SHX-10 | 2026-09-06 00:47:08 | 52.09542 | 11.50030 | 94° | 38km/h | 18309m | -17.5m/s | -52.9°C | 3.4% | 76.0hPa | 2.5V | 00:00:00 | 02:24:18 | 00:00:00 | |
| DF7PN | 2026-09-06 00:47:07 | 52.09543 | 11.49998 | 87° | 35km/h | 18345m | -17.3m/s | -53.3°C | -1.0% | 75.5hPa | 2.5V | 00:00:00 | 00:00:00 | 00:00:00 | |
| DL1XH-15 | 2026-09-06 00:47:06 | 52.09544 | 11.49940 | 95° | 33km/h | 18414m | -18.5m/s | -53.5°C | 3.5% | 74.8hPa | 2.5V | 03:00:28 | 02:24:12 | 00:00:00 | |
| AA1-15 | 2026-09-06 00:47:05 | 52.09542 | 11.49983 | 90° | 35km/h | 18361m | -17.6m/s | -53.4°C | 0% | 75.4hPa | 2.6V | 03:01:01 | 02:24:15 | 00:00:00 | |
| DF8AY | 2026-09-06 00:47:04 | 52.09543 | 11.49955 | 92° | 35km/h | 18397m | -17.5m/s | -53.4°C | 0% | 74.9hPa | 2.5V | 03:01:52 | 02:24:13 | 00:00:00 | |
| BIOWL1-15 | 2026-09-06 00:47:02 | 52.09546 | 11.49913 | 103° | 33km/h | 18449m | -17.9m/s | -53.7°C | 0% | 74.3hPa | 2.6V | 03:01:01 | 02:24:10 | 00:00:00 | |
| HSKMA3-T | 2026-09-06 00:47:01 | 52.09544 | 11.49927 | 98° | 33km/h | 18431m | -17.4m/s | -53.6°C | 0% | 74.5hPa | 2.6V | 03:01:01 | 02:24:11 | 00:00:00 | |
| DL1XH-west | 2026-09-06 00:47:00 | 52.09548 | 11.49900 | 105° | 33km/h | 18466m | -16.6m/s | -53.7°C | 0% | 74.1hPa | 2.5V | 03:01:01 | 02:24:09 | 00:00:00 | |
| DF8AY-15 | 2026-09-06 00:47:00 | 52.09545 | 11.49913 | 103° | 42km/h | 18449m | -17.9m/s | -53.6°C | 3.6% | 74.3hPa | 2.6V | 00:00:00 | 02:24:10 | 00:00:00 | |
| DL1XH1-15 | 2026-09-06 00:46:59 | 52.09561 | 11.49828 | 103° | 44km/h | 18553m | -18.3m/s | -53.5°C | 3.6% | 73.1hPa | 2.6V | 03:00:36 | 02:24:04 | 00:00:00 | |
| AA1-15 | 2026-09-06 00:46:55 | 52.09561 | 11.49828 | 103° | 44km/h | 18553m | -18.3m/s | -53.5°C | 0% | 73.1hPa | 2.6V | 03:01:01 | 02:24:04 | 00:00:00 | |
| GOEST3-10 | 2026-09-06 00:46:54 | 52.09561 | 11.49828 | 104° | 47km/h | 18554m | -18.3m/s | -53.4°C | 3.6% | 73.1hPa | 2.6V | 03:00:00 | 00:00:00 | 00:00:00 | |
| DM0DOS-11 | 2026-09-06 00:46:53 | 52.09566 | 11.49792 | 106° | 46km/h | 18590m | -18.9m/s | -53.4°C | 3.5% | 72.7hPa | 2.5V | 03:00:38 | 02:24:02 | 00:00:00 | |
| DF8AY | 2026-09-06 00:46:52 | 52.09566 | 11.49792 | 106° | 46km/h | 18590m | -18.9m/s | -53.4°C | 0% | 72.7hPa | 2.5V | 03:01:52 | 02:24:02 | 00:00:00 | |
| HSKMA3-T | 2026-09-06 00:46:51 | 52.09574 | 11.49754 | 108° | 51km/h | 18626m | -18.6m/s | -53.5°C | 0% | 72.3hPa | 2.6V | 03:01:01 | 02:24:00 | 00:00:00 | |
| BIOWL1-15 | 2026-09-06 00:46:49 | 52.09578 | 11.49734 | 108° | 51km/h | 18644m | -18.8m/s | -53.6°C | 0% | 72.1hPa | 2.6V | 03:01:01 | 02:23:59 | 00:00:00 | |
| DL1XH-west | 2026-09-06 00:46:48 | 52.09582 | 11.49714 | 111° | 51km/h | 18663m | -18.8m/s | -53.6°C | 0% | 71.9hPa | 2.5V | 03:01:01 | 02:23:58 | 00:00:00 | |
| HARRO8 | 2026-09-06 00:46:46 | 52.09592 | 11.49677 | 117° | 46km/h | 18699m | -18.3m/s | -53.8°C | 0.9% | 71.5hPa | 2.6V | 00:00:00 | 00:00:00 | 00:00:00 | |
| EDDB2-11 | 2026-09-06 00:46:45 | 52.09602 | 11.49644 | 119° | 42km/h | 18735m | -18.9m/s | -53.9°C | 0.9% | 71.1hPa | 2.6V | 00:00:00 | 00:00:00 | 00:00:00 | |
| AA1-15 | 2026-09-06 00:46:43 | 52.09608 | 11.49630 | 121° | 38km/h | 18753m | -18.1m/s | -53.8°C | 0% | 70.8hPa | 2.6V | 03:01:01 | 02:23:53 | 00:00:00 | |
| DF8AY | 2026-09-06 00:46:41 | 52.09617 | 11.49604 | 123° | 33km/h | 18789m | -19.3m/s | -53.6°C | 0% | 70.5hPa | 2.5V | 03:01:52 | 02:23:51 | 00:00:00 | |
| DB0DAN | 2026-09-06 00:46:40 | 52.09622 | 11.49592 | 123° | 33km/h | 18808m | -19.4m/s | -53.4°C | 0.8% | 70.31hPa | 2.5V | 00:00:00 | 00:00:00 | 00:00:00 | |
| HSKMA3-T | 2026-09-06 00:46:40 | 52.09622 | 11.49592 | 123° | 35km/h | 18808m | -19.4m/s | -53.4°C | 0% | 70.3hPa | 2.5V | 03:01:01 | 02:23:50 | 00:00:00 | |
| BIOWL1-15 | 2026-09-06 00:46:39 | 52.09627 | 11.49581 | 126° | 31km/h | 18827m | -19.1m/s | -53°C | 0% | 70hPa | 2.6V | 03:01:01 | 02:23:49 | 00:00:00 | |
| DL1XH-west | 2026-09-06 00:46:38 | 52.09637 | 11.49561 | 127° | 29km/h | 18864m | -18.7m/s | -52.2°C | 0% | 69.6hPa | 2.5V | 03:01:01 | 02:23:47 | 00:00:00 | |
| 13BRC | 2026-09-06 00:46:38 | 52.09632 | 11.49570 | 128° | 31km/h | 18846m | -19.0m/s | -52.5°C | 0.8% | 69.9hPa | 2.6V | 03:01:00 | 00:00:00 | 00:00:00 | |
| DL1XH1-15 | 2026-09-06 00:46:38 | 52.09649 | 11.49534 | 125° | 24km/h | 18921m | -19.6m/s | -52.3°C | 3.2% | 69.1hPa | 2.6V | 03:00:56 | 02:23:44 | 00:00:00 | |
| SONCRA | 2026-09-06 00:46:37 | 52.09641 | 11.49551 | 122° | 27km/h | 18883m | -19.6m/s | -52.1°C | 0.7% | 69.5hPa | 2.6V | 00:00:00 | 00:00:00 | 00:00:00 | |
| DO2SHX-10 | 2026-09-06 00:46:35 | 52.09645 | 11.49542 | 128° | 24km/h | 18902m | -19.5m/s | -52.1°C | 3.2% | 69.2hPa | 2.6V | 03:00:00 | 02:23:45 | 00:00:00 | |
| GOEST3-10 | 2026-09-06 00:46:34 | 52.09648 | 11.49534 | 126° | 26km/h | 18921m | -19.5m/s | -52.3°C | 3.2% | 69.0hPa | 2.6V | 03:00:00 | 00:00:00 | 00:00:00 | |
| DM0DOS-11 | 2026-09-06 00:46:33 | 52.09654 | 11.49516 | 116° | 22km/h | 18959m | -20m/s | -52.6°C | 3.3% | 68.7hPa | 2.6V | 03:00:58 | 02:23:42 | 00:00:00 | |
| AA1-15 | 2026-09-06 00:46:33 | 52.09652 | 11.49525 | 117° | 24km/h | 18940m | -19.5m/s | -52.5°C | 0% | 68.8hPa | 2.6V | 03:01:01 | 02:23:43 | 00:00:00 | |
| DF8AY | 2026-09-06 00:46:31 | 52.09657 | 11.49507 | 110° | 27km/h | 18979m | -18.5m/s | -52.8°C | 0% | 68.5hPa | 2.5V | 03:01:52 | 02:23:41 | 00:00:00 | |
| HSKMA3-T | 2026-09-06 00:46:29 | 52.09661 | 11.49487 | 106° | 27km/h | 19017m | -19.4m/s | -53.1°C | 0% | 68.1hPa | 2.5V | 03:01:01 | 02:23:39 | 00:00:00 | |
| BIOWL1-15 | 2026-09-06 00:46:28 | 52.09663 | 11.49475 | 99° | 31km/h | 19036m | -18.9m/s | -53.3°C | 0% | 67.9hPa | 2.6V | 03:03:34 | 02:23:38 | 00:00:00 | |
| DL1XH-west | 2026-09-06 00:46:27 | 52.09664 | 11.49448 | 93° | 35km/h | 19074m | -19.2m/s | -53.6°C | 0% | 67.5hPa | 2.5V | 03:01:52 | 02:23:36 | 00:00:00 | |
| DM0DOS-11 | 2026-09-06 00:46:26 | 52.09665 | 11.49388 | 92° | 38km/h | 19144m | -19.1m/s | -53.7°C | 3.6% | 66.7hPa | 2.6V | 03:01:08 | 02:23:32 | 00:00:00 | |
| DB0DAN | 2026-09-06 00:46:25 | 52.09664 | 11.49434 | 92° | 35km/h | 19092m | -17.6m/s | -53.7°C | 0.8% | 67.25hPa | 2.5V | 00:00:00 | 00:00:00 | 00:00:00 | |
| AA1-15 | 2026-09-06 00:46:23 | 52.09664 | 11.49403 | 93° | 35km/h | 19127m | -19m/s | -53.8°C | 0% | 66.8hPa | 2.6V | 03:01:52 | 02:23:33 | 00:00:00 | |
| DF8AY | 2026-09-06 00:46:20 | 52.09665 | 11.49356 | 93° | 37km/h | 19182m | -19.7m/s | -53.6°C | 0% | 66.3hPa | 2.5V | 03:01:52 | 02:23:30 | 00:00:00 | |
| HSKMA3-T | 2026-09-06 00:46:19 | 52.09666 | 11.49341 | 96° | 37km/h | 19201m | -19.5m/s | -53.4°C | 0% | 66.1hPa | 2.5V | 03:01:52 | 02:23:29 | 00:00:00 | |
| DL1XH1-15 | 2026-09-06 00:46:19 | 52.09677 | 11.49266 | 107° | 37km/h | 19296m | -19.4m/s | -53.4°C | 3.5% | 65.2hPa | 2.6V | 03:01:16 | 02:23:24 | 00:00:00 | |
| BIOWL1-15 | 2026-09-06 00:46:15 | 52.09677 | 11.49266 | 108° | 37km/h | 19296m | -19.4m/s | -53.4°C | 0% | 65.2hPa | 2.6V | 03:03:34 | 02:23:24 | 00:00:00 | |
| DL1XH-west | 2026-09-06 00:46:15 | 52.09674 | 11.49281 | 108° | 37km/h | 19277m | -18.7m/s | -53.3°C | 0% | 65.4hPa | 2.5V | 03:01:52 | 02:23:25 | 00:00:00 | |
| DO2SHX-10 | 2026-09-06 00:46:14 | 52.09677 | 11.49266 | 108° | 38km/h | 19296m | -19.3m/s | -53.4°C | 3.5% | 65.1hPa | 2.6V | 00:00:00 | 02:23:24 | 00:00:00 | |
| DM0DOS-11 | 2026-09-06 00:46:13 | 52.09683 | 11.49236 | 109° | 40km/h | 19334m | -19.1m/s | -53.5°C | 3.6% | 64.8hPa | 2.6V | 03:01:18 | 02:23:22 | 00:00:00 | |
| AA1-15 | 2026-09-06 00:46:13 | 52.09680 | 11.49252 | 111° | 40km/h | 19315m | -19.3m/s | -53.5°C | 0% | 65hPa | 2.6V | 03:01:52 | 02:23:23 | 00:00:00 | |
| DF8AY | 2026-09-06 00:46:12 | 52.09690 | 11.49203 | 107° | 44km/h | 19373m | -19.9m/s | -53.6°C | 0% | 64.4hPa | 2.5V | 03:01:52 | 02:23:20 | 00:00:00 | |
| DB0DAN | 2026-09-06 00:46:10 | 52.09690 | 11.49203 | 107° | 42km/h | 19373m | -19.9m/s | -53.6°C | 0.8% | 64.44hPa | 2.5V | 00:00:00 | 00:00:00 | 00:00:00 | |
| HSKMA3-T | 2026-09-06 00:46:08 | 52.09697 | 11.49167 | 108° | 49km/h | 19410m | -17.5m/s | -53.4°C | 0% | 64hPa | 2.6V | 03:01:52 | 02:23:18 | 00:00:00 | |
| DL1XH-west | 2026-09-06 00:46:05 | 52.09711 | 11.49104 | 112° | 57km/h | 19469m | -20.3m/s | -53.4°C | 0% | 63.5hPa | 2.5V | 03:01:52 | 02:23:15 | 00:00:00 | |
| AA1-15 | 2026-09-06 00:46:02 | 52.09730 | 11.49041 | 120° | 57km/h | 19528m | -19.1m/s | -53.7°C | 0% | 62.9hPa | 2.6V | 03:01:52 | 02:23:12 | 00:00:00 | |
| BIOWL1-15 | 2026-09-06 00:46:01 | 52.09745 | 11.49002 | 124° | 55km/h | 19566m | -19.4m/s | -53.6°C | 0% | 62.5hPa | 2.5V | 03:03:34 | 02:23:10 | 00:00:00 | |
| DF8AY | 2026-09-06 00:45:59 | 52.09753 | 11.48985 | 124° | 51km/h | 19585m | -19.5m/s | -53.6°C | 0% | 62.4hPa | 2.5V | 03:01:52 | 02:23:09 | 00:00:00 | |
| HSKMA3-T | 2026-09-06 00:45:58 | 52.09767 | 11.48952 | 125° | 46km/h | 19624m | -18.3m/s | -53.1°C | 0% | 62hPa | 2.6V | 03:01:52 | 02:23:07 | 00:00:00 | |
| DL1XH-west | 2026-09-06 00:45:54 | 52.09786 | 11.48896 | 114° | 35km/h | 19700m | -19.7m/s | -52.6°C | 0% | 61.2hPa | 2.5V | 03:01:52 | 02:23:03 | 00:00:00 | |
| DM0DOS-11 | 2026-09-06 00:45:54 | 52.09790 | 11.48883 | 112° | 33km/h | 19720m | -19.6m/s | -52.6°C | 3.3% | 61.1hPa | 2.6V | 03:01:38 | 02:23:02 | 00:00:00 | |
| AA1-15 | 2026-09-06 00:45:52 | 52.09797 | 11.48845 | 104° | 33km/h | 19778m | -19.7m/s | -52.2°C | 0% | 60.5hPa | 2.6V | 03:01:52 | 02:22:59 | 00:00:00 | |
| BIOWL1-15 | 2026-09-06 00:45:51 | 52.09801 | 11.48803 | 95° | 35km/h | 19835m | -17.9m/s | -52.4°C | 0% | 60hPa | 2.6V | 03:03:34 | 02:22:56 | 00:00:00 | |
| DF8AY | 2026-09-06 00:45:49 | 52.09799 | 11.48831 | 102° | 35km/h | 19797m | -18.8m/s | -52.2°C | 0% | 60.3hPa | 2.6V | 03:01:52 | 02:22:58 | 00:00:00 | |
| HSKMA3-T | 2026-09-06 00:45:47 | 52.09800 | 11.48818 | 97° | 35km/h | 19816m | -19.1m/s | -52.4°C | 0% | 60.1hPa | 2.6V | 03:01:52 | 02:22:57 | 00:00:00 | |
| SONDE2-11 | 2026-09-06 00:45:47 | 52.09800 | 11.48818 | 96° | 33km/h | 19816m | -19.1m/s | -52.4°C | 0.7% | 60.1hPa | 2.6V | 00:00:00 | 00:00:00 | 00:00:00 | |
| HARRO8 | 2026-09-06 00:45:44 | 52.09802 | 11.48774 | 93° | 33km/h | 19872m | -19.5m/s | -52.7°C | 0.7% | 59.6hPa | 2.6V | 00:00:00 | 00:00:00 | 00:00:00 | |
| DL1XH-west | 2026-09-06 00:45:43 | 52.09803 | 11.48760 | 92° | 35km/h | 19891m | -20m/s | -52.9°C | 0% | 59.5hPa | 2.6V | 03:01:52 | 02:22:53 | 00:00:00 | |
| BIOWL1-15 | 2026-09-06 00:45:42 | 52.09802 | 11.48712 | 88° | 40km/h | 19951m | -18.8m/s | -53.4°C | 0% | 58.9hPa | 2.6V | 03:03:34 | 02:22:50 | 00:00:00 | |
| DB0DAN | 2026-09-06 00:45:40 | 52.09802 | 11.48712 | 88° | 38km/h | 19951m | -18.8m/s | -53.4°C | 0.8% | 58.92hPa | 2.6V | 00:00:00 | 00:00:00 | 00:00:00 | |
| AA1-15 | 2026-09-06 00:45:39 | 52.09802 | 11.48695 | 88° | 40km/h | 19969m | -18.1m/s | -53.5°C | 0% | 58.7hPa | 2.5V | 03:01:52 | 02:22:49 | 00:00:00 | |
| DF8AY | 2026-09-06 00:45:38 | 52.09801 | 11.48679 | 86° | 40km/h | 19988m | -19m/s | -53.7°C | 0% | 58.5hPa | 2.5V | 03:01:52 | 02:22:48 | 00:00:00 | |
| HSKMA3-T | 2026-09-06 00:45:37 | 52.09800 | 11.48663 | 87° | 40km/h | 20007m | -19.7m/s | -53.8°C | 0% | 58.4hPa | 2.6V | 03:02:43 | 02:22:47 | 00:00:00 | |
| DL1XH-west | 2026-09-06 00:45:32 | 52.09799 | 11.48574 | 92° | 44km/h | 20101m | -17.7m/s | -54.1°C | 0.1% | 57.5hPa | 2.6V | 03:02:43 | 02:22:42 | 00:00:00 | |
| AA1-15 | 2026-09-06 00:45:29 | 52.09801 | 11.48505 | 96° | 42km/h | 20176m | -20.1m/s | -53.7°C | 0% | 56.9hPa | 2.6V | 03:02:43 | 02:22:38 | 00:00:00 | |
| DO2SHX-10 | 2026-09-06 00:45:29 | 52.09800 | 11.48521 | 95° | 40km/h | 20157m | -19.4m/s | -53.6°C | 3.5% | 57.0hPa | 2.5V | 00:00:00 | 02:22:39 | 00:00:00 | |
| DL1XH1-15 | 2026-09-06 00:45:28 | 52.09809 | 11.48432 | 103° | 29km/h | 20273m | -18.6m/s | -53.6°C | 3.5% | 56hPa | 2.5V | 03:02:07 | 02:22:33 | 00:00:00 | |
| DF8AY | 2026-09-06 00:45:28 | 52.09803 | 11.48488 | 98° | 40km/h | 20196m | -20.1m/s | -53.7°C | 0% | 56.7hPa | 2.6V | 03:02:43 | 02:22:37 | 00:00:00 | |
| HSKMA3-T | 2026-09-06 00:45:26 | 52.09804 | 11.48472 | 99° | 38km/h | 20216m | -19.9m/s | -53.7°C | 0% | 56.5hPa | 2.6V | 03:02:43 | 02:22:36 | 00:00:00 | |
| DB0DAN | 2026-09-06 00:45:25 | 52.09806 | 11.48457 | 100° | 33km/h | 20235m | -19.3m/s | -53.7°C | 0.8% | 56.37hPa | 2.6V | 00:00:00 | 00:00:00 | 00:00:00 | |
| DL1XH-west | 2026-09-06 00:45:22 | 52.09813 | 11.48407 | 104° | 29km/h | 20310m | -18.9m/s | -53.8°C | 0% | 55.7hPa | 2.6V | 03:02:43 | 02:22:31 | 00:00:00 | |
| DO3MHA-11 | 2026-09-06 00:45:21 | 52.09813 | 11.48407 | 104° | 29km/h | 20311m | -18.8m/s | -53.8°C | 3.5% | 55.7hPa | 2.6V | 03:02:00 | 02:22:31 | 00:00:00 | |
| DJ2DS-15 | 2026-09-06 00:45:20 | 52.09816 | 11.48385 | 104° | 24km/h | 20348m | -19.1m/s | -53.8°C | 0.8% | 55.4hPa | 2.5V | 00:00:00 | 00:00:00 | 00:00:00 | |
| TFSTFS | 2026-09-06 00:45:19 | 52.09816 | 11.48385 | 106° | 26km/h | 20348m | -19.1m/s | -53.8°C | 0.8% | 55.4hPa | 2.5V | 03:02:00 | 00:00:00 | 00:00:00 | |
| DL1XH1-15 | 2026-09-06 00:45:18 | 52.09832 | 11.48320 | 117° | 31km/h | 20462m | -21.6m/s | -54.4°C | 3.8% | 54.4hPa | 2.5V | 03:02:17 | 02:22:23 | 00:00:00 | |
| DF8AY | 2026-09-06 00:45:17 | 52.09820 | 11.48364 | 107° | 29km/h | 20387m | -19.7m/s | -54°C | 0% | 55.1hPa | 2.6V | 03:02:43 | 02:22:27 | 00:00:00 | |
| BIOWL1-15 | 2026-09-06 00:45:16 | 52.09822 | 11.48353 | 112° | 29km/h | 20406m | -19.3m/s | -54.1°C | 0% | 54.9hPa | 2.6V | 03:03:34 | 02:22:26 | 00:00:00 | |
| HSKMA3-T | 2026-09-06 00:45:16 | 52.09825 | 11.48342 | 116° | 29km/h | 20425m | -18.7m/s | -54.2°C | 0% | 54.7hPa | 2.6V | 03:02:43 | 02:22:25 | 00:00:00 | |
| DL1XH-west | 2026-09-06 00:45:10 | 52.09845 | 11.48288 | 130° | 29km/h | 20522m | -20.2m/s | -54.5°C | 0.1% | 53.9hPa | 2.6V | 03:02:43 | 02:22:20 | 00:00:00 | |
| DB0DAN | 2026-09-06 00:45:10 | 52.09845 | 11.48288 | 130° | 27km/h | 20522m | -20.2m/s | -54.5°C | 0.9% | 53.89hPa | 2.6V | 00:00:00 | 00:00:00 | 00:00:00 | |
| BIOWL1-15 | 2026-09-06 00:45:08 | 52.09876 | 11.48236 | 146° | 18km/h | 20661m | -19.7m/s | -54.3°C | 0% | 52.7hPa | 2.6V | 03:03:34 | 02:22:13 | 00:00:00 | |
| DL1XH1-15 | 2026-09-06 00:45:08 | 52.09876 | 11.48236 | 146° | 18km/h | 20661m | -19.7m/s | -54.2°C | 3.7% | 52.7hPa | 2.6V | 03:02:27 | 02:22:13 | 00:00:00 | |
| DF8AY | 2026-09-06 00:45:07 | 52.09863 | 11.48254 | 138° | 26km/h | 20601m | -21.1m/s | -54.7°C | 0.1% | 53.2hPa | 2.5V | 03:02:43 | 02:22:16 | 00:00:00 | |
| DM0DOS-11 | 2026-09-06 00:45:07 | 52.09880 | 11.48232 | 149° | 15km/h | 20681m | -19.9m/s | -54.1°C | 3.7% | 52.6hPa | 2.6V | 03:02:28 | 02:22:12 | 00:00:00 | |
| HSKMA3-T | 2026-09-06 00:45:05 | 52.09868 | 11.48247 | 137° | 22km/h | 20622m | -20.6m/s | -54.5°C | 0.1% | 53.1hPa | 2.5V | 03:02:43 | 02:22:15 | 00:00:00 | |
| DL1XH-west | 2026-09-06 00:44:59 | 52.09890 | 11.48221 | 141° | 13km/h | 20741m | -19.4m/s | -53.1°C | 0% | 52.1hPa | 2.6V | 03:02:43 | 02:22:09 | 00:00:00 | |
| DO3MHA-11 | 2026-09-06 00:44:58 | 52.09892 | 11.48218 | 141° | 11km/h | 20761m | -19.8m/s | -53.0°C | 3.2% | 51.9hPa | 2.6V | 00:00:00 | 02:22:08 | 00:00:00 | |
| TFSTFS | 2026-09-06 00:44:57 | 52.09895 | 11.48215 | 137° | 9km/h | 20781m | -20.8m/s | -53.1°C | 0.7% | 51.8hPa | 2.6V | 03:02:00 | 00:00:00 | 00:00:00 | |
| DM0DOS-11 | 2026-09-06 00:44:56 | 52.09895 | 11.48195 | 77° | 15km/h | 20882m | -20.6m/s | -53.8°C | 3.4% | 51hPa | 2.6V | 03:02:38 | 02:22:02 | 00:00:00 | |
| DF8AY | 2026-09-06 00:44:56 | 52.09896 | 11.48212 | 110° | 9km/h | 20800m | -19.6m/s | -53.2°C | 0% | 51.6hPa | 2.6V | 03:02:43 | 02:22:06 | 00:00:00 | |
| DB0DAN | 2026-09-06 00:44:55 | 52.09896 | 11.48208 | 101° | 7km/h | 20820m | -20.8m/s | -53.4°C | 0.7% | 51.46hPa | 2.6V | 00:00:00 | 00:00:00 | 00:00:00 | |
| HSKMA3-T | 2026-09-06 00:44:54 | 52.09896 | 11.48205 | 87° | 7km/h | 20841m | -20.7m/s | -53.5°C | 0% | 51.3hPa | 2.5V | 03:02:43 | 02:22:04 | 00:00:00 | |
| BIOWL1-15 | 2026-09-06 00:44:52 | 52.09895 | 11.48195 | 77° | 15km/h | 20882m | -20.6m/s | -53.8°C | 0% | 51hPa | 2.6V | 03:03:34 | 02:22:02 | 00:00:00 | |
| DL1XH-west | 2026-09-06 00:44:49 | 52.09893 | 11.48169 | 90° | 20km/h | 20961m | -20.7m/s | -54.3°C | 0% | 50.4hPa | 2.6V | 03:02:43 | 02:21:58 | 00:00:00 | |
| DL1XH1-15 | 2026-09-06 00:44:48 | 52.09890 | 11.48122 | 83° | 26km/h | 21061m | -19.1m/s | -54.5°C | 3.7% | 49.6hPa | 2.6V | 03:02:47 | 02:21:53 | 00:00:00 | |
| AA1-15 | 2026-09-06 00:44:45 | 52.09892 | 11.48141 | 87° | 22km/h | 21022m | -19.3m/s | -54.6°C | 0% | 49.9hPa | 2.5V | 03:03:34 | 02:21:55 | 00:00:00 | |
| DF8AY | 2026-09-06 00:44:45 | 52.09891 | 11.48132 | 82° | 24km/h | 21042m | -19.2m/s | -54.4°C | 0% | 49.8hPa | 2.5V | 03:03:34 | 02:21:54 | 00:00:00 | |
| HSKMA3-T | 2026-09-06 00:44:43 | 52.09890 | 11.48122 | 84° | 26km/h | 21061m | -19.1m/s | -54.5°C | 0% | 49.6hPa | 2.6V | 03:03:34 | 02:21:53 | 00:00:00 | |
| BIOWL1-15 | 2026-09-06 00:44:41 | 52.09889 | 11.48100 | 82° | 27km/h | 21098m | -19.6m/s | -54.7°C | 0.1% | 49.3hPa | 2.6V | 03:03:34 | 02:21:51 | 00:00:00 | |
| EDDB2-11 | 2026-09-06 00:44:41 | 52.09887 | 11.48089 | 79° | 26km/h | 21117m | -20.3m/s | -54.8°C | 0.8% | 49.1hPa | 2.5V | 00:00:00 | 00:00:00 | 00:00:00 | |
| DF7ER-10 | 2026-09-06 00:44:40 | 52.09887 | 11.48089 | 81° | 27km/h | 21117m | -20.3m/s | -54.8°C | 0.9% | 49.1hPa | 2.5V | 03:03:00 | 00:00:00 | 00:00:00 | |
| GOEST3-10 | 2026-09-06 00:44:39 | 52.09886 | 11.48078 | 81° | 31km/h | 21137m | -19.9m/s | -54.9°C | 3.9% | 48.9hPa | 2.5V | 00:00:00 | 02:21:49 | 00:00:00 | |
| DL1XH1-15 | 2026-09-06 00:44:38 | 52.09888 | 11.47997 | 103° | 40km/h | 21256m | -19m/s | -55.7°C | 4.3% | 48.1hPa | 2.5V | 03:02:57 | 02:21:43 | 00:00:00 | |
| DL1XH-west | 2026-09-06 00:44:37 | 52.09884 | 11.48054 | 87° | 31km/h | 21177m | -20.6m/s | -55.2°C | 0.2% | 48.7hPa | 2.5V | 03:03:34 | 02:21:47 | 00:00:00 | |
| DM0DOS-11 | 2026-09-06 00:44:36 | 52.09891 | 11.47981 | 112° | 40km/h | 21275m | -20.7m/s | -55.7°C | 4.3% | 48hPa | 2.6V | 03:02:58 | 02:21:42 | 00:00:00 | |
| DF8AY | 2026-09-06 00:44:34 | 52.09886 | 11.48013 | 100° | 37km/h | 21236m | -20.1m/s | -55.6°C | 0.2% | 48.2hPa | 2.5V | 03:03:34 | 02:21:44 | 00:00:00 | |
| HSKMA3-T | 2026-09-06 00:44:32 | 52.09891 | 11.47981 | 112° | 40km/h | 21275m | -20.7m/s | -55.7°C | 0.4% | 48hPa | 2.6V | 03:03:34 | 02:21:42 | 00:00:00 | |
| DL1XH-west | 2026-09-06 00:44:26 | 52.09922 | 11.47901 | 134° | 31km/h | 21399m | -21.4m/s | -54.3°C | 0.1% | 47hPa | 2.6V | 03:03:34 | 02:21:36 | 00:00:00 | |
| DL1XH1-15 | 2026-09-06 00:44:26 | 52.09937 | 11.47876 | 132° | 24km/h | 21459m | -19.2m/s | -53.8°C | 3.8% | 46.6hPa | 2.5V | 03:03:07 | 02:21:33 | 00:00:00 | |
| DB0DAN | 2026-09-06 00:44:25 | 52.09928 | 11.47892 | 136° | 27km/h | 21420m | -20.4m/s | -54.2°C | 0.8% | 46.9hPa | 2.6V | 00:00:00 | 00:00:00 | 00:00:00 | |
| AA1-15 | 2026-09-06 00:44:24 | 52.09933 | 11.47884 | 132° | 26km/h | 21440m | -19.7m/s | -54.1°C | 0.1% | 46.7hPa | 2.5V | 03:03:34 | 02:21:34 | 00:00:00 | |
| DF8AY | 2026-09-06 00:44:23 | 52.09937 | 11.47876 | 133° | 24km/h | 21459m | -19.2m/s | -53.8°C | 0.1% | 46.6hPa | 2.5V | 03:03:34 | 02:21:33 | 00:00:00 | |
| DL1XH-15 | 2026-09-06 00:44:23 | 52.09940 | 11.47869 | 127° | 22km/h | 21479m | -21.2m/s | -53.6°C | 3.7% | 46.4hPa | 2.6V | 03:03:08 | 02:21:32 | 00:00:00 | |
| HSKMA3-T | 2026-09-06 00:44:22 | 52.09940 | 11.47869 | 128° | 22km/h | 21479m | -21.2m/s | -53.6°C | 0% | 46.4hPa | 2.6V | 03:03:34 | 02:21:32 | 00:00:00 | |
| DL4BBY-15 | 2026-09-06 00:44:22 | 52.09940 | 11.47869 | 128° | 16km/h | 21478m | -21.2m/s | -53.9°C | 0% | 0hPa | 2.6V | 00:00:00 | 00:00:00 | 00:00:00 | |
| DB0NH | 2026-09-06 00:44:21 | 52.09944 | 11.47862 | 126° | 20km/h | 21499m | -19.7m/s | -53.5°C | 3.7% | 46.3hPa | 2.6V | 00:00:00 | 02:21:31 | 00:00:00 | |
| SP3WXH-11 | 2026-09-06 00:44:20 | 52.09947 | 11.47855 | 121° | 22km/h | 21518m | -19.3m/s | -53.5°C | 0.8% | 46.1hPa | 2.6V | 00:00:00 | 00:00:00 | 00:00:00 | |
| GOEST3-10 | 2026-09-06 00:44:19 | 52.09950 | 11.47846 | 123° | 31km/h | 21537m | -17.7m/s | -53.5°C | 3.7% | 45.9hPa | 2.6V | 00:00:00 | 02:21:29 | 00:00:00 | |
| DL1XH1-15 | 2026-09-06 00:44:18 | 52.09975 | 11.47780 | 126° | 35km/h | 21657m | -20.3m/s | -53.3°C | 3.6% | 45.1hPa | 2.6V | 03:03:17 | 02:21:23 | 00:00:00 | |
| DL1XH-west | 2026-09-06 00:44:15 | 52.09965 | 11.47804 | 120° | 35km/h | 21617m | -20.1m/s | -53.5°C | 0.1% | 45.4hPa | 2.6V | 03:03:34 | 02:21:25 | 00:00:00 | |
| HTAHTA | 2026-09-06 00:44:15 | 52.09970 | 11.47792 | 125° | 35km/h | 21637m | -21.2m/s | -53.3°C | 0.7% | 45.3hPa | 2.6V | 00:00:00 | 00:00:00 | 00:00:00 | |
| DO2SHX-10 | 2026-09-06 00:44:14 | 52.09970 | 11.47792 | 126° | 35km/h | 21637m | -21.1m/s | -53.3°C | 3.6% | 45.2hPa | 2.6V | 00:00:00 | 02:21:24 | 00:00:00 | |
| DL1XH-15 | 2026-09-06 00:44:13 | 52.09981 | 11.47769 | 128° | 37km/h | 21678m | -21.8m/s | -53.4°C | 3.7% | 45hPa | 2.6V | 03:03:18 | 02:21:22 | 00:00:00 | |
| BIOWL1-15 | 2026-09-06 00:44:13 | 52.09975 | 11.47780 | 126° | 35km/h | 21658m | -20.3m/s | -53.3°C | 0% | 45.1hPa | 2.6V | 03:03:34 | 02:21:23 | 00:00:00 | |
| HSKMA3-T | 2026-09-06 00:44:12 | 52.09981 | 11.47769 | 128° | 37km/h | 21678m | -21.8m/s | -53.4°C | 0% | 45hPa | 2.6V | 03:03:34 | 02:21:22 | 00:00:00 | |
| SMARD9-10 | 2026-09-06 00:44:12 | 52.09981 | 11.47769 | 129° | 37km/h | 21678m | -21.8m/s | -53.4°C | 0.7% | 45.0hPa | 2.6V | 00:00:00 | 00:00:00 | 00:00:00 | |
| DB0DAN | 2026-09-06 00:44:10 | 52.09991 | 11.47747 | 129° | 27km/h | 21719m | -20.7m/s | -53.2°C | 0.8% | 44.73hPa | 2.6V | 00:00:00 | 00:00:00 | 00:00:00 | |
| EDDB2-11 | 2026-09-06 00:44:10 | 52.09996 | 11.47739 | 133° | 24km/h | 21740m | -21.2m/s | -53.0°C | 0.8% | 44.6hPa | 2.6V | 00:00:00 | 00:00:00 | 00:00:00 | |
| NBG1-10 | 2026-09-06 00:44:09 | 52.09996 | 11.47738 | 134° | 20km/h | 21740m | -21.1m/s | -53.0°C | 3.6% | 44.6hPa | 2.6V | 00:00:00 | 02:21:19 | 00:00:00 | |
| DL1XH1-15 | 2026-09-06 00:44:08 | 52.10014 | 11.47708 | 136° | 7km/h | 21865m | -19.9m/s | -51.8°C | 3.2% | 43.7hPa | 2.6V | 03:03:27 | 02:21:13 | 00:00:00 | |
| DO2SHX-10 | 2026-09-06 00:44:08 | 52.10000 | 11.47731 | 134° | 20km/h | 21762m | -21.5m/s | -52.7°C | 3.5% | 44.4hPa | 2.6V | 00:00:00 | 02:21:18 | 00:00:00 | |
| DF7ER-10 | 2026-09-06 00:44:07 | 52.10000 | 11.47731 | 134° | 24km/h | 21762m | -21.6m/s | -52.7°C | 0.7% | 44.5hPa | 2.6V | 03:03:00 | 00:00:00 | 00:00:00 | |
| DM0DOS-11 | 2026-09-06 00:44:06 | 52.10016 | 11.47705 | 122° | 9km/h | 21886m | -21.7m/s | -51.8°C | 3.1% | 43.6hPa | 2.6V | 03:03:28 | 02:21:12 | 00:00:00 | |
| DL1XH-west | 2026-09-06 00:44:05 | 52.10010 | 11.47714 | 142° | 15km/h | 21824m | -20.6m/s | -52.1°C | 0% | 44hPa | 2.6V | 03:03:34 | 02:21:15 | 00:00:00 | |
| AA1-15 | 2026-09-06 00:44:03 | 52.10016 | 11.47705 | 123° | 9km/h | 21886m | -21.7m/s | -51.8°C | 0% | 43.6hPa | 2.6V | 03:03:34 | 02:21:12 | 00:00:00 | |
| DF8AY | 2026-09-06 00:44:01 | 52.10017 | 11.47702 | 98° | 9km/h | 21907m | -20.6m/s | -51.8°C | 0% | 43.5hPa | 2.6V | 03:03:34 | 02:21:11 | 00:00:00 | |
| BIOWL1-15 | 2026-09-06 00:43:58 | 52.10016 | 11.47689 | 81° | 13km/h | 21964m | -20.5m/s | -51.9°C | 0% | 43.1hPa | 2.6V | 03:03:34 | 02:21:08 | 00:00:00 | |
| DF7ER-10 | 2026-09-06 00:43:57 | 52.10015 | 11.47684 | 74° | 11km/h | 21985m | -20.5m/s | -51.9°C | 0.7% | 43.0hPa | 2.5V | 03:03:00 | 00:00:00 | 00:00:00 | |
| TFSTFS | 2026-09-06 00:43:56 | 52.10015 | 11.47679 | 81° | 15km/h | 22006m | -20.6m/s | -51.9°C | 0.7% | 42.8hPa | 2.5V | 03:03:00 | 00:00:00 | 00:00:00 | |
| DM0DOS-11 | 2026-09-06 00:43:55 | 52.10013 | 11.47653 | 89° | 20km/h | 22088m | -21m/s | -52.5°C | 3.4% | 42.2hPa | 2.5V | 03:03:38 | 02:21:02 | 00:00:00 | |
| DL1XH-west | 2026-09-06 00:43:55 | 52.10014 | 11.47674 | 82° | 13km/h | 22026m | -20.4m/s | -52°C | 0% | 42.6hPa | 2.6V | 03:04:25 | 02:21:05 | 00:00:00 | |
| AA1-15 | 2026-09-06 00:43:52 | 52.10013 | 11.47653 | 89° | 20km/h | 22088m | -21m/s | -52.5°C | 0% | 42.2hPa | 2.5V | 03:04:25 | 02:21:02 | 00:00:00 | |
| DF8AY | 2026-09-06 00:43:51 | 52.10014 | 11.47646 | 93° | 18km/h | 22108m | -21.1m/s | -52.6°C | 0% | 42.1hPa | 2.6V | 03:06:07 | 02:21:01 | 00:00:00 | |
| DL1ZP-14 | 2026-09-06 00:43:50 | 52.10014 | 11.47630 | 88° | 16km/h | 22150m | -22.0m/s | -52.7°C | 0.7% | 41.9hPa | 2.6V | 00:00:00 | 00:00:00 | 00:00:00 | |
| SP3WXH-11 | 2026-09-06 00:43:49 | 52.10014 | 11.47622 | 91° | 18km/h | 22171m | -21.0m/s | -52.8°C | 0.7% | 41.7hPa | 2.6V | 00:00:00 | 00:00:00 | 00:00:00 | |
| BIOWL1-15 | 2026-09-06 00:43:47 | 52.10017 | 11.47580 | 108° | 22km/h | 22277m | -22.8m/s | -52.7°C | 0% | 41.1hPa | 2.6V | 03:04:25 | 02:20:53 | 00:00:00 | |
| DO2SHX-10 | 2026-09-06 00:43:47 | 52.10014 | 11.47613 | 91° | 20km/h | 22191m | -20.7m/s | -52.7°C | 3.5% | 41.6hPa | 2.5V | 03:03:00 | 02:20:57 | 00:00:00 | |
| DM0DOS-11 | 2026-09-06 00:43:45 | 52.10020 | 11.47570 | 110° | 26km/h | 22300m | -22.9m/s | -52.6°C | 3.4% | 40.9hPa | 2.5V | 03:03:48 | 02:20:52 | 00:00:00 | |
| DL1XH-west | 2026-09-06 00:43:44 | 52.10017 | 11.47588 | 102° | 20km/h | 22255m | -21.7m/s | -52.8°C | 0% | 41.2hPa | 2.6V | 03:04:25 | 02:20:54 | 00:00:00 | |
| AA1-15 | 2026-09-06 00:43:42 | 52.10020 | 11.47570 | 111° | 26km/h | 22300m | -23m/s | -52.6°C | 0% | 40.9hPa | 2.5V | 03:04:25 | 02:20:52 | 00:00:00 | |
| DF8AY | 2026-09-06 00:43:40 | 52.10026 | 11.47551 | 125° | 26km/h | 22344m | -21.5m/s | -52.8°C | 0% | 40.6hPa | 2.6V | 03:06:07 | 02:20:50 | 00:00:00 | |
| DB0DAN | 2026-09-06 00:43:40 | 52.10026 | 11.47551 | 124° | 24km/h | 22344m | -21.5m/s | -52.8°C | 0.7% | 40.64hPa | 2.6V | 00:00:00 | 00:00:00 | 00:00:00 | |
| DF8AY-15 | 2026-09-06 00:43:40 | 52.10026 | 11.47551 | 125° | 26km/h | 22344m | -21.4m/s | -52.7°C | 3.4% | 40.6hPa | 2.6V | 03:03:00 | 02:20:50 | 00:00:00 | |
| EDDB2-11 | 2026-09-06 00:43:39 | 52.10035 | 11.47533 | 133° | 31km/h | 22387m | -21.3m/s | -52.3°C | 0.7% | 40.4hPa | 2.6V | 00:00:00 | 00:00:00 | 00:00:00 | |
| DL1XH1-15 | 2026-09-06 00:43:38 | 52.10069 | 11.47498 | 156° | 29km/h | 22499m | -22.9m/s | -52.2°C | 3.2% | 39.7hPa | 2.6V | 03:03:57 | 02:20:43 | 00:00:00 | |
| BIOWL1-15 | 2026-09-06 00:43:37 | 52.10041 | 11.47524 | 145° | 33km/h | 22408m | -23.1m/s | -52.2°C | 0% | 40.2hPa | 2.6V | 03:04:25 | 02:20:47 | 00:00:00 | |
| DM0DOS-11 | 2026-09-06 00:43:35 | 52.10076 | 11.47493 | 157° | 29km/h | 22521m | -23m/s | -52.2°C | 3.2% | 39.6hPa | 2.6V | 03:03:58 | 02:20:42 | 00:00:00 | |
| DL1XH-west | 2026-09-06 00:43:34 | 52.10069 | 11.47498 | 157° | 29km/h | 22499m | -23m/s | -52.2°C | 0% | 39.7hPa | 2.6V | 03:04:25 | 02:20:43 | 00:00:00 | |
| AA1-15 | 2026-09-06 00:43:31 | 52.10083 | 11.47489 | 164° | 26km/h | 22543m | -21.7m/s | -52.2°C | 0% | 39.4hPa | 2.6V | 03:04:25 | 02:20:41 | 00:00:00 | |
| DF8AY | 2026-09-06 00:43:29 | 52.10094 | 11.47483 | 160° | 20km/h | 22589m | -23.4m/s | -52.4°C | 0% | 39.2hPa | 2.6V | 03:06:07 | 02:20:39 | 00:00:00 | |
| DO2SHX-10 | 2026-09-06 00:43:29 | 52.10093 | 11.47483 | 161° | 18km/h | 22589m | -23.4m/s | -52.4°C | 3.3% | 39.1hPa | 2.6V | 00:00:00 | 02:20:39 | 00:00:00 | |
| TFSTFS | 2026-09-06 00:43:28 | 52.10098 | 11.47480 | 156° | 18km/h | 22613m | -22.6m/s | -52.5°C | 0.7% | 39.0hPa | 2.6V | 03:04:00 | 00:00:00 | 00:00:00 | |
| DL1XH1-15 | 2026-09-06 00:43:27 | 52.10120 | 11.47458 | 154° | 22km/h | 22728m | -23.4m/s | -53.2°C | 3.5% | 38.3hPa | 2.6V | 03:04:07 | 02:20:33 | 00:00:00 | |
| BIOWL1-15 | 2026-09-06 00:43:27 | 52.10102 | 11.47476 | 149° | 18km/h | 22635m | -23.7m/s | -52.6°C | 0% | 38.8hPa | 2.5V | 03:04:25 | 02:20:37 | 00:00:00 | |
| DB0DAN | 2026-09-06 00:43:25 | 52.10110 | 11.47466 | 142° | 20km/h | 22681m | -24.1m/s | -52.8°C | 0.7% | 38.6hPa | 2.6V | 00:00:00 | 00:00:00 | 00:00:00 | |
| DM0DOS-11 | 2026-09-06 00:43:25 | 52.10125 | 11.47453 | 154° | 24km/h | 22751m | -23.9m/s | -53.3°C | 3.6% | 38.1hPa | 2.6V | 03:04:08 | 02:20:32 | 00:00:00 | |
| DL1XH-west | 2026-09-06 00:43:23 | 52.10120 | 11.47457 | 154° | 22km/h | 22728m | -23.4m/s | -53.2°C | 0% | 38.3hPa | 2.6V | 03:04:25 | 02:20:33 | 00:00:00 | |
| AA1-15 | 2026-09-06 00:43:20 | 52.10137 | 11.47446 | 165° | 27km/h | 22796m | -22.4m/s | -53.3°C | 0% | 37.9hPa | 2.6V | 03:04:25 | 02:20:30 | 00:00:00 | |
| HSKMA3-T | 2026-09-06 00:43:19 | 52.10143 | 11.47443 | 173° | 26km/h | 22818m | -23.1m/s | -53.2°C | 0% | 37.8hPa | 2.6V | 03:04:25 | 02:20:29 | 00:00:00 | |
| DF8AY | 2026-09-06 00:43:18 | 52.10150 | 11.47442 | 168° | 26km/h | 22841m | -22.5m/s | -53.2°C | 0% | 37.6hPa | 2.6V | 03:06:07 | 02:20:28 | 00:00:00 | |
| BIOWL1-15 | 2026-09-06 00:43:16 | 52.10173 | 11.47436 | 170° | 18km/h | 22934m | -23m/s | -53.1°C | 0% | 37.1hPa | 2.6V | 03:04:25 | 02:20:24 | 00:00:00 | |
| DM0DOS-11 | 2026-09-06 00:43:15 | 52.10182 | 11.47431 | 153° | 16km/h | 22979m | -22.2m/s | -53.2°C | 3.6% | 36.9hPa | 2.6V | 03:04:18 | 02:20:22 | 00:00:00 | |
| DL1XH-west | 2026-09-06 00:43:13 | 52.10182 | 11.47431 | 153° | 16km/h | 22979m | -22.2m/s | -53.2°C | 0% | 36.9hPa | 2.6V | 03:04:25 | 02:20:22 | 00:00:00 | |
| 13BRC | 2026-09-06 00:43:12 | 52.10182 | 11.47431 | 154° | 16km/h | 22979m | -22.2m/s | -53.2°C | 0.7% | 36.9hPa | 2.6V | 03:04:00 | 00:00:00 | 00:00:00 | |
| DB0DAN | 2026-09-06 00:43:10 | 52.10190 | 11.47427 | 159° | 15km/h | 23024m | -22.9m/s | -52.9°C | 0.7% | 36.61hPa | 2.6V | 00:00:00 | 00:00:00 | 00:00:00 | |
| AA1-15 | 2026-09-06 00:43:10 | 52.10190 | 11.47427 | 159° | 15km/h | 23024m | -22.9m/s | -52.9°C | 0% | 36.6hPa | 2.6V | 03:04:25 | 02:20:20 | 00:00:00 | |
| HSKMA3-T | 2026-09-06 00:43:08 | 52.10196 | 11.47421 | 149° | 15km/h | 23071m | -23.7m/s | -53°C | 0% | 36.3hPa | 2.6V | 03:04:25 | 02:20:18 | 00:00:00 | |
| EDDB2-11 | 2026-09-06 00:43:08 | 52.10200 | 11.47418 | 150° | 15km/h | 23094m | -23.2m/s | -53.1°C | 0.7% | 36.2hPa | 2.6V | 00:00:00 | 00:00:00 | 00:00:00 | |
| DD8BA-10 | 2026-09-06 00:43:07 | 52.10199 | 11.47418 | 151° | 20km/h | 23094m | -23.2m/s | -53.0°C | 3.6% | 36.1hPa | 2.6V | 00:00:00 | 00:00:00 | 00:00:00 | |
| DC4HF-4 | 2026-09-06 00:43:06 | 52.10207 | 11.47411 | 147° | 15km/h | 23139m | -22.8m/s | -53.3°C | 0.7% | 36.0hPa | 2.6V | 00:00:00 | 00:00:00 | 00:00:00 | |
| DM0DOS-11 | 2026-09-06 00:43:05 | 52.10217 | 11.47395 | 130° | 20km/h | 23207m | -23.2m/s | -53°C | 3.7% | 35.6hPa | 2.6V | 03:04:28 | 02:20:12 | 00:00:00 | |
| DL1XH-west | 2026-09-06 00:43:02 | 52.10217 | 11.47395 | 131° | 20km/h | 23207m | -23.2m/s | -53°C | 0% | 35.6hPa | 2.6V | 03:05:16 | 02:20:12 | 00:00:00 | |
| BIOWL1-15 | 2026-09-06 00:43:01 | 52.10227 | 11.47372 | 131° | 22km/h | 23275m | -22.9m/s | -52.3°C | 0% | 35.2hPa | 2.6V | 03:08:40 | 02:20:09 | 00:00:00 | |
| AA1-15 | 2026-09-06 00:43:00 | 52.10223 | 11.47380 | 124° | 24km/h | 23253m | -23m/s | -52.5°C | 0% | 35.3hPa | 2.6V | 03:05:16 | 02:20:10 | 00:00:00 | |
| DF8AY | 2026-09-06 00:42:58 | 52.10250 | 11.47329 | 133° | 22km/h | 23419m | -23.3m/s | -52.3°C | 0% | 34.4hPa | 2.6V | 03:06:07 | 02:20:03 | 00:00:00 | |
| DL1XH1-15 | 2026-09-06 00:42:58 | 52.10250 | 11.47329 | 132° | 22km/h | 23419m | -23.3m/s | -52.3°C | 3.5% | 34.4hPa | 2.6V | 03:04:37 | 02:20:03 | 00:00:00 | |
| HSKMA3-T | 2026-09-06 00:42:57 | 52.10235 | 11.47357 | 129° | 24km/h | 23323m | -25m/s | -51.9°C | 0% | 35hPa | 2.6V | 03:05:16 | 02:20:07 | 00:00:00 | |
| DD8BA-10 | 2026-09-06 00:42:57 | 52.10234 | 11.47357 | 130° | 24km/h | 23324m | -24.9m/s | -51.9°C | 3.4% | 34.9hPa | 2.6V | 03:04:00 | 00:00:00 | 00:00:00 | |
| DB0DAN | 2026-09-06 00:42:55 | 52.10242 | 11.47342 | 137° | 20km/h | 23372m | -24.5m/s | -52.1°C | 0.7% | 34.68hPa | 2.6V | 00:00:00 | 00:00:00 | 00:00:00 | |
| DL1XH-west | 2026-09-06 00:42:52 | 52.10254 | 11.47322 | 132° | 20km/h | 23442m | -23.7m/s | -52.2°C | 0% | 34.3hPa | 2.6V | 03:05:16 | 02:20:02 | 00:00:00 | |
| BIOWL1-15 | 2026-09-06 00:42:50 | 52.10260 | 11.47307 | 125° | 24km/h | 23489m | -24.8m/s | -51.8°C | 0% | 34.1hPa | 2.5V | 03:08:40 | 02:20:00 | 00:00:00 | |
| AA1-15 | 2026-09-06 00:42:49 | 52.10264 | 11.47299 | 126° | 24km/h | 23513m | -23.6m/s | -51.7°C | 0% | 33.9hPa | 2.5V | 03:05:16 | 02:19:59 | 00:00:00 | |
| HSKMA3-T | 2026-09-06 00:42:47 | 52.10271 | 11.47285 | 135° | 18km/h | 23560m | -23.7m/s | -51.4°C | 0% | 33.7hPa | 2.6V | 03:05:16 | 02:19:57 | 00:00:00 | |
| SP3WXH-11 | 2026-09-06 00:42:47 | 52.10274 | 11.47279 | 140° | 16km/h | 23584m | -24.7m/s | -51.2°C | 0.6% | 33.6hPa | 2.6V | 00:00:00 | 00:00:00 | 00:00:00 | |
| DF8AY | 2026-09-06 00:42:42 | 52.10293 | 11.47267 | 168° | 16km/h | 23711m | -26.1m/s | -50.7°C | 0% | 32.9hPa | 2.6V | 03:06:07 | 02:19:51 | 00:00:00 | |
| DL1XH-west | 2026-09-06 00:42:42 | 52.10297 | 11.47265 | 171° | 16km/h | 23736m | -25.5m/s | -50.6°C | 0% | 32.8hPa | 2.6V | 03:05:16 | 02:19:50 | 00:00:00 | |
| DB0DAN | 2026-09-06 00:42:40 | 52.10297 | 11.47265 | 171° | 16km/h | 23736m | -25.5m/s | -50.6°C | 0.6% | 32.8hPa | 2.6V | 00:00:00 | 00:00:00 | 00:00:00 | |
| AA1-15 | 2026-09-06 00:42:38 | 52.10305 | 11.47264 | 183° | 16km/h | 23787m | -25.4m/s | -50.5°C | 0% | 32.5hPa | 2.6V | 03:05:16 | 02:19:48 | 00:00:00 | |
| HSKMA3-T | 2026-09-06 00:42:37 | 52.10313 | 11.47264 | 182° | 13km/h | 23837m | -25.9m/s | -50.3°C | 0% | 32.3hPa | 2.6V | 03:05:16 | 02:19:46 | 00:00:00 | |
| EDDB2-11 | 2026-09-06 00:42:37 | 52.10313 | 11.47264 | 181° | 13km/h | 23837m | -25.9m/s | -50.3°C | 0.6% | 32.3hPa | 2.6V | 00:00:00 | 00:00:00 | 00:00:00 | |
| DO2SHX-10 | 2026-09-06 00:42:35 | 52.10316 | 11.47264 | 171° | 11km/h | 23863m | -25.9m/s | -50.2°C | 2.9% | 32.1hPa | 2.6V | 03:04:00 | 02:19:45 | 00:00:00 | |
| DL1XH1-15 | 2026-09-06 00:42:34 | 52.10322 | 11.47263 | 168° | 11km/h | 23912m | -24.2m/s | -50.5°C | 3% | 31.9hPa | 2.6V | 03:04:57 | 02:19:43 | 00:00:00 | |
| BIOWL1-15 | 2026-09-06 00:42:34 | 52.10319 | 11.47263 | 180° | 11km/h | 23888m | -25.1m/s | -50.4°C | 0% | 32hPa | 2.6V | 03:08:40 | 02:19:44 | 00:00:00 | |
| DF8AY | 2026-09-06 00:42:32 | 52.10330 | 11.47260 | 159° | 13km/h | 23982m | -23.5m/s | -51°C | 0% | 31.6hPa | 2.6V | 03:06:07 | 02:19:40 | 00:00:00 | |
| DL1XH-west | 2026-09-06 00:42:31 | 52.10327 | 11.47262 | 173° | 11km/h | 23959m | -24.3m/s | -50.8°C | 0% | 31.7hPa | 2.6V | 03:05:16 | 02:19:41 | 00:00:00 | |
| DC4HF-4 | 2026-09-06 00:42:30 | 52.10333 | 11.47258 | 159° | 13km/h | 24005m | -23.0m/s | -51.1°C | 0.6% | 31.4hPa | 2.6V | 00:00:00 | 00:00:00 | 00:00:00 | |
| EDDB2-12 | 2026-09-06 00:42:29 | 52.10336 | 11.47256 | 164° | 15km/h | 24026m | -21.0m/s | -51.2°C | 0.6% | 31.4hPa | 2.6V | 00:00:00 | 00:00:00 | 00:00:00 | |
| DL1XH1-15 | 2026-09-06 00:42:28 | 52.10361 | 11.47245 | 172° | 24km/h | 24134m | -22m/s | -51.3°C | 3.2% | 30.8hPa | 2.6V | 03:05:07 | 02:19:33 | 00:00:00 | |
| AA1-15 | 2026-09-06 00:42:27 | 52.10340 | 11.47255 | 167° | 16km/h | 24047m | -21.2m/s | -51.2°C | 0% | 31.2hPa | 2.6V | 03:05:16 | 02:19:37 | 00:00:00 | |
| HSKMA3-T | 2026-09-06 00:42:26 | 52.10344 | 11.47252 | 164° | 22km/h | 24069m | -22.6m/s | -51.3°C | 0% | 31.1hPa | 2.6V | 03:05:16 | 02:19:36 | 00:00:00 | |
| DB0DAN | 2026-09-06 00:42:25 | 52.10350 | 11.47250 | 163° | 22km/h | 24090m | -22m/s | -51.4°C | 0.6% | 31.04hPa | 2.6V | 00:00:00 | 00:00:00 | 00:00:00 | |
| DM0DOS-11 | 2026-09-06 00:42:25 | 52.10367 | 11.47243 | 174° | 24km/h | 24155m | -22.1m/s | -51.3°C | 3.2% | 30.7hPa | 2.6V | 03:05:08 | 02:19:32 | 00:00:00 | |
| DF8AY | 2026-09-06 00:42:20 | 52.10388 | 11.47240 | 175° | 29km/h | 24221m | -21.5m/s | -51.3°C | 0% | 30.4hPa | 2.6V | 03:06:07 | 02:19:29 | 00:00:00 | |
| DJ2DS-15 | 2026-09-06 00:42:19 | 52.10388 | 11.47240 | 174° | 27km/h | 24221m | -21.5m/s | -51.3°C | 0.6% | 30.4hPa | 2.5V | 00:00:00 | 00:00:00 | 00:00:00 | |
| DL1XH1-15 | 2026-09-06 00:42:18 | 52.10430 | 11.47233 | 178° | 27km/h | 24357m | -24.3m/s | -51°C | 3.2% | 29.8hPa | 2.5V | 03:05:17 | 02:19:23 | 00:00:00 | |
| AA1-15 | 2026-09-06 00:42:16 | 52.10409 | 11.47236 | 179° | 27km/h | 24286m | -22m/s | -51.3°C | 0% | 30.1hPa | 2.6V | 03:05:16 | 02:19:26 | 00:00:00 | |
| HSKMA3-T | 2026-09-06 00:42:16 | 52.10416 | 11.47235 | 174° | 29km/h | 24309m | -24.8m/s | -51.2°C | 0% | 30hPa | 2.6V | 03:05:16 | 02:19:25 | 00:00:00 | |
| DM0DOS-11 | 2026-09-06 00:42:15 | 52.10437 | 11.47233 | 182° | 26km/h | 24381m | -24.5m/s | -50.9°C | 3.1% | 29.7hPa | 2.5V | 03:05:18 | 02:19:22 | 00:00:00 | |
| DJ8HS-15 | 2026-09-06 00:42:15 | 52.10416 | 11.47235 | 175° | 16km/h | 24309m | -24.7m/s | -51.1°C | 3.2% | 30.0hPa | 2.5V | 03:05:00 | 02:19:25 | 00:00:00 | |
| DO2SHX-10 | 2026-09-06 00:42:14 | 52.10423 | 11.47234 | 174° | 27km/h | 24333m | -23.8m/s | -51.0°C | 3.2% | 29.9hPa | 2.5V | 00:00:00 | 02:19:24 | 00:00:00 | |
| GOEST3-10 | 2026-09-06 00:42:13 | 52.10430 | 11.47233 | 179° | 24km/h | 24357m | -24.2m/s | -50.9°C | 3.2% | 29.8hPa | 2.5V | 03:05:00 | 00:00:00 | 00:00:00 | |
| DO3MHA-11 | 2026-09-06 00:42:12 | 52.10437 | 11.47232 | 183° | 18km/h | 24382m | -24.4m/s | -50.9°C | 3.1% | 29.7hPa | 2.5V | 00:00:00 | 02:19:22 | 00:00:00 | |
| DF7ER-10 | 2026-09-06 00:42:11 | 52.10436 | 11.47232 | 183° | 26km/h | 24382m | -24.5m/s | -50.9°C | 0.6% | 29.7hPa | 2.6V | 03:06:00 | 00:00:00 | 00:00:00 | |
| DB0DAN | 2026-09-06 00:42:10 | 52.10449 | 11.47234 | 192° | 22km/h | 24430m | -24m/s | -50.8°C | 0.6% | 29.51hPa | 2.6V | 00:00:00 | 00:00:00 | 00:00:00 | |
| DF8AY | 2026-09-06 00:42:09 | 52.10454 | 11.47236 | 200° | 20km/h | 24454m | -24.3m/s | -50.8°C | 0% | 29.4hPa | 2.6V | 03:06:07 | 02:19:19 | 00:00:00 | |
| DL1XH-west | 2026-09-06 00:42:09 | 52.10459 | 11.47239 | 206° | 18km/h | 24478m | -22.4m/s | -50.8°C | 0% | 29.2hPa | 2.6V | 03:06:07 | 02:19:18 | 00:00:00 | |
| DL1XH1-15 | 2026-09-06 00:42:08 | 52.10472 | 11.47258 | 250° | 11km/h | 24574m | -18.8m/s | -50.5°C | 3% | 28.8hPa | 2.6V | 03:05:27 | 02:19:13 | 00:00:00 | |
| AA1-15 | 2026-09-06 00:42:05 | 52.10469 | 11.47249 | 227° | 13km/h | 24536m | -16.5m/s | -50.8°C | 0% | 28.9hPa | 2.6V | 03:06:07 | 02:19:15 | 00:00:00 | |
| DF8AY | 2026-09-06 00:41:59 | 52.10473 | 11.47275 | 272° | 5km/h | 24689m | -25.1m/s | -50.1°C | 0% | 28.3hPa | 2.6V | 03:06:07 | 02:19:08 | 00:00:00 | |
| EDDB2-12 | 2026-09-06 00:41:58 | 52.10473 | 11.47277 | 265° | 4km/h | 24713m | -24.6m/s | -50.2°C | 0.5% | 28.2hPa | 2.6V | 00:00:00 | 00:00:00 | 00:00:00 | |
| AM1SDL-15 | 2026-09-06 00:41:57 | 52.10473 | 11.47277 | 266° | 11km/h | 24714m | -24.5m/s | -50.1°C | 2.9% | 28.2hPa | 2.6V | 00:00:00 | 02:19:07 | 00:00:00 | |
| DM0DOS-11 | 2026-09-06 00:41:56 | 52.10471 | 11.47293 | 289° | 11km/h | 24827m | -23.5m/s | -50.5°C | 3% | 27.7hPa | 2.6V | 03:05:38 | 02:19:02 | 00:00:00 | |
| DL1XH1-15 | 2026-09-06 00:41:56 | 52.10472 | 11.47289 | 289° | 9km/h | 24806m | -20.9m/s | -50.5°C | 3% | 27.8hPa | 2.6V | 03:05:37 | 02:19:03 | 00:00:00 | |
| DB0DAN | 2026-09-06 00:41:55 | 52.10473 | 11.47283 | 276° | 7km/h | 24762m | -24.7m/s | -50.4°C | 0.6% | 28hPa | 2.6V | 00:00:00 | 00:00:00 | 00:00:00 | |
| AA1-15 | 2026-09-06 00:41:54 | 52.10472 | 11.47286 | 283° | 7km/h | 24785m | -21.3m/s | -50.4°C | 0% | 27.9hPa | 2.6V | 03:06:07 | 02:19:04 | 00:00:00 | |
| DL1XH-west | 2026-09-06 00:41:49 | 52.10465 | 11.47307 | 304° | 9km/h | 24918m | -20.9m/s | -51.1°C | 0% | 27.3hPa | 2.6V | 03:06:07 | 02:18:58 | 00:00:00 | |
| DL1XH1-15 | 2026-09-06 00:41:48 | 52.10468 | 11.47315 | 171° | 11km/h | 25018m | -21.9m/s | -51.5°C | 3.2% | 26.9hPa | 2.6V | 03:05:47 | 02:18:53 | 00:00:00 | |
| DF8AY | 2026-09-06 00:41:46 | 52.10464 | 11.47312 | 273° | 5km/h | 24957m | -19.1m/s | -51.3°C | 0% | 27.1hPa | 2.6V | 03:06:07 | 02:18:56 | 00:00:00 | |
| DM0DOS-11 | 2026-09-06 00:41:46 | 52.10471 | 11.47314 | 174° | 15km/h | 25040m | -21.8m/s | -51.5°C | 3.3% | 26.8hPa | 2.6V | 03:05:48 | 02:18:52 | 00:00:00 | |
| AA1-15 | 2026-09-06 00:41:44 | 52.10465 | 11.47315 | 199° | 7km/h | 24997m | -21.8m/s | -51.4°C | 0% | 27hPa | 2.6V | 03:06:07 | 02:18:54 | 00:00:00 | |
| DO2SHX-10 | 2026-09-06 00:41:44 | 52.10465 | 11.47314 | 199° | 11km/h | 24997m | -21.7m/s | -51.4°C | 3.2% | 26.9hPa | 2.6V | 00:00:00 | 02:18:54 | 00:00:00 | |
| DL4XJ-10 | 2026-09-06 00:41:43 | 52.10468 | 11.47315 | 172° | 15km/h | 25018m | -21.8m/s | -51.8°C | 0% | 0hPa | 2.6V | 00:00:00 | 00:00:00 | 00:00:00 | |
| DO3MHA-11 | 2026-09-06 00:41:42 | 52.10471 | 11.47314 | 175° | 13km/h | 25040m | -21.8m/s | -51.4°C | 3.3% | 26.7hPa | 2.6V | 00:00:00 | 02:18:52 | 00:00:00 | |
| DB0DAN | 2026-09-06 00:41:40 | 52.10479 | 11.47313 | 178° | 16km/h | 25082m | -21.4m/s | -51.5°C | 0.6% | 26.62hPa | 2.6V | 00:00:00 | 00:00:00 | 00:00:00 | |
| DL1XH-west | 2026-09-06 00:41:38 | 52.10488 | 11.47314 | 190° | 15km/h | 25127m | -24.7m/s | -51.6°C | 0% | 26.5hPa | 2.6V | 03:06:07 | 02:18:48 | 00:00:00 | |
| DF8AY | 2026-09-06 00:41:37 | 52.10496 | 11.47319 | 230° | 9km/h | 25199m | -23.6m/s | -51.6°C | 0% | 26.2hPa | 2.6V | 03:06:07 | 02:18:45 | 00:00:00 | |
| DM0DOS-11 | 2026-09-06 00:41:36 | 52.10497 | 11.47329 | 298° | 9km/h | 25269m | -23.4m/s | -51.6°C | 3.3% | 25.9hPa | 2.5V | 03:05:58 | 02:18:42 | 00:00:00 | |
| AA1-15 | 2026-09-06 00:41:34 | 52.10497 | 11.47326 | 277° | 9km/h | 25245m | -23.6m/s | -51.6°C | 0% | 26hPa | 2.6V | 03:06:07 | 02:18:43 | 00:00:00 | |
| DL1XH-west | 2026-09-06 00:41:28 | 52.10487 | 11.47342 | 331° | 15km/h | 25355m | -22.3m/s | -50.8°C | 0% | 25.6hPa | 2.6V | 03:06:07 | 02:18:38 | 00:00:00 | |
| DD8BA-10 | 2026-09-06 00:41:28 | 52.10487 | 11.47342 | 331° | 18km/h | 25356m | -22.2m/s | -50.8°C | 3.1% | 25.5hPa | 2.6V | 03:06:00 | 00:00:00 | 00:00:00 | |
| DB0DAN | 2026-09-06 00:41:25 | 52.10476 | 11.47348 | 352° | 16km/h | 25422m | -24.1m/s | -51.2°C | 0.6% | 25.31hPa | 2.6V | 00:00:00 | 00:00:00 | 00:00:00 | |
| DM0DOS-11 | 2026-09-06 00:41:25 | 52.10463 | 11.47347 | 11° | 16km/h | 25489m | -21.8m/s | -51.5°C | 3.3% | 25hPa | 2.6V | 03:06:08 | 02:18:32 | 00:00:00 | |
| DF8AY | 2026-09-06 00:41:25 | 52.10449 | 11.47337 | 35° | 22km/h | 25555m | -21.6m/s | -51.7°C | 0% | 24.8hPa | 2.6V | 03:06:58 | 02:18:29 | 00:00:00 | |
| HSKMA3-T | 2026-09-06 00:41:22 | 52.10462 | 11.47347 | 11° | 16km/h | 25489m | -21.8m/s | -51.5°C | 0% | 25hPa | 2.6V | 03:06:58 | 02:18:32 | 00:00:00 | |
| DL1XH-west | 2026-09-06 00:41:17 | 52.10440 | 11.47324 | 45° | 26km/h | 25595m | -20.1m/s | -51.6°C | 0% | 24.6hPa | 2.6V | 03:06:58 | 02:18:27 | 00:00:00 | |
| DD8BA-10 | 2026-09-06 00:41:17 | 52.10440 | 11.47324 | 46° | 26km/h | 25596m | -20.1m/s | -51.6°C | 3.4% | 24.5hPa | 2.6V | 00:00:00 | 00:00:00 | 00:00:00 | |
| DL1XH1-15 | 2026-09-06 00:41:16 | 52.10424 | 11.47288 | 61° | 27km/h | 25674m | -17.9m/s | -51.3°C | 3.4% | 24.3hPa | 2.6V | 03:06:17 | 02:18:23 | 00:00:00 | |
| DF8AY | 2026-09-06 00:41:14 | 52.10427 | 11.47298 | 60° | 27km/h | 25656m | -19.4m/s | -51.4°C | 0% | 24.4hPa | 2.6V | 03:06:58 | 02:18:24 | 00:00:00 | |
| HSKMA3-T | 2026-09-06 00:41:11 | 52.10418 | 11.47267 | 67° | 26km/h | 25710m | -19.4m/s | -51.1°C | 0% | 24.1hPa | 2.6V | 03:06:58 | 02:18:21 | 00:00:00 | |
| DB0DAN | 2026-09-06 00:41:10 | 52.10415 | 11.47258 | 70° | 24km/h | 25730m | -20.1m/s | -51.1°C | 0.6% | 24.07hPa | 2.6V | 00:00:00 | 00:00:00 | 00:00:00 | |
| TFSTFS | 2026-09-06 00:41:10 | 52.10415 | 11.47258 | 71° | 24km/h | 25730m | -20.1m/s | -51.1°C | 0.6% | 24.1hPa | 2.6V | 03:06:00 | 00:00:00 | 00:00:00 | |
| 13BRC | 2026-09-06 00:41:09 | 52.10413 | 11.47249 | 76° | 22km/h | 25751m | -23.0m/s | -50.9°C | 0.6% | 24.1hPa | 2.6V | 03:06:00 | 00:00:00 | 00:00:00 | |
| DL1XH1-15 | 2026-09-06 00:41:08 | 52.10407 | 11.47205 | 76° | 16km/h | 25889m | -22m/s | -50.2°C | 3.1% | 23.6hPa | 2.6V | 03:06:27 | 02:18:13 | 00:00:00 | |
| DL1XH-west | 2026-09-06 00:41:07 | 52.10410 | 11.47233 | 75° | 18km/h | 25798m | -23.3m/s | -50.7°C | 0% | 23.9hPa | 2.6V | 03:06:58 | 02:18:17 | 00:00:00 | |
| DD8BA-10 | 2026-09-06 00:41:07 | 52.10410 | 11.47232 | 76° | 16km/h | 25799m | -23.2m/s | -50.6°C | 3.2% | 23.9hPa | 2.6V | 00:00:00 | 00:00:00 | 00:00:00 | |
| HARRO8 | 2026-09-06 00:41:05 | 52.10408 | 11.47212 | 79° | 15km/h | 25867m | -22.6m/s | -50.3°C | 0.5% | 23.6hPa | 2.6V | 00:00:00 | 00:00:00 | 00:00:00 | |
| DM0DOS-11 | 2026-09-06 00:41:04 | 52.10406 | 11.47199 | 79° | 16km/h | 25910m | -21.4m/s | -50.1°C | 3.1% | 23.4hPa | 2.6V | 03:06:28 | 02:18:12 | 00:00:00 | |
| DF8AY | 2026-09-06 00:41:04 | 52.10408 | 11.47212 | 80° | 15km/h | 25867m | -22.6m/s | -50.3°C | 0% | 23.6hPa | 2.6V | 03:06:58 | 02:18:14 | 00:00:00 | |
| AA1-15 | 2026-09-06 00:41:01 | 52.10405 | 11.47192 | 76° | 16km/h | 25933m | -24.6m/s | -50°C | 0% | 23.4hPa | 2.6V | 03:06:58 | 02:18:11 | 00:00:00 | |
| HSKMA3-T | 2026-09-06 00:41:00 | 52.10404 | 11.47185 | 77° | 16km/h | 25957m | -23.4m/s | -50°C | 0% | 23.3hPa | 2.6V | 03:06:58 | 02:18:10 | 00:00:00 | |
| DF8AY-15 | 2026-09-06 00:41:00 | 52.10404 | 11.47185 | 78° | 18km/h | 25957m | -23.3m/s | -49.9°C | 3.1% | 23.2hPa | 2.6V | 03:06:00 | 02:18:10 | 00:00:00 | |
| DF7ER-10 | 2026-09-06 00:40:59 | 52.10403 | 11.47178 | 82° | 18km/h | 25981m | -24.4m/s | -50.0°C | 0.6% | 23.2hPa | 2.6V | 03:06:00 | 00:00:00 | 00:00:00 | |
| GOEST3-10 | 2026-09-06 00:40:58 | 52.10403 | 11.47170 | 85° | 20km/h | 26004m | -22.7m/s | -50.0°C | 3.1% | 23.1hPa | 2.6V | 00:00:00 | 02:18:08 | 00:00:00 | |
| DL1XH1-15 | 2026-09-06 00:40:57 | 52.10404 | 11.47128 | 99° | 22km/h | 26112m | -21m/s | -50°C | 3% | 22.7hPa | 2.6V | 03:06:37 | 02:18:03 | 00:00:00 | |
| DL1XH-west | 2026-09-06 00:40:56 | 52.10402 | 11.47154 | 93° | 20km/h | 26048m | -20.2m/s | -50°C | 0% | 22.9hPa | 2.6V | 03:06:58 | 02:18:06 | 00:00:00 | |
| EDDB2-12 | 2026-09-06 00:40:56 | 52.10403 | 11.47145 | 95° | 20km/h | 26069m | -20.5m/s | -50.0°C | 0.5% | 22.8hPa | 2.5V | 00:00:00 | 00:00:00 | 00:00:00 | |
| DB0DAN | 2026-09-06 00:40:55 | 52.10403 | 11.47145 | 96° | 20km/h | 26068m | -20.5m/s | -50°C | 0.5% | 22.84hPa | 2.5V | 00:00:00 | 00:00:00 | 00:00:00 | |
| DF8AY | 2026-09-06 00:40:54 | 52.10403 | 11.47136 | 98° | 22km/h | 26090m | -22.8m/s | -49.9°C | 0% | 22.8hPa | 2.5V | 03:06:58 | 02:18:04 | 00:00:00 | |
| AA1-15 | 2026-09-06 00:40:50 | 52.10407 | 11.47103 | 104° | 20km/h | 26182m | -22m/s | -49.9°C | 0% | 22.5hPa | 2.6V | 03:06:58 | 02:18:00 | 00:00:00 | |
| HSKMA3-T | 2026-09-06 00:40:49 | 52.10408 | 11.47095 | 103° | 18km/h | 26204m | -22.4m/s | -49.8°C | 0% | 22.4hPa | 2.6V | 03:06:58 | 02:17:59 | 00:00:00 | |
| DF7ER-10 | 2026-09-06 00:40:48 | 52.10409 | 11.47088 | 103° | 16km/h | 26228m | -24.2m/s | -49.8°C | 0.6% | 22.4hPa | 2.6V | 03:06:00 | 00:00:00 | 00:00:00 | |
| DO2SHX-10 | 2026-09-06 00:40:47 | 52.10410 | 11.47082 | 101° | 15km/h | 26252m | -23.7m/s | -49.6°C | 3.0% | 22.2hPa | 2.6V | 03:06:00 | 02:17:57 | 00:00:00 | |
| DL1XH-15 | 2026-09-06 00:40:46 | 52.10413 | 11.47053 | 116° | 13km/h | 26358m | -18.8m/s | -49.6°C | 3% | 21.9hPa | 2.6V | 03:06:48 | 02:17:52 | 00:00:00 | |
| DL1XH1-15 | 2026-09-06 00:40:46 | 52.10412 | 11.47058 | 100° | 13km/h | 26339m | -19.3m/s | -49.7°C | 3% | 22hPa | 2.6V | 03:06:47 | 02:17:53 | 00:00:00 | |
| DL1XH-west | 2026-09-06 00:40:45 | 52.10411 | 11.47070 | 97° | 15km/h | 26298m | -22.8m/s | -49.7°C | 0% | 22.1hPa | 2.6V | 03:06:58 | 02:17:55 | 00:00:00 | |
| DF8AY | 2026-09-06 00:40:43 | 52.10412 | 11.47058 | 101° | 13km/h | 26339m | -19.3m/s | -49.7°C | 0% | 22hPa | 2.6V | 03:06:58 | 02:17:53 | 00:00:00 | |
| SP3WXH-11 | 2026-09-06 00:40:43 | 52.10413 | 11.47053 | 116° | 13km/h | 26358m | -18.8m/s | -49.6°C | 0.5% | 21.9hPa | 2.6V | 00:00:00 | 00:00:00 | 00:00:00 | |
| DO3MHA-11 | 2026-09-06 00:40:42 | 52.10413 | 11.47053 | 117° | 13km/h | 26358m | -18.7m/s | -49.5°C | 3.0% | 21.9hPa | 2.6V | 00:00:00 | 02:17:52 | 00:00:00 | |
| DB0DAN | 2026-09-06 00:40:40 | 52.10417 | 11.47044 | 137° | 15km/h | 26403m | -24.9m/s | -49.3°C | 0.5% | 21.8hPa | 2.6V | 00:00:00 | 00:00:00 | 00:00:00 | |
| AA1-15 | 2026-09-06 00:40:39 | 52.10420 | 11.47040 | 146° | 16km/h | 26427m | -24.1m/s | -49.3°C | 0% | 21.7hPa | 2.6V | 03:06:58 | 02:17:49 | 00:00:00 | |
| HSKMA3-T | 2026-09-06 00:40:38 | 52.10424 | 11.47036 | 146° | 16km/h | 26451m | -23.8m/s | -49.2°C | 0% | 21.6hPa | 2.6V | 03:06:58 | 02:17:48 | 00:00:00 | |
| BIOWL1-15 | 2026-09-06 00:40:36 | 52.10430 | 11.47028 | 141° | 15km/h | 26494m | -20.2m/s | -49.4°C | 0% | 21.4hPa | 2.6V | 03:08:40 | 02:17:46 | 00:00:00 | |
| DL1XH-west | 2026-09-06 00:40:36 | 52.10433 | 11.47024 | 134° | 9km/h | 26514m | -19.7m/s | -49.5°C | 0% | 21.4hPa | 2.6V | 03:06:58 | 02:17:45 | 00:00:00 | |
| DO2SHX-10 | 2026-09-06 00:40:35 | 52.10433 | 11.47024 | 134° | 9km/h | 26514m | -19.7m/s | -49.5°C | 3.0% | 21.3hPa | 2.6V | 03:06:00 | 02:17:45 | 00:00:00 | |
| DM0DOS-11 | 2026-09-06 00:40:34 | 52.10435 | 11.47015 | 53° | 5km/h | 26572m | -18.1m/s | -49.8°C | 3% | 21.2hPa | 2.6V | 03:06:58 | 02:17:42 | 00:00:00 | |
| DF8AY | 2026-09-06 00:40:32 | 52.10435 | 11.47015 | 54° | 5km/h | 26572m | -18.1m/s | -49.8°C | 0% | 21.2hPa | 2.6V | 03:06:58 | 02:17:42 | 00:00:00 | |
| HSKMA3-T | 2026-09-06 00:40:28 | 52.10431 | 11.47011 | 88° | 2km/h | 26654m | -24.7m/s | -49.7°C | 0% | 20.9hPa | 2.6V | 03:07:49 | 02:17:38 | 00:00:00 | |
| DD8BA-10 | 2026-09-06 00:40:27 | 52.10431 | 11.47009 | 122° | 15km/h | 26679m | -24.0m/s | -49.6°C | 3.0% | 20.8hPa | 2.6V | 00:00:00 | 00:00:00 | 00:00:00 | |
| DL1XH1-15 | 2026-09-06 00:40:26 | 52.10437 | 11.46995 | 121° | 16km/h | 26764m | -19.1m/s | -49.3°C | 2.9% | 20.6hPa | 2.6V | 03:07:07 | 02:17:33 | 00:00:00 | |
| DB0DAN | 2026-09-06 00:40:25 | 52.10433 | 11.47004 | 128° | 11km/h | 26723m | -22.9m/s | -49.5°C | 0.6% | 20.72hPa | 2.6V | 00:00:00 | 00:00:00 | 00:00:00 | |
| DL1XH-west | 2026-09-06 00:40:24 | 52.10437 | 11.46995 | 122° | 16km/h | 26764m | -19.2m/s | -49.3°C | 0% | 20.6hPa | 2.6V | 03:07:49 | 02:17:33 | 00:00:00 | |
| DF8AY | 2026-09-06 00:40:22 | 52.10440 | 11.46989 | 125° | 20km/h | 26782m | -19.5m/s | -49.2°C | 0% | 20.5hPa | 2.6V | 03:07:49 | 02:17:32 | 00:00:00 | |
| DO3MHA-11 | 2026-09-06 00:40:22 | 52.10440 | 11.46989 | 126° | 16km/h | 26783m | -19.4m/s | -49.1°C | 2.9% | 20.4hPa | 2.6V | 00:00:00 | 02:17:32 | 00:00:00 | |
| DB0NH | 2026-09-06 00:40:21 | 52.10442 | 11.46982 | 119° | 13km/h | 26802m | -18.9m/s | -49.0°C | 2.8% | 20.4hPa | 2.6V | 00:00:00 | 02:17:31 | 00:00:00 | |
| DO2SHX-10 | 2026-09-06 00:40:20 | 52.10445 | 11.46973 | 114° | 22km/h | 26822m | -20.9m/s | -48.9°C | 2.8% | 20.3hPa | 2.6V | 00:00:00 | 02:17:30 | 00:00:00 | |
| AM1SDL-15 | 2026-09-06 00:40:19 | 52.10447 | 11.46965 | 112° | 16km/h | 26843m | -21.5m/s | -48.9°C | 2.8% | 20.3hPa | 2.6V | 00:00:00 | 02:17:29 | 00:00:00 | |
| DJTTGO | 2026-09-06 00:40:18 | 52.10449 | 11.46957 | 111° | 22km/h | 26865m | -22.7m/s | -48.9°C | 0.5% | 20.3hPa | 2.6V | 03:07:00 | 00:00:00 | 00:00:00 | |
| DL1XH1-15 | 2026-09-06 00:40:17 | 52.10455 | 11.46928 | 114° | 9km/h | 26977m | -23.9m/s | -49°C | 2.8% | 19.9hPa | 2.6V | 03:07:17 | 02:17:23 | 00:00:00 | |
| HSKMA3-T | 2026-09-06 00:40:17 | 52.10451 | 11.46949 | 113° | 18km/h | 26887m | -24m/s | -48.9°C | 0% | 20.2hPa | 2.6V | 03:07:49 | 02:17:27 | 00:00:00 | |
| DL1XH-west | 2026-09-06 00:40:13 | 52.10455 | 11.46928 | 114° | 9km/h | 26977m | -23.9m/s | -49°C | 0% | 19.9hPa | 2.6V | 03:07:49 | 02:17:23 | 00:00:00 | |
| DF8AY | 2026-09-06 00:40:12 | 52.10456 | 11.46925 | 123° | 9km/h | 27000m | -23.1m/s | -49°C | 0% | 19.8hPa | 2.6V | 03:07:49 | 02:17:22 | 00:00:00 | |
| DO3MHA-11 | 2026-09-06 00:40:12 | 52.10456 | 11.46925 | 123° | 15km/h | 27000m | -23.1m/s | -49.0°C | 2.8% | 19.8hPa | 2.6V | 00:00:00 | 02:17:22 | 00:00:00 | |
| DB0DAN | 2026-09-06 00:40:10 | 52.10459 | 11.46917 | 128° | 13km/h | 27043m | -20.7m/s | -49.2°C | 0.5% | 19.72hPa | 2.6V | 00:00:00 | 00:00:00 | 00:00:00 | |
| DO9LL-15 | 2026-09-06 00:40:10 | 52.10459 | 11.46917 | 128° | 16km/h | 27044m | -20.6m/s | -49.1°C | 2.8% | 19.7hPa | 2.6V | 00:00:00 | 02:17:20 | 00:00:00 | |
| DO2SHX-10 | 2026-09-06 00:40:08 | 52.10464 | 11.46908 | 139° | 18km/h | 27088m | -26.0m/s | -49.2°C | 2.8% | 19.6hPa | 2.6V | 00:00:00 | 02:17:18 | 00:00:00 | |
| DL1XH-15 | 2026-09-06 00:40:07 | 52.10482 | 11.46885 | 170° | 9km/h | 27227m | -21.6m/s | -50.1°C | 3.1% | 19.2hPa | 2.6V | 03:07:28 | 02:17:12 | 00:00:00 | |
| DL1XH1-15 | 2026-09-06 00:40:07 | 52.10479 | 11.46887 | 155° | 13km/h | 27206m | -22.5m/s | -50°C | 3.1% | 19.2hPa | 2.6V | 03:07:27 | 02:17:13 | 00:00:00 | |
| HSKMA3-T | 2026-09-06 00:40:06 | 52.10470 | 11.46899 | 136° | 18km/h | 27139m | -24.6m/s | -49.6°C | 0% | 19.4hPa | 2.6V | 03:07:49 | 02:17:16 | 00:00:00 | |
| DO2JMG | 2026-09-06 00:40:04 | 52.10476 | 11.46890 | 143° | 15km/h | 27184m | -21.1m/s | -49.9°C | 0% | 19.3hPa | 2.6V | 03:07:49 | 02:17:14 | 00:00:00 | |
| DL1XH-west | 2026-09-06 00:40:03 | 52.10479 | 11.46887 | 155° | 13km/h | 27206m | -22.5m/s | -50°C | 0% | 19.2hPa | 2.6V | 03:07:49 | 02:17:13 | 00:00:00 | |
| DF8AY | 2026-09-06 00:40:00 | 52.10484 | 11.46885 | 210° | 5km/h | 27272m | -24.2m/s | -50.2°C | 0% | 19hPa | 2.6V | 03:07:49 | 02:17:10 | 00:00:00 | |
| DF8AY-15 | 2026-09-06 00:40:00 | 52.10484 | 11.46885 | 210° | 13km/h | 27272m | -24.1m/s | -50.1°C | 3.1% | 19.0hPa | 2.6V | 00:00:00 | 02:17:10 | 00:00:00 | |
| DO2SHX-10 | 2026-09-06 00:39:59 | 52.10485 | 11.46886 | 227° | 4km/h | 27297m | -24.0m/s | -50.2°C | 3.2% | 18.9hPa | 2.6V | 03:07:00 | 02:17:09 | 00:00:00 | |
| DL1XH1-15 | 2026-09-06 00:39:57 | 52.10490 | 11.46886 | 134° | 9km/h | 27444m | -25.5m/s | -49.8°C | 3.1% | 18.6hPa | 2.6V | 03:07:37 | 02:17:03 | 00:00:00 | |
| HSKMA3-T | 2026-09-06 00:39:56 | 52.10487 | 11.46889 | 225° | 2km/h | 27370m | -23.7m/s | -50°C | 0% | 18.8hPa | 2.6V | 03:07:49 | 02:17:06 | 00:00:00 | |
| AA1-15 | 2026-09-06 00:39:55 | 52.10488 | 11.46890 | 168° | 4km/h | 27393m | -23.9m/s | -50°C | 0% | 18.7hPa | 2.6V | 03:07:49 | 02:17:05 | 00:00:00 | |
| DJ8HS-15 | 2026-09-06 00:39:55 | 52.10488 | 11.46890 | 169° | 18km/h | 27393m | -23.9m/s | -49.9°C | 3.1% | 18.7hPa | 2.6V | 00:00:00 | 02:17:05 | 00:00:00 | |
| DM0DOS-11 | 2026-09-06 00:39:54 | 52.10492 | 11.46883 | 125° | 11km/h | 27470m | -26.5m/s | -49.7°C | 3.1% | 18.5hPa | 2.6V | 03:07:38 | 02:17:02 | 00:00:00 | |
| DO2JMG | 2026-09-06 00:39:54 | 52.10489 | 11.46889 | 138° | 7km/h | 27418m | -27.7m/s | -49.9°C | 0% | 18.7hPa | 2.6V | 03:07:49 | 02:17:04 | 00:00:00 | |
| BIOWL1-15 | 2026-09-06 00:39:52 | 52.10493 | 11.46879 | 124° | 13km/h | 27496m | -25.2m/s | -49.7°C | 0% | 18.5hPa | 2.6V | 03:08:40 | 02:17:01 | 00:00:00 | |
| DF8AY | 2026-09-06 00:39:49 | 52.10496 | 11.46868 | 111° | 16km/h | 27548m | -26.7m/s | -49.6°C | 0% | 18.3hPa | 2.6V | 03:07:49 | 02:16:59 | 00:00:00 | |
| DL1XH1-15 | 2026-09-06 00:39:47 | 52.10498 | 11.46819 | 80° | 22km/h | 27702m | -24.2m/s | -49.2°C | 3% | 17.9hPa | 2.6V | 03:07:47 | 02:16:53 | 00:00:00 | |
| HSKMA3-T | 2026-09-06 00:39:45 | 52.10500 | 11.46837 | 89° | 20km/h | 27652m | -25.4m/s | -49.3°C | 0% | 18hPa | 2.6V | 03:07:49 | 02:16:55 | 00:00:00 | |
| DM0DOS-11 | 2026-09-06 00:39:44 | 52.10498 | 11.46810 | 88° | 24km/h | 27726m | -24.6m/s | -49.2°C | 3% | 17.8hPa | 2.6V | 03:07:48 | 02:16:52 | 00:00:00 | |
| DO2JMG | 2026-09-06 00:39:41 | 52.10498 | 11.46799 | 93° | 26km/h | 27751m | -26m/s | -49.2°C | 0% | 17.7hPa | 2.6V | 03:07:49 | 02:16:51 | 00:00:00 | |
| DB0DAN | 2026-09-06 00:39:40 | 52.10498 | 11.46789 | 102° | 24km/h | 27778m | -28.8m/s | -49.3°C | 0.5% | 17.69hPa | 2.6V | 00:00:00 | 00:00:00 | 00:00:00 | |
| DF8AY | 2026-09-06 00:39:39 | 52.10500 | 11.46779 | 107° | 24km/h | 27807m | -27.7m/s | -49.3°C | 0% | 17.6hPa | 2.6V | 03:08:40 | 02:16:49 | 00:00:00 | |
| DO2SHX-10 | 2026-09-06 00:39:38 | 52.10502 | 11.46769 | 113° | 29km/h | 27834m | -26.8m/s | -49.2°C | 3.0% | 17.4hPa | 2.6V | 00:00:00 | 02:16:48 | 00:00:00 | |
| DJTTGO | 2026-09-06 00:39:37 | 52.10505 | 11.46757 | 115° | 29km/h | 27860m | -25.7m/s | 0°C | 0% | 17.4hPa | 2.6V | 00:00:00 | 00:00:00 | 00:00:00 | |
| DL1XH1-15 | 2026-09-06 00:39:36 | 52.10516 | 11.46713 | 112° | 26km/h | 27961m | -28.3m/s | -49.2°C | 3.1% | 17.1hPa | 2.6V | 03:07:57 | 02:16:43 | 00:00:00 | |
| SONDE2-11 | 2026-09-06 00:39:35 | 52.10513 | 11.46724 | 117° | 27km/h | 27936m | -25.7m/s | -49.2°C | 0.5% | 17.2hPa | 2.6V | 00:00:00 | 00:00:00 | 00:00:00 | |
| DM0DOS-11 | 2026-09-06 00:39:34 | 52.10519 | 11.46704 | 115° | 26km/h | 27988m | -27.1m/s | -49.2°C | 3% | 17.1hPa | 2.6V | 03:07:58 | 02:16:42 | 00:00:00 | |
| HSKMA3-T | 2026-09-06 00:39:34 | 52.10513 | 11.46724 | 118° | 27km/h | 27936m | -25.7m/s | -49.2°C | 0% | 17.2hPa | 2.6V | 03:08:40 | 02:16:44 | 00:00:00 | |
| DO2JMG | 2026-09-06 00:39:30 | 52.10524 | 11.46686 | 116° | 22km/h | 28039m | -24.2m/s | -49.2°C | 0% | 17hPa | 2.6V | 03:08:40 | 02:16:40 | 00:00:00 | |
| DF8AY | 2026-09-06 00:39:29 | 52.10526 | 11.46678 | 121° | 24km/h | 28062m | -24.1m/s | -49.2°C | 0% | 16.9hPa | 2.6V | 03:08:40 | 02:16:39 | 00:00:00 | |
| DO2SHX-10 | 2026-09-06 00:39:29 | 52.10526 | 11.46678 | 122° | 24km/h | 28063m | -24.0m/s | -49.1°C | 3.1% | 16.8hPa | 2.6V | 00:00:00 | 02:16:39 | 00:00:00 | |
| DL1XH1-15 | 2026-09-06 00:39:27 | 52.10548 | 11.46624 | 123° | 29km/h | 28196m | -22.6m/s | -48.7°C | 3% | 16.5hPa | 2.6V | 03:08:07 | 02:16:33 | 00:00:00 | |
| DB0DAN | 2026-09-06 00:39:25 | 52.10540 | 11.46644 | 126° | 27km/h | 28155m | -22.3m/s | -48.7°C | 0.5% | 16.66hPa | 2.6V | 00:00:00 | 00:00:00 | 00:00:00 | |
| AA1-15 | 2026-09-06 00:39:24 | 52.10544 | 11.46634 | 125° | 31km/h | 28175m | -18.7m/s | -48.7°C | 0% | 16.6hPa | 2.6V | 03:08:40 | 02:16:34 | 00:00:00 | |
| HSKMA3-T | 2026-09-06 00:39:23 | 52.10548 | 11.46624 | 124° | 31km/h | 28196m | -22.6m/s | -48.7°C | 0% | 16.5hPa | 2.6V | 03:08:40 | 02:16:33 | 00:00:00 | |
| DL1XH-west | 2026-09-06 00:39:20 | 52.10559 | 11.46591 | 117° | 31km/h | 28271m | -28.6m/s | -48.3°C | 0% | 16.4hPa | 2.6V | 03:08:40 | 02:16:30 | 00:00:00 | |
| DO2JMG | 2026-09-06 00:39:19 | 52.10563 | 11.46580 | 118° | 29km/h | 28300m | -30.5m/s | -48.2°C | 0% | 16.3hPa | 2.6V | 03:08:40 | 02:16:29 | 00:00:00 | |
| DF8AY | 2026-09-06 00:39:18 | 52.10567 | 11.46569 | 123° | 29km/h | 28330m | -29.2m/s | -48°C | 0% | 16.2hPa | 2.6V | 03:08:40 | 02:16:28 | 00:00:00 | |
| AA1-15 | 2026-09-06 00:39:14 | 52.10587 | 11.46527 | 138° | 35km/h | 28443m | -25.1m/s | -47.8°C | 0% | 16hPa | 2.6V | 03:08:40 | 02:16:24 | 00:00:00 | |
| DM0DOS-11 | 2026-09-06 00:39:14 | 52.10600 | 11.46509 | 142° | 33km/h | 28500m | -28.6m/s | -47.8°C | 2.9% | 15.8hPa | 2.6V | 03:08:18 | 02:16:22 | 00:00:00 | |
| HSKMA3-T | 2026-09-06 00:39:12 | 52.10600 | 11.46509 | 143° | 33km/h | 28500m | -28.6m/s | -47.8°C | 0% | 15.8hPa | 2.6V | 03:08:40 | 02:16:22 | 00:00:00 | |
| BIOWL1-15 | 2026-09-06 00:39:11 | 52.10636 | 11.46468 | 150° | 20km/h | 28654m | -27.3m/s | -47.3°C | 0% | 15.4hPa | 2.6V | 03:08:40 | 02:16:16 | 00:00:00 | |
| DB0DAN | 2026-09-06 00:39:10 | 52.10614 | 11.46492 | 142° | 31km/h | 28553m | -25.6m/s | -47.8°C | 0.5% | 15.71hPa | 2.6V | 00:00:00 | 00:00:00 | 00:00:00 | |
| DO2JMG | 2026-09-06 00:39:09 | 52.10620 | 11.46484 | 147° | 29km/h | 28578m | -25.7m/s | -47.8°C | 0% | 15.6hPa | 2.6V | 03:08:40 | 02:16:19 | 00:00:00 | |
| DF8AY | 2026-09-06 00:39:08 | 52.10626 | 11.46478 | 146° | 24km/h | 28603m | -25.7m/s | -47.7°C | 0% | 15.5hPa | 2.6V | 03:08:40 | 02:16:18 | 00:00:00 | |
| DO2SHX-10 | 2026-09-06 00:39:08 | 52.10626 | 11.46478 | 147° | 24km/h | 28603m | -25.6m/s | -47.6°C | 2.8% | 15.5hPa | 2.6V | 00:00:00 | 02:16:18 | 00:00:00 | |
| DD8BA-10 | 2026-09-06 00:39:07 | 52.10631 | 11.46473 | 153° | 11km/h | 28628m | -25.3m/s | -47.4°C | 2.8% | 15.5hPa | 2.6V | 00:00:00 | 00:00:00 | 00:00:00 | |
| DL1XH-15 | 2026-09-06 00:39:06 | 52.10645 | 11.46456 | 135° | 5km/h | 28771m | -30.9m/s | -47.2°C | 2.8% | 15.2hPa | 2.6V | 03:08:28 | 02:16:12 | 00:00:00 | |
| AA1-15 | 2026-09-06 00:39:03 | 52.10644 | 11.46458 | 128° | 9km/h | 28741m | -31.2m/s | -47.1°C | 0% | 15.3hPa | 2.6V | 03:08:40 | 02:16:13 | 00:00:00 | |
| HSKMA3-T | 2026-09-06 00:39:01 | 52.10646 | 11.46454 | 104° | 4km/h | 28801m | -31m/s | -47.3°C | 0% | 15.1hPa | 2.6V | 03:08:40 | 02:16:11 | 00:00:00 | |
| DF8AY | 2026-09-06 00:38:58 | 52.10647 | 11.46444 | 109° | 13km/h | 28915m | -28.5m/s | -47.1°C | 0% | 14.9hPa | 2.6V | 03:08:40 | 02:16:07 | 00:00:00 | |
| DO2JMG | 2026-09-06 00:38:58 | 52.10646 | 11.46448 | 110° | 7km/h | 28887m | -30.2m/s | -47.1°C | 0% | 14.9hPa | 2.6V | 03:08:40 | 02:16:08 | 00:00:00 | |
| DD8BA-10 | 2026-09-06 00:38:57 | 52.10647 | 11.46443 | 110° | 29km/h | 28915m | -28.4m/s | -47.0°C | 2.8% | 14.8hPa | 2.6V | 00:00:00 | 00:00:00 | 00:00:00 | |
| DB0DAN | 2026-09-06 00:38:55 | 52.10651 | 11.46432 | 127° | 20km/h | 28968m | -27m/s | -47°C | 0.5% | 14.74hPa | 2.6V | 00:00:00 | 00:00:00 | 00:00:00 | |
| DJ8HS-15 | 2026-09-06 00:38:55 | 52.10651 | 11.46432 | 127° | 24km/h | 28968m | -26.9m/s | -46.9°C | 2.8% | 14.7hPa | 2.6V | 00:00:00 | 02:16:05 | 00:00:00 | |
| DM0DOS-11 | 2026-09-06 00:38:54 | 52.10667 | 11.46406 | 142° | 37km/h | 29049m | -26.9m/s | -46.7°C | 2.8% | 14.5hPa | 2.6V | 03:08:38 | 02:16:02 | 00:00:00 | |
| BIOWL1-15 | 2026-09-06 00:38:53 | 52.10660 | 11.46415 | 138° | 33km/h | 29022m | -27.3m/s | -46.9°C | 0% | 14.6hPa | 2.6V | 03:08:40 | 02:16:03 | 00:00:00 | |
| HSKMA3-T | 2026-09-06 00:38:51 | 52.10674 | 11.46397 | 146° | 37km/h | 29075m | -25.5m/s | -46.5°C | 0% | 14.5hPa | 2.6V | 03:08:40 | 02:16:01 | 00:00:00 | |
| DO2JMG | 2026-09-06 00:38:49 | 52.10697 | 11.46381 | 169° | 29km/h | 29161m | -31.6m/s | -46.1°C | 0% | 14.3hPa | 2.6V | 03:09:31 | 02:15:58 | 00:00:00 | |
| DF8AY | 2026-09-06 00:38:47 | 52.10704 | 11.46379 | 171° | 27km/h | 29192m | -30.3m/s | -46°C | 0% | 14.3hPa | 2.6V | 03:09:31 | 02:15:57 | 00:00:00 | |
| S3001 | 2026-09-06 00:38:44 | 52.10721 | 11.46380 | 189° | 18km/h | 29282m | -28.3m/s | -45.3°C | 0.4% | 14.1hPa | 2.6V | 00:00:00 | 00:00:00 | 00:00:00 | |
| AA1-15 | 2026-09-06 00:38:42 | 52.10730 | 11.46382 | 187° | 16km/h | 29335m | -26.4m/s | -45°C | 0% | 13.9hPa | 2.6V | 03:09:31 | 02:15:52 | 00:00:00 | |
| HSKMA3-T | 2026-09-06 00:38:41 | 52.10734 | 11.46383 | 179° | 13km/h | 29360m | -24.6m/s | -44.9°C | 0% | 13.9hPa | 2.6V | 03:09:31 | 02:15:51 | 00:00:00 | |
| DB0DAN | 2026-09-06 00:38:40 | 52.10737 | 11.46383 | 176° | 15km/h | 29383m | -22.7m/s | -44.8°C | 0.4% | 13.79hPa | 2.6V | 00:00:00 | 00:00:00 | 00:00:00 | |
| DO2JMG | 2026-09-06 00:38:38 | 52.10745 | 11.46379 | 163° | 16km/h | 29434m | -30.6m/s | -44.7°C | 0% | 13.7hPa | 2.6V | 03:09:31 | 02:15:48 | 00:00:00 | |
| DL1XH-west | 2026-09-06 00:38:37 | 52.10748 | 11.46377 | 169° | 16km/h | 29462m | -28.9m/s | -44.7°C | 0% | 13.7hPa | 2.6V | 03:09:31 | 02:15:47 | 00:00:00 | |
| AA1-15 | 2026-09-06 00:38:31 | 52.10766 | 11.46363 | 143° | 11km/h | 29634m | -30.4m/s | -45.1°C | 0% | 13.3hPa | 2.6V | 03:09:31 | 02:15:41 | 00:00:00 | |
| HSKMA3-T | 2026-09-06 00:38:30 | 52.10768 | 11.46360 | 151° | 11km/h | 29666m | -33.1m/s | -45.2°C | 0% | 13.3hPa | 2.6V | 03:09:31 | 02:15:40 | 00:00:00 | |
| BIOWL1-15 | 2026-09-06 00:38:29 | 52.10773 | 11.46356 | 154° | 13km/h | 29727m | -28.4m/s | -45.3°C | 0% | 13.2hPa | 2.6V | 03:20:34 | 02:15:38 | 00:00:00 | |
| DO2JMG | 2026-09-06 00:38:27 | 52.10776 | 11.46354 | 166° | 13km/h | 29753m | -25.8m/s | -45.3°C | 0% | 13.1hPa | 2.6V | 03:09:31 | 02:15:37 | 00:00:00 | |
| DF8AY | 2026-09-06 00:38:26 | 52.10780 | 11.46353 | 174° | 16km/h | 29779m | -26.7m/s | -45.2°C | 0% | 13.1hPa | 2.6V | 03:09:31 | 02:15:36 | 00:00:00 | |
| DB0DAN | 2026-09-06 00:38:25 | 52.10785 | 11.46352 | 177° | 20km/h | 29806m | -28.7m/s | -45.2°C | 0.4% | 13.02hPa | 2.6V | 00:00:00 | 00:00:00 | 00:00:00 | |
| DM0DOS-11 | 2026-09-06 00:38:23 | 52.10801 | 11.46354 | 192° | 18km/h | 29886m | -29.1m/s | -44.8°C | 2.3% | 12.8hPa | 2.6V | 03:09:08 | 02:15:32 | 00:00:00 | |
| AA1-15 | 2026-09-06 00:38:21 | 52.10805 | 11.46355 | 197° | 13km/h | 29916m | -33.8m/s | -44.6°C | 0% | 12.8hPa | 2.6V | 03:09:31 | 02:15:31 | 00:00:00 | |
| HSKMA3-T | 2026-09-06 00:38:20 | 52.10807 | 11.46357 | 213° | 9km/h | 29949m | -32.6m/s | -44.7°C | 0% | 12.7hPa | 2.6V | 03:09:31 | 02:15:30 | 00:00:00 | |
| DO2SHX-10 | 2026-09-06 00:38:20 | 52.10807 | 11.46357 | 213° | 5km/h | 29950m | -32.5m/s | -44.6°C | 2.3% | 12.7hPa | 2.6V | 00:00:00 | 02:15:30 | 00:00:00 | |
| DF7ER-10 | 2026-09-06 00:38:19 | 52.10808 | 11.46359 | 232° | 7km/h | 29981m | -31.7m/s | -44.7°C | 0.4% | 12.7hPa | 2.6V | 03:09:00 | 00:00:00 | 00:00:00 | |
| DL1XH1-15 | 2026-09-06 00:38:18 | 52.10804 | 11.46365 | 29° | 5km/h | 30174m | -31.1m/s | -45°C | 2.4% | 12.3hPa | 2.6V | 03:09:17 | 02:15:23 | 00:00:00 | |
| DO2JMG | 2026-09-06 00:38:17 | 52.10809 | 11.46362 | 301° | 7km/h | 30047m | -32.7m/s | -44.7°C | 0% | 12.6hPa | 2.6V | 03:09:31 | 02:15:27 | 00:00:00 | |
| DL1XH-west | 2026-09-06 00:38:16 | 52.10808 | 11.46364 | 338° | 5km/h | 30079m | -32.5m/s | -44.8°C | 0% | 12.5hPa | 2.6V | 03:09:31 | 02:15:26 | 00:00:00 | |
| DF8AY | 2026-09-06 00:38:15 | 52.10807 | 11.46365 | 342° | 4km/h | 30110m | -30.4m/s | -44.9°C | 0% | 12.4hPa | 2.6V | 03:09:31 | 02:15:25 | 00:00:00 | |
| DJ8HS-15 | 2026-09-06 00:38:15 | 52.10806 | 11.46364 | 342° | 13km/h | 30110m | -30.4m/s | -44.9°C | 2.3% | 12.4hPa | 2.6V | 03:09:00 | 02:15:25 | 00:00:00 | |
| DO2SHX-10 | 2026-09-06 00:38:14 | 52.10806 | 11.46365 | 355° | 4km/h | 30142m | -33.2m/s | -45.0°C | 2.3% | 12.3hPa | 2.6V | 00:00:00 | 02:15:24 | 00:00:00 | |
| S3001 | 2026-09-06 00:38:13 | 52.10805 | 11.46365 | 29° | 4km/h | 30174m | -31.2m/s | -45.1°C | 0.4% | 12.3hPa | 2.6V | 00:00:00 | 00:00:00 | 00:00:00 | |
| DB0NH | 2026-09-06 00:38:12 | 52.10804 | 11.46364 | 81° | 15km/h | 30204m | -29.1m/s | -45.0°C | 2.4% | 12.2hPa | 2.6V | 00:00:00 | 02:15:22 | 00:00:00 | |
| DB0DAN | 2026-09-06 00:38:10 | 52.10804 | 11.46357 | 103° | 11km/h | 30261m | -31.3m/s | -45.1°C | 0.4% | 12.15hPa | 2.6V | 00:00:00 | 00:00:00 | 00:00:00 | |
| HSKMA3-T | 2026-09-06 00:38:10 | 52.10804 | 11.46357 | 103° | 11km/h | 30262m | -31.3m/s | -45.1°C | 0% | 12.2hPa | 2.6V | 03:09:31 | 02:15:20 | 00:00:00 | |
| DL2RXE-15 | 2026-09-06 00:38:10 | 52.10804 | 11.46357 | 104° | 11km/h | 30262m | -31.3m/s | -45.1°C | 0.4% | 12.2hPa | 2.6V | 00:00:00 | 00:00:00 | 00:00:00 | |
| AM1SDL-15 | 2026-09-06 00:38:09 | 52.10805 | 11.46352 | 100° | 16km/h | 30292m | -30.9m/s | -45.1°C | 2.3% | 12.0hPa | 2.6V | 00:00:00 | 02:15:19 | 00:00:00 | |
| DL1XH1-15 | 2026-09-06 00:38:08 | 52.10805 | 11.46312 | 84° | 15km/h | 30471m | -28.6m/s | -46°C | 2.5% | 11.7hPa | 2.6V | 03:09:27 | 02:15:13 | 00:00:00 | |
| DO2JMG | 2026-09-06 00:38:07 | 52.10806 | 11.46338 | 93° | 16km/h | 30352m | -29.3m/s | -45.4°C | 0% | 12hPa | 2.6V | 03:09:31 | 02:15:17 | 00:00:00 | |
| DL1XH-west | 2026-09-06 00:38:05 | 52.10806 | 11.46325 | 82° | 18km/h | 30413m | -31.1m/s | -45.8°C | 0% | 11.9hPa | 2.6V | 03:09:31 | 02:15:15 | 00:00:00 | |
| DF8AY | 2026-09-06 00:38:04 | 52.10805 | 11.46318 | 85° | 16km/h | 30443m | -29.7m/s | -45.9°C | 0% | 11.8hPa | 2.6V | 03:09:31 | 02:15:14 | 00:00:00 | |
| HSKMA3-T | 2026-09-06 00:37:59 | 52.10806 | 11.46290 | 115° | 16km/h | 30570m | -25.8m/s | -45.9°C | 0% | 11.6hPa | 2.6V | 03:09:31 | 02:15:09 | 00:00:00 | |
| TFSTFS | 2026-09-06 00:37:59 | 52.10806 | 11.46290 | 116° | 16km/h | 30571m | -25.8m/s | -45.9°C | 0.4% | 11.6hPa | 2.6V | 03:09:00 | 00:00:00 | 00:00:00 | |
| DL1XH1-15 | 2026-09-06 00:37:58 | 52.10825 | 11.46252 | 137° | 16km/h | 30711m | -22.2m/s | -46.2°C | 2.7% | 11.3hPa | 2.6V | 03:09:37 | 02:15:03 | 00:00:00 | |
| DO2JMG | 2026-09-06 00:37:56 | 52.10814 | 11.46272 | 130° | 22km/h | 30647m | -23.9m/s | -46.1°C | 0% | 11.4hPa | 2.6V | 03:10:22 | 02:15:06 | 00:00:00 | |
| DB0DAN | 2026-09-06 00:37:55 | 52.10818 | 11.46265 | 130° | 22km/h | 30669m | -21.5m/s | -46.2°C | 0.4% | 11.37hPa | 2.6V | 00:00:00 | 00:00:00 | 00:00:00 | |
| DF8AY | 2026-09-06 00:37:54 | 52.10822 | 11.46258 | 131° | 22km/h | 30690m | -20.5m/s | -46.1°C | 0% | 11.3hPa | 2.6V | 03:11:13 | 02:15:04 | 00:00:00 | |
| DM0DOS-11 | 2026-09-06 00:37:53 | 52.10828 | 11.46248 | 149° | 11km/h | 30734m | -24.7m/s | -46.2°C | 2.7% | 11.3hPa | 2.6V | 03:09:38 | 02:15:02 | 00:00:00 | |
| HSKMA3-T | 2026-09-06 00:37:49 | 52.10830 | 11.46252 | 285° | 13km/h | 30824m | -32.6m/s | -46°C | 0% | 11.2hPa | 2.6V | 03:10:22 | 02:14:59 | 00:00:00 | |
| DL1XH1-15 | 2026-09-06 00:37:48 | 52.10825 | 11.46282 | 253° | 11km/h | 31012m | -25.3m/s | -45.9°C | 2.6% | 10.8hPa | 2.6V | 03:09:47 | 02:14:53 | 00:00:00 | |
| BIOWL1-15 | 2026-09-06 00:37:46 | 52.10826 | 11.46267 | 287° | 15km/h | 30923m | -33.7m/s | -46.1°C | 0% | 11hPa | 2.5V | 03:20:34 | 02:14:56 | 00:00:00 | |
| DO2JMG | 2026-09-06 00:37:45 | 52.10825 | 11.46273 | 286° | 13km/h | 30955m | -32.3m/s | -46.2°C | 0% | 10.9hPa | 2.6V | 03:10:22 | 02:14:55 | 00:00:00 | |
| DO2SHX-10 | 2026-09-06 00:37:44 | 52.10824 | 11.46277 | 276° | 11km/h | 30986m | -28.9m/s | -46.1°C | 2.7% | 10.8hPa | 2.6V | 00:00:00 | 02:14:54 | 00:00:00 | |
| DM0DOS-11 | 2026-09-06 00:37:43 | 52.10825 | 11.46286 | 256° | 13km/h | 31037m | -23.2m/s | -45.8°C | 2.6% | 10.8hPa | 2.6V | 03:09:48 | 02:14:52 | 00:00:00 | |
| DF8AY | 2026-09-06 00:37:43 | 52.10824 | 11.46282 | 253° | 11km/h | 31013m | -25.3m/s | -45.9°C | 0% | 10.8hPa | 2.6V | 03:11:13 | 02:14:53 | 00:00:00 | |
| DB0NH | 2026-09-06 00:37:42 | 52.10825 | 11.46286 | 257° | 18km/h | 31037m | -23.2m/s | -45.7°C | 2.6% | 10.7hPa | 2.6V | 00:00:00 | 02:14:52 | 00:00:00 | |
| DB0DAN | 2026-09-06 00:37:40 | 52.10828 | 11.46294 | 225° | 13km/h | 31080m | -20.2m/s | -45.6°C | 0.4% | 10.69hPa | 2.6V | 00:00:00 | 00:00:00 | 00:00:00 | |
| AA1-15 | 2026-09-06 00:37:39 | 52.10831 | 11.46298 | 234° | 15km/h | 31098m | -16.2m/s | -45.5°C | 0% | 10.7hPa | 2.6V | 03:10:22 | 02:14:49 | 00:00:00 | |
| HSKMA3-T | 2026-09-06 00:37:38 | 52.10832 | 11.46303 | 258° | 13km/h | 31114m | -18.1m/s | -45.5°C | 0% | 10.6hPa | 2.7V | 03:10:22 | 02:14:48 | 00:00:00 | |
| DO2JMG | 2026-09-06 00:37:34 | 52.10828 | 11.46323 | 309° | 16km/h | 31183m | -18.8m/s | -45.4°C | 0% | 10.5hPa | 2.6V | 03:10:22 | 02:14:44 | 00:00:00 | |
| DF8AY | 2026-09-06 00:37:32 | 52.10822 | 11.46330 | 346° | 15km/h | 31221m | -18.8m/s | -45.4°C | 0% | 10.5hPa | 2.6V | 03:11:13 | 02:14:42 | 00:00:00 | |
| HSKMA3-T | 2026-09-06 00:37:28 | 52.10809 | 11.46323 | 42° | 22km/h | 31313m | -34.3m/s | -45°C | 0% | 10.4hPa | 2.6V | 03:10:22 | 02:14:38 | 00:00:00 | |
| DF7ER-10 | 2026-09-06 00:37:27 | 52.10805 | 11.46316 | 43° | 22km/h | 31347m | -35.0m/s | -44.9°C | 0.4% | 10.3hPa | 2.6V | 03:10:00 | 00:00:00 | 00:00:00 | |
| DB0DAN | 2026-09-06 00:37:25 | 52.10796 | 11.46303 | 44° | 24km/h | 31414m | -33.6m/s | -44.6°C | 0.4% | 10.22hPa | 2.6V | 00:00:00 | 00:00:00 | 00:00:00 | |
| DM0DOS-11 | 2026-09-06 00:37:23 | 52.10787 | 11.46277 | 74° | 22km/h | 31515m | -37.2m/s | -44.6°C | 2.6% | 10.1hPa | 2.6V | 03:10:08 | 02:14:32 | 00:00:00 | |
| DO2JMG | 2026-09-06 00:37:23 | 52.10789 | 11.46286 | 67° | 22km/h | 31478m | -37.7m/s | -44.7°C | 0% | 10.1hPa | 2.6V | 03:10:22 | 02:14:33 | 00:00:00 | |
| DL1XH-west | 2026-09-06 00:37:22 | 52.10787 | 11.46277 | 75° | 22km/h | 31515m | -37.2m/s | -44.6°C | 0% | 10.1hPa | 2.6V | 03:10:22 | 02:14:32 | 00:00:00 | |
| BIOWL1-15 | 2026-09-06 00:37:22 | 52.10785 | 11.46260 | 90° | 18km/h | 31587m | -34.9m/s | -44.1°C | 0% | 9.9hPa | 2.6V | 03:20:34 | 02:14:30 | 00:00:00 | |
| DF8AY | 2026-09-06 00:37:21 | 52.10788 | 11.46230 | 95° | 20km/h | 31707m | -25.3m/s | -43.3°C | 0% | 9.8hPa | 2.6V | 03:11:13 | 02:14:26 | 00:00:00 | |
| AA1-15 | 2026-09-06 00:37:18 | 52.10787 | 11.46245 | 101° | 18km/h | 31654m | -30m/s | -43.7°C | 0% | 9.8hPa | 2.6V | 03:10:22 | 02:14:28 | 00:00:00 | |
| HSKMA3-T | 2026-09-06 00:37:17 | 52.10787 | 11.46238 | 95° | 18km/h | 31682m | -26.4m/s | -43.5°C | 0% | 9.8hPa | 2.6V | 03:10:22 | 02:14:27 | 00:00:00 | |
| DO2JMG | 2026-09-06 00:37:12 | 52.10785 | 11.46193 | 70° | 29km/h | 31789m | -19m/s | -42.9°C | 0% | 9.6hPa | 2.6V | 03:10:22 | 02:14:22 | 00:00:00 | |
| DO3MHA-11 | 2026-09-06 00:37:12 | 52.10784 | 11.46192 | 71° | 31km/h | 31789m | -19.0m/s | -42.9°C | 2.3% | 9.6hPa | 2.6V | 03:10:00 | 02:14:22 | 00:00:00 | |
| DB0DAN | 2026-09-06 00:37:10 | 52.10779 | 11.46168 | 65° | 33km/h | 31831m | -23.7m/s | -42.6°C | 0.4% | 9.58hPa | 2.6V | 00:00:00 | 00:00:00 | 00:00:00 | |
| BIOWL1-15 | 2026-09-06 00:37:09 | 52.10775 | 11.46155 | 66° | 35km/h | 31857m | -29.4m/s | -42.5°C | 0% | 9.5hPa | 2.6V | 03:20:34 | 02:14:19 | 00:00:00 | |
| DL1XH1-15 | 2026-09-06 00:37:08 | 52.10772 | 11.46081 | 111° | 29km/h | 32038m | -26.2m/s | -42.4°C | 2.3% | 9.2hPa | 2.6V | 03:10:27 | 02:14:13 | 00:00:00 | |
| AA1-15 | 2026-09-06 00:37:08 | 52.10772 | 11.46141 | 73° | 35km/h | 31886m | -29.7m/s | -42.5°C | 0% | 9.5hPa | 2.6V | 03:10:22 | 02:14:18 | 00:00:00 | |
| HSKMA3-T | 2026-09-06 00:37:07 | 52.10770 | 11.46127 | 79° | 31km/h | 31917m | -32.8m/s | -42.5°C | 0% | 9.5hPa | 2.6V | 03:11:13 | 02:14:17 | 00:00:00 | |
| DL1XH-west | 2026-09-06 00:37:02 | 52.10776 | 11.46070 | 115° | 29km/h | 32064m | -24.8m/s | -42.3°C | 0% | 9.2hPa | 2.6V | 03:11:13 | 02:14:12 | 00:00:00 | |
| DO2SHX-10 | 2026-09-06 00:37:02 | 52.10775 | 11.46070 | 115° | 33km/h | 32064m | -24.7m/s | -42.2°C | 2.3% | 9.2hPa | 2.6V | 00:00:00 | 02:14:12 | 00:00:00 | |
| SMARD9-10 | 2026-09-06 00:37:01 | 52.10776 | 11.46070 | 116° | 29km/h | 32064m | -24.8m/s | -42.3°C | 0.3% | 9.3hPa | 2.6V | 00:00:00 | 00:00:00 | 00:00:00 | |
| SONDE2-11 | 2026-09-06 00:37:00 | 52.10788 | 11.46034 | 120° | 35km/h | 32131m | -20.3m/s | -42.2°C | 0.3% | 9.1hPa | 2.6V | 00:00:00 | 00:00:00 | 00:00:00 | |
| 13BRC | 2026-09-06 00:36:59 | 52.10788 | 11.46034 | 122° | 37km/h | 32131m | -20.3m/s | -42.2°C | 0.3% | 9.1hPa | 2.6V | 03:11:00 | 00:00:00 | 00:00:00 | |
| DL1XH1-15 | 2026-09-06 00:36:58 | 52.10804 | 11.45970 | 116° | 24km/h | 32263m | -22.3m/s | -41°C | 2% | 8.9hPa | 2.6V | 03:10:37 | 02:14:03 | 00:00:00 | |
| BIOWL1-15 | 2026-09-06 00:36:57 | 52.10794 | 11.46009 | 109° | 31km/h | 32174m | -20.7m/s | -41.9°C | 0% | 9.1hPa | 2.6V | 03:20:34 | 02:14:07 | 00:00:00 | |
| HSKMA3-T | 2026-09-06 00:36:56 | 52.10797 | 11.45998 | 109° | 27km/h | 32195m | -22.1m/s | -41.6°C | 0% | 9.1hPa | 2.6V | 03:11:13 | 02:14:06 | 00:00:00 | |
| DL1XH-west | 2026-09-06 00:36:52 | 52.10807 | 11.45961 | 125° | 27km/h | 32287m | -25.8m/s | -40.8°C | 0% | 8.9hPa | 2.6V | 03:11:13 | 02:14:02 | 00:00:00 | |
| DO2JMG | 2026-09-06 00:36:51 | 52.10811 | 11.45952 | 126° | 27km/h | 32312m | -25.6m/s | -40.8°C | 0% | 8.9hPa | 2.6V | 03:11:13 | 02:14:01 | 00:00:00 | |
| GOEST3-10 | 2026-09-06 00:36:51 | 52.10811 | 11.45952 | 126° | 27km/h | 32312m | -25.6m/s | -40.7°C | 2.0% | 8.9hPa | 2.6V | 03:10:00 | 00:00:00 | 00:00:00 | |
| DB0UT-7 | 2026-09-06 00:36:50 | 52.10815 | 11.45943 | 132° | 22km/h | 32338m | -26.9m/s | -40.7°C | 2.0% | 8.8hPa | 2.6V | 00:00:00 | 02:14:00 | 00:00:00 | |
| DL1XH1-15 | 2026-09-06 00:36:48 | 52.10832 | 11.45879 | 82° | 20km/h | 32529m | -28.2m/s | -41.1°C | 2.1% | 8.6hPa | 2.6V | 03:10:47 | 02:13:53 | 00:00:00 | |
| BIOWL1-15 | 2026-09-06 00:36:47 | 52.10833 | 11.45887 | 86° | 18km/h | 32501m | -28.3m/s | -41°C | 0% | 8.7hPa | 2.6V | 03:20:34 | 02:13:54 | 00:00:00 | |
| HSKMA3-T | 2026-09-06 00:36:46 | 52.10831 | 11.45905 | 112° | 24km/h | 32447m | -26.5m/s | -40.9°C | 0% | 8.7hPa | 2.6V | 03:11:13 | 02:13:56 | 00:00:00 | |
| DF7PN | 2026-09-06 00:36:46 | 52.10832 | 11.45895 | 98° | 22km/h | 32474m | -27.0m/s | 0°C | -1.0% | -1.0hPa | 2.6V | 00:00:00 | 00:00:00 | 00:00:00 | |
| DF7ER-10 | 2026-09-06 00:36:44 | 52.10832 | 11.45887 | 87° | 18km/h | 32501m | -28.3m/s | -41.0°C | 0.3% | 8.7hPa | 2.6V | 03:11:00 | 00:00:00 | 00:00:00 | |
| DM0DOS-11 | 2026-09-06 00:36:43 | 52.10831 | 11.45871 | 70° | 18km/h | 32556m | -27.9m/s | -41.1°C | 2% | 8.6hPa | 2.6V | 03:10:48 | 02:13:52 | 00:00:00 | |
| DF8AY | 2026-09-06 00:36:42 | 52.10831 | 11.45871 | 71° | 18km/h | 32556m | -28m/s | -41.1°C | 0% | 8.6hPa | 2.6V | 03:11:13 | 02:13:52 | 00:00:00 | |
| DO2JMG | 2026-09-06 00:36:41 | 52.10830 | 11.45864 | 71° | 22km/h | 32586m | -34.2m/s | -41.1°C | 0% | 8.6hPa | 2.6V | 03:11:13 | 02:13:51 | 00:00:00 | |
| DB0DAN | 2026-09-06 00:36:40 | 52.10828 | 11.45855 | 72° | 20km/h | 32622m | -37.5m/s | -41.1°C | 0.3% | 8.53hPa | 2.6V | 00:00:00 | 00:00:00 | 00:00:00 | |
| DF8AY-15 | 2026-09-06 00:36:40 | 52.10828 | 11.45855 | 73° | 22km/h | 32622m | -37.5m/s | -41.1°C | 2.1% | 8.5hPa | 2.6V | 00:00:00 | 02:13:50 | 00:00:00 | |
| 13BRC | 2026-09-06 00:36:39 | 52.10826 | 11.45847 | 76° | 24km/h | 32659m | -35.6m/s | -41.3°C | 0.3% | 8.5hPa | 2.6V | 03:11:00 | 00:00:00 | 00:00:00 | |
| DL1XH1-15 | 2026-09-06 00:36:38 | 52.10827 | 11.45777 | 97° | 29km/h | 32845m | -25.6m/s | -41.4°C | 2.2% | 8.2hPa | 2.6V | 03:10:57 | 02:13:43 | 00:00:00 | |
| BIOWL1-15 | 2026-09-06 00:36:36 | 52.10825 | 11.45813 | 91° | 29km/h | 32763m | -32.5m/s | -41.5°C | 0% | 8.3hPa | 2.6V | 03:20:34 | 02:13:46 | 00:00:00 | |
| HSKMA3-T | 2026-09-06 00:36:35 | 52.10826 | 11.45801 | 95° | 31km/h | 32794m | -28.8m/s | -41.6°C | 0% | 8.3hPa | 2.6V | 03:11:13 | 02:13:45 | 00:00:00 | |
| TFSTFS | 2026-09-06 00:36:35 | 52.10826 | 11.45800 | 96° | 31km/h | 32794m | -28.8m/s | -41.6°C | 0.3% | 8.3hPa | 2.5V | 03:11:00 | 00:00:00 | 00:00:00 | |
| DM0DOS-11 | 2026-09-06 00:36:33 | 52.10828 | 11.45765 | 96° | 26km/h | 32871m | -28.7m/s | -41.3°C | 2.2% | 8.2hPa | 2.5V | 03:10:58 | 02:13:42 | 00:00:00 | |
| DO2JMG | 2026-09-06 00:36:31 | 52.10829 | 11.45754 | 102° | 24km/h | 32902m | -33.3m/s | -41.2°C | 0% | 8.2hPa | 2.6V | 03:11:13 | 02:13:41 | 00:00:00 | |
| DL1XH-west | 2026-09-06 00:36:30 | 52.10830 | 11.45746 | 110° | 20km/h | 32933m | -30.5m/s | -41°C | 0% | 8.1hPa | 2.6V | 03:11:13 | 02:13:40 | 00:00:00 | |
| HTAHTA | 2026-09-06 00:36:29 | 52.10839 | 11.45728 | 141° | 20km/h | 33032m | -31.2m/s | -40.4°C | 0.3% | 8.0hPa | 2.6V | 00:00:00 | 00:00:00 | 00:00:00 | |
| DL1XH1-15 | 2026-09-06 00:36:28 | 52.10849 | 11.45702 | 96° | 15km/h | 33175m | -37.1m/s | -40.1°C | 2% | 7.9hPa | 2.6V | 03:11:07 | 02:13:33 | 00:00:00 | |
| DB0DAN | 2026-09-06 00:36:25 | 52.10846 | 11.45715 | 118° | 18km/h | 33099m | -39.9m/s | -40.1°C | 0.3% | 7.96hPa | 2.6V | 00:00:00 | 00:00:00 | 00:00:00 | |
| AA1-15 | 2026-09-06 00:36:25 | 52.10846 | 11.45715 | 119° | 18km/h | 33099m | -39.9m/s | -40.1°C | 0% | 8hPa | 2.6V | 03:11:13 | 02:13:35 | 00:00:00 | |
| HSKMA3-T | 2026-09-06 00:36:24 | 52.10848 | 11.45708 | 111° | 16km/h | 33138m | -38.2m/s | -40.1°C | 0% | 7.9hPa | 2.6V | 03:11:13 | 02:13:34 | 00:00:00 | |
| BIOWL1-15 | 2026-09-06 00:36:23 | 52.10849 | 11.45702 | 96° | 15km/h | 33175m | -37.1m/s | -40.1°C | 0% | 7.9hPa | 2.6V | 03:20:34 | 02:13:33 | 00:00:00 | |
| DM0DOS-11 | 2026-09-06 00:36:23 | 52.10849 | 11.45696 | 83° | 15km/h | 33210m | -33.8m/s | -40°C | 2% | 7.8hPa | 2.6V | 03:11:08 | 02:13:32 | 00:00:00 | |
| DO2JMG | 2026-09-06 00:36:21 | 52.10848 | 11.45690 | 53° | 13km/h | 33243m | -32.9m/s | -39.9°C | 0% | 7.8hPa | 2.6V | 03:11:13 | 02:13:31 | 00:00:00 | |
| DL1XH-west | 2026-09-06 00:36:20 | 52.10845 | 11.45687 | 25° | 16km/h | 33276m | -34.1m/s | -39.7°C | 0% | 7.7hPa | 2.6V | 03:11:13 | 02:13:30 | 00:00:00 | |
| DF8AY | 2026-09-06 00:36:19 | 52.10841 | 11.45685 | 10° | 18km/h | 33308m | -32.5m/s | -39.6°C | 0% | 7.7hPa | 2.6V | 03:11:13 | 02:13:29 | 00:00:00 | |
| DJ2DS-15 | 2026-09-06 00:36:19 | 52.10835 | 11.45684 | 5° | 20km/h | 33338m | -27.3m/s | -39.7°C | 0.2% | 7.7hPa | 2.6V | 00:00:00 | 00:00:00 | 00:00:00 | |
| DL1XH1-15 | 2026-09-06 00:36:18 | 52.10812 | 11.45665 | 71° | 31km/h | 33476m | -30.2m/s | -39.9°C | 2% | 7.5hPa | 2.6V | 03:11:17 | 02:13:23 | 00:00:00 | |
| AA1-15 | 2026-09-06 00:36:14 | 52.10815 | 11.45675 | 53° | 24km/h | 33446m | -30.2m/s | -39.7°C | 0% | 7.5hPa | 2.6V | 03:12:04 | 02:13:24 | 00:00:00 | |
| DO2JMG | 2026-09-06 00:36:11 | 52.10808 | 11.45634 | 82° | 46km/h | 33533m | -29m/s | -40.1°C | 0% | 7.5hPa | 2.6V | 03:12:04 | 02:13:21 | 00:00:00 | |
| DB0DAN | 2026-09-06 00:36:10 | 52.10806 | 11.45616 | 84° | 46km/h | 33560m | -27.1m/s | -40.1°C | 0.3% | 7.44hPa | 2.6V | 00:00:00 | 00:00:00 | 00:00:00 | |
| DF8AY | 2026-09-06 00:36:09 | 52.10805 | 11.45596 | 85° | 47km/h | 33585m | -23.7m/s | -40.1°C | 0% | 7.3hPa | 2.6V | 03:12:04 | 02:13:19 | 00:00:00 | |
| S3001 | 2026-09-06 00:36:09 | 52.10805 | 11.45596 | 84° | 47km/h | 33585m | -23.7m/s | -40.1°C | 0.3% | 7.3hPa | 2.6V | 00:00:00 | 00:00:00 | 00:00:00 | |
| DL1XH1-15 | 2026-09-06 00:36:08 | 52.10801 | 11.45525 | 109° | 7km/h | 33708m | -22.6m/s | -39.2°C | 1.9% | 7.2hPa | 2.6V | 03:11:27 | 02:13:13 | 00:00:00 | |
| BIOWL1-15 | 2026-09-06 00:36:06 | 52.10818 | 11.45472 | 111° | 58km/h | 33822m | -23.5m/s | -38.5°C | 0% | 7.1hPa | 2.6V | 03:20:34 | 02:13:08 | 00:00:00 | |
| HSKMA3-T | 2026-09-06 00:36:03 | 52.10800 | 11.45524 | 109° | 9km/h | 33708m | -22.7m/s | -39.3°C | 0% | 7.2hPa | 2.6V | 03:12:04 | 02:13:13 | 00:00:00 | |
| DM0DOS-11 | 2026-09-06 00:36:03 | 52.10802 | 11.45521 | 128° | 11km/h | 33731m | -22.8m/s | -39.2°C | 2% | 7.2hPa | 2.6V | 03:11:28 | 02:13:12 | 00:00:00 | |
| DO2JMG | 2026-09-06 00:36:00 | 52.10808 | 11.45506 | 120° | 38km/h | 33779m | -25.9m/s | -39°C | 0% | 7.2hPa | 2.6V | 03:12:04 | 02:13:10 | 00:00:00 | |
| DF8AY | 2026-09-06 00:36:00 | 52.10828 | 11.45422 | 105° | 66km/h | 33865m | -21.4m/s | -38.1°C | 0% | 7hPa | 2.6V | 03:12:04 | 02:13:06 | 00:00:00 | |
| DL1XH-west | 2026-09-06 00:35:59 | 52.10813 | 11.45492 | 116° | 47km/h | 33801m | -24m/s | -38.8°C | 0% | 7.2hPa | 2.5V | 03:12:04 | 02:13:09 | 00:00:00 | |
| DO2SHX-10 | 2026-09-06 00:35:59 | 52.10813 | 11.45492 | 116° | 57km/h | 33801m | -23.9m/s | -38.7°C | 1.9% | 7.1hPa | 2.6V | 03:11:00 | 02:13:09 | 00:00:00 | |
| DL1XH1-15 | 2026-09-06 00:35:58 | 52.10833 | 11.45376 | 83° | 15km/h | 33954m | -30.2m/s | -37.8°C | 1.7% | 6.9hPa | 2.6V | 03:11:37 | 02:13:03 | 00:00:00 | |
| HTAHTA | 2026-09-06 00:35:58 | 52.10823 | 11.45448 | 107° | 62km/h | 33845m | -21.7m/s | -38.3°C | 0.2% | 7.1hPa | 2.6V | 00:00:00 | 00:00:00 | 00:00:00 | |
| SONDE2-11 | 2026-09-06 00:35:57 | 52.10823 | 11.45448 | 107° | 62km/h | 33845m | -21.7m/s | -38.3°C | 0.2% | 7.1hPa | 2.6V | 00:00:00 | 00:00:00 | 00:00:00 | |
| DO2SHX-10 | 2026-09-06 00:35:56 | 52.10827 | 11.45422 | 106° | 47km/h | 33866m | -21.4m/s | -38.0°C | 1.7% | 7.0hPa | 2.6V | 00:00:00 | 02:13:06 | 00:00:00 | |
| DJ8HS-15 | 2026-09-06 00:35:55 | 52.10831 | 11.45397 | 105° | 22km/h | 33889m | -26.9m/s | -37.9°C | 1.7% | 7.0hPa | 2.6V | 00:00:00 | 02:13:05 | 00:00:00 | |
| NBG1-10 | 2026-09-06 00:35:54 | 52.10833 | 11.45383 | 92° | 24km/h | 33921m | -38.1m/s | -37.8°C | 1.7% | 7.0hPa | 2.6V | 00:00:00 | 02:13:04 | 00:00:00 | |
| DM0DOS-11 | 2026-09-06 00:35:53 | 52.10833 | 11.45371 | 81° | 15km/h | 33977m | -21.9m/s | -37.8°C | 1.7% | 6.9hPa | 2.6V | 03:11:38 | 02:13:02 | 00:00:00 | |
| HSKMA3-T | 2026-09-06 00:35:52 | 52.10833 | 11.45371 | 82° | 15km/h | 33978m | -21.9m/s | -37.8°C | 0% | 6.9hPa | 2.6V | 03:12:04 | 02:13:02 | 00:00:00 | |
| DO2JMG | 2026-09-06 00:35:50 | 52.10831 | 11.45360 | 81° | 15km/h | 34000m | -3.1m/s | -37.9°C | 0% | 6.9hPa | 2.6V | 03:12:04 | 02:13:00 | 00:00:00 | |
| DL1XH-west | 2026-09-06 00:35:49 | 52.10831 | 11.45352 | 91° | 24km/h | 34001m | -0.9m/s | -37.9°C | 0% | 6.9hPa | 2.6V | 03:12:04 | 02:12:59 | 00:00:00 | |
| DF8AY | 2026-09-06 00:35:45 | 52.10834 | 11.45350 | 192° | 7km/h | 33985m | 4.6m/s | -38.1°C | 0% | 6.9hPa | 2.6V | 03:12:04 | 02:12:55 | 00:00:00 | |
| SONCRA | 2026-09-06 00:35:45 | 52.10837 | 11.45350 | 152° | 9km/h | 33980m | 5.3m/s | -38.2°C | 0.2% | 6.9hPa | 2.6V | 00:00:00 | 00:00:00 | 00:00:00 | |
| GOEST3-10 | 2026-09-06 00:35:44 | 52.10836 | 11.45349 | 153° | 26km/h | 33981m | 5.3m/s | -38.1°C | 1.7% | 6.8hPa | 2.6V | 00:00:00 | 02:12:54 | 00:00:00 | |
| DM0DOS-11 | 2026-09-06 00:35:43 | 52.10842 | 11.45337 | 114° | 27km/h | 33968m | 6.5m/s | -38.1°C | 1.8% | 6.9hPa | 2.6V | 03:11:48 | 02:12:52 | 00:00:00 | |
| AA1-15 | 2026-09-06 00:35:42 | 52.10842 | 11.45337 | 114° | 27km/h | 33968m | 6.5m/s | -38.2°C | 0% | 7hPa | 2.6V | 03:12:04 | 02:12:52 | 00:00:00 | |
| DB0NH | 2026-09-06 00:35:42 | 52.10842 | 11.45337 | 115° | 31km/h | 33968m | 6.4m/s | -38.1°C | 1.8% | 6.9hPa | 2.6V | 00:00:00 | 02:12:52 | 00:00:00 | |
| DB0DAN | 2026-09-06 00:35:40 | 52.10848 | 11.45311 | 111° | 37km/h | 33957m | 4.8m/s | -38.2°C | 0.2% | 6.98hPa | 2.6V | 00:00:00 | 00:00:00 | 00:00:00 | |
| DL1XH-west | 2026-09-06 00:35:39 | 52.10852 | 11.45296 | 111° | 38km/h | 33951m | 5.4m/s | -38.2°C | 0% | 7hPa | 2.6V | 03:12:04 | 02:12:49 | 00:00:00 | |
| DO2JMG | 2026-09-06 00:35:38 | 52.10855 | 11.45283 | 117° | 33km/h | 33945m | 6.2m/s | -38.2°C | 0% | 6.9hPa | 2.6V | 03:12:04 | 02:12:48 | 00:00:00 | |
| DF8AY | 2026-09-06 00:35:34 | 52.10871 | 11.45252 | 141° | 18km/h | 33922m | 5.3m/s | -38.3°C | 0% | 7hPa | 2.6V | 03:12:04 | 02:12:44 | 00:00:00 | |
| DO2SHX-10 | 2026-09-06 00:35:34 | 52.10871 | 11.45252 | 142° | 18km/h | 33922m | 5.2m/s | -38.2°C | 1.7% | 6.9hPa | 2.6V | 03:11:00 | 02:12:44 | 00:00:00 | |
| DM0DOS-11 | 2026-09-06 00:35:33 | 52.10877 | 11.45241 | 125° | 20km/h | 33911m | 5.6m/s | -38.3°C | 1.7% | 7hPa | 2.6V | 03:11:58 | 02:12:42 | 00:00:00 | |
| HSKMA3-T | 2026-09-06 00:35:31 | 52.10880 | 11.45233 | 120° | 24km/h | 33905m | 5.5m/s | -38.3°C | 0% | 7hPa | 2.6V | 03:12:04 | 02:12:41 | 00:00:00 | |
| DO2SHX-10 | 2026-09-06 00:35:31 | 52.10880 | 11.45233 | 121° | 27km/h | 33906m | 5.4m/s | -38.3°C | 1.7% | 7.0hPa | 2.6V | 00:00:00 | 02:12:41 | 00:00:00 | |
| GOEST3-10 | 2026-09-06 00:35:29 | 52.10887 | 11.45214 | 124° | 31km/h | 33895m | 5.1m/s | -38.3°C | 1.7% | 7.0hPa | 2.6V | 03:12:00 | 00:00:00 | 00:00:00 | |
| DL1XH1-15 | 2026-09-06 00:35:28 | 52.10914 | 11.45156 | 113° | 27km/h | 33862m | 5.6m/s | -38.8°C | 1.8% | 7hPa | 2.6V | 03:12:07 | 02:12:33 | 00:00:00 | |
| DL1XH-west | 2026-09-06 00:35:28 | 52.10891 | 11.45204 | 127° | 31km/h | 33889m | 5.7m/s | -38.4°C | 0% | 7hPa | 2.6V | 03:12:04 | 02:12:38 | 00:00:00 | |
| DO2JMG | 2026-09-06 00:35:27 | 52.10896 | 11.45194 | 130° | 31km/h | 33883m | 6m/s | -38.5°C | 0% | 7hPa | 2.6V | 03:12:04 | 02:12:37 | 00:00:00 | |
| HSKMA3-T | 2026-09-06 00:35:20 | 52.10918 | 11.45119 | 94° | 35km/h | 33843m | 5.1m/s | -39.1°C | 0% | 7.1hPa | 2.6V | 03:12:55 | 02:12:30 | 00:00:00 | |
| DO2JMG | 2026-09-06 00:35:17 | 52.10926 | 11.45077 | 122° | 37km/h | 33828m | 6.6m/s | -39.2°C | 0% | 7.1hPa | 2.6V | 03:12:55 | 02:12:27 | 00:00:00 | |
| DC4HF-4 | 2026-09-06 00:35:17 | 52.10932 | 11.45064 | 132° | 40km/h | 33821m | 6.6m/s | -39.3°C | 0.2% | 7.1hPa | 2.6V | 00:00:00 | 00:00:00 | 00:00:00 | |
| DL1XH1-15 | 2026-09-06 00:35:16 | 52.10956 | 11.45028 | 133° | 44km/h | 33804m | 4.6m/s | -39.4°C | 1.9% | 7.1hPa | 2.6V | 03:12:17 | 02:12:23 | 00:00:00 | |
| HSKMA3-T | 2026-09-06 00:35:09 | 52.10971 | 11.44970 | 90° | 38km/h | 33782m | 5.1m/s | -39.4°C | 0% | 7.1hPa | 2.6V | 03:12:55 | 02:12:19 | 00:00:00 | |
| DF8AY | 2026-09-06 00:35:09 | 52.10971 | 11.44955 | 87° | 37km/h | 33777m | 5.2m/s | -39.4°C | 0% | 7.1hPa | 2.6V | 03:12:55 | 02:12:18 | 00:00:00 | |
| DO2JMG | 2026-09-06 00:35:06 | 52.10971 | 11.44926 | 97° | 33km/h | 33765m | 6.4m/s | -39.4°C | 0% | 7.2hPa | 2.6V | 03:12:55 | 02:12:16 | 00:00:00 | |
| HSKMA3-T | 2026-09-06 00:34:58 | 52.10994 | 11.44819 | 98° | 37km/h | 33718m | 5.1m/s | -39.4°C | 0% | 7.2hPa | 2.6V | 03:12:55 | 02:12:08 | 00:00:00 | |
| DF8AY | 2026-09-06 00:34:57 | 52.10992 | 11.44721 | 63° | 29km/h | 33671m | 5.6m/s | -39.7°C | 0% | 7.2hPa | 2.6V | 03:12:55 | 02:12:00 | 00:00:00 | |
| DO2JMG | 2026-09-06 00:34:56 | 52.10996 | 11.44790 | 98° | 35km/h | 33707m | 6.5m/s | -39.5°C | 0% | 7.2hPa | 2.6V | 03:12:55 | 02:12:06 | 00:00:00 | |
| DB0DAN | 2026-09-06 00:34:55 | 52.10997 | 11.44776 | 96° | 29km/h | 33700m | 6.3m/s | -39.5°C | 0.3% | 7.21hPa | 2.6V | 00:00:00 | 00:00:00 | 00:00:00 | |
| DL1XH-west | 2026-09-06 00:34:55 | 52.10997 | 11.44776 | 96° | 31km/h | 33700m | 6.3m/s | -39.5°C | 0% | 7.2hPa | 2.6V | 03:12:55 | 02:12:05 | 00:00:00 | |
| DL1XH1-15 | 2026-09-06 00:34:55 | 52.10998 | 11.44752 | 87° | 27km/h | 33689m | 5.2m/s | -39.5°C | 1.8% | 7.2hPa | 2.6V | 03:12:37 | 02:12:03 | 00:00:00 | |
| HARRO8 | 2026-09-06 00:34:52 | 52.10997 | 11.44742 | 77° | 26km/h | 33683m | 5.8m/s | -39.6°C | 0.3% | 7.2hPa | 2.6V | 00:00:00 | 00:00:00 | 00:00:00 | |
| EDDB2-11 | 2026-09-06 00:34:51 | 52.10992 | 11.44721 | 63° | 27km/h | 33671m | 5.6m/s | -39.7°C | 0.2% | 7.2hPa | 2.6V | 00:00:00 | 00:00:00 | 00:00:00 | |
| DB0UT-7 | 2026-09-06 00:34:50 | 52.10989 | 11.44710 | 71° | 33km/h | 33666m | 3.8m/s | -39.7°C | 1.9% | 7.2hPa | 2.6V | 00:00:00 | 02:11:59 | 00:00:00 | |
| DO2SHX-10 | 2026-09-06 00:34:49 | 52.10989 | 11.44710 | 71° | 29km/h | 33666m | 3.8m/s | -39.7°C | 1.9% | 7.2hPa | 2.6V | 00:00:00 | 02:11:59 | 00:00:00 | |
| DL1XH1-15 | 2026-09-06 00:34:48 | 52.11000 | 11.44634 | 109° | 37km/h | 33633m | 3.8m/s | -40°C | 1.9% | 7.3hPa | 2.6V | 03:12:47 | 02:11:53 | 00:00:00 | |
| HSKMA3-T | 2026-09-06 00:34:47 | 52.10987 | 11.44687 | 95° | 29km/h | 33656m | 6.1m/s | -39.7°C | 0% | 7.2hPa | 2.6V | 03:12:55 | 02:11:57 | 00:00:00 | |
| DO2JMG | 2026-09-06 00:34:46 | 52.10989 | 11.44674 | 108° | 33km/h | 33649m | 7m/s | -39.8°C | 0% | 7.2hPa | 2.6V | 03:12:55 | 02:11:56 | 00:00:00 | |
| DL1XH-west | 2026-09-06 00:34:44 | 52.10997 | 11.44647 | 117° | 38km/h | 33637m | 4.4m/s | -39.9°C | 0% | 7.3hPa | 2.6V | 03:12:55 | 02:11:54 | 00:00:00 | |
| DM0DOS-11 | 2026-09-06 00:34:43 | 52.11002 | 11.44619 | 93° | 35km/h | 33629m | 5.1m/s | -40.2°C | 2% | 7.3hPa | 2.6V | 03:12:48 | 02:11:52 | 00:00:00 | |
| DO2SHX-10 | 2026-09-06 00:34:43 | 52.11000 | 11.44634 | 110° | 35km/h | 33633m | 3.8m/s | -40.0°C | 1.9% | 7.2hPa | 2.6V | 00:00:00 | 02:11:53 | 00:00:00 | |
| DO3MHA-11 | 2026-09-06 00:34:42 | 52.11002 | 11.44619 | 94° | 35km/h | 33629m | 5.1m/s | -40.1°C | 2.0% | 7.3hPa | 2.6V | 00:00:00 | 02:11:52 | 00:00:00 | |
| DB0DAN | 2026-09-06 00:34:40 | 52.10998 | 11.44592 | 59° | 35km/h | 33616m | 6.4m/s | -40.3°C | 0.3% | 7.3hPa | 2.6V | 00:00:00 | 00:00:00 | 00:00:00 | |
| DF8AY | 2026-09-06 00:34:40 | 52.10998 | 11.44592 | 59° | 37km/h | 33616m | 6.4m/s | -40.3°C | 0% | 7.3hPa | 2.6V | 03:12:55 | 02:11:50 | 00:00:00 | |
| DO2SHX-10 | 2026-09-06 00:34:40 | 52.10998 | 11.44592 | 60° | 40km/h | 33617m | 6.4m/s | -40.2°C | 2.0% | 7.3hPa | 2.6V | 00:00:00 | 02:11:50 | 00:00:00 | |
| DL1XH1-15 | 2026-09-06 00:34:38 | 52.10963 | 11.44513 | 92° | 31km/h | 33578m | 5.5m/s | -40.4°C | 2% | 7.3hPa | 2.6V | 03:12:57 | 02:11:43 | 00:00:00 | |
| HSKMA3-T | 2026-09-06 00:34:36 | 52.10971 | 11.44546 | 50° | 35km/h | 33594m | 5.3m/s | -40.4°C | 0% | 7.3hPa | 2.6V | 03:12:55 | 02:11:46 | 00:00:00 | |
| DO2JMG | 2026-09-06 00:34:35 | 52.10966 | 11.44536 | 62° | 29km/h | 33589m | 5.8m/s | -40.4°C | 0% | 7.3hPa | 2.6V | 03:12:55 | 02:11:45 | 00:00:00 | |
| DL1XH-west | 2026-09-06 00:34:34 | 52.10964 | 11.44525 | 79° | 29km/h | 33583m | 6m/s | -40.4°C | 0% | 7.3hPa | 2.6V | 03:13:46 | 02:11:44 | 00:00:00 | |
| DO2SHX-10 | 2026-09-06 00:34:34 | 52.10964 | 11.44525 | 80° | 31km/h | 33583m | 5.9m/s | -40.4°C | 2.0% | 7.3hPa | 2.6V | 03:12:00 | 02:11:44 | 00:00:00 | |
| DM0DOS-11 | 2026-09-06 00:34:33 | 52.10964 | 11.44500 | 96° | 33km/h | 33573m | 4.8m/s | -40.4°C | 2% | 7.4hPa | 2.6V | 03:12:58 | 02:11:42 | 00:00:00 | |
| DF8AY | 2026-09-06 00:34:29 | 52.10961 | 11.44460 | 66° | 35km/h | 33557m | 6m/s | -40.4°C | 0% | 7.3hPa | 2.6V | 03:13:46 | 02:11:39 | 00:00:00 | |
| HSKMA3-T | 2026-09-06 00:34:25 | 52.10935 | 11.44421 | 25° | 33km/h | 33534m | 5.9m/s | -40.2°C | 0% | 7.4hPa | 2.6V | 03:13:46 | 02:11:35 | 00:00:00 | |
| DB0DAN | 2026-09-06 00:34:25 | 52.10935 | 11.44421 | 25° | 31km/h | 33534m | 5.9m/s | -40.2°C | 0.3% | 7.4hPa | 2.6V | 00:00:00 | 00:00:00 | 00:00:00 | |
| DO2JMG | 2026-09-06 00:34:24 | 52.10928 | 11.44416 | 21° | 26km/h | 33529m | 6.2m/s | -40.2°C | 0% | 7.4hPa | 2.6V | 03:13:46 | 02:11:34 | 00:00:00 | |
| DL1XH-west | 2026-09-06 00:34:23 | 52.10923 | 11.44413 | 22° | 22km/h | 33523m | 5.4m/s | -40.1°C | 0% | 7.4hPa | 2.6V | 03:13:46 | 02:11:33 | 00:00:00 | |
| DM0DOS-11 | 2026-09-06 00:34:23 | 52.10918 | 11.44409 | 28° | 18km/h | 33518m | 4.7m/s | -40.1°C | 2% | 7.4hPa | 2.6V | 03:13:08 | 02:11:32 | 00:00:00 | |
| DF8AY | 2026-09-06 00:34:18 | 52.10903 | 11.44381 | 55° | 33km/h | 33496m | 6.2m/s | -40°C | 0% | 7.4hPa | 2.6V | 03:13:46 | 02:11:28 | 00:00:00 | |
| HSKMA3-T | 2026-09-06 00:34:15 | 52.10888 | 11.44343 | 60° | 37km/h | 33481m | 4.4m/s | -39.9°C | 0% | 7.5hPa | 2.6V | 03:13:46 | 02:11:25 | 00:00:00 | |
| DO2JMG | 2026-09-06 00:34:13 | 52.10880 | 11.44321 | 65° | 24km/h | 33470m | 6.3m/s | -39.8°C | 0% | 7.5hPa | 2.6V | 03:13:46 | 02:11:23 | 00:00:00 | |
| DM0DOS-11 | 2026-09-06 00:34:13 | 52.10878 | 11.44313 | 60° | 16km/h | 33464m | 5.6m/s | -39.8°C | 1.9% | 7.5hPa | 2.6V | 03:13:18 | 02:11:22 | 00:00:00 | |
| TFSTFS | 2026-09-06 00:34:13 | 52.10880 | 11.44321 | 66° | 24km/h | 33470m | 6.3m/s | -39.8°C | 0.3% | 7.5hPa | 2.6V | 03:13:00 | 00:00:00 | 00:00:00 | |
| DB0NH | 2026-09-06 00:34:12 | 52.10877 | 11.44313 | 61° | 18km/h | 33464m | 5.5m/s | -39.7°C | 1.9% | 7.4hPa | 2.6V | 00:00:00 | 02:11:22 | 00:00:00 | |
| DB0DAN | 2026-09-06 00:34:10 | 52.10873 | 11.44307 | 16° | 13km/h | 33453m | 5.4m/s | -39.8°C | 0.3% | 7.48hPa | 2.6V | 00:00:00 | 00:00:00 | 00:00:00 | |
| DF8AY | 2026-09-06 00:34:07 | 52.10858 | 11.44304 | 9° | 27km/h | 33435m | 5.9m/s | -39.8°C | 0% | 7.5hPa | 2.6V | 03:13:46 | 02:11:17 | 00:00:00 | |
| DO2SHX-10 | 2026-09-06 00:34:07 | 52.10858 | 11.44304 | 9° | 29km/h | 33435m | 5.9m/s | -39.7°C | 1.9% | 7.4hPa | 2.6V | 00:00:00 | 02:11:17 | 00:00:00 | |
| DL1XH1-15 | 2026-09-06 00:34:06 | 52.10835 | 11.44284 | 61° | 22km/h | 33412m | 6.2m/s | -39.9°C | 1.9% | 7.5hPa | 2.6V | 03:13:27 | 02:11:13 | 00:00:00 | |
| BIOWL1-15 | 2026-09-06 00:34:05 | 52.10844 | 11.44297 | 27° | 27km/h | 33423m | 4.9m/s | -39.8°C | 0% | 7.5hPa | 2.6V | 03:20:34 | 02:11:15 | 00:00:00 | |
| AA1-15 | 2026-09-06 00:34:05 | 52.10839 | 11.44291 | 40° | 24km/h | 33418m | 5.9m/s | -39.9°C | 0% | 7.5hPa | 2.6V | 03:13:46 | 02:11:14 | 00:00:00 | |
| DO2JMG | 2026-09-06 00:34:03 | 52.10835 | 11.44284 | 61° | 22km/h | 33412m | 6.2m/s | -39.9°C | 0% | 7.5hPa | 2.6V | 03:13:46 | 02:11:13 | 00:00:00 | |
| DL1XH-west | 2026-09-06 00:34:02 | 52.10833 | 11.44275 | 79° | 22km/h | 33406m | 5.6m/s | -39.9°C | 0% | 7.6hPa | 2.6V | 03:13:46 | 02:11:12 | 00:00:00 | |
| DO3MHA-11 | 2026-09-06 00:34:02 | 52.10833 | 11.44275 | 80° | 18km/h | 33406m | 5.5m/s | -39.8°C | 1.9% | 7.5hPa | 2.6V | 00:00:00 | 02:11:12 | 00:00:00 | |
| DL1ZP-14 | 2026-09-06 00:34:00 | 52.10832 | 11.44245 | 77° | 24km/h | 33390m | 5.9m/s | -39.9°C | 0.3% | 7.6hPa | 2.6V | 00:00:00 | 00:00:00 | 00:00:00 | |
| DL1XH1-15 | 2026-09-06 00:33:58 | 52.10820 | 11.44229 | 290° | 9km/h | 33356m | 6.7m/s | -39.8°C | 1.9% | 7.6hPa | 2.6V | 03:13:37 | 02:11:03 | 00:00:00 | |
| DF8AY | 2026-09-06 00:33:57 | 52.10828 | 11.44230 | 52° | 16km/h | 33379m | 4.8m/s | -39.9°C | 0% | 7.6hPa | 2.6V | 03:13:46 | 02:11:07 | 00:00:00 | |
| AU51GT2 | 2026-09-06 00:33:56 | 52.10825 | 11.44226 | 29° | 11km/h | 33374m | 4.7m/s | -39.9°C | 0.3% | 7.6hPa | 2.6V | 00:00:00 | 00:00:00 | 00:00:00 | |
| DB0DAN | 2026-09-06 00:33:55 | 52.10823 | 11.44224 | 357° | 9km/h | 33369m | 5.6m/s | -39.8°C | 0.3% | 7.59hPa | 2.6V | 00:00:00 | 00:00:00 | 00:00:00 | |
| AA1-15 | 2026-09-06 00:33:55 | 52.10823 | 11.44224 | 357° | 9km/h | 33369m | 5.6m/s | -39.8°C | 0% | 7.6hPa | 2.6V | 03:13:46 | 02:11:05 | 00:00:00 | |
| HSKMA3-T | 2026-09-06 00:33:54 | 52.10819 | 11.44229 | 291° | 9km/h | 33356m | 6.7m/s | -39.8°C | 0% | 7.6hPa | 2.6V | 03:13:46 | 02:11:03 | 00:00:00 | |
| DM0DOS-11 | 2026-09-06 00:33:53 | 52.10819 | 11.44232 | 272° | 9km/h | 33350m | 5.4m/s | -39.8°C | 1.9% | 7.6hPa | 2.6V | 03:13:38 | 02:11:02 | 00:00:00 | |
| DO2JMG | 2026-09-06 00:33:52 | 52.10819 | 11.44232 | 272° | 9km/h | 33350m | 5.4m/s | -39.8°C | 0% | 7.6hPa | 2.6V | 03:13:46 | 02:11:02 | 00:00:00 | |
| DL1XH-west | 2026-09-06 00:33:51 | 52.10819 | 11.44235 | 270° | 5km/h | 33345m | 4.5m/s | -39.8°C | 0% | 7.6hPa | 2.6V | 03:13:46 | 02:11:01 | 00:00:00 | |
| HARRO8 | 2026-09-06 00:33:50 | 52.10819 | 11.44237 | 345° | 0km/h | 33341m | 4.4m/s | -39.8°C | 0.3% | 7.6hPa | 2.6V | 00:00:00 | 00:00:00 | 00:00:00 | |
| EDDB2-11 | 2026-09-06 00:33:49 | 52.10816 | 11.44231 | 60° | 16km/h | 33330m | 6.5m/s | -39.9°C | 0.3% | 7.6hPa | 2.6V | 00:00:00 | 00:00:00 | 00:00:00 | |
| TFSTFS | 2026-09-06 00:33:48 | 52.10816 | 11.44231 | 62° | 16km/h | 33330m | 6.5m/s | -39.9°C | 0.3% | 7.6hPa | 2.6V | 03:13:00 | 00:00:00 | 00:00:00 | |
| SP3BTT-10 | 2026-09-06 00:33:47 | 52.10814 | 11.44224 | 60° | 31km/h | 33324m | 7.0m/s | -39.8°C | 1.9% | 7.6hPa | 2.6V | 00:00:00 | 00:00:00 | 00:00:00 | |
| DL1XH-15 | 2026-09-06 00:33:46 | 52.10809 | 11.44172 | 131° | 22km/h | 33298m | 6.8m/s | -40°C | 1.9% | 7.7hPa | 2.6V | 03:13:48 | 02:10:52 | 00:00:00 | |
| DF8AY | 2026-09-06 00:33:46 | 52.10810 | 11.44214 | 63° | 31km/h | 33317m | 5.5m/s | -39.9°C | 0% | 7.6hPa | 2.6V | 03:13:46 | 02:10:56 | 00:00:00 | |
| DL1XH1-15 | 2026-09-06 00:33:46 | 52.10806 | 11.44180 | 104° | 24km/h | 33304m | 5.1m/s | -40°C | 1.9% | 7.7hPa | 2.6V | 03:13:47 | 02:10:53 | 00:00:00 | |
| AA1-15 | 2026-09-06 00:33:44 | 52.10806 | 11.44190 | 85° | 27km/h | 33308m | 3.7m/s | -40°C | 0% | 7.7hPa | 2.6V | 03:13:46 | 02:10:54 | 00:00:00 | |
| DO2JMG | 2026-09-06 00:33:42 | 52.10808 | 11.44172 | 132° | 22km/h | 33298m | 6.9m/s | -40°C | 0% | 7.7hPa | 2.6V | 03:14:37 | 02:10:52 | 00:00:00 | |
| DL1XH-west | 2026-09-06 00:33:41 | 52.10813 | 11.44167 | 165° | 24km/h | 33292m | 6.9m/s | -40.1°C | 0% | 7.7hPa | 2.6V | 03:14:37 | 02:10:51 | 00:00:00 | |
| DB0DAN | 2026-09-06 00:33:40 | 52.10819 | 11.44167 | 192° | 24km/h | 33286m | 5.8m/s | -40.1°C | 0.3% | 7.66hPa | 2.6V | 00:00:00 | 00:00:00 | 00:00:00 | |
| DO2SHX-10 | 2026-09-06 00:33:40 | 52.10819 | 11.44167 | 193° | 24km/h | 33286m | 5.8m/s | -40.1°C | 1.9% | 7.6hPa | 2.6V | 00:00:00 | 02:10:50 | 00:00:00 | |
| DL1XH1-15 | 2026-09-06 00:33:38 | 52.10818 | 11.44185 | 55° | 26km/h | 33248m | 4.6m/s | -40.5°C | 2% | 7.7hPa | 2.6V | 03:13:57 | 02:10:43 | 00:00:00 | |
| GOEST3-10 | 2026-09-06 00:33:38 | 52.10829 | 11.44177 | 235° | 18km/h | 33277m | 4.1m/s | -40.2°C | 1.9% | 7.6hPa | 2.6V | 00:00:00 | 00:00:00 | 00:00:00 | |
| DO2SHX-10 | 2026-09-06 00:33:37 | 52.10831 | 11.44185 | 261° | 15km/h | 33272m | 5.9m/s | -40.2°C | 1.9% | 7.6hPa | 2.6V | 00:00:00 | 02:10:47 | 00:00:00 | |
| DL1XH-15 | 2026-09-06 00:33:36 | 52.10816 | 11.44175 | 78° | 27km/h | 33243m | 4.7m/s | -40.5°C | 2% | 7.7hPa | 2.6V | 03:13:58 | 02:10:42 | 00:00:00 | |
| DF8AY | 2026-09-06 00:33:35 | 52.10827 | 11.44193 | 355° | 16km/h | 33259m | 6.4m/s | -40.4°C | 0% | 7.7hPa | 2.6V | 03:14:37 | 02:10:45 | 00:00:00 | |
| AA1-15 | 2026-09-06 00:33:33 | 52.10818 | 11.44185 | 55° | 26km/h | 33248m | 4.6m/s | -40.5°C | 0% | 7.7hPa | 2.6V | 03:14:37 | 02:10:43 | 00:00:00 | |
| DO2JMG | 2026-09-06 00:33:31 | 52.10816 | 11.44163 | 103° | 33km/h | 33238m | 6m/s | -40.5°C | 0% | 7.7hPa | 2.6V | 03:14:37 | 02:10:41 | 00:00:00 | |
| DL1XH-west | 2026-09-06 00:33:30 | 52.10820 | 11.44150 | 126° | 38km/h | 33231m | 6.6m/s | -40.6°C | 0% | 7.7hPa | 2.6V | 03:14:37 | 02:10:40 | 00:00:00 | |
| DC4HF-4 | 2026-09-06 00:33:29 | 52.10837 | 11.44131 | 163° | 46km/h | 33219m | 5.4m/s | -40.6°C | 0.3% | 7.8hPa | 2.6V | 00:00:00 | 00:00:00 | 00:00:00 | |
| DO2SHX-10 | 2026-09-06 00:33:28 | 52.10837 | 11.44131 | 164° | 42km/h | 33219m | 5.4m/s | -40.6°C | 2.0% | 7.7hPa | 2.6V | 00:00:00 | 02:10:38 | 00:00:00 | |
| DL1XH1-15 | 2026-09-06 00:33:27 | 52.10870 | 11.44151 | 300° | 18km/h | 33193m | 6.1m/s | -40.6°C | 2% | 7.8hPa | 2.6V | 03:14:07 | 02:10:33 | 00:00:00 | |
| DL1XH-15 | 2026-09-06 00:33:26 | 52.10866 | 11.44155 | 351° | 20km/h | 33187m | 5.6m/s | -40.6°C | 2% | 7.8hPa | 2.6V | 03:14:08 | 02:10:32 | 00:00:00 | |
| DF8AY | 2026-09-06 00:33:24 | 52.10870 | 11.44144 | 248° | 20km/h | 33199m | 6.2m/s | -40.6°C | 0% | 7.8hPa | 2.6V | 03:14:37 | 02:10:34 | 00:00:00 | |
| AA1-15 | 2026-09-06 00:33:23 | 52.10869 | 11.44151 | 301° | 18km/h | 33193m | 6.1m/s | -40.6°C | 0% | 7.8hPa | 2.6V | 03:14:37 | 02:10:33 | 00:00:00 | |
| DO2JMG | 2026-09-06 00:33:21 | 52.10860 | 11.44153 | 23° | 27km/h | 33182m | 4.9m/s | -40.7°C | 0% | 7.8hPa | 2.6V | 03:14:37 | 02:10:31 | 00:00:00 | |
| HSKMA3-T | 2026-09-06 00:33:20 | 52.10854 | 11.44146 | 49° | 33km/h | 33177m | 4.9m/s | -40.7°C | 0% | 7.8hPa | 2.6V | 03:14:37 | 02:10:30 | 00:00:00 | |
| DL1XH-west | 2026-09-06 00:33:19 | 52.10850 | 11.44133 | 73° | 38km/h | 33172m | 5.1m/s | -40.7°C | 0% | 7.8hPa | 2.6V | 03:14:37 | 02:10:29 | 00:00:00 | |
| DB0UT-7 | 2026-09-06 00:33:19 | 52.10850 | 11.44133 | 74° | 31km/h | 33172m | 5.0m/s | -40.6°C | 2.0% | 7.7hPa | 2.6V | 00:00:00 | 00:00:00 | 00:00:00 | |
| EDDB2-11 | 2026-09-06 00:33:18 | 52.10853 | 11.44100 | 116° | 46km/h | 33160m | 5.9m/s | -40.6°C | 0.3% | 7.8hPa | 2.6V | 00:00:00 | 00:00:00 | 00:00:00 | |
| DO2SHX-10 | 2026-09-06 00:33:16 | 52.10860 | 11.44084 | 135° | 47km/h | 33155m | 5.6m/s | -40.6°C | 2.0% | 7.7hPa | 2.6V | 00:00:00 | 02:10:26 | 00:00:00 | |
| DJ8HS-15 | 2026-09-06 00:33:15 | 52.10869 | 11.44072 | 150° | 27km/h | 33149m | 5.3m/s | -40.6°C | 2.0% | 7.7hPa | 2.6V | 00:00:00 | 02:10:25 | 00:00:00 | |
| DL1XH-15 | 2026-09-06 00:33:13 | 52.10898 | 11.44062 | 193° | 26km/h | 33132m | 5.7m/s | -40.7°C | 2% | 7.8hPa | 2.6V | 03:14:18 | 02:10:22 | 00:00:00 | |
| AA1-15 | 2026-09-06 00:33:13 | 52.10890 | 11.44061 | 179° | 37km/h | 33138m | 5.5m/s | -40.7°C | 0% | 7.8hPa | 2.6V | 03:14:37 | 02:10:23 | 00:00:00 | |
| DO2JMG | 2026-09-06 00:33:10 | 52.10904 | 11.44069 | 293° | 5km/h | 33121m | 5.3m/s | -40.7°C | 0% | 7.9hPa | 2.6V | 03:14:37 | 02:10:20 | 00:00:00 | |
| DB0DAN | 2026-09-06 00:33:10 | 52.10904 | 11.44069 | 293° | 5km/h | 33121m | 5.3m/s | -40.7°C | 0.3% | 7.86hPa | 2.6V | 00:00:00 | 00:00:00 | 00:00:00 | |
| BIOWL1-15 | 2026-09-06 00:33:09 | 52.10902 | 11.44069 | 17° | 13km/h | 33115m | 5.6m/s | -40.7°C | 0% | 7.9hPa | 2.6V | 03:20:34 | 02:10:19 | 00:00:00 | |
| DL1XH-west | 2026-09-06 00:33:08 | 52.10899 | 11.44065 | 40° | 22km/h | 33110m | 5.5m/s | -40.8°C | 0% | 7.9hPa | 2.6V | 03:14:37 | 02:10:18 | 00:00:00 | |
| GOEST3-10 | 2026-09-06 00:33:08 | 52.10899 | 11.44065 | 41° | 37km/h | 33110m | 5.4m/s | -40.7°C | 2.0% | 7.8hPa | 2.6V | 03:14:00 | 00:00:00 | 00:00:00 | |
| DO2SHX-10 | 2026-09-06 00:33:07 | 52.10895 | 11.44057 | 61° | 37km/h | 33104m | 5.8m/s | -40.7°C | 2.0% | 7.8hPa | 2.6V | 00:00:00 | 02:10:17 | 00:00:00 | |
| DL1XH-15 | 2026-09-06 00:33:06 | 52.10905 | 11.43977 | 130° | 42km/h | 33076m | 5.2m/s | -40.8°C | 2% | 7.9hPa | 2.6V | 03:14:28 | 02:10:12 | 00:00:00 | |
| DF8AY | 2026-09-06 00:33:03 | 52.10898 | 11.43992 | 120° | 47km/h | 33082m | 4.8m/s | -40.8°C | 0% | 7.9hPa | 2.6V | 03:14:37 | 02:10:13 | 00:00:00 | |
| AA1-15 | 2026-09-06 00:33:02 | 52.10905 | 11.43977 | 131° | 42km/h | 33077m | 5.2m/s | -40.8°C | 0% | 7.9hPa | 2.6V | 03:14:37 | 02:10:12 | 00:00:00 | |
| HSKMA3-T | 2026-09-06 00:32:59 | 52.10923 | 11.43956 | 164° | 18km/h | 33059m | 6.2m/s | -40.8°C | 0% | 8hPa | 2.6V | 03:14:37 | 02:10:09 | 00:00:00 | |
| DL1XH-west | 2026-09-06 00:32:58 | 52.10929 | 11.43955 | 138° | 4km/h | 33046m | 5.9m/s | -40.8°C | 0% | 8hPa | 2.6V | 03:14:37 | 02:10:07 | 00:00:00 | |
| DL1ZP-14 | 2026-09-06 00:32:57 | 52.10929 | 11.43955 | 137° | 4km/h | 33047m | 5.9m/s | -40.8°C | 0.3% | 8.0hPa | 2.6V | 00:00:00 | 00:00:00 | 00:00:00 | |
| DB0DAN | 2026-09-06 00:32:55 | 52.10930 | 11.43948 | 95° | 15km/h | 33035m | 6.2m/s | -40.9°C | 0.3% | 7.94hPa | 2.6V | 00:00:00 | 00:00:00 | 00:00:00 | |
| AA1-15 | 2026-09-06 00:32:52 | 52.10934 | 11.43914 | 104° | 40km/h | 33016m | 6.2m/s | -41.1°C | 0% | 8hPa | 2.6V | 03:15:28 | 02:10:02 | 00:00:00 | |
| DO2JMG | 2026-09-06 00:32:49 | 52.10944 | 11.43865 | 112° | 38km/h | 32997m | 6.7m/s | -41.3°C | 0% | 8hPa | 2.6V | 03:15:28 | 02:09:59 | 00:00:00 | |
| HSKMA3-T | 2026-09-06 00:32:48 | 52.10947 | 11.43851 | 114° | 33km/h | 32990m | 6.6m/s | -41.4°C | 0% | 8hPa | 2.6V | 03:15:28 | 02:09:58 | 00:00:00 | |
| DL1XH-west | 2026-09-06 00:32:47 | 52.10951 | 11.43840 | 115° | 27km/h | 32984m | 6.3m/s | -41.5°C | 0% | 8hPa | 2.6V | 03:15:28 | 02:09:57 | 00:00:00 | |
| EDDB2-11 | 2026-09-06 00:32:46 | 52.10953 | 11.43831 | 119° | 22km/h | 32978m | 6.1m/s | -41.5°C | 0.3% | 8.0hPa | 2.6V | 00:00:00 | 00:00:00 | 00:00:00 | |
| BIOWL1-15 | 2026-09-06 00:32:41 | 52.10974 | 11.43785 | 127° | 38km/h | 32945m | 6.7m/s | -41.8°C | 0% | 8.1hPa | 2.6V | 03:20:34 | 02:09:51 | 00:00:00 | |
| DB0DAN | 2026-09-06 00:32:40 | 52.10980 | 11.43772 | 124° | 38km/h | 32939m | 6m/s | -41.8°C | 0.3% | 8.09hPa | 2.6V | 00:00:00 | 00:00:00 | 00:00:00 | |
| DO2JMG | 2026-09-06 00:32:39 | 52.10985 | 11.43758 | 121° | 40km/h | 32933m | 5.4m/s | -41.8°C | 0% | 8.1hPa | 2.6V | 03:15:28 | 02:09:49 | 00:00:00 | |
| HSKMA3-T | 2026-09-06 00:32:37 | 52.10993 | 11.43730 | 111° | 35km/h | 32921m | 6.2m/s | -41.8°C | 0% | 8.1hPa | 2.6V | 03:15:28 | 02:09:47 | 00:00:00 | |
| DL1XH1-15 | 2026-09-06 00:32:37 | 52.10996 | 11.43691 | 74° | 18km/h | 32895m | 5.4m/s | -41.9°C | 2.1% | 8.1hPa | 2.6V | 03:14:57 | 02:09:43 | 00:00:00 | |
| DL1XH-west | 2026-09-06 00:32:37 | 52.10996 | 11.43718 | 104° | 29km/h | 32914m | 6.7m/s | -41.8°C | 0% | 8.1hPa | 2.7V | 03:15:28 | 02:09:46 | 00:00:00 | |
| DF8AY | 2026-09-06 00:32:31 | 52.10994 | 11.43675 | 87° | 22km/h | 32885m | 4.9m/s | -41.9°C | 0% | 8.2hPa | 2.6V | 03:15:28 | 02:09:41 | 00:00:00 | |
| DO2JMG | 2026-09-06 00:32:28 | 52.10998 | 11.43640 | 108° | 37km/h | 32867m | 5.2m/s | -42°C | 0% | 8.2hPa | 2.6V | 03:15:28 | 02:09:38 | 00:00:00 | |
| HSKMA3-T | 2026-09-06 00:32:27 | 52.11001 | 11.43626 | 109° | 37km/h | 32862m | 4.3m/s | -42°C | 0% | 8.2hPa | 2.6V | 03:15:28 | 02:09:37 | 00:00:00 | |
| DL1XH-west | 2026-09-06 00:32:26 | 52.11004 | 11.43614 | 108° | 31km/h | 32857m | 4.5m/s | -42°C | 0% | 8.2hPa | 2.6V | 03:15:28 | 02:09:36 | 00:00:00 | |
| DB0DAN | 2026-09-06 00:32:25 | 52.11006 | 11.43602 | 104° | 24km/h | 32852m | 6.1m/s | -42°C | 0.3% | 8.16hPa | 2.6V | 00:00:00 | 00:00:00 | 00:00:00 | |
| AA1-15 | 2026-09-06 00:32:21 | 52.10996 | 11.43570 | 53° | 22km/h | 32822m | 6m/s | -42°C | 0% | 8.2hPa | 2.6V | 03:15:28 | 02:09:30 | 00:00:00 | |
| DF8AY | 2026-09-06 00:32:20 | 52.10985 | 11.43503 | 70° | 26km/h | 32787m | 7m/s | -41.9°C | 0% | 8.2hPa | 2.6V | 03:15:28 | 02:09:24 | 00:00:00 | |
| DO2JMG | 2026-09-06 00:32:18 | 52.10991 | 11.43552 | 76° | 29km/h | 32809m | 6.3m/s | -42°C | 0% | 8.2hPa | 2.6V | 03:15:28 | 02:09:28 | 00:00:00 | |
| GOEST3-10 | 2026-09-06 00:32:18 | 52.10991 | 11.43552 | 76° | 29km/h | 32810m | 6.2m/s | -41.9°C | 2.1% | 8.2hPa | 2.6V | 00:00:00 | 00:00:00 | 00:00:00 | |
| DL1XH1-15 | 2026-09-06 00:32:17 | 52.10983 | 11.43494 | 59° | 22km/h | 32780m | 6.7m/s | -41.9°C | 2.2% | 8.2hPa | 2.6V | 03:15:17 | 02:09:23 | 00:00:00 | |
| DL1XH-west | 2026-09-06 00:32:16 | 52.10988 | 11.43527 | 82° | 31km/h | 32798m | 5.1m/s | -41.9°C | 0% | 8.3hPa | 2.6V | 03:15:28 | 02:09:26 | 00:00:00 | |
| AA1-15 | 2026-09-06 00:32:10 | 52.10972 | 11.43474 | 49° | 22km/h | 32762m | 5.4m/s | -41.9°C | 0% | 8.3hPa | 2.6V | 03:15:28 | 02:09:20 | 00:00:00 | |
| DB0DAN | 2026-09-06 00:32:10 | 52.10972 | 11.43474 | 49° | 20km/h | 32762m | 5.4m/s | -41.9°C | 0.3% | 8.29hPa | 2.6V | 00:00:00 | 00:00:00 | 00:00:00 | |
| 13BRC | 2026-09-06 00:32:10 | 52.10972 | 11.43474 | 50° | 22km/h | 32763m | 5.4m/s | -41.9°C | 0.3% | 8.3hPa | 2.6V | 03:15:00 | 00:00:00 | 00:00:00 | |
| DL1XH1-15 | 2026-09-06 00:32:08 | 52.10958 | 11.43405 | 73° | 20km/h | 32719m | 6.7m/s | -41.8°C | 2.1% | 8.3hPa | 2.6V | 03:15:27 | 02:09:13 | 00:00:00 | |
| DO2JMG | 2026-09-06 00:32:07 | 52.10964 | 11.43447 | 74° | 29km/h | 32743m | 5.8m/s | -41.9°C | 0% | 8.3hPa | 2.6V | 03:15:28 | 02:09:17 | 00:00:00 | |
| DL1XH-west | 2026-09-06 00:32:06 | 52.10962 | 11.43435 | 77° | 29km/h | 32737m | 5.4m/s | -41.9°C | 0% | 8.3hPa | 2.6V | 03:15:28 | 02:09:16 | 00:00:00 | |
| AA1-15 | 2026-09-06 00:32:00 | 52.10954 | 11.43375 | 92° | 24km/h | 32696m | 7.1m/s | -41.8°C | 0% | 8.4hPa | 2.6V | 03:16:19 | 02:09:09 | 00:00:00 | |
| DB0ND-19 | 2026-09-06 00:31:59 | 52.10957 | 11.43331 | 95° | 22km/h | 32673m | 5.7m/s | -41.7°C | 0.3% | 8.4hPa | 2.6V | 00:00:00 | 00:00:00 | 00:00:00 | |
| DO2SHX-10 | 2026-09-06 00:31:58 | 52.10955 | 11.43364 | 97° | 27km/h | 32690m | 6.5m/s | -41.7°C | 2.1% | 8.3hPa | 2.6V | 03:15:00 | 02:09:08 | 00:00:00 | |
| DL1XH1-15 | 2026-09-06 00:31:57 | 52.10957 | 11.43316 | 85° | 15km/h | 32660m | 6.1m/s | -41.6°C | 2.1% | 8.4hPa | 2.6V | 03:15:37 | 02:09:03 | 00:00:00 | |
| DL1XH-west | 2026-09-06 00:31:56 | 52.10956 | 11.43341 | 98° | 27km/h | 32678m | 4.9m/s | -41.7°C | 0% | 8.4hPa | 2.6V | 03:16:19 | 02:09:06 | 00:00:00 | |
| DB0DAN | 2026-09-06 00:31:55 | 52.10957 | 11.43331 | 95° | 22km/h | 32672m | 5.7m/s | -41.7°C | 0.3% | 8.39hPa | 2.6V | 00:00:00 | 00:00:00 | 00:00:00 | |
| AA1-15 | 2026-09-06 00:31:48 | 52.10957 | 11.43280 | 93° | 27km/h | 32631m | 6.4m/s | -41.6°C | 0% | 8.5hPa | 2.6V | 03:16:19 | 02:08:58 | 00:00:00 | |
| DO2JMG | 2026-09-06 00:31:46 | 52.10958 | 11.43255 | 93° | 31km/h | 32620m | 4.7m/s | -41.6°C | 0% | 8.5hPa | 2.6V | 03:16:19 | 02:08:56 | 00:00:00 | |
| DL1XH-west | 2026-09-06 00:31:45 | 52.10958 | 11.43243 | 91° | 27km/h | 32615m | 5.6m/s | -41.6°C | 0% | 8.4hPa | 2.6V | 03:16:19 | 02:08:55 | 00:00:00 | |
| EDDB2-11 | 2026-09-06 00:31:44 | 52.10958 | 11.43232 | 86° | 24km/h | 32609m | 6.5m/s | -41.5°C | 0.3% | 8.5hPa | 2.6V | 00:00:00 | 00:00:00 | 00:00:00 | |
| DO2SHX-10 | 2026-09-06 00:31:43 | 52.10957 | 11.43223 | 79° | 18km/h | 32602m | 6.6m/s | -41.5°C | 2.1% | 8.4hPa | 2.6V | 00:00:00 | 02:08:53 | 00:00:00 | |
| TFSTFS | 2026-09-06 00:31:42 | 52.10956 | 11.43216 | 75° | 18km/h | 32596m | 5.8m/s | -41.5°C | 0.3% | 8.5hPa | 2.6V | 03:16:00 | 00:00:00 | 00:00:00 | |
| DB0DAN | 2026-09-06 00:31:40 | 52.10954 | 11.43201 | 79° | 20km/h | 32585m | 5.7m/s | -41.5°C | 0.3% | 8.52hPa | 2.6V | 00:00:00 | 00:00:00 | 00:00:00 | |
| SMARD9-15 | 2026-09-06 00:31:40 | 52.10953 | 11.43191 | 88° | 26km/h | 32579m | 6.2m/s | -41.5°C | 0.3% | 8.6hPa | 2.6V | 00:00:00 | 00:00:00 | 00:00:00 | |
| DL1XH1-15 | 2026-09-06 00:31:38 | 52.10973 | 11.43125 | 141° | 29km/h | 32542m | 5.5m/s | -41.4°C | 2.1% | 8.6hPa | 2.6V | 03:15:57 | 02:08:43 | 00:00:00 | |
| AA1-15 | 2026-09-06 00:31:38 | 52.10953 | 11.43180 | 97° | 31km/h | 32572m | 5.6m/s | -41.5°C | 0% | 8.5hPa | 2.6V | 03:16:19 | 02:08:48 | 00:00:00 | |
| DO2JMG | 2026-09-06 00:31:36 | 52.10958 | 11.43155 | 117° | 33km/h | 32561m | 5.7m/s | -41.5°C | 0% | 8.5hPa | 2.6V | 03:16:19 | 02:08:46 | 00:00:00 | |
| DL1XH-west | 2026-09-06 00:31:35 | 52.10962 | 11.43143 | 126° | 33km/h | 32555m | 6.8m/s | -41.4°C | 0% | 8.6hPa | 2.6V | 03:16:19 | 02:08:45 | 00:00:00 | |
| BIOWL1-15 | 2026-09-06 00:31:32 | 52.10979 | 11.43118 | 139° | 27km/h | 32537m | 4.5m/s | -41.4°C | 0% | 8.6hPa | 2.6V | 03:20:34 | 02:08:42 | 00:00:00 | |
| AA1-15 | 2026-09-06 00:31:27 | 52.10985 | 11.43065 | 72° | 35km/h | 32507m | 5.9m/s | -41.3°C | 0% | 8.6hPa | 2.6V | 03:16:19 | 02:08:37 | 00:00:00 | |
| DO2JMG | 2026-09-06 00:31:26 | 52.10982 | 11.43052 | 69° | 33km/h | 32502m | 4.5m/s | -41.3°C | 0% | 8.6hPa | 2.6V | 03:16:19 | 02:08:36 | 00:00:00 | |
| DB0DAN | 2026-09-06 00:31:25 | 52.10980 | 11.43041 | 71° | 24km/h | 32497m | 4.4m/s | -41.3°C | 0.3% | 8.63hPa | 2.6V | 00:00:00 | 00:00:00 | 00:00:00 | |
| DF8AY | 2026-09-06 00:31:24 | 52.10979 | 11.43033 | 85° | 18km/h | 32492m | 6.1m/s | -41.3°C | 0% | 8.6hPa | 2.6V | 03:16:19 | 02:08:34 | 00:00:00 | |
| DL1XH1-15 | 2026-09-06 00:31:24 | 52.10979 | 11.43026 | 122° | 15km/h | 32485m | 6.8m/s | -41.3°C | 2.1% | 8.6hPa | 2.6V | 03:16:07 | 02:08:33 | 00:00:00 | |
| DL1ZP-14 | 2026-09-06 00:31:24 | 52.10979 | 11.43033 | 84° | 18km/h | 32492m | 6.1m/s | -41.3°C | 0.3% | 8.6hPa | 2.6V | 00:00:00 | 00:00:00 | 00:00:00 | |
| GOEST3-10 | 2026-09-06 00:31:23 | 52.10979 | 11.43026 | 123° | 26km/h | 32486m | 6.8m/s | -41.3°C | 2.1% | 8.6hPa | 2.6V | 00:00:00 | 02:08:33 | 00:00:00 | |
| DO2SHX-10 | 2026-09-06 00:31:22 | 52.10982 | 11.43022 | 154° | 26km/h | 32479m | 6.4m/s | -41.3°C | 2.1% | 8.6hPa | 2.6V | 03:16:00 | 02:08:32 | 00:00:00 | |
| TFSTFS | 2026-09-06 00:31:21 | 52.10988 | 11.43019 | 161° | 27km/h | 32473m | 5.4m/s | -41.3°C | 0.3% | 8.6hPa | 2.6V | 03:16:00 | 00:00:00 | 00:00:00 | |
| DO2SHX-10 | 2026-09-06 00:31:19 | 52.11002 | 11.43007 | 147° | 37km/h | 32461m | 5.7m/s | -41.3°C | 2.1% | 8.6hPa | 2.6V | 00:00:00 | 02:08:29 | 00:00:00 | |
| DL1XH1-15 | 2026-09-06 00:31:18 | 52.11020 | 11.42926 | 70° | 20km/h | 32420m | 6m/s | -41.3°C | 2% | 8.8hPa | 2.6V | 03:16:18 | 02:08:22 | 00:00:00 | |
| AA1-15 | 2026-09-06 00:31:16 | 52.11019 | 11.42972 | 110° | 35km/h | 32445m | 4.9m/s | -41.3°C | 0% | 8.7hPa | 2.6V | 03:16:19 | 02:08:26 | 00:00:00 | |
| DL1XH-15 | 2026-09-06 00:31:16 | 52.11020 | 11.42926 | 70° | 20km/h | 32420m | 6m/s | -41.3°C | 2% | 8.8hPa | 2.6V | 03:16:18 | 02:08:22 | 00:00:00 | |
| DO2JMG | 2026-09-06 00:31:15 | 52.11022 | 11.42959 | 101° | 33km/h | 32440m | 5.9m/s | -41.3°C | 0% | 8.7hPa | 2.6V | 03:16:19 | 02:08:25 | 00:00:00 | |
| HSKMA3-T | 2026-09-06 00:31:13 | 52.11020 | 11.42926 | 70° | 20km/h | 32420m | 6m/s | -41.3°C | 0% | 8.8hPa | 2.6V | 03:16:19 | 02:08:22 | 00:00:00 | |
| DF8AY | 2026-09-06 00:31:12 | 52.11018 | 11.42918 | 69° | 20km/h | 32414m | 4.6m/s | -41.3°C | 0% | 8.8hPa | 2.6V | 03:16:19 | 02:08:21 | 00:00:00 | |
| DB0DAN | 2026-09-06 00:31:10 | 52.11017 | 11.42910 | 77° | 18km/h | 32410m | 4.2m/s | -41.3°C | 0.3% | 8.72hPa | 2.6V | 00:00:00 | 00:00:00 | 00:00:00 | |
| DO2SHX-10 | 2026-09-06 00:31:10 | 52.11017 | 11.42910 | 77° | 24km/h | 32410m | 4.1m/s | -41.2°C | 2.0% | 8.7hPa | 2.6V | 03:16:00 | 02:08:20 | 00:00:00 | |
| DO9LL-15 | 2026-09-06 00:31:08 | 52.11017 | 11.42892 | 104° | 35km/h | 32400m | 6.3m/s | -41.2°C | 2.0% | 8.7hPa | 2.6V | 00:00:00 | 02:08:18 | 00:00:00 | |
| DL1XH1-15 | 2026-09-06 00:31:07 | 52.11045 | 11.42824 | 140° | 42km/h | 32370m | 5.5m/s | -41.4°C | 2% | 8.8hPa | 2.6V | 03:16:27 | 02:08:13 | 00:00:00 | |
| DM0DOS-11 | 2026-09-06 00:31:07 | 52.11053 | 11.42815 | 147° | 35km/h | 32364m | 6.8m/s | -41.4°C | 2% | 8.8hPa | 2.6V | 03:16:28 | 02:08:12 | 00:00:00 | |
| AA1-15 | 2026-09-06 00:31:06 | 52.11024 | 11.42866 | 119° | 42km/h | 32387m | 6.4m/s | -41.3°C | 0% | 8.8hPa | 2.6V | 03:17:10 | 02:08:16 | 00:00:00 | |
| DO2JMG | 2026-09-06 00:31:04 | 52.11037 | 11.42837 | 133° | 46km/h | 32376m | 5m/s | -41.4°C | 0% | 8.8hPa | 2.5V | 03:17:10 | 02:08:14 | 00:00:00 | |
| HSKMA3-T | 2026-09-06 00:31:02 | 52.11053 | 11.42815 | 147° | 35km/h | 32365m | 6.8m/s | -41.4°C | 0% | 8.8hPa | 2.6V | 03:17:10 | 02:08:12 | 00:00:00 | |
| DF8AY | 2026-09-06 00:31:01 | 52.11060 | 11.42809 | 153° | 27km/h | 32358m | 6m/s | -41.4°C | 0% | 8.8hPa | 2.6V | 03:17:10 | 02:08:11 | 00:00:00 | |
| DO2SHX-10 | 2026-09-06 00:31:01 | 52.11060 | 11.42808 | 153° | 20km/h | 32358m | 6.0m/s | -41.3°C | 2.0% | 8.7hPa | 2.6V | 00:00:00 | 02:08:11 | 00:00:00 | |
| OE5DRO-10 | 2026-09-06 00:31:00 | 52.11066 | 11.42804 | 151° | 33km/h | 32353m | 5.0m/s | -41.4°C | 2.0% | 8.7hPa | 2.6V | 00:00:00 | 00:00:00 | 00:00:00 | |
| DL1XH1-15 | 2026-09-06 00:30:58 | 52.11073 | 11.42721 | 110° | 46km/h | 32315m | 5.1m/s | -41.9°C | 2.1% | 8.8hPa | 2.6V | 03:16:37 | 02:08:03 | 00:00:00 | |
| BUE01 | 2026-09-06 00:30:58 | 52.11070 | 11.42785 | 83° | 26km/h | 32337m | 6.3m/s | -41.6°C | 0.3% | 8.8hPa | 2.6V | 00:00:00 | 00:00:00 | 00:00:00 | |
| DM0DOS-11 | 2026-09-06 00:30:57 | 52.11078 | 11.42704 | 121° | 44km/h | 32309m | 5.9m/s | -41.9°C | 2.1% | 8.9hPa | 2.6V | 03:16:38 | 02:08:02 | 00:00:00 | |
| AA1-15 | 2026-09-06 00:30:56 | 52.11069 | 11.42757 | 91° | 42km/h | 32324m | 5.2m/s | -41.7°C | 0% | 8.8hPa | 2.6V | 03:17:10 | 02:08:05 | 00:00:00 | |
| DB0DAN | 2026-09-06 00:30:55 | 52.11069 | 11.42757 | 91° | 40km/h | 32324m | 5.2m/s | -41.7°C | 0.3% | 8.82hPa | 2.6V | 00:00:00 | 00:00:00 | 00:00:00 | |
| DO2JMG | 2026-09-06 00:30:54 | 52.11070 | 11.42739 | 100° | 46km/h | 32319m | 4.6m/s | -41.8°C | 0% | 8.9hPa | 2.6V | 03:17:10 | 02:08:04 | 00:00:00 | |
| HSKMA3-T | 2026-09-06 00:30:52 | 52.11078 | 11.42704 | 122° | 44km/h | 32309m | 5.9m/s | -41.9°C | 0% | 8.9hPa | 2.6V | 03:17:10 | 02:08:02 | 00:00:00 | |
| DL1XH-west | 2026-09-06 00:30:50 | 52.11092 | 11.42681 | 149° | 37km/h | 32296m | 6.6m/s | -42°C | 0% | 8.9hPa | 2.6V | 03:17:10 | 02:08:00 | 00:00:00 | |
| DF8AY | 2026-09-06 00:30:50 | 52.11099 | 11.42675 | 160° | 31km/h | 32291m | 5.5m/s | -42.1°C | 0% | 8.9hPa | 2.6V | 03:17:10 | 02:07:59 | 00:00:00 | |
| DO2SHX-10 | 2026-09-06 00:30:49 | 52.11099 | 11.42675 | 160° | 27km/h | 32291m | 5.5m/s | -42.0°C | 2.0% | 8.8hPa | 2.6V | 00:00:00 | 02:07:59 | 00:00:00 | |
| DL1XH1-15 | 2026-09-06 00:30:48 | 52.11122 | 11.42623 | 99° | 42km/h | 32257m | 5.4m/s | -42.6°C | 2.1% | 8.9hPa | 2.6V | 03:16:47 | 02:07:53 | 00:00:00 | |
| 13BRC | 2026-09-06 00:30:47 | 52.11112 | 11.42667 | 151° | 24km/h | 32281m | 4.7m/s | -42.2°C | 0.3% | 8.9hPa | 2.6V | 03:17:00 | 00:00:00 | 00:00:00 | |
| DL1XH-15 | 2026-09-06 00:30:46 | 52.11124 | 11.42606 | 104° | 46km/h | 32251m | 5.1m/s | -42.7°C | 2.2% | 8.9hPa | 2.6V | 03:16:48 | 02:07:52 | 00:00:00 | |
| AA1-15 | 2026-09-06 00:30:44 | 52.11120 | 11.42639 | 100° | 37km/h | 32263m | 6.3m/s | -42.5°C | 0% | 8.9hPa | 2.6V | 03:17:10 | 02:07:54 | 00:00:00 | |
| DO2JMG | 2026-09-06 00:30:43 | 52.11122 | 11.42623 | 100° | 42km/h | 32257m | 5.4m/s | -42.6°C | 0% | 8.9hPa | 2.6V | 03:17:10 | 02:07:53 | 00:00:00 | |
| HSKMA3-T | 2026-09-06 00:30:41 | 52.11128 | 11.42588 | 110° | 46km/h | 32246m | 5.6m/s | -42.8°C | 0% | 8.9hPa | 2.6V | 03:17:10 | 02:07:51 | 00:00:00 | |
| DB0DAN | 2026-09-06 00:30:40 | 52.11132 | 11.42571 | 118° | 40km/h | 32240m | 6.1m/s | -42.9°C | 0.3% | 8.94hPa | 2.6V | 00:00:00 | 00:00:00 | 00:00:00 | |
| DL1XH-west | 2026-09-06 00:30:40 | 52.11138 | 11.42558 | 125° | 37km/h | 32234m | 6.3m/s | -42.9°C | 0% | 9hPa | 2.6V | 03:17:10 | 02:07:49 | 00:00:00 | |
| DF8AY | 2026-09-06 00:30:38 | 52.11143 | 11.42547 | 133° | 31km/h | 32227m | 6.8m/s | -42.9°C | 0% | 9hPa | 2.6V | 03:17:10 | 02:07:48 | 00:00:00 | |
| SMARD9-15 | 2026-09-06 00:30:38 | 52.11148 | 11.42539 | 138° | 26km/h | 32221m | 6.5m/s | -43.0°C | 0.3% | 9.0hPa | 2.6V | 00:00:00 | 00:00:00 | 00:00:00 | |
| DM0DOS-11 | 2026-09-06 00:30:37 | 52.11171 | 11.42497 | 118° | 38km/h | 32193m | 6.5m/s | -43°C | 2.2% | 9hPa | 2.6V | 03:16:58 | 02:07:42 | 00:00:00 | |
| DO2JMG | 2026-09-06 00:30:33 | 52.11166 | 11.42510 | 123° | 33km/h | 32198m | 5.9m/s | -43°C | 0% | 9hPa | 2.6V | 03:17:10 | 02:07:43 | 00:00:00 | |
| HSKMA3-T | 2026-09-06 00:30:31 | 52.11175 | 11.42482 | 115° | 46km/h | 32187m | 6m/s | -43°C | 0% | 9hPa | 2.6V | 03:17:10 | 02:07:41 | 00:00:00 | |
| DF8AY | 2026-09-06 00:30:28 | 52.11188 | 11.42429 | 109° | 42km/h | 32170m | 6.1m/s | -43°C | 0% | 9.1hPa | 2.6V | 03:17:10 | 02:07:38 | 00:00:00 | |
| DL1XH1-15 | 2026-09-06 00:30:28 | 52.11195 | 11.42371 | 89° | 26km/h | 32140m | 6.5m/s | -43.1°C | 2.2% | 9.1hPa | 2.6V | 03:17:07 | 02:07:33 | 00:00:00 | |
| DO2SHX-10 | 2026-09-06 00:30:28 | 52.11188 | 11.42429 | 110° | 35km/h | 32170m | 6.1m/s | -43.0°C | 2.2% | 9.0hPa | 2.6V | 00:00:00 | 02:07:38 | 00:00:00 | |
| DM0DOS-11 | 2026-09-06 00:30:27 | 52.11195 | 11.42360 | 90° | 27km/h | 32134m | 5.9m/s | -43.1°C | 2.2% | 9.1hPa | 2.6V | 03:17:08 | 02:07:32 | 00:00:00 | |
| DB0DAN | 2026-09-06 00:30:25 | 52.11195 | 11.42391 | 96° | 24km/h | 32152m | 5.7m/s | -43.1°C | 0.3% | 9.09hPa | 2.6V | 00:00:00 | 00:00:00 | 00:00:00 | |
| AA1-15 | 2026-09-06 00:30:23 | 52.11195 | 11.42371 | 90° | 26km/h | 32140m | 6.6m/s | -43.1°C | 0% | 9.1hPa | 2.6V | 03:17:10 | 02:07:33 | 00:00:00 | |
| DO2JMG | 2026-09-06 00:30:22 | 52.11195 | 11.42360 | 90° | 27km/h | 32134m | 5.9m/s | -43.2°C | 0% | 9.1hPa | 2.6V | 03:17:10 | 02:07:32 | 00:00:00 | |
| HSKMA3-T | 2026-09-06 00:30:20 | 52.11196 | 11.42337 | 94° | 29km/h | 32122m | 5.4m/s | -43.3°C | 0% | 9.1hPa | 2.7V | 03:17:10 | 02:07:30 | 00:00:00 | |
| BIOWL1-15 | 2026-09-06 00:30:19 | 52.11199 | 11.42302 | 101° | 29km/h | 32105m | 5.2m/s | -43.4°C | 0% | 9.1hPa | 2.6V | 03:20:34 | 02:07:27 | 00:00:00 | |
| DL1XH-west | 2026-09-06 00:30:18 | 52.11197 | 11.42313 | 100° | 29km/h | 32110m | 6.2m/s | -43.4°C | 0% | 9.1hPa | 2.6V | 03:18:01 | 02:07:28 | 00:00:00 | |
| DL1XH1-15 | 2026-09-06 00:30:18 | 52.11203 | 11.42241 | 91° | 47km/h | 32082m | 6.8m/s | -43.6°C | 2.3% | 9.2hPa | 2.6V | 03:17:17 | 02:07:23 | 00:00:00 | |
| DF8AY | 2026-09-06 00:30:17 | 52.11201 | 11.42182 | 78° | 44km/h | 32066m | 4.8m/s | -43.7°C | 0% | 9.2hPa | 2.6V | 03:18:01 | 02:07:20 | 00:00:00 | |
| DM0DOS-11 | 2026-09-06 00:30:17 | 52.11203 | 11.42221 | 87° | 51km/h | 32076m | 6m/s | -43.6°C | 2.3% | 9.2hPa | 2.6V | 03:17:18 | 02:07:22 | 00:00:00 | |
| AA1-15 | 2026-09-06 00:30:13 | 52.11203 | 11.42221 | 88° | 51km/h | 32076m | 6m/s | -43.6°C | 0% | 9.2hPa | 2.6V | 03:18:01 | 02:07:22 | 00:00:00 | |
| DO2JMG | 2026-09-06 00:30:11 | 52.11202 | 11.42201 | 84° | 49km/h | 32071m | 4.4m/s | -43.6°C | 0% | 9.2hPa | 2.6V | 03:18:01 | 02:07:21 | 00:00:00 | |
| DB0DAN | 2026-09-06 00:30:10 | 52.11201 | 11.42182 | 78° | 40km/h | 32066m | 4.8m/s | -43.7°C | 0.4% | 9.2hPa | 2.6V | 00:00:00 | 00:00:00 | 00:00:00 | |
| HSKMA3-T | 2026-09-06 00:30:09 | 52.11198 | 11.42167 | 70° | 37km/h | 32061m | 6.7m/s | -43.7°C | 0% | 9.2hPa | 2.6V | 03:18:01 | 02:07:19 | 00:00:00 | |
| DL1XH-west | 2026-09-06 00:30:08 | 52.11195 | 11.42155 | 60° | 29km/h | 32054m | 7.7m/s | -43.6°C | 0% | 9.2hPa | 2.6V | 03:18:01 | 02:07:18 | 00:00:00 | |
| SMARD9-15 | 2026-09-06 00:30:07 | 52.11187 | 11.42139 | 44° | 20km/h | 32042m | 5.0m/s | -43.6°C | 0.3% | 9.2hPa | 2.6V | 00:00:00 | 00:00:00 | 00:00:00 | |
| DM0DOS-11 | 2026-09-06 00:30:06 | 52.11177 | 11.42096 | 83° | 42km/h | 32017m | 6.1m/s | -43.5°C | 2.3% | 9.3hPa | 2.6V | 03:17:28 | 02:07:12 | 00:00:00 | |
| AA1-15 | 2026-09-06 00:30:02 | 52.11177 | 11.42096 | 84° | 42km/h | 32017m | 6.1m/s | -43.5°C | 0% | 9.3hPa | 2.6V | 03:18:01 | 02:07:12 | 00:00:00 | |
| DO2JMG | 2026-09-06 00:30:01 | 52.11176 | 11.42079 | 85° | 46km/h | 32011m | 5.2m/s | -43.5°C | 0% | 9.3hPa | 2.6V | 03:18:01 | 02:07:11 | 00:00:00 | |
| DF8AY | 2026-09-06 00:29:59 | 52.11173 | 11.42042 | 80° | 44km/h | 32001m | 5.6m/s | -43.5°C | 0% | 9.3hPa | 2.6V | 03:18:01 | 02:07:09 | 00:00:00 | |
| DL1XH-west | 2026-09-06 00:29:58 | 52.11171 | 11.42025 | 72° | 38km/h | 31995m | 6m/s | -43.5°C | 0% | 9.3hPa | 2.6V | 03:18:01 | 02:07:08 | 00:00:00 | |
| DL1XH1-15 | 2026-09-06 00:29:58 | 52.11148 | 11.41979 | 44° | 27km/h | 31965m | 5.9m/s | -43.5°C | 2.2% | 9.3hPa | 2.6V | 03:17:37 | 02:07:03 | 00:00:00 | |
| BUE01 | 2026-09-06 00:29:56 | 52.11148 | 11.41979 | 44° | 26km/h | 31965m | 5.9m/s | -43.5°C | 0.3% | 9.3hPa | 2.6V | 00:00:00 | 00:00:00 | 00:00:00 | |
| DB0DAN | 2026-09-06 00:29:55 | 52.11158 | 11.41993 | 41° | 26km/h | 31977m | 5.7m/s | -43.5°C | 0.4% | 9.34hPa | 2.6V | 00:00:00 | 00:00:00 | 00:00:00 | |
| AA1-15 | 2026-09-06 00:29:51 | 52.11140 | 11.41961 | 65° | 27km/h | 31954m | 5.3m/s | -43.5°C | 0% | 9.4hPa | 2.6V | 03:18:01 | 02:07:01 | 00:00:00 | |
| DO2JMG | 2026-09-06 00:29:50 | 52.11138 | 11.41950 | 77° | 26km/h | 31949m | 5.5m/s | -43.5°C | 0% | 9.3hPa | 2.6V | 03:18:01 | 02:07:00 | 00:00:00 | |
| DF8AY | 2026-09-06 00:29:48 | 52.11137 | 11.41930 | 97° | 24km/h | 31936m | 7.1m/s | -43.6°C | 0% | 9.4hPa | 2.6V | 03:18:01 | 02:06:58 | 00:00:00 | |
| DL1XH1-15 | 2026-09-06 00:29:48 | 52.11142 | 11.41875 | 86° | 35km/h | 31906m | 6.9m/s | -43.8°C | 2.2% | 9.4hPa | 2.6V | 03:17:47 | 02:06:53 | 00:00:00 | |
| DL1XH-west | 2026-09-06 00:29:47 | 52.11138 | 11.41920 | 105° | 24km/h | 31929m | 6.2m/s | -43.6°C | 0% | 9.4hPa | 2.6V | 03:18:01 | 02:06:57 | 00:00:00 | |
| DO2SHX-10 | 2026-09-06 00:29:46 | 52.11139 | 11.41910 | 107° | 27km/h | 31924m | 5.2m/s | -43.6°C | 2.3% | 9.3hPa | 2.6V | 03:17:00 | 02:06:56 | 00:00:00 | |
| DL1XH-15 | 2026-09-06 00:29:45 | 52.11141 | 11.41860 | 79° | 38km/h | 31900m | 6.3m/s | -43.8°C | 2.3% | 9.4hPa | 2.6V | 03:17:48 | 02:06:52 | 00:00:00 | |
| SONDE2-11 | 2026-09-06 00:29:45 | 52.11142 | 11.41889 | 96° | 29km/h | 31913m | 5.8m/s | -43.7°C | 0.4% | 9.4hPa | 2.6V | 00:00:00 | 00:00:00 | 00:00:00 | |
| AA1-15 | 2026-09-06 00:29:41 | 52.11136 | 11.41832 | 65° | 33km/h | 31890m | 4.6m/s | -43.9°C | 0% | 9.4hPa | 2.6V | 03:18:01 | 02:06:50 | 00:00:00 | |
| DB0DAN | 2026-09-06 00:29:40 | 52.11136 | 11.41832 | 65° | 31km/h | 31890m | 4.6m/s | -43.9°C | 0.4% | 9.45hPa | 2.6V | 00:00:00 | 00:00:00 | 00:00:00 | |
| DO2JMG | 2026-09-06 00:29:39 | 52.11132 | 11.41821 | 57° | 27km/h | 31884m | 6.2m/s | -44°C | 0% | 9.4hPa | 2.6V | 03:18:01 | 02:06:49 | 00:00:00 | |
| DF8AY | 2026-09-06 00:29:38 | 52.11128 | 11.41814 | 48° | 18km/h | 31878m | 7m/s | -44°C | 0% | 9.4hPa | 2.7V | 03:18:01 | 02:06:48 | 00:00:00 | |
| DL1XH-west | 2026-09-06 00:29:36 | 52.11125 | 11.41807 | 97° | 5km/h | 31866m | 4.9m/s | -44°C | 0% | 9.5hPa | 2.6V | 03:18:01 | 02:06:46 | 00:00:00 | |
| DD8BA-10 | 2026-09-06 00:29:36 | 52.11125 | 11.41807 | 97° | 22km/h | 31867m | 4.8m/s | -44.0°C | 2.3% | 9.4hPa | 2.7V | 00:00:00 | 00:00:00 | 00:00:00 | |
| DL1XH-15 | 2026-09-06 00:29:35 | 52.11136 | 11.41784 | 121° | 31km/h | 31842m | 5.7m/s | -44.1°C | 2.3% | 9.5hPa | 2.7V | 03:17:58 | 02:06:42 | 00:00:00 | |
| AA1-15 | 2026-09-06 00:29:30 | 52.11144 | 11.41760 | 115° | 33km/h | 31831m | 5.3m/s | -44.1°C | 0% | 9.5hPa | 2.6V | 03:18:01 | 02:06:40 | 00:00:00 | |
| DF8AY | 2026-09-06 00:29:28 | 52.11149 | 11.41738 | 104° | 24km/h | 31820m | 6m/s | -44.2°C | 0% | 9.6hPa | 2.6V | 03:18:52 | 02:06:38 | 00:00:00 | |
| DL1XH1-15 | 2026-09-06 00:29:28 | 52.11143 | 11.41704 | 70° | 20km/h | 31792m | 5.9m/s | -44.3°C | 2.3% | 9.6hPa | 2.6V | 03:18:07 | 02:06:33 | 00:00:00 | |
| DO2SHX-10 | 2026-09-06 00:29:28 | 52.11149 | 11.41738 | 104° | 18km/h | 31820m | 5.9m/s | -44.1°C | 2.3% | 9.5hPa | 2.6V | 00:00:00 | 02:06:38 | 00:00:00 | |
| DB0DAN | 2026-09-06 00:29:25 | 52.11148 | 11.41717 | 60° | 15km/h | 31802m | 5.1m/s | -44.2°C | 0.4% | 9.55hPa | 2.6V | 00:00:00 | 00:00:00 | 00:00:00 | |
| DO2JMG | 2026-09-06 00:29:25 | 52.11148 | 11.41717 | 60° | 16km/h | 31802m | 5.1m/s | -44.2°C | 0% | 9.6hPa | 2.6V | 03:18:52 | 02:06:35 | 00:00:00 | |
| AA1-15 | 2026-09-06 00:29:19 | 52.11144 | 11.41664 | 104° | 24km/h | 31767m | 6.3m/s | -44.6°C | 0% | 9.6hPa | 2.6V | 03:18:52 | 02:06:29 | 00:00:00 | |
| HSKMA3-T | 2026-09-06 00:29:18 | 52.11145 | 11.41655 | 104° | 20km/h | 31761m | 6.5m/s | -44.7°C | 0% | 9.6hPa | 2.6V | 03:18:52 | 02:06:28 | 00:00:00 | |
| DF8AY | 2026-09-06 00:29:18 | 52.11146 | 11.41648 | 96° | 16km/h | 31755m | 5.8m/s | -44.8°C | 0% | 9.7hPa | 2.6V | 03:18:52 | 02:06:27 | 00:00:00 | |
| DL1XH-west | 2026-09-06 00:29:15 | 52.11146 | 11.41636 | 73° | 16km/h | 31744m | 5.1m/s | -44.8°C | 0% | 9.7hPa | 2.7V | 03:18:52 | 02:06:25 | 00:00:00 | |
| DO2JMG | 2026-09-06 00:29:13 | 52.11142 | 11.41620 | 65° | 26km/h | 31732m | 6.7m/s | -44.9°C | 0% | 9.7hPa | 2.6V | 03:18:52 | 02:06:23 | 00:00:00 | |
| DO2SHX-10 | 2026-09-06 00:29:13 | 52.11142 | 11.41619 | 65° | 29km/h | 31733m | 6.7m/s | -44.8°C | 2.4% | 9.6hPa | 2.6V | 00:00:00 | 02:06:23 | 00:00:00 | |
| DF8AY-15 | 2026-09-06 00:29:12 | 52.11138 | 11.41609 | 62° | 24km/h | 31727m | 5.7m/s | -44.8°C | 2.4% | 9.6hPa | 2.6V | 00:00:00 | 02:06:22 | 00:00:00 | |
| DB0DAN | 2026-09-06 00:29:10 | 52.11130 | 11.41588 | 50° | 29km/h | 31715m | 5.3m/s | -45°C | 0.4% | 9.7hPa | 2.6V | 00:00:00 | 00:00:00 | 00:00:00 | |
| HSKMA3-T | 2026-09-06 00:29:08 | 52.11119 | 11.41573 | 32° | 26km/h | 31703m | 6.7m/s | -45°C | 0% | 9.7hPa | 2.6V | 03:18:52 | 02:06:18 | 00:00:00 | |
| DL1XH1-15 | 2026-09-06 00:29:08 | 52.11098 | 11.41544 | 65° | 26km/h | 31673m | 6m/s | -45.3°C | 2.5% | 9.8hPa | 2.6V | 03:18:27 | 02:06:13 | 00:00:00 | |
| DF8AY | 2026-09-06 00:29:06 | 52.11109 | 11.41564 | 30° | 22km/h | 31692m | 5m/s | -45.1°C | 0% | 9.7hPa | 2.6V | 03:18:52 | 02:06:16 | 00:00:00 | |
| DL1XH-west | 2026-09-06 00:29:04 | 52.11101 | 11.41552 | 54° | 24km/h | 31680m | 6.9m/s | -45.3°C | 0% | 9.7hPa | 2.6V | 03:18:52 | 02:06:14 | 00:00:00 | |
| DO2JMG | 2026-09-06 00:29:02 | 52.11095 | 11.41533 | 73° | 27km/h | 31668m | 4.7m/s | -45.3°C | 0% | 9.8hPa | 2.6V | 03:18:52 | 02:06:12 | 00:00:00 | |
| BIOWL1-15 | 2026-09-06 00:29:01 | 52.11093 | 11.41523 | 73° | 26km/h | 31663m | 4.7m/s | -45.4°C | 0% | 9.8hPa | 2.6V | 03:20:34 | 02:06:11 | 00:00:00 | |
| DO2SHX-10 | 2026-09-06 00:29:01 | 52.11093 | 11.41523 | 73° | 22km/h | 31663m | 4.7m/s | -45.3°C | 2.4% | 9.7hPa | 2.6V | 00:00:00 | 02:06:11 | 00:00:00 | |
| SP3BTT-10 | 2026-09-06 00:29:00 | 52.11091 | 11.41513 | 70° | 11km/h | 31658m | 5.8m/s | -45.3°C | 2.4% | 9.7hPa | 2.6V | 03:18:00 | 00:00:00 | 00:00:00 | |
| NBG1-10 | 2026-09-06 00:28:59 | 52.11089 | 11.41506 | 64° | 24km/h | 31652m | 6.8m/s | -45.3°C | 2.4% | 9.8hPa | 2.6V | 00:00:00 | 02:06:09 | 00:00:00 | |
| DL1XH1-15 | 2026-09-06 00:28:58 | 52.11071 | 11.41473 | 63° | 27km/h | 31616m | 6.7m/s | -45.5°C | 2.5% | 9.8hPa | 2.6V | 03:18:37 | 02:06:03 | 00:00:00 | |
| HSKMA3-T | 2026-09-06 00:28:57 | 52.11084 | 11.41496 | 37° | 15km/h | 31639m | 5.2m/s | -45.4°C | 0% | 9.8hPa | 2.6V | 03:18:52 | 02:06:07 | 00:00:00 | |
| AA1-15 | 2026-09-06 00:28:57 | 52.11081 | 11.41492 | 36° | 16km/h | 31634m | 4.8m/s | -45.5°C | 0% | 9.8hPa | 2.6V | 03:18:52 | 02:06:06 | 00:00:00 | |
| DB0DAN | 2026-09-06 00:28:55 | 52.11078 | 11.41488 | 44° | 18km/h | 31628m | 5.4m/s | -45.5°C | 0.4% | 9.83hPa | 2.6V | 00:00:00 | 00:00:00 | 00:00:00 | |
| DF8AY | 2026-09-06 00:28:55 | 52.11078 | 11.41488 | 44° | 18km/h | 31628m | 5.4m/s | -45.5°C | 0% | 9.8hPa | 2.6V | 03:18:52 | 02:06:05 | 00:00:00 | |
| DL1XH-west | 2026-09-06 00:28:53 | 52.11071 | 11.41473 | 64° | 27km/h | 31616m | 6.7m/s | -45.5°C | 0% | 9.8hPa | 2.6V | 03:18:52 | 02:06:03 | 00:00:00 | |
| DO2JMG | 2026-09-06 00:28:49 | 52.11060 | 11.41429 | 66° | 22km/h | 31593m | 5.4m/s | -45.7°C | 0% | 9.9hPa | 2.6V | 03:18:52 | 02:05:59 | 00:00:00 | |
| DO2SHX-10 | 2026-09-06 00:28:49 | 52.11060 | 11.41429 | 66° | 16km/h | 31594m | 5.4m/s | -45.6°C | 2.6% | 9.8hPa | 2.6V | 00:00:00 | 02:05:59 | 00:00:00 | |
| DL1XH1-15 | 2026-09-06 00:28:48 | 52.11046 | 11.41411 | 48° | 18km/h | 31559m | 7.1m/s | -45.6°C | 2.5% | 9.9hPa | 2.7V | 03:18:47 | 02:05:53 | 00:00:00 | |
| HSKMA3-T | 2026-09-06 00:28:46 | 52.11054 | 11.41418 | 1° | 9km/h | 31575m | 5.2m/s | -45.7°C | 0% | 9.9hPa | 2.6V | 03:18:52 | 02:05:56 | 00:00:00 | |
| DL1XH-15 | 2026-09-06 00:28:46 | 52.11042 | 11.41404 | 55° | 27km/h | 31552m | 6.9m/s | -45.6°C | 2.5% | 9.9hPa | 2.7V | 03:18:48 | 02:05:52 | 00:00:00 | |
| AU51GT2 | 2026-09-06 00:28:45 | 52.11051 | 11.41417 | 8° | 9km/h | 31571m | 4.5m/s | -45.7°C | 0.4% | 9.9hPa | 2.7V | 00:00:00 | 00:00:00 | 00:00:00 | |
| DL1XH-west | 2026-09-06 00:28:43 | 52.11046 | 11.41411 | 49° | 18km/h | 31559m | 7.1m/s | -45.6°C | 0% | 9.9hPa | 2.7V | 03:18:52 | 02:05:53 | 00:00:00 | |
| DO2SHX-10 | 2026-09-06 00:28:43 | 52.11045 | 11.41411 | 49° | 27km/h | 31559m | 7.0m/s | -45.6°C | 2.5% | 9.9hPa | 2.7V | 00:00:00 | 02:05:53 | 00:00:00 | |
| DO3MHA-11 | 2026-09-06 00:28:42 | 52.11042 | 11.41404 | 56° | 31km/h | 31552m | 6.8m/s | -45.5°C | 2.5% | 9.9hPa | 2.7V | 00:00:00 | 02:05:52 | 00:00:00 | |
| 13BRC | 2026-09-06 00:28:41 | 52.11042 | 11.41404 | 56° | 27km/h | 31552m | 6.9m/s | -45.6°C | 0.4% | 9.9hPa | 2.6V | 03:18:00 | 00:00:00 | 00:00:00 | |
| DB0DAN | 2026-09-06 00:28:40 | 52.11032 | 11.41382 | 54° | 37km/h | 31540m | 5.3m/s | -45.5°C | 0.4% | 9.96hPa | 2.6V | 00:00:00 | 00:00:00 | 00:00:00 | |
| DO2JMG | 2026-09-06 00:28:39 | 52.11027 | 11.41370 | 51° | 38km/h | 31535m | 5.3m/s | -45.5°C | 0% | 10hPa | 2.6V | 03:18:52 | 02:05:49 | 00:00:00 | |
| DL1XH1-15 | 2026-09-06 00:28:38 | 52.10989 | 11.41334 | 19° | 26km/h | 31500m | 6m/s | -45.4°C | 2.5% | 10hPa | 2.6V | 03:18:57 | 02:05:43 | 00:00:00 | |
| AA1-15 | 2026-09-06 00:28:36 | 52.11008 | 11.41344 | 25° | 27km/h | 31517m | 6.1m/s | -45.4°C | 0% | 10hPa | 2.6V | 03:19:43 | 02:05:46 | 00:00:00 | |
| HSKMA3-T | 2026-09-06 00:28:35 | 52.11001 | 11.41340 | 16° | 26km/h | 31511m | 5.5m/s | -45.4°C | 0% | 10hPa | 2.6V | 03:19:43 | 02:05:45 | 00:00:00 | |
| DF8AY | 2026-09-06 00:28:32 | 52.10982 | 11.41330 | 27° | 27km/h | 31494m | 6.6m/s | -45.4°C | 0% | 10hPa | 2.6V | 03:20:34 | 02:05:42 | 00:00:00 | |
| DO2JMG | 2026-09-06 00:28:28 | 52.10965 | 11.41302 | 60° | 18km/h | 31470m | 7m/s | -45.4°C | 0% | 10.1hPa | 2.6V | 03:19:43 | 02:05:38 | 00:00:00 | |
| DO2SHX-10 | 2026-09-06 00:28:28 | 52.10965 | 11.41302 | 60° | 16km/h | 31471m | 6.9m/s | -45.3°C | 2.4% | 10.0hPa | 2.7V | 00:00:00 | 02:05:38 | 00:00:00 | |
| DL1XH-15 | 2026-09-06 00:28:26 | 52.10942 | 11.41273 | 19° | 33km/h | 31435m | 5.8m/s | -45.5°C | 2.5% | 10.1hPa | 2.7V | 03:19:08 | 02:05:32 | 00:00:00 | |
| DB0DAN | 2026-09-06 00:28:25 | 52.10959 | 11.41286 | 41° | 15km/h | 31453m | 4.8m/s | -45.5°C | 0.4% | 10.1hPa | 2.6V | 00:00:00 | 00:00:00 | 00:00:00 | |
| HSKMA3-T | 2026-09-06 00:28:25 | 52.10959 | 11.41286 | 41° | 16km/h | 31453m | 4.8m/s | -45.5°C | 0% | 10.1hPa | 2.6V | 03:19:43 | 02:05:35 | 00:00:00 | |
| DF8AY | 2026-09-06 00:28:22 | 52.10904 | 11.41268 | 358° | 13km/h | 31400m | 5.4m/s | -45.5°C | 0% | 10.2hPa | 2.7V | 03:20:34 | 02:05:26 | 00:00:00 | |
| DL1XH-west | 2026-09-06 00:28:22 | 52.10942 | 11.41273 | 19° | 33km/h | 31435m | 5.8m/s | -45.5°C | 0% | 10.1hPa | 2.7V | 03:19:43 | 02:05:32 | 00:00:00 | |
| DO2JMG | 2026-09-06 00:28:18 | 52.10912 | 11.41266 | 352° | 22km/h | 31411m | 6.2m/s | -45.5°C | 0% | 10.2hPa | 2.6V | 03:19:43 | 02:05:28 | 00:00:00 | |
| DL1ZP-14 | 2026-09-06 00:28:17 | 52.10904 | 11.41268 | 357° | 11km/h | 31400m | 5.4m/s | -45.5°C | 0.4% | 10.2hPa | 2.7V | 00:00:00 | 00:00:00 | 00:00:00 | |
| DL1XH-15 | 2026-09-06 00:28:16 | 52.10894 | 11.41256 | 49° | 15km/h | 31375m | 5.2m/s | -45.4°C | 2.5% | 10.2hPa | 2.6V | 03:19:18 | 02:05:22 | 00:00:00 | |
| BIOWL1-15 | 2026-09-06 00:28:16 | 52.10894 | 11.41256 | 49° | 15km/h | 31375m | 5.2m/s | -45.4°C | 0% | 10.2hPa | 2.6V | 03:20:34 | 02:05:22 | 00:00:00 | |
| AA1-15 | 2026-09-06 00:28:16 | 52.10901 | 11.41267 | 21° | 11km/h | 31394m | 6.9m/s | -45.5°C | 0% | 10.2hPa | 2.6V | 03:19:43 | 02:05:25 | 00:00:00 | |
| HSKMA3-T | 2026-09-06 00:28:14 | 52.10899 | 11.41264 | 40° | 13km/h | 31387m | 6.8m/s | -45.5°C | 0% | 10.1hPa | 2.6V | 03:19:43 | 02:05:24 | 00:00:00 | |
| DL1XH-west | 2026-09-06 00:28:11 | 52.10891 | 11.41251 | 41° | 13km/h | 31370m | 6m/s | -45.4°C | 0% | 10.2hPa | 2.6V | 03:19:43 | 02:05:21 | 00:00:00 | |
| DB0DAN | 2026-09-06 00:28:10 | 52.10889 | 11.41249 | 22° | 11km/h | 31364m | 6.7m/s | -45.4°C | 0.4% | 10.21hPa | 2.6V | 00:00:00 | 00:00:00 | 00:00:00 | |
| DF8AY | 2026-09-06 00:28:10 | 52.10889 | 11.41249 | 22° | 11km/h | 31364m | 6.7m/s | -45.4°C | 0% | 10.2hPa | 2.6V | 03:20:34 | 02:05:20 | 00:00:00 | |
| DO2SHX-10 | 2026-09-06 00:28:10 | 52.10888 | 11.41249 | 22° | 13km/h | 31364m | 6.6m/s | -45.4°C | 2.5% | 10.2hPa | 2.6V | 03:19:00 | 02:05:20 | 00:00:00 | |
| HARRO8 | 2026-09-06 00:28:09 | 52.10883 | 11.41249 | 345° | 13km/h | 31352m | 4.7m/s | -45.5°C | 0.4% | 10.2hPa | 2.6V | 00:00:00 | 00:00:00 | 00:00:00 | |
| DL1XH1-15 | 2026-09-06 00:28:08 | 52.10858 | 11.41250 | 12° | 18km/h | 31325m | 4.5m/s | -45.6°C | 2.5% | 10.3hPa | 2.6V | 03:19:27 | 02:05:13 | 00:00:00 | |
| DO2JMG | 2026-09-06 00:28:07 | 52.10879 | 11.41251 | 348° | 18km/h | 31347m | 4.9m/s | -45.5°C | 0% | 10.2hPa | 2.6V | 03:19:43 | 02:05:17 | 00:00:00 | |
| AA1-15 | 2026-09-06 00:28:05 | 52.10863 | 11.41251 | 9° | 22km/h | 31329m | 5m/s | -45.5°C | 0% | 10.2hPa | 2.7V | 03:19:43 | 02:05:14 | 00:00:00 | |
| HSKMA3-T | 2026-09-06 00:28:03 | 52.10858 | 11.41250 | 13° | 18km/h | 31325m | 4.5m/s | -45.6°C | 0% | 10.3hPa | 2.6V | 03:19:43 | 02:05:13 | 00:00:00 | |
| DL1XH-west | 2026-09-06 00:28:00 | 52.10851 | 11.41250 | 289° | 7km/h | 31307m | 6.1m/s | -45.6°C | 0% | 10.3hPa | 2.6V | 03:19:43 | 02:05:10 | 00:00:00 | |
| DF8AY | 2026-09-06 00:27:59 | 52.10851 | 11.41253 | 269° | 9km/h | 31302m | 5.2m/s | -45.7°C | 0% | 10.3hPa | 2.7V | 03:20:34 | 02:05:09 | 00:00:00 | |
| SONCRA | 2026-09-06 00:27:59 | 52.10851 | 11.41257 | 275° | 7km/h | 31297m | 4.9m/s | -45.7°C | 0.4% | 10.4hPa | 2.7V | 00:00:00 | 00:00:00 | 00:00:00 | |
| DL1XH1-15 | 2026-09-06 00:27:58 | 52.10840 | 11.41256 | 18° | 13km/h | 31268m | 4.9m/s | -45.7°C | 2.5% | 10.4hPa | 2.7V | 03:19:37 | 02:05:03 | 00:00:00 | |
| DO2JMG | 2026-09-06 00:27:57 | 52.10850 | 11.41259 | 305° | 5km/h | 31291m | 6.3m/s | -45.7°C | 0% | 10.3hPa | 2.6V | 03:19:43 | 02:05:07 | 00:00:00 | |
| DB0DAN | 2026-09-06 00:27:55 | 52.10847 | 11.41260 | 16° | 11km/h | 31279m | 5.9m/s | -45.7°C | 0.4% | 10.34hPa | 2.6V | 00:00:00 | 00:00:00 | 00:00:00 | |
| AA1-15 | 2026-09-06 00:27:54 | 52.10844 | 11.41258 | 22° | 15km/h | 31273m | 5.1m/s | -45.7°C | 0% | 10.4hPa | 2.6V | 03:19:43 | 02:05:04 | 00:00:00 | |
| HSKMA3-T | 2026-09-06 00:27:53 | 52.10840 | 11.41256 | 19° | 13km/h | 31268m | 4.9m/s | -45.7°C | 0% | 10.4hPa | 2.7V | 03:19:43 | 02:05:03 | 00:00:00 | |
| DL1XH-west | 2026-09-06 00:27:50 | 52.10836 | 11.41257 | 252° | 5km/h | 31250m | 6m/s | -45.6°C | 0% | 10.4hPa | 2.6V | 03:19:43 | 02:05:00 | 00:00:00 | |
| DF8AY | 2026-09-06 00:27:49 | 52.10838 | 11.41261 | 215° | 9km/h | 31239m | 5.2m/s | -45.6°C | 0% | 10.4hPa | 2.6V | 03:20:34 | 02:04:58 | 00:00:00 | |
| SMARD9-10 | 2026-09-06 00:27:49 | 52.10837 | 11.41259 | 231° | 7km/h | 31244m | 5.6m/s | -45.6°C | 0.4% | 10.4hPa | 2.6V | 00:00:00 | 00:00:00 | 00:00:00 | |
| DL1XH1-15 | 2026-09-06 00:27:48 | 52.10840 | 11.41262 | 322° | 2km/h | 31210m | 6.2m/s | -45.6°C | 2.5% | 10.5hPa | 2.6V | 03:19:47 | 02:04:53 | 00:00:00 | |
| DO2JMG | 2026-09-06 00:27:46 | 52.10841 | 11.41263 | 180° | 2km/h | 31227m | 6.2m/s | -45.5°C | 0% | 10.4hPa | 2.6V | 03:20:34 | 02:04:56 | 00:00:00 | |
| AA1-15 | 2026-09-06 00:27:44 | 52.10841 | 11.41262 | 35° | 2km/h | 31215m | 5.4m/s | -45.5°C | 0% | 10.5hPa | 2.7V | 03:20:34 | 02:04:54 | 00:00:00 | |
| DL1XH-15 | 2026-09-06 00:27:44 | 52.10840 | 11.41263 | 280° | 5km/h | 31203m | 6.7m/s | -45.6°C | 2.5% | 10.5hPa | 2.6V | 03:19:48 | 02:04:52 | 00:00:00 | |
| BIOWL1-15 | 2026-09-06 00:27:43 | 52.10840 | 11.41262 | 322° | 2km/h | 31210m | 6.2m/s | -45.6°C | 0% | 10.5hPa | 2.6V | 03:20:34 | 02:04:53 | 00:00:00 | |
| DL1XH-west | 2026-09-06 00:27:39 | 52.10839 | 11.41275 | 274° | 11km/h | 31186m | 5.4m/s | -45.7°C | 0% | 10.5hPa | 2.6V | 03:20:34 | 02:04:49 | 00:00:00 | |
| DO2JMG | 2026-09-06 00:27:36 | 52.10839 | 11.41285 | 256° | 7km/h | 31168m | 4.9m/s | -45.8°C | 0% | 10.6hPa | 2.6V | 03:20:34 | 02:04:46 | 00:00:00 | |
| DD8BA-10 | 2026-09-06 00:27:36 | 52.10839 | 11.41284 | 257° | 11km/h | 31169m | 4.9m/s | -45.7°C | 2.5% | 10.5hPa | 2.6V | 00:00:00 | 00:00:00 | 00:00:00 | |
| DJ8HS-15 | 2026-09-06 00:27:35 | 52.10839 | 11.41287 | 233° | 11km/h | 31163m | 5.3m/s | -45.7°C | 2.5% | 10.5hPa | 2.6V | 03:19:00 | 02:04:45 | 00:00:00 | |
| DL1XH-15 | 2026-09-06 00:27:34 | 52.10848 | 11.41300 | 221° | 20km/h | 31144m | 5.8m/s | -45.9°C | 2.5% | 10.6hPa | 2.6V | 03:19:58 | 02:04:42 | 00:00:00 | |
| HSKMA3-T | 2026-09-06 00:27:33 | 52.10844 | 11.41295 | 219° | 18km/h | 31151m | 7m/s | -45.8°C | 0% | 10.5hPa | 2.6V | 03:20:34 | 02:04:43 | 00:00:00 | |
| BIOWL1-15 | 2026-09-06 00:27:32 | 52.10848 | 11.41300 | 222° | 20km/h | 31144m | 5.9m/s | -45.9°C | 0% | 10.6hPa | 2.6V | 03:20:34 | 02:04:42 | 00:00:00 | |
| DL1XH-west | 2026-09-06 00:27:29 | 52.10856 | 11.41313 | 247° | 7km/h | 31127m | 7m/s | -45.9°C | 0% | 10.6hPa | 2.6V | 03:20:34 | 02:04:39 | 00:00:00 | |
| SONCRA | 2026-09-06 00:27:28 | 52.10855 | 11.41317 | 338° | 7km/h | 31115m | 5.1m/s | -46.0°C | 0.4% | 10.6hPa | 2.6V | 00:00:00 | 00:00:00 | 00:00:00 | |
| DB0DAN | 2026-09-06 00:27:25 | 52.10851 | 11.41320 | 315° | 11km/h | 31104m | 5.7m/s | -46.2°C | 0.4% | 10.65hPa | 2.6V | 00:00:00 | 00:00:00 | 00:00:00 | |
| DO2JMG | 2026-09-06 00:27:25 | 52.10851 | 11.41320 | 315° | 11km/h | 31104m | 5.7m/s | -46.2°C | 0% | 10.7hPa | 2.6V | 03:20:34 | 02:04:35 | 00:00:00 | |
| DF8AY | 2026-09-06 00:27:24 | 52.10849 | 11.41324 | 291° | 13km/h | 31098m | 6.4m/s | -46.3°C | 0% | 10.7hPa | 2.6V | 03:20:34 | 02:04:34 | 00:00:00 | |
| DL1XH-15 | 2026-09-06 00:27:24 | 52.10849 | 11.41337 | 257° | 18km/h | 31087m | 5.6m/s | -46.5°C | 2.6% | 10.7hPa | 2.6V | 03:20:08 | 02:04:32 | 00:00:00 | |
| DL1NUX | 2026-09-06 00:27:23 | 52.10848 | 11.41330 | 269° | 16km/h | 31092m | 6.2m/s | -46.4°C | 2.5% | 10.7hPa | 2.6V | 03:20:07 | 02:04:33 | 00:00:00 | |
| HSKMA3-T | 2026-09-06 00:27:22 | 52.10849 | 11.41337 | 257° | 18km/h | 31087m | 5.6m/s | -46.5°C | 0% | 10.7hPa | 2.6V | 03:20:34 | 02:04:32 | 00:00:00 | |
| BIOWL1-15 | 2026-09-06 00:27:20 | 52.10854 | 11.41361 | 278° | 7km/h | 31046m | 6.1m/s | -46.8°C | 0% | 10.8hPa | 2.7V | 03:20:34 | 02:04:25 | 00:00:00 | |
| DL1XH-west | 2026-09-06 00:27:19 | 52.10854 | 11.41359 | 257° | 2km/h | 31057m | 4.9m/s | -46.8°C | 0% | 10.7hPa | 2.6V | 03:20:34 | 02:04:27 | 00:00:00 | |
| DB0UT-7 | 2026-09-06 00:27:19 | 52.10853 | 11.41355 | 239° | 9km/h | 31069m | 6.9m/s | -46.6°C | 2.6% | 10.6hPa | 2.6V | 00:00:00 | 00:00:00 | 00:00:00 | |
| DJ2DS-15 | 2026-09-06 00:27:18 | 52.10854 | 11.41359 | 256° | 0km/h | 31057m | 4.9m/s | -46.8°C | 0.5% | 10.7hPa | 2.6V | 00:00:00 | 00:00:00 | 00:00:00 | |
| DM0DOS-11 | 2026-09-06 00:27:16 | 52.10853 | 11.41375 | 276° | 13km/h | 31028m | 5m/s | -46.9°C | 2.7% | 10.8hPa | 2.6V | 03:20:18 | 02:04:22 | 00:00:00 | |
| DO2JMG | 2026-09-06 00:27:14 | 52.10854 | 11.41365 | 276° | 9km/h | 31040m | 6.4m/s | -46.9°C | 0% | 10.7hPa | 2.6V | 03:20:34 | 02:04:24 | 00:00:00 | |
| DF8AY | 2026-09-06 00:27:13 | 52.10853 | 11.41369 | 273° | 13km/h | 31034m | 5.6m/s | -46.9°C | 0% | 10.7hPa | 2.6V | 03:20:34 | 02:04:23 | 00:00:00 | |
| HSKMA3-T | 2026-09-06 00:27:12 | 52.10853 | 11.41375 | 277° | 13km/h | 31028m | 5m/s | -46.9°C | 0% | 10.8hPa | 2.6V | 03:20:34 | 02:04:22 | 00:00:00 | |
| BIOWL1-15 | 2026-09-06 00:27:12 | 52.10852 | 11.41383 | 281° | 5km/h | 31017m | 7.2m/s | -46.8°C | 0% | 10.8hPa | 2.6V | 03:20:34 | 02:04:20 | 00:00:00 | |
| AA1-15 | 2026-09-06 00:27:11 | 52.10853 | 11.41379 | 276° | 11km/h | 31023m | 5.6m/s | -46.8°C | 0% | 10.8hPa | 2.6V | 03:20:34 | 02:04:21 | 00:00:00 | |
| DF7ER-10 | 2026-09-06 00:27:11 | 52.10853 | 11.41375 | 278° | 13km/h | 31029m | 5.0m/s | -46.9°C | 0.5% | 10.8hPa | 2.6V | 03:20:00 | 00:00:00 | 00:00:00 | |
| DB0DAN | 2026-09-06 00:27:10 | 52.10852 | 11.41383 | 281° | 5km/h | 31017m | 7.2m/s | -46.8°C | 0.5% | 10.78hPa | 2.6V | 00:00:00 | 00:00:00 | 00:00:00 | |
| DL1XH-west | 2026-09-06 00:27:08 | 52.10852 | 11.41384 | 160° | 2km/h | 31004m | 5.8m/s | -46.8°C | 0% | 10.8hPa | 2.6V | 03:20:34 | 02:04:18 | 00:00:00 | |
| DL1XH1-15 | 2026-09-06 00:27:07 | 52.10861 | 11.41390 | 203° | 7km/h | 30975m | 4.8m/s | -46.6°C | 2.7% | 10.8hPa | 2.6V | 03:20:27 | 02:04:13 | 00:00:00 | |
| DO2JMG | 2026-09-06 00:27:03 | 52.10861 | 11.41390 | 204° | 7km/h | 30975m | 4.8m/s | -46.6°C | 0% | 10.8hPa | 2.6V | 03:20:34 | 02:04:13 | 00:00:00 | |
| HSKMA3-T | 2026-09-06 00:27:02 | 52.10862 | 11.41391 | 194° | 4km/h | 30969m | 6.2m/s | -46.6°C | 0% | 10.8hPa | 2.6V | 03:20:34 | 02:04:12 | 00:00:00 | |
| AA1-15 | 2026-09-06 00:27:00 | 52.10862 | 11.41389 | 41° | 9km/h | 30956m | 6m/s | -46.6°C | 0% | 10.8hPa | 2.7V | 03:20:34 | 02:04:10 | 00:00:00 | |
| DL1XH-west | 2026-09-06 00:26:58 | 52.10854 | 11.41385 | 341° | 9km/h | 30940m | 6.4m/s | -46.5°C | 0% | 10.9hPa | 2.6V | 03:20:34 | 02:04:07 | 00:00:00 | |
| EDDB2-12 | 2026-09-06 00:26:57 | 52.10854 | 11.41385 | 341° | 7km/h | 30940m | 6.4m/s | -46.5°C | 0.4% | 10.9hPa | 2.6V | 00:00:00 | 00:00:00 | 00:00:00 | |
| DM0DOS-11 | 2026-09-06 00:26:56 | 52.10862 | 11.41396 | 164° | 18km/h | 30911m | 6.7m/s | -46.4°C | 2.6% | 10.9hPa | 2.6V | 03:20:38 | 02:04:02 | 00:00:00 | |
| DB0DAN | 2026-09-06 00:26:55 | 52.10853 | 11.41391 | 249° | 9km/h | 30928m | 5.2m/s | -46.5°C | 0.5% | 10.92hPa | 2.6V | 00:00:00 | 00:00:00 | 00:00:00 | |
| DF8AY | 2026-09-06 00:26:53 | 52.10858 | 11.41396 | 187° | 16km/h | 30917m | 5.6m/s | -46.4°C | 0% | 10.9hPa | 2.6V | 03:22:16 | 02:04:03 | 00:00:00 | |
| DO2JMG | 2026-09-06 00:26:52 | 52.10862 | 11.41396 | 165° | 18km/h | 30911m | 6.7m/s | 0°C | 0% | 10.9hPa | 2.6V | 18:12:15 | 02:04:02 | 00:00:00 | |
| HSKMA3-T | 2026-09-06 00:26:51 | 52.10867 | 11.41392 | 149° | 22km/h | 30905m | 6.4m/s | -46.4°C | 0% | 10.9hPa | 2.7V | 03:21:25 | 02:04:01 | 00:00:00 | |
| BIOWL1-15 | 2026-09-06 00:26:49 | 52.10875 | 11.41380 | 122° | 18km/h | 30893m | 4.8m/s | -46.3°C | 0% | 11hPa | 2.6V | 03:28:13 | 02:03:59 | 00:00:00 | |
| DL1XH-west | 2026-09-06 00:26:46 | 52.10875 | 11.41367 | 20° | 9km/h | 30874m | 6.5m/s | -46.3°C | 0% | 11hPa | 2.6V | 03:21:25 | 02:03:56 | 00:00:00 | |
| DM0DOS-11 | 2026-09-06 00:26:46 | 52.10867 | 11.41365 | 57° | 4km/h | 30850m | 5.5m/s | -46.4°C | 2.6% | 11hPa | 2.6V | 03:20:48 | 02:03:52 | 00:00:00 | |
| DL1ZP-14 | 2026-09-06 00:26:44 | 52.10870 | 11.41366 | 0° | 11km/h | 30862m | 6.2m/s | -46.3°C | 0.5% | 11.0hPa | 2.7V | 00:00:00 | 00:00:00 | 00:00:00 | |
| DO2JMG | 2026-09-06 00:26:41 | 52.10867 | 11.41364 | 142° | 5km/h | 30845m | 5.3m/s | 0°C | 0% | 0hPa | 2.6V | 18:12:15 | 02:03:51 | 00:00:00 | |
| DB0DAN | 2026-09-06 00:26:40 | 52.10869 | 11.41363 | 168° | 11km/h | 30838m | 5.6m/s | -46.5°C | 0.5% | 11.07hPa | 2.6V | 00:00:00 | 00:00:00 | 00:00:00 | |
| HSKMA3-T | 2026-09-06 00:26:40 | 52.10869 | 11.41363 | 168° | 11km/h | 30838m | 5.6m/s | -46.5°C | 0% | 11.1hPa | 2.6V | 03:21:25 | 02:03:50 | 00:00:00 | |
| AA1-15 | 2026-09-06 00:26:39 | 52.10877 | 11.41361 | 176° | 20km/h | 30825m | 6.4m/s | -46.5°C | 0% | 11.1hPa | 2.6V | 03:21:25 | 02:03:48 | 00:00:00 | |
| BIOWL1-15 | 2026-09-06 00:26:37 | 52.10882 | 11.41360 | 169° | 22km/h | 30820m | 5.2m/s | -46.5°C | 0% | 11.1hPa | 2.6V | 03:28:13 | 02:03:47 | 00:00:00 | |
| DO2SHX-10 | 2026-09-06 00:26:37 | 52.10882 | 11.41360 | 170° | 24km/h | 30820m | 5.2m/s | -46.5°C | 2.7% | 11.1hPa | 2.6V | 00:00:00 | 02:03:47 | 00:00:00 | |
| DM0DOS-11 | 2026-09-06 00:26:36 | 52.10904 | 11.41324 | 106° | 26km/h | 30790m | 5.3m/s | -46.5°C | 2.7% | 11.1hPa | 2.6V | 03:20:58 | 02:03:42 | 00:00:00 | |
| DL1XH-west | 2026-09-06 00:26:35 | 52.10893 | 11.41352 | 141° | 26km/h | 30808m | 6.4m/s | -46.5°C | 0% | 11.1hPa | 2.6V | 03:21:25 | 02:03:45 | 00:00:00 | |
| DF8AY | 2026-09-06 00:26:32 | 52.10904 | 11.41324 | 106° | 26km/h | 30790m | 5.3m/s | -46.5°C | 0% | 11.1hPa | 2.6V | 03:22:16 | 02:03:42 | 00:00:00 | |
| DO2JMG | 2026-09-06 00:26:31 | 52.10905 | 11.41315 | 102° | 20km/h | 30784m | 5.6m/s | 0°C | 0% | 0hPa | 2.6V | 18:12:15 | 02:03:41 | 00:00:00 | |
| HSKMA3-T | 2026-09-06 00:26:30 | 52.10906 | 11.41308 | 98° | 11km/h | 30778m | 6.7m/s | -46.5°C | 0% | 11.2hPa | 2.6V | 03:21:25 | 02:03:40 | 00:00:00 | |
| AA1-15 | 2026-09-06 00:26:27 | 52.10909 | 11.41306 | 192° | 11km/h | 30760m | 5m/s | -46.4°C | 0% | 11.2hPa | 2.7V | 03:21:25 | 02:03:37 | 00:00:00 | |
| DL1XH1-15 | 2026-09-06 00:26:26 | 52.10927 | 11.41292 | 132° | 29km/h | 30736m | 6m/s | -46.3°C | 2.6% | 11.2hPa | 2.6V | 03:21:07 | 02:03:33 | 00:00:00 | |
| BIOWL1-15 | 2026-09-06 00:26:25 | 52.10927 | 11.41292 | 133° | 29km/h | 30736m | 6.1m/s | -46.3°C | 0% | 11.2hPa | 2.6V | 03:28:13 | 02:03:33 | 00:00:00 | |
| DB0DAN | 2026-09-06 00:26:25 | 52.10917 | 11.41304 | 158° | 20km/h | 30749m | 6.7m/s | -46.4°C | 0.5% | 11.23hPa | 2.6V | 00:00:00 | 00:00:00 | 00:00:00 | |
| DL1XH-west | 2026-09-06 00:26:24 | 52.10922 | 11.41300 | 144° | 26km/h | 30742m | 6.7m/s | -46.3°C | 0% | 11.2hPa | 2.6V | 03:21:25 | 02:03:34 | 00:00:00 | |
| DO2JMG | 2026-09-06 00:26:20 | 52.10939 | 11.41263 | 116° | 22km/h | 30719m | 5.9m/s | 0°C | 0% | 0hPa | 2.6V | 18:12:15 | 02:03:30 | 00:00:00 | |
| HSKMA3-T | 2026-09-06 00:26:19 | 52.10941 | 11.41257 | 115° | 15km/h | 30713m | 6.1m/s | -46.2°C | 0% | 11.3hPa | 2.6V | 03:21:25 | 02:03:29 | 00:00:00 | |
| AA1-15 | 2026-09-06 00:26:17 | 52.10943 | 11.41250 | 138° | 4km/h | 30700m | 5.7m/s | -46.2°C | 0% | 11.3hPa | 2.7V | 03:21:25 | 02:03:27 | 00:00:00 | |
| DL1XH-west | 2026-09-06 00:26:14 | 52.10947 | 11.41247 | 148° | 13km/h | 30684m | 6.8m/s | -46.2°C | 0% | 11.3hPa | 2.6V | 03:21:25 | 02:03:24 | 00:00:00 | |
| DL1XH-15 | 2026-09-06 00:26:14 | 52.10954 | 11.41237 | 132° | 24km/h | 30671m | 5.5m/s | -46.2°C | 2.6% | 11.4hPa | 2.6V | 03:21:18 | 02:03:22 | 00:00:00 | |
| BIOWL1-15 | 2026-09-06 00:26:12 | 52.10954 | 11.41237 | 133° | 24km/h | 30671m | 5.5m/s | -46.2°C | 0% | 11.4hPa | 2.6V | 03:28:13 | 02:03:22 | 00:00:00 | |
| DB0NH | 2026-09-06 00:26:12 | 52.10954 | 11.41236 | 133° | 22km/h | 30672m | 5.5m/s | -46.2°C | 2.6% | 11.3hPa | 2.6V | 00:00:00 | 02:03:22 | 00:00:00 | |
| DB0DAN | 2026-09-06 00:26:10 | 52.10962 | 11.41221 | 123° | 22km/h | 30659m | 6.8m/s | -46.2°C | 0.5% | 11.37hPa | 2.6V | 00:00:00 | 00:00:00 | 00:00:00 | |
| DO2JMG | 2026-09-06 00:26:09 | 52.10965 | 11.41213 | 113° | 22km/h | 30653m | 6.3m/s | 0°C | 0% | 0hPa | 2.6V | 18:12:15 | 02:03:19 | 00:00:00 | |
| HSKMA3-T | 2026-09-06 00:26:08 | 52.10967 | 11.41204 | 107° | 22km/h | 30646m | 5.4m/s | -46.2°C | 0% | 11.4hPa | 2.6V | 03:21:25 | 02:03:18 | 00:00:00 | |
| AA1-15 | 2026-09-06 00:26:07 | 52.10969 | 11.41185 | 100° | 26km/h | 30634m | 6.9m/s | -46.1°C | 0% | 11.4hPa | 2.6V | 03:21:25 | 02:03:16 | 00:00:00 | |
| DF8AY | 2026-09-06 00:26:04 | 52.10972 | 11.41165 | 104° | 24km/h | 30622m | 5.3m/s | -46°C | 0% | 11.4hPa | 2.6V | 03:22:16 | 02:03:14 | 00:00:00 | |
| DL1XH-west | 2026-09-06 00:26:04 | 52.10973 | 11.41157 | 103° | 18km/h | 30616m | 5.5m/s | -46°C | 0% | 11.5hPa | 2.6V | 03:22:16 | 02:03:13 | 00:00:00 | |
| DO2JMG | 2026-09-06 00:25:57 | 52.10979 | 11.41129 | 112° | 22km/h | 30580m | 6.9m/s | 0°C | 0% | 0hPa | 2.6V | 18:12:15 | 02:03:07 | 00:00:00 | |
| DM0DOS-11 | 2026-09-06 00:25:56 | 52.10986 | 11.41062 | 85° | 31km/h | 30549m | 6.5m/s | -45.9°C | 2.6% | 11.5hPa | 2.6V | 03:21:38 | 02:03:02 | 00:00:00 | |
| AA1-15 | 2026-09-06 00:25:56 | 52.10984 | 11.41105 | 104° | 37km/h | 30567m | 5.9m/s | -45.9°C | 0% | 11.5hPa | 2.7V | 03:22:16 | 02:03:05 | 00:00:00 | |
| DF8AY | 2026-09-06 00:25:55 | 52.10985 | 11.41090 | 99° | 38km/h | 30561m | 5.3m/s | -45.9°C | 0% | 11.6hPa | 2.6V | 03:22:16 | 02:03:04 | 00:00:00 | |
| DB0DAN | 2026-09-06 00:25:55 | 52.10984 | 11.41105 | 104° | 35km/h | 30567m | 5.9m/s | -45.9°C | 0.4% | 11.49hPa | 2.7V | 00:00:00 | 00:00:00 | 00:00:00 | |
| DL1XH-west | 2026-09-06 00:25:52 | 52.10986 | 11.41062 | 85° | 31km/h | 30549m | 6.5m/s | -45.9°C | 0% | 11.6hPa | 2.6V | 03:22:16 | 02:03:02 | 00:00:00 | |
| HSKMA3-T | 2026-09-06 00:25:47 | 52.10983 | 11.41021 | 105° | 18km/h | 30519m | 6.7m/s | -46°C | 0% | 11.6hPa | 2.6V | 03:22:16 | 02:02:57 | 00:00:00 | |
| DM0DOS-11 | 2026-09-06 00:25:46 | 52.10992 | 11.40982 | 100° | 16km/h | 30489m | 6.2m/s | -46°C | 2.6% | 11.7hPa | 2.6V | 03:21:48 | 02:02:52 | 00:00:00 | |
| DL1XH1-15 | 2026-09-06 00:25:46 | 52.10991 | 11.40989 | 109° | 18km/h | 30495m | 6.6m/s | -46°C | 2.6% | 11.6hPa | 2.6V | 03:21:47 | 02:02:53 | 00:00:00 | |
| AA1-15 | 2026-09-06 00:25:46 | 52.10984 | 11.41013 | 113° | 22km/h | 30513m | 6.3m/s | -46°C | 0% | 11.6hPa | 2.7V | 03:22:16 | 02:02:56 | 00:00:00 | |
| DO2JMG | 2026-09-06 00:25:43 | 52.10991 | 11.40989 | 110° | 18km/h | 30495m | 6.6m/s | 0°C | 0% | 0hPa | 2.6V | 18:12:15 | 02:02:53 | 00:00:00 | |
| DL1XH-west | 2026-09-06 00:25:42 | 52.10992 | 11.40982 | 100° | 16km/h | 30489m | 6.3m/s | -46°C | 0% | 11.7hPa | 2.6V | 03:22:16 | 02:02:52 | 00:00:00 | |
| DB0NH | 2026-09-06 00:25:42 | 52.10992 | 11.40982 | 101° | 15km/h | 30489m | 6.2m/s | -46.0°C | 2.6% | 11.7hPa | 2.6V | 00:00:00 | 02:02:52 | 00:00:00 | |
| DB0DAN | 2026-09-06 00:25:40 | 52.10992 | 11.40967 | 85° | 20km/h | 30478m | 5.3m/s | -46°C | 0.4% | 11.67hPa | 2.6V | 00:00:00 | 00:00:00 | 00:00:00 | |
| DC4HF-4 | 2026-09-06 00:25:40 | 52.10992 | 11.40958 | 86° | 24km/h | 30472m | 6.1m/s | -46.0°C | 0.5% | 11.7hPa | 2.6V | 00:00:00 | 00:00:00 | 00:00:00 | |
| DO2SHX-10 | 2026-09-06 00:25:39 | 52.10992 | 11.40958 | 87° | 29km/h | 30472m | 6.0m/s | -45.9°C | 2.6% | 11.6hPa | 2.6V | 00:00:00 | 02:02:49 | 00:00:00 | |
| GOEST3-10 | 2026-09-06 00:25:38 | 52.10992 | 11.40947 | 90° | 27km/h | 30466m | 7.1m/s | -45.9°C | 2.6% | 11.7hPa | 2.6V | 00:00:00 | 02:02:48 | 00:00:00 | |
| DL1XH1-15 | 2026-09-06 00:25:37 | 52.10992 | 11.40894 | 86° | 13km/h | 30435m | 6.3m/s | -45.8°C | 2.7% | 11.8hPa | 2.6V | 03:21:57 | 02:02:43 | 00:00:00 | |
| HSKMA3-T | 2026-09-06 00:25:37 | 52.10992 | 11.40934 | 91° | 33km/h | 30459m | 6m/s | -46°C | 0% | 11.7hPa | 2.6V | 03:22:16 | 02:02:47 | 00:00:00 | |
| DL4BBY-15 | 2026-09-06 00:25:37 | 52.10992 | 11.40934 | 92° | 15km/h | 30460m | 6.0m/s | -46.3°C | 0% | 0hPa | 2.6V | 00:00:00 | 00:00:00 | 00:00:00 | |
| DM0DOS-11 | 2026-09-06 00:25:36 | 52.10992 | 11.40890 | 93° | 7km/h | 30429m | 5.2m/s | -45.8°C | 2.6% | 11.8hPa | 2.6V | 03:21:58 | 02:02:42 | 00:00:00 | |
| AA1-15 | 2026-09-06 00:25:35 | 52.10992 | 11.40910 | 92° | 26km/h | 30447m | 5.6m/s | -45.9°C | 0% | 11.8hPa | 2.6V | 03:22:16 | 02:02:45 | 00:00:00 | |
| DF8AY | 2026-09-06 00:25:33 | 52.10992 | 11.40890 | 93° | 7km/h | 30429m | 5.2m/s | -45.8°C | 0% | 11.8hPa | 2.6V | 03:22:16 | 02:02:42 | 00:00:00 | |
| DL1XH-west | 2026-09-06 00:25:32 | 52.10995 | 11.40880 | 128° | 15km/h | 30411m | 6.4m/s | -45.7°C | 0% | 11.8hPa | 2.6V | 03:22:16 | 02:02:39 | 00:00:00 | |
| GOEST3-10 | 2026-09-06 00:25:32 | 52.10998 | 11.40875 | 127° | 16km/h | 30405m | 5.4m/s | -45.6°C | 2.6% | 11.8hPa | 2.6V | 00:00:00 | 02:02:38 | 00:00:00 | |
| SMARD9-15 | 2026-09-06 00:25:29 | 52.11001 | 11.40869 | 122° | 18km/h | 30400m | 5.0m/s | -45.6°C | 0.4% | 11.8hPa | 2.6V | 00:00:00 | 00:00:00 | 00:00:00 | |
| DO2SHX-10 | 2026-09-06 00:25:28 | 52.11001 | 11.40869 | 123° | 16km/h | 30400m | 4.9m/s | -45.5°C | 2.6% | 11.8hPa | 2.6V | 00:00:00 | 02:02:37 | 00:00:00 | |
| DM0DOS-11 | 2026-09-06 00:25:27 | 52.11003 | 11.40840 | 76° | 15km/h | 30368m | 5.7m/s | -45.3°C | 2.5% | 11.9hPa | 2.6V | 03:22:08 | 02:02:32 | 00:00:00 | |
| DL1XH1-15 | 2026-09-06 00:25:27 | 52.11004 | 11.40846 | 76° | 15km/h | 30374m | 5.5m/s | -45.4°C | 2.6% | 11.9hPa | 2.6V | 03:22:07 | 02:02:33 | 00:00:00 | |
| HSKMA3-T | 2026-09-06 00:25:27 | 52.11004 | 11.40857 | 107° | 15km/h | 30387m | 7.1m/s | -45.5°C | 0% | 11.8hPa | 2.6V | 03:22:16 | 02:02:35 | 00:00:00 | |
| DB0DAN | 2026-09-06 00:25:25 | 52.11004 | 11.40857 | 107° | 15km/h | 30387m | 7.1m/s | -45.5°C | 0.4% | 11.84hPa | 2.6V | 00:00:00 | 00:00:00 | 00:00:00 | |
| AA1-15 | 2026-09-06 00:25:24 | 52.11005 | 11.40851 | 89° | 13km/h | 30380m | 6.2m/s | -45.4°C | 0% | 11.8hPa | 2.6V | 03:22:16 | 02:02:34 | 00:00:00 | |
| DL1XH-west | 2026-09-06 00:25:20 | 52.11003 | 11.40827 | 95° | 16km/h | 30356m | 6m/s | -45.2°C | 0% | 11.9hPa | 2.7V | 03:22:16 | 02:02:30 | 00:00:00 | |
| DF8AY | 2026-09-06 00:25:20 | 52.11009 | 11.40812 | 232° | 5km/h | 30325m | 6.1m/s | -45°C | 0% | 11.9hPa | 2.6V | 03:22:16 | 02:02:25 | 00:00:00 | |
| DB0UT-7 | 2026-09-06 00:25:19 | 52.11004 | 11.40821 | 109° | 13km/h | 30350m | 5.3m/s | -45.1°C | 2.5% | 11.9hPa | 2.6V | 00:00:00 | 00:00:00 | 00:00:00 | |
| DO2SHX-10 | 2026-09-06 00:25:18 | 52.11005 | 11.40815 | 120° | 9km/h | 30345m | 5.2m/s | -45.1°C | 2.5% | 11.9hPa | 2.6V | 00:00:00 | 02:02:28 | 00:00:00 | |
| S3001 | 2026-09-06 00:25:17 | 52.11008 | 11.40811 | 182° | 4km/h | 30332m | 7.5m/s | -45.0°C | 0.4% | 11.9hPa | 2.6V | 00:00:00 | 00:00:00 | 00:00:00 | |
| DM0DOS-11 | 2026-09-06 00:25:16 | 52.11010 | 11.40812 | 86° | 7km/h | 30308m | 7m/s | -44.9°C | 2.4% | 12hPa | 2.6V | 03:22:18 | 02:02:22 | 00:00:00 | |
| DB0ND-19 | 2026-09-06 00:25:16 | 52.11009 | 11.40812 | 231° | 4km/h | 30325m | 6.1m/s | -45.0°C | 0.4% | 11.9hPa | 2.6V | 00:00:00 | 00:00:00 | 00:00:00 | |
| DL1NUX | 2026-09-06 00:25:15 | 52.11010 | 11.40814 | 88° | 2km/h | 30314m | 5m/s | -44.9°C | 2.4% | 12hPa | 2.6V | 03:22:17 | 02:02:23 | 00:00:00 | |
| HSKMA3-T | 2026-09-06 00:25:14 | 52.11010 | 11.40813 | 255° | 4km/h | 30319m | 5m/s | -45°C | 0% | 12hPa | 2.6V | 03:22:16 | 02:02:24 | 00:00:00 | |
| AA1-15 | 2026-09-06 00:25:13 | 52.11010 | 11.40814 | 89° | 2km/h | 30314m | 5m/s | -44.9°C | 0% | 12hPa | 2.6V | 03:23:07 | 02:02:23 | 00:00:00 | |
| DB0NH | 2026-09-06 00:25:13 | 52.11010 | 11.40812 | 87° | 13km/h | 30309m | 6.9m/s | -44.9°C | 2.4% | 11.9hPa | 2.6V | 00:00:00 | 02:02:22 | 00:00:00 | |
| DO2SHX-10 | 2026-09-06 00:25:12 | 52.11010 | 11.40812 | 87° | 15km/h | 30309m | 6.9m/s | -44.9°C | 2.4% | 11.9hPa | 2.6V | 00:00:00 | 02:02:22 | 00:00:00 | |
| DB0DAN | 2026-09-06 00:25:10 | 52.11009 | 11.40799 | 83° | 22km/h | 30295m | 6m/s | -45°C | 0.4% | 11.99hPa | 2.7V | 00:00:00 | 00:00:00 | 00:00:00 | |
| DL1XH-west | 2026-09-06 00:25:10 | 52.11009 | 11.40799 | 83° | 22km/h | 30295m | 6m/s | -45°C | 0% | 12hPa | 2.7V | 03:23:07 | 02:02:20 | 00:00:00 | |
| DO2SHX-10 | 2026-09-06 00:25:09 | 52.11008 | 11.40790 | 77° | 22km/h | 30290m | 5.4m/s | -44.9°C | 2.5% | 12.0hPa | 2.6V | 03:22:00 | 02:02:19 | 00:00:00 | |
| GOEST3-10 | 2026-09-06 00:25:08 | 52.11006 | 11.40781 | 71° | 15km/h | 30283m | 6.6m/s | -45.0°C | 2.5% | 12.0hPa | 2.6V | 00:00:00 | 02:02:18 | 00:00:00 | |
| DL4BBY-15 | 2026-09-06 00:25:07 | 52.11004 | 11.40772 | 61° | 11km/h | 30277m | 6.0m/s | -45.3°C | 0% | 0hPa | 2.6V | 00:00:00 | 00:00:00 | 00:00:00 | |
| DL1XH1-15 | 2026-09-06 00:25:06 | 52.10999 | 11.40757 | 121° | 5km/h | 30254m | 7.2m/s | -44.9°C | 2.5% | 12.1hPa | 2.6V | 03:22:27 | 02:02:13 | 00:00:00 | |
| DF8AY | 2026-09-06 00:25:05 | 52.11000 | 11.40762 | 48° | 11km/h | 30265m | 5m/s | -45°C | 0% | 12.1hPa | 2.7V | 03:23:07 | 02:02:15 | 00:00:00 | |
| HSKMA3-T | 2026-09-06 00:25:04 | 52.10999 | 11.40759 | 62° | 5km/h | 30260m | 5.6m/s | -45°C | 0% | 12.1hPa | 2.6V | 03:23:07 | 02:02:14 | 00:00:00 | |
| DL1XH-15 | 2026-09-06 00:25:03 | 52.11000 | 11.40755 | 154° | 9km/h | 30247m | 6.8m/s | -44.9°C | 2.5% | 12.1hPa | 2.6V | 03:22:28 | 02:02:12 | 00:00:00 | |
| AA1-15 | 2026-09-06 00:25:02 | 52.11000 | 11.40755 | 155° | 9km/h | 30247m | 6.8m/s | -44.9°C | 0% | 12.1hPa | 2.6V | 03:23:07 | 02:02:12 | 00:00:00 | |
| DL1XH-west | 2026-09-06 00:24:59 | 52.11009 | 11.40752 | 182° | 9km/h | 30231m | 4.7m/s | -44.9°C | 0% | 12.2hPa | 2.6V | 03:23:07 | 02:02:09 | 00:00:00 | |
| OE5DRO-10 | 2026-09-06 00:24:59 | 52.11008 | 11.40751 | 182° | 11km/h | 30231m | 4.7m/s | -44.9°C | 2.5% | 12.1hPa | 2.6V | 03:22:00 | 00:00:00 | 00:00:00 | |
| GOEST3-10 | 2026-09-06 00:24:58 | 52.11010 | 11.40752 | 225° | 11km/h | 30225m | 6.3m/s | -44.9°C | 2.5% | 12.1hPa | 2.6V | 00:00:00 | 02:02:08 | 00:00:00 | |
| DO2SHX-10 | 2026-09-06 00:24:57 | 52.11010 | 11.40754 | 319° | 13km/h | 30218m | 7.1m/s | -44.9°C | 2.4% | 12.1hPa | 2.6V | 03:22:00 | 02:02:07 | 00:00:00 | |
| DM0DOS-11 | 2026-09-06 00:24:56 | 52.10993 | 11.40748 | 59° | 18km/h | 30187m | 6.5m/s | -44.9°C | 2.4% | 12.2hPa | 2.6V | 03:22:38 | 02:02:02 | 00:00:00 | |
| SMARD9-15 | 2026-09-06 00:24:56 | 52.11008 | 11.40756 | 341° | 13km/h | 30211m | 6.4m/s | -45.0°C | 0.4% | 12.2hPa | 2.6V | 00:00:00 | 00:00:00 | 00:00:00 | |
| DB0DAN | 2026-09-06 00:24:55 | 52.11004 | 11.40757 | 359° | 16km/h | 30205m | 5.4m/s | -45°C | 0.4% | 12.15hPa | 2.6V | 00:00:00 | 00:00:00 | 00:00:00 | |
| HSKMA3-T | 2026-09-06 00:24:54 | 52.11000 | 11.40756 | 14° | 18km/h | 30200m | 5.4m/s | -45°C | 0% | 12.2hPa | 2.6V | 03:23:07 | 02:02:04 | 00:00:00 | |
| AA1-15 | 2026-09-06 00:24:52 | 52.10993 | 11.40748 | 60° | 18km/h | 30187m | 6.5m/s | -45°C | 0% | 12.2hPa | 2.6V | 03:23:07 | 02:02:02 | 00:00:00 | |
| DL1XH-west | 2026-09-06 00:24:48 | 52.10993 | 11.40728 | 149° | 5km/h | 30164m | 6.5m/s | -45°C | 0% | 12.2hPa | 2.6V | 03:23:07 | 02:01:58 | 00:00:00 | |
| DF8AY | 2026-09-06 00:24:44 | 52.10997 | 11.40737 | 250° | 9km/h | 30140m | 6.1m/s | -45°C | 0% | 12.3hPa | 2.6V | 03:23:07 | 02:01:54 | 00:00:00 | |
| DL1XH1-15 | 2026-09-06 00:24:44 | 52.10998 | 11.40739 | 221° | 5km/h | 30134m | 6.2m/s | -45°C | 2.5% | 12.3hPa | 2.6V | 03:22:47 | 02:01:53 | 00:00:00 | |
| HSKMA3-T | 2026-09-06 00:24:43 | 52.10998 | 11.40739 | 221° | 5km/h | 30134m | 6.2m/s | -45°C | 0% | 12.3hPa | 2.6V | 03:23:07 | 02:01:53 | 00:00:00 | |
| AA1-15 | 2026-09-06 00:24:42 | 52.10999 | 11.40739 | 167° | 5km/h | 30128m | 6.2m/s | -44.9°C | 0% | 12.3hPa | 2.6V | 03:23:07 | 02:01:52 | 00:00:00 | |
| DL1XH-west | 2026-09-06 00:24:38 | 52.11005 | 11.40738 | 268° | 7km/h | 30098m | 6.7m/s | -44.8°C | 0% | 12.4hPa | 2.6V | 03:23:07 | 02:01:47 | 00:00:00 | |
| DL4BBY-15 | 2026-09-06 00:24:37 | 52.11005 | 11.40738 | 269° | 18km/h | 30099m | 6.6m/s | -45.2°C | 0% | 0hPa | 2.6V | 00:00:00 | 00:00:00 | 00:00:00 | |
| DL1XH1-15 | 2026-09-06 00:24:36 | 52.11007 | 11.40754 | 213° | 9km/h | 30076m | 6.4m/s | -44.7°C | 2.5% | 12.4hPa | 2.6V | 03:22:57 | 02:01:43 | 00:00:00 | |
| DF8AY | 2026-09-06 00:24:34 | 52.11006 | 11.40751 | 250° | 9km/h | 30082m | 5.5m/s | -44.8°C | 0% | 12.4hPa | 2.6V | 03:23:07 | 02:01:44 | 00:00:00 | |
| HSKMA3-T | 2026-09-06 00:24:33 | 52.11007 | 11.40754 | 214° | 9km/h | 30076m | 6.4m/s | -44.7°C | 0% | 12.4hPa | 2.6V | 03:23:07 | 02:01:43 | 00:00:00 | |
| AA1-15 | 2026-09-06 00:24:32 | 52.11010 | 11.40755 | 184° | 15km/h | 30069m | 6m/s | -44.7°C | 0% | 12.4hPa | 2.6V | 03:23:07 | 02:01:42 | 00:00:00 | |
| DL1XH-west | 2026-09-06 00:24:27 | 52.11037 | 11.40763 | 220° | 9km/h | 30034m | 5.3m/s | -44.5°C | 0% | 12.5hPa | 2.7V | 03:23:07 | 02:01:36 | 00:00:00 | |
| DO2SHX-10 | 2026-09-06 00:24:27 | 52.11034 | 11.40760 | 209° | 9km/h | 30040m | 5.6m/s | -44.5°C | 2.4% | 12.4hPa | 2.6V | 00:00:00 | 02:01:37 | 00:00:00 | |
| DB0DAN | 2026-09-06 00:24:25 | 52.11038 | 11.40765 | 225° | 4km/h | 30029m | 5.5m/s | -44.5°C | 0.4% | 12.46hPa | 2.7V | 00:00:00 | 00:00:00 | 00:00:00 | |
| DL1XH1-15 | 2026-09-06 00:24:24 | 52.11038 | 11.40763 | 74° | 7km/h | 30016m | 7m/s | -44.6°C | 2.4% | 12.5hPa | 2.6V | 03:23:07 | 02:01:33 | 00:00:00 | |
| BIOWL1-15 | 2026-09-06 00:24:24 | 52.11038 | 11.40765 | 53° | 2km/h | 30023m | 6.9m/s | -44.5°C | 0% | 12.5hPa | 2.6V | 03:28:13 | 02:01:34 | 00:00:00 | |
| DF8AY | 2026-09-06 00:24:23 | 52.11038 | 11.40763 | 75° | 7km/h | 30016m | 7m/s | -44.6°C | 0% | 12.5hPa | 2.6V | 03:23:07 | 02:01:33 | 00:00:00 | |
| AA1-15 | 2026-09-06 00:24:22 | 52.11037 | 11.40760 | 80° | 11km/h | 30010m | 5.9m/s | -44.6°C | 0% | 12.5hPa | 2.6V | 03:23:58 | 02:01:32 | 00:00:00 | |
| DL1XH-west | 2026-09-06 00:24:16 | 52.11058 | 11.40765 | 213° | 40km/h | 29973m | 6.5m/s | -44.6°C | 0% | 12.6hPa | 2.6V | 03:23:58 | 02:01:26 | 00:00:00 | |
| DL1XH1-15 | 2026-09-06 00:24:16 | 52.11087 | 11.40786 | 190° | 42km/h | 29955m | 5.9m/s | -44.6°C | 2.4% | 12.6hPa | 2.6V | 03:23:17 | 02:01:23 | 00:00:00 | |
| DF8AY | 2026-09-06 00:24:13 | 52.11087 | 11.40786 | 190° | 42km/h | 29956m | 5.9m/s | -44.6°C | 0% | 12.6hPa | 2.6V | 03:23:58 | 02:01:23 | 00:00:00 | |
| AA1-15 | 2026-09-06 00:24:11 | 52.11107 | 11.40786 | 171° | 35km/h | 29945m | 4.7m/s | -44.6°C | 0% | 12.6hPa | 2.7V | 03:23:58 | 02:01:21 | 00:00:00 | |
| DB0DAN | 2026-09-06 00:24:10 | 52.11115 | 11.40783 | 165° | 29km/h | 29940m | 5.5m/s | -44.6°C | 0.4% | 12.7hPa | 2.6V | 00:00:00 | 00:00:00 | 00:00:00 | |
| DO2SHX-10 | 2026-09-06 00:24:09 | 52.11122 | 11.40780 | 164° | 15km/h | 29934m | 7.0m/s | -44.5°C | 2.4% | 12.6hPa | 2.6V | 03:23:00 | 02:01:19 | 00:00:00 | |
| AM1SDL-15 | 2026-09-06 00:24:08 | 52.11126 | 11.40778 | 167° | 18km/h | 29927m | 6.8m/s | -44.4°C | 2.4% | 12.7hPa | 2.6V | 03:23:00 | 02:01:18 | 00:00:00 | |
| DL4BBY-15 | 2026-09-06 00:24:07 | 52.11128 | 11.40778 | 176° | 18km/h | 29919m | 6.1m/s | -44.7°C | 0% | 0hPa | 2.6V | 00:00:00 | 00:00:00 | 00:00:00 | |
| DM0DOS-11 | 2026-09-06 00:24:06 | 52.11140 | 11.40778 | 183° | 20km/h | 29890m | 5.4m/s | -44.4°C | 2.4% | 12.7hPa | 2.6V | 03:23:28 | 02:01:12 | 00:00:00 | |
| DL1XH-west | 2026-09-06 00:24:06 | 52.11130 | 11.40778 | 192° | 4km/h | 29914m | 5.4m/s | -44.4°C | 0% | 12.7hPa | 2.6V | 03:23:58 | 02:01:16 | 00:00:00 | |
| DO2SHX-10 | 2026-09-06 00:24:06 | 52.11130 | 11.40778 | 192° | 5km/h | 29914m | 5.3m/s | -44.3°C | 2.4% | 12.6hPa | 2.6V | 00:00:00 | 02:01:16 | 00:00:00 | |
| DL1XH1-15 | 2026-09-06 00:24:04 | 52.11135 | 11.40778 | 179° | 15km/h | 29895m | 5.9m/s | -44.4°C | 2.4% | 12.8hPa | 2.6V | 03:23:27 | 02:01:13 | 00:00:00 | |
| DF8AY | 2026-09-06 00:24:02 | 52.11140 | 11.40778 | 184° | 22km/h | 29890m | 5.4m/s | -44.4°C | 0% | 12.8hPa | 2.6V | 03:23:58 | 02:01:12 | 00:00:00 | |
| HSKMA3-T | 2026-09-06 00:24:00 | 52.11152 | 11.40782 | 197° | 29km/h | 29878m | 6.9m/s | -44.4°C | 0% | 12.8hPa | 2.6V | 03:23:58 | 02:01:10 | 00:00:00 | |
| AA1-15 | 2026-09-06 00:24:00 | 52.11166 | 11.40790 | 201° | 27km/h | 29866m | 5m/s | -44.5°C | 0% | 12.8hPa | 2.6V | 03:23:58 | 02:01:08 | 00:00:00 | |
| BIOWL1-15 | 2026-09-06 00:23:57 | 52.11183 | 11.40792 | 149° | 20km/h | 29848m | 7.4m/s | -44.5°C | 0% | 12.9hPa | 2.7V | 03:28:13 | 02:01:05 | 00:00:00 | |
| DO2SHX-10 | 2026-09-06 00:23:57 | 52.11173 | 11.40793 | 192° | 22km/h | 29861m | 4.7m/s | -44.4°C | 2.4% | 12.8hPa | 2.6V | 03:23:00 | 02:01:07 | 00:00:00 | |
| DM0DOS-11 | 2026-09-06 00:23:56 | 52.11191 | 11.40771 | 96° | 18km/h | 29830m | 5.7m/s | -44.6°C | 2.4% | 12.9hPa | 2.6V | 03:23:38 | 02:01:02 | 00:00:00 | |
| DL1XH1-15 | 2026-09-06 00:23:56 | 52.11190 | 11.40778 | 109° | 20km/h | 29835m | 5.2m/s | -44.5°C | 2.4% | 12.8hPa | 2.6V | 03:23:37 | 02:01:03 | 00:00:00 | |
| DL1XH-west | 2026-09-06 00:23:56 | 52.11178 | 11.40794 | 174° | 22km/h | 29855m | 6.3m/s | -44.5°C | 0% | 12.8hPa | 2.7V | 03:23:58 | 02:01:06 | 00:00:00 | |
| DB0DAN | 2026-09-06 00:23:55 | 52.11183 | 11.40792 | 149° | 20km/h | 29848m | 7.4m/s | -44.5°C | 0.4% | 12.86hPa | 2.7V | 00:00:00 | 00:00:00 | 00:00:00 | |
| DF8AY | 2026-09-06 00:23:50 | 52.11190 | 11.40760 | 75° | 7km/h | 29817m | 5.8m/s | -44.7°C | 0% | 12.9hPa | 2.6V | 03:23:58 | 02:01:00 | 00:00:00 | |
| AA1-15 | 2026-09-06 00:23:49 | 52.11190 | 11.40758 | 102° | 2km/h | 29812m | 5m/s | -44.7°C | 0% | 12.9hPa | 2.6V | 03:23:58 | 02:00:59 | 00:00:00 | |
| DB0UT-7 | 2026-09-06 00:23:49 | 52.11190 | 11.40758 | 103° | 20km/h | 29812m | 5.0m/s | -44.6°C | 2.4% | 12.9hPa | 2.6V | 03:23:00 | 02:00:59 | 00:00:00 | |
| DO2SHX-10 | 2026-09-06 00:23:48 | 52.11191 | 11.40757 | 175° | 13km/h | 29807m | 5.4m/s | -44.6°C | 2.5% | 12.9hPa | 2.6V | 00:00:00 | 02:00:58 | 00:00:00 | |
| GOEST3-10 | 2026-09-06 00:23:47 | 52.11193 | 11.40757 | 176° | 24km/h | 29800m | 6.5m/s | -44.6°C | 2.5% | 12.9hPa | 2.6V | 00:00:00 | 02:00:57 | 00:00:00 | |
| DM0DOS-11 | 2026-09-06 00:23:46 | 52.11224 | 11.40759 | 190° | 29km/h | 29769m | 5.8m/s | -44.6°C | 2.5% | 13hPa | 2.6V | 03:23:48 | 02:00:52 | 00:00:00 | |
| DL1XH-west | 2026-09-06 00:23:45 | 52.11202 | 11.40756 | 180° | 26km/h | 29787m | 5.9m/s | -44.7°C | 0% | 13hPa | 2.6V | 03:23:58 | 02:00:55 | 00:00:00 | |
| DL1XH1-15 | 2026-09-06 00:23:44 | 52.11216 | 11.40757 | 187° | 29km/h | 29776m | 6.5m/s | -44.6°C | 2.4% | 13hPa | 2.6V | 03:23:47 | 02:00:53 | 00:00:00 | |
| S3001 | 2026-09-06 00:23:44 | 52.11216 | 11.40757 | 187° | 29km/h | 29776m | 6.5m/s | -44.7°C | 0.4% | 13.0hPa | 2.6V | 00:00:00 | 00:00:00 | 00:00:00 | |
| BUE01 | 2026-09-06 00:23:43 | 52.11224 | 11.40759 | 190° | 27km/h | 29770m | 5.8m/s | -44.6°C | 0.4% | 13.0hPa | 2.6V | 00:00:00 | 00:00:00 | 00:00:00 | |
| DO3MHA-11 | 2026-09-06 00:23:42 | 52.11223 | 11.40759 | 191° | 20km/h | 29770m | 5.7m/s | -44.6°C | 2.5% | 12.9hPa | 2.6V | 00:00:00 | 02:00:52 | 00:00:00 | |
| DB0DAN | 2026-09-06 00:23:40 | 52.11236 | 11.40760 | 172° | 20km/h | 29759m | 5.1m/s | -44.6°C | 0.4% | 13.02hPa | 2.7V | 00:00:00 | 00:00:00 | 00:00:00 | |
| AA1-15 | 2026-09-06 00:23:39 | 52.11241 | 11.40758 | 154° | 20km/h | 29752m | 7.3m/s | -44.6°C | 0% | 13hPa | 2.6V | 03:23:58 | 02:00:49 | 00:00:00 | |
| DL4BBY-15 | 2026-09-06 00:23:37 | 52.11249 | 11.40746 | 127° | 16km/h | 29739m | 5.7m/s | -44.8°C | 0% | 0hPa | 2.6V | 00:00:00 | 00:00:00 | 00:00:00 | |
| DM0DOS-11 | 2026-09-06 00:23:36 | 52.11268 | 11.40730 | 194° | 22km/h | 29709m | 5.2m/s | -44.3°C | 2.4% | 13.1hPa | 2.6V | 03:23:58 | 02:00:42 | 00:00:00 | |
| DL1XH-west | 2026-09-06 00:23:35 | 52.11256 | 11.40732 | 136° | 18km/h | 29728m | 5.9m/s | -44.4°C | 0% | 13.1hPa | 2.7V | 03:23:58 | 02:00:45 | 00:00:00 | |
| AA1-15 | 2026-09-06 00:23:28 | 52.11293 | 11.40732 | 163° | 24km/h | 29686m | 5.4m/s | -44.3°C | 0% | 13.2hPa | 2.6V | 03:24:49 | 02:00:38 | 00:00:00 | |
| SMARD9-10 | 2026-09-06 00:23:28 | 52.11293 | 11.40732 | 164° | 24km/h | 29687m | 5.4m/s | -44.3°C | 0.4% | 13.2hPa | 2.6V | 00:00:00 | 00:00:00 | 00:00:00 | |
| DO2SHX-10 | 2026-09-06 00:23:27 | 52.11299 | 11.40729 | 153° | 20km/h | 29681m | 5.1m/s | -44.3°C | 2.4% | 13.1hPa | 2.6V | 00:00:00 | 02:00:37 | 00:00:00 | |
| DB0DAN | 2026-09-06 00:23:25 | 52.11307 | 11.40720 | 145° | 16km/h | 29669m | 6.7m/s | -44.4°C | 0.4% | 13.2hPa | 2.6V | 00:00:00 | 00:00:00 | 00:00:00 | |
| DL1XH-west | 2026-09-06 00:23:24 | 52.11311 | 11.40716 | 147° | 15km/h | 29662m | 6.4m/s | -44.4°C | 0% | 13.2hPa | 2.6V | 03:24:49 | 02:00:34 | 00:00:00 | |
| DF8AY | 2026-09-06 00:23:24 | 52.11340 | 11.40691 | 160° | 27km/h | 29626m | 5.6m/s | -44.6°C | 0% | 13.3hPa | 2.6V | 03:24:49 | 02:00:28 | 00:00:00 | |
| BIOWL1-15 | 2026-09-06 00:23:22 | 52.11334 | 11.40696 | 155° | 29km/h | 29632m | 5.3m/s | -44.5°C | 0% | 13.3hPa | 2.6V | 03:28:13 | 02:00:29 | 00:00:00 | |
| AA1-15 | 2026-09-06 00:23:17 | 52.11346 | 11.40688 | 167° | 24km/h | 29620m | 6.8m/s | -44.6°C | 0% | 13.3hPa | 2.6V | 03:24:49 | 02:00:27 | 00:00:00 | |
| DL1XH-west | 2026-09-06 00:23:13 | 52.11362 | 11.40684 | 153° | 13km/h | 29597m | 6.8m/s | -44.6°C | 0% | 13.3hPa | 2.6V | 03:24:49 | 02:00:23 | 00:00:00 | |
| S3001 | 2026-09-06 00:23:13 | 52.11365 | 11.40681 | 139° | 13km/h | 29591m | 6.7m/s | -44.6°C | 0.4% | 13.3hPa | 2.6V | 00:00:00 | 00:00:00 | 00:00:00 | |
| DO2SHX-10 | 2026-09-06 00:23:12 | 52.11365 | 11.40681 | 140° | 15km/h | 29591m | 6.7m/s | -44.5°C | 2.5% | 13.3hPa | 2.6V | 00:00:00 | 02:00:22 | 00:00:00 | |
| 13BRC | 2026-09-06 00:23:11 | 52.11365 | 11.40681 | 140° | 13km/h | 29591m | 6.7m/s | 0°C | 0% | 0hPa | 2.6V | 00:00:00 | 00:00:00 | 00:00:00 | |
| DB0DAN | 2026-09-06 00:23:10 | 52.11370 | 11.40672 | 122° | 15km/h | 29578m | 5.6m/s | -44.6°C | 0.4% | 13.4hPa | 2.6V | 00:00:00 | 00:00:00 | 00:00:00 | |
| DF8AY | 2026-09-06 00:23:08 | 52.11373 | 11.40664 | 116° | 9km/h | 29566m | 7.1m/s | -44.6°C | 0% | 13.4hPa | 2.6V | 03:24:49 | 02:00:18 | 00:00:00 | |
| DL1XH1-15 | 2026-09-06 00:23:08 | 52.11382 | 11.40648 | 144° | 22km/h | 29535m | 6.6m/s | -44.6°C | 2.5% | 13.5hPa | 2.6V | 03:24:27 | 02:00:13 | 00:00:00 | |
| HSKMA3-T | 2026-09-06 00:23:07 | 52.11373 | 11.40661 | 117° | 5km/h | 29560m | 6m/s | -44.6°C | 0% | 13.4hPa | 2.6V | 03:24:49 | 02:00:17 | 00:00:00 | |
| AA1-15 | 2026-09-06 00:23:06 | 52.11374 | 11.40659 | 131° | 7km/h | 29553m | 5.6m/s | -44.6°C | 0% | 13.4hPa | 2.6V | 03:24:49 | 02:00:16 | 00:00:00 | |
| BIOWL1-15 | 2026-09-06 00:23:04 | 52.11378 | 11.40653 | 142° | 15km/h | 29542m | 7.4m/s | -44.6°C | 0% | 13.5hPa | 2.6V | 03:28:13 | 02:00:14 | 00:00:00 | |
| DL1XH-west | 2026-09-06 00:23:02 | 52.11387 | 11.40643 | 147° | 24km/h | 29529m | 5.1m/s | -44.6°C | 0% | 13.5hPa | 2.6V | 03:24:49 | 02:00:12 | 00:00:00 | |
| DO3MHA-11 | 2026-09-06 00:23:02 | 52.11387 | 11.40643 | 148° | 16km/h | 29529m | 5.0m/s | -44.5°C | 2.5% | 13.4hPa | 2.6V | 00:00:00 | 02:00:12 | 00:00:00 | |
| HTAHTA | 2026-09-06 00:23:01 | 52.11439 | 11.40609 | 159° | 26km/h | 29433m | 6.2m/s | -44.2°C | 0.4% | 13.7hPa | 2.6V | 00:00:00 | 00:00:00 | 00:00:00 | |
| DO2SHX-10 | 2026-09-06 00:23:00 | 52.11397 | 11.40635 | 162° | 16km/h | 29518m | 6.4m/s | -44.5°C | 2.4% | 13.5hPa | 2.6V | 00:00:00 | 02:00:10 | 00:00:00 | |
| DL4BBY-15 | 2026-09-06 00:22:59 | 52.11402 | 11.40634 | 178° | 16km/h | 29511m | 7.0m/s | -44.8°C | 0% | 0hPa | 2.6V | 00:00:00 | 00:00:00 | 00:00:00 | |
| DL1XH1-15 | 2026-09-06 00:22:57 | 52.11419 | 11.40631 | 134° | 13km/h | 29476m | 5.2m/s | -44.4°C | 2.4% | 13.6hPa | 2.6V | 03:24:37 | 02:00:03 | 00:00:00 | |
| HSKMA3-T | 2026-09-06 00:22:57 | 52.11409 | 11.40635 | 195° | 11km/h | 29499m | 5.3m/s | -44.5°C | 0% | 13.5hPa | 2.6V | 03:24:49 | 02:00:07 | 00:00:00 | |
| AA1-15 | 2026-09-06 00:22:56 | 52.11412 | 11.40636 | 187° | 11km/h | 29493m | 6.3m/s | -44.4°C | 0% | 13.6hPa | 2.6V | 03:24:49 | 02:00:06 | 00:00:00 | |
| DB0DAN | 2026-09-06 00:22:55 | 52.11414 | 11.40636 | 165° | 11km/h | 29487m | 6.5m/s | -44.4°C | 0.4% | 13.58hPa | 2.6V | 00:00:00 | 00:00:00 | 00:00:00 | |
| DL1XH-west | 2026-09-06 00:22:52 | 52.11421 | 11.40627 | 129° | 11km/h | 29470m | 5.8m/s | -44.3°C | 0% | 13.6hPa | 2.6V | 03:24:49 | 02:00:02 | 00:00:00 | |
| SMARD9-15 | 2026-09-06 00:22:52 | 52.11422 | 11.40624 | 128° | 9km/h | 29463m | 7.0m/s | -44.3°C | 0.4% | 13.6hPa | 2.5V | 00:00:00 | 00:00:00 | 00:00:00 | |
| EDDB2-12 | 2026-09-06 00:22:49 | 52.11429 | 11.40616 | 156° | 15km/h | 29446m | 4.9m/s | -44.2°C | 0.4% | 13.6hPa | 2.5V | 00:00:00 | 00:00:00 | 00:00:00 | |
| DO2SHX-10 | 2026-09-06 00:22:48 | 52.11429 | 11.40616 | 157° | 22km/h | 29446m | 4.9m/s | -44.2°C | 2.4% | 13.6hPa | 2.5V | 00:00:00 | 01:59:58 | 00:00:00 | |
| DL1XH1-15 | 2026-09-06 00:22:47 | 52.11460 | 11.40603 | 182° | 27km/h | 29417m | 6.3m/s | -44.2°C | 2.4% | 13.7hPa | 2.6V | 03:24:47 | 01:59:53 | 00:00:00 | |
| DF8AY | 2026-09-06 00:22:46 | 52.11446 | 11.40606 | 165° | 29km/h | 29427m | 4.4m/s | -44.2°C | 0% | 13.7hPa | 2.7V | 03:24:49 | 01:59:55 | 00:00:00 | |
| DM0DOS-11 | 2026-09-06 00:22:46 | 52.11466 | 11.40604 | 196° | 22km/h | 29410m | 6.9m/s | -44.2°C | 2.4% | 13.7hPa | 2.6V | 03:24:48 | 01:59:52 | 00:00:00 | |
| AA1-15 | 2026-09-06 00:22:46 | 52.11439 | 11.40609 | 160° | 27km/h | 29433m | 6.2m/s | -44.2°C | 0% | 13.7hPa | 2.6V | 03:24:49 | 01:59:56 | 00:00:00 | |
| DL1XH-west | 2026-09-06 00:22:41 | 52.11471 | 11.40607 | 210° | 18km/h | 29404m | 5.8m/s | -44.2°C | 0% | 13.7hPa | 2.6V | 03:24:49 | 01:59:51 | 00:00:00 | |
| DB0DAN | 2026-09-06 00:22:40 | 52.11475 | 11.40611 | 214° | 16km/h | 29398m | 5.1m/s | -44.2°C | 0.4% | 13.76hPa | 2.6V | 00:00:00 | 00:00:00 | 00:00:00 | |
| DO2SHX-10 | 2026-09-06 00:22:39 | 52.11478 | 11.40614 | 211° | 11km/h | 29393m | 6.5m/s | -44.1°C | 2.4% | 13.7hPa | 2.6V | 00:00:00 | 01:59:49 | 00:00:00 | |
| DL1XH1-15 | 2026-09-06 00:22:37 | 52.11490 | 11.40609 | 157° | 13km/h | 29357m | 4.8m/s | -44°C | 2.4% | 13.8hPa | 2.6V | 03:24:57 | 01:59:43 | 00:00:00 | |
| DM0DOS-11 | 2026-09-06 00:22:36 | 52.11494 | 11.40607 | 163° | 18km/h | 29353m | 5.2m/s | -44°C | 2.3% | 13.8hPa | 2.6V | 03:24:58 | 01:59:42 | 00:00:00 | |
| HSKMA3-T | 2026-09-06 00:22:36 | 52.11484 | 11.40614 | 143° | 7km/h | 29375m | 5.4m/s | -44.1°C | 0% | 13.8hPa | 2.6V | 03:25:40 | 01:59:46 | 00:00:00 | |
| AA1-15 | 2026-09-06 00:22:35 | 52.11486 | 11.40612 | 143° | 7km/h | 29369m | 6.6m/s | -44.1°C | 0% | 13.8hPa | 2.6V | 03:25:40 | 01:59:45 | 00:00:00 | |
| BIOWL1-15 | 2026-09-06 00:22:33 | 52.11490 | 11.40609 | 157° | 13km/h | 29357m | 4.8m/s | -44°C | 0% | 13.8hPa | 2.6V | 03:28:13 | 01:59:43 | 00:00:00 | |
| DL1XH-west | 2026-09-06 00:22:30 | 52.11506 | 11.40601 | 167° | 33km/h | 29340m | 7.1m/s | -43.9°C | 0% | 13.8hPa | 2.6V | 03:25:40 | 01:59:40 | 00:00:00 | |
| DO2SHX-10 | 2026-09-06 00:22:30 | 52.11506 | 11.40601 | 168° | 37km/h | 29340m | 7.0m/s | -43.9°C | 2.3% | 13.8hPa | 2.6V | 00:00:00 | 01:59:40 | 00:00:00 | |
| DL4BBY-15 | 2026-09-06 00:22:29 | 52.11515 | 11.40599 | 171° | 38km/h | 29334m | 5.6m/s | -44.2°C | 0% | 0hPa | 2.6V | 00:00:00 | 00:00:00 | 00:00:00 | |
| SP3BTT-10 | 2026-09-06 00:22:28 | 52.11525 | 11.40597 | 175° | 26km/h | 29329m | 4.7m/s | -43.9°C | 2.3% | 13.8hPa | 2.6V | 00:00:00 | 00:00:00 | 00:00:00 | |
| DL1XH1-15 | 2026-09-06 00:22:27 | 52.11559 | 11.40611 | 215° | 18km/h | 29301m | 4.3m/s | -43.9°C | 2.3% | 13.9hPa | 2.6V | 03:25:07 | 01:59:33 | 00:00:00 | |
| DO2SHX-10 | 2026-09-06 00:22:27 | 52.11534 | 11.40596 | 182° | 31km/h | 29324m | 5.2m/s | -43.8°C | 2.3% | 13.9hPa | 2.6V | 00:00:00 | 01:59:37 | 00:00:00 | |
| EDDB2-11 | 2026-09-06 00:22:26 | 52.11550 | 11.40601 | 204° | 26km/h | 29311m | 6.4m/s | -43.9°C | 0.4% | 13.9hPa | 2.6V | 00:00:00 | 00:00:00 | 00:00:00 | |
| DL1XH-15 | 2026-09-06 00:22:25 | 52.11562 | 11.40614 | 202° | 15km/h | 29296m | 5.2m/s | -43.9°C | 2.3% | 14hPa | 2.6V | 03:25:08 | 01:59:32 | 00:00:00 | |
| DB0DAN | 2026-09-06 00:22:25 | 52.11550 | 11.40601 | 205° | 26km/h | 29311m | 6.4m/s | -43.9°C | 0.4% | 13.92hPa | 2.6V | 00:00:00 | 00:00:00 | 00:00:00 | |
| AA1-15 | 2026-09-06 00:22:25 | 52.11550 | 11.40601 | 205° | 27km/h | 29311m | 6.4m/s | -43.9°C | 0% | 13.9hPa | 2.6V | 03:25:40 | 01:59:35 | 00:00:00 | |
| DF8AY | 2026-09-06 00:22:24 | 52.11555 | 11.40606 | 215° | 22km/h | 29305m | 5m/s | -43.9°C | 0% | 13.9hPa | 2.7V | 03:25:40 | 01:59:34 | 00:00:00 | |
| BIOWL1-15 | 2026-09-06 00:22:20 | 52.11582 | 11.40605 | 155° | 31km/h | 29273m | 5.3m/s | -44°C | 0% | 14hPa | 2.6V | 03:28:13 | 01:59:28 | 00:00:00 | |
| DL1XH-west | 2026-09-06 00:22:19 | 52.11576 | 11.40610 | 156° | 27km/h | 29278m | 5m/s | -44°C | 0% | 14hPa | 2.7V | 03:25:40 | 01:59:29 | 00:00:00 | |
| AA1-15 | 2026-09-06 00:22:14 | 52.11610 | 11.40592 | 179° | 26km/h | 29249m | 5.3m/s | -44.1°C | 0% | 14hPa | 2.6V | 03:25:40 | 01:59:24 | 00:00:00 | |
| DF8AY | 2026-09-06 00:22:13 | 52.11617 | 11.40592 | 181° | 26km/h | 29244m | 5.2m/s | -44.2°C | 0% | 14.1hPa | 2.7V | 03:25:40 | 01:59:23 | 00:00:00 | |
| DF8AY-15 | 2026-09-06 00:22:12 | 52.11623 | 11.40592 | 180° | 33km/h | 29239m | 5.6m/s | -44.2°C | 2.3% | 14.0hPa | 2.6V | 03:25:00 | 01:59:22 | 00:00:00 | |
| DB0DAN | 2026-09-06 00:22:10 | 52.11637 | 11.40590 | 169° | 29km/h | 29226m | 5.6m/s | -44.4°C | 0.4% | 14.11hPa | 2.6V | 00:00:00 | 00:00:00 | 00:00:00 | |
| DL1XH-west | 2026-09-06 00:22:08 | 52.11652 | 11.40584 | 166° | 29km/h | 29215m | 6.3m/s | -44.5°C | 0% | 14.1hPa | 2.7V | 03:25:40 | 01:59:18 | 00:00:00 | |
| DL1XH1-15 | 2026-09-06 00:22:06 | 52.11691 | 11.40569 | 163° | 40km/h | 29187m | 6.8m/s | -44.8°C | 2.3% | 14.2hPa | 2.6V | 03:25:27 | 01:59:13 | 00:00:00 | |
| AA1-15 | 2026-09-06 00:22:03 | 52.11690 | 11.40569 | 163° | 40km/h | 29187m | 6.8m/s | -44.8°C | 0% | 14.2hPa | 2.6V | 03:25:40 | 01:59:13 | 00:00:00 | |
| DL1XH-15 | 2026-09-06 00:22:03 | 52.11700 | 11.40563 | 160° | 46km/h | 29181m | 5.8m/s | -44.9°C | 2.3% | 14.2hPa | 2.7V | 03:25:28 | 01:59:12 | 00:00:00 | |
| DF8AY | 2026-09-06 00:22:02 | 52.11746 | 11.40540 | 166° | 27km/h | 29153m | 4.8m/s | -45.2°C | 0% | 14.2hPa | 2.6V | 03:25:40 | 01:59:07 | 00:00:00 | |
| DL1XH-west | 2026-09-06 00:21:58 | 52.11739 | 11.40543 | 165° | 29km/h | 29159m | 6m/s | -45.2°C | 0% | 14.2hPa | 2.6V | 03:25:40 | 01:59:08 | 00:00:00 | |
| BIOWL1-15 | 2026-09-06 00:21:57 | 52.11752 | 11.40537 | 160° | 26km/h | 29148m | 4.7m/s | -45.3°C | 0% | 14.3hPa | 2.6V | 03:28:13 | 01:59:06 | 00:00:00 | |
| DO2SHX-10 | 2026-09-06 00:21:57 | 52.11745 | 11.40540 | 166° | 27km/h | 29154m | 4.8m/s | -45.2°C | 2.5% | 14.2hPa | 2.6V | 03:25:00 | 01:59:07 | 00:00:00 | |
| DB0DAN | 2026-09-06 00:21:55 | 52.11758 | 11.40533 | 154° | 27km/h | 29143m | 5.1m/s | -45.4°C | 0.4% | 14.28hPa | 2.6V | 00:00:00 | 00:00:00 | 00:00:00 | |
| DO2SHX-10 | 2026-09-06 00:21:54 | 52.11766 | 11.40526 | 151° | 44km/h | 29138m | 5.9m/s | -45.3°C | 2.4% | 14.2hPa | 2.6V | 00:00:00 | 01:59:04 | 00:00:00 | |
| DL1XH-15 | 2026-09-06 00:21:53 | 52.11784 | 11.40508 | 149° | 49km/h | 29126m | 4.8m/s | -45.5°C | 2.4% | 14.3hPa | 2.6V | 03:25:38 | 01:59:02 | 00:00:00 | |
| AA1-15 | 2026-09-06 00:21:52 | 52.11785 | 11.40508 | 150° | 49km/h | 29126m | 4.8m/s | -45.5°C | 0% | 14.3hPa | 2.6V | 03:25:40 | 01:59:02 | 00:00:00 | |
| DL1XH-west | 2026-09-06 00:21:48 | 52.11827 | 11.40474 | 154° | 37km/h | 29105m | 5.7m/s | -45.8°C | 0% | 14.4hPa | 2.6V | 03:26:31 | 01:58:58 | 00:00:00 | |
| EDDB2-12 | 2026-09-06 00:21:47 | 52.11841 | 11.40460 | 145° | 31km/h | 29094m | 5.9m/s | -46.0°C | 0.5% | 14.4hPa | 2.6V | 00:00:00 | 00:00:00 | 00:00:00 | |
| DL1XH1-15 | 2026-09-06 00:21:46 | 52.11861 | 11.40434 | 136° | 37km/h | 29074m | 6.3m/s | -46°C | 2.5% | 14.4hPa | 2.6V | 03:25:47 | 01:58:53 | 00:00:00 | |
| AA1-15 | 2026-09-06 00:21:42 | 52.11868 | 11.40423 | 136° | 37km/h | 29068m | 5.9m/s | -46.1°C | 0% | 14.5hPa | 2.7V | 03:26:31 | 01:58:52 | 00:00:00 | |
| HSKMA3-T | 2026-09-06 00:21:41 | 52.11874 | 11.40413 | 138° | 37km/h | 29062m | 5.7m/s | -46.1°C | 0% | 14.4hPa | 2.7V | 03:26:31 | 01:58:51 | 00:00:00 | |
| DB0DAN | 2026-09-06 00:21:40 | 52.11881 | 11.40404 | 140° | 31km/h | 29056m | 6.2m/s | -46.1°C | 0.5% | 14.47hPa | 2.6V | 00:00:00 | 00:00:00 | 00:00:00 | |
| DL1XH-west | 2026-09-06 00:21:37 | 52.11897 | 11.40385 | 152° | 22km/h | 29038m | 5.8m/s | -46.1°C | 0% | 14.5hPa | 2.6V | 03:26:31 | 01:58:47 | 00:00:00 | |
| DM0DOS-11 | 2026-09-06 00:21:36 | 52.11927 | 11.40351 | 133° | 38km/h | 29010m | 4.3m/s | -46.5°C | 2.6% | 14.6hPa | 2.6V | 03:25:58 | 01:58:42 | 00:00:00 | |
| DL1XH1-15 | 2026-09-06 00:21:36 | 52.11920 | 11.40361 | 139° | 35km/h | 29015m | 5.7m/s | -46.4°C | 2.6% | 14.6hPa | 2.6V | 03:25:57 | 01:58:43 | 00:00:00 | |
| AA1-15 | 2026-09-06 00:21:31 | 52.11933 | 11.40339 | 128° | 37km/h | 29005m | 4.1m/s | -46.5°C | 0% | 14.6hPa | 2.7V | 03:26:31 | 01:58:41 | 00:00:00 | |
| HSKMA3-T | 2026-09-06 00:21:30 | 52.11938 | 11.40327 | 123° | 33km/h | 29001m | 5.2m/s | -46.6°C | 0% | 14.6hPa | 2.7V | 03:26:31 | 01:58:40 | 00:00:00 | |
| DO2SHX-10 | 2026-09-06 00:21:30 | 52.11938 | 11.40327 | 123° | 27km/h | 29001m | 5.1m/s | -46.5°C | 2.6% | 14.5hPa | 2.6V | 00:00:00 | 01:58:40 | 00:00:00 | |
| GOEST3-10 | 2026-09-06 00:21:29 | 52.11942 | 11.40317 | 116° | 18km/h | 28995m | 6.3m/s | -46.6°C | 2.6% | 14.5hPa | 2.6V | 00:00:00 | 00:00:00 | 00:00:00 | |
| SONDE2-11 | 2026-09-06 00:21:28 | 52.11945 | 11.40301 | 104° | 15km/h | 28984m | 4.6m/s | -46.7°C | 0.5% | 14.6hPa | 2.6V | 00:00:00 | 00:00:00 | 00:00:00 | |
| DO2SHX-10 | 2026-09-06 00:21:27 | 52.11945 | 11.40301 | 105° | 15km/h | 28984m | 4.5m/s | -46.6°C | 2.7% | 14.6hPa | 2.6V | 00:00:00 | 01:58:37 | 00:00:00 | |
| DL1XH-west | 2026-09-06 00:21:27 | 52.11946 | 11.40295 | 109° | 13km/h | 28979m | 4.7m/s | -46.6°C | 0% | 14.6hPa | 2.6V | 03:26:31 | 01:58:36 | 00:00:00 | |
| DL1XH1-15 | 2026-09-06 00:21:26 | 52.11954 | 11.40278 | 133° | 24km/h | 28963m | 5m/s | -46.6°C | 2.6% | 14.7hPa | 2.6V | 03:26:07 | 01:58:33 | 00:00:00 | |
| DM0DOS-11 | 2026-09-06 00:21:26 | 52.11958 | 11.40271 | 130° | 26km/h | 28958m | 4.7m/s | -46.7°C | 2.6% | 14.7hPa | 2.6V | 03:26:08 | 01:58:32 | 00:00:00 | |
| DB0DAN | 2026-09-06 00:21:25 | 52.11948 | 11.40290 | 122° | 15km/h | 28974m | 5.7m/s | -46.6°C | 0.5% | 14.64hPa | 2.7V | 00:00:00 | 00:00:00 | 00:00:00 | |
| DO2JMG | 2026-09-06 00:21:22 | 52.11958 | 11.40271 | 131° | 26km/h | 28958m | 4.7m/s | -46.7°C | 0% | 14.7hPa | 2.6V | 03:26:31 | 01:58:32 | 00:00:00 | |
| AA1-15 | 2026-09-06 00:21:20 | 52.11965 | 11.40254 | 114° | 22km/h | 28946m | 6.8m/s | -46.7°C | 0% | 14.7hPa | 2.6V | 03:26:31 | 01:58:30 | 00:00:00 | |
| HSKMA3-T | 2026-09-06 00:21:19 | 52.11967 | 11.40246 | 105° | 22km/h | 28940m | 5.7m/s | -46.8°C | 0% | 14.7hPa | 2.6V | 03:26:31 | 01:58:29 | 00:00:00 | |
| SMARD9-15 | 2026-09-06 00:21:19 | 52.11968 | 11.40236 | 103° | 22km/h | 28935m | 4.8m/s | -46.8°C | 0.5% | 14.7hPa | 2.6V | 00:00:00 | 00:00:00 | 00:00:00 | |
| DO2SHX-10 | 2026-09-06 00:21:18 | 52.11968 | 11.40236 | 104° | 24km/h | 28935m | 4.8m/s | -46.7°C | 2.6% | 14.7hPa | 2.6V | 00:00:00 | 01:58:28 | 00:00:00 | |
| DJ2DS-15 | 2026-09-06 00:21:17 | 52.11972 | 11.40218 | 112° | 24km/h | 28924m | 6.3m/s | -46.8°C | 0.5% | 14.8hPa | 2.6V | 00:00:00 | 00:00:00 | 00:00:00 | |
| DM0DOS-11 | 2026-09-06 00:21:16 | 52.11982 | 11.40187 | 115° | 15km/h | 28904m | 5.6m/s | -46.9°C | 2.6% | 14.8hPa | 2.6V | 03:26:18 | 01:58:22 | 00:00:00 | |
| DL1XH1-15 | 2026-09-06 00:21:16 | 52.11980 | 11.40193 | 122° | 20km/h | 28909m | 4.2m/s | -46.9°C | 2.6% | 14.8hPa | 2.6V | 03:26:17 | 01:58:23 | 00:00:00 | |
| DF8AY | 2026-09-06 00:21:15 | 52.11974 | 11.40209 | 118° | 24km/h | 28918m | 5m/s | -46.8°C | 0% | 14.8hPa | 2.6V | 03:26:31 | 01:58:25 | 00:00:00 | |
| DL1XH-west | 2026-09-06 00:21:15 | 52.11977 | 11.40200 | 123° | 22km/h | 28913m | 4.3m/s | -46.8°C | 0% | 14.8hPa | 2.6V | 03:26:31 | 01:58:24 | 00:00:00 | |
| DO2JMG | 2026-09-06 00:21:10 | 52.11984 | 11.40177 | 85° | 9km/h | 28892m | 5.5m/s | -47°C | 0% | 14.8hPa | 2.7V | 03:26:31 | 01:58:20 | 00:00:00 | |
| DB0DAN | 2026-09-06 00:21:10 | 52.11984 | 11.40177 | 85° | 9km/h | 28892m | 5.5m/s | -47°C | 0.5% | 14.81hPa | 2.7V | 00:00:00 | 00:00:00 | 00:00:00 | |
| AA1-15 | 2026-09-06 00:21:09 | 52.11984 | 11.40173 | 86° | 9km/h | 28887m | 4.4m/s | -47°C | 0% | 14.9hPa | 2.6V | 03:26:31 | 01:58:19 | 00:00:00 | |
| HSKMA3-T | 2026-09-06 00:21:08 | 52.11984 | 11.40169 | 104° | 13km/h | 28883m | 3.8m/s | -47.1°C | 0% | 14.9hPa | 2.6V | 03:26:31 | 01:58:18 | 00:00:00 | |
| BUE01 | 2026-09-06 00:21:08 | 52.11985 | 11.40163 | 119° | 16km/h | 28878m | 5.1m/s | -47.1°C | 0.5% | 14.8hPa | 2.6V | 00:00:00 | 00:00:00 | 00:00:00 | |
| DB0ND-19 | 2026-09-06 00:21:07 | 52.11985 | 11.40163 | 119° | 16km/h | 28878m | 5.1m/s | -47.1°C | 0.5% | 14.8hPa | 2.6V | 00:00:00 | 00:00:00 | 00:00:00 | |
| DM0DOS-11 | 2026-09-06 00:21:06 | 52.12007 | 11.40122 | 124° | 22km/h | 28852m | 5.8m/s | -47.3°C | 2.7% | 14.9hPa | 2.6V | 03:26:28 | 01:58:12 | 00:00:00 | |
| DL1XH-west | 2026-09-06 00:21:04 | 52.11998 | 11.40139 | 134° | 31km/h | 28861m | 4.2m/s | -47.2°C | 0% | 14.9hPa | 2.7V | 03:26:31 | 01:58:14 | 00:00:00 | |
| DO2JMG | 2026-09-06 00:20:59 | 52.12009 | 11.40112 | 340° | 5km/h | 28834m | 5.9m/s | -47.4°C | 0% | 15hPa | 2.7V | 03:26:31 | 01:58:09 | 00:00:00 | |
| HSKMA3-T | 2026-09-06 00:20:58 | 52.12008 | 11.40114 | 301° | 7km/h | 28829m | 5.8m/s | -47.4°C | 0% | 15hPa | 2.6V | 03:27:22 | 01:58:08 | 00:00:00 | |
| HTAHTA | 2026-09-06 00:20:57 | 52.12013 | 11.40117 | 129° | 13km/h | 28804m | 5.8m/s | -47.4°C | 0.5% | 15.0hPa | 2.6V | 00:00:00 | 00:00:00 | 00:00:00 | |
| DB0DAN | 2026-09-06 00:20:55 | 52.12009 | 11.40121 | 195° | 7km/h | 28813m | 4.2m/s | -47.5°C | 0.5% | 15.02hPa | 2.6V | 00:00:00 | 00:00:00 | 00:00:00 | |
| DL1XH-west | 2026-09-06 00:20:54 | 52.12011 | 11.40120 | 152° | 11km/h | 28809m | 4.3m/s | -47.4°C | 0% | 15hPa | 2.7V | 03:27:22 | 01:58:04 | 00:00:00 | |
| HSKMA3-T | 2026-09-06 00:20:47 | 52.12029 | 11.40071 | 147° | 24km/h | 28770m | 5.4m/s | -47.4°C | 0% | 15.1hPa | 2.6V | 03:27:22 | 01:57:57 | 00:00:00 | |
| GOEST3-10 | 2026-09-06 00:20:47 | 52.12029 | 11.40071 | 148° | 18km/h | 28770m | 5.4m/s | -47.3°C | 2.7% | 15.0hPa | 2.6V | 00:00:00 | 00:00:00 | 00:00:00 | |
| DL1XH1-15 | 2026-09-06 00:20:46 | 52.12046 | 11.40061 | 169° | 9km/h | 28748m | 5.5m/s | -47.5°C | 2.7% | 15.2hPa | 2.6V | 03:26:47 | 01:57:53 | 00:00:00 | |
| DO2JMG | 2026-09-06 00:20:44 | 52.12043 | 11.40062 | 170° | 15km/h | 28754m | 6.4m/s | -47.4°C | 0% | 15.1hPa | 2.7V | 03:27:22 | 01:57:54 | 00:00:00 | |
| SONCRA | 2026-09-06 00:20:44 | 52.12043 | 11.40062 | 169° | 13km/h | 28754m | 6.4m/s | -47.4°C | 0.5% | 15.1hPa | 2.6V | 00:00:00 | 00:00:00 | 00:00:00 | |
| DF8AY | 2026-09-06 00:20:43 | 52.12046 | 11.40061 | 169° | 9km/h | 28748m | 5.6m/s | -47.5°C | 0% | 15.2hPa | 2.6V | 03:27:22 | 01:57:53 | 00:00:00 | |
| DL1XH-west | 2026-09-06 00:20:43 | 52.12049 | 11.40061 | 166° | 7km/h | 28743m | 5.1m/s | -47.5°C | 0% | 15.2hPa | 2.6V | 03:27:22 | 01:57:52 | 00:00:00 | |
| DO2SHX-10 | 2026-09-06 00:20:42 | 52.12049 | 11.40060 | 166° | 11km/h | 28743m | 5.0m/s | -47.5°C | 2.7% | 15.1hPa | 2.6V | 00:00:00 | 01:57:52 | 00:00:00 | |
| DB0DAN | 2026-09-06 00:20:40 | 52.12053 | 11.40058 | 152° | 11km/h | 28732m | 5.8m/s | -47.6°C | 0.5% | 15.18hPa | 2.6V | 00:00:00 | 00:00:00 | 00:00:00 | |
| AA1-15 | 2026-09-06 00:20:37 | 52.12064 | 11.40041 | 124° | 27km/h | 28716m | 5.2m/s | -47.6°C | 0% | 15.2hPa | 2.6V | 03:27:22 | 01:57:47 | 00:00:00 | |
| HSKMA3-T | 2026-09-06 00:20:36 | 52.12067 | 11.40031 | 115° | 31km/h | 28710m | 6m/s | -47.6°C | 0% | 15.2hPa | 2.6V | 03:27:22 | 01:57:46 | 00:00:00 | |
| DL1XH1-15 | 2026-09-06 00:20:36 | 52.12076 | 11.39996 | 118° | 27km/h | 28695m | 4m/s | -47.8°C | 2.7% | 15.2hPa | 2.7V | 03:26:57 | 01:57:43 | 00:00:00 | |
| DO2JMG | 2026-09-06 00:20:34 | 52.12073 | 11.40007 | 110° | 31km/h | 28699m | 4.4m/s | -47.7°C | 0% | 15.3hPa | 2.6V | 03:27:22 | 01:57:44 | 00:00:00 | |
| DF8AY | 2026-09-06 00:20:33 | 52.12076 | 11.39996 | 119° | 27km/h | 28695m | 4m/s | -47.8°C | 0% | 15.2hPa | 2.7V | 03:27:22 | 01:57:43 | 00:00:00 | |
| DL1XH-west | 2026-09-06 00:20:32 | 52.12085 | 11.39980 | 153° | 27km/h | 28684m | 6.8m/s | -48°C | 0% | 15.3hPa | 2.6V | 03:27:22 | 01:57:41 | 00:00:00 | |
| HSKMA3-T | 2026-09-06 00:20:26 | 52.12122 | 11.39963 | 144° | 31km/h | 28658m | 5m/s | -48.2°C | 0% | 15.4hPa | 2.6V | 03:27:22 | 01:57:36 | 00:00:00 | |
| DL1XH1-15 | 2026-09-06 00:20:26 | 52.12140 | 11.39928 | 126° | 42km/h | 28641m | 6.1m/s | -48.2°C | 2.9% | 15.4hPa | 2.6V | 03:27:07 | 01:57:33 | 00:00:00 | |
| DM0DOS-11 | 2026-09-06 00:20:26 | 52.12147 | 11.39914 | 125° | 44km/h | 28635m | 5m/s | -48.2°C | 2.8% | 15.4hPa | 2.7V | 03:27:08 | 01:57:32 | 00:00:00 | |
| DB0DAN | 2026-09-06 00:20:25 | 52.12128 | 11.39954 | 131° | 33km/h | 28653m | 5.2m/s | -48.2°C | 0.5% | 15.38hPa | 2.6V | 00:00:00 | 00:00:00 | 00:00:00 | |
| DF8AY | 2026-09-06 00:20:23 | 52.12140 | 11.39928 | 126° | 42km/h | 28641m | 6.1m/s | -48.2°C | 0% | 15.4hPa | 2.6V | 03:27:22 | 01:57:33 | 00:00:00 | |
| DO2JMG | 2026-09-06 00:20:22 | 52.12147 | 11.39914 | 126° | 44km/h | 28635m | 5m/s | -48.2°C | 0% | 15.4hPa | 2.7V | 03:27:22 | 01:57:32 | 00:00:00 | |
| DL1XH-west | 2026-09-06 00:20:20 | 52.12159 | 11.39887 | 126° | 37km/h | 28627m | 4.4m/s | -48.2°C | 0% | 15.4hPa | 2.6V | 03:27:22 | 01:57:30 | 00:00:00 | |
| DB0UT-7 | 2026-09-06 00:20:19 | 52.12164 | 11.39876 | 125° | 31km/h | 28622m | 5.6m/s | -48.1°C | 2.8% | 15.4hPa | 2.6V | 00:00:00 | 00:00:00 | 00:00:00 | |
| DO2SHX-10 | 2026-09-06 00:20:18 | 52.12168 | 11.39867 | 126° | 22km/h | 28616m | 6.1m/s | -48.2°C | 2.8% | 15.4hPa | 2.6V | 00:00:00 | 01:57:28 | 00:00:00 | |
| SMARD9-15 | 2026-09-06 00:20:17 | 52.12175 | 11.39855 | 144° | 20km/h | 28605m | 4.7m/s | -48.3°C | 0.5% | 15.5hPa | 2.6V | 00:00:00 | 00:00:00 | 00:00:00 | |
| DM0DOS-11 | 2026-09-06 00:20:16 | 52.12203 | 11.39828 | 145° | 46km/h | 28583m | 4.7m/s | -48.3°C | 2.8% | 15.5hPa | 2.6V | 03:27:18 | 01:57:22 | 00:00:00 | |
| HSKMA3-T | 2026-09-06 00:20:16 | 52.12175 | 11.39855 | 145° | 20km/h | 28605m | 4.7m/s | -48.3°C | 0% | 15.5hPa | 2.7V | 03:27:22 | 01:57:26 | 00:00:00 | |
| DL1XH1-15 | 2026-09-06 00:20:16 | 52.12194 | 11.39837 | 151° | 40km/h | 28588m | 5.8m/s | -48.3°C | 2.9% | 15.6hPa | 2.6V | 03:27:17 | 01:57:23 | 00:00:00 | |
| AA1-15 | 2026-09-06 00:20:16 | 52.12180 | 11.39850 | 151° | 26km/h | 28600m | 5.2m/s | -48.3°C | 0% | 15.5hPa | 2.6V | 03:27:22 | 01:57:25 | 00:00:00 | |
| DF8AY | 2026-09-06 00:20:13 | 52.12194 | 11.39837 | 151° | 40km/h | 28588m | 5.8m/s | -48.3°C | 0% | 15.6hPa | 2.6V | 03:27:22 | 01:57:23 | 00:00:00 | |
| SONCRA | 2026-09-06 00:20:13 | 52.12194 | 11.39837 | 151° | 38km/h | 28589m | 5.8m/s | -48.3°C | 0.5% | 15.6hPa | 2.6V | 00:00:00 | 00:00:00 | 00:00:00 | |
| DO3MHA-11 | 2026-09-06 00:20:12 | 52.12203 | 11.39828 | 146° | 33km/h | 28584m | 4.6m/s | -48.3°C | 2.8% | 15.5hPa | 2.6V | 00:00:00 | 01:57:22 | 00:00:00 | |
| DB0DAN | 2026-09-06 00:20:10 | 52.12220 | 11.39804 | 133° | 40km/h | 28573m | 5.6m/s | -48.3°C | 0.6% | 15.58hPa | 2.6V | 00:00:00 | 00:00:00 | 00:00:00 | |
| DO2JMG | 2026-09-06 00:20:09 | 52.12226 | 11.39792 | 122° | 38km/h | 28568m | 6.2m/s | -48.3°C | 0% | 15.6hPa | 2.6V | 03:27:22 | 01:57:19 | 00:00:00 | |
| DF8AY | 2026-09-06 00:20:06 | 52.12252 | 11.39708 | 122° | 31km/h | 28525m | 6.2m/s | -48.4°C | 0% | 15.7hPa | 2.6V | 03:28:13 | 01:57:11 | 00:00:00 | |
| DM0DOS-11 | 2026-09-06 00:20:06 | 52.12248 | 11.39718 | 123° | 29km/h | 28531m | 4.8m/s | -48.4°C | 2.9% | 15.7hPa | 2.6V | 03:27:28 | 01:57:12 | 00:00:00 | |
| DL1XH1-15 | 2026-09-06 00:20:06 | 52.12244 | 11.39728 | 123° | 27km/h | 28536m | 5.1m/s | -48.4°C | 2.9% | 15.7hPa | 2.6V | 03:27:27 | 01:57:13 | 00:00:00 | |
| HSKMA3-T | 2026-09-06 00:20:05 | 52.12238 | 11.39746 | 115° | 26km/h | 28546m | 5.8m/s | -48.4°C | 0% | 15.6hPa | 2.7V | 03:28:13 | 01:57:15 | 00:00:00 | |
| DO2JMG | 2026-09-06 00:19:59 | 52.12261 | 11.39685 | 121° | 37km/h | 28513m | 4.7m/s | -48.4°C | 0% | 15.7hPa | 2.6V | 03:28:13 | 01:57:09 | 00:00:00 | |
| DO2SHX-10 | 2026-09-06 00:19:59 | 52.12260 | 11.39685 | 121° | 38km/h | 28514m | 4.6m/s | -48.4°C | 2.8% | 15.7hPa | 2.6V | 00:00:00 | 01:57:09 | 00:00:00 | |
| DL4BBY-15 | 2026-09-06 00:19:57 | 52.12271 | 11.39659 | 129° | 33km/h | 28503m | 6.3m/s | -48.8°C | 0% | 0hPa | 2.6V | 00:00:00 | 00:00:00 | 00:00:00 | |
| DL1XH1-15 | 2026-09-06 00:19:56 | 52.12297 | 11.39609 | 120° | 33km/h | 28482m | 6.2m/s | -48.5°C | 2.8% | 15.8hPa | 2.6V | 03:27:37 | 01:57:03 | 00:00:00 | |
| DB0DAN | 2026-09-06 00:19:55 | 52.12285 | 11.39633 | 133° | 40km/h | 28492m | 4.8m/s | -48.5°C | 0.5% | 15.74hPa | 2.7V | 00:00:00 | 00:00:00 | 00:00:00 | |
| HSKMA3-T | 2026-09-06 00:19:54 | 52.12292 | 11.39621 | 129° | 37km/h | 28488m | 4.3m/s | -48.5°C | 0% | 15.8hPa | 2.6V | 03:28:13 | 01:57:04 | 00:00:00 | |
| DF8AY | 2026-09-06 00:19:51 | 52.12302 | 11.39587 | 97° | 26km/h | 28470m | 5.5m/s | -48.6°C | 0% | 15.8hPa | 2.7V | 03:28:13 | 01:57:01 | 00:00:00 | |
| DL1XH-west | 2026-09-06 00:19:49 | 52.12303 | 11.39567 | 103° | 24km/h | 28459m | 5m/s | -48.6°C | 0% | 15.9hPa | 2.6V | 03:28:13 | 01:56:59 | 00:00:00 | |
| DO2JMG | 2026-09-06 00:19:48 | 52.12305 | 11.39557 | 116° | 27km/h | 28454m | 5.8m/s | -48.6°C | 0% | 15.8hPa | 2.6V | 03:28:13 | 01:56:58 | 00:00:00 | |
| SMARD9-15 | 2026-09-06 00:19:45 | 52.12322 | 11.39524 | 133° | 42km/h | 28438m | 5.1m/s | -48.7°C | 0.5% | 15.9hPa | 2.6V | 00:00:00 | 00:00:00 | 00:00:00 | |
| HSKMA3-T | 2026-09-06 00:19:43 | 52.12336 | 11.39497 | 127° | 44km/h | 28427m | 5.9m/s | -48.7°C | 0% | 15.9hPa | 2.6V | 03:28:13 | 01:56:53 | 00:00:00 | |
| DF8AY | 2026-09-06 00:19:41 | 52.12347 | 11.39467 | 116° | 42km/h | 28415m | 5.4m/s | -48.8°C | 0% | 16hPa | 2.6V | 03:28:13 | 01:56:51 | 00:00:00 | |
| DB0DAN | 2026-09-06 00:19:40 | 52.12351 | 11.39452 | 115° | 37km/h | 28409m | 4.9m/s | -48.8°C | 0.6% | 15.94hPa | 2.7V | 00:00:00 | 00:00:00 | 00:00:00 | |
| DL1XH-west | 2026-09-06 00:19:39 | 52.12359 | 11.39426 | 122° | 33km/h | 28399m | 6.9m/s | -48.8°C | 0% | 16hPa | 2.6V | 03:28:13 | 01:56:48 | 00:00:00 | |
| DO2SHX-10 | 2026-09-06 00:19:38 | 52.12359 | 11.39426 | 122° | 27km/h | 28399m | 6.9m/s | -48.8°C | 2.9% | 15.9hPa | 2.6V | 00:00:00 | 01:56:48 | 00:00:00 | |
| DM0DOS-11 | 2026-09-06 00:19:36 | 52.12378 | 11.39378 | 108° | 22km/h | 28364m | 4m/s | -49°C | 2.9% | 16.1hPa | 2.6V | 03:27:58 | 01:56:42 | 00:00:00 | |
| DO2JMG | 2026-09-06 00:19:36 | 52.12368 | 11.39407 | 130° | 24km/h | 28386m | 5.1m/s | -48.9°C | 0% | 16hPa | 2.6V | 03:28:13 | 01:56:46 | 00:00:00 | |
| GOEST3-10 | 2026-09-06 00:19:36 | 52.12368 | 11.39407 | 131° | 22km/h | 28387m | 5.0m/s | -48.8°C | 2.9% | 16.0hPa | 2.6V | 03:27:00 | 00:00:00 | 00:00:00 | |
| DL1XH1-15 | 2026-09-06 00:19:35 | 52.12376 | 11.39386 | 106° | 20km/h | 28369m | 5.3m/s | -48.9°C | 2.9% | 16hPa | 2.6V | 03:27:57 | 01:56:43 | 00:00:00 | |
| HSKMA3-T | 2026-09-06 00:19:33 | 52.12376 | 11.39386 | 106° | 20km/h | 28369m | 5.3m/s | -48.9°C | 0% | 16hPa | 2.6V | 03:28:13 | 01:56:43 | 00:00:00 | |
| AA1-15 | 2026-09-06 00:19:33 | 52.12377 | 11.39378 | 108° | 22km/h | 28364m | 4m/s | -49°C | 0% | 16.1hPa | 2.6V | 03:28:13 | 01:56:42 | 00:00:00 | |
| DF8AY | 2026-09-06 00:19:31 | 52.12380 | 11.39368 | 116° | 27km/h | 28360m | 4.5m/s | -49°C | 0% | 16.1hPa | 2.6V | 03:28:13 | 01:56:41 | 00:00:00 | |
| DL1XH-west | 2026-09-06 00:19:28 | 52.12395 | 11.39332 | 128° | 44km/h | 28342m | 5m/s | -49.1°C | 0% | 16.1hPa | 2.7V | 03:28:13 | 01:56:38 | 00:00:00 | |
| BIOWL1-15 | 2026-09-06 00:19:27 | 52.12402 | 11.39317 | 126° | 47km/h | 28337m | 4.6m/s | -49.1°C | 0% | 16.2hPa | 2.6V | 03:28:13 | 01:56:37 | 00:00:00 | |
| DL4BBY-15 | 2026-09-06 00:19:27 | 52.12402 | 11.39317 | 126° | 26km/h | 28337m | 4.6m/s | -49.4°C | 0% | 0hPa | 2.7V | 00:00:00 | 00:00:00 | 00:00:00 | |
| DM0DOS-11 | 2026-09-06 00:19:26 | 52.12421 | 11.39244 | 105° | 24km/h | 28310m | 5.7m/s | -49.2°C | 3% | 16.2hPa | 2.7V | 03:28:08 | 01:56:32 | 00:00:00 | |
| DO2JMG | 2026-09-06 00:19:26 | 52.12409 | 11.39301 | 121° | 47km/h | 28332m | 5.8m/s | -49.1°C | 0% | 16.1hPa | 2.6V | 03:28:13 | 01:56:36 | 00:00:00 | |
| DB0DAN | 2026-09-06 00:19:25 | 52.12414 | 11.39284 | 114° | 42km/h | 28326m | 5.4m/s | -49.1°C | 0.5% | 16.19hPa | 2.6V | 00:00:00 | 00:00:00 | 00:00:00 | |
| HSKMA3-T | 2026-09-06 00:19:22 | 52.12421 | 11.39244 | 106° | 24km/h | 28310m | 5.7m/s | -49.2°C | 0% | 16.2hPa | 2.7V | 03:28:13 | 01:56:32 | 00:00:00 | |
| DF8AY | 2026-09-06 00:19:20 | 52.12425 | 11.39233 | 148° | 11km/h | 28298m | 6.2m/s | -49.3°C | 0% | 16.2hPa | 2.6V | 03:28:13 | 01:56:30 | 00:00:00 | |
| DL1XH-west | 2026-09-06 00:19:18 | 52.12430 | 11.39231 | 171° | 9km/h | 28287m | 5.5m/s | -49.3°C | 0% | 16.3hPa | 2.7V | 03:28:13 | 01:56:28 | 00:00:00 | |
| DO2SHX-10 | 2026-09-06 00:19:17 | 52.12432 | 11.39229 | 148° | 16km/h | 28281m | 6.1m/s | -49.2°C | 2.9% | 16.2hPa | 2.7V | 00:00:00 | 01:56:27 | 00:00:00 | |
| DM0DOS-11 | 2026-09-06 00:19:16 | 52.12454 | 11.39186 | 127° | 44km/h | 28251m | 5.1m/s | -49.2°C | 2.9% | 16.3hPa | 2.7V | 03:28:18 | 01:56:22 | 00:00:00 | |
| DO2JMG | 2026-09-06 00:19:15 | 52.12438 | 11.39219 | 128° | 24km/h | 28270m | 5.1m/s | -49.3°C | 0% | 16.3hPa | 2.6V | 03:29:04 | 01:56:25 | 00:00:00 | |
| AA1-15 | 2026-09-06 00:19:12 | 52.12461 | 11.39172 | 123° | 44km/h | 28246m | 4.5m/s | -49.2°C | 0% | 16.4hPa | 2.6V | 03:29:04 | 01:56:21 | 00:00:00 | |
| HSKMA3-T | 2026-09-06 00:19:12 | 52.12454 | 11.39186 | 128° | 44km/h | 28251m | 5.1m/s | -49.2°C | 0% | 16.3hPa | 2.7V | 03:29:04 | 01:56:22 | 00:00:00 | |
| DF8AY-15 | 2026-09-06 00:19:12 | 52.12454 | 11.39186 | 128° | 29km/h | 28252m | 5.1m/s | -49.2°C | 2.9% | 16.3hPa | 2.6V | 00:00:00 | 01:56:22 | 00:00:00 | |
| DB0DAN | 2026-09-06 00:19:10 | 52.12466 | 11.39157 | 118° | 40km/h | 28242m | 6m/s | -49.2°C | 0.5% | 16.38hPa | 2.6V | 00:00:00 | 00:00:00 | 00:00:00 | |
| DF8AY | 2026-09-06 00:19:09 | 52.12470 | 11.39142 | 111° | 37km/h | 28236m | 5.3m/s | -49.2°C | 0% | 16.4hPa | 2.6V | 03:29:04 | 01:56:19 | 00:00:00 | |
| DL1XH-west | 2026-09-06 00:19:08 | 52.12474 | 11.39121 | 101° | 16km/h | 28225m | 5.9m/s | -49.2°C | 0% | 16.4hPa | 2.7V | 03:29:04 | 01:56:17 | 00:00:00 | |
| DO2JMG | 2026-09-06 00:19:05 | 52.12476 | 11.39114 | 182° | 5km/h | 28212m | 7m/s | -49.2°C | 0% | 16.4hPa | 2.6V | 03:29:04 | 01:56:15 | 00:00:00 | |
| DO2SHX-10 | 2026-09-06 00:19:05 | 52.12476 | 11.39114 | 182° | 9km/h | 28213m | 7.0m/s | -49.2°C | 2.9% | 16.4hPa | 2.6V | 00:00:00 | 01:56:15 | 00:00:00 | |
| DM0DOS-11 | 2026-09-06 00:19:04 | 52.12484 | 11.39117 | 165° | 11km/h | 28197m | 4.8m/s | -49.2°C | 2.9% | 16.4hPa | 2.6V | 03:28:28 | 01:56:12 | 00:00:00 | |
| HSKMA3-T | 2026-09-06 00:19:02 | 52.12484 | 11.39117 | 165° | 11km/h | 28197m | 4.8m/s | -49.2°C | 0% | 16.4hPa | 2.6V | 03:29:04 | 01:56:12 | 00:00:00 | |
| AA1-15 | 2026-09-06 00:19:02 | 52.12487 | 11.39114 | 134° | 16km/h | 28192m | 6.4m/s | -49.2°C | 0% | 16.5hPa | 2.7V | 03:29:04 | 01:56:11 | 00:00:00 | |
| BIOWL1-15 | 2026-09-06 00:18:59 | 52.12513 | 11.39002 | 104° | 29km/h | 28145m | 6.3m/s | -49.3°C | 0% | 16.6hPa | 2.6V | 03:29:04 | 01:56:03 | 00:00:00 | |
| DF8AY | 2026-09-06 00:18:59 | 52.12492 | 11.39096 | 108° | 35km/h | 28179m | 6.6m/s | -49.2°C | 0% | 16.5hPa | 2.6V | 03:29:04 | 01:56:09 | 00:00:00 | |
| DO2SHX-10 | 2026-09-06 00:18:59 | 52.12492 | 11.39095 | 108° | 40km/h | 28179m | 6.6m/s | -49.1°C | 3.0% | 16.5hPa | 2.6V | 00:00:00 | 01:56:09 | 00:00:00 | |
| DL1XH1-15 | 2026-09-06 00:18:58 | 52.12513 | 11.39002 | 104° | 29km/h | 28145m | 6.3m/s | -49.3°C | 3% | 16.6hPa | 2.6V | 03:28:37 | 01:56:03 | 00:00:00 | |
| DL1XH-west | 2026-09-06 00:18:57 | 52.12499 | 11.39063 | 110° | 46km/h | 28166m | 6.3m/s | -49.2°C | 0% | 16.6hPa | 2.6V | 03:29:04 | 01:56:07 | 00:00:00 | |
| DL4BBY-15 | 2026-09-06 00:18:57 | 52.12499 | 11.39063 | 110° | 27km/h | 28165m | 6.3m/s | -49.5°C | 0% | 0hPa | 2.7V | 00:00:00 | 00:00:00 | 00:00:00 | |
| DB0DAN | 2026-09-06 00:18:55 | 52.12507 | 11.39029 | 113° | 40km/h | 28155m | 4.1m/s | -49.2°C | 0.5% | 16.59hPa | 2.7V | 00:00:00 | 00:00:00 | 00:00:00 | |
| DO2JMG | 2026-09-06 00:18:55 | 52.12507 | 11.39029 | 113° | 42km/h | 28155m | 4.1m/s | -49.2°C | 0% | 16.6hPa | 2.7V | 03:29:04 | 01:56:05 | 00:00:00 | |
| HSKMA3-T | 2026-09-06 00:18:51 | 52.12515 | 11.38984 | 92° | 15km/h | 28132m | 5.3m/s | -49.4°C | 0% | 16.6hPa | 2.6V | 03:29:04 | 01:56:01 | 00:00:00 | |
| AA1-15 | 2026-09-06 00:18:51 | 52.12515 | 11.38980 | 105° | 9km/h | 28127m | 4.8m/s | -49.5°C | 0% | 16.7hPa | 2.7V | 03:29:04 | 01:56:00 | 00:00:00 | |
| BIOWL1-15 | 2026-09-06 00:18:48 | 52.12519 | 11.38975 | 161° | 16km/h | 28116m | 6.3m/s | -49.6°C | 0% | 16.7hPa | 2.6V | 03:29:04 | 01:55:58 | 00:00:00 | |
| DL1XH-west | 2026-09-06 00:18:47 | 52.12524 | 11.38972 | 162° | 24km/h | 28110m | 5.8m/s | -49.6°C | 0% | 16.7hPa | 2.6V | 03:29:04 | 01:55:57 | 00:00:00 | |
| DO2JMG | 2026-09-06 00:18:45 | 52.12537 | 11.38961 | 144° | 35km/h | 28099m | 5.5m/s | -49.7°C | 0% | 16.7hPa | 2.7V | 03:29:04 | 01:55:55 | 00:00:00 | |
| HSKMA3-T | 2026-09-06 00:18:41 | 52.12556 | 11.38917 | 110° | 31km/h | 28077m | 4.8m/s | -49.6°C | 0% | 16.8hPa | 2.7V | 03:29:04 | 01:55:51 | 00:00:00 | |
| AA1-15 | 2026-09-06 00:18:40 | 52.12559 | 11.38906 | 110° | 27km/h | 28071m | 5.7m/s | -49.6°C | 0% | 16.8hPa | 2.7V | 03:29:04 | 01:55:50 | 00:00:00 | |
| DB0DAN | 2026-09-06 00:18:40 | 52.12559 | 11.38906 | 109° | 26km/h | 28071m | 5.7m/s | -49.6°C | 0.6% | 16.83hPa | 2.7V | 00:00:00 | 00:00:00 | 00:00:00 | |
| DL1XH-west | 2026-09-06 00:18:36 | 52.12572 | 11.38875 | 139° | 24km/h | 28049m | 5.5m/s | -49.5°C | 0% | 16.9hPa | 2.6V | 03:29:04 | 01:55:46 | 00:00:00 | |
| DO2JMG | 2026-09-06 00:18:34 | 52.12581 | 11.38860 | 128° | 27km/h | 28036m | 6.6m/s | -49.5°C | 0% | 16.9hPa | 2.7V | 03:29:04 | 01:55:44 | 00:00:00 | |
| BIOWL1-15 | 2026-09-06 00:18:31 | 52.12613 | 11.38799 | 123° | 31km/h | 27998m | 6.1m/s | -49.3°C | 0% | 17hPa | 2.6V | 03:29:04 | 01:55:37 | 00:00:00 | |
| HSKMA3-T | 2026-09-06 00:18:30 | 52.12599 | 11.38825 | 136° | 27km/h | 28013m | 6m/s | -49.4°C | 0% | 16.9hPa | 2.6V | 03:29:04 | 01:55:40 | 00:00:00 | |
| DL1XH-west | 2026-09-06 00:18:26 | 52.12617 | 11.38788 | 114° | 33km/h | 27991m | 6.8m/s | -49.4°C | 0% | 17hPa | 2.6V | 03:29:04 | 01:55:36 | 00:00:00 | |
| DL1XH1-15 | 2026-09-06 00:18:26 | 52.12624 | 11.38752 | 111° | 26km/h | 27975m | 5.9m/s | -49.4°C | 3% | 17.1hPa | 2.6V | 03:29:07 | 01:55:33 | 00:00:00 | |
| DB0DAN | 2026-09-06 00:18:25 | 52.12620 | 11.38775 | 109° | 31km/h | 27985m | 5.6m/s | -49.4°C | 0.6% | 17.06hPa | 2.6V | 00:00:00 | 00:00:00 | 00:00:00 | |
| DM0DOS-11 | 2026-09-06 00:18:24 | 52.12627 | 11.38743 | 117° | 22km/h | 27968m | 6.9m/s | -49.4°C | 3% | 17.1hPa | 2.6V | 03:29:08 | 01:55:32 | 00:00:00 | |
| DO2JMG | 2026-09-06 00:18:24 | 52.12622 | 11.38763 | 108° | 31km/h | 27980m | 4.9m/s | -49.4°C | 0% | 17hPa | 2.7V | 03:29:55 | 01:55:34 | 00:00:00 | |
| AA1-15 | 2026-09-06 00:18:20 | 52.12633 | 11.38731 | 139° | 18km/h | 27956m | 5.1m/s | -49.4°C | 0% | 17.1hPa | 2.6V | 03:29:55 | 01:55:30 | 00:00:00 | |
| HSKMA3-T | 2026-09-06 00:18:19 | 52.12636 | 11.38726 | 135° | 18km/h | 27950m | 6.2m/s | -49.4°C | 0% | 17.1hPa | 2.7V | 03:29:55 | 01:55:29 | 00:00:00 | |
| BIOWL1-15 | 2026-09-06 00:18:17 | 52.12642 | 11.38712 | 118° | 24km/h | 27938m | 5.9m/s | -49.5°C | 0% | 17.1hPa | 2.6V | 03:29:55 | 01:55:27 | 00:00:00 | |
| DL1XH-west | 2026-09-06 00:18:16 | 52.12645 | 11.38703 | 116° | 26km/h | 27933m | 4.8m/s | -49.4°C | 0% | 17.2hPa | 2.6V | 03:29:55 | 01:55:26 | 00:00:00 | |
| DL1XH1-15 | 2026-09-06 00:18:15 | 52.12656 | 11.38675 | 121° | 27km/h | 27915m | 5.5m/s | -49.5°C | 3.1% | 17.2hPa | 2.7V | 03:29:17 | 01:55:23 | 00:00:00 | |
| GOEST3-10 | 2026-09-06 00:18:15 | 52.12648 | 11.38694 | 119° | 27km/h | 27928m | 5.4m/s | -49.4°C | 3.0% | 17.1hPa | 2.6V | 03:29:00 | 00:00:00 | 00:00:00 | |
| DM0DOS-11 | 2026-09-06 00:18:14 | 52.12659 | 11.38665 | 114° | 27km/h | 27911m | 4.6m/s | -49.5°C | 3% | 17.2hPa | 2.6V | 03:29:18 | 01:55:22 | 00:00:00 | |
| DO2JMG | 2026-09-06 00:18:14 | 52.12652 | 11.38684 | 122° | 27km/h | 27922m | 6.7m/s | -49.5°C | 0% | 17.2hPa | 2.6V | 03:29:55 | 01:55:24 | 00:00:00 | |
| DD8BA-10 | 2026-09-06 00:18:13 | 52.12655 | 11.38675 | 122° | 26km/h | 27916m | 5.4m/s | -49.4°C | 3.1% | 17.2hPa | 2.7V | 00:00:00 | 00:00:00 | 00:00:00 | |
| DF8AY-15 | 2026-09-06 00:18:12 | 52.12659 | 11.38664 | 115° | 24km/h | 27911m | 4.5m/s | -49.4°C | 3.0% | 17.2hPa | 2.6V | 03:29:00 | 01:55:22 | 00:00:00 | |
| DB0DAN | 2026-09-06 00:18:10 | 52.12662 | 11.38643 | 91° | 27km/h | 27900m | 6.5m/s | -49.5°C | 0.6% | 17.25hPa | 2.6V | 00:00:00 | 00:00:00 | 00:00:00 | |
| DF8AY | 2026-09-06 00:18:09 | 52.12651 | 11.38582 | 96° | 15km/h | 27864m | 5.6m/s | -49.4°C | 0% | 17.3hPa | 2.6V | 03:29:55 | 01:55:14 | 00:00:00 | |
| HSKMA3-T | 2026-09-06 00:18:09 | 52.12661 | 11.38631 | 77° | 31km/h | 27893m | 7.1m/s | -49.5°C | 0% | 17.3hPa | 2.6V | 03:29:55 | 01:55:19 | 00:00:00 | |
| SONCRA | 2026-09-06 00:18:09 | 52.12659 | 11.38618 | 67° | 31km/h | 27887m | 5.9m/s | -49.5°C | 0.5% | 17.3hPa | 2.7V | 00:00:00 | 00:00:00 | 00:00:00 | |
| DO2SHX-10 | 2026-09-06 00:18:08 | 52.12659 | 11.38618 | 68° | 29km/h | 27887m | 5.8m/s | -49.5°C | 3.0% | 17.2hPa | 2.7V | 03:29:00 | 01:55:18 | 00:00:00 | |
| DL1XH-15 | 2026-09-06 00:18:06 | 52.12654 | 11.38570 | 115° | 18km/h | 27853m | 4.9m/s | -49.3°C | 3% | 17.4hPa | 2.7V | 03:29:28 | 01:55:12 | 00:00:00 | |
| DL1XH-west | 2026-09-06 00:18:06 | 52.12651 | 11.38588 | 76° | 18km/h | 27869m | 6.7m/s | -49.4°C | 0% | 17.4hPa | 2.6V | 03:29:55 | 01:55:15 | 00:00:00 | |
| DO2JMG | 2026-09-06 00:18:03 | 52.12652 | 11.38576 | 114° | 16km/h | 27858m | 4.7m/s | -49.4°C | 0% | 17.4hPa | 2.6V | 03:29:55 | 01:55:13 | 00:00:00 | |
| HSKMA3-T | 2026-09-06 00:17:59 | 52.12658 | 11.38542 | 93° | 27km/h | 27836m | 5.5m/s | -49.2°C | 0% | 17.4hPa | 2.6V | 03:29:55 | 01:55:09 | 00:00:00 | |
| AA1-15 | 2026-09-06 00:17:58 | 52.12658 | 11.38531 | 87° | 29km/h | 27830m | 4.6m/s | -49.2°C | 0% | 17.4hPa | 2.6V | 03:29:55 | 01:55:08 | 00:00:00 | |
| OE5DRO-10 | 2026-09-06 00:17:58 | 52.12658 | 11.38531 | 88° | 20km/h | 27831m | 4.5m/s | -49.2°C | 2.9% | 17.4hPa | 2.6V | 00:00:00 | 00:00:00 | 00:00:00 | |
| DL4BBY-15 | 2026-09-06 00:17:57 | 52.12658 | 11.38519 | 90° | 18km/h | 27825m | 5.5m/s | -49.5°C | 0% | 0hPa | 2.6V | 00:00:00 | 00:00:00 | 00:00:00 | |
| DL1XH-15 | 2026-09-06 00:17:56 | 52.12664 | 11.38480 | 116° | 16km/h | 27795m | 5.4m/s | -49.2°C | 3% | 17.5hPa | 2.6V | 03:29:38 | 01:55:02 | 00:00:00 | |
| DL1XH-west | 2026-09-06 00:17:55 | 52.12659 | 11.38500 | 100° | 20km/h | 27813m | 6.6m/s | -49.2°C | 0% | 17.5hPa | 2.6V | 03:29:55 | 01:55:05 | 00:00:00 | |
| DB0DAN | 2026-09-06 00:17:55 | 52.12659 | 11.38500 | 100° | 18km/h | 27813m | 6.6m/s | -49.2°C | 0.6% | 17.48hPa | 2.6V | 00:00:00 | 00:00:00 | 00:00:00 | |
| BIOWL1-15 | 2026-09-06 00:17:54 | 52.12667 | 11.38465 | 106° | 22km/h | 27782m | 6.2m/s | -49.2°C | 0% | 17.6hPa | 2.7V | 03:29:55 | 01:55:00 | 00:00:00 | |
| DO2JMG | 2026-09-06 00:17:53 | 52.12662 | 11.38486 | 118° | 16km/h | 27800m | 5.7m/s | -49.2°C | 0% | 17.5hPa | 2.6V | 03:29:55 | 01:55:03 | 00:00:00 | |
| HSKMA3-T | 2026-09-06 00:17:49 | 52.12669 | 11.38456 | 106° | 24km/h | 27776m | 4.9m/s | -49.2°C | 0% | 17.6hPa | 2.6V | 03:29:55 | 01:54:59 | 00:00:00 | |
| DF8AY | 2026-09-06 00:17:48 | 52.12672 | 11.38440 | 112° | 20km/h | 27765m | 6.5m/s | -49.3°C | 0% | 17.6hPa | 2.6V | 03:29:55 | 01:54:57 | 00:00:00 | |
| AA1-15 | 2026-09-06 00:17:48 | 52.12670 | 11.38448 | 108° | 22km/h | 27771m | 5.2m/s | -49.3°C | 0% | 17.6hPa | 2.6V | 03:29:55 | 01:54:58 | 00:00:00 | |
| DL1XH-west | 2026-09-06 00:17:44 | 52.12678 | 11.38420 | 115° | 18km/h | 27748m | 5.6m/s | -49.2°C | 0% | 17.7hPa | 2.7V | 03:29:55 | 01:54:54 | 00:00:00 | |
| BIOWL1-15 | 2026-09-06 00:17:42 | 52.12684 | 11.38389 | 107° | 16km/h | 27724m | 5.9m/s | -49.2°C | 0% | 17.7hPa | 2.7V | 03:29:55 | 01:54:50 | 00:00:00 | |
| DO2JMG | 2026-09-06 00:17:42 | 52.12682 | 11.38405 | 104° | 20km/h | 27735m | 6.1m/s | -49.2°C | 0% | 17.7hPa | 2.6V | 03:29:55 | 01:54:52 | 00:00:00 | |
| DB0DAN | 2026-09-06 00:17:40 | 52.12684 | 11.38389 | 107° | 16km/h | 27724m | 5.9m/s | -49.2°C | 0.6% | 17.72hPa | 2.7V | 00:00:00 | 00:00:00 | 00:00:00 | |
| HSKMA3-T | 2026-09-06 00:17:38 | 52.12687 | 11.38379 | 123° | 11km/h | 27712m | 5.4m/s | -49.1°C | 0% | 17.8hPa | 2.6V | 03:29:55 | 01:54:48 | 00:00:00 | |
| AA1-15 | 2026-09-06 00:17:37 | 52.12689 | 11.38375 | 120° | 11km/h | 27706m | 5.1m/s | -49.1°C | 0% | 17.7hPa | 2.6V | 03:29:55 | 01:54:47 | 00:00:00 | |
| DL1XH-west | 2026-09-06 00:17:34 | 52.12693 | 11.38357 | 105° | 20km/h | 27687m | 5.6m/s | -49.1°C | 0% | 17.8hPa | 2.7V | 03:30:46 | 01:54:44 | 00:00:00 | |
| DO2JMG | 2026-09-06 00:17:32 | 52.12695 | 11.38342 | 104° | 18km/h | 27676m | 6.5m/s | -49.1°C | 0% | 17.9hPa | 2.6V | 03:30:46 | 01:54:42 | 00:00:00 | |
| BIOWL1-15 | 2026-09-06 00:17:30 | 52.12697 | 11.38330 | 109° | 11km/h | 27663m | 5.2m/s | -49.2°C | 0% | 17.9hPa | 2.6V | 03:40:07 | 01:54:40 | 00:00:00 | |
| HSKMA3-T | 2026-09-06 00:17:27 | 52.12700 | 11.38314 | 107° | 16km/h | 27647m | 6.9m/s | -49.1°C | 0% | 17.9hPa | 2.6V | 03:30:46 | 01:54:37 | 00:00:00 | |
| AA1-15 | 2026-09-06 00:17:26 | 52.12702 | 11.38307 | 109° | 20km/h | 27641m | 5.6m/s | -49.1°C | 0% | 17.9hPa | 2.6V | 03:30:46 | 01:54:36 | 00:00:00 | |
| DM0DOS-11 | 2026-09-06 00:17:26 | 52.12710 | 11.38281 | 139° | 11km/h | 27619m | 6.5m/s | -49.1°C | 2.9% | 18hPa | 2.6V | 03:30:08 | 01:54:32 | 00:00:00 | |
| DO2SHX-10 | 2026-09-06 00:17:26 | 52.12702 | 11.38307 | 110° | 20km/h | 27641m | 5.5m/s | -49.0°C | 2.9% | 17.9hPa | 2.7V | 00:00:00 | 01:54:36 | 00:00:00 | |
| DL1XH1-15 | 2026-09-06 00:17:25 | 52.12708 | 11.38285 | 126° | 16km/h | 27625m | 6.2m/s | -49°C | 2.9% | 18hPa | 2.7V | 03:30:07 | 01:54:33 | 00:00:00 | |
| DB0DAN | 2026-09-06 00:17:25 | 52.12704 | 11.38299 | 114° | 20km/h | 27636m | 4.8m/s | -49.1°C | 0.6% | 17.96hPa | 2.6V | 00:00:00 | 00:00:00 | 00:00:00 | |
| DL1XH-west | 2026-09-06 00:17:24 | 52.12706 | 11.38291 | 117° | 18km/h | 27631m | 4.7m/s | -49.1°C | 0% | 18hPa | 2.7V | 03:30:46 | 01:54:34 | 00:00:00 | |
| DO2JMG | 2026-09-06 00:17:21 | 52.12712 | 11.38279 | 154° | 7km/h | 27612m | 6m/s | -49.1°C | 0% | 18hPa | 2.6V | 03:30:46 | 01:54:31 | 00:00:00 | |
| BIOWL1-15 | 2026-09-06 00:17:19 | 52.12717 | 11.38267 | 99° | 15km/h | 27588m | 6m/s | -49.1°C | 0% | 18.1hPa | 2.6V | 03:40:07 | 01:54:27 | 00:00:00 | |
| DB0UT-7 | 2026-09-06 00:17:19 | 52.12715 | 11.38276 | 137° | 11km/h | 27601m | 5.8m/s | -49.1°C | 3.0% | 18.0hPa | 2.7V | 00:00:00 | 00:00:00 | 00:00:00 | |
| DL1XH1-15 | 2026-09-06 00:17:17 | 52.12718 | 11.38243 | 102° | 11km/h | 27565m | 5.2m/s | -49.1°C | 3% | 18.1hPa | 2.7V | 03:30:17 | 01:54:23 | 00:00:00 | |
| DO2SHX-10 | 2026-09-06 00:17:17 | 52.12717 | 11.38267 | 99° | 16km/h | 27589m | 6.0m/s | -49.1°C | 2.9% | 18.1hPa | 2.7V | 00:00:00 | 01:54:27 | 00:00:00 | |
| DM0DOS-11 | 2026-09-06 00:17:16 | 52.12719 | 11.38238 | 114° | 13km/h | 27559m | 5.5m/s | -49.1°C | 2.8% | 18.2hPa | 2.7V | 03:30:18 | 01:54:22 | 00:00:00 | |
| DF8AY | 2026-09-06 00:17:16 | 52.12718 | 11.38261 | 95° | 16km/h | 27583m | 5.5m/s | -49.1°C | 0% | 18.1hPa | 2.6V | 03:30:46 | 01:54:26 | 00:00:00 | |
| AA1-15 | 2026-09-06 00:17:15 | 52.12718 | 11.38254 | 91° | 15km/h | 27577m | 6.4m/s | -49.1°C | 0% | 18.1hPa | 2.6V | 03:30:46 | 01:54:25 | 00:00:00 | |
| DL1XH-west | 2026-09-06 00:17:13 | 52.12718 | 11.38243 | 103° | 11km/h | 27565m | 5.2m/s | -49.1°C | 0% | 18.1hPa | 2.7V | 03:30:46 | 01:54:23 | 00:00:00 | |
| DO2JMG | 2026-09-06 00:17:11 | 52.12721 | 11.38234 | 126° | 15km/h | 27553m | 6.9m/s | -49.1°C | 0% | 18.2hPa | 2.7V | 03:30:46 | 01:54:21 | 00:00:00 | |
| DB0DAN | 2026-09-06 00:17:10 | 52.12724 | 11.38229 | 132° | 16km/h | 27546m | 6.3m/s | -49.2°C | 0.6% | 18.2hPa | 2.6V | 00:00:00 | 00:00:00 | 00:00:00 | |
| DO3MHA-11 | 2026-09-06 00:17:10 | 52.12723 | 11.38229 | 133° | 11km/h | 27547m | 6.2m/s | -49.1°C | 3.0% | 18.2hPa | 2.6V | 03:30:00 | 01:54:20 | 00:00:00 | |
| DO2SHX-10 | 2026-09-06 00:17:08 | 52.12730 | 11.38221 | 156° | 11km/h | 27536m | 5.0m/s | -49.2°C | 2.9% | 18.2hPa | 2.7V | 03:30:00 | 01:54:18 | 00:00:00 | |
| SONCRA | 2026-09-06 00:17:07 | 52.12735 | 11.38220 | 202° | 7km/h | 27523m | 6.0m/s | -49.3°C | 0.6% | 18.3hPa | 2.7V | 00:00:00 | 00:00:00 | 00:00:00 | |
| DM0DOS-11 | 2026-09-06 00:17:06 | 52.12743 | 11.38222 | 154° | 13km/h | 27501m | 6m/s | -49.3°C | 3.1% | 18.3hPa | 2.7V | 03:30:28 | 01:54:12 | 00:00:00 | |
| HSKMA3-T | 2026-09-06 00:17:05 | 52.12737 | 11.38222 | 213° | 7km/h | 27517m | 5m/s | -49.3°C | 0% | 18.3hPa | 2.6V | 03:30:46 | 01:54:15 | 00:00:00 | |
| DL1XH1-15 | 2026-09-06 00:17:05 | 52.12741 | 11.38224 | 174° | 7km/h | 27507m | 6.1m/s | -49.3°C | 3% | 18.3hPa | 2.6V | 03:30:27 | 01:54:13 | 00:00:00 | |
| AA1-15 | 2026-09-06 00:17:04 | 52.12739 | 11.38223 | 202° | 7km/h | 27512m | 5.2m/s | -49.3°C | 0% | 18.3hPa | 2.6V | 03:30:46 | 01:54:14 | 00:00:00 | |
| DL1XH-west | 2026-09-06 00:17:03 | 52.12743 | 11.38222 | 154° | 13km/h | 27501m | 6m/s | -49.3°C | 0% | 18.3hPa | 2.7V | 03:30:46 | 01:54:12 | 00:00:00 | |
| DO2JMG | 2026-09-06 00:17:00 | 52.12749 | 11.38216 | 146° | 15km/h | 27490m | 4.6m/s | -49.3°C | 0% | 18.4hPa | 2.6V | 03:30:46 | 01:54:10 | 00:00:00 | |
| DO3MHA-11 | 2026-09-06 00:17:00 | 52.12749 | 11.38216 | 146° | 7km/h | 27491m | 4.6m/s | -49.3°C | 3.0% | 18.3hPa | 2.6V | 00:00:00 | 01:54:10 | 00:00:00 | |
| DO2SHX-10 | 2026-09-06 00:16:59 | 52.12752 | 11.38213 | 149° | 9km/h | 27485m | 5.6m/s | -49.3°C | 3.0% | 18.3hPa | 2.6V | 00:00:00 | 01:54:09 | 00:00:00 | |
| DL1XH1-15 | 2026-09-06 00:16:57 | 52.12759 | 11.38204 | 164° | 4km/h | 27451m | 4.2m/s | -49.2°C | 3% | 18.5hPa | 2.6V | 03:30:37 | 01:54:03 | 00:00:00 | |
| DL4BBY-15 | 2026-09-06 00:16:57 | 52.12756 | 11.38209 | 155° | 13km/h | 27473m | 5.6m/s | -49.6°C | 0% | 0hPa | 2.6V | 00:00:00 | 00:00:00 | 00:00:00 | |
| DM0DOS-11 | 2026-09-06 00:16:56 | 52.12761 | 11.38205 | 212° | 5km/h | 27446m | 5.4m/s | -49.2°C | 2.9% | 18.5hPa | 2.6V | 03:30:38 | 01:54:02 | 00:00:00 | |
| HSKMA3-T | 2026-09-06 00:16:55 | 52.12758 | 11.38207 | 126° | 4km/h | 27462m | 6.7m/s | -49.3°C | 0% | 18.4hPa | 2.6V | 03:30:46 | 01:54:05 | 00:00:00 | |
| DB0DAN | 2026-09-06 00:16:55 | 52.12758 | 11.38207 | 126° | 4km/h | 27462m | 6.7m/s | -49.3°C | 0.6% | 18.43hPa | 2.6V | 00:00:00 | 00:00:00 | 00:00:00 | |
| DF8AY | 2026-09-06 00:16:54 | 52.12759 | 11.38205 | 125° | 5km/h | 27455m | 5.8m/s | -49.2°C | 0% | 18.4hPa | 2.6V | 03:30:46 | 01:54:04 | 00:00:00 | |
| AA1-15 | 2026-09-06 00:16:53 | 52.12760 | 11.38204 | 165° | 4km/h | 27451m | 4.3m/s | -49.2°C | 0% | 18.5hPa | 2.6V | 03:30:46 | 01:54:03 | 00:00:00 | |
| DL1XH-west | 2026-09-06 00:16:52 | 52.12761 | 11.38205 | 213° | 5km/h | 27446m | 5.4m/s | -49.2°C | 0% | 18.5hPa | 2.6V | 03:30:46 | 01:54:02 | 00:00:00 | |
| DO2JMG | 2026-09-06 00:16:50 | 52.12765 | 11.38211 | 232° | 15km/h | 27433m | 6m/s | -49.2°C | 0% | 18.5hPa | 2.7V | 03:30:46 | 01:54:00 | 00:00:00 | |
| DL1ZP-14 | 2026-09-06 00:16:49 | 52.12770 | 11.38219 | 207° | 15km/h | 27423m | 5.5m/s | -49.2°C | 0.6% | 18.6hPa | 2.6V | 00:00:00 | 00:00:00 | 00:00:00 | |
| HTAHTA | 2026-09-06 00:16:48 | 52.12774 | 11.38221 | 187° | 15km/h | 27416m | 6.6m/s | -49.2°C | 0.6% | 18.6hPa | 2.6V | 00:00:00 | 00:00:00 | 00:00:00 | |
| DM0DOS-11 | 2026-09-06 00:16:47 | 52.12789 | 11.38217 | 190° | 5km/h | 27387m | 5.6m/s | -49.2°C | 3% | 18.7hPa | 2.6V | 03:30:48 | 01:53:52 | 00:00:00 | |
| HSKMA3-T | 2026-09-06 00:16:45 | 52.12781 | 11.38220 | 162° | 15km/h | 27405m | 5m/s | -49.2°C | 0% | 18.6hPa | 2.6V | 03:30:46 | 01:53:55 | 00:00:00 | |
| DL1XH1-15 | 2026-09-06 00:16:45 | 52.12787 | 11.38217 | 174° | 9km/h | 27393m | 6.4m/s | -49.2°C | 3% | 18.6hPa | 2.6V | 03:30:47 | 01:53:53 | 00:00:00 | |
| DF8AY | 2026-09-06 00:16:44 | 52.12785 | 11.38218 | 164° | 13km/h | 27399m | 6.6m/s | -49.2°C | 0% | 18.6hPa | 2.6V | 03:30:46 | 01:53:54 | 00:00:00 | |
| EDDB2-11 | 2026-09-06 00:16:44 | 52.12785 | 11.38218 | 164° | 11km/h | 27399m | 6.6m/s | -49.2°C | 0.6% | 18.6hPa | 2.6V | 00:00:00 | 00:00:00 | 00:00:00 | |
| AA1-15 | 2026-09-06 00:16:42 | 52.12789 | 11.38217 | 190° | 5km/h | 27387m | 5.6m/s | -49.2°C | 0% | 18.7hPa | 2.6V | 03:31:37 | 01:53:52 | 00:00:00 | |
| DL1XH-west | 2026-09-06 00:16:42 | 52.12790 | 11.38218 | 204° | 5km/h | 27381m | 5.2m/s | -49.2°C | 0% | 18.7hPa | 2.6V | 03:31:37 | 01:53:51 | 00:00:00 | |
| DB0DAN | 2026-09-06 00:16:40 | 52.12791 | 11.38219 | 200° | 4km/h | 27375m | 6.3m/s | -49.2°C | 0.6% | 18.71hPa | 2.7V | 00:00:00 | 00:00:00 | 00:00:00 | |
| DO3MHA-11 | 2026-09-06 00:16:40 | 52.12791 | 11.38219 | 201° | 18km/h | 27376m | 6.2m/s | -49.1°C | 3.0% | 18.7hPa | 2.7V | 00:00:00 | 01:53:50 | 00:00:00 | |
| DO2JMG | 2026-09-06 00:16:40 | 52.12791 | 11.38219 | 200° | 4km/h | 27376m | 6.3m/s | -49.2°C | 0% | 18.7hPa | 2.7V | 03:31:37 | 01:53:50 | 00:00:00 | |
| DC4HF-4 | 2026-09-06 00:16:39 | 52.12794 | 11.38220 | 214° | 5km/h | 27364m | 4.9m/s | -49.3°C | 0.6% | 18.7hPa | 2.6V | 00:00:00 | 00:00:00 | 00:00:00 | |
| DO2SHX-10 | 2026-09-06 00:16:38 | 52.12794 | 11.38220 | 215° | 11km/h | 27364m | 4.8m/s | -49.2°C | 3.0% | 18.7hPa | 2.6V | 00:00:00 | 01:53:48 | 00:00:00 | |
| DL1XH1-15 | 2026-09-06 00:16:37 | 52.12807 | 11.38252 | 232° | 26km/h | 27337m | 4.3m/s | -49.4°C | 3% | 18.8hPa | 2.7V | 03:30:57 | 01:53:43 | 00:00:00 | |
| DM0DOS-11 | 2026-09-06 00:16:36 | 52.12811 | 11.38260 | 223° | 22km/h | 27332m | 5.7m/s | -49.4°C | 3% | 18.8hPa | 2.6V | 03:30:58 | 01:53:42 | 00:00:00 | |
| HSKMA3-T | 2026-09-06 00:16:35 | 52.12800 | 11.38235 | 240° | 24km/h | 27346m | 6.4m/s | -49.4°C | 0% | 18.8hPa | 2.6V | 03:31:37 | 01:53:45 | 00:00:00 | |
| DF8AY | 2026-09-06 00:16:33 | 52.12807 | 11.38252 | 233° | 26km/h | 27337m | 4.3m/s | -49.4°C | 0% | 18.8hPa | 2.7V | 03:31:37 | 01:53:43 | 00:00:00 | |
| AA1-15 | 2026-09-06 00:16:32 | 52.12811 | 11.38259 | 224° | 22km/h | 27332m | 5.7m/s | -49.4°C | 0% | 18.8hPa | 2.6V | 03:31:37 | 01:53:42 | 00:00:00 | |
| DL1XH-west | 2026-09-06 00:16:30 | 52.12819 | 11.38266 | 180° | 15km/h | 27320m | 5.5m/s | -49.4°C | 0% | 18.9hPa | 2.6V | 03:31:37 | 01:53:40 | 00:00:00 | |
| DO2JMG | 2026-09-06 00:16:29 | 52.12823 | 11.38265 | 164° | 15km/h | 27314m | 4.9m/s | -49.4°C | 0% | 18.8hPa | 2.7V | 03:31:37 | 01:53:39 | 00:00:00 | |
| DO2SHX-10 | 2026-09-06 00:16:29 | 52.12823 | 11.38265 | 165° | 13km/h | 27315m | 4.8m/s | -49.4°C | 3.1% | 18.8hPa | 2.7V | 00:00:00 | 01:53:39 | 00:00:00 | |
| BUE01 | 2026-09-06 00:16:28 | 52.12826 | 11.38263 | 162° | 13km/h | 27309m | 5.2m/s | -49.5°C | 0.6% | 18.9hPa | 2.7V | 00:00:00 | 00:00:00 | 00:00:00 | |
| DL4BBY-15 | 2026-09-06 00:16:27 | 52.12829 | 11.38262 | 175° | 13km/h | 27305m | 6.0m/s | -49.8°C | 0% | 0hPa | 2.7V | 00:00:00 | 00:00:00 | 00:00:00 | |
| DM0DOS-11 | 2026-09-06 00:16:26 | 52.12838 | 11.38279 | 258° | 11km/h | 27274m | 6.5m/s | -49.7°C | 3.1% | 19hPa | 2.7V | 03:31:08 | 01:53:32 | 00:00:00 | |
| HSKMA3-T | 2026-09-06 00:16:25 | 52.12834 | 11.38266 | 225° | 13km/h | 27292m | 5.7m/s | -49.6°C | 0% | 18.9hPa | 2.6V | 03:31:37 | 01:53:35 | 00:00:00 | |
| DB0DAN | 2026-09-06 00:16:25 | 52.12834 | 11.38266 | 225° | 11km/h | 27292m | 5.7m/s | -49.6°C | 0.6% | 18.93hPa | 2.6V | 00:00:00 | 00:00:00 | 00:00:00 | |
| BIOWL1-15 | 2026-09-06 00:16:24 | 52.12836 | 11.38270 | 240° | 13km/h | 27287m | 5.2m/s | -49.6°C | 0% | 18.9hPa | 2.6V | 03:40:07 | 01:53:34 | 00:00:00 | |
| DF8AY | 2026-09-06 00:16:23 | 52.12837 | 11.38275 | 254° | 13km/h | 27281m | 6.1m/s | -49.7°C | 0% | 19hPa | 2.7V | 03:31:37 | 01:53:33 | 00:00:00 | |
| AA1-15 | 2026-09-06 00:16:21 | 52.12839 | 11.38283 | 254° | 9km/h | 27268m | 5.4m/s | -49.7°C | 0% | 19hPa | 2.6V | 03:31:37 | 01:53:31 | 00:00:00 | |
| DL1XH-west | 2026-09-06 00:16:19 | 52.12841 | 11.38291 | 228° | 13km/h | 27258m | 6m/s | -49.8°C | 0% | 19hPa | 2.6V | 03:31:37 | 01:53:29 | 00:00:00 | |
| DB0UT-7 | 2026-09-06 00:16:19 | 52.12841 | 11.38290 | 228° | 13km/h | 27258m | 6.0m/s | -49.7°C | 3.0% | 19.0hPa | 2.6V | 00:00:00 | 00:00:00 | 00:00:00 | |
| DL1ZP-14 | 2026-09-06 00:16:18 | 52.12848 | 11.38298 | 205° | 16km/h | 27246m | 4.8m/s | -49.8°C | 0.6% | 19.1hPa | 2.6V | 00:00:00 | 00:00:00 | 00:00:00 | |
| DO2JMG | 2026-09-06 00:16:18 | 52.12844 | 11.38295 | 218° | 16km/h | 27252m | 6.2m/s | -49.8°C | 0% | 19.1hPa | 2.7V | 03:31:37 | 01:53:28 | 00:00:00 | |
| DL1XH1-15 | 2026-09-06 00:16:17 | 52.12861 | 11.38294 | 127° | 16km/h | 27224m | 5.3m/s | -49.7°C | 3.1% | 19.1hPa | 2.6V | 03:31:17 | 01:53:23 | 00:00:00 | |
| HSKMA3-T | 2026-09-06 00:16:14 | 52.12858 | 11.38298 | 145° | 15km/h | 27230m | 6.6m/s | -49.7°C | 0% | 19.1hPa | 2.6V | 03:31:37 | 01:53:24 | 00:00:00 | |
| DF8AY | 2026-09-06 00:16:12 | 52.12892 | 11.38275 | 181° | 15km/h | 27162m | 6.4m/s | -49.6°C | 0% | 19.3hPa | 2.6V | 03:31:37 | 01:53:12 | 00:00:00 | |
| AA1-15 | 2026-09-06 00:16:10 | 52.12869 | 11.38280 | 151° | 15km/h | 27207m | 6m/s | -49.6°C | 0% | 19.2hPa | 2.6V | 03:31:37 | 01:53:20 | 00:00:00 | |
| DB0DAN | 2026-09-06 00:16:10 | 52.12869 | 11.38280 | 151° | 13km/h | 27207m | 6m/s | -49.6°C | 0.6% | 19.19hPa | 2.6V | 00:00:00 | 00:00:00 | 00:00:00 | |
| DL1XH-west | 2026-09-06 00:16:09 | 52.12872 | 11.38278 | 170° | 15km/h | 27201m | 5.6m/s | -49.6°C | 0% | 19.1hPa | 2.6V | 03:31:37 | 01:53:19 | 00:00:00 | |
| DO2SHX-10 | 2026-09-06 00:16:08 | 52.12875 | 11.38277 | 180° | 11km/h | 27196m | 5.3m/s | -49.6°C | 3.1% | 19.1hPa | 2.6V | 03:31:00 | 01:53:18 | 00:00:00 | |
| DL1XH1-15 | 2026-09-06 00:16:07 | 52.12888 | 11.38276 | 176° | 11km/h | 27168m | 5.9m/s | -49.6°C | 3.1% | 19.2hPa | 2.6V | 03:31:27 | 01:53:13 | 00:00:00 | |
| DO2JMG | 2026-09-06 00:16:07 | 52.12879 | 11.38278 | 181° | 11km/h | 27190m | 6.1m/s | -49.7°C | 0% | 19.2hPa | 2.7V | 03:31:37 | 01:53:17 | 00:00:00 | |
| HSKMA3-T | 2026-09-06 00:16:03 | 52.12888 | 11.38276 | 176° | 11km/h | 27168m | 5.9m/s | -49.6°C | 0% | 19.2hPa | 2.6V | 03:31:37 | 01:53:13 | 00:00:00 | |
| BIOWL1-15 | 2026-09-06 00:16:00 | 52.12900 | 11.38275 | 171° | 18km/h | 27151m | 5m/s | -49.5°C | 0% | 19.3hPa | 2.7V | 03:40:07 | 01:53:10 | 00:00:00 | |
| DL1XH-west | 2026-09-06 00:15:58 | 52.12908 | 11.38270 | 148° | 16km/h | 27139m | 6.1m/s | -49.5°C | 0% | 19.4hPa | 2.6V | 03:31:37 | 01:53:08 | 00:00:00 | |
| DO3MHA-11 | 2026-09-06 00:15:58 | 52.12908 | 11.38270 | 148° | 9km/h | 27140m | 6.1m/s | -49.4°C | 3.1% | 19.3hPa | 2.6V | 00:00:00 | 01:53:08 | 00:00:00 | |
| DL1XH1-15 | 2026-09-06 00:15:57 | 52.12921 | 11.38265 | 210° | 7km/h | 27111m | 4.4m/s | -49.3°C | 3% | 19.4hPa | 2.6V | 03:31:37 | 01:53:03 | 00:00:00 | |
| DO2JMG | 2026-09-06 00:15:56 | 52.12914 | 11.38264 | 151° | 11km/h | 27128m | 5.8m/s | -49.4°C | 0% | 19.4hPa | 2.7V | 03:31:37 | 01:53:06 | 00:00:00 | |
| DB0DAN | 2026-09-06 00:15:55 | 52.12916 | 11.38263 | 176° | 9km/h | 27122m | 6.4m/s | -49.4°C | 0.6% | 19.43hPa | 2.7V | 00:00:00 | 00:00:00 | 00:00:00 | |
| HSKMA3-T | 2026-09-06 00:15:52 | 52.12922 | 11.38266 | 204° | 5km/h | 27107m | 5m/s | -49.3°C | 0% | 19.5hPa | 2.6V | 03:32:28 | 01:53:02 | 00:00:00 | |
| AA1-15 | 2026-09-06 00:15:50 | 52.12925 | 11.38265 | 130° | 7km/h | 27095m | 5.8m/s | -49.3°C | 0% | 19.5hPa | 2.7V | 03:32:28 | 01:53:00 | 00:00:00 | |
| DF8AY | 2026-09-06 00:15:49 | 52.12926 | 11.38262 | 128° | 13km/h | 27089m | 5m/s | -49.4°C | 0% | 19.5hPa | 2.7V | 03:32:28 | 01:52:59 | 00:00:00 | |
| DL1XH-west | 2026-09-06 00:15:48 | 52.12929 | 11.38258 | 140° | 15km/h | 27084m | 5.6m/s | -49.4°C | 0% | 19.5hPa | 2.6V | 03:32:28 | 01:52:58 | 00:00:00 | |
| DL1XH1-15 | 2026-09-06 00:15:47 | 52.12947 | 11.38240 | 125° | 13km/h | 27056m | 6.3m/s | -49.3°C | 3% | 19.6hPa | 2.6V | 03:31:47 | 01:52:53 | 00:00:00 | |
| DO2JMG | 2026-09-06 00:15:46 | 52.12936 | 11.38251 | 156° | 18km/h | 27073m | 4.7m/s | -49.4°C | 0% | 19.6hPa | 2.6V | 03:32:28 | 01:52:56 | 00:00:00 | |
| HSKMA3-T | 2026-09-06 00:15:42 | 52.12948 | 11.38236 | 111° | 11km/h | 27051m | 5.5m/s | -49.3°C | 0% | 19.7hPa | 2.6V | 03:32:28 | 01:52:52 | 00:00:00 | |
| AA1-15 | 2026-09-06 00:15:40 | 52.12949 | 11.38230 | 95° | 4km/h | 27039m | 6.7m/s | -49.3°C | 0% | 19.7hPa | 2.6V | 03:32:28 | 01:52:50 | 00:00:00 | |
| DB0DAN | 2026-09-06 00:15:40 | 52.12949 | 11.38230 | 95° | 4km/h | 27039m | 6.7m/s | -49.3°C | 0.6% | 19.68hPa | 2.6V | 00:00:00 | 00:00:00 | 00:00:00 | |
| DF8AY | 2026-09-06 00:15:39 | 52.12949 | 11.38228 | 94° | 4km/h | 27028m | 4.8m/s | -49.3°C | 0% | 19.7hPa | 2.7V | 03:32:28 | 01:52:48 | 00:00:00 | |
| DL1XH-west | 2026-09-06 00:15:37 | 52.12949 | 11.38223 | 103° | 11km/h | 27016m | 5.8m/s | -49.3°C | 0% | 19.8hPa | 2.6V | 03:32:28 | 01:52:46 | 00:00:00 | |
| DO2SHX-10 | 2026-09-06 00:15:37 | 52.12949 | 11.38226 | 91° | 9km/h | 27022m | 6.1m/s | -49.3°C | 3.0% | 19.7hPa | 2.6V | 00:00:00 | 01:52:47 | 00:00:00 | |
| DM0DOS-11 | 2026-09-06 00:15:36 | 52.12959 | 11.38202 | 148° | 20km/h | 26994m | 5.9m/s | -49.2°C | 3% | 19.8hPa | 2.6V | 03:31:58 | 01:52:42 | 00:00:00 | |
| DO2JMG | 2026-09-06 00:15:35 | 52.12950 | 11.38218 | 114° | 15km/h | 27011m | 4.8m/s | -49.3°C | 0% | 19.8hPa | 2.6V | 03:32:28 | 01:52:45 | 00:00:00 | |
| HSKMA3-T | 2026-09-06 00:15:31 | 52.12964 | 11.38198 | 149° | 20km/h | 26989m | 4.4m/s | -49.2°C | 0% | 19.8hPa | 2.6V | 03:32:28 | 01:52:41 | 00:00:00 | |
| AA1-15 | 2026-09-06 00:15:29 | 52.12970 | 11.38189 | 123° | 16km/h | 26978m | 6.4m/s | -49.3°C | 0% | 19.9hPa | 2.6V | 03:32:28 | 01:52:39 | 00:00:00 | |
| DF8AY | 2026-09-06 00:15:27 | 52.12974 | 11.38171 | 104° | 15km/h | 26962m | 6.3m/s | -49.4°C | 0% | 19.9hPa | 2.6V | 03:32:28 | 01:52:36 | 00:00:00 | |
| DL1XH1-15 | 2026-09-06 00:15:27 | 52.12978 | 11.38153 | 117° | 18km/h | 26945m | 5.6m/s | -49.4°C | 2.9% | 19.9hPa | 2.7V | 03:32:07 | 01:52:33 | 00:00:00 | |
| DL1XH-west | 2026-09-06 00:15:25 | 52.12975 | 11.38165 | 111° | 15km/h | 26956m | 5.9m/s | -49.4°C | 0% | 19.9hPa | 2.6V | 03:32:28 | 01:52:35 | 00:00:00 | |
| DL1XH-15 | 2026-09-06 00:15:25 | 52.12980 | 11.38146 | 113° | 22km/h | 26939m | 6.5m/s | -49.4°C | 2.9% | 20hPa | 2.7V | 03:32:08 | 01:52:32 | 00:00:00 | |
| DB0DAN | 2026-09-06 00:15:25 | 52.12975 | 11.38165 | 111° | 13km/h | 26956m | 5.9m/s | -49.4°C | 0.6% | 19.94hPa | 2.6V | 00:00:00 | 00:00:00 | 00:00:00 | |
| DO2JMG | 2026-09-06 00:15:24 | 52.12976 | 11.38159 | 115° | 16km/h | 26950m | 5.1m/s | -49.4°C | 0% | 19.9hPa | 2.6V | 03:32:28 | 01:52:34 | 00:00:00 | |
| HSKMA3-T | 2026-09-06 00:15:21 | 52.12983 | 11.38137 | 119° | 24km/h | 26933m | 5.1m/s | -49.4°C | 0% | 20hPa | 2.7V | 03:32:28 | 01:52:31 | 00:00:00 | |
| AA1-15 | 2026-09-06 00:15:18 | 52.13001 | 11.38111 | 159° | 24km/h | 26911m | 4.9m/s | -49.5°C | 0% | 20.1hPa | 2.7V | 03:32:28 | 01:52:27 | 00:00:00 | |
| AU51GT2 | 2026-09-06 00:15:18 | 52.13011 | 11.38105 | 154° | 18km/h | 26902m | 5.7m/s | -49.5°C | 0.6% | 20.1hPa | 2.6V | 00:00:00 | 00:00:00 | 00:00:00 | |
| DL1ZP-14 | 2026-09-06 00:15:17 | 52.13011 | 11.38105 | 154° | 18km/h | 26902m | 5.7m/s | -49.5°C | 0.6% | 20.1hPa | 2.6V | 00:00:00 | 00:00:00 | 00:00:00 | |
| DL1XH-15 | 2026-09-06 00:15:16 | 52.13018 | 11.38092 | 103° | 13km/h | 26885m | 4.5m/s | -49.6°C | 3.1% | 20.1hPa | 2.7V | 03:32:18 | 01:52:22 | 00:00:00 | |
| DL1XH-west | 2026-09-06 00:15:15 | 52.13011 | 11.38105 | 154° | 18km/h | 26902m | 5.7m/s | -49.5°C | 0% | 20.1hPa | 2.6V | 03:32:28 | 01:52:25 | 00:00:00 | |
| DO2JMG | 2026-09-06 00:15:13 | 52.13017 | 11.38097 | 115° | 13km/h | 26890m | 5m/s | -49.6°C | 0% | 20.1hPa | 2.6V | 03:32:28 | 01:52:23 | 00:00:00 | |
| BIOWL1-15 | 2026-09-06 00:15:13 | 52.13019 | 11.38087 | 104° | 13km/h | 26881m | 5.2m/s | -49.6°C | 0% | 20.2hPa | 2.7V | 03:40:07 | 01:52:21 | 00:00:00 | |
| HSKMA3-T | 2026-09-06 00:15:10 | 52.13020 | 11.38082 | 120° | 11km/h | 26875m | 6.1m/s | -49.6°C | 0% | 20.2hPa | 2.7V | 03:32:28 | 01:52:20 | 00:00:00 | |
| DB0DAN | 2026-09-06 00:15:10 | 52.13020 | 11.38082 | 120° | 11km/h | 26875m | 6.1m/s | -49.6°C | 0.6% | 20.18hPa | 2.7V | 00:00:00 | 00:00:00 | 00:00:00 | |
| AA1-15 | 2026-09-06 00:15:08 | 52.13025 | 11.38076 | 159° | 16km/h | 26864m | 5m/s | -49.6°C | 0% | 20.2hPa | 2.6V | 03:32:28 | 01:52:18 | 00:00:00 | |
| DO3MHA-11 | 2026-09-06 00:15:07 | 52.13029 | 11.38074 | 162° | 13km/h | 26859m | 5.0m/s | -49.6°C | 2.9% | 20.2hPa | 2.6V | 03:32:00 | 01:52:17 | 00:00:00 | |
| DM0DOS-11 | 2026-09-06 00:15:06 | 52.13044 | 11.38057 | 138° | 11km/h | 26831m | 5.6m/s | -49.9°C | 2.9% | 20.3hPa | 2.6V | 03:32:28 | 01:52:12 | 00:00:00 | |
| DL1XH-west | 2026-09-06 00:15:04 | 52.13039 | 11.38065 | 133° | 15km/h | 26842m | 5.6m/s | -49.8°C | 0% | 20.3hPa | 2.6V | 03:32:28 | 01:52:14 | 00:00:00 | |
| DL1XH1-15 | 2026-09-06 00:15:04 | 52.13042 | 11.38060 | 128° | 13km/h | 26836m | 4.8m/s | -49.9°C | 3% | 20.3hPa | 2.6V | 03:32:27 | 01:52:13 | 00:00:00 | |
| DO2JMG | 2026-09-06 00:15:03 | 52.13042 | 11.38060 | 128° | 13km/h | 26836m | 4.8m/s | -49.9°C | 0% | 20.3hPa | 2.6V | 03:32:28 | 01:52:13 | 00:00:00 | |
| HSKMA3-T | 2026-09-06 00:14:59 | 52.13051 | 11.38053 | 180° | 9km/h | 26814m | 4.4m/s | -50°C | 0% | 20.3hPa | 2.7V | 03:33:19 | 01:52:09 | 00:00:00 | |
| AA1-15 | 2026-09-06 00:14:57 | 52.13054 | 11.38053 | 152° | 2km/h | 26803m | 6.5m/s | -50°C | 0% | 20.4hPa | 2.6V | 03:33:19 | 01:52:07 | 00:00:00 | |
| DO3MHA-11 | 2026-09-06 00:14:57 | 52.13054 | 11.38053 | 153° | 7km/h | 26804m | 6.5m/s | -50.0°C | 3.0% | 20.4hPa | 2.6V | 00:00:00 | 01:52:07 | 00:00:00 | |
| DL1XH1-15 | 2026-09-06 00:14:56 | 52.13055 | 11.38051 | 173° | 4km/h | 26780m | 5.2m/s | -50°C | 3.1% | 20.4hPa | 2.6V | 03:32:37 | 01:52:03 | 00:00:00 | |
| S3001 | 2026-09-06 00:14:56 | 52.13054 | 11.38052 | 76° | 0km/h | 26792m | 5.1m/s | -50.1°C | 0.7% | 20.4hPa | 2.7V | 00:00:00 | 00:00:00 | 00:00:00 | |
| DB0DAN | 2026-09-06 00:14:55 | 52.13054 | 11.38052 | 77° | 2km/h | 26792m | 5.1m/s | -50.1°C | 0.7% | 20.45hPa | 2.7V | 00:00:00 | 00:00:00 | 00:00:00 | |
| DL1XH-west | 2026-09-06 00:14:54 | 52.13054 | 11.38051 | 168° | 2km/h | 26786m | 6.5m/s | -50.1°C | 0% | 20.4hPa | 2.7V | 03:33:19 | 01:52:04 | 00:00:00 | |
| DF8AY | 2026-09-06 00:14:53 | 52.13059 | 11.38036 | 95° | 13km/h | 26753m | 4.5m/s | -50.1°C | 0% | 20.6hPa | 2.7V | 03:33:19 | 01:51:58 | 00:00:00 | |
| DO2JMG | 2026-09-06 00:14:52 | 52.13056 | 11.38051 | 151° | 5km/h | 26775m | 4.1m/s | -50.1°C | 0% | 20.5hPa | 2.6V | 03:33:19 | 01:52:02 | 00:00:00 | |
| HSKMA3-T | 2026-09-06 00:14:49 | 52.13058 | 11.38041 | 97° | 13km/h | 26758m | 5.5m/s | -50.1°C | 0% | 20.5hPa | 2.7V | 03:33:19 | 01:51:59 | 00:00:00 | |
| AA1-15 | 2026-09-06 00:14:45 | 52.13061 | 11.38025 | 127° | 7km/h | 26736m | 4.5m/s | -50.1°C | 0% | 20.6hPa | 2.6V | 03:33:19 | 01:51:55 | 00:00:00 | |
| DL1XH1-15 | 2026-09-06 00:14:45 | 52.13062 | 11.38020 | 92° | 7km/h | 26726m | 6.4m/s | -50.2°C | 3.1% | 20.6hPa | 2.7V | 03:32:47 | 01:51:53 | 00:00:00 | |
| DO2SHX-10 | 2026-09-06 00:14:45 | 52.13060 | 11.38025 | 128° | 7km/h | 26737m | 4.5m/s | -50.1°C | 3.0% | 20.5hPa | 2.6V | 00:00:00 | 01:51:55 | 00:00:00 | |
| DL1XH-15 | 2026-09-06 00:14:44 | 52.13062 | 11.38018 | 85° | 7km/h | 26720m | 5.5m/s | -50.3°C | 3.1% | 20.7hPa | 2.6V | 03:32:48 | 01:51:52 | 00:00:00 | |
| DL1XH-west | 2026-09-06 00:14:43 | 52.13062 | 11.38020 | 93° | 7km/h | 26726m | 6.4m/s | -50.2°C | 0% | 20.6hPa | 2.7V | 03:33:19 | 01:51:53 | 00:00:00 | |
| BIOWL1-15 | 2026-09-06 00:14:42 | 52.13073 | 11.38011 | 166° | 9km/h | 26686m | 6.3m/s | -50.4°C | 0% | 20.8hPa | 2.6V | 03:40:07 | 01:51:46 | 00:00:00 | |
| DO2JMG | 2026-09-06 00:14:41 | 52.13062 | 11.38015 | 99° | 5km/h | 26715m | 4.7m/s | -50.3°C | 0% | 20.7hPa | 2.6V | 03:33:19 | 01:51:51 | 00:00:00 | |
| HSKMA3-T | 2026-09-06 00:14:38 | 52.13067 | 11.38012 | 178° | 11km/h | 26697m | 4.9m/s | -50.4°C | 0% | 20.7hPa | 2.7V | 03:33:19 | 01:51:48 | 00:00:00 | |
| DL2RXE-15 | 2026-09-06 00:14:37 | 52.13067 | 11.38012 | 179° | 11km/h | 26697m | 4.9m/s | -50.4°C | 0.6% | 20.7hPa | 2.7V | 00:00:00 | 00:00:00 | 00:00:00 | |
| DM0DOS-11 | 2026-09-06 00:14:36 | 52.13081 | 11.38003 | 158° | 13km/h | 26664m | 6.7m/s | -50.4°C | 3.2% | 20.9hPa | 2.7V | 03:32:58 | 01:51:42 | 00:00:00 | |
| AA1-15 | 2026-09-06 00:14:34 | 52.13077 | 11.38007 | 143° | 9km/h | 26675m | 5m/s | -50.4°C | 0% | 20.8hPa | 2.6V | 03:33:19 | 01:51:44 | 00:00:00 | |
| DL1XH1-15 | 2026-09-06 00:14:34 | 52.13079 | 11.38005 | 147° | 11km/h | 26670m | 5.7m/s | -50.4°C | 3.2% | 20.8hPa | 2.7V | 03:32:57 | 01:51:43 | 00:00:00 | |
| DL1XH-west | 2026-09-06 00:14:32 | 52.13081 | 11.38003 | 159° | 13km/h | 26664m | 6.7m/s | -50.4°C | 0% | 20.9hPa | 2.7V | 03:33:19 | 01:51:42 | 00:00:00 | |
| DO2JMG | 2026-09-06 00:14:30 | 52.13088 | 11.37999 | 162° | 15km/h | 26653m | 4.2m/s | -50.4°C | 0% | 20.8hPa | 2.6V | 03:33:19 | 01:51:40 | 00:00:00 | |
| HSKMA3-T | 2026-09-06 00:14:28 | 52.13094 | 11.37994 | 140° | 15km/h | 26643m | 5.9m/s | -50.4°C | 0% | 20.9hPa | 2.7V | 03:33:19 | 01:51:38 | 00:00:00 | |
| DO2SHX-10 | 2026-09-06 00:14:27 | 52.13097 | 11.37990 | 129° | 15km/h | 26637m | 5.8m/s | -50.3°C | 3.3% | 20.9hPa | 2.7V | 00:00:00 | 01:51:37 | 00:00:00 | |
| DM0DOS-11 | 2026-09-06 00:14:26 | 52.13112 | 11.37973 | 160° | 18km/h | 26609m | 4.7m/s | -50.2°C | 3.2% | 21hPa | 2.7V | 03:33:08 | 01:51:32 | 00:00:00 | |
| DB0DAN | 2026-09-06 00:14:25 | 52.13101 | 11.37981 | 138° | 13km/h | 26626m | 5.4m/s | -50.3°C | 0.6% | 20.96hPa | 2.6V | 00:00:00 | 00:00:00 | 00:00:00 | |
| AA1-15 | 2026-09-06 00:14:24 | 52.13104 | 11.37978 | 153° | 15km/h | 26620m | 6.5m/s | -50.2°C | 0% | 21hPa | 2.6V | 03:33:19 | 01:51:34 | 00:00:00 | |
| DF8AY | 2026-09-06 00:14:21 | 52.13116 | 11.37970 | 153° | 18km/h | 26604m | 5.9m/s | -50.1°C | 0% | 21hPa | 2.7V | 03:33:19 | 01:51:31 | 00:00:00 | |
| DO2JMG | 2026-09-06 00:14:20 | 52.13121 | 11.37966 | 144° | 20km/h | 26598m | 6.3m/s | -50.1°C | 0% | 21hPa | 2.6V | 03:33:19 | 01:51:30 | 00:00:00 | |
| HSKMA3-T | 2026-09-06 00:14:18 | 52.13128 | 11.37955 | 132° | 20km/h | 26587m | 5.4m/s | -50°C | 0% | 21.1hPa | 2.6V | 03:33:19 | 01:51:28 | 00:00:00 | |
| DL1XH1-15 | 2026-09-06 00:14:18 | 52.13145 | 11.37930 | 130° | 16km/h | 26559m | 5.7m/s | -49.9°C | 3.1% | 21.1hPa | 2.6V | 03:33:17 | 01:51:23 | 00:00:00 | |
| AA1-15 | 2026-09-06 00:14:13 | 52.13145 | 11.37930 | 130° | 16km/h | 26560m | 5.7m/s | -49.9°C | 0% | 21.2hPa | 2.6V | 03:33:19 | 01:51:23 | 00:00:00 | |
| HTAHTA | 2026-09-06 00:14:13 | 52.13145 | 11.37930 | 130° | 15km/h | 26560m | 5.7m/s | -49.9°C | 0.6% | 21.2hPa | 2.7V | 00:00:00 | 00:00:00 | 00:00:00 | |
| DF8AY-15 | 2026-09-06 00:14:12 | 52.13147 | 11.37925 | 118° | 18km/h | 26554m | 6.4m/s | -49.9°C | 3.0% | 21.2hPa | 2.7V | 03:33:00 | 01:51:22 | 00:00:00 | |
| DB0DAN | 2026-09-06 00:14:10 | 52.13151 | 11.37912 | 118° | 15km/h | 26543m | 4.7m/s | -50°C | 0.6% | 21.25hPa | 2.7V | 00:00:00 | 00:00:00 | 00:00:00 | |
| DO2JMG | 2026-09-06 00:14:10 | 52.13151 | 11.37912 | 118° | 16km/h | 26543m | 4.7m/s | -50°C | 0% | 21.2hPa | 2.7V | 03:34:10 | 01:51:20 | 00:00:00 | |
| DO2SHX-10 | 2026-09-06 00:14:09 | 52.13153 | 11.37907 | 132° | 15km/h | 26537m | 6.4m/s | -50.0°C | 3.1% | 21.2hPa | 2.6V | 00:00:00 | 01:51:19 | 00:00:00 | |
| DL1XH1-15 | 2026-09-06 00:14:08 | 52.13172 | 11.37882 | 129° | 16km/h | 26504m | 5.2m/s | -50.2°C | 3.1% | 21.4hPa | 2.6V | 03:33:27 | 01:51:13 | 00:00:00 | |
| HSKMA3-T | 2026-09-06 00:14:07 | 52.13159 | 11.37900 | 151° | 16km/h | 26526m | 4.7m/s | -50.1°C | 0% | 21.3hPa | 2.6V | 03:34:10 | 01:51:17 | 00:00:00 | |
| AM1SDL-15 | 2026-09-06 00:14:07 | 52.13159 | 11.37900 | 151° | 18km/h | 26526m | 4.6m/s | -50.1°C | 3.1% | 21.2hPa | 2.6V | 00:00:00 | 01:51:17 | 00:00:00 | |
| DM0DOS-11 | 2026-09-06 00:14:06 | 52.13175 | 11.37877 | 132° | 16km/h | 26498m | 6.2m/s | -50.2°C | 3.1% | 21.3hPa | 2.6V | 03:33:28 | 01:51:12 | 00:00:00 | |
| BIOWL1-15 | 2026-09-06 00:14:05 | 52.13166 | 11.37892 | 137° | 18km/h | 26515m | 6.5m/s | -50.2°C | 0% | 21.3hPa | 2.7V | 03:40:07 | 01:51:15 | 00:00:00 | |
| AA1-15 | 2026-09-06 00:14:02 | 52.13175 | 11.37877 | 133° | 16km/h | 26498m | 6.2m/s | -50.3°C | 0% | 21.3hPa | 2.6V | 03:34:10 | 01:51:12 | 00:00:00 | |
| DL1XH-west | 2026-09-06 00:14:00 | 52.13181 | 11.37867 | 133° | 16km/h | 26487m | 4.8m/s | -50.3°C | 0% | 21.4hPa | 2.7V | 03:34:10 | 01:51:10 | 00:00:00 | |
| DO2JMG | 2026-09-06 00:13:59 | 52.13184 | 11.37862 | 126° | 18km/h | 26482m | 5.5m/s | -50.3°C | 0% | 21.4hPa | 2.7V | 03:34:10 | 01:51:09 | 00:00:00 | |
| HSKMA3-T | 2026-09-06 00:13:56 | 52.13191 | 11.37839 | 121° | 22km/h | 26465m | 4m/s | -50.4°C | 0% | 21.5hPa | 2.6V | 03:34:10 | 01:51:06 | 00:00:00 | |
| DM0DOS-11 | 2026-09-06 00:13:56 | 52.13209 | 11.37819 | 161° | 24km/h | 26443m | 4.7m/s | -50.6°C | 3.1% | 21.5hPa | 2.6V | 03:33:38 | 01:51:02 | 00:00:00 | |
| DB0DAN | 2026-09-06 00:13:55 | 52.13195 | 11.37832 | 133° | 20km/h | 26460m | 5.5m/s | -50.5°C | 0.6% | 21.53hPa | 2.7V | 00:00:00 | 00:00:00 | 00:00:00 | |
| AA1-15 | 2026-09-06 00:13:51 | 52.13214 | 11.37816 | 157° | 22km/h | 26438m | 5.4m/s | -50.6°C | 0% | 21.6hPa | 2.6V | 03:34:10 | 01:51:01 | 00:00:00 | |
| DO2JMG | 2026-09-06 00:13:49 | 52.13223 | 11.37806 | 135° | 22km/h | 26427m | 4.9m/s | -50.7°C | 0% | 21.6hPa | 2.7V | 03:34:10 | 01:50:59 | 00:00:00 | |
| DF8AY | 2026-09-06 00:13:48 | 52.13227 | 11.37800 | 127° | 22km/h | 26422m | 4.9m/s | -50.7°C | 0% | 21.6hPa | 2.7V | 03:34:10 | 01:50:58 | 00:00:00 | |
| DO2SHX-10 | 2026-09-06 00:13:48 | 52.13227 | 11.37800 | 127° | 20km/h | 26423m | 4.8m/s | -50.6°C | 3.1% | 21.6hPa | 2.6V | 00:00:00 | 01:50:58 | 00:00:00 | |
| NBG1-10 | 2026-09-06 00:13:47 | 52.13230 | 11.37792 | 124° | 22km/h | 26417m | 5.4m/s | -50.6°C | 3.2% | 21.6hPa | 2.6V | 00:00:00 | 01:50:57 | 00:00:00 | |
| DM0DOS-11 | 2026-09-06 00:13:46 | 52.13241 | 11.37755 | 98° | 24km/h | 26391m | 6.5m/s | -50.6°C | 3.1% | 21.7hPa | 2.6V | 03:33:48 | 01:50:52 | 00:00:00 | |
| HSKMA3-T | 2026-09-06 00:13:45 | 52.13235 | 11.37779 | 122° | 18km/h | 26406m | 5m/s | -50.7°C | 0% | 21.7hPa | 2.6V | 03:34:10 | 01:50:55 | 00:00:00 | |
| SO1NDE-10 | 2026-09-06 00:13:45 | 52.13235 | 11.37779 | 123° | 20km/h | 26406m | 5.0m/s | -50.6°C | 3.1% | 21.6hPa | 2.6V | 00:00:00 | 01:50:55 | 00:00:00 | |
| GOEST3-10 | 2026-09-06 00:13:44 | 52.13238 | 11.37772 | 114° | 22km/h | 26401m | 4.4m/s | -50.6°C | 3.2% | 21.7hPa | 2.6V | 00:00:00 | 00:00:00 | 00:00:00 | |
| TFSTFS | 2026-09-06 00:13:43 | 52.13238 | 11.37772 | 114° | 20km/h | 26401m | 4.4m/s | -50.6°C | 0.6% | 21.7hPa | 2.6V | 03:34:00 | 00:00:00 | 00:00:00 | |
| DO9LL-15 | 2026-09-06 00:13:42 | 52.13241 | 11.37755 | 99° | 20km/h | 26391m | 6.4m/s | -50.6°C | 3.1% | 21.6hPa | 2.6V | 00:00:00 | 01:50:52 | 00:00:00 | |
| DB0DAN | 2026-09-06 00:13:40 | 52.13242 | 11.37736 | 97° | 22km/h | 26380m | 4.5m/s | -50.6°C | 0.6% | 21.77hPa | 2.6V | 00:00:00 | 00:00:00 | 00:00:00 | |
| AA1-15 | 2026-09-06 00:13:40 | 52.13242 | 11.37736 | 97° | 24km/h | 26380m | 4.5m/s | -50.6°C | 0% | 21.8hPa | 2.6V | 03:34:10 | 01:50:50 | 00:00:00 | |
| DO2JMG | 2026-09-06 00:13:38 | 52.13244 | 11.37720 | 116° | 16km/h | 26368m | 6.3m/s | -50.6°C | 0% | 21.8hPa | 2.7V | 03:34:10 | 01:50:48 | 00:00:00 | |
| DL1XH1-15 | 2026-09-06 00:13:38 | 52.13256 | 11.37692 | 117° | 22km/h | 26341m | 4.9m/s | -50.8°C | 3.2% | 21.9hPa | 2.7V | 03:33:57 | 01:50:43 | 00:00:00 | |
| DF8AY | 2026-09-06 00:13:37 | 52.13246 | 11.37715 | 127° | 15km/h | 26363m | 4.8m/s | -50.6°C | 0% | 21.8hPa | 2.7V | 03:34:10 | 01:50:47 | 00:00:00 | |
| HSKMA3-T | 2026-09-06 00:13:35 | 52.13251 | 11.37705 | 127° | 16km/h | 26352m | 6.4m/s | -50.7°C | 0% | 21.8hPa | 2.6V | 03:34:10 | 01:50:45 | 00:00:00 | |
| AA1-15 | 2026-09-06 00:13:29 | 52.13265 | 11.37660 | 104° | 24km/h | 26319m | 4.5m/s | -50.8°C | 0% | 22hPa | 2.6V | 03:34:10 | 01:50:39 | 00:00:00 | |
| DL1XH-west | 2026-09-06 00:13:28 | 52.13267 | 11.37650 | 98° | 26km/h | 26314m | 6.6m/s | -50.8°C | 0% | 22hPa | 2.6V | 03:34:10 | 01:50:38 | 00:00:00 | |
| DO2JMG | 2026-09-06 00:13:27 | 52.13267 | 11.37639 | 93° | 27km/h | 26308m | 5.9m/s | -50.8°C | 0% | 22hPa | 2.7V | 03:34:10 | 01:50:37 | 00:00:00 | |
| DO2SHX-10 | 2026-09-06 00:13:27 | 52.13267 | 11.37639 | 94° | 26km/h | 26308m | 5.9m/s | -50.8°C | 3.2% | 22.0hPa | 2.7V | 00:00:00 | 01:50:37 | 00:00:00 | |
| DL4BBY-15 | 2026-09-06 00:13:26 | 52.13267 | 11.37627 | 91° | 20km/h | 26303m | 4.4m/s | -51.2°C | 0% | 0hPa | 2.6V | 00:00:00 | 00:00:00 | 00:00:00 | |
| DL1XH1-15 | 2026-09-06 00:13:25 | 52.13269 | 11.37601 | 107° | 13km/h | 26287m | 5.9m/s | -50.8°C | 3.2% | 22.1hPa | 2.6V | 03:34:07 | 01:50:33 | 00:00:00 | |
| DB0DAN | 2026-09-06 00:13:25 | 52.13267 | 11.37617 | 92° | 22km/h | 26298m | 4.2m/s | -50.8°C | 0.6% | 22.07hPa | 2.6V | 00:00:00 | 00:00:00 | 00:00:00 | |
| HSKMA3-T | 2026-09-06 00:13:25 | 52.13268 | 11.37608 | 95° | 20km/h | 26293m | 6.3m/s | -50.8°C | 0% | 22.1hPa | 2.6V | 03:34:10 | 01:50:34 | 00:00:00 | |
| DL1XH-west | 2026-09-06 00:13:18 | 52.13276 | 11.37571 | 109° | 26km/h | 26259m | 5m/s | -50.8°C | 0% | 22.2hPa | 2.6V | 03:35:01 | 01:50:28 | 00:00:00 | |
| DO2SHX-10 | 2026-09-06 00:13:18 | 52.13276 | 11.37571 | 110° | 26km/h | 26260m | 5.0m/s | -50.8°C | 3.3% | 22.1hPa | 2.6V | 03:34:00 | 01:50:28 | 00:00:00 | |
| DM0DOS-11 | 2026-09-06 00:13:16 | 52.13289 | 11.37515 | 98° | 22km/h | 26229m | 5.6m/s | -50.9°C | 3.2% | 22.2hPa | 2.6V | 03:34:18 | 01:50:22 | 00:00:00 | |
| DO2JMG | 2026-09-06 00:13:16 | 52.13281 | 11.37550 | 113° | 27km/h | 26249m | 6.1m/s | -50.9°C | 0% | 22.2hPa | 2.7V | 03:35:52 | 01:50:26 | 00:00:00 | |
| HSKMA3-T | 2026-09-06 00:13:13 | 52.13288 | 11.37524 | 106° | 22km/h | 26234m | 4.1m/s | -50.9°C | 0% | 22.3hPa | 2.6V | 03:35:01 | 01:50:23 | 00:00:00 | |
| DO2SHX-10 | 2026-09-06 00:13:12 | 52.13289 | 11.37515 | 99° | 24km/h | 26229m | 5.6m/s | -50.8°C | 3.2% | 22.2hPa | 2.7V | 00:00:00 | 01:50:22 | 00:00:00 | |
| DF7ER-10 | 2026-09-06 00:13:11 | 52.13289 | 11.37515 | 99° | 22km/h | 26229m | 5.6m/s | -50.9°C | 0.7% | 22.3hPa | 2.7V | 03:35:00 | 00:00:00 | 00:00:00 | |
| DB0DAN | 2026-09-06 00:13:10 | 52.13290 | 11.37496 | 91° | 22km/h | 26218m | 5m/s | -50.9°C | 0.6% | 22.32hPa | 2.7V | 00:00:00 | 00:00:00 | 00:00:00 | |
| DL1XH-west | 2026-09-06 00:13:08 | 52.13291 | 11.37479 | 106° | 18km/h | 26207m | 5.9m/s | -50.9°C | 0% | 22.4hPa | 2.6V | 03:35:01 | 01:50:18 | 00:00:00 | |
| DO2JMG | 2026-09-06 00:13:06 | 52.13295 | 11.37465 | 120° | 18km/h | 26197m | 4.9m/s | -50.9°C | 0% | 22.4hPa | 2.6V | 03:35:52 | 01:50:16 | 00:00:00 | |
| DF8AY | 2026-09-06 00:13:05 | 52.13297 | 11.37458 | 118° | 20km/h | 26191m | 6.3m/s | -50.9°C | 0% | 22.4hPa | 2.7V | 03:35:01 | 01:50:15 | 00:00:00 | |
| HSKMA3-T | 2026-09-06 00:13:03 | 52.13301 | 11.37442 | 106° | 20km/h | 26180m | 4.6m/s | -51°C | 0% | 22.5hPa | 2.6V | 03:35:01 | 01:50:13 | 00:00:00 | |
| DL1XH-west | 2026-09-06 00:12:57 | 52.13296 | 11.37402 | 57° | 22km/h | 26146m | 6m/s | -51°C | 0% | 22.6hPa | 2.6V | 03:35:01 | 01:50:07 | 00:00:00 | |
| DB0DAN | 2026-09-06 00:12:55 | 52.13290 | 11.37387 | 60° | 20km/h | 26136m | 3.9m/s | -50.9°C | 0.7% | 22.59hPa | 2.6V | 00:00:00 | 00:00:00 | 00:00:00 | |
| DO2JMG | 2026-09-06 00:12:54 | 52.13288 | 11.37380 | 59° | 16km/h | 26131m | 6.2m/s | -50.9°C | 0% | 22.6hPa | 2.7V | 03:35:52 | 01:50:04 | 00:00:00 | |
| DL1XH1-15 | 2026-09-06 00:12:54 | 52.13286 | 11.37376 | 67° | 9km/h | 26125m | 5.9m/s | -50.9°C | 3.2% | 22.6hPa | 2.7V | 03:34:37 | 01:50:03 | 00:00:00 | |
| HSKMA3-T | 2026-09-06 00:12:53 | 52.13286 | 11.37376 | 67° | 9km/h | 26125m | 5.9m/s | -50.9°C | 0% | 22.6hPa | 2.7V | 03:35:01 | 01:50:03 | 00:00:00 | |
| AA1-15 | 2026-09-06 00:12:47 | 52.13297 | 11.37351 | 117° | 16km/h | 26092m | 5.1m/s | -51°C | 0% | 22.8hPa | 2.7V | 03:35:01 | 01:49:57 | 00:00:00 | |
| DL1XH-west | 2026-09-06 00:12:46 | 52.13299 | 11.37345 | 106° | 15km/h | 26087m | 6.2m/s | -51°C | 0% | 22.8hPa | 2.6V | 03:35:01 | 01:49:56 | 00:00:00 | |
| DF8AY | 2026-09-06 00:12:45 | 52.13290 | 11.37296 | 70° | 9km/h | 26045m | 6.6m/s | -50.9°C | 0% | 22.9hPa | 2.7V | 03:35:01 | 01:49:48 | 00:00:00 | |
| DO2JMG | 2026-09-06 00:12:43 | 52.13297 | 11.37329 | 68° | 16km/h | 26070m | 6m/s | -51°C | 0% | 22.8hPa | 2.7V | 03:35:52 | 01:49:53 | 00:00:00 | |
| HSKMA3-T | 2026-09-06 00:12:42 | 52.13295 | 11.37322 | 71° | 20km/h | 26065m | 5.7m/s | -51°C | 0% | 22.8hPa | 2.7V | 03:35:01 | 01:49:52 | 00:00:00 | |
| DB0DAN | 2026-09-06 00:12:40 | 52.13293 | 11.37306 | 75° | 16km/h | 26055m | 3.9m/s | -51°C | 0.7% | 22.9hPa | 2.6V | 00:00:00 | 00:00:00 | 00:00:00 | |
| DD8BA-10 | 2026-09-06 00:12:39 | 52.13291 | 11.37300 | 69° | 11km/h | 26051m | 5.2m/s | -50.9°C | 3.3% | 22.8hPa | 2.6V | 03:34:00 | 00:00:00 | 00:00:00 | |
| DL1XH1-15 | 2026-09-06 00:12:38 | 52.13293 | 11.37281 | 109° | 15km/h | 26018m | 4.1m/s | -50.8°C | 3.3% | 23hPa | 2.6V | 03:34:57 | 01:49:43 | 00:00:00 | |
| DL1XH-west | 2026-09-06 00:12:36 | 52.13290 | 11.37291 | 114° | 5km/h | 26034m | 4.8m/s | -50.8°C | 0% | 23hPa | 2.7V | 03:35:01 | 01:49:46 | 00:00:00 | |
| DO2JMG | 2026-09-06 00:12:32 | 52.13294 | 11.37275 | 97° | 15km/h | 26014m | 4m/s | -50.8°C | 0% | 23hPa | 2.7V | 03:35:52 | 01:49:42 | 00:00:00 | |
| HSKMA3-T | 2026-09-06 00:12:31 | 52.13294 | 11.37270 | 79° | 13km/h | 26009m | 6.1m/s | -50.7°C | 0% | 23hPa | 2.7V | 03:35:01 | 01:49:41 | 00:00:00 | |
| DO2SHX-10 | 2026-09-06 00:12:30 | 52.13292 | 11.37265 | 51° | 16km/h | 26003m | 6.1m/s | -50.6°C | 3.2% | 23.0hPa | 2.6V | 03:35:00 | 01:49:40 | 00:00:00 | |
| DD8BA-10 | 2026-09-06 00:12:29 | 52.13290 | 11.37260 | 36° | 13km/h | 25997m | 5.5m/s | -50.6°C | 3.2% | 23.0hPa | 2.6V | 00:00:00 | 00:00:00 | 00:00:00 | |
| DL1XH1-15 | 2026-09-06 00:12:28 | 52.13274 | 11.37227 | 82° | 11km/h | 25965m | 5.8m/s | -50.6°C | 3.2% | 23.2hPa | 2.6V | 03:35:07 | 01:49:33 | 00:00:00 | |
| DF8AY | 2026-09-06 00:12:27 | 52.13282 | 11.37251 | 42° | 20km/h | 25986m | 5.6m/s | -50.6°C | 0% | 23.1hPa | 2.7V | 03:35:52 | 01:49:37 | 00:00:00 | |
| AA1-15 | 2026-09-06 00:12:26 | 52.13278 | 11.37245 | 52° | 20km/h | 25980m | 6m/s | -50.6°C | 0% | 23.2hPa | 2.7V | 03:35:52 | 01:49:36 | 00:00:00 | |
| DL1XH-west | 2026-09-06 00:12:25 | 52.13276 | 11.37238 | 65° | 18km/h | 25975m | 5m/s | -50.6°C | 0% | 23.2hPa | 2.7V | 03:35:52 | 01:49:35 | 00:00:00 | |
| DB0DAN | 2026-09-06 00:12:25 | 52.13276 | 11.37238 | 64° | 18km/h | 25975m | 5m/s | -50.6°C | 0.7% | 23.16hPa | 2.7V | 00:00:00 | 00:00:00 | 00:00:00 | |
| DO2JMG | 2026-09-06 00:12:22 | 52.13273 | 11.37223 | 89° | 7km/h | 25959m | 6.2m/s | -50.6°C | 0% | 23.2hPa | 2.6V | 03:35:52 | 01:49:32 | 00:00:00 | |
| HSKMA3-T | 2026-09-06 00:12:20 | 52.13274 | 11.37220 | 123° | 4km/h | 25948m | 4.9m/s | -50.6°C | 0% | 23.2hPa | 2.7V | 03:35:52 | 01:49:30 | 00:00:00 | |
| DD8BA-10 | 2026-09-06 00:12:19 | 52.13274 | 11.37218 | 113° | 18km/h | 25943m | 5.5m/s | -50.6°C | 3.2% | 23.2hPa | 2.6V | 00:00:00 | 00:00:00 | 00:00:00 | |
| DL1XH1-15 | 2026-09-06 00:12:18 | 52.13261 | 11.37183 | 32° | 26km/h | 25910m | 4.4m/s | -50.6°C | 3.2% | 23.4hPa | 2.6V | 03:35:17 | 01:49:23 | 00:00:00 | |
| DF8AY | 2026-09-06 00:12:16 | 52.13273 | 11.37203 | 62° | 20km/h | 25926m | 4.9m/s | -50.7°C | 0% | 23.3hPa | 2.7V | 03:35:52 | 01:49:26 | 00:00:00 | |
| AA1-15 | 2026-09-06 00:12:15 | 52.13270 | 11.37196 | 50° | 22km/h | 25920m | 6.3m/s | -50.7°C | 0% | 23.4hPa | 2.7V | 03:35:52 | 01:49:25 | 00:00:00 | |
| BIOWL1-15 | 2026-09-06 00:12:14 | 52.13266 | 11.37189 | 39° | 24km/h | 25915m | 5.9m/s | -50.7°C | 0% | 23.4hPa | 2.7V | 03:40:07 | 01:49:24 | 00:00:00 | |
| DJ8HS-15 | 2026-09-06 00:12:14 | 52.13266 | 11.37189 | 40° | 20km/h | 25915m | 5.8m/s | -50.6°C | 3.2% | 23.3hPa | 2.7V | 00:00:00 | 01:49:24 | 00:00:00 | |
| GOEST3-10 | 2026-09-06 00:12:13 | 52.13261 | 11.37183 | 33° | 22km/h | 25910m | 4.4m/s | -50.6°C | 3.2% | 23.3hPa | 2.7V | 03:35:00 | 00:00:00 | 00:00:00 | |
| DF8AY-15 | 2026-09-06 00:12:12 | 52.13256 | 11.37178 | 35° | 20km/h | 25906m | 3.8m/s | -50.6°C | 3.2% | 23.3hPa | 2.7V | 00:00:00 | 01:49:22 | 00:00:00 | |
| DJTTGO | 2026-09-06 00:12:11 | 52.13256 | 11.37178 | 35° | 24km/h | 25906m | 3.9m/s | 0°C | 0% | 23.4hPa | 2.7V | 00:00:00 | 00:00:00 | 00:00:00 | |
| DB0DAN | 2026-09-06 00:12:10 | 52.13249 | 11.37166 | 64° | 16km/h | 25895m | 6.1m/s | -50.6°C | 0.7% | 23.45hPa | 2.7V | 00:00:00 | 00:00:00 | 00:00:00 | |
| DO2JMG | 2026-09-06 00:12:09 | 52.13247 | 11.37159 | 85° | 18km/h | 25889m | 5.9m/s | -50.6°C | 0% | 23.4hPa | 2.7V | 03:35:52 | 01:49:19 | 00:00:00 | |
| DF8AY | 2026-09-06 00:12:06 | 52.13249 | 11.37137 | 94° | 16km/h | 25874m | 4.7m/s | -50.6°C | 0% | 23.5hPa | 2.6V | 03:35:52 | 01:49:16 | 00:00:00 | |
| DL1XH-15 | 2026-09-06 00:12:06 | 52.13242 | 11.37119 | 31° | 16km/h | 25852m | 5.4m/s | -50.6°C | 3.2% | 23.6hPa | 2.6V | 03:35:28 | 01:49:12 | 00:00:00 | |
| AA1-15 | 2026-09-06 00:12:05 | 52.13249 | 11.37131 | 74° | 13km/h | 25869m | 5.5m/s | -50.6°C | 0% | 23.6hPa | 2.7V | 03:35:52 | 01:49:15 | 00:00:00 | |
| DL1XH-west | 2026-09-06 00:12:04 | 52.13247 | 11.37126 | 51° | 13km/h | 25863m | 5.9m/s | -50.6°C | 0% | 23.6hPa | 2.7V | 03:35:52 | 01:49:14 | 00:00:00 | |
| DO2JMG | 2026-09-06 00:11:58 | 52.13227 | 11.37098 | 46° | 24km/h | 25829m | 5.4m/s | -50.7°C | 0% | 23.7hPa | 2.7V | 03:35:52 | 01:49:08 | 00:00:00 | |
| BIOWL1-15 | 2026-09-06 00:11:56 | 52.13218 | 11.37084 | 44° | 26km/h | 25817m | 5.2m/s | -50.7°C | 0% | 23.7hPa | 2.6V | 03:40:07 | 01:49:06 | 00:00:00 | |
| SONCRA | 2026-09-06 00:11:56 | 52.13218 | 11.37084 | 44° | 26km/h | 25818m | 5.2m/s | -50.7°C | 0.6% | 23.7hPa | 2.6V | 00:00:00 | 00:00:00 | 00:00:00 | |
| DB0DAN | 2026-09-06 00:11:55 | 52.13214 | 11.37076 | 51° | 24km/h | 25813m | 4.2m/s | -50.7°C | 0.6% | 23.74hPa | 2.6V | 00:00:00 | 00:00:00 | 00:00:00 | |
| DF8AY | 2026-09-06 00:11:55 | 52.13214 | 11.37076 | 51° | 26km/h | 25813m | 4.2m/s | -50.7°C | 0% | 23.7hPa | 2.6V | 03:35:52 | 01:49:05 | 00:00:00 | |
| AA1-15 | 2026-09-06 00:11:54 | 52.13210 | 11.37068 | 61° | 24km/h | 25807m | 6m/s | -50.7°C | 0% | 23.8hPa | 2.7V | 03:35:52 | 01:49:04 | 00:00:00 | |
| DL1XH-west | 2026-09-06 00:11:53 | 52.13208 | 11.37059 | 73° | 24km/h | 25801m | 6.1m/s | -50.6°C | 0% | 23.8hPa | 2.7V | 03:35:52 | 01:49:03 | 00:00:00 | |
| DO2JMG | 2026-09-06 00:11:47 | 52.13190 | 11.37014 | 28° | 26km/h | 25770m | 4.8m/s | -50.7°C | 0% | 23.9hPa | 2.7V | 03:35:52 | 01:48:57 | 00:00:00 | |
| GOEST3-10 | 2026-09-06 00:11:47 | 52.13190 | 11.37014 | 29° | 26km/h | 25771m | 4.7m/s | -50.7°C | 3.2% | 23.8hPa | 2.7V | 00:00:00 | 01:48:57 | 00:00:00 | |
| DM0DOS-11 | 2026-09-06 00:11:46 | 52.13165 | 11.36984 | 43° | 24km/h | 25742m | 5.3m/s | -50.7°C | 3.2% | 24hPa | 2.7V | 03:35:48 | 01:48:52 | 00:00:00 | |
| DF8AY | 2026-09-06 00:11:45 | 52.13178 | 11.37003 | 34° | 26km/h | 25759m | 6m/s | -50.7°C | 0% | 24hPa | 2.6V | 03:35:52 | 01:48:55 | 00:00:00 | |
| AA1-15 | 2026-09-06 00:11:44 | 52.13173 | 11.36997 | 40° | 24km/h | 25753m | 5.5m/s | -50.7°C | 0% | 24hPa | 2.6V | 03:35:52 | 01:48:54 | 00:00:00 | |
| DL1XH-west | 2026-09-06 00:11:42 | 52.13165 | 11.36984 | 44° | 24km/h | 25742m | 5.4m/s | -50.7°C | 0% | 24hPa | 2.7V | 03:35:52 | 01:48:52 | 00:00:00 | |
| DO2SHX-10 | 2026-09-06 00:11:42 | 52.13164 | 11.36984 | 44° | 24km/h | 25742m | 5.3m/s | -50.7°C | 3.2% | 24.0hPa | 2.6V | 03:35:00 | 01:48:52 | 00:00:00 | |
| DB0DAN | 2026-09-06 00:11:40 | 52.13155 | 11.36971 | 37° | 24km/h | 25731m | 4.9m/s | -50.7°C | 0.7% | 24.04hPa | 2.6V | 00:00:00 | 00:00:00 | 00:00:00 | |
| DO2JMG | 2026-09-06 00:11:37 | 52.13144 | 11.36953 | 58° | 18km/h | 25715m | 6.2m/s | -50.6°C | 0% | 24.1hPa | 2.7V | 03:36:43 | 01:48:47 | 00:00:00 | |
| HSKMA3-T | 2026-09-06 00:11:36 | 52.13142 | 11.36947 | 65° | 18km/h | 25710m | 5m/s | -50.6°C | 0% | 24.1hPa | 2.7V | 03:36:43 | 01:48:46 | 00:00:00 | |
| DF8AY | 2026-09-06 00:11:34 | 52.13138 | 11.36934 | 50° | 18km/h | 25701m | 4.3m/s | -50.6°C | 0% | 24.1hPa | 2.6V | 03:36:43 | 01:48:44 | 00:00:00 | |
| AA1-15 | 2026-09-06 00:11:33 | 52.13134 | 11.36929 | 37° | 20km/h | 25696m | 5.7m/s | -50.6°C | 0% | 24.2hPa | 2.6V | 03:36:43 | 01:48:43 | 00:00:00 | |
| DL1XH-west | 2026-09-06 00:11:32 | 52.13129 | 11.36924 | 26° | 24km/h | 25690m | 5.7m/s | -50.6°C | 0% | 24.2hPa | 2.7V | 03:36:43 | 01:48:42 | 00:00:00 | |
| BIOWL1-15 | 2026-09-06 00:11:30 | 52.13105 | 11.36903 | 41° | 26km/h | 25668m | 5.6m/s | -50.7°C | 0% | 24.3hPa | 2.6V | 03:40:07 | 01:48:38 | 00:00:00 | |
| DO2JMG | 2026-09-06 00:11:27 | 52.13101 | 11.36896 | 49° | 26km/h | 25663m | 5.4m/s | -50.7°C | 0% | 24.3hPa | 2.6V | 03:36:43 | 01:48:37 | 00:00:00 | |
| DL1XH1-15 | 2026-09-06 00:11:26 | 52.13084 | 11.36865 | 49° | 26km/h | 25640m | 4.8m/s | -50.6°C | 3.1% | 24.4hPa | 2.6V | 03:36:07 | 01:48:33 | 00:00:00 | |
| HSKMA3-T | 2026-09-06 00:11:25 | 52.13093 | 11.36880 | 52° | 24km/h | 25652m | 6.6m/s | -50.7°C | 0% | 24.3hPa | 2.7V | 03:36:43 | 01:48:35 | 00:00:00 | |
| DB0DAN | 2026-09-06 00:11:25 | 52.13093 | 11.36880 | 52° | 24km/h | 25652m | 6.6m/s | -50.7°C | 0.6% | 24.34hPa | 2.7V | 00:00:00 | 00:00:00 | 00:00:00 | |
| DF8AY | 2026-09-06 00:11:24 | 52.13089 | 11.36873 | 48° | 26km/h | 25646m | 5.8m/s | -50.6°C | 0% | 24.4hPa | 2.6V | 03:36:43 | 01:48:34 | 00:00:00 | |
| AA1-15 | 2026-09-06 00:11:23 | 52.13085 | 11.36865 | 49° | 26km/h | 25640m | 4.8m/s | -50.6°C | 0% | 24.4hPa | 2.6V | 03:36:43 | 01:48:33 | 00:00:00 | |
| DL1XH-west | 2026-09-06 00:11:21 | 52.13077 | 11.36849 | 59° | 24km/h | 25629m | 6.3m/s | -50.5°C | 0% | 24.4hPa | 2.7V | 03:36:43 | 01:48:31 | 00:00:00 | |
| BIOWL1-15 | 2026-09-06 00:11:17 | 52.13061 | 11.36825 | 19° | 22km/h | 25607m | 6.3m/s | -50.6°C | 0% | 24.5hPa | 2.6V | 03:40:07 | 01:48:27 | 00:00:00 | |
| DO2JMG | 2026-09-06 00:11:16 | 52.13056 | 11.36823 | 10° | 24km/h | 25601m | 5.2m/s | -50.6°C | 0% | 24.6hPa | 2.6V | 03:36:43 | 01:48:26 | 00:00:00 | |
| DM0DOS-11 | 2026-09-06 00:11:16 | 52.13036 | 11.36812 | 43° | 20km/h | 25580m | 4.9m/s | -50.8°C | 3.2% | 24.6hPa | 2.6V | 03:36:18 | 01:48:22 | 00:00:00 | |
| HSKMA3-T | 2026-09-06 00:11:15 | 52.13050 | 11.36821 | 9° | 24km/h | 25596m | 5m/s | -50.7°C | 0% | 24.6hPa | 2.7V | 03:36:43 | 01:48:25 | 00:00:00 | |
| DL1XH1-15 | 2026-09-06 00:11:14 | 52.13040 | 11.36817 | 28° | 18km/h | 25585m | 5.6m/s | -50.9°C | 3.2% | 24.6hPa | 2.6V | 03:36:17 | 01:48:23 | 00:00:00 | |
| DF8AY | 2026-09-06 00:11:14 | 52.13045 | 11.36820 | 14° | 20km/h | 25591m | 5.9m/s | -50.8°C | 0% | 24.6hPa | 2.7V | 03:36:43 | 01:48:24 | 00:00:00 | |
| AA1-15 | 2026-09-06 00:11:13 | 52.13040 | 11.36817 | 28° | 18km/h | 25585m | 5.6m/s | -50.9°C | 0% | 24.6hPa | 2.6V | 03:36:43 | 01:48:23 | 00:00:00 | |
| DL1XH-west | 2026-09-06 00:11:10 | 52.13029 | 11.36799 | 49° | 24km/h | 25570m | 5.1m/s | -50.8°C | 0% | 24.6hPa | 2.7V | 03:36:43 | 01:48:20 | 00:00:00 | |
| OE5DRO-10 | 2026-09-06 00:11:10 | 52.13029 | 11.36799 | 49° | 20km/h | 25570m | 5.0m/s | 0°C | 0% | 0hPa | 2.6V | 00:00:00 | 00:00:00 | 00:00:00 | |
| DB0DAN | 2026-09-06 00:11:10 | 52.13029 | 11.36799 | 49° | 22km/h | 25570m | 5.1m/s | -50.8°C | 0.7% | 24.65hPa | 2.7V | 00:00:00 | 00:00:00 | 00:00:00 | |
| DO2SHX-10 | 2026-09-06 00:11:09 | 52.13025 | 11.36792 | 42° | 24km/h | 25565m | 5.9m/s | -50.7°C | 3.2% | 24.6hPa | 2.6V | 00:00:00 | 01:48:19 | 00:00:00 | |
| GOEST3-10 | 2026-09-06 00:11:08 | 52.13015 | 11.36783 | 18° | 16km/h | 25554m | 4.7m/s | -50.7°C | 3.2% | 24.7hPa | 2.6V | 00:00:00 | 01:48:17 | 00:00:00 | |
| SONDE2-11 | 2026-09-06 00:11:07 | 52.13010 | 11.36781 | 9° | 18km/h | 25549m | 5.0m/s | -50.8°C | 0.6% | 24.7hPa | 2.6V | 00:00:00 | 00:00:00 | 00:00:00 | |
| DM0DOS-11 | 2026-09-06 00:11:06 | 52.12997 | 11.36778 | 20° | 11km/h | 25529m | 4.4m/s | -51°C | 3.2% | 24.8hPa | 2.6V | 03:36:28 | 01:48:12 | 00:00:00 | |
| DO2JMG | 2026-09-06 00:11:06 | 52.13010 | 11.36781 | 10° | 20km/h | 25549m | 5m/s | -50.8°C | 0% | 24.7hPa | 2.6V | 03:36:43 | 01:48:16 | 00:00:00 | |
| HSKMA3-T | 2026-09-06 00:11:04 | 52.13002 | 11.36780 | 1° | 11km/h | 25538m | 5.6m/s | -50.9°C | 0% | 24.8hPa | 2.7V | 03:36:43 | 01:48:14 | 00:00:00 | |
| DL1XH1-15 | 2026-09-06 00:11:04 | 52.12999 | 11.36780 | 9° | 9km/h | 25533m | 4.8m/s | -51°C | 3.2% | 24.8hPa | 2.7V | 03:36:27 | 01:48:13 | 00:00:00 | |
| DF8AY | 2026-09-06 00:11:03 | 52.12999 | 11.36780 | 10° | 9km/h | 25533m | 4.8m/s | -51°C | 0% | 24.8hPa | 2.7V | 03:36:43 | 01:48:13 | 00:00:00 | |
| AA1-15 | 2026-09-06 00:11:02 | 52.12997 | 11.36778 | 21° | 11km/h | 25529m | 4.4m/s | -51.1°C | 0% | 24.8hPa | 2.6V | 03:36:43 | 01:48:12 | 00:00:00 | |
| DL1XH-west | 2026-09-06 00:10:59 | 52.12985 | 11.36768 | 30° | 24km/h | 25513m | 4.6m/s | -51.3°C | 0% | 24.9hPa | 2.7V | 03:36:43 | 01:48:09 | 00:00:00 | |
| SMARD9-15 | 2026-09-06 00:10:58 | 52.12974 | 11.36758 | 29° | 22km/h | 25503m | 5.9m/s | -51.2°C | 0.7% | 24.9hPa | 2.7V | 00:00:00 | 00:00:00 | 00:00:00 | |
| DO2SHX-10 | 2026-09-06 00:10:57 | 52.12974 | 11.36758 | 30° | 18km/h | 25503m | 5.9m/s | -51.2°C | 3.3% | 24.9hPa | 2.7V | 00:00:00 | 01:48:07 | 00:00:00 | |
| DM0DOS-11 | 2026-09-06 00:10:56 | 52.12954 | 11.36756 | 331° | 20km/h | 25476m | 5.1m/s | -51.1°C | 3.3% | 25hPa | 2.7V | 03:36:38 | 01:48:02 | 00:00:00 | |
| DO2JMG | 2026-09-06 00:10:55 | 52.12966 | 11.36752 | 13° | 15km/h | 25492m | 4.6m/s | -51.1°C | 0% | 24.9hPa | 2.6V | 03:36:43 | 01:48:05 | 00:00:00 | |
| DB0DAN | 2026-09-06 00:10:55 | 52.12966 | 11.36752 | 13° | 15km/h | 25492m | 4.6m/s | -51.1°C | 0.7% | 24.91hPa | 2.6V | 00:00:00 | 00:00:00 | 00:00:00 | |
| BIOWL1-15 | 2026-09-06 00:10:54 | 52.12962 | 11.36752 | 356° | 15km/h | 25487m | 4.9m/s | -51.1°C | 0% | 24.9hPa | 2.6V | 03:40:07 | 01:48:04 | 00:00:00 | |
| DF8AY | 2026-09-06 00:10:53 | 52.12958 | 11.36753 | 344° | 18km/h | 25482m | 6.3m/s | -51.1°C | 0% | 25hPa | 2.7V | 03:36:43 | 01:48:03 | 00:00:00 | |
| AA1-15 | 2026-09-06 00:10:52 | 52.12954 | 11.36756 | 332° | 20km/h | 25476m | 5.1m/s | -51.1°C | 0% | 25hPa | 2.7V | 03:36:43 | 01:48:02 | 00:00:00 | |
| DL1XH-west | 2026-09-06 00:10:48 | 52.12941 | 11.36780 | 298° | 18km/h | 25454m | 4.2m/s | -51.1°C | 0% | 25.1hPa | 2.7V | 03:36:43 | 01:47:58 | 00:00:00 | |
| DO2JMG | 2026-09-06 00:10:45 | 52.12932 | 11.36795 | 336° | 16km/h | 25438m | 5.7m/s | -51°C | 0% | 25.1hPa | 2.6V | 03:37:34 | 01:47:55 | 00:00:00 | |
| DO2SHX-10 | 2026-09-06 00:10:45 | 52.12932 | 11.36795 | 337° | 16km/h | 25439m | 5.7m/s | -51.0°C | 3.3% | 25.1hPa | 2.6V | 00:00:00 | 01:47:55 | 00:00:00 | |
| DL1XH1-15 | 2026-09-06 00:10:44 | 52.12924 | 11.36797 | 357° | 15km/h | 25428m | 5.8m/s | -51°C | 3.4% | 25.2hPa | 2.6V | 03:36:47 | 01:47:53 | 00:00:00 | |
| HSKMA3-T | 2026-09-06 00:10:43 | 52.12924 | 11.36797 | 358° | 15km/h | 25428m | 5.8m/s | -51°C | 0% | 25.2hPa | 2.6V | 03:37:34 | 01:47:53 | 00:00:00 | |
| AA1-15 | 2026-09-06 00:10:42 | 52.12921 | 11.36797 | 7° | 11km/h | 25422m | 6m/s | -51°C | 0% | 25.2hPa | 2.7V | 03:37:34 | 01:47:52 | 00:00:00 | |
| DO2SHX-10 | 2026-09-06 00:10:42 | 52.12921 | 11.36797 | 8° | 11km/h | 25422m | 6.0m/s | -51.0°C | 3.3% | 25.2hPa | 2.6V | 03:36:00 | 01:47:52 | 00:00:00 | |
| DB0DAN | 2026-09-06 00:10:40 | 52.12916 | 11.36796 | 12° | 9km/h | 25412m | 4.2m/s | -51°C | 0.7% | 25.26hPa | 2.6V | 00:00:00 | 00:00:00 | 00:00:00 | |
| DL1XH-west | 2026-09-06 00:10:38 | 52.12907 | 11.36797 | 337° | 16km/h | 25396m | 4.5m/s | -50.9°C | 0% | 25.4hPa | 2.7V | 03:37:34 | 01:47:47 | 00:00:00 | |
| GOEST3-10 | 2026-09-06 00:10:37 | 52.12907 | 11.36797 | 338° | 16km/h | 25396m | 4.4m/s | -50.8°C | 3.3% | 25.3hPa | 2.6V | 00:00:00 | 01:47:47 | 00:00:00 | |
| DM0DOS-11 | 2026-09-06 00:10:36 | 52.12899 | 11.36824 | 279° | 16km/h | 25371m | 4.8m/s | -50.6°C | 3.2% | 25.4hPa | 2.6V | 03:36:58 | 01:47:42 | 00:00:00 | |
| DL1XH1-15 | 2026-09-06 00:10:36 | 52.12899 | 11.36817 | 274° | 16km/h | 25376m | 4.1m/s | -50.7°C | 3.2% | 25.4hPa | 2.6V | 03:36:57 | 01:47:43 | 00:00:00 | |
| DO2JMG | 2026-09-06 00:10:35 | 52.12901 | 11.36805 | 300° | 15km/h | 25386m | 6.5m/s | -50.8°C | 0% | 25.4hPa | 2.7V | 03:37:34 | 01:47:45 | 00:00:00 | |
| HSKMA3-T | 2026-09-06 00:10:33 | 52.12899 | 11.36817 | 274° | 16km/h | 25376m | 4.1m/s | -50.7°C | 0% | 25.4hPa | 2.6V | 03:37:34 | 01:47:43 | 00:00:00 | |
| AA1-15 | 2026-09-06 00:10:31 | 52.12898 | 11.36831 | 295° | 18km/h | 25366m | 5.8m/s | -50.6°C | 0% | 25.4hPa | 2.7V | 03:37:34 | 01:47:41 | 00:00:00 | |
| DO2SHX-10 | 2026-09-06 00:10:30 | 52.12895 | 11.36837 | 308° | 20km/h | 25361m | 5.4m/s | -50.5°C | 3.1% | 25.4hPa | 2.6V | 03:37:00 | 01:47:40 | 00:00:00 | |
| DD8BA-10 | 2026-09-06 00:10:29 | 52.12892 | 11.36843 | 314° | 15km/h | 25355m | 4.8m/s | -50.5°C | 3.1% | 25.4hPa | 2.6V | 00:00:00 | 00:00:00 | 00:00:00 | |
| DL1XH1-15 | 2026-09-06 00:10:28 | 52.12876 | 11.36877 | 315° | 9km/h | 25322m | 6m/s | -50.5°C | 3.1% | 25.6hPa | 2.6V | 03:37:07 | 01:47:33 | 00:00:00 | |
| DL1XH-west | 2026-09-06 00:10:26 | 52.12882 | 11.36863 | 301° | 18km/h | 25339m | 5.2m/s | -50.6°C | 0% | 25.5hPa | 2.7V | 03:37:34 | 01:47:36 | 00:00:00 | |
| DM0DOS-11 | 2026-09-06 00:10:26 | 52.12875 | 11.36879 | 304° | 4km/h | 25317m | 4.4m/s | -50.5°C | 3.1% | 25.6hPa | 2.6V | 03:37:08 | 01:47:32 | 00:00:00 | |
| DB0DAN | 2026-09-06 00:10:25 | 52.12880 | 11.36869 | 301° | 15km/h | 25334m | 4.7m/s | -50.6°C | 0.7% | 25.58hPa | 2.7V | 00:00:00 | 00:00:00 | 00:00:00 | |
| DO2JMG | 2026-09-06 00:10:22 | 52.12875 | 11.36879 | 304° | 4km/h | 25317m | 4.4m/s | -50.5°C | 0% | 25.6hPa | 2.6V | 03:37:34 | 01:47:32 | 00:00:00 | |
| AA1-15 | 2026-09-06 00:10:21 | 52.12875 | 11.36880 | 261° | 4km/h | 25312m | 4.9m/s | -50.4°C | 0% | 25.6hPa | 2.6V | 03:37:34 | 01:47:31 | 00:00:00 | |
| DO2SHX-10 | 2026-09-06 00:10:21 | 52.12875 | 11.36880 | 262° | 7km/h | 25312m | 4.9m/s | -50.4°C | 3.1% | 25.6hPa | 2.6V | 00:00:00 | 01:47:31 | 00:00:00 | |
| DF7ER-10 | 2026-09-06 00:10:20 | 52.12875 | 11.36880 | 262° | 4km/h | 25312m | 4.9m/s | -50.4°C | 0.6% | 25.6hPa | 2.6V | 03:37:00 | 00:00:00 | 00:00:00 | |
| DD8BA-10 | 2026-09-06 00:10:19 | 52.12877 | 11.36886 | 241° | 16km/h | 25300m | 5.3m/s | -50.5°C | 3.1% | 25.7hPa | 2.6V | 00:00:00 | 00:00:00 | 00:00:00 | |
| DO2SHX-10 | 2026-09-06 00:10:18 | 52.12878 | 11.36890 | 259° | 16km/h | 25295m | 4.6m/s | -50.7°C | 3.1% | 25.7hPa | 2.6V | 03:37:00 | 01:47:28 | 00:00:00 | |
| GOEST3-10 | 2026-09-06 00:10:17 | 52.12878 | 11.36897 | 279° | 20km/h | 25290m | 5.8m/s | -51.0°C | 3.2% | 25.7hPa | 2.6V | 00:00:00 | 01:47:27 | 00:00:00 | |
| DM0DOS-11 | 2026-09-06 00:10:16 | 52.12866 | 11.36934 | 288° | 18km/h | 25261m | 5.5m/s | -51.2°C | 3.3% | 25.9hPa | 2.6V | 03:37:18 | 01:47:22 | 00:00:00 | |
| DL1XH1-15 | 2026-09-06 00:10:16 | 52.12868 | 11.36926 | 298° | 22km/h | 25266m | 5.7m/s | -51.2°C | 3.2% | 25.8hPa | 2.7V | 03:37:17 | 01:47:23 | 00:00:00 | |
| DL1XH-west | 2026-09-06 00:10:15 | 52.12874 | 11.36911 | 303° | 22km/h | 25277m | 5.6m/s | -51.2°C | 0% | 25.8hPa | 2.7V | 03:37:34 | 01:47:25 | 00:00:00 | |
| DO2JMG | 2026-09-06 00:10:12 | 52.12866 | 11.36934 | 288° | 18km/h | 25261m | 5.5m/s | -51.2°C | 0% | 25.9hPa | 2.6V | 03:37:34 | 01:47:22 | 00:00:00 | |
| DF8AY | 2026-09-06 00:10:11 | 52.12866 | 11.36940 | 268° | 15km/h | 25255m | 5.4m/s | -51.2°C | 0% | 25.9hPa | 2.6V | 03:37:34 | 01:47:21 | 00:00:00 | |
| DB0DAN | 2026-09-06 00:10:10 | 52.12866 | 11.36945 | 246° | 11km/h | 25250m | 6.1m/s | -51.2°C | 0.7% | 25.9hPa | 2.6V | 00:00:00 | 00:00:00 | 00:00:00 | |
| AA1-15 | 2026-09-06 00:10:10 | 52.12866 | 11.36945 | 246° | 11km/h | 25250m | 6.1m/s | -51.2°C | 0% | 25.9hPa | 2.6V | 03:37:34 | 01:47:20 | 00:00:00 | |
| DO2SHX-10 | 2026-09-06 00:10:09 | 52.12868 | 11.36949 | 218° | 11km/h | 25244m | 6.9m/s | -51.2°C | 3.3% | 25.9hPa | 2.7V | 00:00:00 | 01:47:19 | 00:00:00 | |
| AU51GT2 | 2026-09-06 00:10:08 | 52.12870 | 11.36950 | 193° | 9km/h | 25237m | 5.9m/s | -51.2°C | 0.6% | 26.0hPa | 2.7V | 00:00:00 | 00:00:00 | 00:00:00 | |
| GOEST3-10 | 2026-09-06 00:10:07 | 52.12873 | 11.36951 | 187° | 20km/h | 25232m | 3.9m/s | -51.1°C | 3.3% | 25.9hPa | 2.7V | 00:00:00 | 01:47:17 | 00:00:00 | |
| DL1XH1-15 | 2026-09-06 00:10:06 | 52.12894 | 11.36960 | 203° | 24km/h | 25208m | 5.2m/s | -51.1°C | 3.2% | 26.1hPa | 2.7V | 03:37:27 | 01:47:13 | 00:00:00 | |
| DL1XH-15 | 2026-09-06 00:10:06 | 52.12899 | 11.36964 | 209° | 20km/h | 25203m | 6.2m/s | -51.1°C | 3.3% | 26.1hPa | 2.7V | 03:37:28 | 01:47:12 | 00:00:00 | |
| DL1XH-west | 2026-09-06 00:10:04 | 52.12888 | 11.36956 | 199° | 24km/h | 25214m | 6m/s | -51.1°C | 0% | 26hPa | 2.7V | 03:37:34 | 01:47:14 | 00:00:00 | |
| DO2JMG | 2026-09-06 00:10:01 | 52.12902 | 11.36968 | 220° | 16km/h | 25197m | 5.8m/s | 0°C | 0% | 26.1hPa | 2.6V | 03:37:34 | 01:47:11 | 00:00:00 | |
| AA1-15 | 2026-09-06 00:10:00 | 52.12905 | 11.36972 | 230° | 13km/h | 25191m | 5.1m/s | -51.1°C | 0% | 26.1hPa | 2.6V | 03:37:34 | 01:47:10 | 00:00:00 | |
| DO2SHX-10 | 2026-09-06 00:10:00 | 52.12905 | 11.36972 | 231° | 15km/h | 25191m | 5.1m/s | -51.1°C | 3.2% | 26.1hPa | 2.6V | 00:00:00 | 01:47:10 | 00:00:00 | |
| DD8BA-10 | 2026-09-06 00:09:59 | 52.12907 | 11.36976 | 232° | 16km/h | 25186m | 5.4m/s | -51.1°C | 3.4% | 26.1hPa | 2.7V | 03:37:00 | 00:00:00 | 00:00:00 | |
| DO2SHX-10 | 2026-09-06 00:09:57 | 52.12912 | 11.36985 | 220° | 16km/h | 25175m | 4.7m/s | -51.1°C | 3.3% | 26.1hPa | 2.7V | 00:00:00 | 01:47:07 | 00:00:00 | |
| DL1XH1-15 | 2026-09-06 00:09:56 | 52.12926 | 11.36993 | 169° | 15km/h | 25154m | 5.3m/s | -51.1°C | 3.3% | 26.3hPa | 2.7V | 03:37:37 | 01:47:03 | 00:00:00 | |
| DM0DOS-11 | 2026-09-06 00:09:56 | 52.12931 | 11.36991 | 164° | 18km/h | 25149m | 4.8m/s | -51.1°C | 3.3% | 26.3hPa | 2.7V | 03:37:38 | 01:47:02 | 00:00:00 | |
| BIOWL1-15 | 2026-09-06 00:09:55 | 52.12927 | 11.36993 | 170° | 15km/h | 25154m | 5.3m/s | -51.1°C | 0% | 26.3hPa | 2.7V | 03:40:07 | 01:47:03 | 00:00:00 | |
| DB0DAN | 2026-09-06 00:09:55 | 52.12919 | 11.36992 | 199° | 15km/h | 25166m | 5m/s | -51.1°C | 0.7% | 26.23hPa | 2.6V | 00:00:00 | 00:00:00 | 00:00:00 | |
| DL1XH-west | 2026-09-06 00:09:54 | 52.12923 | 11.36993 | 184° | 15km/h | 25160m | 6.1m/s | -51.1°C | 0% | 26.3hPa | 2.6V | 03:38:25 | 01:47:04 | 00:00:00 | |
| HSKMA3-T | 2026-09-06 00:09:51 | 52.12936 | 11.36989 | 167° | 22km/h | 25144m | 5m/s | -51.1°C | 0% | 26.3hPa | 2.7V | 03:38:25 | 01:47:01 | 00:00:00 | |
| DO2JMG | 2026-09-06 00:09:50 | 52.12942 | 11.36987 | 173° | 27km/h | 25139m | 6.3m/s | 0°C | 0% | 26.3hPa | 2.6V | 03:38:25 | 01:47:00 | 00:00:00 | |
| AA1-15 | 2026-09-06 00:09:49 | 52.12949 | 11.36987 | 182° | 31km/h | 25133m | 5.6m/s | -51°C | 0% | 26.4hPa | 2.6V | 03:38:25 | 01:46:59 | 00:00:00 | |
| DD8BA-10 | 2026-09-06 00:09:49 | 52.12949 | 11.36987 | 182° | 22km/h | 25133m | 5.6m/s | -51.0°C | 3.2% | 26.3hPa | 2.7V | 00:00:00 | 00:00:00 | 00:00:00 | |
| DF7ER-10 | 2026-09-06 00:09:48 | 52.12949 | 11.36986 | 183° | 31km/h | 25133m | 5.6m/s | -51.0°C | 0.7% | 26.4hPa | 2.7V | 03:38:00 | 00:00:00 | 00:00:00 | |
| GOEST3-10 | 2026-09-06 00:09:47 | 52.12965 | 11.36990 | 194° | 22km/h | 25122m | 5.6m/s | -51.0°C | 3.3% | 26.4hPa | 2.7V | 00:00:00 | 01:46:57 | 00:00:00 | |
| DM0DOS-11 | 2026-09-06 00:09:46 | 52.12989 | 11.37001 | 180° | 16km/h | 25095m | 5.7m/s | -51.2°C | 3.3% | 26.5hPa | 2.7V | 03:37:48 | 01:46:52 | 00:00:00 | |
| S3001 | 2026-09-06 00:09:45 | 52.12977 | 11.36996 | 200° | 18km/h | 25111m | 4.7m/s | -51.1°C | 0.7% | 26.5hPa | 2.6V | 00:00:00 | 00:00:00 | 00:00:00 | |
| DL1XH-west | 2026-09-06 00:09:44 | 52.12985 | 11.37000 | 191° | 16km/h | 25101m | 5.8m/s | -51.2°C | 0% | 26.5hPa | 2.6V | 03:38:25 | 01:46:53 | 00:00:00 | |
| HSKMA3-T | 2026-09-06 00:09:41 | 52.12993 | 11.37000 | 171° | 15km/h | 25090m | 4.7m/s | -51.1°C | 0% | 26.5hPa | 2.7V | 03:38:25 | 01:46:51 | 00:00:00 | |
| DB0DAN | 2026-09-06 00:09:40 | 52.12996 | 11.36999 | 160° | 13km/h | 25085m | 5.1m/s | -51.1°C | 0.6% | 26.58hPa | 2.7V | 00:00:00 | 00:00:00 | 00:00:00 | |
| AA1-15 | 2026-09-06 00:09:39 | 52.12999 | 11.36997 | 152° | 11km/h | 25080m | 6.3m/s | -51.1°C | 0% | 26.6hPa | 2.6V | 03:38:25 | 01:46:49 | 00:00:00 | |
| DO2JMG | 2026-09-06 00:09:38 | 52.13002 | 11.36995 | 143° | 11km/h | 25074m | 5.5m/s | 0°C | 0% | 26.6hPa | 2.6V | 03:38:25 | 01:46:48 | 00:00:00 | |
| GOEST3-10 | 2026-09-06 00:09:37 | 52.13004 | 11.36992 | 149° | 20km/h | 25069m | 4.5m/s | -51.0°C | 3.2% | 26.6hPa | 2.6V | 00:00:00 | 01:46:47 | 00:00:00 | |
| DL1XH1-15 | 2026-09-06 00:09:36 | 52.13023 | 11.36985 | 174° | 24km/h | 25048m | 4.2m/s | -51.1°C | 3.2% | 26.7hPa | 2.6V | 03:37:57 | 01:46:43 | 00:00:00 | |
| DL1XH-west | 2026-09-06 00:09:33 | 52.13023 | 11.36985 | 175° | 24km/h | 25048m | 4.2m/s | -51.1°C | 0% | 26.7hPa | 2.6V | 03:38:25 | 01:46:43 | 00:00:00 | |
| HSKMA3-T | 2026-09-06 00:09:31 | 52.13034 | 11.36983 | 177° | 16km/h | 25037m | 5.8m/s | -51°C | 0% | 26.8hPa | 2.7V | 03:38:25 | 01:46:41 | 00:00:00 | |
| AA1-15 | 2026-09-06 00:09:29 | 52.13041 | 11.36983 | 179° | 13km/h | 25026m | 5.5m/s | -51.1°C | 0% | 26.8hPa | 2.7V | 03:38:25 | 01:46:39 | 00:00:00 | |
| DO2JMG | 2026-09-06 00:09:27 | 52.13046 | 11.36983 | 180° | 13km/h | 25015m | 4.8m/s | 0°C | 0% | 26.9hPa | 2.6V | 03:38:25 | 01:46:37 | 00:00:00 | |
| DO2SHX-10 | 2026-09-06 00:09:27 | 52.13046 | 11.36983 | 180° | 9km/h | 25015m | 4.8m/s | -51.1°C | 3.3% | 26.8hPa | 2.7V | 00:00:00 | 01:46:37 | 00:00:00 | |
| DB0DAN | 2026-09-06 00:09:25 | 52.13051 | 11.36983 | 185° | 7km/h | 25005m | 5.8m/s | -51.2°C | 0.7% | 26.9hPa | 2.7V | 00:00:00 | 00:00:00 | 00:00:00 | |
| DL1XH-west | 2026-09-06 00:09:23 | 52.13055 | 11.36984 | 179° | 7km/h | 24994m | 4.7m/s | -51.3°C | 0% | 26.9hPa | 2.6V | 03:38:25 | 01:46:33 | 00:00:00 | |
| HSKMA3-T | 2026-09-06 00:09:21 | 52.13060 | 11.36982 | 165° | 16km/h | 24984m | 5.9m/s | -51.3°C | 0% | 27hPa | 2.6V | 03:38:25 | 01:46:31 | 00:00:00 | |
| AA1-15 | 2026-09-06 00:09:18 | 52.13074 | 11.36973 | 151° | 20km/h | 24969m | 5.2m/s | -51.4°C | 0% | 27.1hPa | 2.7V | 03:38:25 | 01:46:28 | 00:00:00 | |
| DF8AY | 2026-09-06 00:09:16 | 52.13080 | 11.36966 | 142° | 9km/h | 24958m | 5m/s | -51.5°C | 0% | 27.1hPa | 2.6V | 03:38:25 | 01:46:26 | 00:00:00 | |
| DM0DOS-11 | 2026-09-06 00:09:16 | 52.13085 | 11.36971 | 238° | 15km/h | 24937m | 5.7m/s | -51.4°C | 3.3% | 27.2hPa | 2.6V | 03:38:18 | 01:46:22 | 00:00:00 | |
| DL1XH-west | 2026-09-06 00:09:12 | 52.13085 | 11.36971 | 239° | 15km/h | 24937m | 5.7m/s | -51.4°C | 0% | 27.2hPa | 2.6V | 03:38:25 | 01:46:22 | 00:00:00 | |
| HSKMA3-T | 2026-09-06 00:09:10 | 52.13089 | 11.36983 | 248° | 16km/h | 24927m | 5m/s | -51.5°C | 0% | 27.2hPa | 2.6V | 03:38:25 | 01:46:20 | 00:00:00 | |
| DB0DAN | 2026-09-06 00:09:10 | 52.13089 | 11.36983 | 248° | 15km/h | 24927m | 5m/s | -51.5°C | 0.7% | 27.22hPa | 2.6V | 00:00:00 | 00:00:00 | 00:00:00 | |
| AA1-15 | 2026-09-06 00:09:07 | 52.13093 | 11.36997 | 230° | 9km/h | 24910m | 4.5m/s | -51.6°C | 0% | 27.3hPa | 2.7V | 03:38:25 | 01:46:17 | 00:00:00 | |
| DF8AY | 2026-09-06 00:09:06 | 52.13094 | 11.36999 | 209° | 9km/h | 24905m | 6.4m/s | -51.6°C | 0% | 27.3hPa | 2.6V | 03:38:25 | 01:46:16 | 00:00:00 | |
| DO2JMG | 2026-09-06 00:09:05 | 52.13097 | 11.37000 | 192° | 11km/h | 24899m | 5.9m/s | 0°C | 0% | 27.3hPa | 2.6V | 03:38:25 | 01:46:15 | 00:00:00 | |
| DL1NUX | 2026-09-06 00:09:05 | 52.13105 | 11.37000 | 169° | 7km/h | 24882m | 6.7m/s | -51.5°C | 3.3% | 27.4hPa | 2.7V | 03:38:28 | 01:46:12 | 00:00:00 | |
| DL1XH-west | 2026-09-06 00:09:02 | 52.13106 | 11.36999 | 171° | 5km/h | 24876m | 5.9m/s | -51.5°C | 0% | 27.4hPa | 2.6V | 03:39:16 | 01:46:11 | 00:00:00 | |
| HSKMA3-T | 2026-09-06 00:08:59 | 52.13108 | 11.37001 | 230° | 7km/h | 24864m | 6.3m/s | -51.5°C | 0% | 27.5hPa | 2.6V | 03:39:16 | 01:46:09 | 00:00:00 | |
| AA1-15 | 2026-09-06 00:08:57 | 52.13111 | 11.37007 | 237° | 11km/h | 24853m | 4.2m/s | -51.4°C | 0% | 27.5hPa | 2.7V | 03:39:16 | 01:46:07 | 00:00:00 | |
| DO2SHX-10 | 2026-09-06 00:08:57 | 52.13111 | 11.37007 | 238° | 7km/h | 24853m | 4.2m/s | -51.4°C | 3.3% | 27.5hPa | 2.7V | 00:00:00 | 01:46:07 | 00:00:00 | |
| DL1XH1-15 | 2026-09-06 00:08:56 | 52.13113 | 11.37016 | 211° | 4km/h | 24832m | 4.5m/s | -51.4°C | 3.4% | 27.6hPa | 2.6V | 03:38:37 | 01:46:03 | 00:00:00 | |
| DF8AY | 2026-09-06 00:08:56 | 52.13121 | 11.37020 | 198° | 20km/h | 24816m | 5.2m/s | -51.6°C | 0% | 27.7hPa | 2.6V | 03:39:16 | 01:46:00 | 00:00:00 | |
| DB0DAN | 2026-09-06 00:08:55 | 52.13112 | 11.37013 | 264° | 5km/h | 24843m | 6.3m/s | -51.4°C | 0.7% | 27.56hPa | 2.6V | 00:00:00 | 00:00:00 | 00:00:00 | |
| DO2JMG | 2026-09-06 00:08:55 | 52.13112 | 11.37013 | 264° | 5km/h | 24843m | 6.3m/s | 0°C | 0% | 0hPa | 2.6V | 03:40:58 | 01:46:05 | 00:00:00 | |
| DL1XH-west | 2026-09-06 00:08:51 | 52.13117 | 11.37018 | 192° | 15km/h | 24822m | 6.5m/s | -51.5°C | 0% | 27.6hPa | 2.7V | 03:39:16 | 01:46:01 | 00:00:00 | |
| HSKMA3-T | 2026-09-06 00:08:48 | 52.13131 | 11.37027 | 212° | 22km/h | 24806m | 5.1m/s | -51.9°C | 0.2% | 27.7hPa | 2.6V | 03:39:16 | 01:45:58 | 00:00:00 | |
| AA1-15 | 2026-09-06 00:08:47 | 52.13135 | 11.37032 | 225° | 18km/h | 24801m | 5.7m/s | -51.9°C | 0% | 27.8hPa | 2.7V | 03:39:16 | 01:45:57 | 00:00:00 | |
| BIOWL1-15 | 2026-09-06 00:08:45 | 52.13139 | 11.37042 | 251° | 11km/h | 24790m | 5.3m/s | -51.9°C | 0% | 27.8hPa | 2.7V | 03:40:07 | 01:45:55 | 00:00:00 | |
| DO2JMG | 2026-09-06 00:08:44 | 52.13139 | 11.37045 | 255° | 7km/h | 24784m | 5.9m/s | 0°C | 0% | 0hPa | 2.6V | 03:40:58 | 01:45:54 | 00:00:00 | |
| DF8AY | 2026-09-06 00:08:42 | 52.13140 | 11.37048 | 243° | 2km/h | 24772m | 4.8m/s | -51.8°C | 0.2% | 27.8hPa | 2.6V | 03:39:16 | 01:45:52 | 00:00:00 | |
| DL1XH-west | 2026-09-06 00:08:40 | 52.13140 | 11.37049 | 297° | 2km/h | 24762m | 6.4m/s | -51.7°C | 0.1% | 27.9hPa | 2.7V | 03:39:16 | 01:45:50 | 00:00:00 | |
| DB0DAN | 2026-09-06 00:08:40 | 52.13140 | 11.37049 | 297° | 2km/h | 24762m | 6.4m/s | -51.7°C | 0.7% | 27.93hPa | 2.7V | 00:00:00 | 00:00:00 | 00:00:00 | |
| DO2SHX-10 | 2026-09-06 00:08:39 | 52.13140 | 11.37051 | 261° | 11km/h | 24757m | 4.6m/s | -51.6°C | 3.4% | 27.8hPa | 2.6V | 00:00:00 | 01:45:49 | 00:00:00 | |
| DL1XH1-15 | 2026-09-06 00:08:38 | 52.13160 | 11.37092 | 239° | 29km/h | 24725m | 5.8m/s | -51.3°C | 3.3% | 28hPa | 2.6V | 03:38:57 | 01:45:43 | 00:00:00 | |
| HSKMA3-T | 2026-09-06 00:08:38 | 52.13141 | 11.37054 | 237° | 11km/h | 24752m | 4.1m/s | -51.6°C | 0% | 27.9hPa | 2.6V | 03:39:16 | 01:45:48 | 00:00:00 | |
| AA1-15 | 2026-09-06 00:08:36 | 52.13147 | 11.37065 | 225° | 24km/h | 24741m | 6.3m/s | -51.5°C | 0.1% | 28hPa | 2.7V | 03:39:16 | 01:45:46 | 00:00:00 | |
| DF8AY | 2026-09-06 00:08:32 | 52.13163 | 11.37102 | 251° | 26km/h | 24719m | 6.5m/s | -51.3°C | 0% | 28.1hPa | 2.6V | 03:39:16 | 01:45:42 | 00:00:00 | |
| DL1XH-west | 2026-09-06 00:08:30 | 52.13165 | 11.37120 | 272° | 20km/h | 24708m | 5.2m/s | -51.3°C | 0% | 28.1hPa | 2.7V | 03:39:16 | 01:45:40 | 00:00:00 | |
| HSKMA3-T | 2026-09-06 00:08:28 | 52.13166 | 11.37138 | 228° | 13km/h | 24691m | 5.6m/s | -51.2°C | 0% | 28.2hPa | 2.6V | 03:39:16 | 01:45:37 | 00:00:00 | |
| DD8BA-10 | 2026-09-06 00:08:28 | 52.13165 | 11.37133 | 254° | 18km/h | 24697m | 6.5m/s | -51.2°C | 3.4% | 28.1hPa | 2.7V | 00:00:00 | 00:00:00 | 00:00:00 | |
| DL1XH1-15 | 2026-09-06 00:08:27 | 52.13179 | 11.37155 | 230° | 20km/h | 24668m | 6.2m/s | -51.1°C | 3.3% | 28.3hPa | 2.7V | 03:39:07 | 01:45:33 | 00:00:00 | |
| AA1-15 | 2026-09-06 00:08:27 | 52.13169 | 11.37141 | 216° | 15km/h | 24685m | 4.8m/s | -51.2°C | 0.1% | 28.2hPa | 2.6V | 03:39:16 | 01:45:36 | 00:00:00 | |
| DB0DAN | 2026-09-06 00:08:25 | 52.13172 | 11.37145 | 217° | 16km/h | 24680m | 4.8m/s | -51.2°C | 0.7% | 28.28hPa | 2.7V | 00:00:00 | 00:00:00 | 00:00:00 | |
| DF8AY | 2026-09-06 00:08:20 | 52.13188 | 11.37177 | 231° | 24km/h | 24652m | 6.6m/s | -51°C | 0% | 28.4hPa | 2.6V | 03:39:16 | 01:45:30 | 00:00:00 | |
| DL1XH-west | 2026-09-06 00:08:19 | 52.13193 | 11.37185 | 225° | 26km/h | 24646m | 6.6m/s | -51°C | 0% | 28.4hPa | 2.7V | 03:39:16 | 01:45:29 | 00:00:00 | |
| AA1-15 | 2026-09-06 00:08:16 | 52.13206 | 11.37209 | 231° | 24km/h | 24628m | 6.2m/s | -50.9°C | 0% | 28.5hPa | 2.6V | 03:39:16 | 01:45:26 | 00:00:00 | |
| DM0DOS-11 | 2026-09-06 00:08:16 | 52.13228 | 11.37237 | 203° | 22km/h | 24600m | 4.6m/s | -50.7°C | 3.2% | 28.6hPa | 2.6V | 03:39:19 | 01:45:21 | 00:00:00 | |
| DO3MHA-11 | 2026-09-06 00:08:15 | 52.13210 | 11.37216 | 231° | 22km/h | 24623m | 4.3m/s | -50.8°C | 3.3% | 28.5hPa | 2.6V | 00:00:00 | 01:45:25 | 00:00:00 | |
| DJ8HS-15 | 2026-09-06 00:08:14 | 52.13214 | 11.37223 | 225° | 24km/h | 24618m | 5.1m/s | -50.7°C | 3.3% | 28.5hPa | 2.6V | 00:00:00 | 01:45:24 | 00:00:00 | |
| DO9LL-15 | 2026-09-06 00:08:12 | 52.13223 | 11.37233 | 207° | 22km/h | 24606m | 5.8m/s | -50.6°C | 3.3% | 28.5hPa | 2.6V | 03:39:00 | 01:45:22 | 00:00:00 | |
| DB0DAN | 2026-09-06 00:08:10 | 52.13233 | 11.37241 | 207° | 20km/h | 24595m | 6.3m/s | -50.6°C | 0.7% | 28.66hPa | 2.6V | 00:00:00 | 00:00:00 | 00:00:00 | |
| DF8AY | 2026-09-06 00:08:09 | 52.13237 | 11.37245 | 213° | 20km/h | 24589m | 5.7m/s | -50.6°C | 0% | 28.6hPa | 2.6V | 03:40:07 | 01:45:19 | 00:00:00 | |
| DL1XH-west | 2026-09-06 00:08:08 | 52.13242 | 11.37250 | 216° | 22km/h | 24583m | 5.3m/s | -50.6°C | 0% | 28.7hPa | 2.6V | 03:40:07 | 01:45:18 | 00:00:00 | |
| HSKMA3-T | 2026-09-06 00:08:07 | 52.13251 | 11.37262 | 215° | 26km/h | 24571m | 6.1m/s | -50.6°C | 0% | 28.7hPa | 2.7V | 03:40:07 | 01:45:16 | 00:00:00 | |
| DM0DOS-11 | 2026-09-06 00:08:07 | 52.13275 | 11.37298 | 228° | 24km/h | 24543m | 4.9m/s | -50.5°C | 3.2% | 28.9hPa | 2.7V | 03:39:29 | 01:45:11 | 00:00:00 | |
| AA1-15 | 2026-09-06 00:08:05 | 52.13257 | 11.37268 | 217° | 27km/h | 24565m | 4.9m/s | -50.5°C | 0% | 28.7hPa | 2.7V | 03:40:07 | 01:45:15 | 00:00:00 | |
| DF8AY | 2026-09-06 00:07:59 | 52.13289 | 11.37316 | 206° | 24km/h | 24527m | 4.5m/s | -50.5°C | 0% | 29hPa | 2.6V | 03:40:07 | 01:45:08 | 00:00:00 | |
| DL1XH-west | 2026-09-06 00:07:57 | 52.13295 | 11.37320 | 204° | 22km/h | 24522m | 5.1m/s | -50.5°C | 0% | 29hPa | 2.6V | 03:40:07 | 01:45:07 | 00:00:00 | |
| HSKMA3-T | 2026-09-06 00:07:56 | 52.13299 | 11.37324 | 205° | 20km/h | 24516m | 6.3m/s | -50.4°C | 0% | 29hPa | 2.7V | 03:40:07 | 01:45:06 | 00:00:00 | |
| DL1XH1-15 | 2026-09-06 00:07:56 | 52.13313 | 11.37336 | 211° | 24km/h | 24500m | 6.1m/s | -50.4°C | 3.2% | 29hPa | 2.6V | 03:39:37 | 01:45:03 | 00:00:00 | |
| DM0DOS-11 | 2026-09-06 00:07:56 | 52.13324 | 11.37347 | 208° | 27km/h | 24488m | 4.8m/s | -50.3°C | 3.2% | 29.1hPa | 2.6V | 03:39:39 | 01:45:01 | 00:00:00 | |
| DB0DAN | 2026-09-06 00:07:55 | 52.13304 | 11.37327 | 209° | 20km/h | 24510m | 5.3m/s | -50.4°C | 0.7% | 29.02hPa | 2.7V | 00:00:00 | 00:00:00 | 00:00:00 | |
| AA1-15 | 2026-09-06 00:07:54 | 52.13308 | 11.37332 | 211° | 20km/h | 24505m | 5m/s | -50.4°C | 0% | 29hPa | 2.7V | 03:40:07 | 01:45:04 | 00:00:00 | |
| DF8AY | 2026-09-06 00:07:49 | 52.13339 | 11.37361 | 215° | 16km/h | 24472m | 6.1m/s | -50.3°C | 0% | 29.2hPa | 2.6V | 03:40:07 | 01:44:58 | 00:00:00 | |
| DL1XH-west | 2026-09-06 00:07:47 | 52.13342 | 11.37364 | 217° | 13km/h | 24466m | 4.9m/s | -50.3°C | 0% | 29.2hPa | 2.6V | 03:40:07 | 01:44:57 | 00:00:00 | |
| DL1XH1-15 | 2026-09-06 00:07:46 | 52.13356 | 11.37374 | 192° | 18km/h | 24444m | 5.1m/s | -50.2°C | 3.2% | 29.3hPa | 2.7V | 03:39:47 | 01:44:53 | 00:00:00 | |
| HSKMA3-T | 2026-09-06 00:07:46 | 52.13345 | 11.37367 | 208° | 13km/h | 24461m | 5m/s | -50.3°C | 0% | 29.2hPa | 2.6V | 03:40:07 | 01:44:56 | 00:00:00 | |
| AA1-15 | 2026-09-06 00:07:44 | 52.13352 | 11.37372 | 195° | 18km/h | 24449m | 5.9m/s | -50.3°C | 0% | 29.3hPa | 2.7V | 03:40:07 | 01:44:54 | 00:00:00 | |
| AM1SDL-15 | 2026-09-06 00:07:43 | 52.13356 | 11.37373 | 193° | 16km/h | 24444m | 5.0m/s | -50.2°C | 3.2% | 29.2hPa | 2.6V | 00:00:00 | 01:44:53 | 00:00:00 | |
| DO9LL-15 | 2026-09-06 00:07:42 | 52.13361 | 11.37375 | 192° | 22km/h | 24438m | 6.1m/s | -50.2°C | 3.1% | 29.3hPa | 2.6V | 00:00:00 | 01:44:52 | 00:00:00 | |
| DB0DAN | 2026-09-06 00:07:40 | 52.13368 | 11.37378 | 196° | 15km/h | 24426m | 5m/s | -50.2°C | 0.7% | 29.37hPa | 2.6V | 00:00:00 | 00:00:00 | 00:00:00 | |
| DF8AY | 2026-09-06 00:07:38 | 52.13376 | 11.37382 | 201° | 18km/h | 24415m | 6.8m/s | -50.2°C | 0% | 29.4hPa | 2.7V | 03:40:07 | 01:44:48 | 00:00:00 | |
| HSKMA3-T | 2026-09-06 00:07:36 | 52.13386 | 11.37388 | 205° | 20km/h | 24405m | 4.2m/s | -50.2°C | 0% | 29.5hPa | 2.6V | 03:40:07 | 01:44:46 | 00:00:00 | |
| DL1XH1-15 | 2026-09-06 00:07:36 | 52.13396 | 11.37399 | 226° | 11km/h | 24388m | 6m/s | -50.2°C | 3.1% | 29.6hPa | 2.7V | 03:39:57 | 01:44:43 | 00:00:00 | |
| AA1-15 | 2026-09-06 00:07:33 | 52.13396 | 11.37399 | 226° | 11km/h | 24388m | 6m/s | -50.2°C | 0% | 29.6hPa | 2.7V | 03:40:07 | 01:44:43 | 00:00:00 | |
| BIOWL1-15 | 2026-09-06 00:07:31 | 52.13408 | 11.37405 | 178° | 22km/h | 24365m | 5.6m/s | -50.7°C | 0% | 29.7hPa | 2.6V | 03:40:07 | 01:44:39 | 00:00:00 | |
| DL1XH-west | 2026-09-06 00:07:26 | 52.13426 | 11.37399 | 160° | 26km/h | 24349m | 6.5m/s | -50.8°C | 0% | 29.7hPa | 2.6V | 03:40:07 | 01:44:36 | 00:00:00 | |
| DL1XH1-15 | 2026-09-06 00:07:26 | 52.13445 | 11.37391 | 176° | 26km/h | 24332m | 6m/s | -50.8°C | 3.2% | 29.8hPa | 2.7V | 03:40:07 | 01:44:33 | 00:00:00 | |
| HSKMA3-T | 2026-09-06 00:07:25 | 52.13433 | 11.37396 | 160° | 26km/h | 24343m | 5.4m/s | -50.8°C | 0% | 29.8hPa | 2.6V | 03:40:07 | 01:44:35 | 00:00:00 | |
| DB0DAN | 2026-09-06 00:07:25 | 52.13433 | 11.37396 | 160° | 24km/h | 24343m | 5.4m/s | -50.8°C | 0.6% | 29.79hPa | 2.6V | 00:00:00 | 00:00:00 | 00:00:00 | |
| AA1-15 | 2026-09-06 00:07:23 | 52.13445 | 11.37391 | 176° | 26km/h | 24332m | 6m/s | -50.8°C | 0% | 29.8hPa | 2.7V | 03:40:07 | 01:44:33 | 00:00:00 | |
| BIOWL1-15 | 2026-09-06 00:07:20 | 52.13465 | 11.37396 | 194° | 29km/h | 24313m | 4.9m/s | -50.8°C | 0% | 29.9hPa | 2.6V | 03:42:40 | 01:44:30 | 00:00:00 | |
| DB0UT-7 | 2026-09-06 00:07:19 | 52.13472 | 11.37398 | 193° | 26km/h | 24308m | 6.4m/s | -50.8°C | 3.3% | 29.9hPa | 2.6V | 00:00:00 | 00:00:00 | 00:00:00 | |
| DO2SHX-10 | 2026-09-06 00:07:18 | 52.13478 | 11.37400 | 186° | 24km/h | 24302m | 5.3m/s | -50.8°C | 3.2% | 29.9hPa | 2.6V | 03:40:00 | 01:44:28 | 00:00:00 | |
| GOEST3-10 | 2026-09-06 00:07:17 | 52.13484 | 11.37400 | 176° | 27km/h | 24297m | 4.4m/s | -50.8°C | 3.3% | 29.9hPa | 2.6V | 00:00:00 | 01:44:27 | 00:00:00 | |
| DM0DOS-11 | 2026-09-06 00:07:16 | 52.13525 | 11.37379 | 151° | 26km/h | 24264m | 6.5m/s | -50.7°C | 3.2% | 30.1hPa | 2.6V | 03:40:19 | 01:44:21 | 00:00:00 | |
| DL1XH1-15 | 2026-09-06 00:07:16 | 52.13512 | 11.37389 | 159° | 31km/h | 24275m | 5.1m/s | -50.8°C | 3.2% | 30.1hPa | 2.6V | 03:40:17 | 01:44:23 | 00:00:00 | |
| HSKMA3-T | 2026-09-06 00:07:15 | 52.13497 | 11.37396 | 166° | 29km/h | 24286m | 6.1m/s | -50.8°C | 0% | 30hPa | 2.7V | 03:40:58 | 01:44:25 | 00:00:00 | |
| AA1-15 | 2026-09-06 00:07:12 | 52.13519 | 11.37384 | 155° | 29km/h | 24270m | 6m/s | -50.8°C | 0% | 30.1hPa | 2.6V | 03:40:58 | 01:44:22 | 00:00:00 | |
| DB0NH | 2026-09-06 00:07:12 | 52.13519 | 11.37384 | 156° | 26km/h | 24270m | 6.0m/s | -50.7°C | 3.2% | 30.0hPa | 2.7V | 00:00:00 | 01:44:22 | 00:00:00 | |
| DB0DAN | 2026-09-06 00:07:10 | 52.13530 | 11.37374 | 149° | 22km/h | 24258m | 5.6m/s | -50.7°C | 0.7% | 30.17hPa | 2.7V | 00:00:00 | 00:00:00 | 00:00:00 | |
| DO2SHX-10 | 2026-09-06 00:07:09 | 52.13535 | 11.37370 | 154° | 24km/h | 24253m | 5.3m/s | -50.7°C | 3.3% | 30.2hPa | 2.7V | 00:00:00 | 01:44:19 | 00:00:00 | |
| DD8BA-10 | 2026-09-06 00:07:08 | 52.13540 | 11.37366 | 161° | 27km/h | 24247m | 6.3m/s | -50.7°C | 3.2% | 30.1hPa | 2.6V | 00:00:00 | 00:00:00 | 00:00:00 | |
| SP3BTT-10 | 2026-09-06 00:07:07 | 52.13547 | 11.37363 | 167° | 22km/h | 24241m | 5.1m/s | -50.6°C | 3.3% | 30.2hPa | 2.6V | 00:00:00 | 00:00:00 | 00:00:00 | |
| DM0DOS-11 | 2026-09-06 00:07:06 | 52.13583 | 11.37347 | 157° | 29km/h | 24208m | 6.7m/s | -50.6°C | 3.2% | 30.4hPa | 2.6V | 03:40:29 | 01:44:11 | 00:00:00 | |
| DL1XH1-15 | 2026-09-06 00:07:06 | 52.13571 | 11.37354 | 163° | 24km/h | 24218m | 5.1m/s | -50.7°C | 3.3% | 30.4hPa | 2.7V | 03:40:27 | 01:44:13 | 00:00:00 | |
| HSKMA3-T | 2026-09-06 00:07:05 | 52.13559 | 11.37359 | 170° | 26km/h | 24231m | 5.3m/s | -50.7°C | 0% | 30.3hPa | 2.7V | 03:40:58 | 01:44:15 | 00:00:00 | |
| DL1XH-west | 2026-09-06 00:07:04 | 52.13565 | 11.37357 | 167° | 24km/h | 24225m | 6.6m/s | -50.7°C | 0% | 30.3hPa | 2.7V | 03:40:58 | 01:44:14 | 00:00:00 | |
| AA1-15 | 2026-09-06 00:07:01 | 52.13583 | 11.37347 | 157° | 29km/h | 24208m | 6.7m/s | -50.6°C | 0% | 30.4hPa | 2.6V | 03:40:58 | 01:44:11 | 00:00:00 | |
| DO2SHX-10 | 2026-09-06 00:07:00 | 52.13590 | 11.37342 | 158° | 33km/h | 24202m | 5.7m/s | -50.6°C | 3.3% | 30.4hPa | 2.6V | 00:00:00 | 01:44:10 | 00:00:00 | |
| DO3MHA-11 | 2026-09-06 00:06:59 | 52.13598 | 11.37337 | 157° | 26km/h | 24197m | 4.8m/s | -50.6°C | 3.2% | 30.4hPa | 2.7V | 00:00:00 | 01:44:09 | 00:00:00 | |
| DD8BA-10 | 2026-09-06 00:06:58 | 52.13606 | 11.37331 | 154° | 26km/h | 24192m | 5.0m/s | -50.5°C | 3.3% | 30.4hPa | 2.7V | 00:00:00 | 00:00:00 | 00:00:00 | |
| DO2SHX-10 | 2026-09-06 00:06:57 | 52.13612 | 11.37325 | 150° | 24km/h | 24186m | 5.6m/s | -50.5°C | 3.2% | 30.4hPa | 2.7V | 00:00:00 | 01:44:07 | 00:00:00 | |
| DL1XH1-15 | 2026-09-06 00:06:56 | 52.13631 | 11.37307 | 159° | 18km/h | 24164m | 5.3m/s | -50.5°C | 3.2% | 30.6hPa | 2.7V | 03:40:37 | 01:44:03 | 00:00:00 | |
| DM0DOS-11 | 2026-09-06 00:06:56 | 52.13642 | 11.37303 | 170° | 27km/h | 24153m | 5.1m/s | -50.5°C | 3.2% | 30.6hPa | 2.6V | 03:40:39 | 01:44:01 | 00:00:00 | |
| DB0DAN | 2026-09-06 00:06:55 | 52.13623 | 11.37314 | 144° | 18km/h | 24174m | 5.1m/s | -50.6°C | 0.7% | 30.54hPa | 2.6V | 00:00:00 | 00:00:00 | 00:00:00 | |
| HSKMA3-T | 2026-09-06 00:06:54 | 52.13627 | 11.37310 | 150° | 18km/h | 24169m | 4.8m/s | -50.6°C | 0% | 30.6hPa | 2.7V | 03:40:58 | 01:44:04 | 00:00:00 | |
| DL1XH-west | 2026-09-06 00:06:53 | 52.13631 | 11.37307 | 160° | 18km/h | 24164m | 5.4m/s | -50.5°C | 0% | 30.6hPa | 2.7V | 03:40:58 | 01:44:03 | 00:00:00 | |
| DJ2DS-15 | 2026-09-06 00:06:51 | 52.13649 | 11.37300 | 167° | 29km/h | 24148m | 4.1m/s | -50.5°C | 0.6% | 30.7hPa | 2.7V | 00:00:00 | 00:00:00 | 00:00:00 | |
| AA1-15 | 2026-09-06 00:06:51 | 52.13642 | 11.37303 | 171° | 27km/h | 24153m | 5.1m/s | -50.5°C | 0% | 30.6hPa | 2.6V | 03:40:58 | 01:44:01 | 00:00:00 | |
| DO3MHA-11 | 2026-09-06 00:06:49 | 52.13656 | 11.37297 | 162° | 29km/h | 24144m | 4.8m/s | -50.5°C | 3.3% | 30.6hPa | 2.7V | 00:00:00 | 01:43:59 | 00:00:00 | |
| DO2SHX-10 | 2026-09-06 00:06:48 | 52.13663 | 11.37292 | 153° | 27km/h | 24138m | 6.4m/s | -50.5°C | 3.2% | 30.7hPa | 2.7V | 00:00:00 | 01:43:58 | 00:00:00 | |
| GOEST3-10 | 2026-09-06 00:06:47 | 52.13669 | 11.37286 | 143° | 27km/h | 24132m | 5.9m/s | -50.5°C | 3.2% | 30.7hPa | 2.7V | 00:00:00 | 01:43:57 | 00:00:00 | |
| DM0DOS-11 | 2026-09-06 00:06:46 | 52.13703 | 11.37247 | 154° | 31km/h | 24100m | 5.2m/s | -50.5°C | 3.2% | 30.9hPa | 2.7V | 03:40:49 | 01:43:51 | 00:00:00 | |
| DL1XH1-15 | 2026-09-06 00:06:46 | 52.13690 | 11.37259 | 148° | 27km/h | 24111m | 5.7m/s | -50.5°C | 3.2% | 30.8hPa | 2.7V | 03:40:47 | 01:43:53 | 00:00:00 | |
| DO2JMG | 2026-09-06 00:06:46 | 52.13674 | 11.37279 | 138° | 27km/h | 24127m | 4.8m/s | 0°C | 0% | 0hPa | 2.6V | 03:40:58 | 01:43:56 | 00:00:00 | |
| SONCRA | 2026-09-06 00:06:45 | 52.13679 | 11.37272 | 136° | 26km/h | 24122m | 4.5m/s | -50.5°C | 0.7% | 30.8hPa | 2.7V | 00:00:00 | 00:00:00 | 00:00:00 | |
| DL1XH-west | 2026-09-06 00:06:43 | 52.13690 | 11.37259 | 149° | 27km/h | 24112m | 5.7m/s | -50.5°C | 0% | 30.8hPa | 2.7V | 03:40:58 | 01:43:53 | 00:00:00 | |
| AA1-15 | 2026-09-06 00:06:41 | 52.13703 | 11.37248 | 154° | 31km/h | 24100m | 5.2m/s | -50.5°C | 0% | 30.9hPa | 2.7V | 03:40:58 | 01:43:51 | 00:00:00 | |
| DB0DAN | 2026-09-06 00:06:40 | 52.13710 | 11.37242 | 150° | 29km/h | 24095m | 6.1m/s | -50.5°C | 0.7% | 30.92hPa | 2.6V | 00:00:00 | 00:00:00 | 00:00:00 | |
| BIOWL1-15 | 2026-09-06 00:06:39 | 52.13716 | 11.37235 | 144° | 31km/h | 24089m | 6m/s | -50.6°C | 0% | 30.9hPa | 2.6V | 03:42:40 | 01:43:49 | 00:00:00 | |
| DL4XJ-10 | 2026-09-06 00:06:38 | 52.13722 | 11.37227 | 141° | 20km/h | 24084m | 4.6m/s | -50.9°C | 0% | 0hPa | 2.6V | 00:00:00 | 00:00:00 | 00:00:00 | |
| GOEST3-10 | 2026-09-06 00:06:37 | 52.13727 | 11.37220 | 142° | 24km/h | 24079m | 4.4m/s | -50.5°C | 3.3% | 30.9hPa | 2.6V | 00:00:00 | 01:43:47 | 00:00:00 | |
| DL1XH1-15 | 2026-09-06 00:06:36 | 52.13747 | 11.37200 | 143° | 18km/h | 24057m | 6.1m/s | -50.5°C | 3.2% | 31.1hPa | 2.6V | 03:40:57 | 01:43:43 | 00:00:00 | |
| DL1XH-west | 2026-09-06 00:06:32 | 52.13797 | 11.37143 | 161° | 11km/h | 23981m | 6.3m/s | -50.3°C | 0% | 31.4hPa | 2.7V | 03:41:49 | 01:43:29 | 00:00:00 | |
| DO2JMG | 2026-09-06 00:06:31 | 52.13760 | 11.37178 | 140° | 18km/h | 24034m | 6.2m/s | 0°C | 0% | 0hPa | 2.7V | 18:12:15 | 01:43:39 | 00:00:00 | |
| AA1-15 | 2026-09-06 00:06:31 | 52.13794 | 11.37144 | 174° | 11km/h | 23987m | 5.3m/s | -50.3°C | 0% | 31.4hPa | 2.6V | 03:41:49 | 01:43:30 | 00:00:00 | |
| DL1XH1-15 | 2026-09-06 00:06:31 | 52.13783 | 11.37148 | 150° | 16km/h | 24003m | 5.3m/s | -50.3°C | 3.2% | 31.3hPa | 2.7V | 03:41:07 | 01:43:33 | 00:00:00 | |
| DO2SHX-10 | 2026-09-06 00:06:30 | 52.13757 | 11.37183 | 132° | 18km/h | 24040m | 5.4m/s | -50.3°C | 3.2% | 31.1hPa | 2.7V | 03:41:00 | 01:43:40 | 00:00:00 | |
| DO3MHA-11 | 2026-09-06 00:06:29 | 52.13760 | 11.37177 | 140° | 18km/h | 24034m | 6.2m/s | -50.3°C | 3.2% | 31.2hPa | 2.7V | 03:41:00 | 01:43:39 | 00:00:00 | |
| DD8BA-10 | 2026-09-06 00:06:28 | 52.13764 | 11.37173 | 145° | 16km/h | 24029m | 4.9m/s | -50.3°C | 3.2% | 31.2hPa | 2.7V | 00:00:00 | 00:00:00 | 00:00:00 | |
| DO2SHX-10 | 2026-09-06 00:06:27 | 52.13768 | 11.37168 | 146° | 20km/h | 24024m | 4.2m/s | -50.3°C | 3.2% | 31.2hPa | 2.7V | 00:00:00 | 01:43:37 | 00:00:00 | |
| DB0DAN | 2026-09-06 00:06:25 | 52.13776 | 11.37158 | 139° | 20km/h | 24013m | 5.2m/s | -50.3°C | 0.7% | 31.27hPa | 2.7V | 00:00:00 | 00:00:00 | 00:00:00 | |
| HSKMA3-T | 2026-09-06 00:06:19 | 52.13799 | 11.37141 | 143° | 11km/h | 23975m | 5m/s | -50.3°C | 0% | 31.5hPa | 2.7V | 03:41:49 | 01:43:28 | 00:00:00 | |
| DF8AY | 2026-09-06 00:06:17 | 52.13803 | 11.37135 | 143° | 11km/h | 23966m | 5.7m/s | -50.3°C | 0% | 31.6hPa | 2.6V | 03:41:49 | 01:43:26 | 00:00:00 | |
| DL1NUX | 2026-09-06 00:06:16 | 52.13812 | 11.37122 | 120° | 15km/h | 23945m | 6.4m/s | -50.4°C | 3.1% | 31.6hPa | 2.7V | 03:41:18 | 01:43:22 | 00:00:00 | |
| DO2JMG | 2026-09-06 00:06:15 | 52.13805 | 11.37133 | 150° | 13km/h | 23960m | 5.6m/s | 0°C | 0% | 0hPa | 2.6V | 18:12:15 | 01:43:25 | 00:00:00 | |
| AA1-15 | 2026-09-06 00:06:13 | 52.13810 | 11.37126 | 130° | 13km/h | 23950m | 4.6m/s | -50.4°C | 0% | 31.6hPa | 2.7V | 03:41:49 | 01:43:23 | 00:00:00 | |
| DL1XH-west | 2026-09-06 00:06:12 | 52.13812 | 11.37122 | 120° | 15km/h | 23945m | 6.4m/s | -50.4°C | 0% | 31.6hPa | 2.7V | 03:41:49 | 01:43:22 | 00:00:00 | |
| DL1CLM-18 | 2026-09-06 00:06:12 | 52.20201 | 11.18075 | 123° | 64km/h | 16456m | 4.5m/s | -50.4°C | 0.7% | 31.7hPa | 2.7V | 00:00:00 | 00:00:00 | 00:00:00 | |
| S3001 | 2026-09-06 00:06:10 | 52.13821 | 11.37100 | 146° | 13km/h | 23924m | 5.7m/s | -50.5°C | 0.7% | 31.7hPa | 2.7V | 00:00:00 | 00:00:00 | 00:00:00 | |
| DB0DAN | 2026-09-06 00:06:10 | 52.13816 | 11.37110 | 118° | 16km/h | 23934m | 4.2m/s | -50.4°C | 0.6% | 31.68hPa | 2.6V | 00:00:00 | 00:00:00 | 00:00:00 | |
| DB0ND-19 | 2026-09-06 00:06:09 | 52.13824 | 11.37098 | 166° | 11km/h | 23919m | 4.4m/s | -50.4°C | 0.7% | 31.8hPa | 2.7V | 00:00:00 | 00:00:00 | 00:00:00 | |
| DD8BA-10 | 2026-09-06 00:06:08 | 52.13823 | 11.37098 | 167° | 16km/h | 23919m | 4.4m/s | -50.4°C | 3.1% | 31.7hPa | 2.7V | 00:00:00 | 00:00:00 | 00:00:00 | |
| HSKMA3-T | 2026-09-06 00:06:08 | 52.13821 | 11.37100 | 146° | 13km/h | 23924m | 5.7m/s | -50.5°C | 0% | 31.7hPa | 2.6V | 03:41:49 | 01:43:18 | 00:00:00 | |
| DL1NUX | 2026-09-06 00:06:07 | 52.13836 | 11.37088 | 122° | 16km/h | 23895m | 4.2m/s | -50.4°C | 3.1% | 31.9hPa | 2.6V | 03:41:28 | 01:43:12 | 00:00:00 | |
| DO2SHX-10 | 2026-09-06 00:06:06 | 52.13826 | 11.37098 | 177° | 11km/h | 23915m | 4.0m/s | -50.4°C | 3.1% | 31.7hPa | 2.7V | 03:41:00 | 01:43:16 | 00:00:00 | |
| DF8AY | 2026-09-06 00:06:06 | 52.13826 | 11.37098 | 177° | 11km/h | 23915m | 4m/s | -50.4°C | 0% | 31.8hPa | 2.7V | 03:41:49 | 01:43:16 | 00:00:00 | |
| DM0DOS-11 | 2026-09-06 00:06:04 | 52.13847 | 11.37068 | 137° | 27km/h | 23879m | 5.2m/s | -50.6°C | 3% | 31.9hPa | 2.6V | 03:41:31 | 01:43:09 | 00:00:00 | |
| AA1-15 | 2026-09-06 00:06:03 | 52.13834 | 11.37093 | 128° | 11km/h | 23900m | 4.9m/s | -50.4°C | 0% | 31.9hPa | 2.6V | 03:41:49 | 01:43:13 | 00:00:00 | |
| DL1XH-west | 2026-09-06 00:06:02 | 52.13836 | 11.37088 | 123° | 16km/h | 23895m | 4.2m/s | -50.4°C | 0% | 31.9hPa | 2.6V | 03:41:49 | 01:43:12 | 00:00:00 | |
| DO2SHX-10 | 2026-09-06 00:06:00 | 52.13842 | 11.37075 | 134° | 27km/h | 23885m | 6.4m/s | -50.4°C | 3.1% | 31.9hPa | 2.6V | 00:00:00 | 01:43:10 | 00:00:00 | |
| GOEST3-10 | 2026-09-06 00:05:58 | 52.13857 | 11.37052 | 136° | 20km/h | 23870m | 5.4m/s | -50.7°C | 3.2% | 31.9hPa | 2.6V | 00:00:00 | 01:43:07 | 00:00:00 | |
| HSKMA3-T | 2026-09-06 00:05:58 | 52.13857 | 11.37052 | 135° | 27km/h | 23870m | 5.5m/s | -50.7°C | 0% | 32hPa | 2.6V | 03:41:49 | 01:43:07 | 00:00:00 | |
| DL1NUX | 2026-09-06 00:05:57 | 52.13876 | 11.37028 | 160° | 15km/h | 23845m | 4.3m/s | -50.9°C | 3.3% | 32.1hPa | 2.6V | 03:41:38 | 01:43:02 | 00:00:00 | |
| DL1XH1-15 | 2026-09-06 00:05:57 | 52.13873 | 11.37031 | 156° | 16km/h | 23849m | 5.4m/s | -50.8°C | 3.1% | 32.1hPa | 2.6V | 03:41:37 | 01:43:03 | 00:00:00 | |
| DF8AY | 2026-09-06 00:05:57 | 52.13865 | 11.37039 | 139° | 20km/h | 23859m | 4.5m/s | -50.8°C | 0% | 32hPa | 2.7V | 03:41:49 | 01:43:05 | 00:00:00 | |
| HTAHTA | 2026-09-06 00:05:56 | 52.13865 | 11.37039 | 138° | 18km/h | 23860m | 4.5m/s | -50.8°C | 0.7% | 32.0hPa | 2.7V | 00:00:00 | 00:00:00 | 00:00:00 | |
| DB0DAN | 2026-09-06 00:05:55 | 52.13865 | 11.37039 | 139° | 18km/h | 23859m | 4.5m/s | -50.8°C | 0.7% | 32.04hPa | 2.7V | 00:00:00 | 00:00:00 | 00:00:00 | |
| AA1-15 | 2026-09-06 00:05:53 | 52.13873 | 11.37031 | 156° | 16km/h | 23849m | 5.4m/s | -50.8°C | 0% | 32.1hPa | 2.6V | 03:41:49 | 01:43:03 | 00:00:00 | |
| DL1XH-west | 2026-09-06 00:05:51 | 52.13888 | 11.37011 | 132° | 18km/h | 23820m | 5.4m/s | -51.1°C | 0% | 32.2hPa | 2.6V | 03:41:49 | 01:42:57 | 00:00:00 | |
| BIOWL1-15 | 2026-09-06 00:05:50 | 52.13882 | 11.37024 | 142° | 11km/h | 23835m | 6m/s | -51°C | 0% | 32.2hPa | 2.7V | 03:42:40 | 01:43:00 | 00:00:00 | |
| DM0DOS-11 | 2026-09-06 00:05:50 | 52.13884 | 11.37021 | 124° | 11km/h | 23830m | 5.3m/s | -51°C | 3.2% | 32.2hPa | 2.7V | 03:41:41 | 01:42:59 | 00:00:00 | |
| DO3MHA-11 | 2026-09-06 00:05:50 | 52.13886 | 11.37016 | 124° | 24km/h | 23825m | 4.3m/s | -51.0°C | 3.2% | 32.2hPa | 2.6V | 03:41:00 | 01:42:58 | 00:00:00 | |
| DL4BBY-15 | 2026-09-06 00:05:49 | 52.13886 | 11.37016 | 124° | 24km/h | 23825m | 4.3m/s | -51.4°C | 0% | 0hPa | 2.6V | 00:00:00 | 00:00:00 | 00:00:00 | |
| TFSTFS | 2026-09-06 00:05:48 | 52.13886 | 11.37016 | 125° | 15km/h | 23825m | 4.4m/s | -51.1°C | 0.7% | 32.2hPa | 2.6V | 03:41:00 | 00:00:00 | 00:00:00 | |
| DL1NUX | 2026-09-06 00:05:47 | 52.13912 | 11.36981 | 139° | 26km/h | 23794m | 4.8m/s | -51.3°C | 3.3% | 32.4hPa | 2.6V | 03:41:48 | 01:42:52 | 00:00:00 | |
| DL1XH1-15 | 2026-09-06 00:05:47 | 52.13907 | 11.36987 | 141° | 27km/h | 23799m | 6m/s | -51.2°C | 3.2% | 32.4hPa | 2.7V | 03:41:47 | 01:42:53 | 00:00:00 | |
| DF8AY | 2026-09-06 00:05:45 | 52.13902 | 11.36994 | 144° | 27km/h | 23804m | 4.6m/s | -51.2°C | 0% | 32.3hPa | 2.7V | 03:41:49 | 01:42:54 | 00:00:00 | |
| HSKMA3-T | 2026-09-06 00:05:45 | 52.13897 | 11.37000 | 145° | 26km/h | 23809m | 4.6m/s | -51.2°C | 0% | 32.3hPa | 2.7V | 03:41:49 | 01:42:55 | 00:00:00 | |
| EDDB2-12 | 2026-09-06 00:05:44 | 52.13902 | 11.36994 | 144° | 26km/h | 23804m | 4.6m/s | -51.2°C | 0.7% | 32.3hPa | 2.6V | 00:00:00 | 00:00:00 | 00:00:00 | |
| AA1-15 | 2026-09-06 00:05:42 | 52.13912 | 11.36981 | 140° | 26km/h | 23794m | 4.8m/s | -51.3°C | 0% | 32.4hPa | 2.6V | 03:41:49 | 01:42:52 | 00:00:00 | |
| DO9LL-15 | 2026-09-06 00:05:42 | 52.13912 | 11.36980 | 140° | 24km/h | 23794m | 4.8m/s | -51.2°C | 3.3% | 32.3hPa | 2.6V | 00:00:00 | 01:42:52 | 00:00:00 | |
| DB0DAN | 2026-09-06 00:05:40 | 52.13923 | 11.36967 | 146° | 24km/h | 23784m | 5.7m/s | -51.4°C | 0.7% | 32.43hPa | 2.6V | 00:00:00 | 00:00:00 | 00:00:00 | |
| DL1XH-west | 2026-09-06 00:05:39 | 52.13928 | 11.36962 | 148° | 24km/h | 23779m | 4m/s | -51.4°C | 0% | 32.5hPa | 2.6V | 03:42:40 | 01:42:49 | 00:00:00 | |
| DJ2DS-15 | 2026-09-06 00:05:39 | 52.13933 | 11.36957 | 141° | 20km/h | 23775m | 3.5m/s | -51.4°C | 0.7% | 32.5hPa | 2.7V | 00:00:00 | 00:00:00 | 00:00:00 | |
| DO2SHX-10 | 2026-09-06 00:05:38 | 52.13933 | 11.36957 | 142° | 18km/h | 23775m | 3.5m/s | -51.4°C | 3.3% | 32.4hPa | 2.7V | 00:00:00 | 01:42:48 | 00:00:00 | |
| DL1NUX | 2026-09-06 00:05:37 | 52.13939 | 11.36922 | 109° | 16km/h | 23745m | 5m/s | -51.6°C | 3.3% | 32.6hPa | 2.7V | 03:41:58 | 01:42:42 | 00:00:00 | |
| HSKMA3-T | 2026-09-06 00:05:35 | 52.13938 | 11.36940 | 89° | 15km/h | 23759m | 4.9m/s | -51.5°C | 0% | 32.5hPa | 2.6V | 03:42:40 | 01:42:45 | 00:00:00 | |
| AA1-15 | 2026-09-06 00:05:31 | 52.13941 | 11.36915 | 117° | 18km/h | 23740m | 4.3m/s | -51.7°C | 0% | 32.6hPa | 2.7V | 03:42:40 | 01:42:41 | 00:00:00 | |
| DF8AY-15 | 2026-09-06 00:05:31 | 52.13940 | 11.36915 | 118° | 26km/h | 23741m | 4.3m/s | -51.7°C | 3.4% | 32.6hPa | 2.7V | 00:00:00 | 01:42:41 | 00:00:00 | |
| BIOWL1-15 | 2026-09-06 00:05:30 | 52.13992 | 11.36697 | 103° | 20km/h | 23630m | 5.8m/s | -52.4°C | 0% | 33.2hPa | 2.7V | 03:42:40 | 01:42:18 | 00:00:00 | |
| DM0DOS-11 | 2026-09-06 00:05:30 | 52.13945 | 11.36900 | 115° | 24km/h | 23731m | 5.7m/s | -51.7°C | 3.3% | 32.7hPa | 2.6V | 03:42:01 | 01:42:39 | 00:00:00 | |
| DL1XH-west | 2026-09-06 00:05:29 | 52.13948 | 11.36891 | 114° | 26km/h | 23726m | 4.8m/s | -51.7°C | 0% | 32.7hPa | 2.6V | 03:42:40 | 01:42:38 | 00:00:00 | |
| DO3MHA-11 | 2026-09-06 00:05:28 | 52.13948 | 11.36891 | 115° | 27km/h | 23726m | 4.8m/s | -51.6°C | 3.3% | 32.7hPa | 2.6V | 00:00:00 | 01:42:38 | 00:00:00 | |
| DL1NUX | 2026-09-06 00:05:27 | 52.13967 | 11.36831 | 101° | 27km/h | 23696m | 6m/s | -51.9°C | 3.3% | 32.9hPa | 2.6V | 03:42:08 | 01:42:32 | 00:00:00 | |
| DD8BA-10 | 2026-09-06 00:05:27 | 52.13951 | 11.36881 | 118° | 29km/h | 23721m | 4.2m/s | -51.6°C | 3.3% | 32.7hPa | 2.6V | 00:00:00 | 00:00:00 | 00:00:00 | |
| DL1XH1-15 | 2026-09-06 00:05:26 | 52.13965 | 11.36841 | 111° | 27km/h | 23701m | 4.9m/s | -51.8°C | 3.3% | 32.8hPa | 2.6V | 03:42:07 | 01:42:33 | 00:00:00 | |
| HSKMA3-T | 2026-09-06 00:05:25 | 52.13958 | 11.36862 | 123° | 29km/h | 23711m | 5.3m/s | -51.7°C | 0% | 32.8hPa | 2.7V | 03:42:40 | 01:42:35 | 00:00:00 | |
| DB0DAN | 2026-09-06 00:05:25 | 52.13958 | 11.36862 | 123° | 27km/h | 23711m | 5.3m/s | -51.7°C | 0.7% | 32.8hPa | 2.7V | 00:00:00 | 00:00:00 | 00:00:00 | |
| DF8AY | 2026-09-06 00:05:25 | 52.13965 | 11.36841 | 112° | 27km/h | 23701m | 4.9m/s | -51.8°C | 0% | 32.9hPa | 2.6V | 03:42:40 | 01:42:33 | 00:00:00 | |
| AA1-15 | 2026-09-06 00:05:20 | 52.13968 | 11.36807 | 90° | 29km/h | 23686m | 4.2m/s | -52°C | 0% | 32.9hPa | 2.7V | 03:42:40 | 01:42:30 | 00:00:00 | |
| DB0UT-7 | 2026-09-06 00:05:20 | 52.13968 | 11.36795 | 93° | 22km/h | 23682m | 5.0m/s | -52.1°C | 3.4% | 32.9hPa | 2.6V | 00:00:00 | 00:00:00 | 00:00:00 | |
| DL4BBY-15 | 2026-09-06 00:05:19 | 52.13969 | 11.36782 | 99° | 22km/h | 23676m | 5.0m/s | -52.5°C | 0% | 0hPa | 2.6V | 00:00:00 | 00:00:00 | 00:00:00 | |
| BIOWL1-15 | 2026-09-06 00:05:18 | 52.13989 | 11.36675 | 70° | 18km/h | 23615m | 4.6m/s | -52.6°C | 0% | 33.3hPa | 2.6V | 03:42:40 | 01:42:15 | 00:00:00 | |
| DO3MHA-11 | 2026-09-06 00:05:18 | 52.13969 | 11.36782 | 99° | 24km/h | 23677m | 5.0m/s | -52.1°C | 3.4% | 32.9hPa | 2.6V | 00:00:00 | 01:42:28 | 00:00:00 | |
| DL1XH-west | 2026-09-06 00:05:18 | 52.13970 | 11.36771 | 107° | 27km/h | 23672m | 3.8m/s | -52.2°C | 0% | 33hPa | 2.6V | 03:42:40 | 01:42:27 | 00:00:00 | |
| DL1NUX | 2026-09-06 00:05:17 | 52.13981 | 11.36728 | 119° | 20km/h | 23649m | 4.9m/s | -52.4°C | 3.4% | 33.1hPa | 2.6V | 03:42:18 | 01:42:22 | 00:00:00 | |
| DO2SHX-10 | 2026-09-06 00:05:17 | 52.13970 | 11.36771 | 107° | 26km/h | 23672m | 3.8m/s | -52.2°C | 3.4% | 33.0hPa | 2.6V | 03:42:00 | 01:42:27 | 00:00:00 | |
| DL1XH1-15 | 2026-09-06 00:05:16 | 52.13979 | 11.36736 | 115° | 20km/h | 23653m | 3.8m/s | -52.4°C | 3.4% | 33.1hPa | 2.6V | 03:42:17 | 01:42:23 | 00:00:00 | |
| HSKMA3-T | 2026-09-06 00:05:14 | 52.13977 | 11.36743 | 112° | 20km/h | 23658m | 5.2m/s | -52.4°C | 0% | 33hPa | 2.7V | 03:42:40 | 01:42:24 | 00:00:00 | |
| DC4HF-4 | 2026-09-06 00:05:14 | 52.13979 | 11.36736 | 115° | 18km/h | 23654m | 3.8m/s | -52.4°C | 0.7% | 33.1hPa | 2.6V | 00:00:00 | 00:00:00 | 00:00:00 | |
| HARRO8 | 2026-09-06 00:05:13 | 52.13981 | 11.36728 | 119° | 20km/h | 23649m | 4.9m/s | -52.4°C | 0.7% | 33.1hPa | 2.6V | 00:00:00 | 00:00:00 | 00:00:00 | |
| DO9LL-15 | 2026-09-06 00:05:12 | 52.13981 | 11.36728 | 120° | 22km/h | 23649m | 4.8m/s | -52.4°C | 3.4% | 33.0hPa | 2.6V | 00:00:00 | 01:42:22 | 00:00:00 | |
| DB0DAN | 2026-09-06 00:05:10 | 52.13987 | 11.36713 | 123° | 22km/h | 23639m | 4.2m/s | -52.4°C | 0.7% | 33.17hPa | 2.6V | 00:00:00 | 00:00:00 | 00:00:00 | |
| AA1-15 | 2026-09-06 00:05:10 | 52.13987 | 11.36713 | 123° | 24km/h | 23639m | 4.2m/s | -52.4°C | 0% | 33.2hPa | 2.6V | 03:42:40 | 01:42:20 | 00:00:00 | |
| DO3MHA-11 | 2026-09-06 00:05:09 | 52.13992 | 11.36697 | 103° | 18km/h | 23630m | 5.7m/s | -52.4°C | 3.4% | 33.1hPa | 2.7V | 03:42:00 | 01:42:18 | 00:00:00 | |
| DD8BA-10 | 2026-09-06 00:05:08 | 52.13992 | 11.36690 | 84° | 22km/h | 23625m | 5.7m/s | -52.4°C | 3.4% | 33.2hPa | 2.7V | 00:00:00 | 00:00:00 | 00:00:00 | |
| DL1NUX | 2026-09-06 00:05:07 | 52.13988 | 11.36652 | 96° | 20km/h | 23600m | 4.4m/s | -52.8°C | 3.5% | 33.3hPa | 2.7V | 03:42:28 | 01:42:12 | 00:00:00 | |
| DL1XH1-15 | 2026-09-06 00:05:07 | 52.13987 | 11.36660 | 88° | 18km/h | 23604m | 4.9m/s | -52.7°C | 3.5% | 33.3hPa | 2.7V | 03:42:27 | 01:42:13 | 00:00:00 | |
| BIOWL1-15 | 2026-09-06 00:05:05 | 52.13987 | 11.36660 | 89° | 18km/h | 23604m | 4.9m/s | -52.7°C | 0.1% | 33.3hPa | 2.7V | 03:42:40 | 01:42:13 | 00:00:00 | |
| HSKMA3-T | 2026-09-06 00:05:04 | 52.13988 | 11.36668 | 77° | 18km/h | 23610m | 5.4m/s | -52.7°C | 0% | 33.4hPa | 2.6V | 03:42:40 | 01:42:14 | 00:00:00 | |
| AA1-15 | 2026-09-06 00:05:00 | 52.13995 | 11.36622 | 125° | 24km/h | 23580m | 4.5m/s | -52.9°C | 0.1% | 33.5hPa | 2.7V | 03:42:40 | 01:42:08 | 00:00:00 | |
| DO3MHA-11 | 2026-09-06 00:04:59 | 52.13995 | 11.36622 | 126° | 18km/h | 23581m | 4.5m/s | -52.9°C | 3.6% | 33.4hPa | 2.7V | 00:00:00 | 01:42:08 | 00:00:00 | |
| DL1NUX | 2026-09-06 00:04:57 | 52.14018 | 11.36576 | 115° | 16km/h | 23550m | 4.6m/s | -52.8°C | 3.6% | 33.6hPa | 2.7V | 03:42:38 | 01:42:02 | 00:00:00 | |
| GOEST3-10 | 2026-09-06 00:04:57 | 52.13999 | 11.36614 | 132° | 26km/h | 23575m | 6.5m/s | -52.8°C | 3.5% | 33.4hPa | 2.6V | 00:00:00 | 01:42:07 | 00:00:00 | |
| DL1XH1-15 | 2026-09-06 00:04:56 | 52.14016 | 11.36582 | 126° | 18km/h | 23555m | 5.2m/s | -52.8°C | 3.5% | 33.6hPa | 2.6V | 03:42:37 | 01:42:03 | 00:00:00 | |
| DL1XH-west | 2026-09-06 00:04:55 | 52.14008 | 11.36597 | 134° | 27km/h | 23565m | 3.8m/s | -52.8°C | 0% | 33.5hPa | 2.6V | 03:42:40 | 01:42:05 | 00:00:00 | |
| DB0DAN | 2026-09-06 00:04:55 | 52.14008 | 11.36597 | 134° | 27km/h | 23565m | 3.8m/s | -52.8°C | 0.7% | 33.53hPa | 2.6V | 00:00:00 | 00:00:00 | 00:00:00 | |
| HSKMA3-T | 2026-09-06 00:04:53 | 52.14016 | 11.36582 | 126° | 20km/h | 23555m | 5.2m/s | -52.8°C | 0.1% | 33.6hPa | 2.6V | 03:42:40 | 01:42:03 | 00:00:00 | |
| BIOWL1-15 | 2026-09-06 00:04:51 | 52.14021 | 11.36564 | 112° | 16km/h | 23541m | 5.4m/s | -52.8°C | 0.1% | 33.6hPa | 2.6V | 03:42:40 | 01:42:00 | 00:00:00 | |
| AA1-15 | 2026-09-06 00:04:49 | 52.14023 | 11.36558 | 115° | 18km/h | 23536m | 5.3m/s | -52.9°C | 0.1% | 33.7hPa | 2.6V | 03:43:31 | 01:41:59 | 00:00:00 | |
| DL4BBY-15 | 2026-09-06 00:04:49 | 52.14025 | 11.36551 | 116° | 26km/h | 23531m | 4.3m/s | -53.4°C | 0% | 0hPa | 2.6V | 00:00:00 | 00:00:00 | 00:00:00 | |
| DO2SHX-10 | 2026-09-06 00:04:48 | 52.14027 | 11.36543 | 113° | 22km/h | 23527m | 4.0m/s | -53.0°C | 3.7% | 33.7hPa | 2.6V | 00:00:00 | 01:41:57 | 00:00:00 | |
| DL1NUX | 2026-09-06 00:04:47 | 52.14036 | 11.36495 | 109° | 31km/h | 23502m | 6.1m/s | -53.2°C | 3.7% | 33.9hPa | 2.6V | 03:42:48 | 01:41:52 | 00:00:00 | |
| DL1XH1-15 | 2026-09-06 00:04:46 | 52.14034 | 11.36506 | 105° | 27km/h | 23507m | 4.6m/s | -53.2°C | 3.7% | 33.9hPa | 2.6V | 03:42:47 | 01:41:53 | 00:00:00 | |
| DL1XH-west | 2026-09-06 00:04:45 | 52.14032 | 11.36517 | 104° | 24km/h | 23512m | 4m/s | -53.2°C | 0.2% | 33.8hPa | 2.6V | 03:43:31 | 01:41:54 | 00:00:00 | |
| HSKMA3-T | 2026-09-06 00:04:43 | 52.14034 | 11.36506 | 106° | 27km/h | 23507m | 4.6m/s | -53.2°C | 0.2% | 33.9hPa | 2.6V | 03:43:31 | 01:41:53 | 00:00:00 | |
| DO9LL-15 | 2026-09-06 00:04:42 | 52.14036 | 11.36495 | 110° | 24km/h | 23503m | 6.1m/s | -53.1°C | 3.7% | 33.8hPa | 2.7V | 00:00:00 | 01:41:52 | 00:00:00 | |
| DB0DAN | 2026-09-06 00:04:40 | 52.14042 | 11.36468 | 106° | 35km/h | 23492m | 4.3m/s | -53.2°C | 0.8% | 33.95hPa | 2.7V | 00:00:00 | 00:00:00 | 00:00:00 | |
| AA1-15 | 2026-09-06 00:04:38 | 52.14045 | 11.36439 | 92° | 35km/h | 23481m | 5.1m/s | -53.1°C | 0.2% | 34hPa | 2.6V | 03:43:31 | 01:41:48 | 00:00:00 | |
| DC4HF-4 | 2026-09-06 00:04:38 | 52.14045 | 11.36426 | 86° | 31km/h | 23477m | 4.0m/s | -53.1°C | 0.8% | 34.0hPa | 2.6V | 00:00:00 | 00:00:00 | 00:00:00 | |
| DL1NUX | 2026-09-06 00:04:37 | 52.14046 | 11.36376 | 107° | 18km/h | 23453m | 4.4m/s | -52.9°C | 3.7% | 34.1hPa | 2.6V | 03:42:58 | 01:41:42 | 00:00:00 | |
| DL1XH-west | 2026-09-06 00:04:33 | 52.14044 | 11.36384 | 106° | 20km/h | 23458m | 5m/s | -53°C | 0.1% | 34.1hPa | 2.6V | 03:43:31 | 01:41:43 | 00:00:00 | |
| HSKMA3-T | 2026-09-06 00:04:32 | 52.14046 | 11.36376 | 108° | 18km/h | 23453m | 4.4m/s | -52.9°C | 0.2% | 34.1hPa | 2.6V | 03:43:31 | 01:41:42 | 00:00:00 | |
| DM0DOS-11 | 2026-09-06 00:04:31 | 52.14048 | 11.36353 | 88° | 22km/h | 23438m | 5.1m/s | -52.9°C | 3.6% | 34.2hPa | 2.7V | 03:43:01 | 01:41:39 | 00:00:00 | |
| AA1-15 | 2026-09-06 00:04:29 | 52.14048 | 11.36344 | 87° | 22km/h | 23433m | 4.5m/s | -52.8°C | 0.1% | 34.2hPa | 2.7V | 03:43:31 | 01:41:38 | 00:00:00 | |
| DL1XH1-15 | 2026-09-06 00:04:28 | 52.14052 | 11.36285 | 90° | 24km/h | 23403m | 5.4m/s | -52.6°C | 3.5% | 34.4hPa | 2.7V | 03:43:08 | 01:41:32 | 00:00:00 | |
| DB0DAN | 2026-09-06 00:04:25 | 52.14050 | 11.36315 | 102° | 24km/h | 23418m | 4.1m/s | -52.7°C | 0.8% | 34.29hPa | 2.6V | 00:00:00 | 00:00:00 | 00:00:00 | |
| DL1XH-west | 2026-09-06 00:04:23 | 52.14052 | 11.36295 | 97° | 26km/h | 23409m | 5.8m/s | -52.7°C | 0.1% | 34.4hPa | 2.7V | 03:43:31 | 01:41:33 | 00:00:00 | |
| HSKMA3-T | 2026-09-06 00:04:22 | 52.14052 | 11.36285 | 91° | 24km/h | 23403m | 5.4m/s | -52.6°C | 0.1% | 34.4hPa | 2.7V | 03:43:31 | 01:41:32 | 00:00:00 | |
| SP3BTT-10 | 2026-09-06 00:04:22 | 52.14052 | 11.36284 | 91° | 13km/h | 23403m | 5.4m/s | -52.6°C | 3.5% | 34.3hPa | 2.6V | 03:43:00 | 00:00:00 | 00:00:00 | |
| DM0DOS-11 | 2026-09-06 00:04:20 | 52.14053 | 11.36259 | 105° | 16km/h | 23387m | 5.5m/s | -52.5°C | 3.5% | 34.5hPa | 2.6V | 03:43:11 | 01:41:29 | 00:00:00 | |
| DO2SHX-10 | 2026-09-06 00:04:20 | 52.14052 | 11.36266 | 95° | 16km/h | 23393m | 5.7m/s | -52.5°C | 3.5% | 34.4hPa | 2.7V | 00:00:00 | 01:41:30 | 00:00:00 | |
| DB0UT-7 | 2026-09-06 00:04:19 | 52.14053 | 11.36259 | 106° | 15km/h | 23387m | 5.5m/s | -52.5°C | 3.5% | 34.4hPa | 2.7V | 00:00:00 | 00:00:00 | 00:00:00 | |
| DL4BBY-15 | 2026-09-06 00:04:18 | 52.14054 | 11.36253 | 112° | 15km/h | 23382m | 4.5m/s | -52.8°C | 0% | 0hPa | 2.7V | 00:00:00 | 00:00:00 | 00:00:00 | |
| DL1NUX | 2026-09-06 00:04:17 | 52.14056 | 11.36222 | 101° | 16km/h | 23351m | 6m/s | -52.6°C | 3.5% | 34.7hPa | 2.7V | 03:43:18 | 01:41:22 | 00:00:00 | |
| AA1-15 | 2026-09-06 00:04:17 | 52.14056 | 11.36248 | 109° | 13km/h | 23377m | 4.6m/s | -52.5°C | 0.1% | 34.5hPa | 2.7V | 03:43:31 | 01:41:27 | 00:00:00 | |
| DO2SHX-10 | 2026-09-06 00:04:17 | 52.14056 | 11.36247 | 109° | 13km/h | 23377m | 4.5m/s | -52.5°C | 3.5% | 34.5hPa | 2.7V | 03:43:00 | 01:41:27 | 00:00:00 | |
| SO1NDE-10 | 2026-09-06 00:04:16 | 52.14056 | 11.36238 | 83° | 15km/h | 23367m | 5.1m/s | -52.5°C | 3.5% | 34.5hPa | 2.7V | 00:00:00 | 01:41:25 | 00:00:00 | |
| BIOWL1-15 | 2026-09-06 00:04:16 | 52.14056 | 11.36233 | 83° | 13km/h | 23362m | 4.2m/s | -52.6°C | 0.1% | 34.6hPa | 2.6V | 03:45:13 | 01:41:24 | 00:00:00 | |
| DO2SHX-10 | 2026-09-06 00:04:15 | 52.14056 | 11.36233 | 84° | 15km/h | 23362m | 4.1m/s | -52.6°C | 3.5% | 34.6hPa | 2.7V | 00:00:00 | 01:41:24 | 00:00:00 | |
| DL1XH1-15 | 2026-09-06 00:04:12 | 52.14057 | 11.36215 | 104° | 18km/h | 23346m | 4.9m/s | -52.7°C | 3.5% | 34.7hPa | 2.7V | 03:43:19 | 01:41:21 | 00:00:00 | |
| DL1XH-west | 2026-09-06 00:04:12 | 52.14056 | 11.36222 | 102° | 16km/h | 23351m | 6m/s | -52.6°C | 0% | 34.7hPa | 2.7V | 03:43:31 | 01:41:22 | 00:00:00 | |
| HSKMA3-T | 2026-09-06 00:04:11 | 52.14057 | 11.36215 | 104° | 18km/h | 23346m | 4.9m/s | -52.7°C | 0.1% | 34.7hPa | 2.7V | 03:43:31 | 01:41:21 | 00:00:00 | |
| DB0NH | 2026-09-06 00:04:11 | 52.14057 | 11.36215 | 105° | 13km/h | 23346m | 4.8m/s | -52.6°C | 3.5% | 34.7hPa | 2.6V | 03:43:00 | 01:41:21 | 00:00:00 | |
| DM0DOS-11 | 2026-09-06 00:04:10 | 52.14059 | 11.36199 | 94° | 20km/h | 23335m | 5.9m/s | -52.7°C | 3.5% | 34.8hPa | 2.6V | 03:43:21 | 01:41:19 | 00:00:00 | |
| DF8AY | 2026-09-06 00:04:10 | 52.14058 | 11.36207 | 100° | 20km/h | 23340m | 5.3m/s | -52.7°C | 0.1% | 34.7hPa | 2.6V | 03:43:31 | 01:41:20 | 00:00:00 | |
| DB0DAN | 2026-09-06 00:04:10 | 52.14058 | 11.36207 | 100° | 18km/h | 23341m | 5.3m/s | -52.7°C | 0.8% | 34.69hPa | 2.6V | 00:00:00 | 00:00:00 | 00:00:00 | |
| DO2SHX-10 | 2026-09-06 00:04:08 | 52.14059 | 11.36191 | 93° | 18km/h | 23330m | 4.2m/s | -52.7°C | 3.5% | 34.7hPa | 2.6V | 00:00:00 | 01:41:18 | 00:00:00 | |
| DL1NUX | 2026-09-06 00:04:07 | 52.14066 | 11.36152 | 111° | 13km/h | 23299m | 4.9m/s | -52.8°C | 3.5% | 34.9hPa | 2.6V | 03:43:28 | 01:41:12 | 00:00:00 | |
| AA1-15 | 2026-09-06 00:04:06 | 52.14061 | 11.36175 | 104° | 16km/h | 23320m | 6.1m/s | -52.8°C | 0.1% | 34.8hPa | 2.7V | 03:43:31 | 01:41:16 | 00:00:00 | |
| DO2SHX-10 | 2026-09-06 00:04:05 | 52.14062 | 11.36169 | 113° | 15km/h | 23315m | 4.9m/s | -52.7°C | 3.6% | 34.8hPa | 2.6V | 03:43:00 | 01:41:15 | 00:00:00 | |
| S3001 | 2026-09-06 00:04:04 | 52.14065 | 11.36158 | 110° | 13km/h | 23305m | 6.2m/s | -52.8°C | 0.8% | 35.0hPa | 2.6V | 00:00:00 | 00:00:00 | 00:00:00 | |
| BUE01 | 2026-09-06 00:04:03 | 52.14066 | 11.36152 | 111° | 13km/h | 23299m | 4.9m/s | -52.8°C | 0.8% | 34.9hPa | 2.6V | 00:00:00 | 00:00:00 | 00:00:00 | |
| DL1XH-15 | 2026-09-06 00:04:02 | 52.14071 | 11.36141 | 144° | 11km/h | 23283m | 5.3m/s | -52.9°C | 3.5% | 35hPa | 2.6V | 03:43:31 | 01:41:09 | 00:00:00 | |
| DL1XH1-15 | 2026-09-06 00:04:02 | 52.14067 | 11.36148 | 117° | 13km/h | 23294m | 4.7m/s | -52.8°C | 3.5% | 35hPa | 2.7V | 03:43:29 | 01:41:11 | 00:00:00 | |
| HSKMA3-T | 2026-09-06 00:04:01 | 52.14067 | 11.36148 | 117° | 13km/h | 23294m | 4.7m/s | -52.8°C | 0.1% | 35hPa | 2.7V | 03:43:31 | 01:41:11 | 00:00:00 | |
| DF8AY | 2026-09-06 00:03:59 | 52.14071 | 11.36141 | 144° | 11km/h | 23283m | 5.3m/s | -52.9°C | 0.1% | 35hPa | 2.6V | 03:43:31 | 01:41:09 | 00:00:00 | |
| DO2SHX-10 | 2026-09-06 00:03:59 | 52.14071 | 11.36141 | 145° | 11km/h | 23283m | 5.2m/s | -52.9°C | 3.5% | 35.0hPa | 2.6V | 00:00:00 | 01:41:09 | 00:00:00 | |
| DL1NUX | 2026-09-06 00:03:57 | 52.14082 | 11.36109 | 124° | 13km/h | 23246m | 5.6m/s | -53.2°C | 3.7% | 35.2hPa | 2.6V | 03:43:38 | 01:41:02 | 00:00:00 | |
| AA1-15 | 2026-09-06 00:03:56 | 52.14080 | 11.36119 | 107° | 15km/h | 23258m | 5.2m/s | -53.1°C | 0.1% | 35.2hPa | 2.7V | 03:44:22 | 01:41:04 | 00:00:00 | |
| DB0DAN | 2026-09-06 00:03:55 | 52.14079 | 11.36125 | 106° | 13km/h | 23262m | 4.7m/s | -53.1°C | 0.8% | 35.16hPa | 2.7V | 00:00:00 | 00:00:00 | 00:00:00 | |
| DL2RXE-15 | 2026-09-06 00:03:55 | 52.14080 | 11.36119 | 108° | 15km/h | 23258m | 5.2m/s | -53.1°C | 0.8% | 35.2hPa | 2.6V | 00:00:00 | 00:00:00 | 00:00:00 | |
| DL1XH1-15 | 2026-09-06 00:03:53 | 52.14084 | 11.36105 | 125° | 13km/h | 23241m | 4.9m/s | -53.2°C | 3.7% | 35.3hPa | 2.6V | 03:43:39 | 01:41:01 | 00:00:00 | |
| DL1XH-west | 2026-09-06 00:03:51 | 52.14084 | 11.36105 | 125° | 13km/h | 23241m | 4.9m/s | -53.2°C | 0.2% | 35.3hPa | 2.6V | 03:44:22 | 01:41:01 | 00:00:00 | |
| DF8AY-15 | 2026-09-06 00:03:51 | 52.14084 | 11.36105 | 126° | 15km/h | 23241m | 4.9m/s | -53.2°C | 3.7% | 35.2hPa | 2.7V | 00:00:00 | 01:41:01 | 00:00:00 | |
| DM0DOS-11 | 2026-09-06 00:03:50 | 52.14087 | 11.36096 | 118° | 13km/h | 23230m | 4.7m/s | -53.2°C | 3.7% | 35.3hPa | 2.7V | 03:43:41 | 01:40:59 | 00:00:00 | |
| HSKMA3-T | 2026-09-06 00:03:50 | 52.14086 | 11.36101 | 120° | 13km/h | 23235m | 6.2m/s | -53.2°C | 0.1% | 35.3hPa | 2.6V | 03:44:22 | 01:41:00 | 00:00:00 | |
| DF8AY | 2026-09-06 00:03:48 | 52.14089 | 11.36092 | 121° | 11km/h | 23225m | 4.2m/s | -53.2°C | 0.1% | 35.4hPa | 2.7V | 03:44:22 | 01:40:58 | 00:00:00 | |
| DL4BBY-15 | 2026-09-06 00:03:48 | 52.14088 | 11.36092 | 121° | 15km/h | 23225m | 4.2m/s | -53.6°C | 0% | 0hPa | 2.7V | 00:00:00 | 00:00:00 | 00:00:00 | |
| DO2SHX-10 | 2026-09-06 00:03:47 | 52.14090 | 11.36089 | 138° | 9km/h | 23221m | 5.9m/s | -53.2°C | 3.7% | 35.3hPa | 2.7V | 00:00:00 | 01:40:57 | 00:00:00 | |
| DL1NUX | 2026-09-06 00:03:46 | 52.14097 | 11.36076 | 96° | 13km/h | 23193m | 5m/s | -53.2°C | 3.6% | 35.5hPa | 2.7V | 03:43:48 | 01:40:52 | 00:00:00 | |
| AA1-15 | 2026-09-06 00:03:44 | 52.14097 | 11.36076 | 97° | 13km/h | 23193m | 5m/s | -53.2°C | 0.1% | 35.5hPa | 2.7V | 03:44:22 | 01:40:52 | 00:00:00 | |
| SMARD9-15 | 2026-09-06 00:03:44 | 52.14097 | 11.36080 | 109° | 9km/h | 23199m | 6.2m/s | -53.2°C | 0.8% | 35.5hPa | 2.6V | 00:00:00 | 00:00:00 | 00:00:00 | |
| DL1XH-15 | 2026-09-06 00:03:44 | 52.14100 | 11.36058 | 120° | 16km/h | 23178m | 5.4m/s | -53.2°C | 3.6% | 35.6hPa | 2.6V | 03:43:51 | 01:40:49 | 00:00:00 | |
| DL1XH1-15 | 2026-09-06 00:03:42 | 52.14098 | 11.36070 | 99° | 15km/h | 23188m | 4.3m/s | -53.2°C | 3.7% | 35.6hPa | 2.6V | 03:43:49 | 01:40:51 | 00:00:00 | |
| HSKMA3-T | 2026-09-06 00:03:40 | 52.14099 | 11.36064 | 108° | 15km/h | 23184m | 5.3m/s | -53.2°C | 0.2% | 35.6hPa | 2.6V | 03:44:22 | 01:40:50 | 00:00:00 | |
| DB0DAN | 2026-09-06 00:03:40 | 52.14099 | 11.36064 | 108° | 15km/h | 23184m | 5.3m/s | -53.2°C | 0.8% | 35.56hPa | 2.6V | 00:00:00 | 00:00:00 | 00:00:00 | |
| DF8AY | 2026-09-06 00:03:39 | 52.14103 | 11.36052 | 126° | 20km/h | 23173m | 4.9m/s | -53.3°C | 0.2% | 35.6hPa | 2.7V | 03:44:22 | 01:40:48 | 00:00:00 | |
| DL4XJ-10 | 2026-09-06 00:03:39 | 52.14103 | 11.36052 | 127° | 16km/h | 23173m | 4.9m/s | -53.6°C | 0% | 0hPa | 2.7V | 00:00:00 | 00:00:00 | 00:00:00 | |
| DO2SHX-10 | 2026-09-06 00:03:38 | 52.14103 | 11.36052 | 127° | 22km/h | 23173m | 4.9m/s | -53.2°C | 3.7% | 35.6hPa | 2.7V | 00:00:00 | 01:40:48 | 00:00:00 | |
| DL1NUX | 2026-09-06 00:03:37 | 52.14120 | 11.36005 | 126° | 15km/h | 23141m | 6.2m/s | -53.3°C | 3.7% | 35.8hPa | 2.7V | 03:43:58 | 01:40:42 | 00:00:00 | |
| DO2SHX-10 | 2026-09-06 00:03:36 | 52.14112 | 11.36028 | 117° | 22km/h | 23157m | 4.6m/s | -53.3°C | 3.8% | 35.7hPa | 2.6V | 00:00:00 | 01:40:45 | 00:00:00 | |
| DJ8HS-15 | 2026-09-06 00:03:34 | 52.14115 | 11.36019 | 118° | 13km/h | 23152m | 3.7m/s | -53.3°C | 3.7% | 35.7hPa | 2.6V | 03:43:00 | 01:40:44 | 00:00:00 | |
| DL2RXE-15 | 2026-09-06 00:03:33 | 52.14117 | 11.36011 | 120° | 20km/h | 23148m | 5.6m/s | -53.3°C | 0.9% | 35.8hPa | 2.7V | 00:00:00 | 00:00:00 | 00:00:00 | |
| DL1XH1-15 | 2026-09-06 00:03:32 | 52.14122 | 11.36001 | 127° | 9km/h | 23136m | 5.1m/s | -53.3°C | 3.7% | 35.8hPa | 2.7V | 03:43:59 | 01:40:41 | 00:00:00 | |
| AA1-15 | 2026-09-06 00:03:31 | 52.14122 | 11.36001 | 127° | 9km/h | 23136m | 5.1m/s | -53.3°C | 0.2% | 35.8hPa | 2.7V | 03:44:22 | 01:40:41 | 00:00:00 | |
| DM0DOS-11 | 2026-09-06 00:03:31 | 52.14123 | 11.35996 | 77° | 7km/h | 23125m | 6.4m/s | -53.2°C | 3.7% | 35.9hPa | 2.6V | 03:44:01 | 01:40:39 | 00:00:00 | |
| DL1XH-west | 2026-09-06 00:03:30 | 52.14123 | 11.35998 | 112° | 7km/h | 23131m | 5.1m/s | -53.2°C | 0.2% | 35.9hPa | 2.6V | 03:44:22 | 01:40:40 | 00:00:00 | |
| HSKMA3-T | 2026-09-06 00:03:29 | 52.14123 | 11.35996 | 78° | 7km/h | 23125m | 6.4m/s | -53.2°C | 0.2% | 35.9hPa | 2.6V | 03:44:22 | 01:40:39 | 00:00:00 | |
| DF8AY | 2026-09-06 00:03:27 | 52.14121 | 11.35990 | 68° | 9km/h | 23115m | 4.1m/s | -53.1°C | 0.2% | 36hPa | 2.7V | 03:44:22 | 01:40:37 | 00:00:00 | |
| DL1XH1-15 | 2026-09-06 00:03:27 | 52.14134 | 11.35971 | 141° | 22km/h | 23084m | 5.9m/s | -52.9°C | 3.6% | 36.1hPa | 2.7V | 03:44:09 | 01:40:31 | 00:00:00 | |
| DD8BA-10 | 2026-09-06 00:03:26 | 52.14121 | 11.35984 | 118° | 15km/h | 23105m | 5.9m/s | -53.0°C | 3.7% | 36.0hPa | 2.6V | 00:00:00 | 00:00:00 | 00:00:00 | |
| DO2SHX-10 | 2026-09-06 00:03:25 | 52.14125 | 11.35979 | 154° | 18km/h | 23094m | 4.3m/s | -52.9°C | 3.7% | 36.0hPa | 2.6V | 00:00:00 | 01:40:33 | 00:00:00 | |
| DB0DAN | 2026-09-06 00:03:25 | 52.14121 | 11.35984 | 118° | 7km/h | 23104m | 5.9m/s | -53.1°C | 0.8% | 36.01hPa | 2.7V | 00:00:00 | 00:00:00 | 00:00:00 | |
| GOEST3-10 | 2026-09-06 00:03:24 | 52.14134 | 11.35971 | 142° | 18km/h | 23084m | 5.9m/s | -52.9°C | 3.6% | 36.1hPa | 2.7V | 00:00:00 | 00:00:00 | 00:00:00 | |
| SP3BTT-10 | 2026-09-06 00:03:23 | 52.14134 | 11.35971 | 142° | 27km/h | 23084m | 5.9m/s | -52.9°C | 3.6% | 36.1hPa | 2.7V | 00:00:00 | 00:00:00 | 00:00:00 | |
| DL1XH-15 | 2026-09-06 00:03:22 | 52.14141 | 11.35959 | 135° | 18km/h | 23073m | 5m/s | -52.9°C | 3.7% | 36.2hPa | 2.6V | 03:44:11 | 01:40:29 | 00:00:00 | |
| AA1-15 | 2026-09-06 00:03:21 | 52.14138 | 11.35965 | 137° | 22km/h | 23079m | 5.4m/s | -52.9°C | 0.2% | 36.2hPa | 2.7V | 03:44:22 | 01:40:30 | 00:00:00 | |
| DL1XH-west | 2026-09-06 00:03:19 | 52.14145 | 11.35955 | 142° | 15km/h | 23068m | 5.2m/s | -52.9°C | 0.2% | 36.2hPa | 2.6V | 03:44:22 | 01:40:28 | 00:00:00 | |
| HSKMA3-T | 2026-09-06 00:03:19 | 52.14141 | 11.35959 | 135° | 18km/h | 23073m | 5m/s | -52.9°C | 0.2% | 36.2hPa | 2.6V | 03:44:22 | 01:40:29 | 00:00:00 | |
| DF8AY | 2026-09-06 00:03:17 | 52.14147 | 11.35952 | 159° | 11km/h | 23062m | 5.8m/s | -52.9°C | 0.2% | 36.2hPa | 2.6V | 03:44:22 | 01:40:27 | 00:00:00 | |
| DF8AY-15 | 2026-09-06 00:03:17 | 52.14158 | 11.35944 | 141° | 22km/h | 23034m | 4.2m/s | -52.7°C | 3.6% | 36.4hPa | 2.6V | 00:00:00 | 01:40:21 | 00:00:00 | |
| DB0NH | 2026-09-06 00:03:16 | 52.14158 | 11.35944 | 141° | 24km/h | 23034m | 4.2m/s | -52.7°C | 3.6% | 36.4hPa | 2.6V | 00:00:00 | 01:40:21 | 00:00:00 | |
| DF7ER-10 | 2026-09-06 00:03:15 | 52.14162 | 11.35940 | 152° | 24km/h | 23029m | 5.4m/s | -52.8°C | 0.8% | 36.5hPa | 2.7V | 03:44:00 | 00:00:00 | 00:00:00 | |
| DM0DOS-11 | 2026-09-06 00:03:13 | 52.14183 | 11.35929 | 168° | 33km/h | 23011m | 4.6m/s | -52.7°C | 3.6% | 36.5hPa | 2.7V | 03:44:23 | 01:40:17 | 00:00:00 | |
| DL1XH-15 | 2026-09-06 00:03:12 | 52.14168 | 11.35935 | 159° | 27km/h | 23022m | 5.8m/s | -52.7°C | 3.6% | 36.5hPa | 2.7V | 03:44:21 | 01:40:19 | 00:00:00 | |
| BIOWL9-15 | 2026-09-06 00:03:12 | 52.14222 | 11.35915 | 176° | 15km/h | 22966m | 4.9m/s | 0°C | -1.0% | -1.0hPa | 2.6V | 00:00:00 | 00:00:00 | 00:00:00 | |
| AA1-15 | 2026-09-06 00:03:10 | 52.14162 | 11.35940 | 151° | 24km/h | 23029m | 5.4m/s | -52.8°C | 0.1% | 36.5hPa | 2.6V | 03:44:22 | 01:40:20 | 00:00:00 | |
| DB0DAN | 2026-09-06 00:03:10 | 52.14162 | 11.35940 | 151° | 22km/h | 23028m | 5.4m/s | -52.8°C | 0.8% | 36.46hPa | 2.6V | 00:00:00 | 00:00:00 | 00:00:00 | |
| GOEST3-10 | 2026-09-06 00:03:09 | 52.14212 | 11.35915 | 174° | 13km/h | 22981m | 5.8m/s | -52.8°C | 3.6% | 36.7hPa | 2.6V | 00:00:00 | 00:00:00 | 00:00:00 | |
| DL1XH-west | 2026-09-06 00:03:08 | 52.14183 | 11.35929 | 168° | 33km/h | 23011m | 4.6m/s | -52.7°C | 0.1% | 36.5hPa | 2.7V | 03:45:13 | 01:40:17 | 00:00:00 | |
| HSKMA3-T | 2026-09-06 00:03:08 | 52.14175 | 11.35931 | 165° | 31km/h | 23017m | 5.8m/s | -52.7°C | 0.1% | 36.5hPa | 2.7V | 03:44:22 | 01:40:18 | 00:00:00 | |
| DL4XJ-10 | 2026-09-06 00:03:07 | 52.14222 | 11.35915 | 177° | 26km/h | 22967m | 4.9m/s | -53.1°C | 0% | 0hPa | 2.6V | 00:00:00 | 00:00:00 | 00:00:00 | |
| DF8AY | 2026-09-06 00:03:06 | 52.14191 | 11.35926 | 168° | 29km/h | 23007m | 4.2m/s | -52.7°C | 0.2% | 36.6hPa | 2.6V | 03:45:13 | 01:40:16 | 00:00:00 | |
| GOEST3-10 | 2026-09-06 00:03:05 | 52.14230 | 11.35913 | 172° | 27km/h | 22956m | 4.5m/s | -52.7°C | 3.7% | 36.8hPa | 2.7V | 00:00:00 | 01:40:06 | 00:00:00 | |
| DO2SHX-10 | 2026-09-06 00:03:04 | 52.14230 | 11.35913 | 172° | 26km/h | 22956m | 4.5m/s | -52.7°C | 3.7% | 36.8hPa | 2.7V | 00:00:00 | 01:40:06 | 00:00:00 | |
| DD8BA-10 | 2026-09-06 00:03:03 | 52.14236 | 11.35912 | 176° | 29km/h | 22952m | 4.7m/s | -52.7°C | 3.7% | 36.8hPa | 2.6V | 00:00:00 | 00:00:00 | 00:00:00 | |
| DL1XH-15 | 2026-09-06 00:03:02 | 52.14218 | 11.35916 | 181° | 13km/h | 22971m | 4m/s | -52.8°C | 3.6% | 36.7hPa | 2.6V | 03:44:31 | 01:40:09 | 00:00:00 | |
| DO2SHX-10 | 2026-09-06 00:03:00 | 52.14251 | 11.35912 | 185° | 31km/h | 22940m | 5.2m/s | -52.7°C | 3.6% | 36.9hPa | 2.6V | 03:44:00 | 01:40:03 | 00:00:00 | |
| AA1-15 | 2026-09-06 00:02:59 | 52.14218 | 11.35916 | 182° | 13km/h | 22971m | 4m/s | -52.8°C | 0.1% | 36.7hPa | 2.6V | 03:45:13 | 01:40:09 | 00:00:00 | |
| DM0DOS-11 | 2026-09-06 00:02:59 | 52.14226 | 11.35915 | 168° | 18km/h | 22961m | 5.2m/s | -52.8°C | 3.6% | 36.8hPa | 2.7V | 03:44:33 | 01:40:07 | 00:00:00 | |
| DC4HF-4 | 2026-09-06 00:02:58 | 52.14281 | 11.35911 | 171° | 27km/h | 22919m | 4.4m/s | -52.6°C | 0.8% | 37.0hPa | 2.7V | 00:00:00 | 00:00:00 | 00:00:00 | |
| DL1XH-west | 2026-09-06 00:02:57 | 52.14231 | 11.35913 | 171° | 22km/h | 22956m | 4.6m/s | -52.8°C | 0.2% | 36.8hPa | 2.7V | 03:45:13 | 01:40:06 | 00:00:00 | |
| HSKMA3-T | 2026-09-06 00:02:57 | 52.14226 | 11.35914 | 169° | 18km/h | 22961m | 5.2m/s | -52.8°C | 0.1% | 36.8hPa | 2.7V | 03:45:13 | 01:40:07 | 00:00:00 | |
| DL2RXE-15 | 2026-09-06 00:02:57 | 52.14281 | 11.35911 | 173° | 29km/h | 22919m | 4.4m/s | -52.6°C | 0.8% | 37.0hPa | 2.6V | 00:00:00 | 00:00:00 | 00:00:00 | |
| DF8AY | 2026-09-06 00:02:56 | 52.14236 | 11.35912 | 175° | 26km/h | 22951m | 4.8m/s | -52.8°C | 0.3% | 36.9hPa | 2.6V | 03:45:13 | 01:40:05 | 00:00:00 | |
| DB0DAN | 2026-09-06 00:02:55 | 52.14236 | 11.35912 | 175° | 24km/h | 22951m | 4.8m/s | -52.8°C | 0.9% | 36.85hPa | 2.6V | 00:00:00 | 00:00:00 | 00:00:00 | |
| DO3MHA-11 | 2026-09-06 00:02:53 | 52.14314 | 11.35898 | 151° | 26km/h | 22893m | 6.1m/s | -52.4°C | 3.5% | 37.2hPa | 2.6V | 00:00:00 | 01:39:54 | 00:00:00 | |
| DL1XH-15 | 2026-09-06 00:02:51 | 52.14281 | 11.35911 | 171° | 29km/h | 22919m | 4.3m/s | -52.6°C | 3.6% | 37hPa | 2.6V | 03:44:41 | 01:39:59 | 00:00:00 | |
| GOEST3-10 | 2026-09-06 00:02:51 | 52.14329 | 11.35884 | 160° | 27km/h | 22879m | 5.6m/s | -52.4°C | 3.6% | 37.2hPa | 2.7V | 00:00:00 | 00:00:00 | 00:00:00 | |
| DM0DOS-11 | 2026-09-06 00:02:50 | 52.14295 | 11.35908 | 172° | 27km/h | 22908m | 5.2m/s | -52.5°C | 3.6% | 37.1hPa | 2.7V | 03:44:43 | 01:39:57 | 00:00:00 | |
| AA1-15 | 2026-09-06 00:02:48 | 52.14288 | 11.35909 | 172° | 27km/h | 22914m | 5.6m/s | -52.6°C | 0.1% | 37.1hPa | 2.6V | 03:45:13 | 01:39:58 | 00:00:00 | |
| DF8AY | 2026-09-06 00:02:48 | 52.14376 | 11.35866 | 152° | 29km/h | 22842m | 5.2m/s | -52.4°C | 0.2% | 37.5hPa | 2.7V | 03:45:13 | 01:39:44 | 00:00:00 | |
| DL1XH-west | 2026-09-06 00:02:47 | 52.14295 | 11.35908 | 172° | 27km/h | 22908m | 5.2m/s | -52.6°C | 0.1% | 37.1hPa | 2.7V | 03:45:13 | 01:39:57 | 00:00:00 | |
| HARRO8 | 2026-09-06 00:02:47 | 52.14356 | 11.35878 | 170° | 27km/h | 22859m | 5.6m/s | -52.4°C | 0.8% | 37.4hPa | 2.7V | 00:00:00 | 00:00:00 | 00:00:00 | |
| HSKMA3-T | 2026-09-06 00:02:46 | 52.14302 | 11.35906 | 167° | 26km/h | 22903m | 4.3m/s | -52.5°C | 0.1% | 37.2hPa | 2.7V | 03:45:13 | 01:39:56 | 00:00:00 | |
| BIOWL1-15 | 2026-09-06 00:02:45 | 52.14308 | 11.35903 | 159° | 26km/h | 22898m | 5.4m/s | -52.5°C | 0.1% | 37.2hPa | 2.7V | 03:45:13 | 01:39:55 | 00:00:00 | |
| SONCRA | 2026-09-06 00:02:45 | 52.14356 | 11.35878 | 170° | 27km/h | 22859m | 5.6m/s | -52.4°C | 0.8% | 37.4hPa | 2.7V | 00:00:00 | 00:00:00 | 00:00:00 | |
| GOEST3-10 | 2026-09-06 00:02:43 | 52.14363 | 11.35875 | 162° | 27km/h | 22854m | 5.4m/s | -52.4°C | 3.6% | 37.4hPa | 2.7V | 00:00:00 | 01:39:46 | 00:00:00 | |
| DL1XH-15 | 2026-09-06 00:02:42 | 52.14342 | 11.35880 | 175° | 27km/h | 22868m | 4.1m/s | -52.4°C | 3.5% | 37.3hPa | 2.7V | 03:44:51 | 01:39:49 | 00:00:00 | |
| DD8BA-10 | 2026-09-06 00:02:40 | 52.14369 | 11.35871 | 156° | 27km/h | 22848m | 5.4m/s | -52.4°C | 3.6% | 37.4hPa | 2.6V | 03:44:00 | 00:00:00 | 00:00:00 | |
| DM0DOS-11 | 2026-09-06 00:02:39 | 52.14356 | 11.35878 | 170° | 27km/h | 22859m | 5.6m/s | -52.4°C | 3.6% | 37.4hPa | 2.6V | 03:44:53 | 01:39:47 | 00:00:00 | |
| AA1-15 | 2026-09-06 00:02:37 | 52.14356 | 11.35878 | 171° | 27km/h | 22859m | 5.6m/s | -52.4°C | 0.2% | 37.4hPa | 2.6V | 03:45:13 | 01:39:47 | 00:00:00 | |
| BIOWL9-15 | 2026-09-06 00:02:37 | 52.14423 | 11.35824 | 148° | 27km/h | 22802m | 4.8m/s | 0°C | -1.0% | -1.0hPa | 2.6V | 00:00:00 | 00:00:00 | 00:00:00 | |
| HSKMA3-T | 2026-09-06 00:02:36 | 52.14363 | 11.35875 | 162° | 27km/h | 22853m | 5.5m/s | -52.4°C | 0.1% | 37.5hPa | 2.6V | 03:45:13 | 01:39:46 | 00:00:00 | |
| GOEST3-10 | 2026-09-06 00:02:36 | 52.14395 | 11.35851 | 158° | 27km/h | 22827m | 3.8m/s | -52.4°C | 3.6% | 37.5hPa | 2.6V | 03:44:00 | 00:00:00 | 00:00:00 | |
| S3001 | 2026-09-06 00:02:35 | 52.14401 | 11.35847 | 155° | 24km/h | 22823m | 3.5m/s | -52.4°C | 0.8% | 37.6hPa | 2.7V | 00:00:00 | 00:00:00 | 00:00:00 | |
| BIOWL1-15 | 2026-09-06 00:02:35 | 52.14369 | 11.35871 | 156° | 27km/h | 22848m | 5.5m/s | -52.4°C | 0.1% | 37.5hPa | 2.6V | 03:45:13 | 01:39:45 | 00:00:00 | |
| DB0ND-19 | 2026-09-06 00:02:34 | 52.14401 | 11.35847 | 155° | 24km/h | 22823m | 3.5m/s | -52.4°C | 0.8% | 37.6hPa | 2.7V | 00:00:00 | 00:00:00 | 00:00:00 | |
| DM0DOS-11 | 2026-09-06 00:02:33 | 52.14417 | 11.35830 | 144° | 27km/h | 22807m | 5.1m/s | -52.3°C | 3.6% | 37.7hPa | 2.7V | 03:45:03 | 01:39:37 | 00:00:00 | |
| DO2SHX-10 | 2026-09-06 00:02:32 | 52.14406 | 11.35842 | 150° | 26km/h | 22818m | 5.7m/s | -52.3°C | 3.6% | 37.6hPa | 2.7V | 03:45:00 | 01:39:39 | 00:00:00 | |
| DL1XH-15 | 2026-09-06 00:02:31 | 52.14406 | 11.35842 | 149° | 26km/h | 22818m | 5.7m/s | -52.3°C | 3.6% | 37.6hPa | 2.7V | 03:45:01 | 01:39:39 | 00:00:00 | |
| DF7ER-10 | 2026-09-06 00:02:29 | 52.14417 | 11.35830 | 145° | 27km/h | 22807m | 5.1m/s | -52.3°C | 0.9% | 37.7hPa | 2.7V | 03:45:00 | 00:00:00 | 00:00:00 | |
| AA1-15 | 2026-09-06 00:02:28 | 52.14417 | 11.35830 | 144° | 27km/h | 22807m | 5.1m/s | -52.3°C | 0.2% | 37.7hPa | 2.7V | 03:45:13 | 01:39:37 | 00:00:00 | |
| DL1NUX | 2026-09-06 00:02:27 | 52.14452 | 11.35803 | 154° | 35km/h | 22782m | 6.2m/s | -52.1°C | 3.5% | 37.9hPa | 2.7V | 03:45:08 | 01:39:32 | 00:00:00 | |
| GOEST3-10 | 2026-09-06 00:02:27 | 52.14429 | 11.35818 | 156° | 33km/h | 22797m | 5.9m/s | -52.2°C | 3.6% | 37.7hPa | 2.6V | 00:00:00 | 01:39:35 | 00:00:00 | |
| DF8AY | 2026-09-06 00:02:26 | 52.14423 | 11.35824 | 148° | 27km/h | 22802m | 4.8m/s | -52.3°C | 0.1% | 37.7hPa | 2.6V | 03:45:13 | 01:39:36 | 00:00:00 | |
| HSKMA3-T | 2026-09-06 00:02:25 | 52.14429 | 11.35818 | 155° | 29km/h | 22796m | 6m/s | -52.2°C | 0.1% | 37.7hPa | 2.6V | 03:45:13 | 01:39:35 | 00:00:00 | |
| DB0DAN | 2026-09-06 00:02:25 | 52.14429 | 11.35818 | 155° | 27km/h | 22796m | 6m/s | -52.2°C | 0.8% | 37.73hPa | 2.6V | 00:00:00 | 00:00:00 | 00:00:00 | |
| DO2SHX-10 | 2026-09-06 00:02:24 | 52.14444 | 11.35808 | 159° | 35km/h | 22787m | 4.2m/s | -52.1°C | 3.6% | 37.8hPa | 2.7V | 00:00:00 | 01:39:33 | 00:00:00 | |
| DM0DOS-11 | 2026-09-06 00:02:22 | 52.14487 | 11.35772 | 151° | 27km/h | 22755m | 4.5m/s | -52°C | 3.5% | 38hPa | 2.7V | 03:45:13 | 01:39:27 | 00:00:00 | |
| DO2SHX-10 | 2026-09-06 00:02:21 | 52.14467 | 11.35789 | 150° | 31km/h | 22771m | 4.5m/s | -52.0°C | 3.6% | 37.9hPa | 2.6V | 00:00:00 | 01:39:30 | 00:00:00 | |
| DB0UT-7 | 2026-09-06 00:02:20 | 52.14475 | 11.35782 | 151° | 29km/h | 22766m | 5.7m/s | -52.0°C | 3.5% | 37.9hPa | 2.7V | 00:00:00 | 00:00:00 | 00:00:00 | |
| DL1ZP-14 | 2026-09-06 00:02:19 | 52.14481 | 11.35777 | 153° | 27km/h | 22760m | 5.4m/s | -52.0°C | 0.8% | 38.0hPa | 2.7V | 00:00:00 | 00:00:00 | 00:00:00 | |
| DL4BBY-15 | 2026-09-06 00:02:18 | 52.14481 | 11.35777 | 154° | 29km/h | 22760m | 5.4m/s | -52.3°C | 0% | 0hPa | 2.7V | 00:00:00 | 00:00:00 | 00:00:00 | |
| DL1NUX | 2026-09-06 00:02:17 | 52.14514 | 11.35738 | 145° | 27km/h | 22729m | 5.9m/s | -51.8°C | 3.5% | 38.2hPa | 2.7V | 03:45:18 | 01:39:22 | 00:00:00 | |
| GOEST3-10 | 2026-09-06 00:02:17 | 52.14498 | 11.35759 | 139° | 27km/h | 22744m | 6.1m/s | -51.8°C | 3.5% | 38.0hPa | 2.6V | 00:00:00 | 01:39:25 | 00:00:00 | |
| AA1-15 | 2026-09-06 00:02:16 | 52.14493 | 11.35766 | 145° | 26km/h | 22750m | 5.7m/s | -51.9°C | 0.1% | 38hPa | 2.7V | 03:46:04 | 01:39:26 | 00:00:00 | |
| DO2SHX-10 | 2026-09-06 00:02:16 | 52.14503 | 11.35752 | 137° | 27km/h | 22739m | 4.6m/s | -51.8°C | 3.5% | 38.1hPa | 2.6V | 00:00:00 | 01:39:24 | 00:00:00 | |
| HSKMA3-T | 2026-09-06 00:02:15 | 52.14498 | 11.35759 | 139° | 26km/h | 22744m | 6.1m/s | -51.9°C | 0.1% | 38.1hPa | 2.6V | 03:46:04 | 01:39:25 | 00:00:00 | |
| DC4HF-4 | 2026-09-06 00:02:15 | 52.14508 | 11.35745 | 140° | 26km/h | 22734m | 4.7m/s | -51.8°C | 0.8% | 38.1hPa | 2.6V | 00:00:00 | 00:00:00 | 00:00:00 | |
| TFSTFS | 2026-09-06 00:02:14 | 52.14508 | 11.35745 | 141° | 27km/h | 22734m | 4.7m/s | -51.8°C | 0.8% | 38.2hPa | 2.6V | 00:00:00 | 00:00:00 | 00:00:00 | |
| DB0NH | 2026-09-06 00:02:12 | 52.14519 | 11.35732 | 152° | 27km/h | 22723m | 5.0m/s | -51.7°C | 3.4% | 38.1hPa | 2.6V | 03:45:00 | 01:39:21 | 00:00:00 | |
| DL1XH-15 | 2026-09-06 00:02:11 | 52.14532 | 11.35720 | 148° | 31km/h | 22713m | 5.9m/s | -51.7°C | 3.5% | 38.2hPa | 2.6V | 03:45:21 | 01:39:19 | 00:00:00 | |
| GOEST3-10 | 2026-09-06 00:02:11 | 52.14526 | 11.35727 | 152° | 33km/h | 22719m | 4.8m/s | -51.7°C | 3.4% | 38.2hPa | 2.6V | 03:45:00 | 00:00:00 | 00:00:00 | |
| DB0DAN | 2026-09-06 00:02:10 | 52.14526 | 11.35727 | 151° | 27km/h | 22718m | 4.8m/s | -51.7°C | 0.8% | 38.25hPa | 2.6V | 00:00:00 | 00:00:00 | 00:00:00 | |
| DO2SHX-10 | 2026-09-06 00:02:08 | 52.14539 | 11.35713 | 145° | 33km/h | 22708m | 5.4m/s | -51.6°C | 3.4% | 38.2hPa | 2.6V | 00:00:00 | 01:39:18 | 00:00:00 | |
| DL1NUX | 2026-09-06 00:02:07 | 52.14579 | 11.35670 | 147° | 27km/h | 22678m | 4.5m/s | -51.5°C | 3.4% | 38.5hPa | 2.6V | 03:45:28 | 01:39:12 | 00:00:00 | |
| EDDB2-12 | 2026-09-06 00:02:07 | 52.14553 | 11.35696 | 143° | 33km/h | 22698m | 4.2m/s | -51.6°C | 0.8% | 38.3hPa | 2.6V | 00:00:00 | 00:00:00 | 00:00:00 | |
| DL1XH1-15 | 2026-09-06 00:02:06 | 52.14585 | 11.35663 | 140° | 27km/h | 22673m | 5.6m/s | -51.5°C | 3.4% | 38.5hPa | 2.6V | 03:45:29 | 01:39:11 | 00:00:00 | |
| AA1-15 | 2026-09-06 00:02:05 | 52.14560 | 11.35688 | 146° | 33km/h | 22693m | 5.9m/s | -51.6°C | 0.1% | 38.4hPa | 2.7V | 03:46:04 | 01:39:15 | 00:00:00 | |
| DF7ER-10 | 2026-09-06 00:02:05 | 52.14560 | 11.35688 | 147° | 33km/h | 22693m | 5.9m/s | -51.6°C | 0.8% | 38.4hPa | 2.6V | 03:46:00 | 00:00:00 | 00:00:00 | |
| HSKMA3-T | 2026-09-06 00:02:04 | 52.14566 | 11.35682 | 151° | 31km/h | 22687m | 5.4m/s | -51.6°C | 0.1% | 38.4hPa | 2.6V | 03:46:04 | 01:39:14 | 00:00:00 | |
| DL2RXE-15 | 2026-09-06 00:02:04 | 52.14566 | 11.35682 | 152° | 31km/h | 22687m | 5.4m/s | -51.6°C | 0.8% | 38.4hPa | 2.6V | 03:46:00 | 00:00:00 | 00:00:00 | |
| BIOWL1-15 | 2026-09-06 00:02:03 | 52.14573 | 11.35676 | 151° | 29km/h | 22683m | 4.3m/s | -51.5°C | 0.1% | 38.5hPa | 2.6V | 03:46:55 | 01:39:13 | 00:00:00 | |
| GOEST3-10 | 2026-09-06 00:02:01 | 52.14590 | 11.35655 | 133° | 27km/h | 22668m | 5.5m/s | -51.5°C | 3.4% | 38.4hPa | 2.7V | 00:00:00 | 00:00:00 | 00:00:00 | |
| BUE01 | 2026-09-06 00:02:00 | 52.14599 | 11.35639 | 133° | 26km/h | 22657m | 5.2m/s | -51.5°C | 0.8% | 38.6hPa | 2.6V | 00:00:00 | 00:00:00 | 00:00:00 | |
| DD8BA-10 | 2026-09-06 00:01:58 | 52.14614 | 11.35619 | 145° | 26km/h | 22643m | 4.9m/s | -51.6°C | 3.4% | 38.6hPa | 2.6V | 03:45:00 | 00:00:00 | 00:00:00 | |
| DL1NUX | 2026-09-06 00:01:57 | 52.14631 | 11.35596 | 136° | 29km/h | 22626m | 4.8m/s | -51.7°C | 3.5% | 38.8hPa | 2.6V | 03:45:38 | 01:39:02 | 00:00:00 | |
| DJ8HS-15 | 2026-09-06 00:01:57 | 52.14620 | 11.35612 | 141° | 24km/h | 22637m | 5.9m/s | -51.7°C | 3.4% | 38.6hPa | 2.6V | 00:00:00 | 01:39:04 | 00:00:00 | |
| DF8AY-15 | 2026-09-06 00:01:56 | 52.14636 | 11.35588 | 140° | 22km/h | 22621m | 5.4m/s | -51.7°C | 3.5% | 38.7hPa | 2.6V | 00:00:00 | 01:39:01 | 00:00:00 | |
| DB0DAN | 2026-09-06 00:01:55 | 52.14614 | 11.35619 | 145° | 26km/h | 22642m | 4.9m/s | -51.7°C | 0.8% | 38.66hPa | 2.6V | 00:00:00 | 00:00:00 | 00:00:00 | |
| DL1XH-west | 2026-09-06 00:01:55 | 52.14614 | 11.35619 | 145° | 27km/h | 22642m | 4.9m/s | -51.7°C | 0.1% | 38.7hPa | 2.6V | 03:46:04 | 01:39:05 | 00:00:00 | |
| DB0UT-7 | 2026-09-06 00:01:55 | 52.14647 | 11.35575 | 150° | 22km/h | 22610m | 4.6m/s | -51.7°C | 3.5% | 38.8hPa | 2.7V | 03:45:00 | 01:38:59 | 00:00:00 | |
| SONDE2-11 | 2026-09-06 00:01:54 | 52.14657 | 11.35564 | 142° | 22km/h | 22599m | 5.8m/s | -51.7°C | 0.8% | 38.9hPa | 2.6V | 00:00:00 | 00:00:00 | 00:00:00 | |
| HSKMA3-T | 2026-09-06 00:01:53 | 52.14630 | 11.35596 | 137° | 29km/h | 22626m | 4.8m/s | -51.7°C | 0.1% | 38.8hPa | 2.6V | 03:46:04 | 01:39:02 | 00:00:00 | |
| DL1XH1-15 | 2026-09-06 00:01:53 | 52.14636 | 11.35588 | 139° | 27km/h | 22621m | 5.5m/s | -51.8°C | 3.5% | 38.8hPa | 2.6V | 03:45:39 | 01:39:01 | 00:00:00 | |
| HTAHTA | 2026-09-06 00:01:53 | 52.14657 | 11.35564 | 142° | 22km/h | 22599m | 5.8m/s | -51.7°C | 0.8% | 38.9hPa | 2.6V | 00:00:00 | 00:00:00 | 00:00:00 | |
| BIOWL1-15 | 2026-09-06 00:01:51 | 52.14636 | 11.35588 | 140° | 27km/h | 22621m | 5.5m/s | -51.8°C | 0% | 38.8hPa | 2.6V | 03:46:55 | 01:39:01 | 00:00:00 | |
| DO2SHX-10 | 2026-09-06 00:01:51 | 52.14657 | 11.35564 | 143° | 22km/h | 22599m | 5.8m/s | -51.7°C | 3.5% | 38.9hPa | 2.6V | 00:00:00 | 01:38:57 | 00:00:00 | |
| SO1NDE-10 | 2026-09-06 00:01:49 | 52.14665 | 11.35551 | 130° | 22km/h | 22589m | 4.1m/s | -51.6°C | 3.5% | 38.9hPa | 2.6V | 03:45:00 | 01:38:55 | 00:00:00 | |
| DO2SHX-10 | 2026-09-06 00:01:48 | 52.14669 | 11.35545 | 131° | 22km/h | 22584m | 4.5m/s | -51.6°C | 3.5% | 38.9hPa | 2.6V | 00:00:00 | 01:38:54 | 00:00:00 | |
| DL1NUX | 2026-09-06 00:01:47 | 52.14676 | 11.35533 | 139° | 22km/h | 22573m | 4.8m/s | -51.5°C | 3.4% | 39.1hPa | 2.7V | 03:45:48 | 01:38:52 | 00:00:00 | |
| DL1XH1-15 | 2026-09-06 00:01:46 | 52.14680 | 11.35527 | 137° | 24km/h | 22568m | 4.6m/s | -51.5°C | 3.5% | 39.1hPa | 2.6V | 03:45:49 | 01:38:51 | 00:00:00 | |
| DO9LL-15 | 2026-09-06 00:01:46 | 52.14676 | 11.35533 | 140° | 24km/h | 22573m | 4.7m/s | -51.5°C | 3.4% | 39.0hPa | 2.7V | 00:00:00 | 01:38:52 | 00:00:00 | |
| DL1XH-west | 2026-09-06 00:01:45 | 52.14672 | 11.35539 | 137° | 20km/h | 22579m | 6.1m/s | -51.6°C | 0.1% | 39.1hPa | 2.7V | 03:46:04 | 01:38:53 | 00:00:00 | |
| AA1-15 | 2026-09-06 00:01:44 | 52.14669 | 11.35545 | 130° | 22km/h | 22584m | 4.5m/s | -51.6°C | 0.1% | 39hPa | 2.6V | 03:46:04 | 01:38:54 | 00:00:00 | |
| SMARD9-15 | 2026-09-06 00:01:44 | 52.14689 | 11.35512 | 132° | 26km/h | 22558m | 4.3m/s | -51.4°C | 0.8% | 39.2hPa | 2.6V | 00:00:00 | 00:00:00 | 00:00:00 | |
| SMARD9-10 | 2026-09-06 00:01:43 | 52.14690 | 11.35512 | 134° | 26km/h | 22558m | 4.3m/s | -51.4°C | 0.8% | 39.2hPa | 2.6V | 00:00:00 | 00:00:00 | 00:00:00 | |
| HSKMA3-T | 2026-09-06 00:01:42 | 52.14681 | 11.35527 | 138° | 24km/h | 22569m | 4.6m/s | -51.5°C | 0.2% | 39.1hPa | 2.6V | 03:46:04 | 01:38:51 | 00:00:00 | |
| DC4HF-4 | 2026-09-06 00:01:41 | 52.14699 | 11.35499 | 143° | 24km/h | 22549m | 6.0m/s | -51.4°C | 0.8% | 39.2hPa | 2.6V | 00:00:00 | 00:00:00 | 00:00:00 | |
| DB0DAN | 2026-09-06 00:01:40 | 52.14685 | 11.35520 | 134° | 24km/h | 22563m | 5.8m/s | -51.5°C | 0.8% | 39.14hPa | 2.6V | 00:00:00 | 00:00:00 | 00:00:00 | |
| BIOWL1-15 | 2026-09-06 00:01:39 | 52.14689 | 11.35512 | 133° | 26km/h | 22558m | 4.3m/s | -51.4°C | 0% | 39.2hPa | 2.6V | 03:46:55 | 01:38:49 | 00:00:00 | |
| DL4XJ-10 | 2026-09-06 00:01:39 | 52.14703 | 11.35493 | 152° | 22km/h | 22543m | 5.5m/s | -51.7°C | 0% | 0hPa | 2.6V | 00:00:00 | 00:00:00 | 00:00:00 | |
| EDDB2-12 | 2026-09-06 00:01:38 | 52.14708 | 11.35490 | 155° | 18km/h | 22538m | 4.7m/s | -51.3°C | 0.8% | 39.3hPa | 2.6V | 00:00:00 | 00:00:00 | 00:00:00 | |
| DL1NUX | 2026-09-06 00:01:37 | 52.14719 | 11.35478 | 137° | 18km/h | 22523m | 4.2m/s | -51.2°C | 3.3% | 39.4hPa | 2.6V | 03:45:58 | 01:38:42 | 00:00:00 | |
| DO2SHX-10 | 2026-09-06 00:01:36 | 52.14708 | 11.35490 | 156° | 18km/h | 22538m | 4.7m/s | -51.2°C | 3.4% | 39.3hPa | 2.6V | 00:00:00 | 01:38:45 | 00:00:00 | |
| DO2SHX-10 | 2026-09-06 00:01:35 | 52.14719 | 11.35478 | 138° | 18km/h | 22523m | 4.2m/s | -51.1°C | 3.3% | 39.3hPa | 2.6V | 00:00:00 | 01:38:42 | 00:00:00 | |
| DL1XH-west | 2026-09-06 00:01:34 | 52.14716 | 11.35483 | 142° | 16km/h | 22527m | 5.3m/s | -51.2°C | 0% | 39.4hPa | 2.6V | 03:46:04 | 01:38:43 | 00:00:00 | |
| AA1-15 | 2026-09-06 00:01:34 | 52.14712 | 11.35487 | 152° | 16km/h | 22533m | 5.4m/s | -51.3°C | 0% | 39.4hPa | 2.6V | 03:46:04 | 01:38:44 | 00:00:00 | |
| GOEST3-10 | 2026-09-06 00:01:34 | 52.14726 | 11.35469 | 147° | 26km/h | 22514m | 5.7m/s | -51.1°C | 3.3% | 39.4hPa | 2.7V | 03:46:00 | 00:00:00 | 00:00:00 | |
| S3001 | 2026-09-06 00:01:33 | 52.14737 | 11.35459 | 152° | 24km/h | 22503m | 4.7m/s | -51.1°C | 0.7% | 39.5hPa | 2.7V | 00:00:00 | 00:00:00 | 00:00:00 | |
| HSKMA3-T | 2026-09-06 00:01:31 | 52.14722 | 11.35474 | 140° | 18km/h | 22518m | 4.2m/s | -51.1°C | 0% | 39.4hPa | 2.7V | 03:46:04 | 01:38:41 | 00:00:00 | |
| BUE01 | 2026-09-06 00:01:31 | 52.14743 | 11.35454 | 148° | 26km/h | 22498m | 4.7m/s | -51.0°C | 0.8% | 39.6hPa | 2.6V | 00:00:00 | 00:00:00 | 00:00:00 | |
| BIOWL1-15 | 2026-09-06 00:01:31 | 52.14799 | 11.35380 | 144° | 31km/h | 22436m | 4.3m/s | -51.5°C | 0% | 39.9hPa | 2.6V | 03:46:55 | 01:38:25 | 00:00:00 | |
| DJ2DS-15 | 2026-09-06 00:01:29 | 52.14753 | 11.35441 | 137° | 26km/h | 22488m | 4.9m/s | -51.0°C | 0.7% | 39.6hPa | 2.6V | 00:00:00 | 00:00:00 | 00:00:00 | |
| DD8BA-10 | 2026-09-06 00:01:28 | 52.14753 | 11.35441 | 138° | 24km/h | 22488m | 4.8m/s | -51.0°C | 3.2% | 39.6hPa | 2.6V | 00:00:00 | 00:00:00 | 00:00:00 | |
| AM1SDL-15 | 2026-09-06 00:01:27 | 52.14758 | 11.35434 | 136° | 26km/h | 22483m | 4.6m/s | -51.0°C | 3.2% | 39.6hPa | 2.6V | 00:00:00 | 01:38:34 | 00:00:00 | |
| DL1XH1-15 | 2026-09-06 00:01:26 | 52.14771 | 11.35418 | 148° | 20km/h | 22467m | 4.2m/s | -51.1°C | 3.3% | 39.7hPa | 2.6V | 03:46:09 | 01:38:31 | 00:00:00 | |
| DF8AY | 2026-09-06 00:01:26 | 52.14762 | 11.35427 | 140° | 22km/h | 22477m | 6m/s | -51°C | 0% | 39.6hPa | 2.6V | 03:46:55 | 01:38:33 | 00:00:00 | |
| DB0DAN | 2026-09-06 00:01:25 | 52.14753 | 11.35441 | 137° | 26km/h | 22488m | 4.9m/s | -51°C | 0.7% | 39.61hPa | 2.7V | 00:00:00 | 00:00:00 | 00:00:00 | |
| AA1-15 | 2026-09-06 00:01:24 | 52.14758 | 11.35434 | 136° | 26km/h | 22483m | 4.7m/s | -51°C | 0% | 39.6hPa | 2.7V | 03:46:55 | 01:38:34 | 00:00:00 | |
| DL1XH-west | 2026-09-06 00:01:24 | 52.14767 | 11.35422 | 146° | 20km/h | 22472m | 5.1m/s | -51.1°C | 0% | 39.7hPa | 2.6V | 03:46:55 | 01:38:32 | 00:00:00 | |
| DB0UT-7 | 2026-09-06 00:01:23 | 52.14779 | 11.35408 | 138° | 35km/h | 22457m | 5.9m/s | -51.2°C | 3.3% | 39.8hPa | 2.6V | 00:00:00 | 00:00:00 | 00:00:00 | |
| HSKMA3-T | 2026-09-06 00:01:22 | 52.14771 | 11.35418 | 148° | 20km/h | 22467m | 4.2m/s | -51.1°C | 0% | 39.7hPa | 2.6V | 03:46:55 | 01:38:31 | 00:00:00 | |
| DL1XH-15 | 2026-09-06 00:01:22 | 52.14779 | 11.35408 | 137° | 22km/h | 22457m | 6m/s | -51.2°C | 3.3% | 39.8hPa | 2.7V | 03:46:11 | 01:38:29 | 00:00:00 | |
| DO2SHX-10 | 2026-09-06 00:01:22 | 52.14788 | 11.35394 | 139° | 29km/h | 22447m | 5.0m/s | -51.3°C | 3.4% | 39.8hPa | 2.6V | 03:46:00 | 01:38:27 | 00:00:00 | |
| SONDE2-11 | 2026-09-06 00:01:21 | 52.14793 | 11.35387 | 143° | 27km/h | 22441m | 5.8m/s | -51.4°C | 0.8% | 39.9hPa | 2.6V | 00:00:00 | 00:00:00 | 00:00:00 | |
| DL2RXE-15 | 2026-09-06 00:01:20 | 52.14788 | 11.35394 | 140° | 27km/h | 22447m | 5.1m/s | -51.4°C | 0.8% | 39.9hPa | 2.6V | 00:00:00 | 00:00:00 | 00:00:00 | |
| DD8BA-10 | 2026-09-06 00:01:18 | 52.14799 | 11.35380 | 145° | 38km/h | 22436m | 4.2m/s | -51.4°C | 3.4% | 39.9hPa | 2.6V | 03:46:00 | 00:00:00 | 00:00:00 | |
| DL1NUX | 2026-09-06 00:01:17 | 52.14820 | 11.35352 | 135° | 38km/h | 22419m | 5.4m/s | -51.5°C | 3.4% | 40hPa | 2.6V | 03:46:18 | 01:38:22 | 00:00:00 | |
| DO9LL-15 | 2026-09-06 00:01:16 | 52.14819 | 11.35352 | 136° | 35km/h | 22420m | 5.4m/s | -51.5°C | 3.4% | 40.0hPa | 2.6V | 00:00:00 | 01:38:22 | 00:00:00 | |
| DL1XH-west | 2026-09-06 00:01:14 | 52.14827 | 11.35341 | 136° | 40km/h | 22414m | 4.4m/s | -51.5°C | 0.1% | 40hPa | 2.6V | 03:46:55 | 01:38:21 | 00:00:00 | |
| DF8AY | 2026-09-06 00:01:14 | 52.14813 | 11.35363 | 138° | 37km/h | 22425m | 7m/s | -51.5°C | 0% | 40hPa | 2.7V | 03:46:55 | 01:38:23 | 00:00:00 | |
| GOEST3-10 | 2026-09-06 00:01:13 | 52.14834 | 11.35330 | 138° | 38km/h | 22410m | 5.4m/s | -51.5°C | 3.3% | 40.0hPa | 2.7V | 03:46:00 | 00:00:00 | 00:00:00 | |
| DL1XH-15 | 2026-09-06 00:01:11 | 52.14841 | 11.35319 | 140° | 38km/h | 22404m | 5.5m/s | -51.6°C | 3.4% | 40.1hPa | 2.7V | 03:46:21 | 01:38:19 | 00:00:00 | |
| TFSTFS | 2026-09-06 00:01:11 | 52.14834 | 11.35330 | 139° | 40km/h | 22410m | 5.5m/s | -51.6°C | 0.8% | 40.1hPa | 2.6V | 03:46:00 | 00:00:00 | 00:00:00 | |
| HSKMA3-T | 2026-09-06 00:01:10 | 52.14834 | 11.35330 | 138° | 40km/h | 22410m | 5.5m/s | -51.6°C | 0% | 40.1hPa | 2.6V | 03:46:55 | 01:38:20 | 00:00:00 | |
| DB0DAN | 2026-09-06 00:01:10 | 52.14834 | 11.35330 | 138° | 38km/h | 22410m | 5.5m/s | -51.6°C | 0.8% | 40.08hPa | 2.6V | 00:00:00 | 00:00:00 | 00:00:00 | |
| EDDB2-12 | 2026-09-06 00:01:08 | 52.14874 | 11.35263 | 122° | 37km/h | 22378m | 4.4m/s | -51.6°C | 0.8% | 40.3hPa | 2.7V | 00:00:00 | 00:00:00 | 00:00:00 | |
| DL1NUX | 2026-09-06 00:01:07 | 52.14885 | 11.35238 | 125° | 35km/h | 22367m | 6.2m/s | -51.5°C | 3.3% | 40.4hPa | 2.7V | 03:46:28 | 01:38:12 | 00:00:00 | |
| BIOWL1-15 | 2026-09-06 00:01:07 | 52.14863 | 11.35288 | 132° | 38km/h | 22388m | 5.9m/s | -51.6°C | 0% | 40.3hPa | 2.6V | 03:46:55 | 01:38:16 | 00:00:00 | |
| SONCRA | 2026-09-06 00:01:05 | 52.14879 | 11.35250 | 122° | 35km/h | 22373m | 5.2m/s | -51.6°C | 0.7% | 40.3hPa | 2.7V | 00:00:00 | 00:00:00 | 00:00:00 | |
| HARRO8 | 2026-09-06 00:01:04 | 52.14879 | 11.35250 | 122° | 35km/h | 22373m | 5.2m/s | -51.6°C | 0.7% | 40.3hPa | 2.7V | 00:00:00 | 00:00:00 | 00:00:00 | |
| DL3AQ-11 | 2026-09-06 00:01:03 | 52.14894 | 11.35216 | 122° | 31km/h | 22358m | 4.3m/s | -51.5°C | -1.0% | -1.0hPa | 2.7V | 00:00:00 | 00:00:00 | 00:00:00 | |
| AA1-15 | 2026-09-06 00:01:02 | 52.14884 | 11.35238 | 125° | 35km/h | 22367m | 6.2m/s | -51.5°C | 0% | 40.4hPa | 2.7V | 03:46:55 | 01:38:12 | 00:00:00 | |
| DL1XH-west | 2026-09-06 00:01:02 | 52.14889 | 11.35227 | 126° | 33km/h | 22362m | 4.4m/s | -51.5°C | 0% | 40.4hPa | 2.6V | 03:46:55 | 01:38:11 | 00:00:00 | |
| GOEST3-10 | 2026-09-06 00:01:01 | 52.14894 | 11.35216 | 123° | 33km/h | 22358m | 4.2m/s | -51.5°C | 3.3% | 40.4hPa | 2.6V | 00:00:00 | 00:00:00 | 00:00:00 | |
| DL1XH-15 | 2026-09-06 00:01:01 | 52.14898 | 11.35205 | 119° | 33km/h | 22353m | 5.9m/s | -51.5°C | 3.2% | 40.4hPa | 2.6V | 03:46:31 | 01:38:09 | 00:00:00 | |
| HSKMA3-T | 2026-09-06 00:01:00 | 52.14894 | 11.35216 | 123° | 33km/h | 22358m | 4.3m/s | -51.5°C | 0% | 40.4hPa | 2.6V | 03:46:55 | 01:38:10 | 00:00:00 | |
| S3001 | 2026-09-06 00:00:59 | 52.14906 | 11.35180 | 115° | 33km/h | 22342m | 5.0m/s | -51.6°C | 0.7% | 40.5hPa | 2.6V | 00:00:00 | 00:00:00 | 00:00:00 | |
| DB0ND-19 | 2026-09-06 00:00:58 | 52.14923 | 11.35120 | 109° | 33km/h | 22317m | 5.3m/s | -51.8°C | 0.8% | 40.7hPa | 2.6V | 00:00:00 | 00:00:00 | 00:00:00 | |
| BIOWL1-15 | 2026-09-06 00:00:57 | 52.14913 | 11.35156 | 119° | 31km/h | 22331m | 4.8m/s | -51.6°C | 0% | 40.6hPa | 2.6V | 03:46:55 | 01:38:05 | 00:00:00 | |
| DL1NUX | 2026-09-06 00:00:57 | 52.14923 | 11.35120 | 109° | 35km/h | 22316m | 5.3m/s | -51.8°C | 3.3% | 40.7hPa | 2.6V | 03:46:38 | 01:38:02 | 00:00:00 | |
| BUE01 | 2026-09-06 00:00:57 | 52.14909 | 11.35168 | 117° | 31km/h | 22337m | 6.2m/s | -51.6°C | 0.7% | 40.5hPa | 2.6V | 00:00:00 | 00:00:00 | 00:00:00 | |
| DO2SHX-10 | 2026-09-06 00:00:56 | 52.14909 | 11.35168 | 118° | 31km/h | 22337m | 6.1m/s | -51.5°C | 3.2% | 40.5hPa | 2.6V | 00:00:00 | 01:38:06 | 00:00:00 | |
| DB0DAN | 2026-09-06 00:00:55 | 52.14913 | 11.35156 | 119° | 29km/h | 22331m | 4.8m/s | -51.6°C | 0.8% | 40.58hPa | 2.6V | 00:00:00 | 00:00:00 | 00:00:00 | |
| TFSTFS | 2026-09-06 00:00:55 | 52.14913 | 11.35156 | 120° | 31km/h | 22331m | 4.8m/s | -51.6°C | 0.8% | 40.6hPa | 2.7V | 03:46:00 | 00:00:00 | 00:00:00 | |
| DJ8HS-15 | 2026-09-06 00:00:54 | 52.14917 | 11.35145 | 117° | 31km/h | 22327m | 4.2m/s | -51.6°C | 3.3% | 40.6hPa | 2.7V | 03:46:00 | 01:38:04 | 00:00:00 | |
| DO2SHX-10 | 2026-09-06 00:00:53 | 52.14920 | 11.35133 | 113° | 35km/h | 22322m | 5.4m/s | -51.6°C | 3.3% | 40.6hPa | 2.7V | 03:46:00 | 01:38:03 | 00:00:00 | |
| DL1XH1-15 | 2026-09-06 00:00:52 | 52.14926 | 11.35107 | 107° | 35km/h | 22312m | 4m/s | -51.9°C | 3.4% | 40.7hPa | 2.7V | 03:46:39 | 01:38:01 | 00:00:00 | |
| DF8AY | 2026-09-06 00:00:52 | 52.14923 | 11.35120 | 109° | 35km/h | 22316m | 5.3m/s | -51.8°C | 0% | 40.7hPa | 2.6V | 03:46:55 | 01:38:02 | 00:00:00 | |
| AA1-15 | 2026-09-06 00:00:52 | 52.14926 | 11.35107 | 108° | 35km/h | 22312m | 4m/s | -51.9°C | 0% | 40.7hPa | 2.7V | 03:46:55 | 01:38:01 | 00:00:00 | |
| DL1XH-15 | 2026-09-06 00:00:52 | 52.14931 | 11.35081 | 113° | 31km/h | 22302m | 5.8m/s | -52.1°C | 3.4% | 40.8hPa | 2.7V | 03:46:41 | 01:37:59 | 00:00:00 | |
| GOEST3-10 | 2026-09-06 00:00:51 | 52.14928 | 11.35093 | 110° | 31km/h | 22307m | 4.6m/s | -52.0°C | 3.4% | 40.7hPa | 2.7V | 03:46:00 | 00:00:00 | 00:00:00 | |
| HSKMA3-T | 2026-09-06 00:00:50 | 52.14928 | 11.35094 | 109° | 33km/h | 22307m | 4.6m/s | -52°C | 0.1% | 40.7hPa | 2.7V | 03:46:55 | 01:38:00 | 00:00:00 | |
| DM0DOS-11 | 2026-09-06 00:00:49 | 52.14939 | 11.35059 | 122° | 29km/h | 22292m | 4.1m/s | -52.3°C | 3.5% | 40.8hPa | 2.6V | 03:46:43 | 01:37:57 | 00:00:00 | |
| DB0UT-7 | 2026-09-06 00:00:49 | 52.14931 | 11.35081 | 114° | 31km/h | 22302m | 5.8m/s | -52.1°C | 3.4% | 40.7hPa | 2.6V | 00:00:00 | 01:37:59 | 00:00:00 | |
| SMARD9-10 | 2026-09-06 00:00:48 | 52.14935 | 11.35070 | 121° | 29km/h | 22297m | 4.8m/s | -52.2°C | 0.8% | 40.8hPa | 2.6V | 00:00:00 | 00:00:00 | 00:00:00 | |
| DL1NUX | 2026-09-06 00:00:47 | 52.14954 | 11.34997 | 103° | 35km/h | 22267m | 4.4m/s | -52.4°C | 3.5% | 41hPa | 2.6V | 03:46:48 | 01:37:52 | 00:00:00 | |
| SO1NDE-10 | 2026-09-06 00:00:47 | 52.14946 | 11.35037 | 116° | 31km/h | 22284m | 5.5m/s | -52.4°C | 3.5% | 40.8hPa | 2.7V | 00:00:00 | 01:37:55 | 00:00:00 | |
| DB0NH | 2026-09-06 00:00:46 | 52.14956 | 11.34983 | 105° | 29km/h | 22263m | 5.4m/s | -52.3°C | 3.5% | 41.0hPa | 2.7V | 00:00:00 | 01:37:51 | 00:00:00 | |
| BIOWL1-15 | 2026-09-06 00:00:45 | 52.14946 | 11.35037 | 115° | 33km/h | 22283m | 5.5m/s | -52.4°C | 0.1% | 40.9hPa | 2.7V | 03:46:55 | 01:37:55 | 00:00:00 | |
| DO2SHX-10 | 2026-09-06 00:00:43 | 52.14961 | 11.34948 | 96° | 27km/h | 22248m | 5.3m/s | -52.3°C | 3.5% | 41.0hPa | 2.6V | 00:00:00 | 01:37:48 | 00:00:00 | |
| DM0DOS-11 | 2026-09-06 00:00:42 | 52.14962 | 11.34937 | 89° | 27km/h | 22242m | 6m/s | -52.4°C | 3.5% | 41.1hPa | 2.6V | 03:46:53 | 01:37:47 | 00:00:00 | |
| SMARD9-15 | 2026-09-06 00:00:42 | 52.14962 | 11.34937 | 89° | 26km/h | 22242m | 6.0m/s | -52.4°C | 0.8% | 41.1hPa | 2.6V | 00:00:00 | 00:00:00 | 00:00:00 | |
| DF8AY | 2026-09-06 00:00:41 | 52.14956 | 11.34983 | 105° | 33km/h | 22263m | 5.5m/s | -52.4°C | 0.1% | 41hPa | 2.6V | 03:46:55 | 01:37:51 | 00:00:00 | |
| DL1XH-15 | 2026-09-06 00:00:41 | 52.14960 | 11.34959 | 102° | 27km/h | 22253m | 4.4m/s | -52.4°C | 3.5% | 41.1hPa | 2.7V | 03:46:51 | 01:37:49 | 00:00:00 | |
| AA1-15 | 2026-09-06 00:00:41 | 52.14958 | 11.34971 | 106° | 31km/h | 22257m | 4.5m/s | -52.4°C | 0.1% | 41hPa | 2.7V | 03:46:55 | 01:37:50 | 00:00:00 | |
| DB0DAN | 2026-09-06 00:00:40 | 52.14958 | 11.34971 | 106° | 29km/h | 22257m | 4.5m/s | -52.4°C | 0.8% | 41.04hPa | 2.7V | 00:00:00 | 00:00:00 | 00:00:00 | |
| HSKMA3-T | 2026-09-06 00:00:40 | 52.14960 | 11.34959 | 103° | 27km/h | 22253m | 4.4m/s | -52.4°C | 0.1% | 41.1hPa | 2.7V | 03:46:55 | 01:37:49 | 00:00:00 | |
| DL3AQ-11 | 2026-09-06 00:00:39 | 52.14962 | 11.34892 | 101° | 27km/h | 22223m | 5.1m/s | -52.5°C | -1.0% | -1.0hPa | 2.6V | 00:00:00 | 00:00:00 | 00:00:00 | |
| DO3MHA-11 | 2026-09-06 00:00:38 | 52.14961 | 11.34914 | 87° | 33km/h | 22233m | 4.1m/s | -52.4°C | 3.5% | 41.1hPa | 2.6V | 00:00:00 | 01:37:45 | 00:00:00 | |
| DO2SHX-10 | 2026-09-06 00:00:37 | 52.14961 | 11.34914 | 87° | 29km/h | 22233m | 4.1m/s | -52.4°C | 3.5% | 41.1hPa | 2.6V | 00:00:00 | 01:37:45 | 00:00:00 | |
| EDDB2-12 | 2026-09-06 00:00:36 | 52.14962 | 11.34892 | 101° | 27km/h | 22223m | 5.1m/s | -52.5°C | 0.8% | 41.2hPa | 2.6V | 00:00:00 | 00:00:00 | 00:00:00 | |
| BIOWL1-15 | 2026-09-06 00:00:35 | 52.14979 | 11.34784 | 107° | 29km/h | 22182m | 4.6m/s | -52.5°C | 0.2% | 41.5hPa | 2.6V | 03:49:28 | 01:37:35 | 00:00:00 | |
| HARRO8 | 2026-09-06 00:00:35 | 52.14964 | 11.34880 | 105° | 31km/h | 22218m | 4.2m/s | -52.5°C | 0.9% | 41.3hPa | 2.7V | 00:00:00 | 00:00:00 | 00:00:00 | |
| DL1XH-15 | 2026-09-06 00:00:32 | 52.14969 | 11.34838 | 101° | 37km/h | 22203m | 4.8m/s | -52.5°C | 3.6% | 41.4hPa | 2.7V | 03:47:01 | 01:37:39 | 00:00:00 | |
| DO2SHX-10 | 2026-09-06 00:00:32 | 52.14964 | 11.34880 | 106° | 33km/h | 22218m | 4.2m/s | -52.5°C | 3.6% | 41.2hPa | 2.6V | 00:00:00 | 01:37:42 | 00:00:00 | |
| DF8AY | 2026-09-06 00:00:31 | 52.14968 | 11.34853 | 102° | 37km/h | 22208m | 5.7m/s | -52.6°C | 0.1% | 41.4hPa | 2.6V | 03:47:46 | 01:37:40 | 00:00:00 | |
| DM0DOS-11 | 2026-09-06 00:00:31 | 52.14974 | 11.34809 | 106° | 35km/h | 22192m | 6.1m/s | -52.5°C | 3.6% | 41.5hPa | 2.7V | 03:47:03 | 01:37:37 | 00:00:00 | |
| HSKMA3-T | 2026-09-06 00:00:29 | 52.14969 | 11.34838 | 102° | 37km/h | 22203m | 4.8m/s | -52.6°C | 0.1% | 41.4hPa | 2.7V | 03:47:46 | 01:37:39 | 00:00:00 | |
| DO2SHX-10 | 2026-09-06 00:00:29 | 52.14969 | 11.34838 | 102° | 37km/h | 22203m | 4.7m/s | -52.5°C | 3.6% | 41.3hPa | 2.7V | 03:47:00 | 01:37:39 | 00:00:00 | |
| DL1NUX | 2026-09-06 00:00:27 | 52.14982 | 11.34750 | 98° | 26km/h | 22167m | 4.6m/s | -52.6°C | 3.5% | 41.6hPa | 2.7V | 03:47:08 | 01:37:32 | 00:00:00 | |
| BUE01 | 2026-09-06 00:00:26 | 52.14979 | 11.34784 | 106° | 29km/h | 22183m | 4.6m/s | -52.5°C | 0.9% | 41.5hPa | 2.6V | 00:00:00 | 00:00:00 | 00:00:00 | |
| DB0DAN | 2026-09-06 00:00:25 | 52.14979 | 11.34784 | 107° | 29km/h | 22182m | 4.6m/s | -52.5°C | 0.9% | 41.54hPa | 2.6V | 00:00:00 | 00:00:00 | 00:00:00 | |
| DO3MHA-11 | 2026-09-06 00:00:25 | 52.14979 | 11.34784 | 107° | 27km/h | 22183m | 4.6m/s | -52.5°C | 3.6% | 41.5hPa | 2.6V | 00:00:00 | 01:37:35 | 00:00:00 | |
| DO2SHX-10 | 2026-09-06 00:00:24 | 52.14981 | 11.34761 | 97° | 26km/h | 22172m | 4.8m/s | -52.5°C | 3.5% | 41.5hPa | 2.6V | 00:00:00 | 01:37:33 | 00:00:00 | |
| DM0DOS-11 | 2026-09-06 00:00:23 | 52.14992 | 11.34671 | 95° | 31km/h | 22131m | 5m/s | -52.5°C | 3.6% | 41.8hPa | 2.7V | 03:47:15 | 01:37:25 | 00:00:00 | |
| DB0UT-7 | 2026-09-06 00:00:21 | 52.14987 | 11.34720 | 108° | 24km/h | 22152m | 4.6m/s | -52.5°C | 3.6% | 41.7hPa | 2.6V | 00:00:00 | 00:00:00 | 00:00:00 | |
| DO2SHX-10 | 2026-09-06 00:00:20 | 52.14990 | 11.34697 | 98° | 31km/h | 22141m | 5.3m/s | -52.5°C | 3.6% | 41.7hPa | 2.7V | 03:47:00 | 01:37:27 | 00:00:00 | |
| HSKMA3-T | 2026-09-06 00:00:19 | 52.14991 | 11.34684 | 95° | 33km/h | 22136m | 4.5m/s | -52.6°C | 0.1% | 41.8hPa | 2.7V | 03:47:46 | 01:37:26 | 00:00:00 | |
| AA1-15 | 2026-09-06 00:00:19 | 52.14992 | 11.34671 | 96° | 31km/h | 22131m | 5.1m/s | -52.6°C | 0.1% | 41.8hPa | 2.7V | 03:47:46 | 01:37:25 | 00:00:00 | |
| DF8AY | 2026-09-06 00:00:18 | 52.14990 | 11.34697 | 98° | 31km/h | 22141m | 5.4m/s | -52.6°C | 0.1% | 41.8hPa | 2.6V | 03:47:46 | 01:37:27 | 00:00:00 | |
| SONDE2-11 | 2026-09-06 00:00:18 | 52.14993 | 11.34659 | 97° | 29km/h | 22126m | 5.8m/s | -52.5°C | 0.8% | 41.9hPa | 2.6V | 00:00:00 | 00:00:00 | 00:00:00 | |
| DL1ZP-14 | 2026-09-06 00:00:17 | 52.14993 | 11.34659 | 97° | 29km/h | 22126m | 5.8m/s | -52.5°C | 0.8% | 41.9hPa | 2.6V | 00:00:00 | 00:00:00 | 00:00:00 | |
| HTAHTA | 2026-09-06 00:00:15 | 52.14993 | 11.34659 | 97° | 29km/h | 22126m | 5.8m/s | -52.5°C | 0.8% | 41.9hPa | 2.7V | 00:00:00 | 00:00:00 | 00:00:00 | |
| DJ2DS-15 | 2026-09-06 00:00:14 | 52.14994 | 11.34646 | 98° | 29km/h | 22121m | 4.4m/s | -52.5°C | 0.8% | 41.9hPa | 2.7V | 00:00:00 | 00:00:00 | 00:00:00 | |
| DL1XH1-15 | 2026-09-06 00:00:12 | 52.14995 | 11.34623 | 90° | 29km/h | 22111m | 5.7m/s | -52.4°C | 3.6% | 42hPa | 2.7V | 03:47:19 | 01:37:21 | 00:00:00 | |
| DO9LL-15 | 2026-09-06 00:00:12 | 52.14995 | 11.34635 | 95° | 22km/h | 22117m | 3.9m/s | -52.4°C | 3.6% | 41.9hPa | 2.7V | 03:47:00 | 01:37:22 | 00:00:00 | |
| DF7ER-10 | 2026-09-06 00:00:11 | 52.14994 | 11.34612 | 85° | 29km/h | 22106m | 5.1m/s | -52.3°C | 0.9% | 42.0hPa | 2.7V | 03:47:00 | 00:00:00 | 00:00:00 | |
| DB0DAN | 2026-09-06 00:00:10 | 52.14995 | 11.34611 | 84° | 27km/h | 22106m | 5.1m/s | -52.4°C | 0.8% | 42.01hPa | 2.7V | 00:00:00 | 00:00:00 | 00:00:00 | |
| DM0DOS-11 | 2026-09-06 00:00:09 | 52.14993 | 11.34573 | 98° | 18km/h | 22086m | 4.6m/s | -52.2°C | 3.5% | 42.1hPa | 2.6V | 03:47:24 | 01:37:16 | 00:00:00 | |
| SMARD9-15 | 2026-09-06 00:00:08 | 52.14993 | 11.34573 | 98° | 18km/h | 22087m | 4.6m/s | -52.2°C | 0.8% | 42.1hPa | 2.6V | 00:00:00 | 00:00:00 | 00:00:00 | |
| DF8AY | 2026-09-06 00:00:07 | 52.14993 | 11.34581 | 91° | 20km/h | 22092m | 5.9m/s | -52.2°C | 0.1% | 42.1hPa | 2.6V | 03:47:46 | 01:37:17 | 00:00:00 | |
| DL1XH1-15 | 2026-09-06 00:00:07 | 52.14995 | 11.34531 | 88° | 20km/h | 22060m | 5.9m/s | -52.1°C | 3.4% | 42.3hPa | 2.6V | 03:47:29 | 01:37:11 | 00:00:00 | |
| DL1XH-west | 2026-09-06 00:00:07 | 52.14994 | 11.34565 | 99° | 20km/h | 22082m | 4.7m/s | -52.2°C | 0.1% | 42.2hPa | 2.7V | 03:47:46 | 01:37:15 | 00:00:00 | |
| GOEST3-10 | 2026-09-06 00:00:06 | 52.14994 | 11.34565 | 100° | 20km/h | 22082m | 4.6m/s | -52.1°C | 3.5% | 42.1hPa | 2.6V | 00:00:00 | 01:37:15 | 00:00:00 | |
| AA1-15 | 2026-09-06 00:00:05 | 52.14995 | 11.34548 | 90° | 22km/h | 22071m | 5.2m/s | -52.1°C | 0.1% | 42.2hPa | 2.6V | 03:47:46 | 01:37:13 | 00:00:00 | |
| DO2SHX-10 | 2026-09-06 00:00:00 | 52.14995 | 11.34523 | 85° | 20km/h | 22055m | 4.5m/s | -52.0°C | 3.4% | 42.3hPa | 2.6V | 00:00:00 | 01:37:10 | 00:00:00 | |
| DM0DOS-11 | 2026-09-05 23:59:59 | 52.14991 | 11.34488 | 82° | 24km/h | 22035m | 4.5m/s | -52°C | 3.3% | 42.5hPa | 2.6V | 03:47:34 | 01:37:06 | 00:00:00 | |
| HSKMA3-T | 2026-09-05 23:59:58 | 52.14993 | 11.34508 | 79° | 22km/h | 22046m | 5.7m/s | -52°C | 0% | 42.4hPa | 2.7V | 03:47:46 | 01:37:08 | 00:00:00 | |
| GOEST3-10 | 2026-09-05 23:59:58 | 52.14993 | 11.34508 | 79° | 24km/h | 22046m | 5.7m/s | -52.0°C | 3.4% | 42.4hPa | 2.7V | 00:00:00 | 00:00:00 | 00:00:00 | |
| DO2SHX-10 | 2026-09-05 23:59:57 | 52.14992 | 11.34498 | 80° | 24km/h | 22040m | 5.2m/s | -52.0°C | 3.4% | 42.4hPa | 2.6V | 00:00:00 | 01:37:07 | 00:00:00 | |
| DF8AY | 2026-09-05 23:59:56 | 52.14991 | 11.34488 | 83° | 24km/h | 22035m | 4.5m/s | -52°C | 0% | 42.5hPa | 2.6V | 03:47:46 | 01:37:06 | 00:00:00 | |
| DB0DAN | 2026-09-05 23:59:55 | 52.14991 | 11.34478 | 89° | 22km/h | 22030m | 6m/s | -52°C | 0.8% | 42.5hPa | 2.6V | 00:00:00 | 00:00:00 | 00:00:00 | |
| DL1XH-west | 2026-09-05 23:59:54 | 52.14991 | 11.34469 | 99° | 22km/h | 22024m | 5.2m/s | -51.9°C | 0% | 42.6hPa | 2.7V | 03:47:46 | 01:37:04 | 00:00:00 | |
| DO2SHX-10 | 2026-09-05 23:59:54 | 52.14991 | 11.34469 | 99° | 24km/h | 22025m | 5.2m/s | -51.9°C | 3.4% | 42.5hPa | 2.7V | 00:00:00 | 01:37:04 | 00:00:00 | |
| AA1-15 | 2026-09-05 23:59:53 | 52.14992 | 11.34460 | 103° | 24km/h | 22020m | 4.3m/s | -51.9°C | 0% | 42.6hPa | 2.7V | 03:47:46 | 01:37:03 | 00:00:00 | |
| DD8BA-10 | 2026-09-05 23:59:53 | 52.14992 | 11.34460 | 104° | 18km/h | 22020m | 4.2m/s | -51.9°C | 3.3% | 42.6hPa | 2.6V | 03:47:00 | 00:00:00 | 00:00:00 | |
| DM0DOS-11 | 2026-09-05 23:59:51 | 52.15000 | 11.34406 | 96° | 13km/h | 21984m | 5.1m/s | -52.3°C | 3.4% | 42.8hPa | 2.6V | 03:47:44 | 01:36:56 | 00:00:00 | |
| DO2SHX-10 | 2026-09-05 23:59:51 | 52.14995 | 11.34440 | 102° | 22km/h | 22010m | 4.9m/s | -51.9°C | 3.3% | 42.6hPa | 2.7V | 03:47:00 | 01:37:01 | 00:00:00 | |
| DF7ER-10 | 2026-09-05 23:59:49 | 52.14997 | 11.34423 | 105° | 18km/h | 22000m | 5.4m/s | -52.1°C | 0.8% | 42.7hPa | 2.7V | 03:47:00 | 00:00:00 | 00:00:00 | |
| DL4BBY-15 | 2026-09-05 23:59:48 | 52.14998 | 11.34416 | 109° | 24km/h | 21995m | 5.9m/s | -52.5°C | 0% | 0hPa | 2.7V | 00:00:00 | 00:00:00 | 00:00:00 | |
| HSKMA3-T | 2026-09-05 23:59:47 | 52.14999 | 11.34411 | 105° | 13km/h | 21989m | 5.1m/s | -52.2°C | 0% | 42.8hPa | 2.7V | 03:47:46 | 01:36:57 | 00:00:00 | |
| DF8AY | 2026-09-05 23:59:46 | 52.15000 | 11.34375 | 114° | 16km/h | 21960m | 5.7m/s | -52.3°C | 0% | 43hPa | 2.7V | 03:48:37 | 01:36:51 | 00:00:00 | |
| AM1SDL-15 | 2026-09-05 23:59:46 | 52.14999 | 11.34406 | 97° | 18km/h | 21984m | 5.0m/s | -52.2°C | 3.4% | 42.7hPa | 2.6V | 00:00:00 | 01:36:56 | 00:00:00 | |
| DL1XH1-15 | 2026-09-05 23:59:45 | 52.15000 | 11.34375 | 114° | 16km/h | 21959m | 5.7m/s | -52.3°C | 3.4% | 43hPa | 2.7V | 03:47:49 | 01:36:51 | 00:00:00 | |
| DO2SHX-10 | 2026-09-05 23:59:45 | 52.14999 | 11.34400 | 86° | 15km/h | 21979m | 5.5m/s | -52.2°C | 3.4% | 42.8hPa | 2.6V | 00:00:00 | 01:36:55 | 00:00:00 | |
| DL1XH-west | 2026-09-05 23:59:43 | 52.14999 | 11.34388 | 87° | 16km/h | 21970m | 3.6m/s | -52.3°C | 0% | 42.9hPa | 2.6V | 03:48:37 | 01:36:53 | 00:00:00 | |
| DO2SHX-10 | 2026-09-05 23:59:41 | 52.15000 | 11.34375 | 115° | 20km/h | 21960m | 5.6m/s | -52.3°C | 3.4% | 42.9hPa | 2.7V | 00:00:00 | 01:36:51 | 00:00:00 | |
| DB0DAN | 2026-09-05 23:59:40 | 52.15002 | 11.34368 | 122° | 18km/h | 21954m | 4.9m/s | -52.4°C | 0.8% | 43.01hPa | 2.7V | 00:00:00 | 00:00:00 | 00:00:00 | |
| EDDB2-11 | 2026-09-05 23:59:40 | 52.15005 | 11.34361 | 121° | 20km/h | 21950m | 4.9m/s | -52.4°C | 0.9% | 43.1hPa | 2.7V | 00:00:00 | 00:00:00 | 00:00:00 | |
| DM0DOS-11 | 2026-09-05 23:59:39 | 52.15013 | 11.34336 | 112° | 22km/h | 21934m | 4.5m/s | -52.6°C | 3.4% | 43.1hPa | 2.7V | 03:47:54 | 01:36:46 | 00:00:00 | |
| DF7ER-10 | 2026-09-05 23:59:38 | 52.15008 | 11.34353 | 120° | 24km/h | 21944m | 5.8m/s | -52.4°C | 0.8% | 43.1hPa | 2.6V | 03:48:00 | 00:00:00 | 00:00:00 | |
| HSKMA3-T | 2026-09-05 23:59:37 | 52.15011 | 11.34344 | 115° | 24km/h | 21939m | 4.8m/s | -52.5°C | 0% | 43.1hPa | 2.6V | 03:48:37 | 01:36:47 | 00:00:00 | |
| DL1XH1-15 | 2026-09-05 23:59:35 | 52.15021 | 11.34304 | 101° | 18km/h | 21909m | 5.8m/s | -52.9°C | 3.4% | 43.3hPa | 2.7V | 03:47:59 | 01:36:41 | 00:00:00 | |
| DF8AY | 2026-09-05 23:59:35 | 52.15015 | 11.34328 | 115° | 18km/h | 21929m | 6.2m/s | -52.6°C | 0% | 43.2hPa | 2.7V | 03:48:37 | 01:36:45 | 00:00:00 | |
| DO9LL-15 | 2026-09-05 23:59:35 | 52.15015 | 11.34328 | 115° | 33km/h | 21929m | 6.2m/s | -52.6°C | 3.4% | 43.1hPa | 2.7V | 00:00:00 | 01:36:45 | 00:00:00 | |
| AA1-15 | 2026-09-05 23:59:33 | 52.15019 | 11.34316 | 114° | 15km/h | 21919m | 3.9m/s | -52.8°C | 0% | 43.3hPa | 2.6V | 03:48:37 | 01:36:43 | 00:00:00 | |
| DL1XH-west | 2026-09-05 23:59:32 | 52.15021 | 11.34304 | 102° | 18km/h | 21909m | 5.8m/s | -52.9°C | 0% | 43.3hPa | 2.7V | 03:48:37 | 01:36:41 | 00:00:00 | |
| HARRO8 | 2026-09-05 23:59:32 | 52.15022 | 11.34296 | 102° | 20km/h | 21904m | 5.1m/s | -53.0°C | 0.8% | 43.4hPa | 2.6V | 00:00:00 | 00:00:00 | 00:00:00 | |
| DO2SHX-10 | 2026-09-05 23:59:29 | 52.15023 | 11.34287 | 109° | 26km/h | 21899m | 5.0m/s | -53.0°C | 3.4% | 43.3hPa | 2.6V | 00:00:00 | 01:36:39 | 00:00:00 | |
| DF7ER-10 | 2026-09-05 23:59:28 | 52.15026 | 11.34278 | 117° | 26km/h | 21894m | 5.7m/s | -53.1°C | 0.9% | 43.4hPa | 2.6V | 03:48:00 | 00:00:00 | 00:00:00 | |
| HSKMA3-T | 2026-09-05 23:59:26 | 52.15033 | 11.34258 | 122° | 33km/h | 21884m | 4.4m/s | -53.3°C | 0.1% | 43.5hPa | 2.6V | 03:48:37 | 01:36:36 | 00:00:00 | |
| DO2SHX-10 | 2026-09-05 23:59:26 | 52.15033 | 11.34258 | 122° | 35km/h | 21884m | 4.3m/s | -53.2°C | 3.5% | 43.4hPa | 2.6V | 03:48:00 | 01:36:36 | 00:00:00 | |
| DF8AY | 2026-09-05 23:59:24 | 52.15042 | 11.34233 | 119° | 38km/h | 21872m | 5.8m/s | -53.3°C | 0.1% | 43.5hPa | 2.7V | 03:48:37 | 01:36:34 | 00:00:00 | |
| DB0ND-19 | 2026-09-05 23:59:24 | 52.15046 | 11.34219 | 117° | 38km/h | 21867m | 4.4m/s | -53.3°C | 0.8% | 43.6hPa | 2.6V | 00:00:00 | 00:00:00 | 00:00:00 | |
| AA1-15 | 2026-09-05 23:59:23 | 52.15046 | 11.34219 | 118° | 38km/h | 21867m | 4.4m/s | -53.3°C | 0.1% | 43.6hPa | 2.6V | 03:48:37 | 01:36:33 | 00:00:00 | |
| DO2SHX-10 | 2026-09-05 23:59:23 | 52.15046 | 11.34219 | 118° | 37km/h | 21868m | 4.4m/s | -53.3°C | 3.5% | 43.5hPa | 2.6V | 00:00:00 | 01:36:33 | 00:00:00 | |
| DL1XH-west | 2026-09-05 23:59:21 | 52.15056 | 11.34192 | 122° | 35km/h | 21857m | 5.9m/s | -53.4°C | 0.1% | 43.6hPa | 2.6V | 03:48:37 | 01:36:31 | 00:00:00 | |
| DO2SHX-10 | 2026-09-05 23:59:20 | 52.15060 | 11.34180 | 124° | 35km/h | 21852m | 4.4m/s | -53.4°C | 3.5% | 43.6hPa | 2.6V | 00:00:00 | 01:36:30 | 00:00:00 | |
| DB0UT-7 | 2026-09-05 23:59:19 | 52.15065 | 11.34168 | 122° | 40km/h | 21847m | 4.1m/s | -53.6°C | 3.6% | 43.7hPa | 2.6V | 00:00:00 | 00:00:00 | 00:00:00 | |
| DL1LOL-11 | 2026-09-05 23:59:18 | 52.15073 | 11.34143 | 114° | 37km/h | 21837m | 5.2m/s | -53.8°C | 0.9% | 43.8hPa | 2.6V | 00:00:00 | 00:00:00 | 00:00:00 | |
| DL1XH1-15 | 2026-09-05 23:59:16 | 52.15101 | 11.34058 | 121° | 42km/h | 21809m | 4.5m/s | -54.2°C | 3.8% | 44hPa | 2.6V | 03:48:19 | 01:36:21 | 00:00:00 | |
| HSKMA3-T | 2026-09-05 23:59:16 | 52.15077 | 11.34128 | 112° | 38km/h | 21833m | 3.9m/s | -54°C | 0.2% | 43.8hPa | 2.6V | 03:48:37 | 01:36:26 | 00:00:00 | |
| DL3AQ-11 | 2026-09-05 23:59:15 | 52.15106 | 11.34043 | 118° | 44km/h | 21804m | 5.7m/s | -54.4°C | -1.0% | -1.0hPa | 2.7V | 00:00:00 | 00:00:00 | 00:00:00 | |
| DF8AY | 2026-09-05 23:59:14 | 52.15090 | 11.34086 | 123° | 40km/h | 21818m | 4.8m/s | -54.1°C | 0.3% | 43.9hPa | 2.7V | 03:48:37 | 01:36:23 | 00:00:00 | |
| DD8BA-10 | 2026-09-05 23:59:13 | 52.15090 | 11.34086 | 123° | 44km/h | 21818m | 4.7m/s | -54.1°C | 3.8% | 43.9hPa | 2.6V | 03:48:00 | 00:00:00 | 00:00:00 | |
| AA1-15 | 2026-09-05 23:59:12 | 52.15095 | 11.34072 | 123° | 40km/h | 21813m | 4.1m/s | -54.2°C | 0.2% | 44hPa | 2.6V | 03:48:37 | 01:36:22 | 00:00:00 | |
| HTAHTA | 2026-09-05 23:59:12 | 52.15095 | 11.34072 | 123° | 40km/h | 21814m | 4.1m/s | -54.2°C | 0.9% | 44.0hPa | 2.6V | 00:00:00 | 00:00:00 | 00:00:00 | |
| DM0DOS-11 | 2026-09-05 23:59:11 | 52.15126 | 11.33976 | 117° | 44km/h | 21784m | 4.8m/s | -54.5°C | 3.9% | 44.2hPa | 2.6V | 03:48:24 | 01:36:16 | 00:00:00 | |
| DL1XH-west | 2026-09-05 23:59:11 | 52.15106 | 11.34043 | 119° | 44km/h | 21804m | 5.7m/s | -54.4°C | 0.3% | 44hPa | 2.6V | 03:48:37 | 01:36:20 | 00:00:00 | |
| DL1XH-15 | 2026-09-05 23:59:10 | 52.15112 | 11.34026 | 115° | 46km/h | 21799m | 4.6m/s | -54.4°C | 3.9% | 44hPa | 2.7V | 03:48:21 | 01:36:19 | 00:00:00 | |
| DB0DAN | 2026-09-05 23:59:10 | 52.15106 | 11.34043 | 119° | 42km/h | 21804m | 5.7m/s | -54.4°C | 0.9% | 44hPa | 2.6V | 00:00:00 | 00:00:00 | 00:00:00 | |
| BIOWL1-15 | 2026-09-05 23:59:09 | 52.15111 | 11.34026 | 116° | 46km/h | 21799m | 4.6m/s | -54.4°C | 0.3% | 44hPa | 2.7V | 03:49:28 | 01:36:19 | 00:00:00 | |
| EDDB2-11 | 2026-09-05 23:59:09 | 52.15116 | 11.34009 | 115° | 46km/h | 21794m | 4.2m/s | -54.5°C | 0.9% | 44.1hPa | 2.7V | 00:00:00 | 00:00:00 | 00:00:00 | |
| DO2SHX-10 | 2026-09-05 23:59:08 | 52.15116 | 11.34009 | 116° | 44km/h | 21794m | 4.2m/s | -54.4°C | 3.8% | 44.0hPa | 2.7V | 00:00:00 | 01:36:18 | 00:00:00 | |
| DL1XH1-15 | 2026-09-05 23:59:06 | 52.15148 | 11.33895 | 111° | 42km/h | 21760m | 4.7m/s | -54.4°C | 3.9% | 44.3hPa | 2.7V | 03:48:29 | 01:36:11 | 00:00:00 | |
| DL4XJ-10 | 2026-09-05 23:59:06 | 52.15126 | 11.33976 | 118° | 38km/h | 21784m | 4.8m/s | -54.9°C | 0% | 0hPa | 2.6V | 00:00:00 | 00:00:00 | 00:00:00 | |
| HSKMA3-T | 2026-09-05 23:59:05 | 52.15131 | 11.33961 | 117° | 42km/h | 21779m | 4.3m/s | -54.5°C | 0.3% | 44.2hPa | 2.6V | 03:48:37 | 01:36:15 | 00:00:00 | |
| DO9LL-15 | 2026-09-05 23:59:05 | 52.15131 | 11.33961 | 117° | 35km/h | 21780m | 4.2m/s | -54.5°C | 3.9% | 44.1hPa | 2.6V | 00:00:00 | 01:36:15 | 00:00:00 | |
| SMARD9-15 | 2026-09-05 23:59:04 | 52.15136 | 11.33945 | 114° | 42km/h | 21775m | 4.7m/s | -54.5°C | 0.9% | 44.2hPa | 2.6V | 00:00:00 | 00:00:00 | 00:00:00 | |
| DF8AY | 2026-09-05 23:59:03 | 52.15140 | 11.33928 | 111° | 44km/h | 21770m | 5.7m/s | -54.5°C | 0.2% | 44.2hPa | 2.6V | 03:48:37 | 01:36:13 | 00:00:00 | |
| DD8BA-10 | 2026-09-05 23:59:03 | 52.15140 | 11.33928 | 112° | 40km/h | 21770m | 5.7m/s | -54.5°C | 3.9% | 44.2hPa | 2.6V | 00:00:00 | 00:00:00 | 00:00:00 | |
| AA1-15 | 2026-09-05 23:59:02 | 52.15144 | 11.33912 | 110° | 44km/h | 21765m | 4.6m/s | -54.5°C | 0.3% | 44.3hPa | 2.7V | 03:48:37 | 01:36:12 | 00:00:00 | |
| DO2SHX-10 | 2026-09-05 23:59:02 | 52.15144 | 11.33912 | 110° | 42km/h | 21765m | 4.5m/s | -54.4°C | 3.9% | 44.2hPa | 2.7V | 03:48:00 | 01:36:12 | 00:00:00 | |
| DM0DOS-11 | 2026-09-05 23:59:01 | 52.15169 | 11.33824 | 113° | 38km/h | 21736m | 5.2m/s | -54.3°C | 3.9% | 44.5hPa | 2.7V | 03:48:34 | 01:36:06 | 00:00:00 | |
| DL1XH-west | 2026-09-05 23:59:01 | 52.15152 | 11.33880 | 114° | 40km/h | 21755m | 5.7m/s | -54.4°C | 0.3% | 44.4hPa | 2.7V | 03:48:37 | 01:36:10 | 00:00:00 | |
| DL1XH-15 | 2026-09-05 23:59:00 | 52.15156 | 11.33866 | 117° | 38km/h | 21750m | 4.4m/s | -54.4°C | 3.9% | 44.4hPa | 2.6V | 03:48:31 | 01:36:09 | 00:00:00 | |
| HARRO8 | 2026-09-05 23:59:00 | 52.15156 | 11.33866 | 117° | 37km/h | 21750m | 4.4m/s | -54.4°C | 1.0% | 44.4hPa | 2.6V | 00:00:00 | 00:00:00 | 00:00:00 | |
| DO2SHX-10 | 2026-09-05 23:58:59 | 52.15156 | 11.33866 | 118° | 38km/h | 21750m | 4.4m/s | -54.3°C | 3.9% | 44.3hPa | 2.6V | 00:00:00 | 01:36:09 | 00:00:00 | |
| GOEST3-10 | 2026-09-05 23:58:58 | 52.15160 | 11.33852 | 118° | 38km/h | 21746m | 4.0m/s | -54.3°C | 3.8% | 44.4hPa | 2.6V | 00:00:00 | 00:00:00 | 00:00:00 | |
| DF7ER-10 | 2026-09-05 23:58:56 | 52.15164 | 11.33838 | 117° | 38km/h | 21741m | 5.4m/s | -54.3°C | 1.0% | 44.5hPa | 2.7V | 03:48:00 | 00:00:00 | 00:00:00 | |
| DB0DAN | 2026-09-05 23:58:55 | 52.15173 | 11.33809 | 113° | 37km/h | 21731m | 4.2m/s | -54.3°C | 1% | 44.52hPa | 2.7V | 00:00:00 | 00:00:00 | 00:00:00 | |
| DL1XH1-15 | 2026-09-05 23:58:54 | 52.15188 | 11.33759 | 118° | 31km/h | 21712m | 4.7m/s | -54.2°C | 3.8% | 44.7hPa | 2.7V | 03:48:39 | 01:36:01 | 00:00:00 | |
| BIOWL1-15 | 2026-09-05 23:58:54 | 52.15176 | 11.33795 | 114° | 37km/h | 21727m | 4.4m/s | -54.3°C | 0.2% | 44.5hPa | 2.6V | 03:49:28 | 01:36:04 | 00:00:00 | |
| AA1-15 | 2026-09-05 23:58:52 | 52.15184 | 11.33770 | 119° | 31km/h | 21716m | 5m/s | -54.2°C | 0.3% | 44.6hPa | 2.7V | 03:49:28 | 01:36:02 | 00:00:00 | |
| DL3AQ-11 | 2026-09-05 23:58:52 | 52.15184 | 11.33770 | 119° | 31km/h | 21716m | 5.0m/s | -54.2°C | -1.0% | -1.0hPa | 2.7V | 00:00:00 | 00:00:00 | 00:00:00 | |
| DM0DOS-11 | 2026-09-05 23:58:51 | 52.15204 | 11.33697 | 113° | 31km/h | 21687m | 5.6m/s | -54.4°C | 3.9% | 44.8hPa | 2.7V | 03:48:44 | 01:35:56 | 00:00:00 | |
| DL1XH-west | 2026-09-05 23:58:49 | 52.15195 | 11.33735 | 112° | 33km/h | 21701m | 5.4m/s | -54.3°C | 0.3% | 44.7hPa | 2.6V | 03:49:28 | 01:35:59 | 00:00:00 | |
| DO2JMG | 2026-09-05 23:58:47 | 52.15201 | 11.33709 | 111° | 33km/h | 21692m | 4m/s | -54.3°C | 0.2% | 44.8hPa | 2.7V | 03:49:28 | 01:35:57 | 00:00:00 | |
| DL1XH1-15 | 2026-09-05 23:58:46 | 52.15224 | 11.33644 | 122° | 31km/h | 21662m | 4.1m/s | -54.4°C | 3.9% | 45hPa | 2.6V | 03:48:49 | 01:35:51 | 00:00:00 | |
| HSKMA3-T | 2026-09-05 23:58:44 | 52.15211 | 11.33675 | 124° | 29km/h | 21677m | 4.7m/s | -54.4°C | 0.3% | 44.9hPa | 2.6V | 03:49:28 | 01:35:54 | 00:00:00 | |
| AA1-15 | 2026-09-05 23:58:42 | 52.15220 | 11.33655 | 124° | 33km/h | 21666m | 5.2m/s | -54.4°C | 0.3% | 45hPa | 2.6V | 03:49:28 | 01:35:52 | 00:00:00 | |
| DF8AY | 2026-09-05 23:58:41 | 52.15224 | 11.33644 | 123° | 31km/h | 21662m | 4.1m/s | -54.4°C | 0.2% | 45hPa | 2.6V | 03:49:28 | 01:35:51 | 00:00:00 | |
| DM0DOS-11 | 2026-09-05 23:58:41 | 52.15242 | 11.33596 | 117° | 27km/h | 21637m | 5.4m/s | -54.5°C | 3.9% | 45.1hPa | 2.6V | 03:48:54 | 01:35:46 | 00:00:00 | |
| DL1XH-west | 2026-09-05 23:58:38 | 52.15236 | 11.33614 | 122° | 26km/h | 21647m | 4.4m/s | -54.5°C | 0.3% | 45.1hPa | 2.7V | 03:49:28 | 01:35:48 | 00:00:00 | |
| EDDB2-11 | 2026-09-05 23:58:38 | 52.15239 | 11.33605 | 119° | 24km/h | 21642m | 4.6m/s | -54.5°C | 0.9% | 45.2hPa | 2.6V | 00:00:00 | 00:00:00 | 00:00:00 | |
| DC4HF-4 | 2026-09-05 23:58:37 | 52.15239 | 11.33605 | 119° | 24km/h | 21642m | 4.6m/s | -54.5°C | 0.9% | 45.2hPa | 2.6V | 00:00:00 | 00:00:00 | 00:00:00 | |
| DL1XH1-15 | 2026-09-05 23:58:36 | 52.15260 | 11.33551 | 129° | 27km/h | 21614m | 3.9m/s | -54.3°C | 3.8% | 45.3hPa | 2.6V | 03:48:59 | 01:35:41 | 00:00:00 | |
| HSKMA3-T | 2026-09-05 23:58:34 | 52.15249 | 11.33576 | 119° | 26km/h | 21628m | 4.8m/s | -54.4°C | 0.3% | 45.2hPa | 2.7V | 03:49:28 | 01:35:44 | 00:00:00 | |
| DO2JMG | 2026-09-05 23:58:33 | 52.15252 | 11.33567 | 123° | 24km/h | 21623m | 5.6m/s | -54.4°C | 0.3% | 45.3hPa | 2.7V | 03:49:28 | 01:35:43 | 00:00:00 | |
| AA1-15 | 2026-09-05 23:58:32 | 52.15255 | 11.33559 | 128° | 24km/h | 21618m | 4.3m/s | -54.4°C | 0.3% | 45.3hPa | 2.6V | 03:49:28 | 01:35:42 | 00:00:00 | |
| DF8AY | 2026-09-05 23:58:31 | 52.15259 | 11.33551 | 130° | 27km/h | 21614m | 3.9m/s | -54.3°C | 0.3% | 45.3hPa | 2.6V | 03:49:28 | 01:35:41 | 00:00:00 | |
| DF8AY-15 | 2026-09-05 23:58:31 | 52.15259 | 11.33551 | 130° | 33km/h | 21614m | 3.9m/s | -54.3°C | 3.8% | 45.3hPa | 2.6V | 00:00:00 | 01:35:41 | 00:00:00 | |
| DL1XH-15 | 2026-09-05 23:58:30 | 52.15269 | 11.33532 | 129° | 33km/h | 21603m | 5.2m/s | -54.3°C | 3.8% | 45.4hPa | 2.7V | 03:49:01 | 01:35:39 | 00:00:00 | |
| DL1XH-west | 2026-09-05 23:58:27 | 52.15280 | 11.33510 | 130° | 33km/h | 21593m | 5.7m/s | -54.2°C | 0.3% | 45.5hPa | 2.7V | 03:49:28 | 01:35:37 | 00:00:00 | |
| DL1XH1-15 | 2026-09-05 23:58:26 | 52.15310 | 11.33442 | 121° | 35km/h | 21563m | 5m/s | -54.1°C | 3.7% | 45.7hPa | 2.6V | 03:49:09 | 01:35:31 | 00:00:00 | |
| DB0DAN | 2026-09-05 23:58:25 | 52.15290 | 11.33489 | 128° | 31km/h | 21583m | 3.9m/s | -54.2°C | 0.9% | 45.57hPa | 2.6V | 00:00:00 | 00:00:00 | 00:00:00 | |
| HSKMA3-T | 2026-09-05 23:58:23 | 52.15300 | 11.33467 | 123° | 37km/h | 21573m | 5.8m/s | -54.1°C | 0.2% | 45.6hPa | 2.7V | 03:49:28 | 01:35:33 | 00:00:00 | |
| DO2JMG | 2026-09-05 23:58:22 | 52.15305 | 11.33454 | 122° | 37km/h | 21568m | 4.5m/s | -54.1°C | 0.2% | 45.7hPa | 2.7V | 03:49:28 | 01:35:32 | 00:00:00 | |
| AA1-15 | 2026-09-05 23:58:21 | 52.15310 | 11.33442 | 122° | 35km/h | 21563m | 5m/s | -54.1°C | 0.2% | 45.7hPa | 2.6V | 03:49:28 | 01:35:31 | 00:00:00 | |
| DL1XH-15 | 2026-09-05 23:58:20 | 52.15318 | 11.33420 | 122° | 31km/h | 21554m | 3.5m/s | -54.2°C | 3.7% | 45.7hPa | 2.6V | 03:49:11 | 01:35:29 | 00:00:00 | |
| DL1XH-west | 2026-09-05 23:58:17 | 52.15327 | 11.33397 | 120° | 35km/h | 21545m | 5.7m/s | -54.2°C | 0.2% | 45.8hPa | 2.7V | 03:49:28 | 01:35:27 | 00:00:00 | |
| HSKMA3-T | 2026-09-05 23:58:12 | 52.15350 | 11.33333 | 123° | 35km/h | 21520m | 4.1m/s | -54.6°C | 0.3% | 46hPa | 2.7V | 03:49:28 | 01:35:22 | 00:00:00 | |
| AA1-15 | 2026-09-05 23:58:11 | 52.15355 | 11.33320 | 123° | 38km/h | 21516m | 4.7m/s | -54.6°C | 0.3% | 46.1hPa | 2.7V | 03:49:28 | 01:35:21 | 00:00:00 | |
| DF8AY | 2026-09-05 23:58:10 | 52.15360 | 11.33307 | 122° | 40km/h | 21511m | 5.9m/s | -54.6°C | 0.3% | 46.1hPa | 2.6V | 03:49:28 | 01:35:20 | 00:00:00 | |
| DL1XH-15 | 2026-09-05 23:58:10 | 52.15366 | 11.33292 | 122° | 44km/h | 21506m | 4.1m/s | -54.6°C | 3.9% | 46.1hPa | 2.6V | 03:49:21 | 01:35:19 | 00:00:00 | |
| DB0DAN | 2026-09-05 23:58:10 | 52.15360 | 11.33307 | 122° | 38km/h | 21511m | 5.9m/s | -54.6°C | 1% | 46.06hPa | 2.6V | 00:00:00 | 00:00:00 | 00:00:00 | |
| DL1XH-west | 2026-09-05 23:58:06 | 52.15385 | 11.33250 | 130° | 40km/h | 21492m | 4.7m/s | -54.7°C | 0.3% | 46.2hPa | 2.7V | 03:49:28 | 01:35:16 | 00:00:00 | |
| DL1XH1-15 | 2026-09-05 23:58:06 | 52.15420 | 11.33183 | 128° | 42km/h | 21471m | 4.4m/s | -54.9°C | 3.9% | 46.4hPa | 2.7V | 03:49:29 | 01:35:11 | 00:00:00 | |
| HSKMA3-T | 2026-09-05 23:58:02 | 52.15413 | 11.33197 | 129° | 44km/h | 21475m | 3.7m/s | -54.9°C | 0.4% | 46.4hPa | 2.6V | 03:49:28 | 01:35:12 | 00:00:00 | |
| DO2SHX-10 | 2026-09-05 23:58:02 | 52.15413 | 11.33197 | 130° | 42km/h | 21475m | 3.7m/s | -54.8°C | 3.9% | 46.3hPa | 2.6V | 03:49:00 | 01:35:12 | 00:00:00 | |
| DC4HF-4 | 2026-09-05 23:58:01 | 52.15420 | 11.33183 | 128° | 42km/h | 21471m | 4.4m/s | -54.9°C | 1.0% | 46.4hPa | 2.6V | 00:00:00 | 00:00:00 | 00:00:00 | |
| DL1XH-15 | 2026-09-05 23:58:00 | 52.15432 | 11.33158 | 128° | 38km/h | 21461m | 4.5m/s | -54.9°C | 3.9% | 46.5hPa | 2.6V | 03:49:31 | 01:35:09 | 00:00:00 | |
| DO2JMG | 2026-09-05 23:58:00 | 52.15426 | 11.33170 | 129° | 40km/h | 21466m | 5.4m/s | -54.9°C | 0.3% | 46.4hPa | 2.7V | 03:51:10 | 01:35:10 | 00:00:00 | |
| DL1XH-west | 2026-09-05 23:57:55 | 52.15455 | 11.33103 | 119° | 42km/h | 21443m | 4.5m/s | -54.9°C | 0.2% | 46.6hPa | 2.7V | 03:50:19 | 01:35:05 | 00:00:00 | |
| DB0DAN | 2026-09-05 23:57:55 | 52.15455 | 11.33103 | 119° | 40km/h | 21443m | 4.5m/s | -54.9°C | 0.9% | 46.6hPa | 2.7V | 00:00:00 | 00:00:00 | 00:00:00 | |
| HSKMA3-T | 2026-09-05 23:57:51 | 52.15471 | 11.33044 | 107° | 40km/h | 21424m | 4.2m/s | -54.9°C | 0.3% | 46.7hPa | 2.6V | 03:50:19 | 01:35:01 | 00:00:00 | |
| AA1-15 | 2026-09-05 23:57:50 | 52.15474 | 11.33028 | 107° | 42km/h | 21419m | 5.7m/s | -55°C | 0.3% | 46.8hPa | 2.7V | 03:50:19 | 01:35:00 | 00:00:00 | |
| DO2JMG | 2026-09-05 23:57:49 | 52.15477 | 11.33011 | 107° | 44km/h | 21414m | 4.6m/s | -55°C | 0.3% | 46.8hPa | 2.7V | 03:51:10 | 01:34:59 | 00:00:00 | |
| DL1XH-west | 2026-09-05 23:57:44 | 52.15491 | 11.32939 | 110° | 33km/h | 21391m | 4.2m/s | -55°C | 0.3% | 46.9hPa | 2.7V | 03:50:19 | 01:34:54 | 00:00:00 | |
| HSKMA3-T | 2026-09-05 23:57:41 | 52.15500 | 11.32899 | 110° | 38km/h | 21377m | 4.1m/s | -55°C | 0.3% | 47hPa | 2.6V | 03:50:19 | 01:34:51 | 00:00:00 | |
| DB0DAN | 2026-09-05 23:57:40 | 52.15503 | 11.32884 | 106° | 37km/h | 21373m | 4.1m/s | -55.1°C | 1% | 47.1hPa | 2.6V | 00:00:00 | 00:00:00 | 00:00:00 | |
| AA1-15 | 2026-09-05 23:57:40 | 52.15503 | 11.32884 | 106° | 38km/h | 21373m | 4.1m/s | -55.1°C | 0.3% | 47.1hPa | 2.6V | 03:50:19 | 01:34:50 | 00:00:00 | |
| DF8AY | 2026-09-05 23:57:39 | 52.15506 | 11.32869 | 101° | 37km/h | 21368m | 5.9m/s | -55.1°C | 0.3% | 47.1hPa | 2.7V | 03:50:19 | 01:34:49 | 00:00:00 | |
| HTAHTA | 2026-09-05 23:57:39 | 52.15507 | 11.32855 | 94° | 35km/h | 21363m | 5.2m/s | -55.1°C | 1.0% | 47.1hPa | 2.6V | 00:00:00 | 00:00:00 | 00:00:00 | |
| DL1XH1-15 | 2026-09-05 23:57:36 | 52.15506 | 11.32743 | 87° | 35km/h | 21329m | 4.2m/s | -55.3°C | 4% | 47.4hPa | 2.6V | 03:49:59 | 01:34:41 | 00:00:00 | |
| DO2JMG | 2026-09-05 23:57:35 | 52.15507 | 11.32807 | 90° | 42km/h | 21348m | 4.9m/s | -55.2°C | 0.3% | 47.3hPa | 2.6V | 03:51:10 | 01:34:45 | 00:00:00 | |
| DL1XH-west | 2026-09-05 23:57:33 | 52.15507 | 11.32773 | 88° | 40km/h | 21339m | 5m/s | -55.2°C | 0.4% | 47.3hPa | 2.7V | 03:50:19 | 01:34:43 | 00:00:00 | |
| HSKMA3-T | 2026-09-05 23:57:30 | 52.15506 | 11.32729 | 93° | 33km/h | 21324m | 4.6m/s | -55.3°C | 0.4% | 47.4hPa | 2.6V | 03:50:19 | 01:34:40 | 00:00:00 | |
| AA1-15 | 2026-09-05 23:57:29 | 52.15507 | 11.32716 | 98° | 33km/h | 21319m | 5.7m/s | -55.4°C | 0.3% | 47.5hPa | 2.6V | 03:50:19 | 01:34:39 | 00:00:00 | |
| DO2SHX-10 | 2026-09-05 23:57:29 | 52.15507 | 11.32716 | 99° | 33km/h | 21319m | 5.6m/s | -55.3°C | 4.0% | 47.4hPa | 2.6V | 00:00:00 | 01:34:39 | 00:00:00 | |
| GOEST3-10 | 2026-09-05 23:57:28 | 52.15508 | 11.32702 | 103° | 33km/h | 21314m | 4.6m/s | -55.4°C | 4.0% | 47.5hPa | 2.7V | 03:50:00 | 00:00:00 | 00:00:00 | |
| SONCRA | 2026-09-05 23:57:27 | 52.15511 | 11.32675 | 98° | 31km/h | 21305m | 5.7m/s | -55.6°C | 1.0% | 47.6hPa | 2.7V | 00:00:00 | 00:00:00 | 00:00:00 | |
| DL1XH1-15 | 2026-09-05 23:57:26 | 52.15513 | 11.32607 | 91° | 35km/h | 21280m | 3.7m/s | -55.6°C | 4.2% | 47.8hPa | 2.7V | 03:50:09 | 01:34:31 | 00:00:00 | |
| DO2JMG | 2026-09-05 23:57:26 | 52.15512 | 11.32662 | 95° | 33km/h | 21299m | 5.2m/s | -55.6°C | 0.4% | 47.7hPa | 2.6V | 03:51:10 | 01:34:35 | 00:00:00 | |
| DB0DAN | 2026-09-05 23:57:25 | 52.15512 | 11.32662 | 94° | 31km/h | 21299m | 5.2m/s | -55.6°C | 1% | 47.66hPa | 2.6V | 00:00:00 | 00:00:00 | 00:00:00 | |
| DL1XH-west | 2026-09-05 23:57:23 | 52.15513 | 11.32635 | 91° | 35km/h | 21289m | 5.5m/s | -55.6°C | 0.4% | 47.7hPa | 2.7V | 03:50:19 | 01:34:33 | 00:00:00 | |
| DO2SHX-10 | 2026-09-05 23:57:23 | 52.15513 | 11.32635 | 91° | 35km/h | 21289m | 5.5m/s | -55.6°C | 4.2% | 47.7hPa | 2.6V | 00:00:00 | 01:34:33 | 00:00:00 | |
| DF7ER-10 | 2026-09-05 23:57:22 | 52.15513 | 11.32635 | 92° | 35km/h | 21289m | 5.5m/s | -55.6°C | 1.1% | 47.7hPa | 2.6V | 03:50:00 | 00:00:00 | 00:00:00 | |
| DL1XH-15 | 2026-09-05 23:57:20 | 52.15513 | 11.32580 | 83° | 29km/h | 21270m | 5.9m/s | -55.5°C | 4.1% | 47.9hPa | 2.6V | 03:50:11 | 01:34:29 | 00:00:00 | |
| HSKMA3-T | 2026-09-05 23:57:20 | 52.15513 | 11.32593 | 89° | 31km/h | 21275m | 5.2m/s | -55.5°C | 0.4% | 47.9hPa | 2.6V | 03:50:19 | 01:34:30 | 00:00:00 | |
| DO2SHX-10 | 2026-09-05 23:57:20 | 52.15513 | 11.32593 | 89° | 29km/h | 21275m | 5.1m/s | -55.5°C | 4.1% | 47.8hPa | 2.6V | 00:00:00 | 01:34:30 | 00:00:00 | |
| DB0UT-7 | 2026-09-05 23:57:19 | 52.15513 | 11.32580 | 84° | 26km/h | 21270m | 5.8m/s | -55.5°C | 4.1% | 47.8hPa | 2.6V | 00:00:00 | 00:00:00 | 00:00:00 | |
| AA1-15 | 2026-09-05 23:57:19 | 52.15513 | 11.32580 | 84° | 29km/h | 21270m | 5.9m/s | -55.5°C | 0.4% | 47.9hPa | 2.6V | 03:50:19 | 01:34:29 | 00:00:00 | |
| DL4BBY-15 | 2026-09-05 23:57:18 | 52.15512 | 11.32569 | 81° | 26km/h | 21265m | 4.2m/s | -55.8°C | 0% | 0hPa | 2.7V | 00:00:00 | 00:00:00 | 00:00:00 | |
| DO2SHX-10 | 2026-09-05 23:57:17 | 52.15511 | 11.32558 | 82° | 27km/h | 21260m | 4.6m/s | -55.4°C | 4.1% | 47.9hPa | 2.7V | 00:00:00 | 01:34:27 | 00:00:00 | |
| DL1XH1-15 | 2026-09-05 23:57:15 | 52.15506 | 11.32490 | 74° | 26km/h | 21229m | 4.1m/s | -55.3°C | 4.1% | 48.2hPa | 2.7V | 03:50:19 | 01:34:21 | 00:00:00 | |
| DO2JMG | 2026-09-05 23:57:14 | 52.15509 | 11.32523 | 87° | 29km/h | 21245m | 4.6m/s | -55.3°C | 0.4% | 48hPa | 2.6V | 03:51:10 | 01:34:24 | 00:00:00 | |
| DL1XH-west | 2026-09-05 23:57:13 | 52.15509 | 11.32511 | 84° | 27km/h | 21239m | 5.6m/s | -55.3°C | 0.4% | 48.1hPa | 2.6V | 03:50:19 | 01:34:23 | 00:00:00 | |
| DD8BA-10 | 2026-09-05 23:57:13 | 52.15509 | 11.32511 | 85° | 27km/h | 21240m | 5.5m/s | -55.3°C | 4.1% | 48.0hPa | 2.6V | 03:50:00 | 00:00:00 | 00:00:00 | |
| DF8AY-15 | 2026-09-05 23:57:11 | 52.15506 | 11.32490 | 75° | 26km/h | 21229m | 4.1m/s | -55.2°C | 4.1% | 48.1hPa | 2.6V | 00:00:00 | 01:34:21 | 00:00:00 | |
| DM0DOS-11 | 2026-09-05 23:57:11 | 52.15499 | 11.32432 | 76° | 29km/h | 21206m | 4.8m/s | -55.2°C | 4% | 48.3hPa | 2.7V | 03:50:24 | 01:34:16 | 00:00:00 | |
| DL1XH-15 | 2026-09-05 23:57:10 | 52.15503 | 11.32468 | 77° | 29km/h | 21220m | 5.6m/s | -55.2°C | 4.1% | 48.2hPa | 2.6V | 03:50:21 | 01:34:19 | 00:00:00 | |
| DB0DAN | 2026-09-05 23:57:10 | 52.15505 | 11.32479 | 75° | 26km/h | 21225m | 3.8m/s | -55.3°C | 1% | 48.23hPa | 2.7V | 00:00:00 | 00:00:00 | 00:00:00 | |
| HSKMA3-T | 2026-09-05 23:57:10 | 52.15505 | 11.32479 | 75° | 27km/h | 21225m | 3.8m/s | -55.3°C | 0.4% | 48.2hPa | 2.7V | 03:51:10 | 01:34:20 | 00:00:00 | |
| AA1-15 | 2026-09-05 23:57:08 | 52.15502 | 11.32456 | 80° | 29km/h | 21215m | 5.1m/s | -55.2°C | 0.4% | 48.3hPa | 2.6V | 03:51:10 | 01:34:18 | 00:00:00 | |
| HTAHTA | 2026-09-05 23:57:08 | 52.15500 | 11.32444 | 79° | 29km/h | 21210m | 4.2m/s | -55.2°C | 1.0% | 48.3hPa | 2.7V | 00:00:00 | 00:00:00 | 00:00:00 | |
| AM1SDL-15 | 2026-09-05 23:57:07 | 52.15500 | 11.32444 | 80° | 26km/h | 21210m | 4.2m/s | -55.2°C | 4.1% | 48.3hPa | 2.7V | 00:00:00 | 01:34:17 | 00:00:00 | |
| DL4XJ-10 | 2026-09-05 23:57:06 | 52.15499 | 11.32432 | 77° | 22km/h | 21206m | 4.8m/s | -55.5°C | 0% | 0hPa | 2.7V | 00:00:00 | 00:00:00 | 00:00:00 | |
| DL1XH1-15 | 2026-09-05 23:57:05 | 52.15489 | 11.32381 | 82° | 24km/h | 21180m | 4.3m/s | -55.1°C | 4% | 48.5hPa | 2.7V | 03:50:29 | 01:34:11 | 00:00:00 | |
| DL1XH-west | 2026-09-05 23:57:02 | 52.15490 | 11.32391 | 78° | 26km/h | 21185m | 5.6m/s | -55.1°C | 0.3% | 48.5hPa | 2.6V | 03:51:10 | 01:34:12 | 00:00:00 | |
| DO2SHX-10 | 2026-09-05 23:57:02 | 52.15490 | 11.32391 | 78° | 24km/h | 21185m | 5.5m/s | -55.1°C | 4.0% | 48.5hPa | 2.6V | 03:50:00 | 01:34:12 | 00:00:00 | |
| DL1XH-15 | 2026-09-05 23:57:00 | 52.15487 | 11.32362 | 76° | 24km/h | 21171m | 5.5m/s | -55.1°C | 4.1% | 48.6hPa | 2.7V | 03:50:31 | 01:34:09 | 00:00:00 | |
| DO2JMG | 2026-09-05 23:57:00 | 52.15488 | 11.32371 | 82° | 24km/h | 21176m | 4.1m/s | -55.1°C | 0.4% | 48.6hPa | 2.7V | 03:51:10 | 01:34:10 | 00:00:00 | |
| HSKMA3-T | 2026-09-05 23:56:59 | 52.15487 | 11.32362 | 76° | 24km/h | 21171m | 5.5m/s | -55.1°C | 0.4% | 48.6hPa | 2.7V | 03:51:10 | 01:34:09 | 00:00:00 | |
| AA1-15 | 2026-09-05 23:56:58 | 52.15485 | 11.32352 | 73° | 24km/h | 21166m | 4.8m/s | -55°C | 0.3% | 48.6hPa | 2.6V | 03:51:10 | 01:34:08 | 00:00:00 | |
| DF8AY | 2026-09-05 23:56:57 | 52.15481 | 11.32294 | 81° | 18km/h | 21137m | 5.8m/s | -54.8°C | 0.4% | 48.9hPa | 2.6V | 03:51:10 | 01:34:02 | 00:00:00 | |
| DL1XH1-15 | 2026-09-05 23:56:56 | 52.15480 | 11.32287 | 74° | 16km/h | 21131m | 4.5m/s | -54.8°C | 4% | 48.9hPa | 2.6V | 03:50:39 | 01:34:01 | 00:00:00 | |
| SONCRA | 2026-09-05 23:56:56 | 52.15482 | 11.32323 | 86° | 26km/h | 21151m | 5.2m/s | -54.9°C | 1.0% | 48.7hPa | 2.7V | 00:00:00 | 00:00:00 | 00:00:00 | |
| DB0DAN | 2026-09-05 23:56:55 | 52.15482 | 11.32323 | 86° | 26km/h | 21151m | 5.2m/s | -54.9°C | 1% | 48.72hPa | 2.7V | 00:00:00 | 00:00:00 | 00:00:00 | |
| DL1XH-west | 2026-09-05 23:56:51 | 52.15480 | 11.32287 | 75° | 16km/h | 21131m | 4.5m/s | -54.8°C | 0.3% | 48.9hPa | 2.6V | 03:51:10 | 01:34:01 | 00:00:00 | |
| DM0DOS-11 | 2026-09-05 23:56:51 | 52.15476 | 11.32255 | 75° | 16km/h | 21107m | 5.2m/s | -54.7°C | 4% | 49.1hPa | 2.6V | 03:50:44 | 01:33:56 | 00:00:00 | |
| DF8AY-15 | 2026-09-05 23:56:51 | 52.15480 | 11.32287 | 75° | 16km/h | 21132m | 4.4m/s | -54.8°C | 4.0% | 48.8hPa | 2.7V | 03:50:00 | 01:34:01 | 00:00:00 | |
| DL1XH-15 | 2026-09-05 23:56:50 | 52.15478 | 11.32275 | 80° | 15km/h | 21122m | 5.7m/s | -54.7°C | 4% | 49hPa | 2.7V | 03:50:41 | 01:33:59 | 00:00:00 | |
| HSKMA3-T | 2026-09-05 23:56:49 | 52.15478 | 11.32275 | 80° | 15km/h | 21122m | 5.7m/s | -54.7°C | 0.3% | 49hPa | 2.7V | 03:51:10 | 01:33:59 | 00:00:00 | |
| AA1-15 | 2026-09-05 23:56:48 | 52.15477 | 11.32269 | 85° | 16km/h | 21117m | 5m/s | -54.7°C | 0.3% | 49hPa | 2.7V | 03:51:10 | 01:33:58 | 00:00:00 | |
| DF8AY | 2026-09-05 23:56:47 | 52.15477 | 11.32262 | 83° | 16km/h | 21112m | 4.3m/s | -54.7°C | 0.3% | 49hPa | 2.6V | 03:51:10 | 01:33:57 | 00:00:00 | |
| DO2SHX-10 | 2026-09-05 23:56:47 | 52.15477 | 11.32262 | 84° | 16km/h | 21113m | 4.3m/s | -54.6°C | 3.9% | 49.0hPa | 2.6V | 00:00:00 | 01:33:57 | 00:00:00 | |
| DL1XH1-15 | 2026-09-05 23:56:46 | 52.15471 | 11.32220 | 89° | 20km/h | 21082m | 4.1m/s | -54.6°C | 3.9% | 49.3hPa | 2.6V | 03:50:49 | 01:33:51 | 00:00:00 | |
| DL4XJ-10 | 2026-09-05 23:56:46 | 52.15476 | 11.32255 | 76° | 15km/h | 21108m | 5.1m/s | -55.0°C | 0% | 0hPa | 2.6V | 00:00:00 | 00:00:00 | 00:00:00 | |
| NBG1-10 | 2026-09-05 23:56:45 | 52.15475 | 11.32249 | 69° | 13km/h | 21102m | 5.6m/s | -54.6°C | 3.9% | 49.1hPa | 2.6V | 03:50:00 | 01:33:55 | 00:00:00 | |
| DO2SHX-10 | 2026-09-05 23:56:44 | 52.15473 | 11.32242 | 67° | 18km/h | 21097m | 4.6m/s | -54.6°C | 3.9% | 49.1hPa | 2.7V | 00:00:00 | 01:33:54 | 00:00:00 | |
| DO3MHA-11 | 2026-09-05 23:56:43 | 52.15472 | 11.32235 | 75° | 13km/h | 21092m | 5.0m/s | -54.6°C | 3.9% | 49.1hPa | 2.7V | 00:00:00 | 01:33:53 | 00:00:00 | |
| DM0DOS-11 | 2026-09-05 23:56:41 | 52.15470 | 11.32185 | 92° | 16km/h | 21057m | 5.8m/s | -54.5°C | 3.9% | 49.5hPa | 2.6V | 03:50:54 | 01:33:46 | 00:00:00 | |
| DL1XH-west | 2026-09-05 23:56:40 | 52.15471 | 11.32212 | 89° | 18km/h | 21078m | 4.4m/s | -54.6°C | 0.3% | 49.3hPa | 2.6V | 03:51:10 | 01:33:50 | 00:00:00 | |
| DL1XH-15 | 2026-09-05 23:56:40 | 52.15471 | 11.32205 | 85° | 16km/h | 21072m | 5.5m/s | -54.6°C | 3.9% | 49.4hPa | 2.7V | 03:50:51 | 01:33:49 | 00:00:00 | |
| DB0DAN | 2026-09-05 23:56:40 | 52.15471 | 11.32212 | 89° | 18km/h | 21078m | 4.4m/s | -54.6°C | 1% | 49.31hPa | 2.6V | 00:00:00 | 00:00:00 | 00:00:00 | |
| HSKMA3-T | 2026-09-05 23:56:39 | 52.15471 | 11.32205 | 86° | 16km/h | 21072m | 5.5m/s | -54.6°C | 0.3% | 49.4hPa | 2.7V | 03:51:10 | 01:33:49 | 00:00:00 | |
| AA1-15 | 2026-09-05 23:56:38 | 52.15470 | 11.32198 | 85° | 16km/h | 21067m | 4.7m/s | -54.6°C | 0.4% | 49.4hPa | 2.7V | 03:51:10 | 01:33:48 | 00:00:00 | |
| DF8AY | 2026-09-05 23:56:37 | 52.15470 | 11.32192 | 87° | 16km/h | 21062m | 5.2m/s | -54.5°C | 0.4% | 49.4hPa | 2.7V | 03:51:10 | 01:33:47 | 00:00:00 | |
| HTAHTA | 2026-09-05 23:56:37 | 52.15470 | 11.32185 | 92° | 15km/h | 21057m | 5.8m/s | -54.5°C | 0.9% | 49.5hPa | 2.6V | 00:00:00 | 00:00:00 | 00:00:00 | |
| DO2SHX-10 | 2026-09-05 23:56:35 | 52.15470 | 11.32179 | 92° | 13km/h | 21052m | 4.6m/s | -54.4°C | 4.0% | 49.5hPa | 2.6V | 00:00:00 | 01:33:45 | 00:00:00 | |
| DJ8HS-15 | 2026-09-05 23:56:34 | 52.15470 | 11.32173 | 85° | 11km/h | 21047m | 4.7m/s | -54.4°C | 4.0% | 49.5hPa | 2.6V | 00:00:00 | 01:33:44 | 00:00:00 | |
| DD8BA-10 | 2026-09-05 23:56:33 | 52.15469 | 11.32168 | 71° | 9km/h | 21042m | 6.1m/s | -54.4°C | 4.0% | 49.5hPa | 2.7V | 03:50:00 | 00:00:00 | 00:00:00 | |
| DO2SHX-10 | 2026-09-05 23:56:32 | 52.15468 | 11.32165 | 59° | 9km/h | 21036m | 4.5m/s | -54.3°C | 4.0% | 49.6hPa | 2.7V | 00:00:00 | 01:33:42 | 00:00:00 | |
| DM0DOS-11 | 2026-09-05 23:56:31 | 52.15465 | 11.32143 | 66° | 9km/h | 21006m | 5.6m/s | -54.2°C | 4% | 49.9hPa | 2.7V | 03:51:04 | 01:33:36 | 00:00:00 | |
| DO3MHA-11 | 2026-09-05 23:56:31 | 52.15467 | 11.32162 | 61° | 11km/h | 21032m | 4.3m/s | -54.3°C | 4.0% | 49.6hPa | 2.6V | 00:00:00 | 01:33:41 | 00:00:00 | |
| DL1XH-15 | 2026-09-05 23:56:30 | 52.15466 | 11.32155 | 85° | 9km/h | 21021m | 4.4m/s | -54.3°C | 4% | 49.8hPa | 2.6V | 03:51:01 | 01:33:39 | 00:00:00 | |
| DO2JMG | 2026-09-05 23:56:29 | 52.15466 | 11.32155 | 86° | 9km/h | 21021m | 4.4m/s | -54.3°C | 0.4% | 49.8hPa | 2.6V | 03:51:10 | 01:33:39 | 00:00:00 | |
| DF8AY | 2026-09-05 23:56:28 | 52.15465 | 11.32143 | 66° | 9km/h | 21006m | 5.6m/s | -54.2°C | 0.4% | 49.9hPa | 2.7V | 03:51:10 | 01:33:36 | 00:00:00 | |
| HSKMA3-T | 2026-09-05 23:56:28 | 52.15466 | 11.32151 | 88° | 9km/h | 21017m | 4.4m/s | -54.3°C | 0.3% | 49.8hPa | 2.7V | 03:51:10 | 01:33:38 | 00:00:00 | |
| AA1-15 | 2026-09-05 23:56:27 | 52.15465 | 11.32147 | 79° | 9km/h | 21012m | 6m/s | -54.2°C | 0.4% | 49.8hPa | 2.7V | 03:51:10 | 01:33:37 | 00:00:00 | |
| DL4XJ-10 | 2026-09-05 23:56:26 | 52.15465 | 11.32143 | 67° | 11km/h | 21006m | 5.6m/s | -54.5°C | 0% | 0hPa | 2.7V | 00:00:00 | 00:00:00 | 00:00:00 | |
| EDDB2-12 | 2026-09-05 23:56:25 | 52.15464 | 11.32140 | 63° | 9km/h | 21001m | 4.8m/s | -54.1°C | 1.0% | 49.9hPa | 2.7V | 00:00:00 | 00:00:00 | 00:00:00 | |
| HARRO8 | 2026-09-05 23:56:24 | 52.15463 | 11.32135 | 67° | 11km/h | 20996m | 5.5m/s | -54.1°C | 0.9% | 49.9hPa | 2.7V | 00:00:00 | 00:00:00 | 00:00:00 | |
| DL1XH1-15 | 2026-09-05 23:56:23 | 52.15459 | 11.32120 | 57° | 15km/h | 20981m | 4.7m/s | -54°C | 3.9% | 50hPa | 2.7V | 03:51:09 | 01:33:31 | 00:00:00 | |
| DM0DOS-11 | 2026-09-05 23:56:21 | 52.15446 | 11.32110 | 9° | 7km/h | 20954m | 5m/s | -53.8°C | 3.9% | 50.3hPa | 2.7V | 03:51:14 | 01:33:26 | 00:00:00 | |
| DO3MHA-11 | 2026-09-05 23:56:21 | 52.15459 | 11.32120 | 58° | 11km/h | 20981m | 4.7m/s | -53.9°C | 3.9% | 50.0hPa | 2.6V | 03:51:00 | 01:33:31 | 00:00:00 | |
| DL1XH-15 | 2026-09-05 23:56:20 | 52.15454 | 11.32113 | 20° | 13km/h | 20970m | 4.7m/s | -53.9°C | 3.9% | 50.1hPa | 2.6V | 03:51:11 | 01:33:29 | 00:00:00 | |
| DO2JMG | 2026-09-05 23:56:19 | 52.15454 | 11.32113 | 20° | 13km/h | 20970m | 4.7m/s | 0°C | 0% | 50.1hPa | 2.6V | 18:12:15 | 01:33:29 | 00:00:00 | |
| DL1XH-west | 2026-09-05 23:56:18 | 52.15451 | 11.32112 | 10° | 13km/h | 20965m | 4.9m/s | -53.9°C | 0.2% | 50.2hPa | 2.6V | 03:52:01 | 01:33:28 | 00:00:00 | |
| AA1-15 | 2026-09-05 23:56:17 | 52.15448 | 11.32111 | 9° | 9km/h | 20960m | 5.9m/s | -53.8°C | 0.3% | 50.2hPa | 2.7V | 03:52:01 | 01:33:27 | 00:00:00 | |
| DF8AY | 2026-09-05 23:56:16 | 52.15444 | 11.32110 | 11° | 5km/h | 20950m | 4.3m/s | -53.7°C | 0.3% | 50.3hPa | 2.7V | 03:52:01 | 01:33:25 | 00:00:00 | |
| DO2SHX-10 | 2026-09-05 23:56:14 | 52.15442 | 11.32109 | 11° | 7km/h | 20945m | 6.0m/s | -53.6°C | 3.8% | 50.3hPa | 2.7V | 03:51:00 | 01:33:24 | 00:00:00 | |
| DC4HF-4 | 2026-09-05 23:56:13 | 52.15439 | 11.32107 | 40° | 7km/h | 20935m | 3.9m/s | -53.6°C | 0.9% | 50.4hPa | 2.7V | 00:00:00 | 00:00:00 | 00:00:00 | |
| DL3AQ-11 | 2026-09-05 23:56:12 | 52.15436 | 11.32093 | 79° | 15km/h | 20919m | 4.7m/s | 0°C | -1.0% | -1.0hPa | 2.7V | 00:00:00 | 00:00:00 | 00:00:00 | |
| DM0DOS-11 | 2026-09-05 23:56:11 | 52.15432 | 11.32079 | 30° | 11km/h | 20905m | 5.2m/s | -53.4°C | 3.7% | 50.6hPa | 2.7V | 03:51:24 | 01:33:16 | 00:00:00 | |
| DB0DAN | 2026-09-05 23:56:10 | 52.15437 | 11.32099 | 77° | 13km/h | 20925m | 6.4m/s | -53.5°C | 0.9% | 50.49hPa | 2.7V | 00:00:00 | 00:00:00 | 00:00:00 | |
| DL1XH-west | 2026-09-05 23:56:07 | 52.15434 | 11.32082 | 58° | 13km/h | 20910m | 5.5m/s | -53.4°C | 0.2% | 50.6hPa | 2.6V | 03:52:01 | 01:33:17 | 00:00:00 | |
| AA1-15 | 2026-09-05 23:56:06 | 52.15432 | 11.32079 | 30° | 11km/h | 20905m | 5.2m/s | -53.4°C | 0.2% | 50.6hPa | 2.7V | 03:52:01 | 01:33:16 | 00:00:00 | |
| DF8AY | 2026-09-05 23:56:04 | 52.15427 | 11.32078 | 335° | 9km/h | 20895m | 4.6m/s | -53.3°C | 0.2% | 50.8hPa | 2.7V | 03:52:01 | 01:33:14 | 00:00:00 | |
| DL1XH-15 | 2026-09-05 23:56:04 | 52.15421 | 11.32087 | 13° | 7km/h | 20870m | 5m/s | -53.1°C | 3.7% | 51hPa | 2.7V | 03:51:31 | 01:33:09 | 00:00:00 | |
| DD8BA-10 | 2026-09-05 23:56:03 | 52.15425 | 11.32080 | 316° | 9km/h | 20890m | 5.9m/s | -53.2°C | 3.7% | 50.7hPa | 2.6V | 00:00:00 | 00:00:00 | 00:00:00 | |
| DO2SHX-10 | 2026-09-05 23:56:02 | 52.15424 | 11.32083 | 302° | 5km/h | 20885m | 5.0m/s | -53.1°C | 3.7% | 50.8hPa | 2.6V | 03:51:00 | 01:33:12 | 00:00:00 | |
| DM0DOS-11 | 2026-09-05 23:56:01 | 52.15417 | 11.32077 | 84° | 15km/h | 20854m | 5.4m/s | -53°C | 3.6% | 51hPa | 2.6V | 03:51:34 | 01:33:06 | 00:00:00 | |
| SMARD9-15 | 2026-09-05 23:55:58 | 52.15418 | 11.32082 | 68° | 11km/h | 20860m | 5.8m/s | -53.0°C | 0.9% | 51.0hPa | 2.6V | 00:00:00 | 00:00:00 | 00:00:00 | |
| GOEST3-10 | 2026-09-05 23:55:57 | 52.15418 | 11.32082 | 69° | 15km/h | 20860m | 5.7m/s | -53.0°C | 3.6% | 50.9hPa | 2.6V | 00:00:00 | 00:00:00 | 00:00:00 | |
| DL1XH1-15 | 2026-09-05 23:55:56 | 52.15413 | 11.32051 | 53° | 5km/h | 20829m | 5.2m/s | -52.9°C | 3.6% | 51.2hPa | 2.6V | 03:51:39 | 01:33:01 | 00:00:00 | |
| HSKMA3-T | 2026-09-05 23:55:56 | 52.15417 | 11.32077 | 84° | 15km/h | 20854m | 5.4m/s | -53°C | 0.2% | 51hPa | 2.6V | 03:52:01 | 01:33:06 | 00:00:00 | |
| AA1-15 | 2026-09-05 23:55:55 | 52.15417 | 11.32071 | 87° | 16km/h | 20849m | 4.2m/s | -53°C | 0.1% | 51.1hPa | 2.7V | 03:52:01 | 01:33:05 | 00:00:00 | |
| DB0DAN | 2026-09-05 23:55:55 | 52.15417 | 11.32071 | 87° | 15km/h | 20849m | 4.2m/s | -53°C | 0.9% | 51.09hPa | 2.7V | 00:00:00 | 00:00:00 | 00:00:00 | |
| DO2JMG | 2026-09-05 23:55:53 | 52.15415 | 11.32058 | 68° | 15km/h | 20839m | 5.1m/s | 0°C | 0% | 0hPa | 2.7V | 18:12:15 | 01:33:03 | 00:00:00 | |
| DO2SHX-10 | 2026-09-05 23:55:53 | 52.15415 | 11.32058 | 69° | 11km/h | 20839m | 5.1m/s | -52.9°C | 3.6% | 51.1hPa | 2.6V | 00:00:00 | 01:33:03 | 00:00:00 | |
| GOEST3-10 | 2026-09-05 23:55:52 | 52.15414 | 11.32053 | 59° | 9km/h | 20835m | 4.3m/s | -52.9°C | 3.7% | 51.1hPa | 2.6V | 00:00:00 | 01:33:02 | 00:00:00 | |
| DM0DOS-11 | 2026-09-05 23:55:51 | 52.15412 | 11.32060 | 274° | 2km/h | 20799m | 3.3m/s | -52.9°C | 3.7% | 51.5hPa | 2.6V | 03:51:45 | 01:32:55 | 00:00:00 | |
| DO2SHX-10 | 2026-09-05 23:55:50 | 52.15412 | 11.32049 | 18° | 4km/h | 20824m | 6.1m/s | -52.9°C | 3.6% | 51.2hPa | 2.6V | 03:51:00 | 01:33:00 | 00:00:00 | |
| DB0UT-7 | 2026-09-05 23:55:49 | 52.15412 | 11.32050 | 256° | 11km/h | 20818m | 5.1m/s | -52.9°C | 3.6% | 51.3hPa | 2.7V | 03:51:00 | 01:32:59 | 00:00:00 | |
| DF7ER-10 | 2026-09-05 23:55:47 | 52.15412 | 11.32056 | 268° | 7km/h | 20808m | 5.9m/s | -52.9°C | 0.9% | 51.4hPa | 2.6V | 03:52:00 | 00:00:00 | 00:00:00 | |
| Es werden nur die letzten 3500 von 6645 Frames angezeigt. GPX/KML und Diagramme bleiben verfügbar. | |||||||||||||||